<?xml version='1.0' encoding='UTF-8'?><gpx version="1.1" creator="JPX - https://github.com/jenetics/jpx" xmlns="http://www.topografix.com/GPX/1/1"><trk><trkseg><trkpt lat="45.595378" lon="12.312625"><ele>4.0</ele><time>2026-03-29T06:16:24.859Z</time></trkpt><trkpt lat="45.5954366" lon="12.3126872"><ele>4.0</ele><time>2026-03-29T06:17:11.848Z</time></trkpt><trkpt lat="45.5953275" lon="12.3127561"><ele>4.0</ele><time>2026-03-29T06:23:41.86Z</time></trkpt><trkpt lat="45.5952809" lon="12.3126104"><ele>4.0</ele><time>2026-03-29T06:24:22.873Z</time></trkpt><trkpt lat="45.5953257" lon="12.3126741"><ele>4.0</ele><time>2026-03-29T06:26:56.877Z</time></trkpt><trkpt lat="45.5953697" lon="12.3125636"><ele>3.9999999999999996</ele><time>2026-03-29T06:28:34.881Z</time></trkpt><trkpt lat="45.5954331" lon="12.3124261"><ele>4.0</ele><time>2026-03-29T06:28:36.879Z</time></trkpt><trkpt lat="45.595471" lon="12.3123436"><ele>4.0</ele><time>2026-03-29T06:28:37.904Z</time></trkpt><trkpt lat="45.5955088" lon="12.3122716"><ele>4.0</ele><time>2026-03-29T06:28:38.898Z</time></trkpt><trkpt lat="45.5955671" lon="12.3121656"><ele>3.9999999999999996</ele><time>2026-03-29T06:28:40.898Z</time></trkpt><trkpt lat="45.595608" lon="12.3120922"><ele>4.0</ele><time>2026-03-29T06:28:44.932Z</time></trkpt><trkpt lat="45.595691" lon="12.3121167"><ele>4.0</ele><time>2026-03-29T06:28:49.91Z</time></trkpt><trkpt lat="45.5957884" lon="12.3122201"><ele>4.0</ele><time>2026-03-29T06:28:51.911Z</time></trkpt><trkpt lat="45.5958434" lon="12.3122873"><ele>4.0</ele><time>2026-03-29T06:28:52.894Z</time></trkpt><trkpt lat="45.595899" lon="12.3123659"><ele>4.0</ele><time>2026-03-29T06:28:53.901Z</time></trkpt><trkpt lat="45.5959622" lon="12.3124532"><ele>4.0</ele><time>2026-03-29T06:28:54.891Z</time></trkpt><trkpt lat="45.5960359" lon="12.3125481"><ele>4.0</ele><time>2026-03-29T06:28:55.898Z</time></trkpt><trkpt lat="45.5961201" lon="12.3126481"><ele>4.0</ele><time>2026-03-29T06:28:56.897Z</time></trkpt><trkpt lat="45.5962102" lon="12.3127514"><ele>4.0</ele><time>2026-03-29T06:28:57.89Z</time></trkpt><trkpt lat="45.5962972" lon="12.3128497"><ele>4.0</ele><time>2026-03-29T06:28:58.907Z</time></trkpt><trkpt lat="45.5963804" lon="12.3129438"><ele>4.0</ele><time>2026-03-29T06:28:59.892Z</time></trkpt><trkpt lat="45.5964605" lon="12.3130348"><ele>3.8000000000000003</ele><time>2026-03-29T06:29:00.904Z</time></trkpt><trkpt lat="45.5965376" lon="12.3131204"><ele>3.6000000000000005</ele><time>2026-03-29T06:29:01.902Z</time></trkpt><trkpt lat="45.5966151" lon="12.3131993"><ele>3.4</ele><time>2026-03-29T06:29:02.904Z</time></trkpt><trkpt lat="45.596694" lon="12.3132784"><ele>3.2</ele><time>2026-03-29T06:29:03.903Z</time></trkpt><trkpt lat="45.5967782" lon="12.313362"><ele>3.0</ele><time>2026-03-29T06:29:04.901Z</time></trkpt><trkpt lat="45.5968677" lon="12.3134506"><ele>3.0</ele><time>2026-03-29T06:29:05.89Z</time></trkpt><trkpt lat="45.5969632" lon="12.3135356"><ele>3.0</ele><time>2026-03-29T06:29:06.899Z</time></trkpt><trkpt lat="45.5970607" lon="12.313618"><ele>3.0</ele><time>2026-03-29T06:29:07.895Z</time></trkpt><trkpt lat="45.5971505" lon="12.3136919"><ele>3.0</ele><time>2026-03-29T06:29:08.905Z</time></trkpt><trkpt lat="45.5972289" lon="12.313768"><ele>3.0</ele><time>2026-03-29T06:29:09.898Z</time></trkpt><trkpt lat="45.5973041" lon="12.3138424"><ele>3.0</ele><time>2026-03-29T06:29:10.893Z</time></trkpt><trkpt lat="45.5973754" lon="12.3139248"><ele>3.0</ele><time>2026-03-29T06:29:11.897Z</time></trkpt><trkpt lat="45.5974328" lon="12.3140292"><ele>3.0</ele><time>2026-03-29T06:29:12.892Z</time></trkpt><trkpt lat="45.5974699" lon="12.3141722"><ele>3.0</ele><time>2026-03-29T06:29:13.921Z</time></trkpt><trkpt lat="45.5975041" lon="12.3143358"><ele>3.0</ele><time>2026-03-29T06:29:14.904Z</time></trkpt><trkpt lat="45.5975352" lon="12.3145142"><ele>3.0</ele><time>2026-03-29T06:29:15.887Z</time></trkpt><trkpt lat="45.5975681" lon="12.3147047"><ele>3.0</ele><time>2026-03-29T06:29:16.903Z</time></trkpt><trkpt lat="45.5976008" lon="12.3149044"><ele>3.0</ele><time>2026-03-29T06:29:17.901Z</time></trkpt><trkpt lat="45.5976328" lon="12.3151008"><ele>3.0</ele><time>2026-03-29T06:29:18.916Z</time></trkpt><trkpt lat="45.5976637" lon="12.3152952"><ele>2.75</ele><time>2026-03-29T06:29:19.914Z</time></trkpt><trkpt lat="45.5976977" lon="12.3154872"><ele>2.5</ele><time>2026-03-29T06:29:20.895Z</time></trkpt><trkpt lat="45.5977276" lon="12.3156833"><ele>2.25</ele><time>2026-03-29T06:29:21.905Z</time></trkpt><trkpt lat="45.5977934" lon="12.3158698"><ele>2.0</ele><time>2026-03-29T06:29:22.903Z</time></trkpt><trkpt lat="45.5978864" lon="12.3160435"><ele>2.0</ele><time>2026-03-29T06:29:23.908Z</time></trkpt><trkpt lat="45.597996" lon="12.3162059"><ele>2.0</ele><time>2026-03-29T06:29:24.902Z</time></trkpt><trkpt lat="45.5981114" lon="12.316366"><ele>2.0</ele><time>2026-03-29T06:29:25.912Z</time></trkpt><trkpt lat="45.5982313" lon="12.3165212"><ele>3.0</ele><time>2026-03-29T06:29:26.927Z</time></trkpt><trkpt lat="45.5983567" lon="12.3166744"><ele>4.0</ele><time>2026-03-29T06:29:27.916Z</time></trkpt><trkpt lat="45.5984782" lon="12.3168224"><ele>5.0</ele><time>2026-03-29T06:29:28.908Z</time></trkpt><trkpt lat="45.598595" lon="12.3169629"><ele>5.0</ele><time>2026-03-29T06:29:29.914Z</time></trkpt><trkpt lat="45.5987051" lon="12.3171005"><ele>5.0</ele><time>2026-03-29T06:29:30.911Z</time></trkpt><trkpt lat="45.5988145" lon="12.3172246"><ele>5.0</ele><time>2026-03-29T06:29:31.914Z</time></trkpt><trkpt lat="45.5989295" lon="12.3173179"><ele>5.0</ele><time>2026-03-29T06:29:32.894Z</time></trkpt><trkpt lat="45.5990395" lon="12.3173897"><ele>5.0</ele><time>2026-03-29T06:29:33.918Z</time></trkpt><trkpt lat="45.5991266" lon="12.3174524"><ele>5.0</ele><time>2026-03-29T06:29:34.896Z</time></trkpt><trkpt lat="45.5991903" lon="12.3174917"><ele>5.0</ele><time>2026-03-29T06:29:35.892Z</time></trkpt><trkpt lat="45.5992543" lon="12.3175552"><ele>5.0</ele><time>2026-03-29T06:29:37.901Z</time></trkpt><trkpt lat="45.5992728" lon="12.3177031"><ele>5.0</ele><time>2026-03-29T06:29:40.916Z</time></trkpt><trkpt lat="45.5992536" lon="12.3178056"><ele>5.0</ele><time>2026-03-29T06:29:41.905Z</time></trkpt><trkpt lat="45.5992315" lon="12.3179231"><ele>5.0</ele><time>2026-03-29T06:29:42.902Z</time></trkpt><trkpt lat="45.5992099" lon="12.3180563"><ele>5.0</ele><time>2026-03-29T06:29:43.901Z</time></trkpt><trkpt lat="45.5991818" lon="12.3181964"><ele>5.0</ele><time>2026-03-29T06:29:44.905Z</time></trkpt><trkpt lat="45.5991542" lon="12.3183443"><ele>5.0</ele><time>2026-03-29T06:29:45.909Z</time></trkpt><trkpt lat="45.5991263" lon="12.3184977"><ele>5.0</ele><time>2026-03-29T06:29:46.922Z</time></trkpt><trkpt lat="45.599102" lon="12.3186548"><ele>4.75</ele><time>2026-03-29T06:29:47.903Z</time></trkpt><trkpt lat="45.5990748" lon="12.3188207"><ele>4.5</ele><time>2026-03-29T06:29:48.899Z</time></trkpt><trkpt lat="45.5990444" lon="12.3189939"><ele>4.25</ele><time>2026-03-29T06:29:49.902Z</time></trkpt><trkpt lat="45.5990153" lon="12.3191774"><ele>4.0</ele><time>2026-03-29T06:29:50.901Z</time></trkpt><trkpt lat="45.5989852" lon="12.3193667"><ele>4.0</ele><time>2026-03-29T06:29:51.906Z</time></trkpt><trkpt lat="45.5989571" lon="12.3195581"><ele>4.0</ele><time>2026-03-29T06:29:52.9Z</time></trkpt><trkpt lat="45.5989265" lon="12.3197504"><ele>4.0</ele><time>2026-03-29T06:29:53.924Z</time></trkpt><trkpt lat="45.5988933" lon="12.319939"><ele>4.0</ele><time>2026-03-29T06:29:54.921Z</time></trkpt><trkpt lat="45.5988369" lon="12.3201207"><ele>4.0</ele><time>2026-03-29T06:29:55.903Z</time></trkpt><trkpt lat="45.5987825" lon="12.3203036"><ele>4.0</ele><time>2026-03-29T06:29:56.902Z</time></trkpt><trkpt lat="45.598725" lon="12.3204844"><ele>4.0</ele><time>2026-03-29T06:29:57.891Z</time></trkpt><trkpt lat="45.5986764" lon="12.3206692"><ele>4.0</ele><time>2026-03-29T06:29:58.913Z</time></trkpt><trkpt lat="45.5986364" lon="12.3208626"><ele>4.0</ele><time>2026-03-29T06:29:59.91Z</time></trkpt><trkpt lat="45.5986062" lon="12.3210614"><ele>4.0</ele><time>2026-03-29T06:30:00.929Z</time></trkpt><trkpt lat="45.5985577" lon="12.3212509"><ele>4.0</ele><time>2026-03-29T06:30:01.928Z</time></trkpt><trkpt lat="45.5985303" lon="12.3214623"><ele>4.0</ele><time>2026-03-29T06:30:02.91Z</time></trkpt><trkpt lat="45.5984876" lon="12.321675"><ele>4.0</ele><time>2026-03-29T06:30:03.937Z</time></trkpt><trkpt lat="45.5984462" lon="12.3218807"><ele>4.0</ele><time>2026-03-29T06:30:04.906Z</time></trkpt><trkpt lat="45.5983868" lon="12.3220726"><ele>4.0</ele><time>2026-03-29T06:30:05.929Z</time></trkpt><trkpt lat="45.5983351" lon="12.3222603"><ele>4.0</ele><time>2026-03-29T06:30:06.92Z</time></trkpt><trkpt lat="45.5982874" lon="12.3224407"><ele>4.2</ele><time>2026-03-29T06:30:07.904Z</time></trkpt><trkpt lat="45.5982355" lon="12.3226089"><ele>4.4</ele><time>2026-03-29T06:30:08.909Z</time></trkpt><trkpt lat="45.5981869" lon="12.3227612"><ele>4.6</ele><time>2026-03-29T06:30:09.907Z</time></trkpt><trkpt lat="45.5981423" lon="12.3228879"><ele>4.8</ele><time>2026-03-29T06:30:10.898Z</time></trkpt><trkpt lat="45.5980862" lon="12.3229919"><ele>5.0</ele><time>2026-03-29T06:30:11.914Z</time></trkpt><trkpt lat="45.5980158" lon="12.3230764"><ele>5.0</ele><time>2026-03-29T06:30:12.902Z</time></trkpt><trkpt lat="45.5979654" lon="12.3231582"><ele>5.0</ele><time>2026-03-29T06:30:13.901Z</time></trkpt><trkpt lat="45.5979286" lon="12.3232454"><ele>5.0</ele><time>2026-03-29T06:30:14.897Z</time></trkpt><trkpt lat="45.597926" lon="12.3233405"><ele>5.0</ele><time>2026-03-29T06:30:15.91Z</time></trkpt><trkpt lat="45.5979338" lon="12.3234376"><ele>5.0</ele><time>2026-03-29T06:30:16.901Z</time></trkpt><trkpt lat="45.5979613" lon="12.3235367"><ele>5.0</ele><time>2026-03-29T06:30:17.896Z</time></trkpt><trkpt lat="45.5980211" lon="12.3236254"><ele>5.0</ele><time>2026-03-29T06:30:18.911Z</time></trkpt><trkpt lat="45.5981015" lon="12.3237261"><ele>5.0</ele><time>2026-03-29T06:30:19.904Z</time></trkpt><trkpt lat="45.5982031" lon="12.323836"><ele>5.0</ele><time>2026-03-29T06:30:20.9Z</time></trkpt><trkpt lat="45.5983164" lon="12.3239593"><ele>5.0</ele><time>2026-03-29T06:30:21.909Z</time></trkpt><trkpt lat="45.5984223" lon="12.3241202"><ele>5.0</ele><time>2026-03-29T06:30:22.917Z</time></trkpt><trkpt lat="45.5985328" lon="12.3242969"><ele>5.0</ele><time>2026-03-29T06:30:23.918Z</time></trkpt><trkpt lat="45.5986489" lon="12.3244838"><ele>5.0</ele><time>2026-03-29T06:30:24.903Z</time></trkpt><trkpt lat="45.5987665" lon="12.3246717"><ele>5.0</ele><time>2026-03-29T06:30:25.912Z</time></trkpt><trkpt lat="45.5988891" lon="12.3248419"><ele>5.0</ele><time>2026-03-29T06:30:26.902Z</time></trkpt><trkpt lat="45.5990143" lon="12.3249888"><ele>5.0</ele><time>2026-03-29T06:30:27.904Z</time></trkpt><trkpt lat="45.599148" lon="12.3251026"><ele>5.0</ele><time>2026-03-29T06:30:28.904Z</time></trkpt><trkpt lat="45.599279" lon="12.3251887"><ele>5.0</ele><time>2026-03-29T06:30:29.909Z</time></trkpt><trkpt lat="45.5994009" lon="12.3252694"><ele>5.0</ele><time>2026-03-29T06:30:30.908Z</time></trkpt><trkpt lat="45.5995089" lon="12.3253614"><ele>5.0</ele><time>2026-03-29T06:30:31.938Z</time></trkpt><trkpt lat="45.5995921" lon="12.3254799"><ele>5.0</ele><time>2026-03-29T06:30:32.905Z</time></trkpt><trkpt lat="45.5996774" lon="12.3255849"><ele>4.5</ele><time>2026-03-29T06:30:33.919Z</time></trkpt><trkpt lat="45.5997346" lon="12.325723"><ele>4.0</ele><time>2026-03-29T06:30:34.915Z</time></trkpt><trkpt lat="45.5997568" lon="12.3258887"><ele>3.5</ele><time>2026-03-29T06:30:35.902Z</time></trkpt><trkpt lat="45.5998367" lon="12.3260506"><ele>3.0</ele><time>2026-03-29T06:30:36.919Z</time></trkpt><trkpt lat="45.5999374" lon="12.3262069"><ele>3.0</ele><time>2026-03-29T06:30:37.909Z</time></trkpt><trkpt lat="45.6000035" lon="12.3263944"><ele>3.0</ele><time>2026-03-29T06:30:38.905Z</time></trkpt><trkpt lat="45.600058" lon="12.3265999"><ele>3.0</ele><time>2026-03-29T06:30:39.898Z</time></trkpt><trkpt lat="45.6001437" lon="12.3268007"><ele>3.333333333333333</ele><time>2026-03-29T06:30:40.903Z</time></trkpt><trkpt lat="45.6002626" lon="12.326986"><ele>3.6666666666666665</ele><time>2026-03-29T06:30:41.931Z</time></trkpt><trkpt lat="45.6003879" lon="12.3271736"><ele>4.0</ele><time>2026-03-29T06:30:42.888Z</time></trkpt><trkpt lat="45.6005095" lon="12.3273703"><ele>4.0</ele><time>2026-03-29T06:30:43.905Z</time></trkpt><trkpt lat="45.6006201" lon="12.3275868"><ele>4.0</ele><time>2026-03-29T06:30:44.899Z</time></trkpt><trkpt lat="45.6007431" lon="12.3277931"><ele>4.0</ele><time>2026-03-29T06:30:45.918Z</time></trkpt><trkpt lat="45.6008672" lon="12.3280039"><ele>4.0</ele><time>2026-03-29T06:30:46.907Z</time></trkpt><trkpt lat="45.6009935" lon="12.3282159"><ele>4.0</ele><time>2026-03-29T06:30:47.891Z</time></trkpt><trkpt lat="45.6011206" lon="12.3284266"><ele>4.0</ele><time>2026-03-29T06:30:48.906Z</time></trkpt><trkpt lat="45.6012485" lon="12.3286346"><ele>4.0</ele><time>2026-03-29T06:30:49.907Z</time></trkpt><trkpt lat="45.6013746" lon="12.3288437"><ele>4.0</ele><time>2026-03-29T06:30:50.927Z</time></trkpt><trkpt lat="45.6015077" lon="12.3290419"><ele>4.0</ele><time>2026-03-29T06:30:51.906Z</time></trkpt><trkpt lat="45.6016293" lon="12.3292527"><ele>4.0</ele><time>2026-03-29T06:30:52.902Z</time></trkpt><trkpt lat="45.6017492" lon="12.3294682"><ele>4.0</ele><time>2026-03-29T06:30:53.915Z</time></trkpt><trkpt lat="45.6018745" lon="12.3296752"><ele>4.0</ele><time>2026-03-29T06:30:54.931Z</time></trkpt><trkpt lat="45.6019974" lon="12.3298827"><ele>4.0</ele><time>2026-03-29T06:30:55.929Z</time></trkpt><trkpt lat="45.6021225" lon="12.330086"><ele>4.0</ele><time>2026-03-29T06:30:56.933Z</time></trkpt><trkpt lat="45.6022483" lon="12.3302893"><ele>4.0</ele><time>2026-03-29T06:30:57.929Z</time></trkpt><trkpt lat="45.6023687" lon="12.3304961"><ele>4.333333333333333</ele><time>2026-03-29T06:30:58.912Z</time></trkpt><trkpt lat="45.6024962" lon="12.3306963"><ele>4.666666666666667</ele><time>2026-03-29T06:30:59.903Z</time></trkpt><trkpt lat="45.602612" lon="12.3309155"><ele>5.0</ele><time>2026-03-29T06:31:00.9Z</time></trkpt><trkpt lat="45.6027413" lon="12.3311229"><ele>4.666666666666667</ele><time>2026-03-29T06:31:01.888Z</time></trkpt><trkpt lat="45.6028623" lon="12.3313468"><ele>4.333333333333333</ele><time>2026-03-29T06:31:02.908Z</time></trkpt><trkpt lat="45.6029699" lon="12.3315974"><ele>4.0</ele><time>2026-03-29T06:31:03.926Z</time></trkpt><trkpt lat="45.6030705" lon="12.3318512"><ele>3.6666666666666665</ele><time>2026-03-29T06:31:04.911Z</time></trkpt><trkpt lat="45.6031663" lon="12.3321149"><ele>3.333333333333333</ele><time>2026-03-29T06:31:05.919Z</time></trkpt><trkpt lat="45.6032491" lon="12.3323925"><ele>3.0</ele><time>2026-03-29T06:31:06.91Z</time></trkpt><trkpt lat="45.6033274" lon="12.3326845"><ele>2.6666666666666665</ele><time>2026-03-29T06:31:07.907Z</time></trkpt><trkpt lat="45.603411" lon="12.3329778"><ele>2.333333333333333</ele><time>2026-03-29T06:31:08.907Z</time></trkpt><trkpt lat="45.6034717" lon="12.3332876"><ele>2.0</ele><time>2026-03-29T06:31:09.91Z</time></trkpt><trkpt lat="45.6035357" lon="12.3336"><ele>2.0</ele><time>2026-03-29T06:31:10.921Z</time></trkpt><trkpt lat="45.603601" lon="12.3339133"><ele>2.0</ele><time>2026-03-29T06:31:11.914Z</time></trkpt><trkpt lat="45.6036679" lon="12.334225"><ele>2.0</ele><time>2026-03-29T06:31:12.916Z</time></trkpt><trkpt lat="45.6037294" lon="12.3345421"><ele>2.0</ele><time>2026-03-29T06:31:13.937Z</time></trkpt><trkpt lat="45.6038058" lon="12.334855"><ele>2.0</ele><time>2026-03-29T06:31:14.898Z</time></trkpt><trkpt lat="45.6038768" lon="12.3351696"><ele>2.0</ele><time>2026-03-29T06:31:15.91Z</time></trkpt><trkpt lat="45.6039445" lon="12.3354823"><ele>2.0</ele><time>2026-03-29T06:31:16.919Z</time></trkpt><trkpt lat="45.6040082" lon="12.3357944"><ele>2.0</ele><time>2026-03-29T06:31:17.909Z</time></trkpt><trkpt lat="45.6040705" lon="12.3361061"><ele>3.0</ele><time>2026-03-29T06:31:18.905Z</time></trkpt><trkpt lat="45.6041338" lon="12.3364171"><ele>4.0</ele><time>2026-03-29T06:31:19.916Z</time></trkpt><trkpt lat="45.6041976" lon="12.3367305"><ele>4.0</ele><time>2026-03-29T06:31:20.91Z</time></trkpt><trkpt lat="45.6042615" lon="12.3370453"><ele>4.0</ele><time>2026-03-29T06:31:21.916Z</time></trkpt><trkpt lat="45.6043282" lon="12.3373586"><ele>4.0</ele><time>2026-03-29T06:31:22.92Z</time></trkpt><trkpt lat="45.604393" lon="12.3376739"><ele>4.0</ele><time>2026-03-29T06:31:23.929Z</time></trkpt><trkpt lat="45.6044599" lon="12.3379906"><ele>3.0</ele><time>2026-03-29T06:31:24.912Z</time></trkpt><trkpt lat="45.6045278" lon="12.3383077"><ele>2.0</ele><time>2026-03-29T06:31:25.909Z</time></trkpt><trkpt lat="45.6045938" lon="12.3386256"><ele>1.5</ele><time>2026-03-29T06:31:26.909Z</time></trkpt><trkpt lat="45.6046527" lon="12.3389428"><ele>1.0</ele><time>2026-03-29T06:31:27.904Z</time></trkpt><trkpt lat="45.6046924" lon="12.3392592"><ele>1.0</ele><time>2026-03-29T06:31:28.887Z</time></trkpt><trkpt lat="45.6047099" lon="12.339574"><ele>1.0</ele><time>2026-03-29T06:31:29.903Z</time></trkpt><trkpt lat="45.6047113" lon="12.3398876"><ele>1.0</ele><time>2026-03-29T06:31:30.914Z</time></trkpt><trkpt lat="45.6047006" lon="12.3402008"><ele>1.6666666666666665</ele><time>2026-03-29T06:31:31.894Z</time></trkpt><trkpt lat="45.6046852" lon="12.3405143"><ele>2.3333333333333335</ele><time>2026-03-29T06:31:32.913Z</time></trkpt><trkpt lat="45.6046606" lon="12.3408284"><ele>3.0</ele><time>2026-03-29T06:31:33.894Z</time></trkpt><trkpt lat="45.6046313" lon="12.3411433"><ele>2.0</ele><time>2026-03-29T06:31:34.896Z</time></trkpt><trkpt lat="45.6046045" lon="12.3414603"><ele>1.0</ele><time>2026-03-29T06:31:35.899Z</time></trkpt><trkpt lat="45.6045821" lon="12.3417787"><ele>0.0</ele><time>2026-03-29T06:31:36.886Z</time></trkpt><trkpt lat="45.6045571" lon="12.3420957"><ele>0.0</ele><time>2026-03-29T06:31:37.897Z</time></trkpt><trkpt lat="45.6045355" lon="12.3424113"><ele>0.0</ele><time>2026-03-29T06:31:38.902Z</time></trkpt><trkpt lat="45.6045153" lon="12.3427248"><ele>0.0</ele><time>2026-03-29T06:31:39.91Z</time></trkpt><trkpt lat="45.6044935" lon="12.3430352"><ele>0.6666666666666666</ele><time>2026-03-29T06:31:40.888Z</time></trkpt><trkpt lat="45.6044714" lon="12.3433394"><ele>1.3333333333333333</ele><time>2026-03-29T06:31:41.901Z</time></trkpt><trkpt lat="45.6044512" lon="12.3436339"><ele>2.0</ele><time>2026-03-29T06:31:42.894Z</time></trkpt><trkpt lat="45.6044306" lon="12.3439201"><ele>2.0</ele><time>2026-03-29T06:31:43.889Z</time></trkpt><trkpt lat="45.6044106" lon="12.3442003"><ele>2.0</ele><time>2026-03-29T06:31:44.917Z</time></trkpt><trkpt lat="45.6044161" lon="12.3444727"><ele>2.0</ele><time>2026-03-29T06:31:45.922Z</time></trkpt><trkpt lat="45.6044225" lon="12.3447407"><ele>2.333333333333333</ele><time>2026-03-29T06:31:46.898Z</time></trkpt><trkpt lat="45.604439" lon="12.345"><ele>2.6666666666666665</ele><time>2026-03-29T06:31:47.907Z</time></trkpt><trkpt lat="45.6044611" lon="12.345252"><ele>3.0</ele><time>2026-03-29T06:31:48.9Z</time></trkpt><trkpt lat="45.6044919" lon="12.3454943"><ele>2.6666666666666665</ele><time>2026-03-29T06:31:49.907Z</time></trkpt><trkpt lat="45.6045445" lon="12.3457243"><ele>2.333333333333333</ele><time>2026-03-29T06:31:50.896Z</time></trkpt><trkpt lat="45.604616" lon="12.3459434"><ele>2.0</ele><time>2026-03-29T06:31:51.906Z</time></trkpt><trkpt lat="45.6047107" lon="12.3461502"><ele>2.0</ele><time>2026-03-29T06:31:52.889Z</time></trkpt><trkpt lat="45.6048442" lon="12.3463286"><ele>2.0</ele><time>2026-03-29T06:31:53.901Z</time></trkpt><trkpt lat="45.604999" lon="12.3464926"><ele>2.0</ele><time>2026-03-29T06:31:54.901Z</time></trkpt><trkpt lat="45.605165" lon="12.3466514"><ele>2.333333333333333</ele><time>2026-03-29T06:31:55.908Z</time></trkpt><trkpt lat="45.60533" lon="12.3468226"><ele>2.6666666666666665</ele><time>2026-03-29T06:31:56.905Z</time></trkpt><trkpt lat="45.6054863" lon="12.3470094"><ele>3.0</ele><time>2026-03-29T06:31:57.935Z</time></trkpt><trkpt lat="45.6056467" lon="12.3471957"><ele>4.0</ele><time>2026-03-29T06:31:58.911Z</time></trkpt><trkpt lat="45.6058159" lon="12.3473752"><ele>5.0</ele><time>2026-03-29T06:31:59.907Z</time></trkpt><trkpt lat="45.6059799" lon="12.3475656"><ele>6.0</ele><time>2026-03-29T06:32:00.906Z</time></trkpt><trkpt lat="45.606145" lon="12.3477612"><ele>5.666666666666667</ele><time>2026-03-29T06:32:01.904Z</time></trkpt><trkpt lat="45.6063191" lon="12.3479495"><ele>5.333333333333334</ele><time>2026-03-29T06:32:02.892Z</time></trkpt><trkpt lat="45.6064961" lon="12.3481466"><ele>5.0</ele><time>2026-03-29T06:32:03.91Z</time></trkpt><trkpt lat="45.6066793" lon="12.3483509"><ele>5.0</ele><time>2026-03-29T06:32:04.902Z</time></trkpt><trkpt lat="45.6068713" lon="12.3485495"><ele>5.0</ele><time>2026-03-29T06:32:05.906Z</time></trkpt><trkpt lat="45.6070623" lon="12.3487574"><ele>4.5</ele><time>2026-03-29T06:32:06.905Z</time></trkpt><trkpt lat="45.6072514" lon="12.3489747"><ele>4.0</ele><time>2026-03-29T06:32:07.912Z</time></trkpt><trkpt lat="45.6074494" lon="12.349182"><ele>4.0</ele><time>2026-03-29T06:32:08.915Z</time></trkpt><trkpt lat="45.6076402" lon="12.3494062"><ele>4.0</ele><time>2026-03-29T06:32:09.914Z</time></trkpt><trkpt lat="45.6078329" lon="12.3496247"><ele>5.0</ele><time>2026-03-29T06:32:10.904Z</time></trkpt><trkpt lat="45.6080249" lon="12.3498394"><ele>6.0</ele><time>2026-03-29T06:32:11.901Z</time></trkpt><trkpt lat="45.6082144" lon="12.350047"><ele>6.0</ele><time>2026-03-29T06:32:12.906Z</time></trkpt><trkpt lat="45.6083991" lon="12.3502463"><ele>6.0</ele><time>2026-03-29T06:32:13.904Z</time></trkpt><trkpt lat="45.6085769" lon="12.3504421"><ele>5.666666666666667</ele><time>2026-03-29T06:32:14.916Z</time></trkpt><trkpt lat="45.6087459" lon="12.3506387"><ele>5.333333333333334</ele><time>2026-03-29T06:32:15.906Z</time></trkpt><trkpt lat="45.6088866" lon="12.3508717"><ele>5.0</ele><time>2026-03-29T06:32:16.887Z</time></trkpt><trkpt lat="45.6090284" lon="12.3510988"><ele>5.0</ele><time>2026-03-29T06:32:17.935Z</time></trkpt><trkpt lat="45.6091394" lon="12.3513517"><ele>5.0</ele><time>2026-03-29T06:32:18.896Z</time></trkpt><trkpt lat="45.6092249" lon="12.3516249"><ele>5.0</ele><time>2026-03-29T06:32:19.912Z</time></trkpt><trkpt lat="45.609293" lon="12.3519088"><ele>5.0</ele><time>2026-03-29T06:32:20.893Z</time></trkpt><trkpt lat="45.6093672" lon="12.3521948"><ele>5.0</ele><time>2026-03-29T06:32:21.905Z</time></trkpt><trkpt lat="45.6094158" lon="12.3524995"><ele>5.0</ele><time>2026-03-29T06:32:22.895Z</time></trkpt><trkpt lat="45.6094875" lon="12.3528035"><ele>3.5</ele><time>2026-03-29T06:32:23.896Z</time></trkpt><trkpt lat="45.609566" lon="12.3531206"><ele>2.0</ele><time>2026-03-29T06:32:24.897Z</time></trkpt><trkpt lat="45.6096194" lon="12.3534556"><ele>2.0</ele><time>2026-03-29T06:32:25.907Z</time></trkpt><trkpt lat="45.6096746" lon="12.353794"><ele>2.0</ele><time>2026-03-29T06:32:26.903Z</time></trkpt><trkpt lat="45.6097365" lon="12.3541286"><ele>2.5</ele><time>2026-03-29T06:32:27.911Z</time></trkpt><trkpt lat="45.6098005" lon="12.3544614"><ele>3.0</ele><time>2026-03-29T06:32:28.914Z</time></trkpt><trkpt lat="45.6098657" lon="12.3547933"><ele>3.0</ele><time>2026-03-29T06:32:29.909Z</time></trkpt><trkpt lat="45.6099293" lon="12.3551251"><ele>3.0</ele><time>2026-03-29T06:32:30.926Z</time></trkpt><trkpt lat="45.6099916" lon="12.3554549"><ele>4.0</ele><time>2026-03-29T06:32:31.904Z</time></trkpt><trkpt lat="45.6100519" lon="12.3557825"><ele>5.0</ele><time>2026-03-29T06:32:32.905Z</time></trkpt><trkpt lat="45.6101056" lon="12.3561088"><ele>5.0</ele><time>2026-03-29T06:32:33.925Z</time></trkpt><trkpt lat="45.6101602" lon="12.3564321"><ele>5.0</ele><time>2026-03-29T06:32:34.912Z</time></trkpt><trkpt lat="45.6102186" lon="12.3567531"><ele>5.0</ele><time>2026-03-29T06:32:35.892Z</time></trkpt><trkpt lat="45.6102771" lon="12.3570711"><ele>5.0</ele><time>2026-03-29T06:32:36.918Z</time></trkpt><trkpt lat="45.6103363" lon="12.3573857"><ele>5.0</ele><time>2026-03-29T06:32:37.919Z</time></trkpt><trkpt lat="45.610395" lon="12.3576976"><ele>5.0</ele><time>2026-03-29T06:32:38.913Z</time></trkpt><trkpt lat="45.6104538" lon="12.3580071"><ele>5.0</ele><time>2026-03-29T06:32:39.902Z</time></trkpt><trkpt lat="45.610512" lon="12.3583146"><ele>5.0</ele><time>2026-03-29T06:32:40.908Z</time></trkpt><trkpt lat="45.6105608" lon="12.3586235"><ele>5.0</ele><time>2026-03-29T06:32:41.9Z</time></trkpt><trkpt lat="45.6106128" lon="12.3589299"><ele>5.0</ele><time>2026-03-29T06:32:42.909Z</time></trkpt><trkpt lat="45.6106659" lon="12.3592361"><ele>5.0</ele><time>2026-03-29T06:32:43.906Z</time></trkpt><trkpt lat="45.6107202" lon="12.3595415"><ele>5.0</ele><time>2026-03-29T06:32:44.918Z</time></trkpt><trkpt lat="45.610772" lon="12.3598468"><ele>5.0</ele><time>2026-03-29T06:32:45.913Z</time></trkpt><trkpt lat="45.6108272" lon="12.3601503"><ele>5.0</ele><time>2026-03-29T06:32:46.9Z</time></trkpt><trkpt lat="45.6108842" lon="12.3604524"><ele>5.0</ele><time>2026-03-29T06:32:47.918Z</time></trkpt><trkpt lat="45.6109337" lon="12.3607581"><ele>5.0</ele><time>2026-03-29T06:32:48.923Z</time></trkpt><trkpt lat="45.610992" lon="12.3610589"><ele>5.0</ele><time>2026-03-29T06:32:49.916Z</time></trkpt><trkpt lat="45.6110758" lon="12.361339"><ele>5.0</ele><time>2026-03-29T06:32:50.92Z</time></trkpt><trkpt lat="45.6111817" lon="12.3615999"><ele>5.0</ele><time>2026-03-29T06:32:51.908Z</time></trkpt><trkpt lat="45.6113235" lon="12.36183"><ele>5.0</ele><time>2026-03-29T06:32:52.914Z</time></trkpt><trkpt lat="45.6114854" lon="12.3620363"><ele>5.0</ele><time>2026-03-29T06:32:53.915Z</time></trkpt><trkpt lat="45.6116572" lon="12.3622167"><ele>5.0</ele><time>2026-03-29T06:32:54.914Z</time></trkpt><trkpt lat="45.6118324" lon="12.3623886"><ele>5.0</ele><time>2026-03-29T06:32:55.901Z</time></trkpt><trkpt lat="45.6120122" lon="12.3625475"><ele>5.0</ele><time>2026-03-29T06:32:56.899Z</time></trkpt><trkpt lat="45.6122007" lon="12.3626898"><ele>5.0</ele><time>2026-03-29T06:32:57.902Z</time></trkpt><trkpt lat="45.6123902" lon="12.3628296"><ele>5.0</ele><time>2026-03-29T06:32:58.909Z</time></trkpt><trkpt lat="45.6125776" lon="12.3629755"><ele>5.0</ele><time>2026-03-29T06:32:59.913Z</time></trkpt><trkpt lat="45.6127627" lon="12.3631278"><ele>5.0</ele><time>2026-03-29T06:33:00.913Z</time></trkpt><trkpt lat="45.612947" lon="12.3632826"><ele>5.0</ele><time>2026-03-29T06:33:01.906Z</time></trkpt><trkpt lat="45.6131308" lon="12.3634361"><ele>5.0</ele><time>2026-03-29T06:33:02.905Z</time></trkpt><trkpt lat="45.6133092" lon="12.3635853"><ele>5.0</ele><time>2026-03-29T06:33:03.92Z</time></trkpt><trkpt lat="45.6134759" lon="12.3637345"><ele>5.0</ele><time>2026-03-29T06:33:04.901Z</time></trkpt><trkpt lat="45.6136317" lon="12.3638792"><ele>5.0</ele><time>2026-03-29T06:33:05.895Z</time></trkpt><trkpt lat="45.6137823" lon="12.3640103"><ele>5.333333333333334</ele><time>2026-03-29T06:33:06.901Z</time></trkpt><trkpt lat="45.6139343" lon="12.3641203"><ele>5.666666666666667</ele><time>2026-03-29T06:33:07.899Z</time></trkpt><trkpt lat="45.6140695" lon="12.3642554"><ele>6.0</ele><time>2026-03-29T06:33:08.907Z</time></trkpt><trkpt lat="45.6142076" lon="12.3643786"><ele>6.0</ele><time>2026-03-29T06:33:09.918Z</time></trkpt><trkpt lat="45.6143467" lon="12.3644988"><ele>6.0</ele><time>2026-03-29T06:33:10.906Z</time></trkpt><trkpt lat="45.6144842" lon="12.3646162"><ele>6.0</ele><time>2026-03-29T06:33:11.914Z</time></trkpt><trkpt lat="45.61462" lon="12.3647242"><ele>6.0</ele><time>2026-03-29T06:33:12.906Z</time></trkpt><trkpt lat="45.6147551" lon="12.36482"><ele>6.0</ele><time>2026-03-29T06:33:13.9Z</time></trkpt><trkpt lat="45.6148846" lon="12.3649225"><ele>6.0</ele><time>2026-03-29T06:33:14.887Z</time></trkpt><trkpt lat="45.6150112" lon="12.365026"><ele>6.0</ele><time>2026-03-29T06:33:15.916Z</time></trkpt><trkpt lat="45.6151369" lon="12.3651285"><ele>6.0</ele><time>2026-03-29T06:33:16.91Z</time></trkpt><trkpt lat="45.6152622" lon="12.3652313"><ele>6.0</ele><time>2026-03-29T06:33:17.903Z</time></trkpt><trkpt lat="45.6153868" lon="12.3653359"><ele>6.0</ele><time>2026-03-29T06:33:18.894Z</time></trkpt><trkpt lat="45.6155095" lon="12.365444"><ele>6.0</ele><time>2026-03-29T06:33:19.921Z</time></trkpt><trkpt lat="45.615633" lon="12.365552"><ele>6.5</ele><time>2026-03-29T06:33:20.911Z</time></trkpt><trkpt lat="45.6157597" lon="12.3656575"><ele>7.0</ele><time>2026-03-29T06:33:21.922Z</time></trkpt><trkpt lat="45.6158867" lon="12.3657649"><ele>7.5</ele><time>2026-03-29T06:33:22.904Z</time></trkpt><trkpt lat="45.6160128" lon="12.3658741"><ele>8.0</ele><time>2026-03-29T06:33:23.904Z</time></trkpt><trkpt lat="45.6161395" lon="12.3659834"><ele>7.666666666666666</ele><time>2026-03-29T06:33:24.905Z</time></trkpt><trkpt lat="45.6162676" lon="12.3660897"><ele>7.333333333333334</ele><time>2026-03-29T06:33:25.918Z</time></trkpt><trkpt lat="45.6163967" lon="12.3662004"><ele>7.0</ele><time>2026-03-29T06:33:26.911Z</time></trkpt><trkpt lat="45.6165279" lon="12.3663125"><ele>7.0</ele><time>2026-03-29T06:33:27.913Z</time></trkpt><trkpt lat="45.6166603" lon="12.3664258"><ele>7.0</ele><time>2026-03-29T06:33:28.913Z</time></trkpt><trkpt lat="45.6167952" lon="12.3665389"><ele>7.0</ele><time>2026-03-29T06:33:29.916Z</time></trkpt><trkpt lat="45.6169308" lon="12.3666535"><ele>6.333333333333334</ele><time>2026-03-29T06:33:30.884Z</time></trkpt><trkpt lat="45.6170671" lon="12.36677"><ele>5.666666666666667</ele><time>2026-03-29T06:33:31.914Z</time></trkpt><trkpt lat="45.617207" lon="12.3668849"><ele>5.0</ele><time>2026-03-29T06:33:32.917Z</time></trkpt><trkpt lat="45.6173478" lon="12.3670004"><ele>5.0</ele><time>2026-03-29T06:33:33.908Z</time></trkpt><trkpt lat="45.6174896" lon="12.3671169"><ele>5.0</ele><time>2026-03-29T06:33:34.909Z</time></trkpt><trkpt lat="45.6176337" lon="12.3672325"><ele>5.0</ele><time>2026-03-29T06:33:35.917Z</time></trkpt><trkpt lat="45.6177807" lon="12.3673476"><ele>5.0</ele><time>2026-03-29T06:33:36.902Z</time></trkpt><trkpt lat="45.6179299" lon="12.3674597"><ele>5.0</ele><time>2026-03-29T06:33:37.905Z</time></trkpt><trkpt lat="45.6180828" lon="12.3675635"><ele>5.0</ele><time>2026-03-29T06:33:38.913Z</time></trkpt><trkpt lat="45.6182399" lon="12.3676574"><ele>5.0</ele><time>2026-03-29T06:33:39.916Z</time></trkpt><trkpt lat="45.6184003" lon="12.3677425"><ele>5.0</ele><time>2026-03-29T06:33:40.927Z</time></trkpt><trkpt lat="45.6185619" lon="12.367826"><ele>5.0</ele><time>2026-03-29T06:33:41.916Z</time></trkpt><trkpt lat="45.6187248" lon="12.3679083"><ele>5.333333333333334</ele><time>2026-03-29T06:33:42.903Z</time></trkpt><trkpt lat="45.6188876" lon="12.3679912"><ele>5.666666666666667</ele><time>2026-03-29T06:33:43.91Z</time></trkpt><trkpt lat="45.6190494" lon="12.3680753"><ele>6.0</ele><time>2026-03-29T06:33:44.899Z</time></trkpt><trkpt lat="45.6192109" lon="12.3681582"><ele>6.0</ele><time>2026-03-29T06:33:45.914Z</time></trkpt><trkpt lat="45.6193721" lon="12.3682401"><ele>6.0</ele><time>2026-03-29T06:33:46.919Z</time></trkpt><trkpt lat="45.6195326" lon="12.3683219"><ele>6.0</ele><time>2026-03-29T06:33:47.908Z</time></trkpt><trkpt lat="45.6196929" lon="12.3684037"><ele>6.333333333333334</ele><time>2026-03-29T06:33:48.958Z</time></trkpt><trkpt lat="45.6198528" lon="12.3684874"><ele>6.666666666666667</ele><time>2026-03-29T06:33:49.906Z</time></trkpt><trkpt lat="45.6200131" lon="12.3685694"><ele>7.0</ele><time>2026-03-29T06:33:50.909Z</time></trkpt><trkpt lat="45.6201723" lon="12.3686508"><ele>6.666666666666667</ele><time>2026-03-29T06:33:51.912Z</time></trkpt><trkpt lat="45.6203294" lon="12.3687324"><ele>6.333333333333334</ele><time>2026-03-29T06:33:52.897Z</time></trkpt><trkpt lat="45.6204853" lon="12.368811"><ele>6.0</ele><time>2026-03-29T06:33:53.912Z</time></trkpt><trkpt lat="45.6206397" lon="12.3688869"><ele>5.333333333333333</ele><time>2026-03-29T06:33:54.918Z</time></trkpt><trkpt lat="45.6207928" lon="12.3689623"><ele>4.666666666666666</ele><time>2026-03-29T06:33:55.914Z</time></trkpt><trkpt lat="45.6209453" lon="12.3690382"><ele>4.0</ele><time>2026-03-29T06:33:56.927Z</time></trkpt><trkpt lat="45.6210985" lon="12.3691145"><ele>4.333333333333333</ele><time>2026-03-29T06:33:57.916Z</time></trkpt><trkpt lat="45.6212596" lon="12.3691838"><ele>4.666666666666667</ele><time>2026-03-29T06:33:58.902Z</time></trkpt><trkpt lat="45.6214156" lon="12.3692735"><ele>5.0</ele><time>2026-03-29T06:33:59.908Z</time></trkpt><trkpt lat="45.6215771" lon="12.3693435"><ele>5.0</ele><time>2026-03-29T06:34:00.911Z</time></trkpt><trkpt lat="45.621739" lon="12.3694208"><ele>5.0</ele><time>2026-03-29T06:34:01.927Z</time></trkpt><trkpt lat="45.6219023" lon="12.3695054"><ele>5.0</ele><time>2026-03-29T06:34:02.912Z</time></trkpt><trkpt lat="45.6220665" lon="12.3695891"><ele>5.333333333333334</ele><time>2026-03-29T06:34:03.912Z</time></trkpt><trkpt lat="45.6222326" lon="12.3696722"><ele>5.666666666666667</ele><time>2026-03-29T06:34:04.91Z</time></trkpt><trkpt lat="45.622401" lon="12.3697524"><ele>6.0</ele><time>2026-03-29T06:34:05.916Z</time></trkpt><trkpt lat="45.6225699" lon="12.3698278"><ele>6.0</ele><time>2026-03-29T06:34:06.909Z</time></trkpt><trkpt lat="45.6227385" lon="12.3699035"><ele>6.0</ele><time>2026-03-29T06:34:07.905Z</time></trkpt><trkpt lat="45.6229123" lon="12.3699554"><ele>6.0</ele><time>2026-03-29T06:34:08.912Z</time></trkpt><trkpt lat="45.6230886" lon="12.3699984"><ele>6.0</ele><time>2026-03-29T06:34:09.914Z</time></trkpt><trkpt lat="45.6232656" lon="12.3700436"><ele>6.0</ele><time>2026-03-29T06:34:10.915Z</time></trkpt><trkpt lat="45.6234425" lon="12.3700897"><ele>6.0</ele><time>2026-03-29T06:34:11.924Z</time></trkpt><trkpt lat="45.6236205" lon="12.3701222"><ele>5.666666666666667</ele><time>2026-03-29T06:34:12.92Z</time></trkpt><trkpt lat="45.6237938" lon="12.370168"><ele>5.333333333333334</ele><time>2026-03-29T06:34:13.906Z</time></trkpt><trkpt lat="45.6239659" lon="12.3702088"><ele>5.0</ele><time>2026-03-29T06:34:14.916Z</time></trkpt><trkpt lat="45.624138" lon="12.3702446"><ele>5.0</ele><time>2026-03-29T06:34:15.916Z</time></trkpt><trkpt lat="45.6243095" lon="12.3702808"><ele>5.0</ele><time>2026-03-29T06:34:16.918Z</time></trkpt><trkpt lat="45.6244818" lon="12.3703138"><ele>5.0</ele><time>2026-03-29T06:34:17.932Z</time></trkpt><trkpt lat="45.6246507" lon="12.370363"><ele>4.666666666666667</ele><time>2026-03-29T06:34:18.908Z</time></trkpt><trkpt lat="45.6248178" lon="12.3704093"><ele>4.333333333333333</ele><time>2026-03-29T06:34:19.92Z</time></trkpt><trkpt lat="45.6249807" lon="12.370478"><ele>4.0</ele><time>2026-03-29T06:34:20.932Z</time></trkpt><trkpt lat="45.6251378" lon="12.3705662"><ele>4.0</ele><time>2026-03-29T06:34:21.902Z</time></trkpt><trkpt lat="45.6252888" lon="12.3706696"><ele>4.0</ele><time>2026-03-29T06:34:22.905Z</time></trkpt><trkpt lat="45.6254338" lon="12.3707873"><ele>4.0</ele><time>2026-03-29T06:34:23.92Z</time></trkpt><trkpt lat="45.6255748" lon="12.3709137"><ele>4.333333333333333</ele><time>2026-03-29T06:34:24.913Z</time></trkpt><trkpt lat="45.6257045" lon="12.3710572"><ele>4.666666666666667</ele><time>2026-03-29T06:34:25.928Z</time></trkpt><trkpt lat="45.6258248" lon="12.3712119"><ele>5.0</ele><time>2026-03-29T06:34:26.91Z</time></trkpt><trkpt lat="45.6259386" lon="12.3713685"><ele>5.25</ele><time>2026-03-29T06:34:27.917Z</time></trkpt><trkpt lat="45.6260432" lon="12.3715256"><ele>5.5</ele><time>2026-03-29T06:34:28.919Z</time></trkpt><trkpt lat="45.6261494" lon="12.3716718"><ele>5.75</ele><time>2026-03-29T06:34:29.916Z</time></trkpt><trkpt lat="45.6262484" lon="12.3718267"><ele>6.0</ele><time>2026-03-29T06:34:30.921Z</time></trkpt><trkpt lat="45.6263623" lon="12.3719704"><ele>6.333333333333334</ele><time>2026-03-29T06:34:31.927Z</time></trkpt><trkpt lat="45.6264743" lon="12.3721265"><ele>6.666666666666667</ele><time>2026-03-29T06:34:32.924Z</time></trkpt><trkpt lat="45.6265898" lon="12.3722899"><ele>7.0</ele><time>2026-03-29T06:34:33.912Z</time></trkpt><trkpt lat="45.6267048" lon="12.3724625"><ele>6.666666666666667</ele><time>2026-03-29T06:34:34.92Z</time></trkpt><trkpt lat="45.6268139" lon="12.372646"><ele>6.333333333333334</ele><time>2026-03-29T06:34:35.921Z</time></trkpt><trkpt lat="45.6269314" lon="12.3728234"><ele>6.0</ele><time>2026-03-29T06:34:36.917Z</time></trkpt><trkpt lat="45.6270471" lon="12.3730056"><ele>5.666666666666667</ele><time>2026-03-29T06:34:37.907Z</time></trkpt><trkpt lat="45.6271681" lon="12.3731811"><ele>5.333333333333334</ele><time>2026-03-29T06:34:38.914Z</time></trkpt><trkpt lat="45.6272903" lon="12.3733514"><ele>5.0</ele><time>2026-03-29T06:34:39.915Z</time></trkpt><trkpt lat="45.6274085" lon="12.3735186"><ele>5.0</ele><time>2026-03-29T06:34:40.923Z</time></trkpt><trkpt lat="45.6275166" lon="12.3736791"><ele>5.0</ele><time>2026-03-29T06:34:41.918Z</time></trkpt><trkpt lat="45.6276156" lon="12.3738396"><ele>5.0</ele><time>2026-03-29T06:34:42.913Z</time></trkpt><trkpt lat="45.6277175" lon="12.3739909"><ele>5.0</ele><time>2026-03-29T06:34:43.928Z</time></trkpt><trkpt lat="45.6278073" lon="12.3741321"><ele>5.0</ele><time>2026-03-29T06:34:44.919Z</time></trkpt><trkpt lat="45.6278858" lon="12.3742634"><ele>5.0</ele><time>2026-03-29T06:34:45.912Z</time></trkpt><trkpt lat="45.6279619" lon="12.3743835"><ele>5.0</ele><time>2026-03-29T06:34:46.893Z</time></trkpt><trkpt lat="45.6280283" lon="12.3744905"><ele>4.833333333333334</ele><time>2026-03-29T06:34:47.906Z</time></trkpt><trkpt lat="45.6280892" lon="12.3745873"><ele>4.666666666666667</ele><time>2026-03-29T06:34:48.903Z</time></trkpt><trkpt lat="45.6281189" lon="12.3746955"><ele>4.5</ele><time>2026-03-29T06:34:49.907Z</time></trkpt><trkpt lat="45.6281303" lon="12.3748085"><ele>4.333333333333333</ele><time>2026-03-29T06:34:50.901Z</time></trkpt><trkpt lat="45.628156" lon="12.3749297"><ele>4.166666666666666</ele><time>2026-03-29T06:34:51.932Z</time></trkpt><trkpt lat="45.6282277" lon="12.375002"><ele>4.0</ele><time>2026-03-29T06:34:52.908Z</time></trkpt><trkpt lat="45.6283128" lon="12.375047"><ele>4.5</ele><time>2026-03-29T06:34:53.909Z</time></trkpt><trkpt lat="45.6284074" lon="12.375113"><ele>5.0</ele><time>2026-03-29T06:34:54.906Z</time></trkpt><trkpt lat="45.6284851" lon="12.3752677"><ele>5.5</ele><time>2026-03-29T06:34:55.9Z</time></trkpt><trkpt lat="45.6285524" lon="12.3754576"><ele>6.0</ele><time>2026-03-29T06:34:56.929Z</time></trkpt><trkpt lat="45.6286312" lon="12.3756566"><ele>7.0</ele><time>2026-03-29T06:34:57.912Z</time></trkpt><trkpt lat="45.6287216" lon="12.3758755"><ele>8.0</ele><time>2026-03-29T06:34:58.912Z</time></trkpt><trkpt lat="45.6288248" lon="12.3760985"><ele>9.0</ele><time>2026-03-29T06:34:59.928Z</time></trkpt><trkpt lat="45.6289073" lon="12.3763453"><ele>8.666666666666666</ele><time>2026-03-29T06:35:00.918Z</time></trkpt><trkpt lat="45.6290081" lon="12.376584"><ele>8.333333333333332</ele><time>2026-03-29T06:35:01.916Z</time></trkpt><trkpt lat="45.6291076" lon="12.3768296"><ele>8.0</ele><time>2026-03-29T06:35:02.919Z</time></trkpt><trkpt lat="45.6292083" lon="12.3770754"><ele>8.0</ele><time>2026-03-29T06:35:03.923Z</time></trkpt><trkpt lat="45.6293102" lon="12.3773214"><ele>8.0</ele><time>2026-03-29T06:35:04.904Z</time></trkpt><trkpt lat="45.6294022" lon="12.377577"><ele>8.0</ele><time>2026-03-29T06:35:05.908Z</time></trkpt><trkpt lat="45.6295056" lon="12.3778221"><ele>8.0</ele><time>2026-03-29T06:35:06.912Z</time></trkpt><trkpt lat="45.6296181" lon="12.3780583"><ele>8.0</ele><time>2026-03-29T06:35:07.929Z</time></trkpt><trkpt lat="45.6297394" lon="12.3782816"><ele>8.0</ele><time>2026-03-29T06:35:08.903Z</time></trkpt><trkpt lat="45.6298642" lon="12.3785022"><ele>8.0</ele><time>2026-03-29T06:35:09.919Z</time></trkpt><trkpt lat="45.629999" lon="12.378715"><ele>8.0</ele><time>2026-03-29T06:35:10.897Z</time></trkpt><trkpt lat="45.6301323" lon="12.378926"><ele>8.0</ele><time>2026-03-29T06:35:11.913Z</time></trkpt><trkpt lat="45.6302719" lon="12.3791235"><ele>7.666666666666666</ele><time>2026-03-29T06:35:12.898Z</time></trkpt><trkpt lat="45.630402" lon="12.3793241"><ele>7.333333333333334</ele><time>2026-03-29T06:35:13.898Z</time></trkpt><trkpt lat="45.6305225" lon="12.3795187"><ele>7.0</ele><time>2026-03-29T06:35:14.908Z</time></trkpt><trkpt lat="45.6306374" lon="12.3797079"><ele>6.666666666666667</ele><time>2026-03-29T06:35:15.915Z</time></trkpt><trkpt lat="45.6307487" lon="12.3798894"><ele>6.333333333333334</ele><time>2026-03-29T06:35:16.9Z</time></trkpt><trkpt lat="45.6308501" lon="12.380066"><ele>6.0</ele><time>2026-03-29T06:35:17.91Z</time></trkpt><trkpt lat="45.6309365" lon="12.3802388"><ele>6.0</ele><time>2026-03-29T06:35:18.922Z</time></trkpt><trkpt lat="45.6310237" lon="12.3803931"><ele>6.0</ele><time>2026-03-29T06:35:19.909Z</time></trkpt><trkpt lat="45.6311045" lon="12.3805539"><ele>6.0</ele><time>2026-03-29T06:35:20.905Z</time></trkpt><trkpt lat="45.6312009" lon="12.3807009"><ele>6.0</ele><time>2026-03-29T06:35:21.906Z</time></trkpt><trkpt lat="45.631296" lon="12.3808583"><ele>6.333333333333334</ele><time>2026-03-29T06:35:22.9Z</time></trkpt><trkpt lat="45.6313934" lon="12.3810217"><ele>6.666666666666667</ele><time>2026-03-29T06:35:23.91Z</time></trkpt><trkpt lat="45.6314957" lon="12.381186"><ele>7.0</ele><time>2026-03-29T06:35:24.9Z</time></trkpt><trkpt lat="45.6315973" lon="12.3813524"><ele>7.0</ele><time>2026-03-29T06:35:25.912Z</time></trkpt><trkpt lat="45.6316947" lon="12.3815163"><ele>7.0</ele><time>2026-03-29T06:35:26.917Z</time></trkpt><trkpt lat="45.6317865" lon="12.3816749"><ele>7.0</ele><time>2026-03-29T06:35:27.919Z</time></trkpt><trkpt lat="45.6318798" lon="12.3818254"><ele>7.0</ele><time>2026-03-29T06:35:28.921Z</time></trkpt><trkpt lat="45.6319754" lon="12.3819695"><ele>7.0</ele><time>2026-03-29T06:35:29.93Z</time></trkpt><trkpt lat="45.6320642" lon="12.3821132"><ele>6.999999999999999</ele><time>2026-03-29T06:35:30.914Z</time></trkpt><trkpt lat="45.6321437" lon="12.3822428"><ele>6.999999999999999</ele><time>2026-03-29T06:35:31.908Z</time></trkpt><trkpt lat="45.6322101" lon="12.3823534"><ele>7.0</ele><time>2026-03-29T06:35:32.903Z</time></trkpt><trkpt lat="45.6322628" lon="12.3824555"><ele>7.0</ele><time>2026-03-29T06:35:33.908Z</time></trkpt><trkpt lat="45.6323157" lon="12.382546"><ele>6.833333333333334</ele><time>2026-03-29T06:35:34.91Z</time></trkpt><trkpt lat="45.6323661" lon="12.3826258"><ele>6.666666666666667</ele><time>2026-03-29T06:35:35.931Z</time></trkpt><trkpt lat="45.6324159" lon="12.3827033"><ele>6.5</ele><time>2026-03-29T06:35:36.912Z</time></trkpt><trkpt lat="45.6324682" lon="12.3827819"><ele>6.333333333333334</ele><time>2026-03-29T06:35:37.911Z</time></trkpt><trkpt lat="45.6325205" lon="12.3828698"><ele>6.166666666666667</ele><time>2026-03-29T06:35:38.915Z</time></trkpt><trkpt lat="45.6325771" lon="12.3829646"><ele>6.0</ele><time>2026-03-29T06:35:39.927Z</time></trkpt><trkpt lat="45.6326347" lon="12.3830672"><ele>5.8</ele><time>2026-03-29T06:35:40.91Z</time></trkpt><trkpt lat="45.6326932" lon="12.3831795"><ele>5.6</ele><time>2026-03-29T06:35:41.919Z</time></trkpt><trkpt lat="45.6327394" lon="12.383318"><ele>5.4</ele><time>2026-03-29T06:35:42.911Z</time></trkpt><trkpt lat="45.6327631" lon="12.3834815"><ele>5.2</ele><time>2026-03-29T06:35:43.921Z</time></trkpt><trkpt lat="45.6327755" lon="12.3836605"><ele>5.0</ele><time>2026-03-29T06:35:44.925Z</time></trkpt><trkpt lat="45.6328202" lon="12.3838378"><ele>5.666666666666667</ele><time>2026-03-29T06:35:45.915Z</time></trkpt><trkpt lat="45.6328696" lon="12.3840241"><ele>6.333333333333334</ele><time>2026-03-29T06:35:46.909Z</time></trkpt><trkpt lat="45.6329218" lon="12.3842296"><ele>7.0</ele><time>2026-03-29T06:35:47.918Z</time></trkpt><trkpt lat="45.6329745" lon="12.3844601"><ele>6.666666666666667</ele><time>2026-03-29T06:35:48.901Z</time></trkpt><trkpt lat="45.6330307" lon="12.3847066"><ele>6.333333333333334</ele><time>2026-03-29T06:35:49.927Z</time></trkpt><trkpt lat="45.6330885" lon="12.384969"><ele>6.0</ele><time>2026-03-29T06:35:50.916Z</time></trkpt><trkpt lat="45.6331408" lon="12.3852527"><ele>5.666666666666667</ele><time>2026-03-29T06:35:51.922Z</time></trkpt><trkpt lat="45.6332093" lon="12.3855378"><ele>5.333333333333334</ele><time>2026-03-29T06:35:52.905Z</time></trkpt><trkpt lat="45.6332713" lon="12.3858325"><ele>5.0</ele><time>2026-03-29T06:35:53.909Z</time></trkpt><trkpt lat="45.6333404" lon="12.3861299"><ele>5.333333333333334</ele><time>2026-03-29T06:35:54.9Z</time></trkpt><trkpt lat="45.6334033" lon="12.3864348"><ele>5.666666666666667</ele><time>2026-03-29T06:35:55.897Z</time></trkpt><trkpt lat="45.633471" lon="12.3867358"><ele>6.0</ele><time>2026-03-29T06:35:56.897Z</time></trkpt><trkpt lat="45.6335382" lon="12.3870343"><ele>6.333333333333334</ele><time>2026-03-29T06:35:57.914Z</time></trkpt><trkpt lat="45.6336051" lon="12.3873288"><ele>6.666666666666667</ele><time>2026-03-29T06:35:58.909Z</time></trkpt><trkpt lat="45.6336751" lon="12.3876171"><ele>7.0</ele><time>2026-03-29T06:35:59.9Z</time></trkpt><trkpt lat="45.6337376" lon="12.3879066"><ele>6.333333333333334</ele><time>2026-03-29T06:36:00.901Z</time></trkpt><trkpt lat="45.6338056" lon="12.3881898"><ele>5.666666666666667</ele><time>2026-03-29T06:36:01.908Z</time></trkpt><trkpt lat="45.6338743" lon="12.3884686"><ele>5.0</ele><time>2026-03-29T06:36:02.905Z</time></trkpt><trkpt lat="45.6339414" lon="12.3887449"><ele>5.666666666666667</ele><time>2026-03-29T06:36:03.915Z</time></trkpt><trkpt lat="45.6340074" lon="12.3890208"><ele>6.333333333333334</ele><time>2026-03-29T06:36:04.926Z</time></trkpt><trkpt lat="45.6340723" lon="12.3892973"><ele>7.0</ele><time>2026-03-29T06:36:05.929Z</time></trkpt><trkpt lat="45.6341413" lon="12.3895733"><ele>7.0</ele><time>2026-03-29T06:36:06.906Z</time></trkpt><trkpt lat="45.6342167" lon="12.3898466"><ele>7.0</ele><time>2026-03-29T06:36:07.907Z</time></trkpt><trkpt lat="45.6342886" lon="12.3901232"><ele>7.0</ele><time>2026-03-29T06:36:08.927Z</time></trkpt><trkpt lat="45.6343477" lon="12.3904087"><ele>7.0</ele><time>2026-03-29T06:36:09.923Z</time></trkpt><trkpt lat="45.6344127" lon="12.390696"><ele>7.0</ele><time>2026-03-29T06:36:10.904Z</time></trkpt><trkpt lat="45.6344749" lon="12.3909891"><ele>7.0</ele><time>2026-03-29T06:36:11.923Z</time></trkpt><trkpt lat="45.6345232" lon="12.3912939"><ele>6.666666666666667</ele><time>2026-03-29T06:36:12.911Z</time></trkpt><trkpt lat="45.6345563" lon="12.3916015"><ele>6.333333333333334</ele><time>2026-03-29T06:36:13.924Z</time></trkpt><trkpt lat="45.6345579" lon="12.3919101"><ele>6.0</ele><time>2026-03-29T06:36:14.916Z</time></trkpt><trkpt lat="45.6345428" lon="12.3922204"><ele>6.0</ele><time>2026-03-29T06:36:15.914Z</time></trkpt><trkpt lat="45.6345251" lon="12.3925334"><ele>6.0</ele><time>2026-03-29T06:36:16.919Z</time></trkpt><trkpt lat="45.6345097" lon="12.3928476"><ele>6.0</ele><time>2026-03-29T06:36:17.925Z</time></trkpt><trkpt lat="45.634497" lon="12.3931598"><ele>6.0</ele><time>2026-03-29T06:36:18.897Z</time></trkpt><trkpt lat="45.6344917" lon="12.3934713"><ele>6.0</ele><time>2026-03-29T06:36:19.927Z</time></trkpt><trkpt lat="45.6344922" lon="12.3937823"><ele>6.0</ele><time>2026-03-29T06:36:20.921Z</time></trkpt><trkpt lat="45.6345083" lon="12.3940908"><ele>6.0</ele><time>2026-03-29T06:36:21.938Z</time></trkpt><trkpt lat="45.6345481" lon="12.3943919"><ele>6.0</ele><time>2026-03-29T06:36:22.908Z</time></trkpt><trkpt lat="45.6346128" lon="12.394685"><ele>6.0</ele><time>2026-03-29T06:36:23.928Z</time></trkpt><trkpt lat="45.6346897" lon="12.3949731"><ele>6.0</ele><time>2026-03-29T06:36:24.908Z</time></trkpt><trkpt lat="45.6347618" lon="12.3952607"><ele>6.0</ele><time>2026-03-29T06:36:25.907Z</time></trkpt><trkpt lat="45.6348312" lon="12.3955469"><ele>6.0</ele><time>2026-03-29T06:36:26.91Z</time></trkpt><trkpt lat="45.6348964" lon="12.3958266"><ele>5.666666666666667</ele><time>2026-03-29T06:36:27.917Z</time></trkpt><trkpt lat="45.6349607" lon="12.3960981"><ele>5.333333333333334</ele><time>2026-03-29T06:36:28.915Z</time></trkpt><trkpt lat="45.635027" lon="12.3963675"><ele>5.0</ele><time>2026-03-29T06:36:29.916Z</time></trkpt><trkpt lat="45.6350964" lon="12.3966411"><ele>4.666666666666667</ele><time>2026-03-29T06:36:30.93Z</time></trkpt><trkpt lat="45.6351671" lon="12.3969199"><ele>4.333333333333333</ele><time>2026-03-29T06:36:31.911Z</time></trkpt><trkpt lat="45.6352364" lon="12.3972029"><ele>4.0</ele><time>2026-03-29T06:36:32.919Z</time></trkpt><trkpt lat="45.6353053" lon="12.3974892"><ele>3.333333333333333</ele><time>2026-03-29T06:36:33.92Z</time></trkpt><trkpt lat="45.6353753" lon="12.397779"><ele>2.6666666666666665</ele><time>2026-03-29T06:36:34.913Z</time></trkpt><trkpt lat="45.6354475" lon="12.3980726"><ele>2.0</ele><time>2026-03-29T06:36:35.917Z</time></trkpt><trkpt lat="45.6355211" lon="12.3983693"><ele>2.0</ele><time>2026-03-29T06:36:36.92Z</time></trkpt><trkpt lat="45.6355943" lon="12.3986685"><ele>2.0</ele><time>2026-03-29T06:36:37.92Z</time></trkpt><trkpt lat="45.635666" lon="12.3989756"><ele>2.0</ele><time>2026-03-29T06:36:38.909Z</time></trkpt><trkpt lat="45.6357382" lon="12.399301"><ele>2.5</ele><time>2026-03-29T06:36:39.94Z</time></trkpt><trkpt lat="45.6358101" lon="12.3996471"><ele>3.0</ele><time>2026-03-29T06:36:40.898Z</time></trkpt><trkpt lat="45.6358841" lon="12.4000052"><ele>3.0</ele><time>2026-03-29T06:36:41.896Z</time></trkpt><trkpt lat="45.6359691" lon="12.4003604"><ele>3.0</ele><time>2026-03-29T06:36:42.896Z</time></trkpt><trkpt lat="45.6360542" lon="12.4007081"><ele>3.5</ele><time>2026-03-29T06:36:43.9Z</time></trkpt><trkpt lat="45.6361367" lon="12.4010454"><ele>4.0</ele><time>2026-03-29T06:36:44.892Z</time></trkpt><trkpt lat="45.6362135" lon="12.4013731"><ele>4.0</ele><time>2026-03-29T06:36:45.92Z</time></trkpt><trkpt lat="45.6362798" lon="12.4016911"><ele>4.0</ele><time>2026-03-29T06:36:46.91Z</time></trkpt><trkpt lat="45.636336" lon="12.4019948"><ele>4.0</ele><time>2026-03-29T06:36:47.907Z</time></trkpt><trkpt lat="45.6363839" lon="12.4022827"><ele>4.0</ele><time>2026-03-29T06:36:48.894Z</time></trkpt><trkpt lat="45.6364282" lon="12.4025548"><ele>4.0</ele><time>2026-03-29T06:36:49.895Z</time></trkpt><trkpt lat="45.6364693" lon="12.4028102"><ele>4.333333333333333</ele><time>2026-03-29T06:36:50.917Z</time></trkpt><trkpt lat="45.6365096" lon="12.403048"><ele>4.666666666666667</ele><time>2026-03-29T06:36:51.903Z</time></trkpt><trkpt lat="45.6365559" lon="12.4032654"><ele>5.0</ele><time>2026-03-29T06:36:52.905Z</time></trkpt><trkpt lat="45.6366051" lon="12.4034433"><ele>5.0</ele><time>2026-03-29T06:36:53.908Z</time></trkpt><trkpt lat="45.6366794" lon="12.4035807"><ele>5.0</ele><time>2026-03-29T06:36:54.902Z</time></trkpt><trkpt lat="45.6367765" lon="12.4036706"><ele>5.0</ele><time>2026-03-29T06:36:55.921Z</time></trkpt><trkpt lat="45.6368673" lon="12.4037653"><ele>5.0</ele><time>2026-03-29T06:36:56.896Z</time></trkpt><trkpt lat="45.6369625" lon="12.4038684"><ele>4.333333333333334</ele><time>2026-03-29T06:36:57.906Z</time></trkpt><trkpt lat="45.6370267" lon="12.4040502"><ele>3.666666666666667</ele><time>2026-03-29T06:36:58.889Z</time></trkpt><trkpt lat="45.6370706" lon="12.4042699"><ele>3.0</ele><time>2026-03-29T06:36:59.898Z</time></trkpt><trkpt lat="45.6371212" lon="12.4045093"><ele>3.0</ele><time>2026-03-29T06:37:00.902Z</time></trkpt><trkpt lat="45.6371209" lon="12.4047912"><ele>3.0</ele><time>2026-03-29T06:37:01.908Z</time></trkpt><trkpt lat="45.6371064" lon="12.4050927"><ele>3.0</ele><time>2026-03-29T06:37:02.914Z</time></trkpt><trkpt lat="45.6370614" lon="12.4054223"><ele>2.5</ele><time>2026-03-29T06:37:03.9Z</time></trkpt><trkpt lat="45.6370089" lon="12.4057694"><ele>2.0</ele><time>2026-03-29T06:37:04.899Z</time></trkpt><trkpt lat="45.6369594" lon="12.4061333"><ele>3.5</ele><time>2026-03-29T06:37:05.895Z</time></trkpt><trkpt lat="45.6369126" lon="12.4064972"><ele>5.0</ele><time>2026-03-29T06:37:06.912Z</time></trkpt><trkpt lat="45.6368666" lon="12.4068539"><ele>4.5</ele><time>2026-03-29T06:37:07.898Z</time></trkpt><trkpt lat="45.6368293" lon="12.4072069"><ele>4.0</ele><time>2026-03-29T06:37:08.896Z</time></trkpt><trkpt lat="45.6367923" lon="12.4075596"><ele>4.0</ele><time>2026-03-29T06:37:09.908Z</time></trkpt><trkpt lat="45.6367671" lon="12.4079147"><ele>4.0</ele><time>2026-03-29T06:37:10.929Z</time></trkpt><trkpt lat="45.6367452" lon="12.4082753"><ele>4.0</ele><time>2026-03-29T06:37:11.906Z</time></trkpt><trkpt lat="45.6367249" lon="12.4086383"><ele>4.0</ele><time>2026-03-29T06:37:12.936Z</time></trkpt><trkpt lat="45.6367044" lon="12.4090069"><ele>4.0</ele><time>2026-03-29T06:37:13.908Z</time></trkpt><trkpt lat="45.6366811" lon="12.4093807"><ele>4.0</ele><time>2026-03-29T06:37:14.902Z</time></trkpt><trkpt lat="45.6366568" lon="12.4097561"><ele>3.5</ele><time>2026-03-29T06:37:15.909Z</time></trkpt><trkpt lat="45.6366284" lon="12.4101324"><ele>3.0</ele><time>2026-03-29T06:37:16.893Z</time></trkpt><trkpt lat="45.6366043" lon="12.4105092"><ele>2.5</ele><time>2026-03-29T06:37:17.9Z</time></trkpt><trkpt lat="45.6365817" lon="12.4108843"><ele>2.0</ele><time>2026-03-29T06:37:18.896Z</time></trkpt><trkpt lat="45.6365561" lon="12.4112576"><ele>2.5</ele><time>2026-03-29T06:37:19.911Z</time></trkpt><trkpt lat="45.6365328" lon="12.4116278"><ele>3.0</ele><time>2026-03-29T06:37:20.906Z</time></trkpt><trkpt lat="45.6365091" lon="12.4119943"><ele>4.0</ele><time>2026-03-29T06:37:21.918Z</time></trkpt><trkpt lat="45.636484" lon="12.4123551"><ele>5.0</ele><time>2026-03-29T06:37:22.901Z</time></trkpt><trkpt lat="45.6364606" lon="12.4127089"><ele>5.5</ele><time>2026-03-29T06:37:23.894Z</time></trkpt><trkpt lat="45.6364364" lon="12.413051"><ele>6.0</ele><time>2026-03-29T06:37:24.926Z</time></trkpt><trkpt lat="45.6364155" lon="12.4133829"><ele>6.0</ele><time>2026-03-29T06:37:25.897Z</time></trkpt><trkpt lat="45.6363943" lon="12.4137078"><ele>6.0</ele><time>2026-03-29T06:37:26.918Z</time></trkpt><trkpt lat="45.6363721" lon="12.4140263"><ele>6.0</ele><time>2026-03-29T06:37:27.9Z</time></trkpt><trkpt lat="45.6363448" lon="12.4143422"><ele>6.0</ele><time>2026-03-29T06:37:28.906Z</time></trkpt><trkpt lat="45.6363112" lon="12.4146565"><ele>6.0</ele><time>2026-03-29T06:37:29.912Z</time></trkpt><trkpt lat="45.6362702" lon="12.4149687"><ele>5.666666666666667</ele><time>2026-03-29T06:37:30.909Z</time></trkpt><trkpt lat="45.6362256" lon="12.4152801"><ele>5.333333333333334</ele><time>2026-03-29T06:37:31.899Z</time></trkpt><trkpt lat="45.636179" lon="12.4155919"><ele>5.0</ele><time>2026-03-29T06:37:32.904Z</time></trkpt><trkpt lat="45.6361345" lon="12.4159044"><ele>5.0</ele><time>2026-03-29T06:37:33.903Z</time></trkpt><trkpt lat="45.6360905" lon="12.4162178"><ele>5.0</ele><time>2026-03-29T06:37:34.896Z</time></trkpt><trkpt lat="45.6360461" lon="12.4165321"><ele>5.0</ele><time>2026-03-29T06:37:35.912Z</time></trkpt><trkpt lat="45.6360016" lon="12.4168477"><ele>5.0</ele><time>2026-03-29T06:37:36.917Z</time></trkpt><trkpt lat="45.635958" lon="12.4171654"><ele>5.0</ele><time>2026-03-29T06:37:37.899Z</time></trkpt><trkpt lat="45.6359132" lon="12.4174845"><ele>5.0</ele><time>2026-03-29T06:37:38.902Z</time></trkpt><trkpt lat="45.6358737" lon="12.4178068"><ele>5.0</ele><time>2026-03-29T06:37:39.906Z</time></trkpt><trkpt lat="45.6358302" lon="12.4181283"><ele>5.0</ele><time>2026-03-29T06:37:40.899Z</time></trkpt><trkpt lat="45.6357856" lon="12.4184478"><ele>5.0</ele><time>2026-03-29T06:37:41.913Z</time></trkpt><trkpt lat="45.6357393" lon="12.418766"><ele>4.5</ele><time>2026-03-29T06:37:42.907Z</time></trkpt><trkpt lat="45.635688" lon="12.4190821"><ele>4.0</ele><time>2026-03-29T06:37:43.906Z</time></trkpt><trkpt lat="45.6356421" lon="12.4194007"><ele>3.5</ele><time>2026-03-29T06:37:44.909Z</time></trkpt><trkpt lat="45.6355977" lon="12.4197215"><ele>3.0</ele><time>2026-03-29T06:37:45.901Z</time></trkpt><trkpt lat="45.6355599" lon="12.4200465"><ele>3.0</ele><time>2026-03-29T06:37:46.9Z</time></trkpt><trkpt lat="45.6355114" lon="12.4203696"><ele>3.0</ele><time>2026-03-29T06:37:47.892Z</time></trkpt><trkpt lat="45.6354716" lon="12.4206964"><ele>2.5</ele><time>2026-03-29T06:37:48.898Z</time></trkpt><trkpt lat="45.6354228" lon="12.4210204"><ele>2.0</ele><time>2026-03-29T06:37:49.905Z</time></trkpt><trkpt lat="45.6353764" lon="12.4213438"><ele>2.0</ele><time>2026-03-29T06:37:50.922Z</time></trkpt><trkpt lat="45.6353306" lon="12.4216646"><ele>2.0</ele><time>2026-03-29T06:37:51.907Z</time></trkpt><trkpt lat="45.635287" lon="12.4219808"><ele>2.333333333333333</ele><time>2026-03-29T06:37:52.893Z</time></trkpt><trkpt lat="45.6352467" lon="12.4222946"><ele>2.6666666666666665</ele><time>2026-03-29T06:37:53.901Z</time></trkpt><trkpt lat="45.6352152" lon="12.4226057"><ele>3.0</ele><time>2026-03-29T06:37:54.899Z</time></trkpt><trkpt lat="45.6351968" lon="12.4229198"><ele>3.0</ele><time>2026-03-29T06:37:55.902Z</time></trkpt><trkpt lat="45.6351804" lon="12.4232344"><ele>3.0</ele><time>2026-03-29T06:37:56.903Z</time></trkpt><trkpt lat="45.6351875" lon="12.4235473"><ele>3.0</ele><time>2026-03-29T06:37:57.904Z</time></trkpt><trkpt lat="45.635192" lon="12.4238622"><ele>3.0</ele><time>2026-03-29T06:37:58.901Z</time></trkpt><trkpt lat="45.6351932" lon="12.4241763"><ele>3.0</ele><time>2026-03-29T06:37:59.914Z</time></trkpt><trkpt lat="45.6351955" lon="12.4244882"><ele>3.0</ele><time>2026-03-29T06:38:00.911Z</time></trkpt><trkpt lat="45.635203" lon="12.4247968"><ele>3.0</ele><time>2026-03-29T06:38:01.908Z</time></trkpt><trkpt lat="45.6352036" lon="12.4251014"><ele>3.0</ele><time>2026-03-29T06:38:02.93Z</time></trkpt><trkpt lat="45.6352052" lon="12.4254055"><ele>3.0</ele><time>2026-03-29T06:38:03.938Z</time></trkpt><trkpt lat="45.6352108" lon="12.4257092"><ele>3.0</ele><time>2026-03-29T06:38:04.903Z</time></trkpt><trkpt lat="45.6352094" lon="12.4260157"><ele>3.0</ele><time>2026-03-29T06:38:05.923Z</time></trkpt><trkpt lat="45.6352054" lon="12.4263241"><ele>3.0</ele><time>2026-03-29T06:38:06.909Z</time></trkpt><trkpt lat="45.6352116" lon="12.4266326"><ele>3.0</ele><time>2026-03-29T06:38:07.907Z</time></trkpt><trkpt lat="45.6352159" lon="12.4269422"><ele>3.0</ele><time>2026-03-29T06:38:08.908Z</time></trkpt><trkpt lat="45.6352212" lon="12.4272528"><ele>3.0</ele><time>2026-03-29T06:38:09.915Z</time></trkpt><trkpt lat="45.6352315" lon="12.4275637"><ele>3.0</ele><time>2026-03-29T06:38:10.918Z</time></trkpt><trkpt lat="45.6352252" lon="12.4278762"><ele>3.0</ele><time>2026-03-29T06:38:11.898Z</time></trkpt><trkpt lat="45.6352238" lon="12.4281897"><ele>3.0</ele><time>2026-03-29T06:38:12.908Z</time></trkpt><trkpt lat="45.6352241" lon="12.4285041"><ele>2.6666666666666665</ele><time>2026-03-29T06:38:13.927Z</time></trkpt><trkpt lat="45.6352265" lon="12.4288192"><ele>2.333333333333333</ele><time>2026-03-29T06:38:14.908Z</time></trkpt><trkpt lat="45.6352314" lon="12.4291343"><ele>2.0</ele><time>2026-03-29T06:38:15.911Z</time></trkpt><trkpt lat="45.6352343" lon="12.4294479"><ele>2.0</ele><time>2026-03-29T06:38:16.921Z</time></trkpt><trkpt lat="45.6352412" lon="12.4297598"><ele>2.0</ele><time>2026-03-29T06:38:17.918Z</time></trkpt><trkpt lat="45.6352439" lon="12.4300704"><ele>2.0</ele><time>2026-03-29T06:38:18.927Z</time></trkpt><trkpt lat="45.6352399" lon="12.4303798"><ele>1.6666666666666665</ele><time>2026-03-29T06:38:19.899Z</time></trkpt><trkpt lat="45.635247" lon="12.4306891"><ele>1.3333333333333333</ele><time>2026-03-29T06:38:20.908Z</time></trkpt><trkpt lat="45.6352441" lon="12.4309978"><ele>1.0</ele><time>2026-03-29T06:38:21.924Z</time></trkpt><trkpt lat="45.6352442" lon="12.4313077"><ele>1.0</ele><time>2026-03-29T06:38:22.9Z</time></trkpt><trkpt lat="45.6352432" lon="12.4316184"><ele>1.0</ele><time>2026-03-29T06:38:23.903Z</time></trkpt><trkpt lat="45.6352392" lon="12.4319306"><ele>1.0</ele><time>2026-03-29T06:38:24.916Z</time></trkpt><trkpt lat="45.6352299" lon="12.4322429"><ele>1.0</ele><time>2026-03-29T06:38:25.906Z</time></trkpt><trkpt lat="45.6352102" lon="12.4325476"><ele>1.0</ele><time>2026-03-29T06:38:26.916Z</time></trkpt><trkpt lat="45.6351922" lon="12.432837"><ele>1.0</ele><time>2026-03-29T06:38:27.926Z</time></trkpt><trkpt lat="45.6351803" lon="12.4331148"><ele>0.6666666666666666</ele><time>2026-03-29T06:38:28.9Z</time></trkpt><trkpt lat="45.6351715" lon="12.4333869"><ele>0.3333333333333333</ele><time>2026-03-29T06:38:29.908Z</time></trkpt><trkpt lat="45.6351649" lon="12.4336555"><ele>0.0</ele><time>2026-03-29T06:38:30.913Z</time></trkpt><trkpt lat="45.6351676" lon="12.4339212"><ele>0.6666666666666666</ele><time>2026-03-29T06:38:31.919Z</time></trkpt><trkpt lat="45.6351651" lon="12.4341903"><ele>1.3333333333333333</ele><time>2026-03-29T06:38:32.896Z</time></trkpt><trkpt lat="45.6351562" lon="12.4344632"><ele>2.0</ele><time>2026-03-29T06:38:33.919Z</time></trkpt><trkpt lat="45.6351404" lon="12.4347379"><ele>2.0</ele><time>2026-03-29T06:38:34.91Z</time></trkpt><trkpt lat="45.6351268" lon="12.4350061"><ele>2.0</ele><time>2026-03-29T06:38:35.912Z</time></trkpt><trkpt lat="45.6351152" lon="12.43526"><ele>2.0</ele><time>2026-03-29T06:38:36.917Z</time></trkpt><trkpt lat="45.6351009" lon="12.4354991"><ele>2.0</ele><time>2026-03-29T06:38:37.924Z</time></trkpt><trkpt lat="45.6350835" lon="12.4357199"><ele>2.0</ele><time>2026-03-29T06:38:38.927Z</time></trkpt><trkpt lat="45.6350634" lon="12.4359113"><ele>2.0</ele><time>2026-03-29T06:38:39.911Z</time></trkpt><trkpt lat="45.6350468" lon="12.4360667"><ele>2.0</ele><time>2026-03-29T06:38:40.946Z</time></trkpt><trkpt lat="45.6350209" lon="12.4361899"><ele>2.0</ele><time>2026-03-29T06:38:41.893Z</time></trkpt><trkpt lat="45.6349776" lon="12.4362929"><ele>2.0</ele><time>2026-03-29T06:38:42.906Z</time></trkpt><trkpt lat="45.6349405" lon="12.4364155"><ele>2.0</ele><time>2026-03-29T06:38:43.907Z</time></trkpt><trkpt lat="45.6348505" lon="12.4364896"><ele>2.0</ele><time>2026-03-29T06:38:44.894Z</time></trkpt><trkpt lat="45.6347664" lon="12.4365765"><ele>2.0</ele><time>2026-03-29T06:38:45.909Z</time></trkpt><trkpt lat="45.6346872" lon="12.436682"><ele>1.75</ele><time>2026-03-29T06:38:46.918Z</time></trkpt><trkpt lat="45.6346416" lon="12.4368263"><ele>1.5</ele><time>2026-03-29T06:38:47.909Z</time></trkpt><trkpt lat="45.6346466" lon="12.4369931"><ele>1.25</ele><time>2026-03-29T06:38:48.919Z</time></trkpt><trkpt lat="45.6346818" lon="12.4371636"><ele>1.0</ele><time>2026-03-29T06:38:49.905Z</time></trkpt><trkpt lat="45.6347274" lon="12.437342"><ele>0.75</ele><time>2026-03-29T06:38:50.899Z</time></trkpt><trkpt lat="45.6347826" lon="12.4375221"><ele>0.5</ele><time>2026-03-29T06:38:51.887Z</time></trkpt><trkpt lat="45.6348052" lon="12.4377203"><ele>0.25</ele><time>2026-03-29T06:38:52.897Z</time></trkpt><trkpt lat="45.6347847" lon="12.4379424"><ele>0.0</ele><time>2026-03-29T06:38:53.909Z</time></trkpt><trkpt lat="45.6347193" lon="12.4381823"><ele>0.0</ele><time>2026-03-29T06:38:54.91Z</time></trkpt><trkpt lat="45.6346612" lon="12.4384439"><ele>0.0</ele><time>2026-03-29T06:38:55.916Z</time></trkpt><trkpt lat="45.6345849" lon="12.438723"><ele>0.0</ele><time>2026-03-29T06:38:56.912Z</time></trkpt><trkpt lat="45.6345062" lon="12.4390269"><ele>0.5</ele><time>2026-03-29T06:38:57.918Z</time></trkpt><trkpt lat="45.6344244" lon="12.4393528"><ele>1.0</ele><time>2026-03-29T06:38:58.893Z</time></trkpt><trkpt lat="45.6343191" lon="12.4396773"><ele>1.5</ele><time>2026-03-29T06:38:59.909Z</time></trkpt><trkpt lat="45.6342115" lon="12.4399984"><ele>2.0</ele><time>2026-03-29T06:39:00.911Z</time></trkpt><trkpt lat="45.6341047" lon="12.4403025"><ele>2.0</ele><time>2026-03-29T06:39:01.918Z</time></trkpt><trkpt lat="45.6340069" lon="12.440595"><ele>2.0</ele><time>2026-03-29T06:39:02.922Z</time></trkpt><trkpt lat="45.6339108" lon="12.4408718"><ele>2.0</ele><time>2026-03-29T06:39:03.917Z</time></trkpt><trkpt lat="45.6338176" lon="12.4411397"><ele>1.6666666666666665</ele><time>2026-03-29T06:39:04.907Z</time></trkpt><trkpt lat="45.6337255" lon="12.4414036"><ele>1.3333333333333333</ele><time>2026-03-29T06:39:05.907Z</time></trkpt><trkpt lat="45.6336236" lon="12.4416582"><ele>1.0</ele><time>2026-03-29T06:39:06.914Z</time></trkpt><trkpt lat="45.6335068" lon="12.4419042"><ele>1.0</ele><time>2026-03-29T06:39:07.905Z</time></trkpt><trkpt lat="45.6333871" lon="12.4421505"><ele>1.0</ele><time>2026-03-29T06:39:08.908Z</time></trkpt><trkpt lat="45.6332641" lon="12.4423961"><ele>1.0</ele><time>2026-03-29T06:39:09.918Z</time></trkpt><trkpt lat="45.6331321" lon="12.4426453"><ele>1.0</ele><time>2026-03-29T06:39:10.905Z</time></trkpt><trkpt lat="45.6329864" lon="12.4428825"><ele>1.0</ele><time>2026-03-29T06:39:11.91Z</time></trkpt><trkpt lat="45.6328383" lon="12.4431146"><ele>1.0</ele><time>2026-03-29T06:39:12.899Z</time></trkpt><trkpt lat="45.6326939" lon="12.4433524"><ele>1.3333333333333333</ele><time>2026-03-29T06:39:13.907Z</time></trkpt><trkpt lat="45.6325481" lon="12.4435891"><ele>1.6666666666666665</ele><time>2026-03-29T06:39:14.922Z</time></trkpt><trkpt lat="45.6324048" lon="12.4438315"><ele>2.0</ele><time>2026-03-29T06:39:15.911Z</time></trkpt><trkpt lat="45.6322564" lon="12.444074"><ele>2.5</ele><time>2026-03-29T06:39:16.914Z</time></trkpt><trkpt lat="45.6321055" lon="12.4443195"><ele>3.0</ele><time>2026-03-29T06:39:17.913Z</time></trkpt><trkpt lat="45.631952" lon="12.4445627"><ele>3.0</ele><time>2026-03-29T06:39:18.903Z</time></trkpt><trkpt lat="45.631798" lon="12.4448053"><ele>3.0</ele><time>2026-03-29T06:39:19.908Z</time></trkpt><trkpt lat="45.63164" lon="12.4450417"><ele>3.0</ele><time>2026-03-29T06:39:20.933Z</time></trkpt><trkpt lat="45.6314816" lon="12.4452753"><ele>3.0</ele><time>2026-03-29T06:39:21.915Z</time></trkpt><trkpt lat="45.6313221" lon="12.445505"><ele>3.0</ele><time>2026-03-29T06:39:22.925Z</time></trkpt><trkpt lat="45.6311613" lon="12.4457306"><ele>3.0</ele><time>2026-03-29T06:39:23.938Z</time></trkpt><trkpt lat="45.6309967" lon="12.4459492"><ele>3.0</ele><time>2026-03-29T06:39:24.907Z</time></trkpt><trkpt lat="45.6308311" lon="12.4461653"><ele>3.0</ele><time>2026-03-29T06:39:25.93Z</time></trkpt><trkpt lat="45.6306643" lon="12.4463803"><ele>3.0</ele><time>2026-03-29T06:39:26.907Z</time></trkpt><trkpt lat="45.6304941" lon="12.4465903"><ele>2.5</ele><time>2026-03-29T06:39:27.912Z</time></trkpt><trkpt lat="45.6303244" lon="12.4468036"><ele>2.0</ele><time>2026-03-29T06:39:28.915Z</time></trkpt><trkpt lat="45.6301491" lon="12.4470106"><ele>3.0</ele><time>2026-03-29T06:39:29.955Z</time></trkpt><trkpt lat="45.6299734" lon="12.4472173"><ele>4.0</ele><time>2026-03-29T06:39:30.903Z</time></trkpt><trkpt lat="45.6297982" lon="12.4474255"><ele>4.0</ele><time>2026-03-29T06:39:31.917Z</time></trkpt><trkpt lat="45.6296265" lon="12.4476411"><ele>4.0</ele><time>2026-03-29T06:39:32.899Z</time></trkpt><trkpt lat="45.6294608" lon="12.4478652"><ele>3.6666666666666665</ele><time>2026-03-29T06:39:33.911Z</time></trkpt><trkpt lat="45.6293063" lon="12.4480937"><ele>3.333333333333333</ele><time>2026-03-29T06:39:34.905Z</time></trkpt><trkpt lat="45.6291565" lon="12.4483111"><ele>3.0</ele><time>2026-03-29T06:39:35.908Z</time></trkpt><trkpt lat="45.6290264" lon="12.4485351"><ele>3.0</ele><time>2026-03-29T06:39:36.903Z</time></trkpt><trkpt lat="45.628908" lon="12.4487458"><ele>3.0</ele><time>2026-03-29T06:39:37.909Z</time></trkpt><trkpt lat="45.6288037" lon="12.4489217"><ele>3.0</ele><time>2026-03-29T06:39:38.926Z</time></trkpt><trkpt lat="45.6287176" lon="12.4490799"><ele>3.0</ele><time>2026-03-29T06:39:39.911Z</time></trkpt><trkpt lat="45.6286264" lon="12.4491975"><ele>3.0</ele><time>2026-03-29T06:39:40.923Z</time></trkpt><trkpt lat="45.6285305" lon="12.4492875"><ele>3.0</ele><time>2026-03-29T06:39:41.9Z</time></trkpt><trkpt lat="45.628427" lon="12.4493405"><ele>3.0</ele><time>2026-03-29T06:39:42.909Z</time></trkpt><trkpt lat="45.6283434" lon="12.4494294"><ele>3.0</ele><time>2026-03-29T06:39:43.919Z</time></trkpt><trkpt lat="45.628276" lon="12.4495183"><ele>3.0</ele><time>2026-03-29T06:39:44.909Z</time></trkpt><trkpt lat="45.6282695" lon="12.4496529"><ele>3.0</ele><time>2026-03-29T06:39:45.912Z</time></trkpt><trkpt lat="45.6282969" lon="12.4497923"><ele>3.0</ele><time>2026-03-29T06:39:46.916Z</time></trkpt><trkpt lat="45.628336" lon="12.4499376"><ele>3.0</ele><time>2026-03-29T06:39:47.919Z</time></trkpt><trkpt lat="45.6283665" lon="12.4501038"><ele>2.6666666666666665</ele><time>2026-03-29T06:39:48.91Z</time></trkpt><trkpt lat="45.6283735" lon="12.4503184"><ele>2.333333333333333</ele><time>2026-03-29T06:39:49.906Z</time></trkpt><trkpt lat="45.6283411" lon="12.4505793"><ele>2.0</ele><time>2026-03-29T06:39:50.927Z</time></trkpt><trkpt lat="45.6283013" lon="12.4508662"><ele>2.0</ele><time>2026-03-29T06:39:51.908Z</time></trkpt><trkpt lat="45.6282642" lon="12.4511804"><ele>2.0</ele><time>2026-03-29T06:39:52.915Z</time></trkpt><trkpt lat="45.6282251" lon="12.4515095"><ele>2.0</ele><time>2026-03-29T06:39:53.91Z</time></trkpt><trkpt lat="45.628184" lon="12.4518425"><ele>2.0</ele><time>2026-03-29T06:39:54.911Z</time></trkpt><trkpt lat="45.6281376" lon="12.4521754"><ele>1.5</ele><time>2026-03-29T06:39:55.91Z</time></trkpt><trkpt lat="45.6280906" lon="12.4525001"><ele>1.0</ele><time>2026-03-29T06:39:56.908Z</time></trkpt><trkpt lat="45.6280504" lon="12.4528139"><ele>1.0</ele><time>2026-03-29T06:39:57.906Z</time></trkpt><trkpt lat="45.6280149" lon="12.4531203"><ele>1.0</ele><time>2026-03-29T06:39:58.927Z</time></trkpt><trkpt lat="45.6279845" lon="12.4534275"><ele>1.0</ele><time>2026-03-29T06:39:59.908Z</time></trkpt><trkpt lat="45.6279678" lon="12.4537443"><ele>1.0</ele><time>2026-03-29T06:40:00.902Z</time></trkpt><trkpt lat="45.6279485" lon="12.454074"><ele>1.0</ele><time>2026-03-29T06:40:01.902Z</time></trkpt><trkpt lat="45.6279333" lon="12.4544119"><ele>0.5</ele><time>2026-03-29T06:40:02.9Z</time></trkpt><trkpt lat="45.6279233" lon="12.4547546"><ele>0.0</ele><time>2026-03-29T06:40:03.901Z</time></trkpt><trkpt lat="45.6279184" lon="12.4550971"><ele>0.0</ele><time>2026-03-29T06:40:04.91Z</time></trkpt><trkpt lat="45.6279264" lon="12.4554288"><ele>0.0</ele><time>2026-03-29T06:40:05.904Z</time></trkpt><trkpt lat="45.6279391" lon="12.4557515"><ele>0.0</ele><time>2026-03-29T06:40:06.904Z</time></trkpt><trkpt lat="45.6279505" lon="12.4560698"><ele>0.0</ele><time>2026-03-29T06:40:07.91Z</time></trkpt><trkpt lat="45.6279631" lon="12.4563804"><ele>0.0</ele><time>2026-03-29T06:40:08.902Z</time></trkpt><trkpt lat="45.6279803" lon="12.4566845"><ele>0.0</ele><time>2026-03-29T06:40:09.903Z</time></trkpt><trkpt lat="45.6279932" lon="12.4569876"><ele>0.0</ele><time>2026-03-29T06:40:10.916Z</time></trkpt><trkpt lat="45.6280058" lon="12.4572898"><ele>0.0</ele><time>2026-03-29T06:40:11.907Z</time></trkpt><trkpt lat="45.6280199" lon="12.4575926"><ele>0.6666666666666666</ele><time>2026-03-29T06:40:12.897Z</time></trkpt><trkpt lat="45.6280347" lon="12.4578962"><ele>1.3333333333333333</ele><time>2026-03-29T06:40:13.92Z</time></trkpt><trkpt lat="45.6280487" lon="12.4582002"><ele>2.0</ele><time>2026-03-29T06:40:14.908Z</time></trkpt><trkpt lat="45.6280603" lon="12.4585011"><ele>2.0</ele><time>2026-03-29T06:40:15.9Z</time></trkpt><trkpt lat="45.6280656" lon="12.4587908"><ele>2.0</ele><time>2026-03-29T06:40:16.906Z</time></trkpt><trkpt lat="45.6280742" lon="12.459067"><ele>2.0</ele><time>2026-03-29T06:40:17.903Z</time></trkpt><trkpt lat="45.6280775" lon="12.4593367"><ele>2.0</ele><time>2026-03-29T06:40:18.901Z</time></trkpt><trkpt lat="45.6280766" lon="12.4596"><ele>2.0</ele><time>2026-03-29T06:40:19.916Z</time></trkpt><trkpt lat="45.6280656" lon="12.4598625"><ele>2.0</ele><time>2026-03-29T06:40:20.905Z</time></trkpt><trkpt lat="45.6280533" lon="12.460126"><ele>2.0</ele><time>2026-03-29T06:40:21.902Z</time></trkpt><trkpt lat="45.6280419" lon="12.4603956"><ele>2.0</ele><time>2026-03-29T06:40:22.898Z</time></trkpt><trkpt lat="45.6280203" lon="12.4606686"><ele>2.0</ele><time>2026-03-29T06:40:23.9Z</time></trkpt><trkpt lat="45.6279958" lon="12.4609421"><ele>2.0</ele><time>2026-03-29T06:40:24.92Z</time></trkpt><trkpt lat="45.6279647" lon="12.4612136"><ele>2.0</ele><time>2026-03-29T06:40:25.912Z</time></trkpt><trkpt lat="45.6279394" lon="12.4614861"><ele>2.0</ele><time>2026-03-29T06:40:26.924Z</time></trkpt><trkpt lat="45.627908" lon="12.4617517"><ele>1.6666666666666665</ele><time>2026-03-29T06:40:27.918Z</time></trkpt><trkpt lat="45.6278741" lon="12.4620125"><ele>1.3333333333333333</ele><time>2026-03-29T06:40:28.92Z</time></trkpt><trkpt lat="45.6278373" lon="12.4622623"><ele>1.0</ele><time>2026-03-29T06:40:29.908Z</time></trkpt><trkpt lat="45.6277988" lon="12.4624991"><ele>1.6666666666666665</ele><time>2026-03-29T06:40:30.913Z</time></trkpt><trkpt lat="45.6277523" lon="12.4627249"><ele>2.3333333333333335</ele><time>2026-03-29T06:40:31.932Z</time></trkpt><trkpt lat="45.6277113" lon="12.4629352"><ele>3.0</ele><time>2026-03-29T06:40:32.933Z</time></trkpt><trkpt lat="45.6276745" lon="12.4631332"><ele>3.25</ele><time>2026-03-29T06:40:33.904Z</time></trkpt><trkpt lat="45.6276406" lon="12.4633171"><ele>3.5</ele><time>2026-03-29T06:40:34.911Z</time></trkpt><trkpt lat="45.6276025" lon="12.4634817"><ele>3.75</ele><time>2026-03-29T06:40:35.923Z</time></trkpt><trkpt lat="45.6275599" lon="12.4636244"><ele>4.0</ele><time>2026-03-29T06:40:36.914Z</time></trkpt><trkpt lat="45.6275085" lon="12.4637476"><ele>3.8000000000000003</ele><time>2026-03-29T06:40:37.932Z</time></trkpt><trkpt lat="45.6274382" lon="12.463845"><ele>3.6000000000000005</ele><time>2026-03-29T06:40:38.911Z</time></trkpt><trkpt lat="45.6273809" lon="12.4639574"><ele>3.4</ele><time>2026-03-29T06:40:39.913Z</time></trkpt><trkpt lat="45.627364" lon="12.4641033"><ele>3.2</ele><time>2026-03-29T06:40:40.905Z</time></trkpt><trkpt lat="45.6273818" lon="12.4642615"><ele>3.0</ele><time>2026-03-29T06:40:41.915Z</time></trkpt><trkpt lat="45.627374" lon="12.4644402"><ele>2.6666666666666665</ele><time>2026-03-29T06:40:42.907Z</time></trkpt><trkpt lat="45.6273294" lon="12.4646388"><ele>2.333333333333333</ele><time>2026-03-29T06:40:43.931Z</time></trkpt><trkpt lat="45.6272777" lon="12.4648649"><ele>2.0</ele><time>2026-03-29T06:40:44.909Z</time></trkpt><trkpt lat="45.6271773" lon="12.4650851"><ele>2.0</ele><time>2026-03-29T06:40:45.919Z</time></trkpt><trkpt lat="45.6270988" lon="12.4653444"><ele>2.0</ele><time>2026-03-29T06:40:46.911Z</time></trkpt><trkpt lat="45.6270059" lon="12.4656073"><ele>2.0</ele><time>2026-03-29T06:40:47.901Z</time></trkpt><trkpt lat="45.6268998" lon="12.4658605"><ele>2.0</ele><time>2026-03-29T06:40:48.911Z</time></trkpt><trkpt lat="45.6267861" lon="12.4661064"><ele>2.0</ele><time>2026-03-29T06:40:49.904Z</time></trkpt><trkpt lat="45.6266684" lon="12.4663498"><ele>2.0</ele><time>2026-03-29T06:40:50.906Z</time></trkpt><trkpt lat="45.6265476" lon="12.4665946"><ele>2.0</ele><time>2026-03-29T06:40:51.917Z</time></trkpt><trkpt lat="45.626424" lon="12.4668428"><ele>2.0</ele><time>2026-03-29T06:40:52.904Z</time></trkpt><trkpt lat="45.6262981" lon="12.4670954"><ele>2.0</ele><time>2026-03-29T06:40:53.915Z</time></trkpt><trkpt lat="45.6261671" lon="12.4673509"><ele>2.0</ele><time>2026-03-29T06:40:54.915Z</time></trkpt><trkpt lat="45.626029" lon="12.4676035"><ele>2.0</ele><time>2026-03-29T06:40:55.925Z</time></trkpt><trkpt lat="45.6258929" lon="12.467853"><ele>2.0</ele><time>2026-03-29T06:40:56.909Z</time></trkpt><trkpt lat="45.6257575" lon="12.4680988"><ele>2.333333333333333</ele><time>2026-03-29T06:40:57.924Z</time></trkpt><trkpt lat="45.6256232" lon="12.4683457"><ele>2.6666666666666665</ele><time>2026-03-29T06:40:58.921Z</time></trkpt><trkpt lat="45.6254935" lon="12.4685979"><ele>3.0</ele><time>2026-03-29T06:40:59.91Z</time></trkpt><trkpt lat="45.6253645" lon="12.4688501"><ele>2.0</ele><time>2026-03-29T06:41:00.898Z</time></trkpt><trkpt lat="45.6252335" lon="12.4690987"><ele>1.0</ele><time>2026-03-29T06:41:01.917Z</time></trkpt><trkpt lat="45.6251032" lon="12.4693466"><ele>0.0</ele><time>2026-03-29T06:41:02.91Z</time></trkpt><trkpt lat="45.6249741" lon="12.4695946"><ele>0.0</ele><time>2026-03-29T06:41:03.911Z</time></trkpt><trkpt lat="45.6248456" lon="12.4698421"><ele>0.0</ele><time>2026-03-29T06:41:04.901Z</time></trkpt><trkpt lat="45.624719" lon="12.4700898"><ele>0.0</ele><time>2026-03-29T06:41:05.904Z</time></trkpt><trkpt lat="45.6245927" lon="12.4703358"><ele>0.3333333333333333</ele><time>2026-03-29T06:41:06.905Z</time></trkpt><trkpt lat="45.6244667" lon="12.470581"><ele>0.6666666666666666</ele><time>2026-03-29T06:41:07.925Z</time></trkpt><trkpt lat="45.6243417" lon="12.4708263"><ele>1.0</ele><time>2026-03-29T06:41:08.906Z</time></trkpt><trkpt lat="45.624216" lon="12.4710705"><ele>1.0</ele><time>2026-03-29T06:41:09.907Z</time></trkpt><trkpt lat="45.6240894" lon="12.4713137"><ele>1.0</ele><time>2026-03-29T06:41:10.911Z</time></trkpt><trkpt lat="45.6239626" lon="12.4715566"><ele>1.0</ele><time>2026-03-29T06:41:11.904Z</time></trkpt><trkpt lat="45.6238366" lon="12.4718007"><ele>1.0</ele><time>2026-03-29T06:41:12.909Z</time></trkpt><trkpt lat="45.6237116" lon="12.4720462"><ele>1.0</ele><time>2026-03-29T06:41:13.917Z</time></trkpt><trkpt lat="45.6235859" lon="12.4722924"><ele>1.0</ele><time>2026-03-29T06:41:14.916Z</time></trkpt><trkpt lat="45.6234597" lon="12.4725396"><ele>0.6666666666666666</ele><time>2026-03-29T06:41:15.912Z</time></trkpt><trkpt lat="45.6233339" lon="12.4727878"><ele>0.3333333333333333</ele><time>2026-03-29T06:41:16.911Z</time></trkpt><trkpt lat="45.6232057" lon="12.4730354"><ele>0.0</ele><time>2026-03-29T06:41:17.915Z</time></trkpt><trkpt lat="45.6230784" lon="12.4732848"><ele>-0.3333333333333333</ele><time>2026-03-29T06:41:18.947Z</time></trkpt><trkpt lat="45.6229504" lon="12.4735341"><ele>-0.6666666666666666</ele><time>2026-03-29T06:41:19.906Z</time></trkpt><trkpt lat="45.6228221" lon="12.4737834"><ele>-1.0</ele><time>2026-03-29T06:41:20.924Z</time></trkpt><trkpt lat="45.6226944" lon="12.474033"><ele>-0.6666666666666666</ele><time>2026-03-29T06:41:21.915Z</time></trkpt><trkpt lat="45.6225648" lon="12.4742816"><ele>-0.3333333333333333</ele><time>2026-03-29T06:41:22.914Z</time></trkpt><trkpt lat="45.6224373" lon="12.4745322"><ele>0.0</ele><time>2026-03-29T06:41:23.916Z</time></trkpt><trkpt lat="45.6223095" lon="12.4747812"><ele>0.0</ele><time>2026-03-29T06:41:24.922Z</time></trkpt><trkpt lat="45.6221824" lon="12.4750295"><ele>0.0</ele><time>2026-03-29T06:41:25.911Z</time></trkpt><trkpt lat="45.6220551" lon="12.4752763"><ele>0.0</ele><time>2026-03-29T06:41:26.914Z</time></trkpt><trkpt lat="45.6219301" lon="12.4755215"><ele>-0.3333333333333333</ele><time>2026-03-29T06:41:27.911Z</time></trkpt><trkpt lat="45.6218048" lon="12.4757632"><ele>-0.6666666666666666</ele><time>2026-03-29T06:41:28.905Z</time></trkpt><trkpt lat="45.6216799" lon="12.4760046"><ele>-1.0</ele><time>2026-03-29T06:41:29.906Z</time></trkpt><trkpt lat="45.6215548" lon="12.4762458"><ele>-1.0</ele><time>2026-03-29T06:41:30.906Z</time></trkpt><trkpt lat="45.6214305" lon="12.4764879"><ele>-1.0</ele><time>2026-03-29T06:41:31.893Z</time></trkpt><trkpt lat="45.6213065" lon="12.4767304"><ele>-1.0</ele><time>2026-03-29T06:41:32.909Z</time></trkpt><trkpt lat="45.6211842" lon="12.4769753"><ele>-0.3333333333333333</ele><time>2026-03-29T06:41:33.901Z</time></trkpt><trkpt lat="45.6210591" lon="12.477216"><ele>0.3333333333333333</ele><time>2026-03-29T06:41:34.901Z</time></trkpt><trkpt lat="45.6209348" lon="12.4774553"><ele>1.0</ele><time>2026-03-29T06:41:35.916Z</time></trkpt><trkpt lat="45.6208125" lon="12.4776936"><ele>1.0</ele><time>2026-03-29T06:41:36.921Z</time></trkpt><trkpt lat="45.6206887" lon="12.4779301"><ele>1.0</ele><time>2026-03-29T06:41:37.926Z</time></trkpt><trkpt lat="45.6205681" lon="12.4781724"><ele>1.0</ele><time>2026-03-29T06:41:38.912Z</time></trkpt><trkpt lat="45.6204446" lon="12.4784129"><ele>1.0</ele><time>2026-03-29T06:41:39.914Z</time></trkpt><trkpt lat="45.6203226" lon="12.4786585"><ele>1.0</ele><time>2026-03-29T06:41:40.899Z</time></trkpt><trkpt lat="45.6201965" lon="12.4789008"><ele>1.0</ele><time>2026-03-29T06:41:41.927Z</time></trkpt><trkpt lat="45.6200704" lon="12.479145"><ele>1.0</ele><time>2026-03-29T06:41:42.91Z</time></trkpt><trkpt lat="45.6199442" lon="12.4793915"><ele>1.0</ele><time>2026-03-29T06:41:43.928Z</time></trkpt><trkpt lat="45.6198145" lon="12.4796364"><ele>1.0</ele><time>2026-03-29T06:41:44.939Z</time></trkpt><trkpt lat="45.6196856" lon="12.4798849"><ele>1.0</ele><time>2026-03-29T06:41:45.905Z</time></trkpt><trkpt lat="45.6195578" lon="12.4801364"><ele>1.0</ele><time>2026-03-29T06:41:46.907Z</time></trkpt><trkpt lat="45.6194286" lon="12.4803894"><ele>1.0</ele><time>2026-03-29T06:41:47.905Z</time></trkpt><trkpt lat="45.6192967" lon="12.4806421"><ele>1.3333333333333333</ele><time>2026-03-29T06:41:48.911Z</time></trkpt><trkpt lat="45.6191649" lon="12.4808955"><ele>1.6666666666666665</ele><time>2026-03-29T06:41:49.912Z</time></trkpt><trkpt lat="45.6190338" lon="12.4811496"><ele>2.0</ele><time>2026-03-29T06:41:50.913Z</time></trkpt><trkpt lat="45.6189027" lon="12.4814037"><ele>2.0</ele><time>2026-03-29T06:41:51.907Z</time></trkpt><trkpt lat="45.6187714" lon="12.4816587"><ele>2.0</ele><time>2026-03-29T06:41:52.907Z</time></trkpt><trkpt lat="45.6186393" lon="12.4819149"><ele>2.0</ele><time>2026-03-29T06:41:53.908Z</time></trkpt><trkpt lat="45.618507" lon="12.4821719"><ele>1.6666666666666665</ele><time>2026-03-29T06:41:54.903Z</time></trkpt><trkpt lat="45.6183755" lon="12.4824298"><ele>1.3333333333333333</ele><time>2026-03-29T06:41:55.91Z</time></trkpt><trkpt lat="45.6182369" lon="12.482679"><ele>1.0</ele><time>2026-03-29T06:41:56.909Z</time></trkpt><trkpt lat="45.6180971" lon="12.482927"><ele>1.0</ele><time>2026-03-29T06:41:57.92Z</time></trkpt><trkpt lat="45.6179649" lon="12.4831777"><ele>1.0</ele><time>2026-03-29T06:41:58.919Z</time></trkpt><trkpt lat="45.6178332" lon="12.4834174"><ele>1.0</ele><time>2026-03-29T06:41:59.916Z</time></trkpt><trkpt lat="45.6177091" lon="12.4836553"><ele>0.6666666666666666</ele><time>2026-03-29T06:42:00.908Z</time></trkpt><trkpt lat="45.6175878" lon="12.483895"><ele>0.3333333333333333</ele><time>2026-03-29T06:42:01.946Z</time></trkpt><trkpt lat="45.6174653" lon="12.4841283"><ele>0.0</ele><time>2026-03-29T06:42:02.921Z</time></trkpt><trkpt lat="45.6173449" lon="12.4843647"><ele>-0.3333333333333333</ele><time>2026-03-29T06:42:03.932Z</time></trkpt><trkpt lat="45.6172235" lon="12.4845972"><ele>-0.6666666666666666</ele><time>2026-03-29T06:42:04.928Z</time></trkpt><trkpt lat="45.617102" lon="12.4848255"><ele>-1.0</ele><time>2026-03-29T06:42:05.91Z</time></trkpt><trkpt lat="45.6169822" lon="12.4850474"><ele>-0.6666666666666666</ele><time>2026-03-29T06:42:06.91Z</time></trkpt><trkpt lat="45.6168625" lon="12.4852566"><ele>-0.3333333333333333</ele><time>2026-03-29T06:42:07.919Z</time></trkpt><trkpt lat="45.6167456" lon="12.485455"><ele>0.0</ele><time>2026-03-29T06:42:08.919Z</time></trkpt><trkpt lat="45.6166281" lon="12.4856391"><ele>0.0</ele><time>2026-03-29T06:42:09.927Z</time></trkpt><trkpt lat="45.6165175" lon="12.4858251"><ele>0.0</ele><time>2026-03-29T06:42:10.925Z</time></trkpt><trkpt lat="45.6164057" lon="12.4860005"><ele>0.0</ele><time>2026-03-29T06:42:11.927Z</time></trkpt><trkpt lat="45.6162896" lon="12.4861682"><ele>0.0</ele><time>2026-03-29T06:42:12.909Z</time></trkpt><trkpt lat="45.6161808" lon="12.4863411"><ele>0.0</ele><time>2026-03-29T06:42:13.93Z</time></trkpt><trkpt lat="45.6160776" lon="12.4865172"><ele>0.0</ele><time>2026-03-29T06:42:14.918Z</time></trkpt><trkpt lat="45.6159733" lon="12.4866889"><ele>0.0</ele><time>2026-03-29T06:42:15.921Z</time></trkpt><trkpt lat="45.6158742" lon="12.486861"><ele>0.0</ele><time>2026-03-29T06:42:16.918Z</time></trkpt><trkpt lat="45.615786" lon="12.4870475"><ele>0.0</ele><time>2026-03-29T06:42:17.916Z</time></trkpt><trkpt lat="45.6156922" lon="12.4872267"><ele>0.0</ele><time>2026-03-29T06:42:18.915Z</time></trkpt><trkpt lat="45.6155975" lon="12.4874046"><ele>0.0</ele><time>2026-03-29T06:42:19.916Z</time></trkpt><trkpt lat="45.6154984" lon="12.487577"><ele>0.0</ele><time>2026-03-29T06:42:20.907Z</time></trkpt><trkpt lat="45.6154013" lon="12.4877516"><ele>0.3333333333333333</ele><time>2026-03-29T06:42:21.939Z</time></trkpt><trkpt lat="45.6153051" lon="12.4879283"><ele>0.6666666666666666</ele><time>2026-03-29T06:42:22.932Z</time></trkpt><trkpt lat="45.615205" lon="12.4881018"><ele>1.0</ele><time>2026-03-29T06:42:23.909Z</time></trkpt><trkpt lat="45.6150943" lon="12.488267"><ele>1.0</ele><time>2026-03-29T06:42:24.903Z</time></trkpt><trkpt lat="45.6149787" lon="12.4884353"><ele>1.0</ele><time>2026-03-29T06:42:25.905Z</time></trkpt><trkpt lat="45.6148371" lon="12.4885756"><ele>1.0</ele><time>2026-03-29T06:42:26.927Z</time></trkpt><trkpt lat="45.6146984" lon="12.4887222"><ele>0.6666666666666666</ele><time>2026-03-29T06:42:27.9Z</time></trkpt><trkpt lat="45.6145626" lon="12.4888655"><ele>0.3333333333333333</ele><time>2026-03-29T06:42:28.912Z</time></trkpt><trkpt lat="45.6144315" lon="12.4890153"><ele>0.0</ele><time>2026-03-29T06:42:29.919Z</time></trkpt><trkpt lat="45.6143001" lon="12.489161"><ele>0.0</ele><time>2026-03-29T06:42:30.913Z</time></trkpt><trkpt lat="45.6141755" lon="12.4893216"><ele>0.0</ele><time>2026-03-29T06:42:31.939Z</time></trkpt><trkpt lat="45.6140575" lon="12.4894834"><ele>0.0</ele><time>2026-03-29T06:42:32.915Z</time></trkpt><trkpt lat="45.6139431" lon="12.4896415"><ele>-0.25</ele><time>2026-03-29T06:42:33.919Z</time></trkpt><trkpt lat="45.6138308" lon="12.4897912"><ele>-0.5</ele><time>2026-03-29T06:42:34.922Z</time></trkpt><trkpt lat="45.6137262" lon="12.489937"><ele>-0.75</ele><time>2026-03-29T06:42:35.917Z</time></trkpt><trkpt lat="45.6136281" lon="12.490083"><ele>-1.0</ele><time>2026-03-29T06:42:36.918Z</time></trkpt><trkpt lat="45.6135462" lon="12.4902295"><ele>-1.0</ele><time>2026-03-29T06:42:37.906Z</time></trkpt><trkpt lat="45.6134656" lon="12.4903534"><ele>-1.0</ele><time>2026-03-29T06:42:38.915Z</time></trkpt><trkpt lat="45.6133813" lon="12.4904623"><ele>-1.0</ele><time>2026-03-29T06:42:39.92Z</time></trkpt><trkpt lat="45.6132885" lon="12.4905352"><ele>-1.0</ele><time>2026-03-29T06:42:40.925Z</time></trkpt><trkpt lat="45.6131925" lon="12.4905943"><ele>-1.0</ele><time>2026-03-29T06:42:41.914Z</time></trkpt><trkpt lat="45.6130954" lon="12.4906306"><ele>-0.75</ele><time>2026-03-29T06:42:42.912Z</time></trkpt><trkpt lat="45.6129854" lon="12.4906292"><ele>-0.5</ele><time>2026-03-29T06:42:43.916Z</time></trkpt><trkpt lat="45.6128669" lon="12.4906158"><ele>-0.25</ele><time>2026-03-29T06:42:44.908Z</time></trkpt><trkpt lat="45.612737" lon="12.4906275"><ele>0.0</ele><time>2026-03-29T06:42:45.918Z</time></trkpt><trkpt lat="45.612603" lon="12.4906938"><ele>0.0</ele><time>2026-03-29T06:42:46.918Z</time></trkpt><trkpt lat="45.6124661" lon="12.4908082"><ele>0.0</ele><time>2026-03-29T06:42:47.923Z</time></trkpt><trkpt lat="45.6123417" lon="12.49098"><ele>0.0</ele><time>2026-03-29T06:42:48.926Z</time></trkpt><trkpt lat="45.6122384" lon="12.4911831"><ele>-0.6666666666666666</ele><time>2026-03-29T06:42:49.918Z</time></trkpt><trkpt lat="45.6121671" lon="12.4914059"><ele>-1.3333333333333333</ele><time>2026-03-29T06:42:50.903Z</time></trkpt><trkpt lat="45.6121235" lon="12.4916295"><ele>-2.0</ele><time>2026-03-29T06:42:51.91Z</time></trkpt><trkpt lat="45.6121083" lon="12.4918649"><ele>-2.0</ele><time>2026-03-29T06:42:52.908Z</time></trkpt><trkpt lat="45.6121268" lon="12.492097"><ele>-2.0</ele><time>2026-03-29T06:42:53.92Z</time></trkpt><trkpt lat="45.6121793" lon="12.4923166"><ele>-2.0</ele><time>2026-03-29T06:42:54.913Z</time></trkpt><trkpt lat="45.612255" lon="12.4925179"><ele>-2.0</ele><time>2026-03-29T06:42:55.919Z</time></trkpt><trkpt lat="45.612357" lon="12.4926968"><ele>-2.0</ele><time>2026-03-29T06:42:56.918Z</time></trkpt><trkpt lat="45.6124829" lon="12.4928557"><ele>-2.0</ele><time>2026-03-29T06:42:57.911Z</time></trkpt><trkpt lat="45.6126402" lon="12.4929617"><ele>-1.3333333333333333</ele><time>2026-03-29T06:42:58.912Z</time></trkpt><trkpt lat="45.6128171" lon="12.4930101"><ele>-0.6666666666666666</ele><time>2026-03-29T06:42:59.904Z</time></trkpt><trkpt lat="45.6129945" lon="12.4930273"><ele>0.0</ele><time>2026-03-29T06:43:00.909Z</time></trkpt><trkpt lat="45.6131648" lon="12.4929724"><ele>0.0</ele><time>2026-03-29T06:43:01.931Z</time></trkpt><trkpt lat="45.6133353" lon="12.4928616"><ele>0.0</ele><time>2026-03-29T06:43:02.907Z</time></trkpt><trkpt lat="45.6134752" lon="12.4927198"><ele>0.0</ele><time>2026-03-29T06:43:03.926Z</time></trkpt><trkpt lat="45.6135872" lon="12.4925703"><ele>0.25</ele><time>2026-03-29T06:43:04.947Z</time></trkpt><trkpt lat="45.6136948" lon="12.4924405"><ele>0.5</ele><time>2026-03-29T06:43:05.901Z</time></trkpt><trkpt lat="45.6137934" lon="12.4923273"><ele>0.75</ele><time>2026-03-29T06:43:06.913Z</time></trkpt><trkpt lat="45.6139143" lon="12.492287"><ele>1.0</ele><time>2026-03-29T06:43:07.912Z</time></trkpt><trkpt lat="45.6140383" lon="12.4923103"><ele>1.0</ele><time>2026-03-29T06:43:08.914Z</time></trkpt><trkpt lat="45.6141741" lon="12.4923461"><ele>1.0</ele><time>2026-03-29T06:43:09.916Z</time></trkpt><trkpt lat="45.6143213" lon="12.4924463"><ele>1.0</ele><time>2026-03-29T06:43:10.906Z</time></trkpt><trkpt lat="45.6144854" lon="12.4925581"><ele>1.0</ele><time>2026-03-29T06:43:11.91Z</time></trkpt><trkpt lat="45.6146649" lon="12.4926825"><ele>1.0</ele><time>2026-03-29T06:43:12.913Z</time></trkpt><trkpt lat="45.6148601" lon="12.4928088"><ele>1.0</ele><time>2026-03-29T06:43:13.945Z</time></trkpt><trkpt lat="45.6150619" lon="12.4929517"><ele>1.0</ele><time>2026-03-29T06:43:14.927Z</time></trkpt><trkpt lat="45.6152743" lon="12.4930899"><ele>1.0</ele><time>2026-03-29T06:43:15.935Z</time></trkpt><trkpt lat="45.6154825" lon="12.4932384"><ele>1.5</ele><time>2026-03-29T06:43:16.931Z</time></trkpt><trkpt lat="45.6156902" lon="12.4933865"><ele>2.0</ele><time>2026-03-29T06:43:17.913Z</time></trkpt><trkpt lat="45.6158968" lon="12.4935299"><ele>2.0</ele><time>2026-03-29T06:43:18.918Z</time></trkpt><trkpt lat="45.6161013" lon="12.4936793"><ele>2.0</ele><time>2026-03-29T06:43:19.918Z</time></trkpt><trkpt lat="45.6163076" lon="12.4938208"><ele>1.0</ele><time>2026-03-29T06:43:20.908Z</time></trkpt><trkpt lat="45.6165113" lon="12.493966"><ele>0.0</ele><time>2026-03-29T06:43:21.917Z</time></trkpt><trkpt lat="45.6167163" lon="12.4941069"><ele>0.0</ele><time>2026-03-29T06:43:22.913Z</time></trkpt><trkpt lat="45.616924" lon="12.4942537"><ele>0.0</ele><time>2026-03-29T06:43:23.919Z</time></trkpt><trkpt lat="45.6171418" lon="12.4944054"><ele>0.5</ele><time>2026-03-29T06:43:24.926Z</time></trkpt><trkpt lat="45.6173697" lon="12.4945639"><ele>1.0</ele><time>2026-03-29T06:43:25.936Z</time></trkpt><trkpt lat="45.6176017" lon="12.4947234"><ele>-0.5</ele><time>2026-03-29T06:43:26.917Z</time></trkpt><trkpt lat="45.6178324" lon="12.494883"><ele>-2.0</ele><time>2026-03-29T06:43:27.921Z</time></trkpt><trkpt lat="45.6180582" lon="12.4950403"><ele>-2.0</ele><time>2026-03-29T06:43:28.938Z</time></trkpt><trkpt lat="45.6182808" lon="12.4951943"><ele>-2.0</ele><time>2026-03-29T06:43:29.912Z</time></trkpt><trkpt lat="45.6185011" lon="12.495359"><ele>-1.0</ele><time>2026-03-29T06:43:30.936Z</time></trkpt><trkpt lat="45.6187113" lon="12.4955488"><ele>0.0</ele><time>2026-03-29T06:43:31.943Z</time></trkpt><trkpt lat="45.6189208" lon="12.495752"><ele>0.0</ele><time>2026-03-29T06:43:32.916Z</time></trkpt><trkpt lat="45.6191268" lon="12.495974"><ele>0.0</ele><time>2026-03-29T06:43:33.919Z</time></trkpt><trkpt lat="45.6193226" lon="12.4962133"><ele>0.0</ele><time>2026-03-29T06:43:34.911Z</time></trkpt><trkpt lat="45.6195171" lon="12.4964544"><ele>0.0</ele><time>2026-03-29T06:43:35.923Z</time></trkpt><trkpt lat="45.6196953" lon="12.4967201"><ele>0.0</ele><time>2026-03-29T06:43:36.906Z</time></trkpt><trkpt lat="45.6198613" lon="12.4970038"><ele>0.0</ele><time>2026-03-29T06:43:37.918Z</time></trkpt><trkpt lat="45.6200263" lon="12.4972876"><ele>0.5</ele><time>2026-03-29T06:43:38.914Z</time></trkpt><trkpt lat="45.6201767" lon="12.4975889"><ele>1.0</ele><time>2026-03-29T06:43:39.924Z</time></trkpt><trkpt lat="45.6203171" lon="12.4978985"><ele>1.5</ele><time>2026-03-29T06:43:40.908Z</time></trkpt><trkpt lat="45.6204515" lon="12.4982115"><ele>2.0</ele><time>2026-03-29T06:43:41.917Z</time></trkpt><trkpt lat="45.6205579" lon="12.4985429"><ele>0.5</ele><time>2026-03-29T06:43:42.91Z</time></trkpt><trkpt lat="45.6206634" lon="12.4988733"><ele>-1.0</ele><time>2026-03-29T06:43:43.915Z</time></trkpt><trkpt lat="45.6207468" lon="12.4992127"><ele>-1.0</ele><time>2026-03-29T06:43:44.909Z</time></trkpt><trkpt lat="45.6208166" lon="12.4995551"><ele>-1.0</ele><time>2026-03-29T06:43:45.925Z</time></trkpt><trkpt lat="45.6208719" lon="12.4998984"><ele>-0.5</ele><time>2026-03-29T06:43:46.909Z</time></trkpt><trkpt lat="45.6209186" lon="12.5002414"><ele>0.0</ele><time>2026-03-29T06:43:47.916Z</time></trkpt><trkpt lat="45.6209392" lon="12.5005861"><ele>0.0</ele><time>2026-03-29T06:43:48.91Z</time></trkpt><trkpt lat="45.6209484" lon="12.5009279"><ele>0.0</ele><time>2026-03-29T06:43:49.923Z</time></trkpt><trkpt lat="45.6209486" lon="12.5012687"><ele>0.0</ele><time>2026-03-29T06:43:50.906Z</time></trkpt><trkpt lat="45.6209309" lon="12.501607"><ele>0.0</ele><time>2026-03-29T06:43:51.946Z</time></trkpt><trkpt lat="45.6209051" lon="12.5019428"><ele>0.0</ele><time>2026-03-29T06:43:52.924Z</time></trkpt><trkpt lat="45.6208712" lon="12.5022762"><ele>0.0</ele><time>2026-03-29T06:43:53.914Z</time></trkpt><trkpt lat="45.6208202" lon="12.5026043"><ele>-0.5</ele><time>2026-03-29T06:43:54.91Z</time></trkpt><trkpt lat="45.6207677" lon="12.5029302"><ele>-1.0</ele><time>2026-03-29T06:43:55.916Z</time></trkpt><trkpt lat="45.620715" lon="12.5032513"><ele>-1.0</ele><time>2026-03-29T06:43:56.925Z</time></trkpt><trkpt lat="45.620663" lon="12.5035598"><ele>-1.0</ele><time>2026-03-29T06:43:57.913Z</time></trkpt><trkpt lat="45.6206166" lon="12.5038513"><ele>-1.0</ele><time>2026-03-29T06:43:58.921Z</time></trkpt><trkpt lat="45.6205755" lon="12.5041272"><ele>-1.0</ele><time>2026-03-29T06:43:59.92Z</time></trkpt><trkpt lat="45.6205353" lon="12.5043878"><ele>-1.0</ele><time>2026-03-29T06:44:00.925Z</time></trkpt><trkpt lat="45.6205053" lon="12.5046397"><ele>-1.0</ele><time>2026-03-29T06:44:01.932Z</time></trkpt><trkpt lat="45.6204603" lon="12.5048803"><ele>-1.0</ele><time>2026-03-29T06:44:02.916Z</time></trkpt><trkpt lat="45.6204225" lon="12.5051219"><ele>-1.0</ele><time>2026-03-29T06:44:03.918Z</time></trkpt><trkpt lat="45.6203862" lon="12.5053647"><ele>-1.0</ele><time>2026-03-29T06:44:04.916Z</time></trkpt><trkpt lat="45.62035" lon="12.5056097"><ele>-1.0</ele><time>2026-03-29T06:44:05.922Z</time></trkpt><trkpt lat="45.6203221" lon="12.5058588"><ele>-1.0</ele><time>2026-03-29T06:44:06.917Z</time></trkpt><trkpt lat="45.6202777" lon="12.506103"><ele>-1.0</ele><time>2026-03-29T06:44:07.912Z</time></trkpt><trkpt lat="45.6202392" lon="12.5063494"><ele>-1.0</ele><time>2026-03-29T06:44:08.924Z</time></trkpt><trkpt lat="45.6202013" lon="12.5065963"><ele>-1.0</ele><time>2026-03-29T06:44:09.94Z</time></trkpt><trkpt lat="45.6201538" lon="12.5068402"><ele>-1.0</ele><time>2026-03-29T06:44:10.912Z</time></trkpt><trkpt lat="45.6201189" lon="12.5070864"><ele>-1.0</ele><time>2026-03-29T06:44:11.923Z</time></trkpt><trkpt lat="45.6200782" lon="12.5073315"><ele>-1.0</ele><time>2026-03-29T06:44:12.915Z</time></trkpt><trkpt lat="45.6200418" lon="12.5075773"><ele>-1.0</ele><time>2026-03-29T06:44:13.914Z</time></trkpt><trkpt lat="45.6200142" lon="12.5078261"><ele>0.0</ele><time>2026-03-29T06:44:14.918Z</time></trkpt><trkpt lat="45.6199779" lon="12.5080749"><ele>1.0</ele><time>2026-03-29T06:44:15.915Z</time></trkpt><trkpt lat="45.6199385" lon="12.5083271"><ele>2.0</ele><time>2026-03-29T06:44:16.916Z</time></trkpt><trkpt lat="45.619896" lon="12.508581"><ele>2.6666666666666665</ele><time>2026-03-29T06:44:17.92Z</time></trkpt><trkpt lat="45.6198556" lon="12.5088374"><ele>3.333333333333333</ele><time>2026-03-29T06:44:18.909Z</time></trkpt><trkpt lat="45.6198168" lon="12.5090941"><ele>4.0</ele><time>2026-03-29T06:44:19.919Z</time></trkpt><trkpt lat="45.6197807" lon="12.5093474"><ele>3.6666666666666665</ele><time>2026-03-29T06:44:20.913Z</time></trkpt><trkpt lat="45.6197464" lon="12.50959"><ele>3.333333333333333</ele><time>2026-03-29T06:44:21.913Z</time></trkpt><trkpt lat="45.6197207" lon="12.5098275"><ele>3.0</ele><time>2026-03-29T06:44:22.916Z</time></trkpt><trkpt lat="45.6197088" lon="12.5100704"><ele>3.0</ele><time>2026-03-29T06:44:23.928Z</time></trkpt><trkpt lat="45.619713" lon="12.5103208"><ele>3.0</ele><time>2026-03-29T06:44:24.931Z</time></trkpt><trkpt lat="45.6197268" lon="12.5105776"><ele>3.0</ele><time>2026-03-29T06:44:25.922Z</time></trkpt><trkpt lat="45.6197458" lon="12.510838"><ele>2.0</ele><time>2026-03-29T06:44:26.934Z</time></trkpt><trkpt lat="45.619767" lon="12.5110956"><ele>1.0</ele><time>2026-03-29T06:44:27.909Z</time></trkpt><trkpt lat="45.6197892" lon="12.5113468"><ele>0.0</ele><time>2026-03-29T06:44:28.927Z</time></trkpt><trkpt lat="45.6198101" lon="12.5115963"><ele>0.0</ele><time>2026-03-29T06:44:29.902Z</time></trkpt><trkpt lat="45.6198297" lon="12.5118475"><ele>0.0</ele><time>2026-03-29T06:44:30.911Z</time></trkpt><trkpt lat="45.6198478" lon="12.5121017"><ele>0.0</ele><time>2026-03-29T06:44:31.921Z</time></trkpt><trkpt lat="45.6198726" lon="12.5123566"><ele>-0.3333333333333333</ele><time>2026-03-29T06:44:32.903Z</time></trkpt><trkpt lat="45.6198926" lon="12.5126162"><ele>-0.6666666666666666</ele><time>2026-03-29T06:44:33.92Z</time></trkpt><trkpt lat="45.6199056" lon="12.5128821"><ele>-1.0</ele><time>2026-03-29T06:44:34.9Z</time></trkpt><trkpt lat="45.6199323" lon="12.5131495"><ele>-1.0</ele><time>2026-03-29T06:44:35.906Z</time></trkpt><trkpt lat="45.6199525" lon="12.513426"><ele>-1.0</ele><time>2026-03-29T06:44:36.91Z</time></trkpt><trkpt lat="45.6199764" lon="12.5137096"><ele>-1.0</ele><time>2026-03-29T06:44:37.921Z</time></trkpt><trkpt lat="45.620001" lon="12.5139994"><ele>-1.0</ele><time>2026-03-29T06:44:38.917Z</time></trkpt><trkpt lat="45.6200246" lon="12.5142908"><ele>-1.0</ele><time>2026-03-29T06:44:39.926Z</time></trkpt><trkpt lat="45.6200462" lon="12.5145825"><ele>-1.0</ele><time>2026-03-29T06:44:40.937Z</time></trkpt><trkpt lat="45.6200683" lon="12.5148745"><ele>-1.3333333333333333</ele><time>2026-03-29T06:44:41.93Z</time></trkpt><trkpt lat="45.6200896" lon="12.5151688"><ele>-1.6666666666666665</ele><time>2026-03-29T06:44:42.91Z</time></trkpt><trkpt lat="45.6201115" lon="12.5154665"><ele>-2.0</ele><time>2026-03-29T06:44:43.916Z</time></trkpt><trkpt lat="45.6201355" lon="12.5157686"><ele>-2.0</ele><time>2026-03-29T06:44:44.912Z</time></trkpt><trkpt lat="45.6201596" lon="12.5160751"><ele>-2.0</ele><time>2026-03-29T06:44:45.936Z</time></trkpt><trkpt lat="45.620184" lon="12.5163832"><ele>-2.0</ele><time>2026-03-29T06:44:46.907Z</time></trkpt><trkpt lat="45.6202086" lon="12.5166918"><ele>-1.6666666666666665</ele><time>2026-03-29T06:44:47.937Z</time></trkpt><trkpt lat="45.6202342" lon="12.5170006"><ele>-1.3333333333333333</ele><time>2026-03-29T06:44:48.895Z</time></trkpt><trkpt lat="45.6202592" lon="12.5173101"><ele>-1.0</ele><time>2026-03-29T06:44:49.916Z</time></trkpt><trkpt lat="45.6202849" lon="12.5176207"><ele>-1.0</ele><time>2026-03-29T06:44:50.921Z</time></trkpt><trkpt lat="45.6203052" lon="12.5179348"><ele>-1.0</ele><time>2026-03-29T06:44:51.921Z</time></trkpt><trkpt lat="45.620329" lon="12.51825"><ele>-1.0</ele><time>2026-03-29T06:44:52.908Z</time></trkpt><trkpt lat="45.6203559" lon="12.5185654"><ele>-1.0</ele><time>2026-03-29T06:44:53.92Z</time></trkpt><trkpt lat="45.6203913" lon="12.5188797"><ele>-1.0</ele><time>2026-03-29T06:44:54.95Z</time></trkpt><trkpt lat="45.6204201" lon="12.5191958"><ele>-1.0</ele><time>2026-03-29T06:44:55.914Z</time></trkpt><trkpt lat="45.6204368" lon="12.5195144"><ele>-1.0</ele><time>2026-03-29T06:44:56.916Z</time></trkpt><trkpt lat="45.62046" lon="12.5198321"><ele>-1.0</ele><time>2026-03-29T06:44:57.913Z</time></trkpt><trkpt lat="45.6204882" lon="12.5201476"><ele>-1.0</ele><time>2026-03-29T06:44:58.912Z</time></trkpt><trkpt lat="45.6205184" lon="12.5204615"><ele>-0.6666666666666666</ele><time>2026-03-29T06:44:59.926Z</time></trkpt><trkpt lat="45.6205353" lon="12.5207733"><ele>-0.3333333333333333</ele><time>2026-03-29T06:45:00.914Z</time></trkpt><trkpt lat="45.6205582" lon="12.5210779"><ele>0.0</ele><time>2026-03-29T06:45:01.977Z</time></trkpt><trkpt lat="45.6205819" lon="12.5213724"><ele>0.0</ele><time>2026-03-29T06:45:02.909Z</time></trkpt><trkpt lat="45.6206047" lon="12.521651"><ele>0.0</ele><time>2026-03-29T06:45:03.929Z</time></trkpt><trkpt lat="45.6206243" lon="12.5219151"><ele>0.0</ele><time>2026-03-29T06:45:04.906Z</time></trkpt><trkpt lat="45.6206428" lon="12.5221686"><ele>0.3333333333333333</ele><time>2026-03-29T06:45:05.911Z</time></trkpt><trkpt lat="45.6206598" lon="12.5224161"><ele>0.6666666666666666</ele><time>2026-03-29T06:45:06.912Z</time></trkpt><trkpt lat="45.6206764" lon="12.5226606"><ele>1.0</ele><time>2026-03-29T06:45:07.929Z</time></trkpt><trkpt lat="45.62069" lon="12.5229036"><ele>1.0</ele><time>2026-03-29T06:45:08.901Z</time></trkpt><trkpt lat="45.6207112" lon="12.5231446"><ele>1.0</ele><time>2026-03-29T06:45:09.911Z</time></trkpt><trkpt lat="45.620724" lon="12.5233891"><ele>1.0</ele><time>2026-03-29T06:45:10.928Z</time></trkpt><trkpt lat="45.6207402" lon="12.5236348"><ele>0.6666666666666666</ele><time>2026-03-29T06:45:11.918Z</time></trkpt><trkpt lat="45.6207562" lon="12.5238814"><ele>0.3333333333333333</ele><time>2026-03-29T06:45:12.916Z</time></trkpt><trkpt lat="45.6207728" lon="12.5241294"><ele>0.0</ele><time>2026-03-29T06:45:13.928Z</time></trkpt><trkpt lat="45.6207883" lon="12.5243792"><ele>0.0</ele><time>2026-03-29T06:45:14.94Z</time></trkpt><trkpt lat="45.620803" lon="12.5246311"><ele>0.0</ele><time>2026-03-29T06:45:15.922Z</time></trkpt><trkpt lat="45.6208198" lon="12.5248826"><ele>0.0</ele><time>2026-03-29T06:45:16.926Z</time></trkpt><trkpt lat="45.6208409" lon="12.5251325"><ele>0.0</ele><time>2026-03-29T06:45:17.923Z</time></trkpt><trkpt lat="45.6208586" lon="12.5253833"><ele>0.0</ele><time>2026-03-29T06:45:18.908Z</time></trkpt><trkpt lat="45.6208739" lon="12.5256343"><ele>0.0</ele><time>2026-03-29T06:45:19.915Z</time></trkpt><trkpt lat="45.6208918" lon="12.525886"><ele>0.3333333333333333</ele><time>2026-03-29T06:45:20.915Z</time></trkpt><trkpt lat="45.6209077" lon="12.5261388"><ele>0.6666666666666666</ele><time>2026-03-29T06:45:21.914Z</time></trkpt><trkpt lat="45.6209231" lon="12.5263926"><ele>1.0</ele><time>2026-03-29T06:45:22.911Z</time></trkpt><trkpt lat="45.62094" lon="12.5266472"><ele>1.0</ele><time>2026-03-29T06:45:23.92Z</time></trkpt><trkpt lat="45.6209675" lon="12.5269019"><ele>1.0</ele><time>2026-03-29T06:45:24.907Z</time></trkpt><trkpt lat="45.6209801" lon="12.5271581"><ele>1.0</ele><time>2026-03-29T06:45:25.912Z</time></trkpt><trkpt lat="45.6210086" lon="12.5274129"><ele>1.0</ele><time>2026-03-29T06:45:26.912Z</time></trkpt><trkpt lat="45.6210385" lon="12.5276663"><ele>1.0</ele><time>2026-03-29T06:45:27.926Z</time></trkpt><trkpt lat="45.6210584" lon="12.5279214"><ele>1.0</ele><time>2026-03-29T06:45:28.923Z</time></trkpt><trkpt lat="45.6210744" lon="12.5281772"><ele>0.6666666666666666</ele><time>2026-03-29T06:45:29.929Z</time></trkpt><trkpt lat="45.6210905" lon="12.5284336"><ele>0.3333333333333333</ele><time>2026-03-29T06:45:30.928Z</time></trkpt><trkpt lat="45.621107" lon="12.5286906"><ele>0.0</ele><time>2026-03-29T06:45:31.929Z</time></trkpt><trkpt lat="45.6211224" lon="12.5289478"><ele>0.0</ele><time>2026-03-29T06:45:32.9Z</time></trkpt><trkpt lat="45.621137" lon="12.5292052"><ele>0.0</ele><time>2026-03-29T06:45:33.915Z</time></trkpt><trkpt lat="45.621152" lon="12.5294626"><ele>0.0</ele><time>2026-03-29T06:45:34.914Z</time></trkpt><trkpt lat="45.6211673" lon="12.5297199"><ele>0.0</ele><time>2026-03-29T06:45:35.941Z</time></trkpt><trkpt lat="45.6211837" lon="12.529977"><ele>0.0</ele><time>2026-03-29T06:45:36.916Z</time></trkpt><trkpt lat="45.6211993" lon="12.530234"><ele>0.0</ele><time>2026-03-29T06:45:37.908Z</time></trkpt><trkpt lat="45.6212175" lon="12.5304904"><ele>0.0</ele><time>2026-03-29T06:45:38.911Z</time></trkpt><trkpt lat="45.6212354" lon="12.5307465"><ele>0.0</ele><time>2026-03-29T06:45:39.91Z</time></trkpt><trkpt lat="45.621252" lon="12.5310022"><ele>0.0</ele><time>2026-03-29T06:45:40.912Z</time></trkpt><trkpt lat="45.6212672" lon="12.5312577"><ele>0.0</ele><time>2026-03-29T06:45:41.925Z</time></trkpt><trkpt lat="45.6212825" lon="12.5315126"><ele>0.0</ele><time>2026-03-29T06:45:42.918Z</time></trkpt><trkpt lat="45.6212985" lon="12.5317668"><ele>0.0</ele><time>2026-03-29T06:45:43.92Z</time></trkpt><trkpt lat="45.6213136" lon="12.5320201"><ele>-0.3333333333333333</ele><time>2026-03-29T06:45:44.93Z</time></trkpt><trkpt lat="45.6213273" lon="12.5322723"><ele>-0.6666666666666666</ele><time>2026-03-29T06:45:45.941Z</time></trkpt><trkpt lat="45.6213409" lon="12.5325228"><ele>-1.0</ele><time>2026-03-29T06:45:46.91Z</time></trkpt><trkpt lat="45.6213544" lon="12.5327728"><ele>-0.6666666666666666</ele><time>2026-03-29T06:45:47.923Z</time></trkpt><trkpt lat="45.6213548" lon="12.5330238"><ele>-0.3333333333333333</ele><time>2026-03-29T06:45:48.912Z</time></trkpt><trkpt lat="45.6213686" lon="12.5332716"><ele>0.0</ele><time>2026-03-29T06:45:49.928Z</time></trkpt><trkpt lat="45.6213863" lon="12.5335184"><ele>-0.3333333333333333</ele><time>2026-03-29T06:45:50.937Z</time></trkpt><trkpt lat="45.6214037" lon="12.5337653"><ele>-0.6666666666666666</ele><time>2026-03-29T06:45:51.919Z</time></trkpt><trkpt lat="45.6214181" lon="12.5340122"><ele>-1.0</ele><time>2026-03-29T06:45:52.912Z</time></trkpt><trkpt lat="45.6214307" lon="12.534259"><ele>-1.0</ele><time>2026-03-29T06:45:53.919Z</time></trkpt><trkpt lat="45.6214455" lon="12.5345065"><ele>-1.0</ele><time>2026-03-29T06:45:54.909Z</time></trkpt><trkpt lat="45.6214576" lon="12.5347544"><ele>-1.0</ele><time>2026-03-29T06:45:55.926Z</time></trkpt><trkpt lat="45.6214728" lon="12.5350028"><ele>-1.6666666666666665</ele><time>2026-03-29T06:45:56.91Z</time></trkpt><trkpt lat="45.621489" lon="12.5352522"><ele>-2.3333333333333335</ele><time>2026-03-29T06:45:57.93Z</time></trkpt><trkpt lat="45.6215046" lon="12.5355023"><ele>-3.0</ele><time>2026-03-29T06:45:58.929Z</time></trkpt><trkpt lat="45.6215197" lon="12.5357529"><ele>-3.333333333333333</ele><time>2026-03-29T06:45:59.92Z</time></trkpt><trkpt lat="45.6215344" lon="12.5360039"><ele>-3.6666666666666665</ele><time>2026-03-29T06:46:00.939Z</time></trkpt><trkpt lat="45.6215512" lon="12.5362555"><ele>-4.0</ele><time>2026-03-29T06:46:01.913Z</time></trkpt><trkpt lat="45.6215689" lon="12.536508"><ele>-3.0</ele><time>2026-03-29T06:46:02.916Z</time></trkpt><trkpt lat="45.6215854" lon="12.5367612"><ele>-2.0</ele><time>2026-03-29T06:46:03.909Z</time></trkpt><trkpt lat="45.6215994" lon="12.5370147"><ele>-1.0</ele><time>2026-03-29T06:46:04.918Z</time></trkpt><trkpt lat="45.621612" lon="12.5372681"><ele>-1.0</ele><time>2026-03-29T06:46:05.905Z</time></trkpt><trkpt lat="45.6216305" lon="12.5375207"><ele>-1.0</ele><time>2026-03-29T06:46:06.904Z</time></trkpt><trkpt lat="45.6216478" lon="12.5377721"><ele>-1.0</ele><time>2026-03-29T06:46:07.919Z</time></trkpt><trkpt lat="45.6216657" lon="12.5380229"><ele>-1.0</ele><time>2026-03-29T06:46:08.905Z</time></trkpt><trkpt lat="45.6216847" lon="12.5382732"><ele>-1.0</ele><time>2026-03-29T06:46:09.915Z</time></trkpt><trkpt lat="45.6216986" lon="12.5385231"><ele>-1.0</ele><time>2026-03-29T06:46:10.918Z</time></trkpt><trkpt lat="45.6217133" lon="12.538772"><ele>-1.0</ele><time>2026-03-29T06:46:11.943Z</time></trkpt><trkpt lat="45.6217282" lon="12.5390191"><ele>-1.0</ele><time>2026-03-29T06:46:12.912Z</time></trkpt><trkpt lat="45.6217428" lon="12.5392654"><ele>-1.0</ele><time>2026-03-29T06:46:13.917Z</time></trkpt><trkpt lat="45.621756" lon="12.5395117"><ele>-0.3333333333333333</ele><time>2026-03-29T06:46:14.91Z</time></trkpt><trkpt lat="45.6217699" lon="12.539758"><ele>0.3333333333333333</ele><time>2026-03-29T06:46:15.922Z</time></trkpt><trkpt lat="45.6217824" lon="12.5400055"><ele>1.0</ele><time>2026-03-29T06:46:16.905Z</time></trkpt><trkpt lat="45.6217922" lon="12.5402559"><ele>1.3333333333333333</ele><time>2026-03-29T06:46:17.911Z</time></trkpt><trkpt lat="45.6218101" lon="12.5405077"><ele>1.6666666666666665</ele><time>2026-03-29T06:46:18.914Z</time></trkpt><trkpt lat="45.6218316" lon="12.5407695"><ele>2.0</ele><time>2026-03-29T06:46:19.917Z</time></trkpt><trkpt lat="45.6218488" lon="12.5410351"><ele>1.6666666666666665</ele><time>2026-03-29T06:46:20.911Z</time></trkpt><trkpt lat="45.6218645" lon="12.5412874"><ele>1.3333333333333333</ele><time>2026-03-29T06:46:21.917Z</time></trkpt><trkpt lat="45.6218718" lon="12.5415266"><ele>1.0</ele><time>2026-03-29T06:46:22.918Z</time></trkpt><trkpt lat="45.6218841" lon="12.5417622"><ele>1.0</ele><time>2026-03-29T06:46:23.914Z</time></trkpt><trkpt lat="45.6218838" lon="12.5419981"><ele>1.0</ele><time>2026-03-29T06:46:24.903Z</time></trkpt><trkpt lat="45.621902" lon="12.5422298"><ele>1.0</ele><time>2026-03-29T06:46:25.911Z</time></trkpt><trkpt lat="45.6219287" lon="12.5424629"><ele>1.0</ele><time>2026-03-29T06:46:26.919Z</time></trkpt><trkpt lat="45.6219403" lon="12.5427018"><ele>1.0</ele><time>2026-03-29T06:46:27.901Z</time></trkpt><trkpt lat="45.6219654" lon="12.5429415"><ele>1.0</ele><time>2026-03-29T06:46:28.914Z</time></trkpt><trkpt lat="45.6219827" lon="12.5431898"><ele>1.0</ele><time>2026-03-29T06:46:29.913Z</time></trkpt><trkpt lat="45.6219994" lon="12.5434464"><ele>1.0</ele><time>2026-03-29T06:46:30.906Z</time></trkpt><trkpt lat="45.6220012" lon="12.5437052"><ele>1.0</ele><time>2026-03-29T06:46:31.913Z</time></trkpt><trkpt lat="45.6220164" lon="12.5439629"><ele>2.0</ele><time>2026-03-29T06:46:32.914Z</time></trkpt><trkpt lat="45.6220353" lon="12.5442191"><ele>3.0</ele><time>2026-03-29T06:46:33.904Z</time></trkpt><trkpt lat="45.6220547" lon="12.5444764"><ele>4.0</ele><time>2026-03-29T06:46:34.919Z</time></trkpt><trkpt lat="45.62207" lon="12.5447227"><ele>4.333333333333333</ele><time>2026-03-29T06:46:35.897Z</time></trkpt><trkpt lat="45.6220869" lon="12.54497"><ele>4.666666666666667</ele><time>2026-03-29T06:46:36.9Z</time></trkpt><trkpt lat="45.6221033" lon="12.5452217"><ele>5.0</ele><time>2026-03-29T06:46:37.904Z</time></trkpt><trkpt lat="45.6221166" lon="12.5454812"><ele>4.333333333333334</ele><time>2026-03-29T06:46:38.902Z</time></trkpt><trkpt lat="45.6221274" lon="12.5457505"><ele>3.666666666666667</ele><time>2026-03-29T06:46:39.911Z</time></trkpt><trkpt lat="45.6221376" lon="12.546025"><ele>3.0</ele><time>2026-03-29T06:46:40.919Z</time></trkpt><trkpt lat="45.6221494" lon="12.5463122"><ele>2.6666666666666665</ele><time>2026-03-29T06:46:41.904Z</time></trkpt><trkpt lat="45.6221667" lon="12.5466031"><ele>2.333333333333333</ele><time>2026-03-29T06:46:42.904Z</time></trkpt><trkpt lat="45.6221829" lon="12.5469036"><ele>2.0</ele><time>2026-03-29T06:46:43.922Z</time></trkpt><trkpt lat="45.6222008" lon="12.5472138"><ele>2.0</ele><time>2026-03-29T06:46:44.905Z</time></trkpt><trkpt lat="45.6222201" lon="12.5475423"><ele>2.0</ele><time>2026-03-29T06:46:45.905Z</time></trkpt><trkpt lat="45.6222453" lon="12.5478895"><ele>2.0</ele><time>2026-03-29T06:46:46.905Z</time></trkpt><trkpt lat="45.6222721" lon="12.5482439"><ele>2.0</ele><time>2026-03-29T06:46:47.914Z</time></trkpt><trkpt lat="45.6222961" lon="12.5486006"><ele>1.5</ele><time>2026-03-29T06:46:48.906Z</time></trkpt><trkpt lat="45.622318" lon="12.5489616"><ele>1.0</ele><time>2026-03-29T06:46:49.938Z</time></trkpt><trkpt lat="45.6223397" lon="12.5493035"><ele>0.5</ele><time>2026-03-29T06:46:50.922Z</time></trkpt><trkpt lat="45.6223595" lon="12.5496302"><ele>0.0</ele><time>2026-03-29T06:46:51.919Z</time></trkpt><trkpt lat="45.6223788" lon="12.549952"><ele>0.0</ele><time>2026-03-29T06:46:52.914Z</time></trkpt><trkpt lat="45.6223968" lon="12.5502652"><ele>0.0</ele><time>2026-03-29T06:46:53.912Z</time></trkpt><trkpt lat="45.6224158" lon="12.5505739"><ele>0.0</ele><time>2026-03-29T06:46:54.905Z</time></trkpt><trkpt lat="45.6224356" lon="12.5508855"><ele>0.0</ele><time>2026-03-29T06:46:55.914Z</time></trkpt><trkpt lat="45.6224587" lon="12.5511941"><ele>0.0</ele><time>2026-03-29T06:46:56.913Z</time></trkpt><trkpt lat="45.6224789" lon="12.5514985"><ele>0.0</ele><time>2026-03-29T06:46:57.907Z</time></trkpt><trkpt lat="45.6224919" lon="12.5517978"><ele>0.3333333333333333</ele><time>2026-03-29T06:46:58.903Z</time></trkpt><trkpt lat="45.6225044" lon="12.5520979"><ele>0.6666666666666666</ele><time>2026-03-29T06:46:59.91Z</time></trkpt><trkpt lat="45.6225178" lon="12.552393"><ele>1.0</ele><time>2026-03-29T06:47:00.926Z</time></trkpt><trkpt lat="45.6225294" lon="12.5526809"><ele>1.0</ele><time>2026-03-29T06:47:01.931Z</time></trkpt><trkpt lat="45.6225524" lon="12.5529492"><ele>1.0</ele><time>2026-03-29T06:47:02.928Z</time></trkpt><trkpt lat="45.6225521" lon="12.5531852"><ele>1.0</ele><time>2026-03-29T06:47:03.911Z</time></trkpt><trkpt lat="45.6225528" lon="12.5534014"><ele>1.0</ele><time>2026-03-29T06:47:04.926Z</time></trkpt><trkpt lat="45.6225332" lon="12.5536114"><ele>1.0</ele><time>2026-03-29T06:47:05.928Z</time></trkpt><trkpt lat="45.6225231" lon="12.5538284"><ele>1.0</ele><time>2026-03-29T06:47:06.919Z</time></trkpt><trkpt lat="45.6224994" lon="12.5540503"><ele>1.0</ele><time>2026-03-29T06:47:07.924Z</time></trkpt><trkpt lat="45.6224759" lon="12.5542757"><ele>1.0</ele><time>2026-03-29T06:47:08.905Z</time></trkpt><trkpt lat="45.6224739" lon="12.5545024"><ele>1.0</ele><time>2026-03-29T06:47:09.911Z</time></trkpt><trkpt lat="45.6224533" lon="12.5547226"><ele>1.0</ele><time>2026-03-29T06:47:10.912Z</time></trkpt><trkpt lat="45.6224493" lon="12.5549409"><ele>1.0</ele><time>2026-03-29T06:47:11.906Z</time></trkpt><trkpt lat="45.6224392" lon="12.5551722"><ele>1.0</ele><time>2026-03-29T06:47:12.927Z</time></trkpt><trkpt lat="45.6224224" lon="12.5554261"><ele>1.0</ele><time>2026-03-29T06:47:13.92Z</time></trkpt><trkpt lat="45.6223968" lon="12.5556856"><ele>1.0</ele><time>2026-03-29T06:47:14.942Z</time></trkpt><trkpt lat="45.6223737" lon="12.5559353"><ele>1.0</ele><time>2026-03-29T06:47:15.919Z</time></trkpt><trkpt lat="45.6223555" lon="12.5561759"><ele>1.5</ele><time>2026-03-29T06:47:16.928Z</time></trkpt><trkpt lat="45.6223449" lon="12.5564026"><ele>2.0</ele><time>2026-03-29T06:47:17.916Z</time></trkpt><trkpt lat="45.6223412" lon="12.5566025"><ele>2.5</ele><time>2026-03-29T06:47:18.917Z</time></trkpt><trkpt lat="45.6223403" lon="12.5567707"><ele>3.0</ele><time>2026-03-29T06:47:19.906Z</time></trkpt><trkpt lat="45.6223342" lon="12.5569149"><ele>3.2</ele><time>2026-03-29T06:47:20.907Z</time></trkpt><trkpt lat="45.6223091" lon="12.5570386"><ele>3.4</ele><time>2026-03-29T06:47:21.906Z</time></trkpt><trkpt lat="45.6222622" lon="12.5571424"><ele>3.6000000000000005</ele><time>2026-03-29T06:47:22.916Z</time></trkpt><trkpt lat="45.6222293" lon="12.5572631"><ele>3.8000000000000003</ele><time>2026-03-29T06:47:23.92Z</time></trkpt><trkpt lat="45.6222122" lon="12.5574087"><ele>4.0</ele><time>2026-03-29T06:47:24.907Z</time></trkpt><trkpt lat="45.6222132" lon="12.5575621"><ele>3.9999999999999996</ele><time>2026-03-29T06:47:25.901Z</time></trkpt><trkpt lat="45.6222595" lon="12.5576816"><ele>4.0</ele><time>2026-03-29T06:47:26.908Z</time></trkpt><trkpt lat="45.6223047" lon="12.5577883"><ele>4.0</ele><time>2026-03-29T06:47:27.902Z</time></trkpt><trkpt lat="45.6223562" lon="12.5578773"><ele>4.0</ele><time>2026-03-29T06:47:28.904Z</time></trkpt><trkpt lat="45.622399" lon="12.5579603"><ele>3.9999999999999996</ele><time>2026-03-29T06:47:29.896Z</time></trkpt><trkpt lat="45.6224283" lon="12.5580421"><ele>4.0</ele><time>2026-03-29T06:47:30.9Z</time></trkpt><trkpt lat="45.6224532" lon="12.5581734"><ele>3.9999999999999996</ele><time>2026-03-29T06:47:32.894Z</time></trkpt><trkpt lat="45.6225189" lon="12.5582595"><ele>4.0</ele><time>2026-03-29T06:48:35.887Z</time></trkpt><trkpt lat="45.6225442" lon="12.5583472"><ele>4.0</ele><time>2026-03-29T06:48:46.937Z</time></trkpt><trkpt lat="45.6225172" lon="12.5584366"><ele>4.0</ele><time>2026-03-29T06:49:28.924Z</time></trkpt><trkpt lat="45.6224859" lon="12.5583393"><ele>3.9999999999999996</ele><time>2026-03-29T07:05:18.908Z</time></trkpt><trkpt lat="45.6225348" lon="12.5584573"><ele>4.0</ele><time>2026-03-29T07:10:16.919Z</time></trkpt><trkpt lat="45.62257" lon="12.5585674"><ele>4.0</ele><time>2026-03-29T07:10:17.931Z</time></trkpt><trkpt lat="45.6226075" lon="12.5586913"><ele>4.0</ele><time>2026-03-29T07:10:18.919Z</time></trkpt><trkpt lat="45.6226424" lon="12.5588116"><ele>4.0</ele><time>2026-03-29T07:10:19.917Z</time></trkpt><trkpt lat="45.622676" lon="12.5589301"><ele>4.0</ele><time>2026-03-29T07:10:20.906Z</time></trkpt><trkpt lat="45.6227184" lon="12.5590551"><ele>4.0</ele><time>2026-03-29T07:10:21.91Z</time></trkpt><trkpt lat="45.6227629" lon="12.559189"><ele>4.0</ele><time>2026-03-29T07:10:22.916Z</time></trkpt><trkpt lat="45.6228094" lon="12.5593317"><ele>4.0</ele><time>2026-03-29T07:10:23.91Z</time></trkpt><trkpt lat="45.6228572" lon="12.559483"><ele>4.0</ele><time>2026-03-29T07:10:24.919Z</time></trkpt><trkpt lat="45.6229051" lon="12.5596467"><ele>4.0</ele><time>2026-03-29T07:10:25.92Z</time></trkpt><trkpt lat="45.6229544" lon="12.5598151"><ele>3.25</ele><time>2026-03-29T07:10:26.911Z</time></trkpt><trkpt lat="45.6230065" lon="12.5599881"><ele>2.5</ele><time>2026-03-29T07:10:27.909Z</time></trkpt><trkpt lat="45.6230605" lon="12.5601638"><ele>1.75</ele><time>2026-03-29T07:10:28.909Z</time></trkpt><trkpt lat="45.6231166" lon="12.5603493"><ele>1.0</ele><time>2026-03-29T07:10:29.921Z</time></trkpt><trkpt lat="45.6231788" lon="12.5605383"><ele>1.0</ele><time>2026-03-29T07:10:30.913Z</time></trkpt><trkpt lat="45.6232503" lon="12.5607279"><ele>1.0</ele><time>2026-03-29T07:10:31.91Z</time></trkpt><trkpt lat="45.6233306" lon="12.5609163"><ele>1.0</ele><time>2026-03-29T07:10:32.908Z</time></trkpt><trkpt lat="45.6234141" lon="12.561104"><ele>1.3333333333333333</ele><time>2026-03-29T07:10:33.927Z</time></trkpt><trkpt lat="45.6234851" lon="12.5613038"><ele>1.6666666666666665</ele><time>2026-03-29T07:10:34.91Z</time></trkpt><trkpt lat="45.6235611" lon="12.561494"><ele>2.0</ele><time>2026-03-29T07:10:35.912Z</time></trkpt><trkpt lat="45.6236341" lon="12.5616807"><ele>2.0</ele><time>2026-03-29T07:10:36.925Z</time></trkpt><trkpt lat="45.6236962" lon="12.5618683"><ele>2.0</ele><time>2026-03-29T07:10:37.917Z</time></trkpt><trkpt lat="45.6237772" lon="12.5620317"><ele>2.0</ele><time>2026-03-29T07:10:38.911Z</time></trkpt><trkpt lat="45.6238531" lon="12.5621939"><ele>2.0</ele><time>2026-03-29T07:10:39.912Z</time></trkpt><trkpt lat="45.6239382" lon="12.56234"><ele>2.75</ele><time>2026-03-29T07:10:40.905Z</time></trkpt><trkpt lat="45.6240287" lon="12.5624759"><ele>3.5</ele><time>2026-03-29T07:10:41.913Z</time></trkpt><trkpt lat="45.6241267" lon="12.562597"><ele>4.25</ele><time>2026-03-29T07:10:42.905Z</time></trkpt><trkpt lat="45.6242238" lon="12.562716"><ele>5.0</ele><time>2026-03-29T07:10:43.909Z</time></trkpt><trkpt lat="45.6243313" lon="12.5628047"><ele>5.0</ele><time>2026-03-29T07:10:44.91Z</time></trkpt><trkpt lat="45.624444" lon="12.562869"><ele>5.0</ele><time>2026-03-29T07:10:45.913Z</time></trkpt><trkpt lat="45.6245619" lon="12.5628991"><ele>5.0</ele><time>2026-03-29T07:10:46.912Z</time></trkpt><trkpt lat="45.6246817" lon="12.5629161"><ele>5.0</ele><time>2026-03-29T07:10:47.91Z</time></trkpt><trkpt lat="45.6248194" lon="12.5628983"><ele>4.75</ele><time>2026-03-29T07:10:48.918Z</time></trkpt><trkpt lat="45.6249516" lon="12.5628887"><ele>4.5</ele><time>2026-03-29T07:10:49.908Z</time></trkpt><trkpt lat="45.6250806" lon="12.5629048"><ele>4.25</ele><time>2026-03-29T07:10:50.911Z</time></trkpt><trkpt lat="45.6252084" lon="12.5629298"><ele>4.0</ele><time>2026-03-29T07:10:51.929Z</time></trkpt><trkpt lat="45.6253382" lon="12.5629494"><ele>3.5</ele><time>2026-03-29T07:10:52.899Z</time></trkpt><trkpt lat="45.6254676" lon="12.5629871"><ele>3.0</ele><time>2026-03-29T07:10:53.917Z</time></trkpt><trkpt lat="45.6256037" lon="12.5629936"><ele>2.5</ele><time>2026-03-29T07:10:54.897Z</time></trkpt><trkpt lat="45.6257359" lon="12.5630028"><ele>2.0</ele><time>2026-03-29T07:10:55.926Z</time></trkpt><trkpt lat="45.6258619" lon="12.5630186"><ele>2.0</ele><time>2026-03-29T07:10:56.931Z</time></trkpt><trkpt lat="45.6259839" lon="12.5630206"><ele>2.0</ele><time>2026-03-29T07:10:57.914Z</time></trkpt><trkpt lat="45.6260993" lon="12.5630423"><ele>2.0</ele><time>2026-03-29T07:10:58.917Z</time></trkpt><trkpt lat="45.6262142" lon="12.5630511"><ele>2.0</ele><time>2026-03-29T07:10:59.914Z</time></trkpt><trkpt lat="45.6263244" lon="12.5630781"><ele>3.333333333333333</ele><time>2026-03-29T07:11:00.913Z</time></trkpt><trkpt lat="45.6264263" lon="12.5630903"><ele>4.666666666666667</ele><time>2026-03-29T07:11:01.929Z</time></trkpt><trkpt lat="45.62652" lon="12.5631071"><ele>6.0</ele><time>2026-03-29T07:11:02.925Z</time></trkpt><trkpt lat="45.6265998" lon="12.5631161"><ele>7.333333333333334</ele><time>2026-03-29T07:11:03.907Z</time></trkpt><trkpt lat="45.6266759" lon="12.5631217"><ele>8.666666666666668</ele><time>2026-03-29T07:11:04.921Z</time></trkpt><trkpt lat="45.6267419" lon="12.5631533"><ele>10.0</ele><time>2026-03-29T07:11:05.911Z</time></trkpt><trkpt lat="45.6268006" lon="12.5631907"><ele>10.0</ele><time>2026-03-29T07:11:06.918Z</time></trkpt><trkpt lat="45.6269119" lon="12.5631743"><ele>10.0</ele><time>2026-03-29T07:11:08.91Z</time></trkpt><trkpt lat="45.626951" lon="12.5630865"><ele>10.0</ele><time>2026-03-29T07:11:10.928Z</time></trkpt><trkpt lat="45.6269677" lon="12.5629939"><ele>10.0</ele><time>2026-03-29T07:11:13.924Z</time></trkpt><trkpt lat="45.6270006" lon="12.5628413"><ele>10.0</ele><time>2026-03-29T07:11:15.902Z</time></trkpt><trkpt lat="45.6270453" lon="12.5627348"><ele>9.0</ele><time>2026-03-29T07:11:16.898Z</time></trkpt><trkpt lat="45.6271025" lon="12.5626174"><ele>8.0</ele><time>2026-03-29T07:11:17.905Z</time></trkpt><trkpt lat="45.6271792" lon="12.5624902"><ele>7.0</ele><time>2026-03-29T07:11:18.893Z</time></trkpt><trkpt lat="45.6272766" lon="12.562358"><ele>6.0</ele><time>2026-03-29T07:11:19.898Z</time></trkpt><trkpt lat="45.6273885" lon="12.5622183"><ele>6.0</ele><time>2026-03-29T07:11:20.91Z</time></trkpt><trkpt lat="45.627509" lon="12.5620643"><ele>6.0</ele><time>2026-03-29T07:11:21.903Z</time></trkpt><trkpt lat="45.6276371" lon="12.5619034"><ele>6.0</ele><time>2026-03-29T07:11:22.902Z</time></trkpt><trkpt lat="45.627767" lon="12.5617379"><ele>6.333333333333334</ele><time>2026-03-29T07:11:23.897Z</time></trkpt><trkpt lat="45.6278945" lon="12.561572"><ele>6.666666666666667</ele><time>2026-03-29T07:11:24.918Z</time></trkpt><trkpt lat="45.6280233" lon="12.5614116"><ele>7.0</ele><time>2026-03-29T07:11:25.903Z</time></trkpt><trkpt lat="45.628153" lon="12.5612545"><ele>6.0</ele><time>2026-03-29T07:11:26.898Z</time></trkpt><trkpt lat="45.6282815" lon="12.561098"><ele>5.0</ele><time>2026-03-29T07:11:27.908Z</time></trkpt><trkpt lat="45.6284199" lon="12.5609579"><ele>4.0</ele><time>2026-03-29T07:11:28.915Z</time></trkpt><trkpt lat="45.6285543" lon="12.5608101"><ele>4.0</ele><time>2026-03-29T07:11:29.915Z</time></trkpt><trkpt lat="45.6286896" lon="12.5606676"><ele>4.0</ele><time>2026-03-29T07:11:30.902Z</time></trkpt><trkpt lat="45.6288244" lon="12.5605255"><ele>4.0</ele><time>2026-03-29T07:11:31.904Z</time></trkpt><trkpt lat="45.6289599" lon="12.5603854"><ele>4.0</ele><time>2026-03-29T07:11:32.918Z</time></trkpt><trkpt lat="45.6290943" lon="12.5602458"><ele>4.0</ele><time>2026-03-29T07:11:33.904Z</time></trkpt><trkpt lat="45.6292281" lon="12.5601064"><ele>4.0</ele><time>2026-03-29T07:11:34.928Z</time></trkpt><trkpt lat="45.6293597" lon="12.5599653"><ele>4.0</ele><time>2026-03-29T07:11:35.908Z</time></trkpt><trkpt lat="45.6294923" lon="12.559823"><ele>4.0</ele><time>2026-03-29T07:11:36.904Z</time></trkpt><trkpt lat="45.6296207" lon="12.5596677"><ele>4.0</ele><time>2026-03-29T07:11:37.904Z</time></trkpt><trkpt lat="45.6297398" lon="12.5594905"><ele>4.333333333333333</ele><time>2026-03-29T07:11:38.901Z</time></trkpt><trkpt lat="45.6298485" lon="12.5592966"><ele>4.666666666666667</ele><time>2026-03-29T07:11:39.903Z</time></trkpt><trkpt lat="45.6299434" lon="12.5590879"><ele>5.0</ele><time>2026-03-29T07:11:40.917Z</time></trkpt><trkpt lat="45.6300311" lon="12.5588677"><ele>6.0</ele><time>2026-03-29T07:11:41.899Z</time></trkpt><trkpt lat="45.6301133" lon="12.5586451"><ele>7.0</ele><time>2026-03-29T07:11:42.905Z</time></trkpt><trkpt lat="45.6301959" lon="12.5584253"><ele>8.0</ele><time>2026-03-29T07:11:43.911Z</time></trkpt><trkpt lat="45.6302786" lon="12.5582092"><ele>8.0</ele><time>2026-03-29T07:11:44.902Z</time></trkpt><trkpt lat="45.6303565" lon="12.5579945"><ele>8.0</ele><time>2026-03-29T07:11:45.907Z</time></trkpt><trkpt lat="45.6304283" lon="12.5577744"><ele>8.0</ele><time>2026-03-29T07:11:46.911Z</time></trkpt><trkpt lat="45.6305067" lon="12.5575596"><ele>7.333333333333333</ele><time>2026-03-29T07:11:47.907Z</time></trkpt><trkpt lat="45.6305874" lon="12.5573467"><ele>6.666666666666666</ele><time>2026-03-29T07:11:48.916Z</time></trkpt><trkpt lat="45.6306688" lon="12.5571352"><ele>6.0</ele><time>2026-03-29T07:11:49.915Z</time></trkpt><trkpt lat="45.6307487" lon="12.5569253"><ele>5.0</ele><time>2026-03-29T07:11:50.91Z</time></trkpt><trkpt lat="45.6308297" lon="12.5567147"><ele>4.0</ele><time>2026-03-29T07:11:51.919Z</time></trkpt><trkpt lat="45.6309082" lon="12.5565047"><ele>3.0</ele><time>2026-03-29T07:11:52.904Z</time></trkpt><trkpt lat="45.6309876" lon="12.5562943"><ele>3.666666666666667</ele><time>2026-03-29T07:11:53.935Z</time></trkpt><trkpt lat="45.6310669" lon="12.5560835"><ele>4.333333333333334</ele><time>2026-03-29T07:11:54.909Z</time></trkpt><trkpt lat="45.6311465" lon="12.5558708"><ele>5.0</ele><time>2026-03-29T07:11:55.924Z</time></trkpt><trkpt lat="45.6312282" lon="12.5556558"><ele>5.0</ele><time>2026-03-29T07:11:56.9Z</time></trkpt><trkpt lat="45.6313095" lon="12.5554402"><ele>5.0</ele><time>2026-03-29T07:11:57.93Z</time></trkpt><trkpt lat="45.6313914" lon="12.555225"><ele>5.0</ele><time>2026-03-29T07:11:58.907Z</time></trkpt><trkpt lat="45.6314731" lon="12.5550078"><ele>4.333333333333334</ele><time>2026-03-29T07:11:59.911Z</time></trkpt><trkpt lat="45.6315555" lon="12.5547889"><ele>3.666666666666667</ele><time>2026-03-29T07:12:00.91Z</time></trkpt><trkpt lat="45.6316407" lon="12.5545742"><ele>3.0</ele><time>2026-03-29T07:12:01.922Z</time></trkpt><trkpt lat="45.6317243" lon="12.554357"><ele>3.0</ele><time>2026-03-29T07:12:02.914Z</time></trkpt><trkpt lat="45.6318005" lon="12.5541359"><ele>3.0</ele><time>2026-03-29T07:12:03.929Z</time></trkpt><trkpt lat="45.6318742" lon="12.5539097"><ele>3.0</ele><time>2026-03-29T07:12:04.916Z</time></trkpt><trkpt lat="45.6319376" lon="12.5536763"><ele>3.0</ele><time>2026-03-29T07:12:05.919Z</time></trkpt><trkpt lat="45.6319997" lon="12.5534428"><ele>3.0</ele><time>2026-03-29T07:12:06.913Z</time></trkpt><trkpt lat="45.6320644" lon="12.5532137"><ele>3.0</ele><time>2026-03-29T07:12:07.917Z</time></trkpt><trkpt lat="45.6321441" lon="12.5529954"><ele>2.6666666666666665</ele><time>2026-03-29T07:12:08.909Z</time></trkpt><trkpt lat="45.6322129" lon="12.5527724"><ele>2.333333333333333</ele><time>2026-03-29T07:12:09.926Z</time></trkpt><trkpt lat="45.6322783" lon="12.5525493"><ele>2.0</ele><time>2026-03-29T07:12:10.902Z</time></trkpt><trkpt lat="45.6323382" lon="12.5523254"><ele>2.0</ele><time>2026-03-29T07:12:11.92Z</time></trkpt><trkpt lat="45.632396" lon="12.5521018"><ele>2.0</ele><time>2026-03-29T07:12:12.917Z</time></trkpt><trkpt lat="45.6324504" lon="12.5518797"><ele>2.0</ele><time>2026-03-29T07:12:13.919Z</time></trkpt><trkpt lat="45.632503" lon="12.5516571"><ele>2.0</ele><time>2026-03-29T07:12:14.917Z</time></trkpt><trkpt lat="45.6325481" lon="12.5514269"><ele>2.0</ele><time>2026-03-29T07:12:15.913Z</time></trkpt><trkpt lat="45.6325985" lon="12.5511985"><ele>2.0</ele><time>2026-03-29T07:12:16.909Z</time></trkpt><trkpt lat="45.6326493" lon="12.5509677"><ele>2.6666666666666665</ele><time>2026-03-29T07:12:17.911Z</time></trkpt><trkpt lat="45.6326993" lon="12.5507307"><ele>3.333333333333333</ele><time>2026-03-29T07:12:18.914Z</time></trkpt><trkpt lat="45.6327409" lon="12.5504858"><ele>4.0</ele><time>2026-03-29T07:12:19.914Z</time></trkpt><trkpt lat="45.632774" lon="12.5502331"><ele>4.333333333333333</ele><time>2026-03-29T07:12:20.929Z</time></trkpt><trkpt lat="45.6328069" lon="12.5499724"><ele>4.666666666666667</ele><time>2026-03-29T07:12:21.939Z</time></trkpt><trkpt lat="45.6328379" lon="12.5497027"><ele>5.0</ele><time>2026-03-29T07:12:22.92Z</time></trkpt><trkpt lat="45.6328733" lon="12.5494279"><ele>5.333333333333334</ele><time>2026-03-29T07:12:23.915Z</time></trkpt><trkpt lat="45.6329117" lon="12.5491569"><ele>5.666666666666667</ele><time>2026-03-29T07:12:24.914Z</time></trkpt><trkpt lat="45.6329519" lon="12.5488935"><ele>6.0</ele><time>2026-03-29T07:12:25.917Z</time></trkpt><trkpt lat="45.6329868" lon="12.5486428"><ele>5.333333333333333</ele><time>2026-03-29T07:12:26.924Z</time></trkpt><trkpt lat="45.6330171" lon="12.5483969"><ele>4.666666666666666</ele><time>2026-03-29T07:12:27.926Z</time></trkpt><trkpt lat="45.6330424" lon="12.5481568"><ele>4.0</ele><time>2026-03-29T07:12:28.92Z</time></trkpt><trkpt lat="45.6330739" lon="12.5479255"><ele>4.0</ele><time>2026-03-29T07:12:29.945Z</time></trkpt><trkpt lat="45.6331189" lon="12.5477068"><ele>4.0</ele><time>2026-03-29T07:12:30.918Z</time></trkpt><trkpt lat="45.6331831" lon="12.5475101"><ele>4.0</ele><time>2026-03-29T07:12:31.929Z</time></trkpt><trkpt lat="45.6332588" lon="12.5473411"><ele>4.0</ele><time>2026-03-29T07:12:32.908Z</time></trkpt><trkpt lat="45.6333516" lon="12.5471965"><ele>4.0</ele><time>2026-03-29T07:12:33.907Z</time></trkpt><trkpt lat="45.6334521" lon="12.5470838"><ele>4.0</ele><time>2026-03-29T07:12:34.921Z</time></trkpt><trkpt lat="45.633561" lon="12.5469937"><ele>4.0</ele><time>2026-03-29T07:12:35.91Z</time></trkpt><trkpt lat="45.6336681" lon="12.5469081"><ele>3.25</ele><time>2026-03-29T07:12:36.926Z</time></trkpt><trkpt lat="45.6337746" lon="12.5468204"><ele>2.5</ele><time>2026-03-29T07:12:37.917Z</time></trkpt><trkpt lat="45.6338773" lon="12.5467414"><ele>1.75</ele><time>2026-03-29T07:12:38.903Z</time></trkpt><trkpt lat="45.6339587" lon="12.5466185"><ele>1.0</ele><time>2026-03-29T07:12:39.905Z</time></trkpt><trkpt lat="45.6340453" lon="12.5465194"><ele>1.0</ele><time>2026-03-29T07:12:40.908Z</time></trkpt><trkpt lat="45.6341524" lon="12.5464905"><ele>1.0</ele><time>2026-03-29T07:12:41.912Z</time></trkpt><trkpt lat="45.6342452" lon="12.5464476"><ele>1.0</ele><time>2026-03-29T07:12:42.92Z</time></trkpt><trkpt lat="45.6343293" lon="12.546408"><ele>1.0</ele><time>2026-03-29T07:12:43.911Z</time></trkpt><trkpt lat="45.6344023" lon="12.5463538"><ele>1.0</ele><time>2026-03-29T07:12:44.908Z</time></trkpt><trkpt lat="45.6344487" lon="12.5462686"><ele>0.8</ele><time>2026-03-29T07:12:45.923Z</time></trkpt><trkpt lat="45.6344569" lon="12.5461595"><ele>0.6000000000000001</ele><time>2026-03-29T07:12:46.9Z</time></trkpt><trkpt lat="45.6344489" lon="12.5460413"><ele>0.4</ele><time>2026-03-29T07:12:47.895Z</time></trkpt><trkpt lat="45.6344516" lon="12.5459049"><ele>0.2</ele><time>2026-03-29T07:12:48.897Z</time></trkpt><trkpt lat="45.6344875" lon="12.5457619"><ele>0.0</ele><time>2026-03-29T07:12:49.905Z</time></trkpt><trkpt lat="45.6345428" lon="12.5456114"><ele>0.0</ele><time>2026-03-29T07:12:50.9Z</time></trkpt><trkpt lat="45.6346095" lon="12.5454597"><ele>0.0</ele><time>2026-03-29T07:12:51.911Z</time></trkpt><trkpt lat="45.634689" lon="12.5453138"><ele>0.0</ele><time>2026-03-29T07:12:52.911Z</time></trkpt><trkpt lat="45.6347764" lon="12.5451721"><ele>0.0</ele><time>2026-03-29T07:12:53.901Z</time></trkpt><trkpt lat="45.6348714" lon="12.5450348"><ele>0.5</ele><time>2026-03-29T07:12:54.909Z</time></trkpt><trkpt lat="45.6349709" lon="12.5449"><ele>1.0</ele><time>2026-03-29T07:12:55.913Z</time></trkpt><trkpt lat="45.6350765" lon="12.5447728"><ele>1.5</ele><time>2026-03-29T07:12:56.906Z</time></trkpt><trkpt lat="45.6351843" lon="12.5446483"><ele>2.0</ele><time>2026-03-29T07:12:57.918Z</time></trkpt><trkpt lat="45.6352943" lon="12.5445201"><ele>2.5</ele><time>2026-03-29T07:12:58.927Z</time></trkpt><trkpt lat="45.6354092" lon="12.5444022"><ele>3.0</ele><time>2026-03-29T07:12:59.924Z</time></trkpt><trkpt lat="45.6355256" lon="12.5442833"><ele>3.5</ele><time>2026-03-29T07:13:00.926Z</time></trkpt><trkpt lat="45.6356397" lon="12.544153"><ele>4.0</ele><time>2026-03-29T07:13:01.908Z</time></trkpt><trkpt lat="45.6357573" lon="12.5440124"><ele>4.0</ele><time>2026-03-29T07:13:02.924Z</time></trkpt><trkpt lat="45.635878" lon="12.5438718"><ele>4.0</ele><time>2026-03-29T07:13:03.923Z</time></trkpt><trkpt lat="45.6360047" lon="12.5437303"><ele>4.0</ele><time>2026-03-29T07:13:04.924Z</time></trkpt><trkpt lat="45.6361343" lon="12.5435826"><ele>3.6666666666666665</ele><time>2026-03-29T07:13:05.929Z</time></trkpt><trkpt lat="45.636266" lon="12.543432"><ele>3.333333333333333</ele><time>2026-03-29T07:13:06.914Z</time></trkpt><trkpt lat="45.6364001" lon="12.5432805"><ele>3.0</ele><time>2026-03-29T07:13:07.921Z</time></trkpt><trkpt lat="45.6365367" lon="12.5431301"><ele>3.0</ele><time>2026-03-29T07:13:08.908Z</time></trkpt><trkpt lat="45.636672" lon="12.5429732"><ele>3.0</ele><time>2026-03-29T07:13:09.926Z</time></trkpt><trkpt lat="45.6368069" lon="12.5428152"><ele>3.0</ele><time>2026-03-29T07:13:10.93Z</time></trkpt><trkpt lat="45.6369389" lon="12.5426605"><ele>3.333333333333333</ele><time>2026-03-29T07:13:11.908Z</time></trkpt><trkpt lat="45.6370671" lon="12.5425119"><ele>3.6666666666666665</ele><time>2026-03-29T07:13:12.933Z</time></trkpt><trkpt lat="45.6371914" lon="12.5423684"><ele>4.0</ele><time>2026-03-29T07:13:13.921Z</time></trkpt><trkpt lat="45.6373178" lon="12.5422398"><ele>4.0</ele><time>2026-03-29T07:13:14.92Z</time></trkpt><trkpt lat="45.6374418" lon="12.5421301"><ele>4.0</ele><time>2026-03-29T07:13:15.909Z</time></trkpt><trkpt lat="45.6375531" lon="12.5420079"><ele>4.0</ele><time>2026-03-29T07:13:16.912Z</time></trkpt><trkpt lat="45.6376752" lon="12.5419183"><ele>4.0</ele><time>2026-03-29T07:13:17.927Z</time></trkpt><trkpt lat="45.6377899" lon="12.5418275"><ele>4.0</ele><time>2026-03-29T07:13:18.914Z</time></trkpt><trkpt lat="45.6379039" lon="12.541746"><ele>4.0</ele><time>2026-03-29T07:13:19.907Z</time></trkpt><trkpt lat="45.6380173" lon="12.5416841"><ele>4.0</ele><time>2026-03-29T07:13:20.911Z</time></trkpt><trkpt lat="45.6381325" lon="12.5416383"><ele>4.0</ele><time>2026-03-29T07:13:21.925Z</time></trkpt><trkpt lat="45.6382509" lon="12.5416004"><ele>4.0</ele><time>2026-03-29T07:13:22.91Z</time></trkpt><trkpt lat="45.6383727" lon="12.5415613"><ele>4.0</ele><time>2026-03-29T07:13:23.92Z</time></trkpt><trkpt lat="45.6385005" lon="12.5415236"><ele>4.0</ele><time>2026-03-29T07:13:24.921Z</time></trkpt><trkpt lat="45.6386342" lon="12.5415075"><ele>4.0</ele><time>2026-03-29T07:13:25.904Z</time></trkpt><trkpt lat="45.6387723" lon="12.5415043"><ele>3.5</ele><time>2026-03-29T07:13:26.924Z</time></trkpt><trkpt lat="45.6389155" lon="12.5414939"><ele>3.0</ele><time>2026-03-29T07:13:27.906Z</time></trkpt><trkpt lat="45.639063" lon="12.5415025"><ele>2.5</ele><time>2026-03-29T07:13:28.94Z</time></trkpt><trkpt lat="45.6392144" lon="12.5415132"><ele>2.0</ele><time>2026-03-29T07:13:29.904Z</time></trkpt><trkpt lat="45.639369" lon="12.5415356"><ele>2.0</ele><time>2026-03-29T07:13:30.904Z</time></trkpt><trkpt lat="45.6395261" lon="12.54156"><ele>2.0</ele><time>2026-03-29T07:13:31.921Z</time></trkpt><trkpt lat="45.6396854" lon="12.5415888"><ele>2.0</ele><time>2026-03-29T07:13:32.908Z</time></trkpt><trkpt lat="45.6398482" lon="12.5416109"><ele>2.0</ele><time>2026-03-29T07:13:33.915Z</time></trkpt><trkpt lat="45.6400172" lon="12.5416384"><ele>2.0</ele><time>2026-03-29T07:13:34.917Z</time></trkpt><trkpt lat="45.6401945" lon="12.5416519"><ele>2.0</ele><time>2026-03-29T07:13:35.919Z</time></trkpt><trkpt lat="45.6403716" lon="12.5416778"><ele>1.6666666666666665</ele><time>2026-03-29T07:13:36.917Z</time></trkpt><trkpt lat="45.640547" lon="12.5416982"><ele>1.3333333333333333</ele><time>2026-03-29T07:13:37.92Z</time></trkpt><trkpt lat="45.6407196" lon="12.5417154"><ele>1.0</ele><time>2026-03-29T07:13:38.909Z</time></trkpt><trkpt lat="45.640889" lon="12.5417321"><ele>1.0</ele><time>2026-03-29T07:13:39.908Z</time></trkpt><trkpt lat="45.6410559" lon="12.5417462"><ele>1.0</ele><time>2026-03-29T07:13:40.909Z</time></trkpt><trkpt lat="45.6412203" lon="12.5417615"><ele>1.0</ele><time>2026-03-29T07:13:41.917Z</time></trkpt><trkpt lat="45.6413836" lon="12.5417768"><ele>1.0</ele><time>2026-03-29T07:13:42.928Z</time></trkpt><trkpt lat="45.6415467" lon="12.5417943"><ele>1.0</ele><time>2026-03-29T07:13:43.909Z</time></trkpt><trkpt lat="45.6417089" lon="12.541819"><ele>1.0</ele><time>2026-03-29T07:13:44.94Z</time></trkpt><trkpt lat="45.6418716" lon="12.5418377"><ele>1.0</ele><time>2026-03-29T07:13:45.914Z</time></trkpt><trkpt lat="45.6420342" lon="12.5418555"><ele>1.0</ele><time>2026-03-29T07:13:46.903Z</time></trkpt><trkpt lat="45.6421968" lon="12.5418716"><ele>1.0</ele><time>2026-03-29T07:13:47.904Z</time></trkpt><trkpt lat="45.6423594" lon="12.5418923"><ele>1.0</ele><time>2026-03-29T07:13:48.906Z</time></trkpt><trkpt lat="45.6425223" lon="12.5419118"><ele>1.0</ele><time>2026-03-29T07:13:49.91Z</time></trkpt><trkpt lat="45.6426838" lon="12.5419314"><ele>1.0</ele><time>2026-03-29T07:13:50.91Z</time></trkpt><trkpt lat="45.6428435" lon="12.5419528"><ele>1.3333333333333333</ele><time>2026-03-29T07:13:51.923Z</time></trkpt><trkpt lat="45.6429979" lon="12.5420155"><ele>1.6666666666666665</ele><time>2026-03-29T07:13:52.915Z</time></trkpt><trkpt lat="45.6431541" lon="12.5420621"><ele>2.0</ele><time>2026-03-29T07:13:53.929Z</time></trkpt><trkpt lat="45.6433103" lon="12.5421283"><ele>2.0</ele><time>2026-03-29T07:13:54.919Z</time></trkpt><trkpt lat="45.6434661" lon="12.5422076"><ele>2.0</ele><time>2026-03-29T07:13:55.918Z</time></trkpt><trkpt lat="45.6436201" lon="12.5422957"><ele>2.0</ele><time>2026-03-29T07:13:56.906Z</time></trkpt><trkpt lat="45.6437751" lon="12.5423874"><ele>1.3333333333333333</ele><time>2026-03-29T07:13:57.909Z</time></trkpt><trkpt lat="45.6439215" lon="12.5425046"><ele>0.6666666666666666</ele><time>2026-03-29T07:13:58.924Z</time></trkpt><trkpt lat="45.6440594" lon="12.5426373"><ele>0.0</ele><time>2026-03-29T07:13:59.908Z</time></trkpt><trkpt lat="45.6441886" lon="12.5427848"><ele>0.3333333333333333</ele><time>2026-03-29T07:14:00.902Z</time></trkpt><trkpt lat="45.6443105" lon="12.5429429"><ele>0.6666666666666666</ele><time>2026-03-29T07:14:01.919Z</time></trkpt><trkpt lat="45.6444237" lon="12.5431128"><ele>1.0</ele><time>2026-03-29T07:14:02.907Z</time></trkpt><trkpt lat="45.644531" lon="12.54329"><ele>1.3333333333333333</ele><time>2026-03-29T07:14:03.923Z</time></trkpt><trkpt lat="45.6446406" lon="12.5434635"><ele>1.6666666666666665</ele><time>2026-03-29T07:14:04.932Z</time></trkpt><trkpt lat="45.6447454" lon="12.5436441"><ele>2.0</ele><time>2026-03-29T07:14:05.911Z</time></trkpt><trkpt lat="45.6448486" lon="12.5438287"><ele>2.0</ele><time>2026-03-29T07:14:06.915Z</time></trkpt><trkpt lat="45.6449493" lon="12.544019"><ele>2.0</ele><time>2026-03-29T07:14:07.914Z</time></trkpt><trkpt lat="45.6450526" lon="12.5442062"><ele>2.0</ele><time>2026-03-29T07:14:08.927Z</time></trkpt><trkpt lat="45.6451569" lon="12.5443913"><ele>2.0</ele><time>2026-03-29T07:14:09.934Z</time></trkpt><trkpt lat="45.6452687" lon="12.544569"><ele>2.0</ele><time>2026-03-29T07:14:10.929Z</time></trkpt><trkpt lat="45.6453754" lon="12.5447479"><ele>2.0</ele><time>2026-03-29T07:14:11.929Z</time></trkpt><trkpt lat="45.6454789" lon="12.5449206"><ele>2.0</ele><time>2026-03-29T07:14:12.93Z</time></trkpt><trkpt lat="45.6455787" lon="12.5450906"><ele>2.0</ele><time>2026-03-29T07:14:13.939Z</time></trkpt><trkpt lat="45.6456764" lon="12.5452588"><ele>2.0</ele><time>2026-03-29T07:14:14.914Z</time></trkpt><trkpt lat="45.645773" lon="12.5454258"><ele>2.0</ele><time>2026-03-29T07:14:15.912Z</time></trkpt><trkpt lat="45.6458694" lon="12.5455908"><ele>2.0</ele><time>2026-03-29T07:14:16.921Z</time></trkpt><trkpt lat="45.6459658" lon="12.5457536"><ele>2.0</ele><time>2026-03-29T07:14:17.911Z</time></trkpt><trkpt lat="45.6460615" lon="12.545914"><ele>2.0</ele><time>2026-03-29T07:14:18.912Z</time></trkpt><trkpt lat="45.6461542" lon="12.5460702"><ele>2.0</ele><time>2026-03-29T07:14:19.948Z</time></trkpt><trkpt lat="45.6462422" lon="12.5462241"><ele>2.0</ele><time>2026-03-29T07:14:20.918Z</time></trkpt><trkpt lat="45.646311" lon="12.5463942"><ele>2.0</ele><time>2026-03-29T07:14:21.923Z</time></trkpt><trkpt lat="45.6463854" lon="12.5465427"><ele>2.0</ele><time>2026-03-29T07:14:22.906Z</time></trkpt><trkpt lat="45.6464429" lon="12.5466916"><ele>2.0</ele><time>2026-03-29T07:14:23.907Z</time></trkpt><trkpt lat="45.6464689" lon="12.5468533"><ele>2.0</ele><time>2026-03-29T07:14:24.903Z</time></trkpt><trkpt lat="45.6464794" lon="12.5470137"><ele>2.0</ele><time>2026-03-29T07:14:25.903Z</time></trkpt><trkpt lat="45.6464789" lon="12.5471742"><ele>2.0</ele><time>2026-03-29T07:14:26.901Z</time></trkpt><trkpt lat="45.6464848" lon="12.5473328"><ele>2.2</ele><time>2026-03-29T07:14:27.923Z</time></trkpt><trkpt lat="45.6465101" lon="12.54748"><ele>2.4000000000000004</ele><time>2026-03-29T07:14:28.908Z</time></trkpt><trkpt lat="45.6465667" lon="12.547604"><ele>2.5999999999999996</ele><time>2026-03-29T07:14:29.912Z</time></trkpt><trkpt lat="45.6466199" lon="12.5477203"><ele>2.8</ele><time>2026-03-29T07:14:30.912Z</time></trkpt><trkpt lat="45.6467005" lon="12.5478052"><ele>3.0</ele><time>2026-03-29T07:14:31.91Z</time></trkpt><trkpt lat="45.6467963" lon="12.5478633"><ele>2.75</ele><time>2026-03-29T07:14:32.911Z</time></trkpt><trkpt lat="45.6468968" lon="12.5479097"><ele>2.5</ele><time>2026-03-29T07:14:33.91Z</time></trkpt><trkpt lat="45.6470017" lon="12.5479575"><ele>2.25</ele><time>2026-03-29T07:14:34.932Z</time></trkpt><trkpt lat="45.6471049" lon="12.5480354"><ele>2.0</ele><time>2026-03-29T07:14:35.913Z</time></trkpt><trkpt lat="45.6472055" lon="12.5481368"><ele>2.0</ele><time>2026-03-29T07:14:36.918Z</time></trkpt><trkpt lat="45.6473049" lon="12.548256"><ele>2.0</ele><time>2026-03-29T07:14:37.922Z</time></trkpt><trkpt lat="45.6474091" lon="12.5483911"><ele>2.0</ele><time>2026-03-29T07:14:38.905Z</time></trkpt><trkpt lat="45.6475038" lon="12.5485429"><ele>2.0</ele><time>2026-03-29T07:14:39.918Z</time></trkpt><trkpt lat="45.6475962" lon="12.5487076"><ele>1.6666666666666665</ele><time>2026-03-29T07:14:40.914Z</time></trkpt><trkpt lat="45.6476871" lon="12.5488819"><ele>1.3333333333333333</ele><time>2026-03-29T07:14:41.917Z</time></trkpt><trkpt lat="45.6477848" lon="12.5490544"><ele>1.0</ele><time>2026-03-29T07:14:42.908Z</time></trkpt><trkpt lat="45.6478722" lon="12.5492477"><ele>1.0</ele><time>2026-03-29T07:14:43.903Z</time></trkpt><trkpt lat="45.6479518" lon="12.5494572"><ele>1.0</ele><time>2026-03-29T07:14:44.9Z</time></trkpt><trkpt lat="45.6480219" lon="12.5496806"><ele>1.0</ele><time>2026-03-29T07:14:45.906Z</time></trkpt><trkpt lat="45.6480829" lon="12.5499128"><ele>1.3333333333333333</ele><time>2026-03-29T07:14:46.907Z</time></trkpt><trkpt lat="45.6481317" lon="12.5501521"><ele>1.6666666666666665</ele><time>2026-03-29T07:14:47.907Z</time></trkpt><trkpt lat="45.6481716" lon="12.550394"><ele>2.0</ele><time>2026-03-29T07:14:48.902Z</time></trkpt><trkpt lat="45.6482048" lon="12.5506367"><ele>2.0</ele><time>2026-03-29T07:14:49.924Z</time></trkpt><trkpt lat="45.6482321" lon="12.5508795"><ele>2.0</ele><time>2026-03-29T07:14:50.912Z</time></trkpt><trkpt lat="45.6482591" lon="12.5511203"><ele>2.0</ele><time>2026-03-29T07:14:51.91Z</time></trkpt><trkpt lat="45.6482889" lon="12.5513585"><ele>1.6666666666666665</ele><time>2026-03-29T07:14:52.917Z</time></trkpt><trkpt lat="45.6483128" lon="12.551595"><ele>1.3333333333333333</ele><time>2026-03-29T07:14:53.931Z</time></trkpt><trkpt lat="45.6483352" lon="12.5518279"><ele>1.0</ele><time>2026-03-29T07:14:54.914Z</time></trkpt><trkpt lat="45.6483649" lon="12.5520527"><ele>1.0</ele><time>2026-03-29T07:14:55.922Z</time></trkpt><trkpt lat="45.6483919" lon="12.5522754"><ele>1.0</ele><time>2026-03-29T07:14:56.906Z</time></trkpt><trkpt lat="45.6484224" lon="12.5524962"><ele>1.0</ele><time>2026-03-29T07:14:57.907Z</time></trkpt><trkpt lat="45.6484533" lon="12.5527194"><ele>1.0</ele><time>2026-03-29T07:14:58.909Z</time></trkpt><trkpt lat="45.6484867" lon="12.5529459"><ele>1.0</ele><time>2026-03-29T07:14:59.913Z</time></trkpt><trkpt lat="45.6485181" lon="12.5531772"><ele>1.0</ele><time>2026-03-29T07:15:00.9Z</time></trkpt><trkpt lat="45.6485503" lon="12.553412"><ele>1.0</ele><time>2026-03-29T07:15:01.902Z</time></trkpt><trkpt lat="45.6485801" lon="12.5536511"><ele>1.0</ele><time>2026-03-29T07:15:02.897Z</time></trkpt><trkpt lat="45.6486107" lon="12.5538928"><ele>1.0</ele><time>2026-03-29T07:15:03.908Z</time></trkpt><trkpt lat="45.6486388" lon="12.5541378"><ele>0.6666666666666666</ele><time>2026-03-29T07:15:04.897Z</time></trkpt><trkpt lat="45.6486682" lon="12.5543835"><ele>0.3333333333333333</ele><time>2026-03-29T07:15:05.907Z</time></trkpt><trkpt lat="45.6486963" lon="12.5546295"><ele>0.0</ele><time>2026-03-29T07:15:06.917Z</time></trkpt><trkpt lat="45.6487324" lon="12.5548729"><ele>0.0</ele><time>2026-03-29T07:15:07.91Z</time></trkpt><trkpt lat="45.6487599" lon="12.5551192"><ele>0.0</ele><time>2026-03-29T07:15:08.907Z</time></trkpt><trkpt lat="45.6487905" lon="12.5553648"><ele>0.0</ele><time>2026-03-29T07:15:09.921Z</time></trkpt><trkpt lat="45.6488244" lon="12.5556087"><ele>-0.3333333333333333</ele><time>2026-03-29T07:15:10.912Z</time></trkpt><trkpt lat="45.648851" lon="12.5558539"><ele>-0.6666666666666666</ele><time>2026-03-29T07:15:11.921Z</time></trkpt><trkpt lat="45.6488827" lon="12.556097"><ele>-1.0</ele><time>2026-03-29T07:15:12.912Z</time></trkpt><trkpt lat="45.6489189" lon="12.5563366"><ele>-1.0</ele><time>2026-03-29T07:15:13.929Z</time></trkpt><trkpt lat="45.6489501" lon="12.5565725"><ele>-1.0</ele><time>2026-03-29T07:15:14.9Z</time></trkpt><trkpt lat="45.6489794" lon="12.5568026"><ele>-1.0</ele><time>2026-03-29T07:15:15.934Z</time></trkpt><trkpt lat="45.6490096" lon="12.5570251"><ele>-1.0</ele><time>2026-03-29T07:15:16.929Z</time></trkpt><trkpt lat="45.6490381" lon="12.5572437"><ele>-1.0</ele><time>2026-03-29T07:15:17.947Z</time></trkpt><trkpt lat="45.6490664" lon="12.5574602"><ele>-1.0</ele><time>2026-03-29T07:15:18.929Z</time></trkpt><trkpt lat="45.6490908" lon="12.5576755"><ele>-0.6666666666666666</ele><time>2026-03-29T07:15:19.915Z</time></trkpt><trkpt lat="45.649129" lon="12.5578828"><ele>-0.3333333333333333</ele><time>2026-03-29T07:15:20.919Z</time></trkpt><trkpt lat="45.6491671" lon="12.5580912"><ele>0.0</ele><time>2026-03-29T07:15:21.912Z</time></trkpt><trkpt lat="45.6492277" lon="12.5582872"><ele>0.0</ele><time>2026-03-29T07:15:22.928Z</time></trkpt><trkpt lat="45.6493015" lon="12.5584737"><ele>0.0</ele><time>2026-03-29T07:15:23.907Z</time></trkpt><trkpt lat="45.6493847" lon="12.5586552"><ele>0.0</ele><time>2026-03-29T07:15:24.915Z</time></trkpt><trkpt lat="45.649478" lon="12.5588311"><ele>0.0</ele><time>2026-03-29T07:15:25.938Z</time></trkpt><trkpt lat="45.6495687" lon="12.5590143"><ele>0.0</ele><time>2026-03-29T07:15:26.907Z</time></trkpt><trkpt lat="45.6496588" lon="12.5591985"><ele>0.0</ele><time>2026-03-29T07:15:27.92Z</time></trkpt><trkpt lat="45.6497425" lon="12.559386"><ele>0.0</ele><time>2026-03-29T07:15:28.93Z</time></trkpt><trkpt lat="45.6498333" lon="12.5595608"><ele>0.0</ele><time>2026-03-29T07:15:29.9Z</time></trkpt><trkpt lat="45.6499215" lon="12.5597334"><ele>0.0</ele><time>2026-03-29T07:15:30.913Z</time></trkpt><trkpt lat="45.6500096" lon="12.559905"><ele>0.0</ele><time>2026-03-29T07:15:31.91Z</time></trkpt><trkpt lat="45.6500964" lon="12.5600754"><ele>0.0</ele><time>2026-03-29T07:15:32.916Z</time></trkpt><trkpt lat="45.6501811" lon="12.5602453"><ele>0.0</ele><time>2026-03-29T07:15:33.909Z</time></trkpt><trkpt lat="45.6502566" lon="12.5604222"><ele>0.0</ele><time>2026-03-29T07:15:34.924Z</time></trkpt><trkpt lat="45.6503382" lon="12.5605929"><ele>-0.25</ele><time>2026-03-29T07:15:35.912Z</time></trkpt><trkpt lat="45.6504248" lon="12.5607583"><ele>-0.5</ele><time>2026-03-29T07:15:36.932Z</time></trkpt><trkpt lat="45.6504981" lon="12.5609352"><ele>-0.75</ele><time>2026-03-29T07:15:37.925Z</time></trkpt><trkpt lat="45.6505773" lon="12.5611034"><ele>-1.0</ele><time>2026-03-29T07:15:38.915Z</time></trkpt><trkpt lat="45.6506609" lon="12.5612665"><ele>-1.0</ele><time>2026-03-29T07:15:39.907Z</time></trkpt><trkpt lat="45.6507393" lon="12.5614366"><ele>-1.0</ele><time>2026-03-29T07:15:40.926Z</time></trkpt><trkpt lat="45.6508176" lon="12.5616085"><ele>-1.0</ele><time>2026-03-29T07:15:41.919Z</time></trkpt><trkpt lat="45.650903" lon="12.5617794"><ele>-1.0</ele><time>2026-03-29T07:15:42.91Z</time></trkpt><trkpt lat="45.6509874" lon="12.5619565"><ele>-1.0</ele><time>2026-03-29T07:15:43.918Z</time></trkpt><trkpt lat="45.6510719" lon="12.5621387"><ele>-1.0</ele><time>2026-03-29T07:15:44.911Z</time></trkpt><trkpt lat="45.6511598" lon="12.5623218"><ele>-1.0</ele><time>2026-03-29T07:15:45.915Z</time></trkpt><trkpt lat="45.6512424" lon="12.5625083"><ele>-1.0</ele><time>2026-03-29T07:15:46.93Z</time></trkpt><trkpt lat="45.651322" lon="12.5626927"><ele>-1.0</ele><time>2026-03-29T07:15:47.939Z</time></trkpt><trkpt lat="45.6514014" lon="12.5628779"><ele>-1.0</ele><time>2026-03-29T07:15:48.908Z</time></trkpt><trkpt lat="45.6514787" lon="12.5630666"><ele>-1.0</ele><time>2026-03-29T07:15:49.906Z</time></trkpt><trkpt lat="45.6515558" lon="12.5632544"><ele>-1.0</ele><time>2026-03-29T07:15:50.901Z</time></trkpt><trkpt lat="45.6516312" lon="12.5634377"><ele>-1.0</ele><time>2026-03-29T07:15:51.9Z</time></trkpt><trkpt lat="45.6517034" lon="12.5636164"><ele>-1.0</ele><time>2026-03-29T07:15:52.907Z</time></trkpt><trkpt lat="45.6517735" lon="12.5637907"><ele>-0.75</ele><time>2026-03-29T07:15:53.903Z</time></trkpt><trkpt lat="45.6518386" lon="12.5639628"><ele>-0.5</ele><time>2026-03-29T07:15:54.904Z</time></trkpt><trkpt lat="45.6519131" lon="12.5641256"><ele>-0.25</ele><time>2026-03-29T07:15:55.895Z</time></trkpt><trkpt lat="45.6519828" lon="12.5642967"><ele>0.0</ele><time>2026-03-29T07:15:56.904Z</time></trkpt><trkpt lat="45.6520529" lon="12.5644725"><ele>0.0</ele><time>2026-03-29T07:15:57.929Z</time></trkpt><trkpt lat="45.652126" lon="12.5646501"><ele>0.0</ele><time>2026-03-29T07:15:58.9Z</time></trkpt><trkpt lat="45.6521937" lon="12.564835"><ele>0.0</ele><time>2026-03-29T07:15:59.918Z</time></trkpt><trkpt lat="45.6522651" lon="12.5650233"><ele>0.0</ele><time>2026-03-29T07:16:00.902Z</time></trkpt><trkpt lat="45.6523431" lon="12.565212"><ele>-0.3333333333333333</ele><time>2026-03-29T07:16:01.908Z</time></trkpt><trkpt lat="45.6524257" lon="12.565399"><ele>-0.6666666666666666</ele><time>2026-03-29T07:16:02.91Z</time></trkpt><trkpt lat="45.6525109" lon="12.565587"><ele>-1.0</ele><time>2026-03-29T07:16:03.899Z</time></trkpt><trkpt lat="45.6525979" lon="12.5657757"><ele>-1.0</ele><time>2026-03-29T07:16:04.916Z</time></trkpt><trkpt lat="45.6526857" lon="12.5659639"><ele>-1.0</ele><time>2026-03-29T07:16:05.9Z</time></trkpt><trkpt lat="45.6527715" lon="12.5661517"><ele>-1.0</ele><time>2026-03-29T07:16:06.92Z</time></trkpt><trkpt lat="45.6528556" lon="12.5663364"><ele>-0.3333333333333333</ele><time>2026-03-29T07:16:07.918Z</time></trkpt><trkpt lat="45.6529311" lon="12.5665252"><ele>0.3333333333333333</ele><time>2026-03-29T07:16:08.897Z</time></trkpt><trkpt lat="45.6530109" lon="12.5667084"><ele>1.0</ele><time>2026-03-29T07:16:09.924Z</time></trkpt><trkpt lat="45.6530908" lon="12.5668903"><ele>1.0</ele><time>2026-03-29T07:16:10.936Z</time></trkpt><trkpt lat="45.6531778" lon="12.5670671"><ele>1.0</ele><time>2026-03-29T07:16:11.899Z</time></trkpt><trkpt lat="45.6532669" lon="12.5672439"><ele>1.0</ele><time>2026-03-29T07:16:12.902Z</time></trkpt><trkpt lat="45.6533576" lon="12.5674237"><ele>1.0</ele><time>2026-03-29T07:16:13.916Z</time></trkpt><trkpt lat="45.6534513" lon="12.5676092"><ele>1.0</ele><time>2026-03-29T07:16:14.905Z</time></trkpt><trkpt lat="45.6535473" lon="12.5678024"><ele>1.0</ele><time>2026-03-29T07:16:15.93Z</time></trkpt><trkpt lat="45.6536498" lon="12.5679997"><ele>0.6666666666666666</ele><time>2026-03-29T07:16:16.919Z</time></trkpt><trkpt lat="45.6537463" lon="12.5682127"><ele>0.3333333333333333</ele><time>2026-03-29T07:16:17.915Z</time></trkpt><trkpt lat="45.6538475" lon="12.5684285"><ele>0.0</ele><time>2026-03-29T07:16:18.918Z</time></trkpt><trkpt lat="45.6539521" lon="12.5686452"><ele>-0.6666666666666666</ele><time>2026-03-29T07:16:19.924Z</time></trkpt><trkpt lat="45.6540552" lon="12.568862"><ele>-1.3333333333333333</ele><time>2026-03-29T07:16:20.907Z</time></trkpt><trkpt lat="45.6541516" lon="12.5690772"><ele>-2.0</ele><time>2026-03-29T07:16:21.941Z</time></trkpt><trkpt lat="45.6542444" lon="12.5692874"><ele>-2.0</ele><time>2026-03-29T07:16:22.905Z</time></trkpt><trkpt lat="45.6543352" lon="12.5694944"><ele>-2.0</ele><time>2026-03-29T07:16:23.917Z</time></trkpt><trkpt lat="45.6544176" lon="12.5697037"><ele>-2.0</ele><time>2026-03-29T07:16:24.903Z</time></trkpt><trkpt lat="45.6545061" lon="12.569901"><ele>-1.6666666666666665</ele><time>2026-03-29T07:16:25.928Z</time></trkpt><trkpt lat="45.6545877" lon="12.5700979"><ele>-1.3333333333333333</ele><time>2026-03-29T07:16:26.915Z</time></trkpt><trkpt lat="45.6546739" lon="12.5702851"><ele>-1.0</ele><time>2026-03-29T07:16:27.905Z</time></trkpt><trkpt lat="45.6547629" lon="12.570465"><ele>-0.5</ele><time>2026-03-29T07:16:28.915Z</time></trkpt><trkpt lat="45.6548438" lon="12.5706485"><ele>0.0</ele><time>2026-03-29T07:16:29.925Z</time></trkpt><trkpt lat="45.6549222" lon="12.5708307"><ele>0.5</ele><time>2026-03-29T07:16:30.921Z</time></trkpt><trkpt lat="45.6549999" lon="12.5710095"><ele>1.0</ele><time>2026-03-29T07:16:31.936Z</time></trkpt><trkpt lat="45.6550768" lon="12.5711863"><ele>0.75</ele><time>2026-03-29T07:16:32.902Z</time></trkpt><trkpt lat="45.655152" lon="12.5713599"><ele>0.5</ele><time>2026-03-29T07:16:33.907Z</time></trkpt><trkpt lat="45.6552223" lon="12.5715322"><ele>0.25</ele><time>2026-03-29T07:16:34.92Z</time></trkpt><trkpt lat="45.6552905" lon="12.5717034"><ele>0.0</ele><time>2026-03-29T07:16:35.928Z</time></trkpt><trkpt lat="45.6553567" lon="12.5718737"><ele>-0.5</ele><time>2026-03-29T07:16:36.92Z</time></trkpt><trkpt lat="45.6554234" lon="12.5720392"><ele>-1.0</ele><time>2026-03-29T07:16:37.931Z</time></trkpt><trkpt lat="45.6554875" lon="12.5722015"><ele>-1.5</ele><time>2026-03-29T07:16:38.918Z</time></trkpt><trkpt lat="45.6555563" lon="12.572355"><ele>-2.0</ele><time>2026-03-29T07:16:39.92Z</time></trkpt><trkpt lat="45.6556221" lon="12.5725033"><ele>-1.9999999999999998</ele><time>2026-03-29T07:16:40.908Z</time></trkpt><trkpt lat="45.6556748" lon="12.5726426"><ele>-2.0</ele><time>2026-03-29T07:16:41.915Z</time></trkpt><trkpt lat="45.6557199" lon="12.5727628"><ele>-2.0</ele><time>2026-03-29T07:16:42.925Z</time></trkpt><trkpt lat="45.6557479" lon="12.5728776"><ele>-2.0</ele><time>2026-03-29T07:16:43.926Z</time></trkpt><trkpt lat="45.6557611" lon="12.5729902"><ele>-1.9999999999999998</ele><time>2026-03-29T07:16:44.917Z</time></trkpt><trkpt lat="45.6557634" lon="12.5730965"><ele>-2.0</ele><time>2026-03-29T07:16:45.911Z</time></trkpt><trkpt lat="45.6557516" lon="12.5731984"><ele>-1.8333333333333333</ele><time>2026-03-29T07:16:46.905Z</time></trkpt><trkpt lat="45.6557434" lon="12.5733116"><ele>-1.6666666666666665</ele><time>2026-03-29T07:16:47.908Z</time></trkpt><trkpt lat="45.6557484" lon="12.5734326"><ele>-1.5</ele><time>2026-03-29T07:16:48.908Z</time></trkpt><trkpt lat="45.6557673" lon="12.5735546"><ele>-1.3333333333333333</ele><time>2026-03-29T07:16:49.908Z</time></trkpt><trkpt lat="45.6558133" lon="12.5736704"><ele>-1.1666666666666665</ele><time>2026-03-29T07:16:50.931Z</time></trkpt><trkpt lat="45.65588" lon="12.5737691"><ele>-1.0</ele><time>2026-03-29T07:16:51.929Z</time></trkpt><trkpt lat="45.6559461" lon="12.5738416"><ele>-0.8</ele><time>2026-03-29T07:16:52.908Z</time></trkpt><trkpt lat="45.6560004" lon="12.5739195"><ele>-0.6000000000000001</ele><time>2026-03-29T07:16:53.92Z</time></trkpt><trkpt lat="45.6560841" lon="12.5739524"><ele>-0.4</ele><time>2026-03-29T07:16:54.919Z</time></trkpt><trkpt lat="45.6561773" lon="12.5739915"><ele>-0.2</ele><time>2026-03-29T07:16:55.925Z</time></trkpt><trkpt lat="45.6562597" lon="12.5740795"><ele>0.0</ele><time>2026-03-29T07:16:56.901Z</time></trkpt><trkpt lat="45.6563344" lon="12.5742009"><ele>-0.5</ele><time>2026-03-29T07:16:57.905Z</time></trkpt><trkpt lat="45.6563994" lon="12.5743624"><ele>-1.0</ele><time>2026-03-29T07:16:58.918Z</time></trkpt><trkpt lat="45.6564624" lon="12.5745523"><ele>-1.5</ele><time>2026-03-29T07:16:59.914Z</time></trkpt><trkpt lat="45.6565433" lon="12.5747523"><ele>-2.0</ele><time>2026-03-29T07:17:00.902Z</time></trkpt><trkpt lat="45.6566308" lon="12.5749639"><ele>-2.0</ele><time>2026-03-29T07:17:01.929Z</time></trkpt><trkpt lat="45.6567173" lon="12.5751804"><ele>-2.0</ele><time>2026-03-29T07:17:02.916Z</time></trkpt><trkpt lat="45.6567948" lon="12.5754007"><ele>-2.0</ele><time>2026-03-29T07:17:03.908Z</time></trkpt><trkpt lat="45.6568768" lon="12.5756147"><ele>-2.333333333333333</ele><time>2026-03-29T07:17:04.926Z</time></trkpt><trkpt lat="45.6569634" lon="12.575826"><ele>-2.6666666666666665</ele><time>2026-03-29T07:17:05.91Z</time></trkpt><trkpt lat="45.6570514" lon="12.5760398"><ele>-3.0</ele><time>2026-03-29T07:17:06.912Z</time></trkpt><trkpt lat="45.6571385" lon="12.5762578"><ele>-3.333333333333333</ele><time>2026-03-29T07:17:07.911Z</time></trkpt><trkpt lat="45.657229" lon="12.5764774"><ele>-3.6666666666666665</ele><time>2026-03-29T07:17:08.919Z</time></trkpt><trkpt lat="45.6573284" lon="12.5766909"><ele>-4.0</ele><time>2026-03-29T07:17:09.905Z</time></trkpt><trkpt lat="45.6574319" lon="12.5769027"><ele>-3.6666666666666665</ele><time>2026-03-29T07:17:10.919Z</time></trkpt><trkpt lat="45.6575672" lon="12.5770803"><ele>-3.333333333333333</ele><time>2026-03-29T07:17:11.935Z</time></trkpt><trkpt lat="45.657707" lon="12.5772577"><ele>-3.0</ele><time>2026-03-29T07:17:12.929Z</time></trkpt><trkpt lat="45.6578708" lon="12.5774031"><ele>-2.6666666666666665</ele><time>2026-03-29T07:17:13.91Z</time></trkpt><trkpt lat="45.6580403" lon="12.5775416"><ele>-2.333333333333333</ele><time>2026-03-29T07:17:14.921Z</time></trkpt><trkpt lat="45.6582059" lon="12.5776787"><ele>-2.0</ele><time>2026-03-29T07:17:15.92Z</time></trkpt><trkpt lat="45.658365" lon="12.5778127"><ele>-2.333333333333333</ele><time>2026-03-29T07:17:16.912Z</time></trkpt><trkpt lat="45.6585184" lon="12.5779483"><ele>-2.6666666666666665</ele><time>2026-03-29T07:17:17.921Z</time></trkpt><trkpt lat="45.6586722" lon="12.5780801"><ele>-3.0</ele><time>2026-03-29T07:17:18.918Z</time></trkpt><trkpt lat="45.6588226" lon="12.5782203"><ele>-3.0</ele><time>2026-03-29T07:17:19.905Z</time></trkpt><trkpt lat="45.6589705" lon="12.5783714"><ele>-3.0</ele><time>2026-03-29T07:17:20.918Z</time></trkpt><trkpt lat="45.6591178" lon="12.5785288"><ele>-3.0</ele><time>2026-03-29T07:17:21.907Z</time></trkpt><trkpt lat="45.6592666" lon="12.5786893"><ele>-2.3333333333333335</ele><time>2026-03-29T07:17:22.935Z</time></trkpt><trkpt lat="45.659417" lon="12.5788522"><ele>-1.6666666666666665</ele><time>2026-03-29T07:17:23.907Z</time></trkpt><trkpt lat="45.6595677" lon="12.5790154"><ele>-1.0</ele><time>2026-03-29T07:17:24.927Z</time></trkpt><trkpt lat="45.6597174" lon="12.5791795"><ele>-1.0</ele><time>2026-03-29T07:17:25.904Z</time></trkpt><trkpt lat="45.659863" lon="12.5793481"><ele>-1.0</ele><time>2026-03-29T07:17:26.905Z</time></trkpt><trkpt lat="45.6600118" lon="12.5795079"><ele>-1.0</ele><time>2026-03-29T07:17:27.927Z</time></trkpt><trkpt lat="45.6601597" lon="12.5796675"><ele>-1.6666666666666665</ele><time>2026-03-29T07:17:28.907Z</time></trkpt><trkpt lat="45.6603102" lon="12.5798209"><ele>-2.3333333333333335</ele><time>2026-03-29T07:17:29.915Z</time></trkpt><trkpt lat="45.6604687" lon="12.5799577"><ele>-3.0</ele><time>2026-03-29T07:17:30.92Z</time></trkpt><trkpt lat="45.6606326" lon="12.5800825"><ele>-3.0</ele><time>2026-03-29T07:17:31.901Z</time></trkpt><trkpt lat="45.6608008" lon="12.580195"><ele>-3.0</ele><time>2026-03-29T07:17:32.919Z</time></trkpt><trkpt lat="45.6609714" lon="12.5802987"><ele>-3.0</ele><time>2026-03-29T07:17:33.927Z</time></trkpt><trkpt lat="45.6611444" lon="12.5803937"><ele>-3.0</ele><time>2026-03-29T07:17:34.901Z</time></trkpt><trkpt lat="45.6613199" lon="12.5804757"><ele>-3.0</ele><time>2026-03-29T07:17:35.914Z</time></trkpt><trkpt lat="45.6614951" lon="12.5805566"><ele>-3.0</ele><time>2026-03-29T07:17:36.909Z</time></trkpt><trkpt lat="45.661675" lon="12.5806204"><ele>-3.0</ele><time>2026-03-29T07:17:37.927Z</time></trkpt><trkpt lat="45.6618586" lon="12.5806717"><ele>-3.0</ele><time>2026-03-29T07:17:38.926Z</time></trkpt><trkpt lat="45.6620448" lon="12.5807141"><ele>-3.0</ele><time>2026-03-29T07:17:39.904Z</time></trkpt><trkpt lat="45.6622326" lon="12.5807432"><ele>-3.333333333333333</ele><time>2026-03-29T07:17:40.903Z</time></trkpt><trkpt lat="45.6624206" lon="12.5807749"><ele>-3.6666666666666665</ele><time>2026-03-29T07:17:41.908Z</time></trkpt><trkpt lat="45.6626084" lon="12.5808099"><ele>-4.0</ele><time>2026-03-29T07:17:42.926Z</time></trkpt><trkpt lat="45.6627977" lon="12.5808457"><ele>-3.333333333333333</ele><time>2026-03-29T07:17:43.917Z</time></trkpt><trkpt lat="45.6629886" lon="12.580882"><ele>-2.6666666666666665</ele><time>2026-03-29T07:17:44.912Z</time></trkpt><trkpt lat="45.6631817" lon="12.580919"><ele>-2.0</ele><time>2026-03-29T07:17:45.915Z</time></trkpt><trkpt lat="45.6633764" lon="12.5809527"><ele>-2.0</ele><time>2026-03-29T07:17:46.933Z</time></trkpt><trkpt lat="45.6635704" lon="12.5809857"><ele>-2.0</ele><time>2026-03-29T07:17:47.907Z</time></trkpt><trkpt lat="45.6637625" lon="12.5810198"><ele>-2.0</ele><time>2026-03-29T07:17:48.919Z</time></trkpt><trkpt lat="45.6639529" lon="12.5810524"><ele>-2.0</ele><time>2026-03-29T07:17:49.913Z</time></trkpt><trkpt lat="45.6641414" lon="12.5810839"><ele>-2.0</ele><time>2026-03-29T07:17:50.906Z</time></trkpt><trkpt lat="45.6643281" lon="12.5811149"><ele>-2.0</ele><time>2026-03-29T07:17:51.904Z</time></trkpt><trkpt lat="45.6645121" lon="12.5811466"><ele>-2.333333333333333</ele><time>2026-03-29T07:17:52.903Z</time></trkpt><trkpt lat="45.6646923" lon="12.5811775"><ele>-2.6666666666666665</ele><time>2026-03-29T07:17:53.92Z</time></trkpt><trkpt lat="45.6648699" lon="12.5812078"><ele>-3.0</ele><time>2026-03-29T07:17:54.907Z</time></trkpt><trkpt lat="45.6650467" lon="12.5812382"><ele>-3.0</ele><time>2026-03-29T07:17:55.91Z</time></trkpt><trkpt lat="45.6652242" lon="12.5812641"><ele>-3.0</ele><time>2026-03-29T07:17:56.906Z</time></trkpt><trkpt lat="45.665399" lon="12.5813012"><ele>-3.0</ele><time>2026-03-29T07:17:57.918Z</time></trkpt><trkpt lat="45.6655719" lon="12.5813329"><ele>-3.0</ele><time>2026-03-29T07:17:58.904Z</time></trkpt><trkpt lat="45.6657427" lon="12.5813608"><ele>-3.0</ele><time>2026-03-29T07:17:59.915Z</time></trkpt><trkpt lat="45.6659126" lon="12.5813856"><ele>-3.0</ele><time>2026-03-29T07:18:00.912Z</time></trkpt><trkpt lat="45.6660829" lon="12.5814073"><ele>-2.3333333333333335</ele><time>2026-03-29T07:18:01.903Z</time></trkpt><trkpt lat="45.6662526" lon="12.581434"><ele>-1.6666666666666665</ele><time>2026-03-29T07:18:02.922Z</time></trkpt><trkpt lat="45.6664203" lon="12.58146"><ele>-1.0</ele><time>2026-03-29T07:18:03.908Z</time></trkpt><trkpt lat="45.6665832" lon="12.581491"><ele>-1.0</ele><time>2026-03-29T07:18:04.917Z</time></trkpt><trkpt lat="45.6667414" lon="12.58152"><ele>-1.0</ele><time>2026-03-29T07:18:05.915Z</time></trkpt><trkpt lat="45.6668947" lon="12.5815442"><ele>-1.0</ele><time>2026-03-29T07:18:06.927Z</time></trkpt><trkpt lat="45.6670424" lon="12.581569"><ele>-1.25</ele><time>2026-03-29T07:18:07.931Z</time></trkpt><trkpt lat="45.6671835" lon="12.5815946"><ele>-1.5</ele><time>2026-03-29T07:18:08.912Z</time></trkpt><trkpt lat="45.6673182" lon="12.5816205"><ele>-1.75</ele><time>2026-03-29T07:18:09.921Z</time></trkpt><trkpt lat="45.6674486" lon="12.5816433"><ele>-2.0</ele><time>2026-03-29T07:18:10.914Z</time></trkpt><trkpt lat="45.6675737" lon="12.5816536"><ele>-2.0</ele><time>2026-03-29T07:18:11.918Z</time></trkpt><trkpt lat="45.6676918" lon="12.5816356"><ele>-2.0</ele><time>2026-03-29T07:18:12.934Z</time></trkpt><trkpt lat="45.667801" lon="12.5815973"><ele>-2.0</ele><time>2026-03-29T07:18:13.929Z</time></trkpt><trkpt lat="45.6679024" lon="12.5815548"><ele>-2.0</ele><time>2026-03-29T07:18:14.904Z</time></trkpt><trkpt lat="45.6680032" lon="12.5815259"><ele>-2.0</ele><time>2026-03-29T07:18:15.92Z</time></trkpt><trkpt lat="45.6681041" lon="12.5815367"><ele>-2.0</ele><time>2026-03-29T07:18:16.912Z</time></trkpt><trkpt lat="45.6682093" lon="12.5815392"><ele>-2.0</ele><time>2026-03-29T07:18:17.919Z</time></trkpt><trkpt lat="45.6683196" lon="12.5815539"><ele>-2.0</ele><time>2026-03-29T07:18:18.913Z</time></trkpt><trkpt lat="45.6684348" lon="12.5815477"><ele>-2.0</ele><time>2026-03-29T07:18:19.925Z</time></trkpt><trkpt lat="45.6685489" lon="12.5815253"><ele>-2.0</ele><time>2026-03-29T07:18:20.909Z</time></trkpt><trkpt lat="45.668663" lon="12.5815342"><ele>-1.75</ele><time>2026-03-29T07:18:21.917Z</time></trkpt><trkpt lat="45.6687783" lon="12.5815813"><ele>-1.5</ele><time>2026-03-29T07:18:22.915Z</time></trkpt><trkpt lat="45.6688921" lon="12.5816729"><ele>-1.25</ele><time>2026-03-29T07:18:23.909Z</time></trkpt><trkpt lat="45.6690083" lon="12.5817766"><ele>-1.0</ele><time>2026-03-29T07:18:24.913Z</time></trkpt><trkpt lat="45.6691356" lon="12.581856"><ele>-1.0</ele><time>2026-03-29T07:18:25.928Z</time></trkpt><trkpt lat="45.6692689" lon="12.5819116"><ele>-1.0</ele><time>2026-03-29T07:18:26.906Z</time></trkpt><trkpt lat="45.6694116" lon="12.5819401"><ele>-1.0</ele><time>2026-03-29T07:18:27.931Z</time></trkpt><trkpt lat="45.6695502" lon="12.5819694"><ele>-1.0</ele><time>2026-03-29T07:18:28.93Z</time></trkpt><trkpt lat="45.6696898" lon="12.5819898"><ele>-1.25</ele><time>2026-03-29T07:18:29.925Z</time></trkpt><trkpt lat="45.6698278" lon="12.5820038"><ele>-1.5</ele><time>2026-03-29T07:18:30.937Z</time></trkpt><trkpt lat="45.6699659" lon="12.5820198"><ele>-1.75</ele><time>2026-03-29T07:18:31.915Z</time></trkpt><trkpt lat="45.6701056" lon="12.5820418"><ele>-2.0</ele><time>2026-03-29T07:18:32.919Z</time></trkpt><trkpt lat="45.670247" lon="12.582068"><ele>-1.75</ele><time>2026-03-29T07:18:33.921Z</time></trkpt><trkpt lat="45.6703894" lon="12.5820905"><ele>-1.5</ele><time>2026-03-29T07:18:34.92Z</time></trkpt><trkpt lat="45.6705307" lon="12.5821187"><ele>-1.25</ele><time>2026-03-29T07:18:35.922Z</time></trkpt><trkpt lat="45.6706737" lon="12.5821403"><ele>-1.0</ele><time>2026-03-29T07:18:36.92Z</time></trkpt><trkpt lat="45.6708142" lon="12.5821608"><ele>-1.0</ele><time>2026-03-29T07:18:37.928Z</time></trkpt><trkpt lat="45.6709505" lon="12.5821795"><ele>-1.0</ele><time>2026-03-29T07:18:38.918Z</time></trkpt><trkpt lat="45.6710855" lon="12.5822081"><ele>-1.0</ele><time>2026-03-29T07:18:39.907Z</time></trkpt><trkpt lat="45.6712251" lon="12.5822372"><ele>-1.0</ele><time>2026-03-29T07:18:40.909Z</time></trkpt><trkpt lat="45.6713678" lon="12.5822923"><ele>-1.3333333333333333</ele><time>2026-03-29T07:18:41.927Z</time></trkpt><trkpt lat="45.6715126" lon="12.5823716"><ele>-1.6666666666666665</ele><time>2026-03-29T07:18:42.913Z</time></trkpt><trkpt lat="45.6716556" lon="12.582477"><ele>-2.0</ele><time>2026-03-29T07:18:43.933Z</time></trkpt><trkpt lat="45.6717946" lon="12.5826079"><ele>-2.0</ele><time>2026-03-29T07:18:44.922Z</time></trkpt><trkpt lat="45.6719294" lon="12.5827604"><ele>-2.0</ele><time>2026-03-29T07:18:45.909Z</time></trkpt><trkpt lat="45.6720639" lon="12.5829242"><ele>-2.0</ele><time>2026-03-29T07:18:46.898Z</time></trkpt><trkpt lat="45.6722079" lon="12.5830929"><ele>-2.6666666666666665</ele><time>2026-03-29T07:18:47.906Z</time></trkpt><trkpt lat="45.6723631" lon="12.5832758"><ele>-3.333333333333333</ele><time>2026-03-29T07:18:48.909Z</time></trkpt><trkpt lat="45.6725235" lon="12.5834715"><ele>-4.0</ele><time>2026-03-29T07:18:49.915Z</time></trkpt><trkpt lat="45.67269" lon="12.5836684"><ele>-3.0</ele><time>2026-03-29T07:18:50.904Z</time></trkpt><trkpt lat="45.6728551" lon="12.5838858"><ele>-2.0</ele><time>2026-03-29T07:18:51.916Z</time></trkpt><trkpt lat="45.6730335" lon="12.5841007"><ele>-2.0</ele><time>2026-03-29T07:18:52.907Z</time></trkpt><trkpt lat="45.6732243" lon="12.5843243"><ele>-2.0</ele><time>2026-03-29T07:18:53.918Z</time></trkpt><trkpt lat="45.6734294" lon="12.5845625"><ele>-2.5</ele><time>2026-03-29T07:18:54.902Z</time></trkpt><trkpt lat="45.6736459" lon="12.5848193"><ele>-3.0</ele><time>2026-03-29T07:18:55.917Z</time></trkpt><trkpt lat="45.6738605" lon="12.5850962"><ele>-3.0</ele><time>2026-03-29T07:18:56.899Z</time></trkpt><trkpt lat="45.6740781" lon="12.5853704"><ele>-3.0</ele><time>2026-03-29T07:18:57.923Z</time></trkpt><trkpt lat="45.6742905" lon="12.5856445"><ele>-2.0</ele><time>2026-03-29T07:18:58.91Z</time></trkpt><trkpt lat="45.6744943" lon="12.5859082"><ele>-1.0</ele><time>2026-03-29T07:18:59.925Z</time></trkpt><trkpt lat="45.6746941" lon="12.5861473"><ele>-2.0</ele><time>2026-03-29T07:19:00.924Z</time></trkpt><trkpt lat="45.6748695" lon="12.5863749"><ele>-3.0</ele><time>2026-03-29T07:19:01.913Z</time></trkpt><trkpt lat="45.6750346" lon="12.5865677"><ele>-3.0</ele><time>2026-03-29T07:19:02.906Z</time></trkpt><trkpt lat="45.6751866" lon="12.5867445"><ele>-3.0</ele><time>2026-03-29T07:19:03.918Z</time></trkpt><trkpt lat="45.6753263" lon="12.5869091"><ele>-3.0</ele><time>2026-03-29T07:19:04.904Z</time></trkpt><trkpt lat="45.6754599" lon="12.5870563"><ele>-2.25</ele><time>2026-03-29T07:19:05.911Z</time></trkpt><trkpt lat="45.6755757" lon="12.5871954"><ele>-1.5</ele><time>2026-03-29T07:19:06.95Z</time></trkpt><trkpt lat="45.6756777" lon="12.5873236"><ele>-0.75</ele><time>2026-03-29T07:19:07.934Z</time></trkpt><trkpt lat="45.6757689" lon="12.5874466"><ele>0.0</ele><time>2026-03-29T07:19:08.907Z</time></trkpt><trkpt lat="45.6758601" lon="12.5875493"><ele>0.0</ele><time>2026-03-29T07:19:09.911Z</time></trkpt><trkpt lat="45.6759404" lon="12.5876474"><ele>0.0</ele><time>2026-03-29T07:19:10.927Z</time></trkpt><trkpt lat="45.6760005" lon="12.587732"><ele>0.0</ele><time>2026-03-29T07:19:11.935Z</time></trkpt><trkpt lat="45.6760491" lon="12.5877947"><ele>0.0</ele><time>2026-03-29T07:19:12.93Z</time></trkpt><trkpt lat="45.6761255" lon="12.58789"><ele>0.0</ele><time>2026-03-29T07:19:14.908Z</time></trkpt><trkpt lat="45.6762649" lon="12.5880787"><ele>-0.2</ele><time>2026-03-29T07:19:28.899Z</time></trkpt><trkpt lat="45.6763741" lon="12.5881988"><ele>-0.4</ele><time>2026-03-29T07:19:30.915Z</time></trkpt><trkpt lat="45.6764375" lon="12.5882813"><ele>-0.6000000000000001</ele><time>2026-03-29T07:19:31.923Z</time></trkpt><trkpt lat="45.6765116" lon="12.5883637"><ele>-0.8</ele><time>2026-03-29T07:19:32.913Z</time></trkpt><trkpt lat="45.6766008" lon="12.5884404"><ele>-1.0</ele><time>2026-03-29T07:19:33.909Z</time></trkpt><trkpt lat="45.6766955" lon="12.5885321"><ele>-1.0</ele><time>2026-03-29T07:19:34.916Z</time></trkpt><trkpt lat="45.6767953" lon="12.5886289"><ele>-1.0</ele><time>2026-03-29T07:19:35.904Z</time></trkpt><trkpt lat="45.6768958" lon="12.5887362"><ele>-1.0</ele><time>2026-03-29T07:19:36.924Z</time></trkpt><trkpt lat="45.6770062" lon="12.5888381"><ele>-1.0</ele><time>2026-03-29T07:19:37.912Z</time></trkpt><trkpt lat="45.6771119" lon="12.5889598"><ele>-0.5</ele><time>2026-03-29T07:19:38.93Z</time></trkpt><trkpt lat="45.6772262" lon="12.5890725"><ele>0.0</ele><time>2026-03-29T07:19:39.925Z</time></trkpt><trkpt lat="45.677339" lon="12.5891929"><ele>0.5</ele><time>2026-03-29T07:19:40.92Z</time></trkpt><trkpt lat="45.6774482" lon="12.5893242"><ele>1.0</ele><time>2026-03-29T07:19:41.914Z</time></trkpt><trkpt lat="45.6775602" lon="12.5894514"><ele>0.75</ele><time>2026-03-29T07:19:42.929Z</time></trkpt><trkpt lat="45.6776714" lon="12.589584"><ele>0.5</ele><time>2026-03-29T07:19:43.913Z</time></trkpt><trkpt lat="45.6777867" lon="12.5897094"><ele>0.25</ele><time>2026-03-29T07:19:44.918Z</time></trkpt><trkpt lat="45.6779075" lon="12.589824"><ele>0.0</ele><time>2026-03-29T07:19:45.906Z</time></trkpt><trkpt lat="45.6780268" lon="12.5899413"><ele>0.0</ele><time>2026-03-29T07:19:46.916Z</time></trkpt><trkpt lat="45.6781359" lon="12.5900764"><ele>0.0</ele><time>2026-03-29T07:19:47.915Z</time></trkpt><trkpt lat="45.6782522" lon="12.5902061"><ele>0.0</ele><time>2026-03-29T07:19:48.923Z</time></trkpt><trkpt lat="45.6783754" lon="12.5903334"><ele>0.0</ele><time>2026-03-29T07:19:49.931Z</time></trkpt><trkpt lat="45.6785051" lon="12.59046"><ele>0.0</ele><time>2026-03-29T07:19:50.918Z</time></trkpt><trkpt lat="45.6786309" lon="12.5906035"><ele>0.0</ele><time>2026-03-29T07:19:51.917Z</time></trkpt><trkpt lat="45.6787628" lon="12.5907452"><ele>0.0</ele><time>2026-03-29T07:19:52.933Z</time></trkpt><trkpt lat="45.6788967" lon="12.5908892"><ele>0.0</ele><time>2026-03-29T07:19:53.908Z</time></trkpt><trkpt lat="45.6790301" lon="12.5910374"><ele>0.0</ele><time>2026-03-29T07:19:54.944Z</time></trkpt><trkpt lat="45.6791676" lon="12.5911819"><ele>0.0</ele><time>2026-03-29T07:19:55.908Z</time></trkpt><trkpt lat="45.6793046" lon="12.5913311"><ele>0.3333333333333333</ele><time>2026-03-29T07:19:56.919Z</time></trkpt><trkpt lat="45.6794428" lon="12.5914817"><ele>0.6666666666666666</ele><time>2026-03-29T07:19:57.911Z</time></trkpt><trkpt lat="45.6795848" lon="12.5916281"><ele>1.0</ele><time>2026-03-29T07:19:58.908Z</time></trkpt><trkpt lat="45.6797243" lon="12.5917841"><ele>1.0</ele><time>2026-03-29T07:19:59.921Z</time></trkpt><trkpt lat="45.6798715" lon="12.5919308"><ele>1.0</ele><time>2026-03-29T07:20:00.932Z</time></trkpt><trkpt lat="45.6800133" lon="12.5920899"><ele>1.0</ele><time>2026-03-29T07:20:01.931Z</time></trkpt><trkpt lat="45.6801603" lon="12.5922415"><ele>0.6666666666666666</ele><time>2026-03-29T07:20:02.916Z</time></trkpt><trkpt lat="45.6803058" lon="12.5923968"><ele>0.3333333333333333</ele><time>2026-03-29T07:20:03.916Z</time></trkpt><trkpt lat="45.6804494" lon="12.592554"><ele>0.0</ele><time>2026-03-29T07:20:04.91Z</time></trkpt><trkpt lat="45.6805897" lon="12.59271"><ele>0.0</ele><time>2026-03-29T07:20:05.938Z</time></trkpt><trkpt lat="45.6807429" lon="12.5928279"><ele>0.0</ele><time>2026-03-29T07:20:06.911Z</time></trkpt><trkpt lat="45.6808927" lon="12.5929402"><ele>0.0</ele><time>2026-03-29T07:20:07.926Z</time></trkpt><trkpt lat="45.6810589" lon="12.5930062"><ele>-0.6666666666666666</ele><time>2026-03-29T07:20:08.909Z</time></trkpt><trkpt lat="45.6812347" lon="12.5930308"><ele>-1.3333333333333333</ele><time>2026-03-29T07:20:09.924Z</time></trkpt><trkpt lat="45.6814082" lon="12.5930455"><ele>-2.0</ele><time>2026-03-29T07:20:10.929Z</time></trkpt><trkpt lat="45.6815801" lon="12.5930658"><ele>-2.0</ele><time>2026-03-29T07:20:11.937Z</time></trkpt><trkpt lat="45.6817542" lon="12.5930902"><ele>-2.0</ele><time>2026-03-29T07:20:12.91Z</time></trkpt><trkpt lat="45.6819306" lon="12.5930909"><ele>-2.0</ele><time>2026-03-29T07:20:13.934Z</time></trkpt><trkpt lat="45.6821048" lon="12.593117"><ele>-1.6666666666666665</ele><time>2026-03-29T07:20:14.93Z</time></trkpt><trkpt lat="45.682281" lon="12.5931291"><ele>-1.3333333333333333</ele><time>2026-03-29T07:20:15.924Z</time></trkpt><trkpt lat="45.6824591" lon="12.5931439"><ele>-1.0</ele><time>2026-03-29T07:20:16.909Z</time></trkpt><trkpt lat="45.6826392" lon="12.5931652"><ele>-0.6666666666666666</ele><time>2026-03-29T07:20:17.922Z</time></trkpt><trkpt lat="45.6828208" lon="12.593194"><ele>-0.3333333333333333</ele><time>2026-03-29T07:20:18.926Z</time></trkpt><trkpt lat="45.6830026" lon="12.5932384"><ele>0.0</ele><time>2026-03-29T07:20:19.922Z</time></trkpt><trkpt lat="45.6831825" lon="12.5933011"><ele>0.0</ele><time>2026-03-29T07:20:20.922Z</time></trkpt><trkpt lat="45.6833592" lon="12.593383"><ele>0.0</ele><time>2026-03-29T07:20:21.921Z</time></trkpt><trkpt lat="45.6835311" lon="12.5934881"><ele>0.0</ele><time>2026-03-29T07:20:22.922Z</time></trkpt><trkpt lat="45.6836974" lon="12.5936154"><ele>0.3333333333333333</ele><time>2026-03-29T07:20:23.909Z</time></trkpt><trkpt lat="45.6838569" lon="12.5937629"><ele>0.6666666666666666</ele><time>2026-03-29T07:20:24.91Z</time></trkpt><trkpt lat="45.6840107" lon="12.5939257"><ele>1.0</ele><time>2026-03-29T07:20:25.924Z</time></trkpt><trkpt lat="45.6841591" lon="12.5941027"><ele>1.0</ele><time>2026-03-29T07:20:26.908Z</time></trkpt><trkpt lat="45.684304" lon="12.5942898"><ele>1.0</ele><time>2026-03-29T07:20:27.913Z</time></trkpt><trkpt lat="45.6844505" lon="12.5944769"><ele>1.0</ele><time>2026-03-29T07:20:28.916Z</time></trkpt><trkpt lat="45.6845968" lon="12.5946625"><ele>0.3333333333333333</ele><time>2026-03-29T07:20:29.913Z</time></trkpt><trkpt lat="45.6847357" lon="12.594855"><ele>-0.3333333333333333</ele><time>2026-03-29T07:20:30.91Z</time></trkpt><trkpt lat="45.6848831" lon="12.5950292"><ele>-1.0</ele><time>2026-03-29T07:20:31.922Z</time></trkpt><trkpt lat="45.6850275" lon="12.5952048"><ele>-1.6666666666666665</ele><time>2026-03-29T07:20:32.909Z</time></trkpt><trkpt lat="45.6851587" lon="12.5953982"><ele>-2.3333333333333335</ele><time>2026-03-29T07:20:33.927Z</time></trkpt><trkpt lat="45.6852946" lon="12.5955818"><ele>-3.0</ele><time>2026-03-29T07:20:34.921Z</time></trkpt><trkpt lat="45.6854345" lon="12.5957613"><ele>-3.0</ele><time>2026-03-29T07:20:35.914Z</time></trkpt><trkpt lat="45.6855809" lon="12.595935"><ele>-3.0</ele><time>2026-03-29T07:20:36.919Z</time></trkpt><trkpt lat="45.6857276" lon="12.5961135"><ele>-3.0</ele><time>2026-03-29T07:20:37.915Z</time></trkpt><trkpt lat="45.6858767" lon="12.5962922"><ele>-2.6666666666666665</ele><time>2026-03-29T07:20:38.929Z</time></trkpt><trkpt lat="45.6860312" lon="12.5964652"><ele>-2.333333333333333</ele><time>2026-03-29T07:20:39.923Z</time></trkpt><trkpt lat="45.6861858" lon="12.5966412"><ele>-2.0</ele><time>2026-03-29T07:20:40.908Z</time></trkpt><trkpt lat="45.6863376" lon="12.5968267"><ele>-2.0</ele><time>2026-03-29T07:20:41.913Z</time></trkpt><trkpt lat="45.6864842" lon="12.5970244"><ele>-2.0</ele><time>2026-03-29T07:20:42.921Z</time></trkpt><trkpt lat="45.6866331" lon="12.5972215"><ele>-2.0</ele><time>2026-03-29T07:20:43.918Z</time></trkpt><trkpt lat="45.6867853" lon="12.5974169"><ele>-2.0</ele><time>2026-03-29T07:20:44.931Z</time></trkpt><trkpt lat="45.6869385" lon="12.5976113"><ele>-2.0</ele><time>2026-03-29T07:20:45.942Z</time></trkpt><trkpt lat="45.6870906" lon="12.597807"><ele>-2.0</ele><time>2026-03-29T07:20:46.939Z</time></trkpt><trkpt lat="45.6872425" lon="12.5980009"><ele>-2.333333333333333</ele><time>2026-03-29T07:20:47.931Z</time></trkpt><trkpt lat="45.6873936" lon="12.5981935"><ele>-2.6666666666666665</ele><time>2026-03-29T07:20:48.916Z</time></trkpt><trkpt lat="45.6875415" lon="12.5983872"><ele>-3.0</ele><time>2026-03-29T07:20:49.931Z</time></trkpt><trkpt lat="45.6876902" lon="12.5985769"><ele>-2.6666666666666665</ele><time>2026-03-29T07:20:50.91Z</time></trkpt><trkpt lat="45.6878375" lon="12.5987673"><ele>-2.333333333333333</ele><time>2026-03-29T07:20:51.91Z</time></trkpt><trkpt lat="45.6879787" lon="12.5989628"><ele>-2.0</ele><time>2026-03-29T07:20:52.913Z</time></trkpt><trkpt lat="45.6881203" lon="12.5991454"><ele>-2.0</ele><time>2026-03-29T07:20:53.931Z</time></trkpt><trkpt lat="45.6882601" lon="12.599322"><ele>-2.0</ele><time>2026-03-29T07:20:54.92Z</time></trkpt><trkpt lat="45.688397" lon="12.5994974"><ele>-2.0</ele><time>2026-03-29T07:20:55.926Z</time></trkpt><trkpt lat="45.6885366" lon="12.599666"><ele>-1.3333333333333333</ele><time>2026-03-29T07:20:56.918Z</time></trkpt><trkpt lat="45.6886743" lon="12.5998384"><ele>-0.6666666666666666</ele><time>2026-03-29T07:20:57.92Z</time></trkpt><trkpt lat="45.6888125" lon="12.6000098"><ele>0.0</ele><time>2026-03-29T07:20:58.921Z</time></trkpt><trkpt lat="45.6889447" lon="12.6001909"><ele>0.3333333333333333</ele><time>2026-03-29T07:20:59.931Z</time></trkpt><trkpt lat="45.6890767" lon="12.6003714"><ele>0.6666666666666666</ele><time>2026-03-29T07:21:00.907Z</time></trkpt><trkpt lat="45.6892179" lon="12.6005377"><ele>1.0</ele><time>2026-03-29T07:21:01.937Z</time></trkpt><trkpt lat="45.6893549" lon="12.6007177"><ele>0.6666666666666666</ele><time>2026-03-29T07:21:02.922Z</time></trkpt><trkpt lat="45.6894928" lon="12.6008969"><ele>0.3333333333333333</ele><time>2026-03-29T07:21:03.928Z</time></trkpt><trkpt lat="45.6896275" lon="12.6010689"><ele>0.0</ele><time>2026-03-29T07:21:04.912Z</time></trkpt><trkpt lat="45.6897536" lon="12.6012382"><ele>0.0</ele><time>2026-03-29T07:21:05.925Z</time></trkpt><trkpt lat="45.6898733" lon="12.6013931"><ele>0.0</ele><time>2026-03-29T07:21:06.928Z</time></trkpt><trkpt lat="45.6899788" lon="12.6015402"><ele>0.0</ele><time>2026-03-29T07:21:07.913Z</time></trkpt><trkpt lat="45.6900668" lon="12.6016797"><ele>0.0</ele><time>2026-03-29T07:21:08.914Z</time></trkpt><trkpt lat="45.6901458" lon="12.6018092"><ele>0.0</ele><time>2026-03-29T07:21:09.917Z</time></trkpt><trkpt lat="45.6902085" lon="12.6019457"><ele>0.0</ele><time>2026-03-29T07:21:10.933Z</time></trkpt><trkpt lat="45.6902529" lon="12.6020851"><ele>0.0</ele><time>2026-03-29T07:21:11.912Z</time></trkpt><trkpt lat="45.6902974" lon="12.6022271"><ele>0.0</ele><time>2026-03-29T07:21:12.927Z</time></trkpt><trkpt lat="45.6903485" lon="12.6023735"><ele>0.0</ele><time>2026-03-29T07:21:13.914Z</time></trkpt><trkpt lat="45.6904102" lon="12.6025253"><ele>0.25</ele><time>2026-03-29T07:21:14.914Z</time></trkpt><trkpt lat="45.6904844" lon="12.6026748"><ele>0.5</ele><time>2026-03-29T07:21:15.914Z</time></trkpt><trkpt lat="45.6905627" lon="12.6028182"><ele>0.75</ele><time>2026-03-29T07:21:16.907Z</time></trkpt><trkpt lat="45.6906501" lon="12.6029468"><ele>1.0</ele><time>2026-03-29T07:21:17.921Z</time></trkpt><trkpt lat="45.6907394" lon="12.6030647"><ele>1.0</ele><time>2026-03-29T07:21:18.93Z</time></trkpt><trkpt lat="45.6908384" lon="12.603154"><ele>1.0</ele><time>2026-03-29T07:21:19.928Z</time></trkpt><trkpt lat="45.6909508" lon="12.6032006"><ele>1.0</ele><time>2026-03-29T07:21:20.919Z</time></trkpt><trkpt lat="45.6910743" lon="12.6031984"><ele>1.0</ele><time>2026-03-29T07:21:21.919Z</time></trkpt><trkpt lat="45.6912029" lon="12.6031599"><ele>1.0</ele><time>2026-03-29T07:21:22.915Z</time></trkpt><trkpt lat="45.6913404" lon="12.6031212"><ele>1.0</ele><time>2026-03-29T07:21:23.929Z</time></trkpt><trkpt lat="45.6914849" lon="12.6030942"><ele>1.0</ele><time>2026-03-29T07:21:24.915Z</time></trkpt><trkpt lat="45.6916372" lon="12.6031045"><ele>1.0</ele><time>2026-03-29T07:21:25.93Z</time></trkpt><trkpt lat="45.6918" lon="12.6031471"><ele>0.3333333333333333</ele><time>2026-03-29T07:21:26.91Z</time></trkpt><trkpt lat="45.6919717" lon="12.6032059"><ele>-0.3333333333333333</ele><time>2026-03-29T07:21:27.922Z</time></trkpt><trkpt lat="45.692151" lon="12.6032795"><ele>-1.0</ele><time>2026-03-29T07:21:28.93Z</time></trkpt><trkpt lat="45.6923407" lon="12.6033503"><ele>-1.0</ele><time>2026-03-29T07:21:29.908Z</time></trkpt><trkpt lat="45.6925343" lon="12.6034252"><ele>-1.0</ele><time>2026-03-29T07:21:30.928Z</time></trkpt><trkpt lat="45.6927259" lon="12.6034997"><ele>-1.0</ele><time>2026-03-29T07:21:31.914Z</time></trkpt><trkpt lat="45.6929114" lon="12.6035771"><ele>-1.0</ele><time>2026-03-29T07:21:32.909Z</time></trkpt><trkpt lat="45.6930931" lon="12.6036473"><ele>-1.0</ele><time>2026-03-29T07:21:33.947Z</time></trkpt><trkpt lat="45.6932701" lon="12.6037168"><ele>-1.0</ele><time>2026-03-29T07:21:34.941Z</time></trkpt><trkpt lat="45.693443" lon="12.6037838"><ele>-0.6666666666666666</ele><time>2026-03-29T07:21:35.922Z</time></trkpt><trkpt lat="45.6936107" lon="12.6038499"><ele>-0.3333333333333333</ele><time>2026-03-29T07:21:36.926Z</time></trkpt><trkpt lat="45.6937727" lon="12.6039145"><ele>0.0</ele><time>2026-03-29T07:21:37.946Z</time></trkpt><trkpt lat="45.6939311" lon="12.6039705"><ele>0.0</ele><time>2026-03-29T07:21:38.914Z</time></trkpt><trkpt lat="45.6940842" lon="12.6040238"><ele>0.0</ele><time>2026-03-29T07:21:39.918Z</time></trkpt><trkpt lat="45.6942332" lon="12.6040791"><ele>0.0</ele><time>2026-03-29T07:21:40.905Z</time></trkpt><trkpt lat="45.6943781" lon="12.6041398"><ele>0.0</ele><time>2026-03-29T07:21:41.906Z</time></trkpt><trkpt lat="45.6945221" lon="12.604194"><ele>0.0</ele><time>2026-03-29T07:21:42.939Z</time></trkpt><trkpt lat="45.6946642" lon="12.6042469"><ele>0.0</ele><time>2026-03-29T07:21:43.932Z</time></trkpt><trkpt lat="45.6948045" lon="12.6042999"><ele>0.0</ele><time>2026-03-29T07:21:44.914Z</time></trkpt><trkpt lat="45.6949428" lon="12.6043574"><ele>0.0</ele><time>2026-03-29T07:21:45.949Z</time></trkpt><trkpt lat="45.695082" lon="12.6044028"><ele>0.0</ele><time>2026-03-29T07:21:46.925Z</time></trkpt><trkpt lat="45.6952219" lon="12.6044459"><ele>0.0</ele><time>2026-03-29T07:21:47.918Z</time></trkpt><trkpt lat="45.6953606" lon="12.6044964"><ele>0.0</ele><time>2026-03-29T07:21:48.926Z</time></trkpt><trkpt lat="45.6954993" lon="12.6045467"><ele>-0.5</ele><time>2026-03-29T07:21:49.91Z</time></trkpt><trkpt lat="45.695638" lon="12.6045966"><ele>-1.0</ele><time>2026-03-29T07:21:50.941Z</time></trkpt><trkpt lat="45.6957748" lon="12.6046538"><ele>-1.5</ele><time>2026-03-29T07:21:51.914Z</time></trkpt><trkpt lat="45.6959141" lon="12.6047035"><ele>-2.0</ele><time>2026-03-29T07:21:52.91Z</time></trkpt><trkpt lat="45.6960549" lon="12.6047561"><ele>-2.0</ele><time>2026-03-29T07:21:53.915Z</time></trkpt><trkpt lat="45.6961988" lon="12.6048058"><ele>-2.0</ele><time>2026-03-29T07:21:54.919Z</time></trkpt><trkpt lat="45.6963492" lon="12.604858"><ele>-2.0</ele><time>2026-03-29T07:21:55.911Z</time></trkpt><trkpt lat="45.6965069" lon="12.6049094"><ele>-2.0</ele><time>2026-03-29T07:21:56.924Z</time></trkpt><trkpt lat="45.6966666" lon="12.6049749"><ele>-2.0</ele><time>2026-03-29T07:21:57.931Z</time></trkpt><trkpt lat="45.6968294" lon="12.605034"><ele>-2.0</ele><time>2026-03-29T07:21:58.91Z</time></trkpt><trkpt lat="45.6969928" lon="12.6050923"><ele>-1.6666666666666665</ele><time>2026-03-29T07:21:59.926Z</time></trkpt><trkpt lat="45.6971521" lon="12.6051504"><ele>-1.3333333333333333</ele><time>2026-03-29T07:22:00.909Z</time></trkpt><trkpt lat="45.6973052" lon="12.6052092"><ele>-1.0</ele><time>2026-03-29T07:22:01.9Z</time></trkpt><trkpt lat="45.6974558" lon="12.605265"><ele>-1.0</ele><time>2026-03-29T07:22:02.927Z</time></trkpt><trkpt lat="45.6976066" lon="12.6053149"><ele>-1.0</ele><time>2026-03-29T07:22:03.907Z</time></trkpt><trkpt lat="45.697755" lon="12.6053686"><ele>-1.0</ele><time>2026-03-29T07:22:04.923Z</time></trkpt><trkpt lat="45.6979049" lon="12.6054107"><ele>-0.6666666666666666</ele><time>2026-03-29T07:22:05.927Z</time></trkpt><trkpt lat="45.6980527" lon="12.6054623"><ele>-0.3333333333333333</ele><time>2026-03-29T07:22:06.931Z</time></trkpt><trkpt lat="45.6981991" lon="12.6055174"><ele>0.0</ele><time>2026-03-29T07:22:07.953Z</time></trkpt><trkpt lat="45.6983448" lon="12.6055692"><ele>0.0</ele><time>2026-03-29T07:22:08.923Z</time></trkpt><trkpt lat="45.6984901" lon="12.6056243"><ele>0.0</ele><time>2026-03-29T07:22:09.924Z</time></trkpt><trkpt lat="45.6986375" lon="12.6056725"><ele>0.0</ele><time>2026-03-29T07:22:10.909Z</time></trkpt><trkpt lat="45.6987893" lon="12.6057148"><ele>-0.3333333333333333</ele><time>2026-03-29T07:22:11.932Z</time></trkpt><trkpt lat="45.6989574" lon="12.6057332"><ele>-0.6666666666666666</ele><time>2026-03-29T07:22:12.916Z</time></trkpt><trkpt lat="45.6991445" lon="12.6057293"><ele>-1.0</ele><time>2026-03-29T07:22:13.918Z</time></trkpt><trkpt lat="45.6993504" lon="12.6057147"><ele>-0.3333333333333333</ele><time>2026-03-29T07:22:14.912Z</time></trkpt><trkpt lat="45.699566" lon="12.6057069"><ele>0.3333333333333333</ele><time>2026-03-29T07:22:15.924Z</time></trkpt><trkpt lat="45.6997828" lon="12.6057076"><ele>1.0</ele><time>2026-03-29T07:22:16.917Z</time></trkpt><trkpt lat="45.699999" lon="12.605715"><ele>1.0</ele><time>2026-03-29T07:22:17.928Z</time></trkpt><trkpt lat="45.7002112" lon="12.6057296"><ele>1.0</ele><time>2026-03-29T07:22:18.908Z</time></trkpt><trkpt lat="45.7004139" lon="12.6057397"><ele>1.0</ele><time>2026-03-29T07:22:19.927Z</time></trkpt><trkpt lat="45.7006046" lon="12.6057502"><ele>0.3333333333333333</ele><time>2026-03-29T07:22:20.924Z</time></trkpt><trkpt lat="45.7007851" lon="12.6057557"><ele>-0.3333333333333333</ele><time>2026-03-29T07:22:21.934Z</time></trkpt><trkpt lat="45.7009526" lon="12.6057624"><ele>-1.0</ele><time>2026-03-29T07:22:22.913Z</time></trkpt><trkpt lat="45.7011047" lon="12.6057733"><ele>-1.0</ele><time>2026-03-29T07:22:23.93Z</time></trkpt><trkpt lat="45.7012291" lon="12.6057867"><ele>-1.0</ele><time>2026-03-29T07:22:24.906Z</time></trkpt><trkpt lat="45.7013212" lon="12.6057868"><ele>-1.0</ele><time>2026-03-29T07:22:25.918Z</time></trkpt><trkpt lat="45.701384" lon="12.6058261"><ele>-1.0</ele><time>2026-03-29T07:22:26.918Z</time></trkpt><trkpt lat="45.7014156" lon="12.6060029"><ele>-1.0</ele><time>2026-03-29T07:22:28.915Z</time></trkpt><trkpt lat="45.7013884" lon="12.6061145"><ele>-1.25</ele><time>2026-03-29T07:22:29.919Z</time></trkpt><trkpt lat="45.7013109" lon="12.6062448"><ele>-1.5</ele><time>2026-03-29T07:22:30.906Z</time></trkpt><trkpt lat="45.7012408" lon="12.60641"><ele>-1.75</ele><time>2026-03-29T07:22:31.91Z</time></trkpt><trkpt lat="45.7011629" lon="12.6065841"><ele>-2.0</ele><time>2026-03-29T07:22:32.913Z</time></trkpt><trkpt lat="45.7010877" lon="12.6067583"><ele>-1.75</ele><time>2026-03-29T07:22:33.904Z</time></trkpt><trkpt lat="45.7010188" lon="12.6069342"><ele>-1.5</ele><time>2026-03-29T07:22:34.924Z</time></trkpt><trkpt lat="45.7009637" lon="12.6071179"><ele>-1.25</ele><time>2026-03-29T07:22:35.909Z</time></trkpt><trkpt lat="45.7009138" lon="12.6073114"><ele>-1.0</ele><time>2026-03-29T07:22:36.906Z</time></trkpt><trkpt lat="45.7008875" lon="12.607533"><ele>-1.3333333333333333</ele><time>2026-03-29T07:22:37.916Z</time></trkpt><trkpt lat="45.7008669" lon="12.6077675"><ele>-1.6666666666666665</ele><time>2026-03-29T07:22:38.912Z</time></trkpt><trkpt lat="45.7008419" lon="12.6080027"><ele>-2.0</ele><time>2026-03-29T07:22:39.935Z</time></trkpt><trkpt lat="45.7008148" lon="12.6082373"><ele>-2.0</ele><time>2026-03-29T07:22:40.91Z</time></trkpt><trkpt lat="45.7007819" lon="12.6084695"><ele>-2.0</ele><time>2026-03-29T07:22:41.906Z</time></trkpt><trkpt lat="45.7007456" lon="12.6086984"><ele>-2.0</ele><time>2026-03-29T07:22:42.904Z</time></trkpt><trkpt lat="45.7007075" lon="12.6089227"><ele>-1.6666666666666665</ele><time>2026-03-29T07:22:43.944Z</time></trkpt><trkpt lat="45.7006695" lon="12.6091398"><ele>-1.3333333333333333</ele><time>2026-03-29T07:22:44.904Z</time></trkpt><trkpt lat="45.7006386" lon="12.6093525"><ele>-1.0</ele><time>2026-03-29T07:22:45.913Z</time></trkpt><trkpt lat="45.7006247" lon="12.6095714"><ele>-0.6666666666666666</ele><time>2026-03-29T07:22:46.919Z</time></trkpt><trkpt lat="45.7006331" lon="12.6097986"><ele>-0.3333333333333333</ele><time>2026-03-29T07:22:47.915Z</time></trkpt><trkpt lat="45.7006537" lon="12.610028"><ele>0.0</ele><time>2026-03-29T07:22:48.908Z</time></trkpt><trkpt lat="45.7006743" lon="12.6102526"><ele>0.0</ele><time>2026-03-29T07:22:49.918Z</time></trkpt><trkpt lat="45.7006954" lon="12.6104704"><ele>0.0</ele><time>2026-03-29T07:22:50.915Z</time></trkpt><trkpt lat="45.7007119" lon="12.6106845"><ele>0.0</ele><time>2026-03-29T07:22:51.944Z</time></trkpt><trkpt lat="45.7007245" lon="12.6108968"><ele>0.0</ele><time>2026-03-29T07:22:52.911Z</time></trkpt><trkpt lat="45.7007259" lon="12.6111093"><ele>0.0</ele><time>2026-03-29T07:22:53.917Z</time></trkpt><trkpt lat="45.7007138" lon="12.6113232"><ele>0.0</ele><time>2026-03-29T07:22:54.924Z</time></trkpt><trkpt lat="45.7006826" lon="12.611539"><ele>0.0</ele><time>2026-03-29T07:22:55.923Z</time></trkpt><trkpt lat="45.7006401" lon="12.6117522"><ele>0.0</ele><time>2026-03-29T07:22:56.912Z</time></trkpt><trkpt lat="45.700585" lon="12.6119572"><ele>0.0</ele><time>2026-03-29T07:22:57.915Z</time></trkpt><trkpt lat="45.7005197" lon="12.6121524"><ele>0.25</ele><time>2026-03-29T07:22:58.922Z</time></trkpt><trkpt lat="45.7004606" lon="12.6123399"><ele>0.5</ele><time>2026-03-29T07:22:59.92Z</time></trkpt><trkpt lat="45.7003888" lon="12.6124937"><ele>0.75</ele><time>2026-03-29T07:23:00.908Z</time></trkpt><trkpt lat="45.7003273" lon="12.6126286"><ele>1.0</ele><time>2026-03-29T07:23:01.926Z</time></trkpt><trkpt lat="45.7002795" lon="12.6127244"><ele>1.0</ele><time>2026-03-29T07:23:02.908Z</time></trkpt><trkpt lat="45.7002256" lon="12.6128628"><ele>1.0</ele><time>2026-03-29T07:23:04.905Z</time></trkpt><trkpt lat="45.7001784" lon="12.612955"><ele>1.0</ele><time>2026-03-29T07:23:06.907Z</time></trkpt><trkpt lat="45.7002014" lon="12.613078"><ele>1.0</ele><time>2026-03-29T07:23:10.916Z</time></trkpt><trkpt lat="45.7002897" lon="12.6130668"><ele>1.0</ele><time>2026-03-29T07:23:12.908Z</time></trkpt><trkpt lat="45.7003562" lon="12.61299"><ele>1.0</ele><time>2026-03-29T07:23:13.933Z</time></trkpt><trkpt lat="45.7004354" lon="12.6128606"><ele>1.0</ele><time>2026-03-29T07:23:14.914Z</time></trkpt><trkpt lat="45.700552" lon="12.6127255"><ele>1.0</ele><time>2026-03-29T07:23:15.913Z</time></trkpt><trkpt lat="45.7006797" lon="12.6125911"><ele>1.0</ele><time>2026-03-29T07:23:16.918Z</time></trkpt><trkpt lat="45.7007997" lon="12.6124657"><ele>1.0</ele><time>2026-03-29T07:23:17.917Z</time></trkpt><trkpt lat="45.7009066" lon="12.6123595"><ele>1.0</ele><time>2026-03-29T07:23:18.933Z</time></trkpt><trkpt lat="45.7010029" lon="12.6122534"><ele>1.0</ele><time>2026-03-29T07:23:19.916Z</time></trkpt><trkpt lat="45.7010929" lon="12.6121566"><ele>1.0</ele><time>2026-03-29T07:23:20.928Z</time></trkpt><trkpt lat="45.7011769" lon="12.6120644"><ele>0.6000000000000001</ele><time>2026-03-29T07:23:21.936Z</time></trkpt><trkpt lat="45.7012629" lon="12.6119864"><ele>0.20000000000000007</ele><time>2026-03-29T07:23:22.918Z</time></trkpt><trkpt lat="45.7013412" lon="12.6118968"><ele>-0.20000000000000007</ele><time>2026-03-29T07:23:23.919Z</time></trkpt><trkpt lat="45.7014215" lon="12.6118093"><ele>-0.6000000000000001</ele><time>2026-03-29T07:23:24.91Z</time></trkpt><trkpt lat="45.7015136" lon="12.611736"><ele>-1.0</ele><time>2026-03-29T07:23:25.906Z</time></trkpt><trkpt lat="45.7016015" lon="12.6116417"><ele>-1.0</ele><time>2026-03-29T07:23:26.921Z</time></trkpt><trkpt lat="45.7017004" lon="12.6115478"><ele>-1.0</ele><time>2026-03-29T07:23:27.921Z</time></trkpt><trkpt lat="45.7018035" lon="12.6114372"><ele>-1.0</ele><time>2026-03-29T07:23:28.915Z</time></trkpt><trkpt lat="45.7019159" lon="12.6113311"><ele>-1.0</ele><time>2026-03-29T07:23:29.91Z</time></trkpt><trkpt lat="45.7020293" lon="12.611218"><ele>0.0</ele><time>2026-03-29T07:23:30.908Z</time></trkpt><trkpt lat="45.7021442" lon="12.6110976"><ele>1.0</ele><time>2026-03-29T07:23:31.907Z</time></trkpt><trkpt lat="45.7022622" lon="12.6109745"><ele>2.0</ele><time>2026-03-29T07:23:32.913Z</time></trkpt><trkpt lat="45.7023835" lon="12.6108459"><ele>3.0</ele><time>2026-03-29T07:23:33.909Z</time></trkpt><trkpt lat="45.7025095" lon="12.6107134"><ele>3.0</ele><time>2026-03-29T07:23:34.907Z</time></trkpt><trkpt lat="45.7026419" lon="12.6105783"><ele>3.0</ele><time>2026-03-29T07:23:35.909Z</time></trkpt><trkpt lat="45.7027804" lon="12.610438"><ele>3.0</ele><time>2026-03-29T07:23:36.928Z</time></trkpt><trkpt lat="45.7029209" lon="12.6102922"><ele>3.0</ele><time>2026-03-29T07:23:37.919Z</time></trkpt><trkpt lat="45.7030645" lon="12.6101405"><ele>3.0</ele><time>2026-03-29T07:23:38.925Z</time></trkpt><trkpt lat="45.7032093" lon="12.6099832"><ele>3.0</ele><time>2026-03-29T07:23:39.923Z</time></trkpt><trkpt lat="45.7033561" lon="12.6098256"><ele>3.0</ele><time>2026-03-29T07:23:40.907Z</time></trkpt><trkpt lat="45.7035025" lon="12.6096644"><ele>3.0</ele><time>2026-03-29T07:23:41.922Z</time></trkpt><trkpt lat="45.703648" lon="12.6095076"><ele>3.0</ele><time>2026-03-29T07:23:42.939Z</time></trkpt><trkpt lat="45.7037912" lon="12.6093553"><ele>3.0</ele><time>2026-03-29T07:23:43.907Z</time></trkpt><trkpt lat="45.7039313" lon="12.6092075"><ele>3.0</ele><time>2026-03-29T07:23:44.907Z</time></trkpt><trkpt lat="45.7040668" lon="12.6090648"><ele>3.0</ele><time>2026-03-29T07:23:45.918Z</time></trkpt><trkpt lat="45.7041973" lon="12.6089218"><ele>3.0</ele><time>2026-03-29T07:23:46.912Z</time></trkpt><trkpt lat="45.7043262" lon="12.6087836"><ele>3.0</ele><time>2026-03-29T07:23:47.915Z</time></trkpt><trkpt lat="45.7044568" lon="12.6086524"><ele>3.0</ele><time>2026-03-29T07:23:48.924Z</time></trkpt><trkpt lat="45.7045859" lon="12.6085203"><ele>2.3333333333333335</ele><time>2026-03-29T07:23:49.916Z</time></trkpt><trkpt lat="45.7047143" lon="12.608387"><ele>1.6666666666666665</ele><time>2026-03-29T07:23:50.913Z</time></trkpt><trkpt lat="45.7048389" lon="12.6082425"><ele>1.0</ele><time>2026-03-29T07:23:51.907Z</time></trkpt><trkpt lat="45.7049678" lon="12.6081024"><ele>1.0</ele><time>2026-03-29T07:23:52.919Z</time></trkpt><trkpt lat="45.705099" lon="12.6079623"><ele>1.0</ele><time>2026-03-29T07:23:53.914Z</time></trkpt><trkpt lat="45.7052321" lon="12.6078199"><ele>1.0</ele><time>2026-03-29T07:23:54.917Z</time></trkpt><trkpt lat="45.7053661" lon="12.6076781"><ele>1.3333333333333333</ele><time>2026-03-29T07:23:55.919Z</time></trkpt><trkpt lat="45.705501" lon="12.6075337"><ele>1.6666666666666665</ele><time>2026-03-29T07:23:56.914Z</time></trkpt><trkpt lat="45.7056369" lon="12.6073886"><ele>2.0</ele><time>2026-03-29T07:23:57.908Z</time></trkpt><trkpt lat="45.705775" lon="12.60724"><ele>2.0</ele><time>2026-03-29T07:23:58.905Z</time></trkpt><trkpt lat="45.7059192" lon="12.6070959"><ele>2.0</ele><time>2026-03-29T07:23:59.899Z</time></trkpt><trkpt lat="45.706057" lon="12.6069424"><ele>2.0</ele><time>2026-03-29T07:24:00.906Z</time></trkpt><trkpt lat="45.7061948" lon="12.6067936"><ele>1.6666666666666665</ele><time>2026-03-29T07:24:01.908Z</time></trkpt><trkpt lat="45.7063367" lon="12.6066551"><ele>1.3333333333333333</ele><time>2026-03-29T07:24:02.905Z</time></trkpt><trkpt lat="45.7064765" lon="12.6065119"><ele>1.0</ele><time>2026-03-29T07:24:03.908Z</time></trkpt><trkpt lat="45.706611" lon="12.6063562"><ele>1.0</ele><time>2026-03-29T07:24:04.927Z</time></trkpt><trkpt lat="45.7067483" lon="12.6062021"><ele>1.0</ele><time>2026-03-29T07:24:05.901Z</time></trkpt><trkpt lat="45.7068902" lon="12.606054"><ele>1.0</ele><time>2026-03-29T07:24:06.921Z</time></trkpt><trkpt lat="45.7070318" lon="12.6058991"><ele>1.3333333333333333</ele><time>2026-03-29T07:24:07.907Z</time></trkpt><trkpt lat="45.7071663" lon="12.6057301"><ele>1.6666666666666665</ele><time>2026-03-29T07:24:08.911Z</time></trkpt><trkpt lat="45.707306" lon="12.6055791"><ele>2.0</ele><time>2026-03-29T07:24:09.914Z</time></trkpt><trkpt lat="45.7074441" lon="12.6054355"><ele>2.0</ele><time>2026-03-29T07:24:10.903Z</time></trkpt><trkpt lat="45.7075868" lon="12.6053124"><ele>2.0</ele><time>2026-03-29T07:24:11.914Z</time></trkpt><trkpt lat="45.7077235" lon="12.6051889"><ele>2.0</ele><time>2026-03-29T07:24:12.899Z</time></trkpt><trkpt lat="45.7078516" lon="12.6050614"><ele>1.75</ele><time>2026-03-29T07:24:13.915Z</time></trkpt><trkpt lat="45.7079773" lon="12.6049472"><ele>1.5</ele><time>2026-03-29T07:24:14.906Z</time></trkpt><trkpt lat="45.708093" lon="12.6048521"><ele>1.25</ele><time>2026-03-29T07:24:15.926Z</time></trkpt><trkpt lat="45.7081978" lon="12.6047797"><ele>1.0</ele><time>2026-03-29T07:24:16.895Z</time></trkpt><trkpt lat="45.7083008" lon="12.6047239"><ele>1.0</ele><time>2026-03-29T07:24:17.907Z</time></trkpt><trkpt lat="45.7084098" lon="12.6047059"><ele>1.0</ele><time>2026-03-29T07:24:18.905Z</time></trkpt><trkpt lat="45.7085223" lon="12.6047061"><ele>1.0</ele><time>2026-03-29T07:24:19.896Z</time></trkpt><trkpt lat="45.708639" lon="12.6046709"><ele>1.0</ele><time>2026-03-29T07:24:20.907Z</time></trkpt><trkpt lat="45.7087619" lon="12.6046238"><ele>1.0</ele><time>2026-03-29T07:24:21.9Z</time></trkpt><trkpt lat="45.7088795" lon="12.6045269"><ele>1.0</ele><time>2026-03-29T07:24:22.903Z</time></trkpt><trkpt lat="45.7089945" lon="12.6044087"><ele>1.0</ele><time>2026-03-29T07:24:23.908Z</time></trkpt><trkpt lat="45.7091212" lon="12.6042982"><ele>1.0</ele><time>2026-03-29T07:24:24.914Z</time></trkpt><trkpt lat="45.7092608" lon="12.6041997"><ele>0.6666666666666666</ele><time>2026-03-29T07:24:25.916Z</time></trkpt><trkpt lat="45.7094141" lon="12.6041257"><ele>0.3333333333333333</ele><time>2026-03-29T07:24:26.942Z</time></trkpt><trkpt lat="45.7095678" lon="12.6040572"><ele>0.0</ele><time>2026-03-29T07:24:27.907Z</time></trkpt><trkpt lat="45.709713" lon="12.6039832"><ele>0.0</ele><time>2026-03-29T07:24:28.93Z</time></trkpt><trkpt lat="45.7098443" lon="12.6039053"><ele>0.0</ele><time>2026-03-29T07:24:29.92Z</time></trkpt><trkpt lat="45.709965" lon="12.6038266"><ele>0.0</ele><time>2026-03-29T07:24:30.9Z</time></trkpt><trkpt lat="45.7100851" lon="12.6037709"><ele>0.0</ele><time>2026-03-29T07:24:31.911Z</time></trkpt><trkpt lat="45.7102038" lon="12.6037315"><ele>0.2</ele><time>2026-03-29T07:24:32.912Z</time></trkpt><trkpt lat="45.7103176" lon="12.6037071"><ele>0.4</ele><time>2026-03-29T07:24:33.919Z</time></trkpt><trkpt lat="45.7104166" lon="12.6036897"><ele>0.6000000000000001</ele><time>2026-03-29T07:24:34.904Z</time></trkpt><trkpt lat="45.7104998" lon="12.6036855"><ele>0.8</ele><time>2026-03-29T07:24:35.911Z</time></trkpt><trkpt lat="45.7105723" lon="12.6036837"><ele>1.0</ele><time>2026-03-29T07:24:36.919Z</time></trkpt><trkpt lat="45.7106809" lon="12.6036986"><ele>0.9999999999999999</ele><time>2026-03-29T07:24:38.912Z</time></trkpt><trkpt lat="45.7107261" lon="12.6037745"><ele>1.0</ele><time>2026-03-29T07:24:40.904Z</time></trkpt><trkpt lat="45.7107651" lon="12.6038569"><ele>1.0</ele><time>2026-03-29T07:24:42.926Z</time></trkpt><trkpt lat="45.7107983" lon="12.6039503"><ele>1.0</ele><time>2026-03-29T07:24:44.909Z</time></trkpt><trkpt lat="45.7108682" lon="12.6040646"><ele>0.9999999999999999</ele><time>2026-03-29T07:24:48.906Z</time></trkpt><trkpt lat="45.7109373" lon="12.6039905"><ele>1.0</ele><time>2026-03-29T07:26:11.921Z</time></trkpt><trkpt lat="45.7108965" lon="12.6040668"><ele>0.9999999999999999</ele><time>2026-03-29T07:28:01.882Z</time></trkpt><trkpt lat="45.7109638" lon="12.60399"><ele>1.0</ele><time>2026-03-29T07:31:57.912Z</time></trkpt><trkpt lat="45.7110509" lon="12.6039682"><ele>1.0</ele><time>2026-03-29T07:32:03.918Z</time></trkpt><trkpt lat="45.7111217" lon="12.6039139"><ele>1.0</ele><time>2026-03-29T07:33:03.93Z</time></trkpt><trkpt lat="45.7111677" lon="12.6038401"><ele>0.9999999999999999</ele><time>2026-03-29T07:33:05.922Z</time></trkpt><trkpt lat="45.7112409" lon="12.6037515"><ele>1.0</ele><time>2026-03-29T07:33:07.918Z</time></trkpt><trkpt lat="45.7113312" lon="12.6037089"><ele>1.2000000000000002</ele><time>2026-03-29T07:33:09.924Z</time></trkpt><trkpt lat="45.7114094" lon="12.6037121"><ele>1.4000000000000001</ele><time>2026-03-29T07:33:10.914Z</time></trkpt><trkpt lat="45.7115082" lon="12.6037135"><ele>1.6</ele><time>2026-03-29T07:33:11.915Z</time></trkpt><trkpt lat="45.7116173" lon="12.6037157"><ele>1.8</ele><time>2026-03-29T07:33:12.931Z</time></trkpt><trkpt lat="45.7117351" lon="12.6037171"><ele>2.0</ele><time>2026-03-29T07:33:13.927Z</time></trkpt><trkpt lat="45.7118553" lon="12.6037186"><ele>2.25</ele><time>2026-03-29T07:33:14.941Z</time></trkpt><trkpt lat="45.7119852" lon="12.6037032"><ele>2.5</ele><time>2026-03-29T07:33:15.92Z</time></trkpt><trkpt lat="45.7121238" lon="12.6036846"><ele>2.75</ele><time>2026-03-29T07:33:16.919Z</time></trkpt><trkpt lat="45.7122684" lon="12.6036501"><ele>3.0</ele><time>2026-03-29T07:33:17.909Z</time></trkpt><trkpt lat="45.7124176" lon="12.6036032"><ele>2.3333333333333335</ele><time>2026-03-29T07:33:18.919Z</time></trkpt><trkpt lat="45.7125712" lon="12.6035502"><ele>1.6666666666666665</ele><time>2026-03-29T07:33:19.916Z</time></trkpt><trkpt lat="45.7127267" lon="12.6034831"><ele>1.0</ele><time>2026-03-29T07:33:20.927Z</time></trkpt><trkpt lat="45.7128856" lon="12.6033966"><ele>0.6666666666666666</ele><time>2026-03-29T07:33:21.927Z</time></trkpt><trkpt lat="45.7130398" lon="12.6032928"><ele>0.3333333333333333</ele><time>2026-03-29T07:33:22.922Z</time></trkpt><trkpt lat="45.7131931" lon="12.6031872"><ele>0.0</ele><time>2026-03-29T07:33:23.928Z</time></trkpt><trkpt lat="45.7133348" lon="12.6030649"><ele>0.0</ele><time>2026-03-29T07:33:24.923Z</time></trkpt><trkpt lat="45.7134678" lon="12.6029353"><ele>0.0</ele><time>2026-03-29T07:33:25.924Z</time></trkpt><trkpt lat="45.7135944" lon="12.6028022"><ele>0.0</ele><time>2026-03-29T07:33:26.926Z</time></trkpt><trkpt lat="45.7137105" lon="12.6026597"><ele>0.5</ele><time>2026-03-29T07:33:27.943Z</time></trkpt><trkpt lat="45.7138229" lon="12.6025205"><ele>1.0</ele><time>2026-03-29T07:33:28.94Z</time></trkpt><trkpt lat="45.7139308" lon="12.6023782"><ele>1.5</ele><time>2026-03-29T07:33:29.961Z</time></trkpt><trkpt lat="45.7140428" lon="12.6022345"><ele>2.0</ele><time>2026-03-29T07:33:30.923Z</time></trkpt><trkpt lat="45.7141615" lon="12.6020914"><ele>2.0</ele><time>2026-03-29T07:33:31.949Z</time></trkpt><trkpt lat="45.7142845" lon="12.6019434"><ele>2.0</ele><time>2026-03-29T07:33:32.938Z</time></trkpt><trkpt lat="45.71441" lon="12.6017909"><ele>2.0</ele><time>2026-03-29T07:33:33.938Z</time></trkpt><trkpt lat="45.7145375" lon="12.6016377"><ele>1.3333333333333333</ele><time>2026-03-29T07:33:34.949Z</time></trkpt><trkpt lat="45.714667" lon="12.6014858"><ele>0.6666666666666666</ele><time>2026-03-29T07:33:35.95Z</time></trkpt><trkpt lat="45.7148008" lon="12.6013395"><ele>0.0</ele><time>2026-03-29T07:33:36.94Z</time></trkpt><trkpt lat="45.7149341" lon="12.6011919"><ele>0.0</ele><time>2026-03-29T07:33:37.938Z</time></trkpt><trkpt lat="45.7150693" lon="12.6010483"><ele>0.0</ele><time>2026-03-29T07:33:38.922Z</time></trkpt><trkpt lat="45.7152149" lon="12.6009252"><ele>0.0</ele><time>2026-03-29T07:33:39.951Z</time></trkpt><trkpt lat="45.715367" lon="12.6008196"><ele>0.0</ele><time>2026-03-29T07:33:40.925Z</time></trkpt><trkpt lat="45.7155167" lon="12.6007128"><ele>0.0</ele><time>2026-03-29T07:33:41.938Z</time></trkpt><trkpt lat="45.7156715" lon="12.6006195"><ele>0.0</ele><time>2026-03-29T07:33:42.947Z</time></trkpt><trkpt lat="45.71583" lon="12.6005403"><ele>0.0</ele><time>2026-03-29T07:33:43.93Z</time></trkpt><trkpt lat="45.715993" lon="12.6004773"><ele>0.0</ele><time>2026-03-29T07:33:44.928Z</time></trkpt><trkpt lat="45.71616" lon="12.6004317"><ele>0.0</ele><time>2026-03-29T07:33:45.944Z</time></trkpt><trkpt lat="45.7163263" lon="12.6003843"><ele>0.3333333333333333</ele><time>2026-03-29T07:33:46.941Z</time></trkpt><trkpt lat="45.7165" lon="12.6003698"><ele>0.6666666666666666</ele><time>2026-03-29T07:33:47.941Z</time></trkpt><trkpt lat="45.7166811" lon="12.6003733"><ele>1.0</ele><time>2026-03-29T07:33:48.955Z</time></trkpt><trkpt lat="45.7168653" lon="12.6003781"><ele>1.3333333333333333</ele><time>2026-03-29T07:33:49.937Z</time></trkpt><trkpt lat="45.7170483" lon="12.6004154"><ele>1.6666666666666665</ele><time>2026-03-29T07:33:50.919Z</time></trkpt><trkpt lat="45.7172261" lon="12.6004681"><ele>2.0</ele><time>2026-03-29T07:33:51.946Z</time></trkpt><trkpt lat="45.7173989" lon="12.600555"><ele>2.0</ele><time>2026-03-29T07:33:52.951Z</time></trkpt><trkpt lat="45.7175708" lon="12.6006441"><ele>2.0</ele><time>2026-03-29T07:33:53.942Z</time></trkpt><trkpt lat="45.7177438" lon="12.6007338"><ele>2.0</ele><time>2026-03-29T07:33:54.936Z</time></trkpt><trkpt lat="45.7179139" lon="12.6008334"><ele>2.0</ele><time>2026-03-29T07:33:55.946Z</time></trkpt><trkpt lat="45.718086" lon="12.6009189"><ele>2.0</ele><time>2026-03-29T07:33:56.943Z</time></trkpt><trkpt lat="45.7182638" lon="12.6009957"><ele>2.0</ele><time>2026-03-29T07:33:57.946Z</time></trkpt><trkpt lat="45.7184385" lon="12.6010828"><ele>2.0</ele><time>2026-03-29T07:33:58.949Z</time></trkpt><trkpt lat="45.7186108" lon="12.6011647"><ele>2.0</ele><time>2026-03-29T07:33:59.951Z</time></trkpt><trkpt lat="45.7187734" lon="12.6012668"><ele>2.0</ele><time>2026-03-29T07:34:00.939Z</time></trkpt><trkpt lat="45.7189449" lon="12.6013131"><ele>1.6666666666666665</ele><time>2026-03-29T07:34:01.939Z</time></trkpt><trkpt lat="45.7191048" lon="12.6013851"><ele>1.3333333333333333</ele><time>2026-03-29T07:34:02.943Z</time></trkpt><trkpt lat="45.719252" lon="12.6014813"><ele>1.0</ele><time>2026-03-29T07:34:03.945Z</time></trkpt><trkpt lat="45.719411" lon="12.6015274"><ele>1.0</ele><time>2026-03-29T07:34:04.947Z</time></trkpt><trkpt lat="45.7195593" lon="12.6015915"><ele>1.0</ele><time>2026-03-29T07:34:05.956Z</time></trkpt><trkpt lat="45.7197063" lon="12.6016476"><ele>1.0</ele><time>2026-03-29T07:34:06.94Z</time></trkpt><trkpt lat="45.7198245" lon="12.6017295"><ele>1.0</ele><time>2026-03-29T07:34:07.945Z</time></trkpt><trkpt lat="45.7199228" lon="12.6017832"><ele>0.9999999999999999</ele><time>2026-03-29T07:34:08.944Z</time></trkpt><trkpt lat="45.7200052" lon="12.6018356"><ele>1.0</ele><time>2026-03-29T07:34:09.954Z</time></trkpt><trkpt lat="45.7200619" lon="12.6019402"><ele>1.0</ele><time>2026-03-29T07:34:10.949Z</time></trkpt><trkpt lat="45.7201102" lon="12.602051"><ele>1.0</ele><time>2026-03-29T07:34:11.949Z</time></trkpt><trkpt lat="45.7201781" lon="12.6021283"><ele>0.9999999999999999</ele><time>2026-03-29T07:34:12.921Z</time></trkpt><trkpt lat="45.7202516" lon="12.6021619"><ele>1.0</ele><time>2026-03-29T07:34:13.92Z</time></trkpt><trkpt lat="45.7203653" lon="12.6021217"><ele>1.3333333333333333</ele><time>2026-03-29T07:34:15.941Z</time></trkpt><trkpt lat="45.7203956" lon="12.6020387"><ele>1.6666666666666665</ele><time>2026-03-29T07:34:16.952Z</time></trkpt><trkpt lat="45.7204069" lon="12.6019292"><ele>2.0</ele><time>2026-03-29T07:34:17.915Z</time></trkpt><trkpt lat="45.7203809" lon="12.6017996"><ele>2.3333333333333335</ele><time>2026-03-29T07:34:18.939Z</time></trkpt><trkpt lat="45.7203428" lon="12.6016801"><ele>2.6666666666666665</ele><time>2026-03-29T07:34:19.945Z</time></trkpt><trkpt lat="45.7203247" lon="12.6015481"><ele>3.0</ele><time>2026-03-29T07:34:20.938Z</time></trkpt><trkpt lat="45.7203063" lon="12.6014084"><ele>3.0</ele><time>2026-03-29T07:34:21.941Z</time></trkpt><trkpt lat="45.7203093" lon="12.6012577"><ele>3.0</ele><time>2026-03-29T07:34:22.945Z</time></trkpt><trkpt lat="45.7203079" lon="12.6011023"><ele>3.0</ele><time>2026-03-29T07:34:23.96Z</time></trkpt><trkpt lat="45.720361" lon="12.6009461"><ele>3.0</ele><time>2026-03-29T07:34:24.953Z</time></trkpt><trkpt lat="45.7204167" lon="12.6007856"><ele>2.75</ele><time>2026-03-29T07:34:25.918Z</time></trkpt><trkpt lat="45.720491" lon="12.6006243"><ele>2.5</ele><time>2026-03-29T07:34:26.934Z</time></trkpt><trkpt lat="45.7205496" lon="12.6004405"><ele>2.25</ele><time>2026-03-29T07:34:27.944Z</time></trkpt><trkpt lat="45.7206093" lon="12.6002359"><ele>2.0</ele><time>2026-03-29T07:34:28.939Z</time></trkpt><trkpt lat="45.7206696" lon="12.6000233"><ele>2.6666666666666665</ele><time>2026-03-29T07:34:29.943Z</time></trkpt><trkpt lat="45.7207337" lon="12.599809"><ele>3.333333333333333</ele><time>2026-03-29T07:34:30.942Z</time></trkpt><trkpt lat="45.7208007" lon="12.5995948"><ele>4.0</ele><time>2026-03-29T07:34:31.956Z</time></trkpt><trkpt lat="45.720862" lon="12.5993702"><ele>4.333333333333333</ele><time>2026-03-29T07:34:32.939Z</time></trkpt><trkpt lat="45.7209276" lon="12.5991462"><ele>4.666666666666667</ele><time>2026-03-29T07:34:33.939Z</time></trkpt><trkpt lat="45.7209958" lon="12.5989165"><ele>5.0</ele><time>2026-03-29T07:34:34.935Z</time></trkpt><trkpt lat="45.7210674" lon="12.5986828"><ele>4.0</ele><time>2026-03-29T07:34:35.939Z</time></trkpt><trkpt lat="45.7211432" lon="12.5984415"><ele>3.0</ele><time>2026-03-29T07:34:36.939Z</time></trkpt><trkpt lat="45.7212216" lon="12.5981966"><ele>2.0</ele><time>2026-03-29T07:34:37.945Z</time></trkpt><trkpt lat="45.7212996" lon="12.5979474"><ele>2.333333333333333</ele><time>2026-03-29T07:34:38.928Z</time></trkpt><trkpt lat="45.7213883" lon="12.5977049"><ele>2.6666666666666665</ele><time>2026-03-29T07:34:39.939Z</time></trkpt><trkpt lat="45.7214701" lon="12.5974551"><ele>3.0</ele><time>2026-03-29T07:34:40.952Z</time></trkpt><trkpt lat="45.7215506" lon="12.5972046"><ele>3.0</ele><time>2026-03-29T07:34:41.931Z</time></trkpt><trkpt lat="45.7216184" lon="12.5969492"><ele>3.0</ele><time>2026-03-29T07:34:42.911Z</time></trkpt><trkpt lat="45.7216928" lon="12.5967053"><ele>3.0</ele><time>2026-03-29T07:34:43.939Z</time></trkpt><trkpt lat="45.7217677" lon="12.5964668"><ele>3.0</ele><time>2026-03-29T07:34:44.951Z</time></trkpt><trkpt lat="45.7218427" lon="12.5962316"><ele>3.0</ele><time>2026-03-29T07:34:45.952Z</time></trkpt><trkpt lat="45.7219156" lon="12.5959959"><ele>3.0</ele><time>2026-03-29T07:34:46.937Z</time></trkpt><trkpt lat="45.721988" lon="12.5957596"><ele>3.0</ele><time>2026-03-29T07:34:47.938Z</time></trkpt><trkpt lat="45.7220606" lon="12.595524"><ele>3.0</ele><time>2026-03-29T07:34:48.942Z</time></trkpt><trkpt lat="45.7221329" lon="12.5952898"><ele>3.0</ele><time>2026-03-29T07:34:49.942Z</time></trkpt><trkpt lat="45.7222071" lon="12.5950594"><ele>3.333333333333333</ele><time>2026-03-29T07:34:50.939Z</time></trkpt><trkpt lat="45.7222856" lon="12.5948351"><ele>3.6666666666666665</ele><time>2026-03-29T07:34:51.942Z</time></trkpt><trkpt lat="45.7223712" lon="12.5946186"><ele>4.0</ele><time>2026-03-29T07:34:52.935Z</time></trkpt><trkpt lat="45.7224547" lon="12.5944087"><ele>4.0</ele><time>2026-03-29T07:34:53.94Z</time></trkpt><trkpt lat="45.7225374" lon="12.5942024"><ele>4.0</ele><time>2026-03-29T07:34:54.92Z</time></trkpt><trkpt lat="45.7226234" lon="12.5939988"><ele>4.0</ele><time>2026-03-29T07:34:55.94Z</time></trkpt><trkpt lat="45.7227064" lon="12.5937961"><ele>3.6666666666666665</ele><time>2026-03-29T07:34:56.947Z</time></trkpt><trkpt lat="45.7227902" lon="12.5935954"><ele>3.333333333333333</ele><time>2026-03-29T07:34:57.958Z</time></trkpt><trkpt lat="45.7228697" lon="12.5933877"><ele>3.0</ele><time>2026-03-29T07:34:58.943Z</time></trkpt><trkpt lat="45.7229492" lon="12.5931811"><ele>3.0</ele><time>2026-03-29T07:34:59.947Z</time></trkpt><trkpt lat="45.723031" lon="12.5929754"><ele>3.0</ele><time>2026-03-29T07:35:00.94Z</time></trkpt><trkpt lat="45.7231178" lon="12.5927743"><ele>3.0</ele><time>2026-03-29T07:35:01.948Z</time></trkpt><trkpt lat="45.7231941" lon="12.5925632"><ele>2.6666666666666665</ele><time>2026-03-29T07:35:02.923Z</time></trkpt><trkpt lat="45.7232675" lon="12.5923489"><ele>2.333333333333333</ele><time>2026-03-29T07:35:03.94Z</time></trkpt><trkpt lat="45.7233384" lon="12.5921341"><ele>2.0</ele><time>2026-03-29T07:35:04.94Z</time></trkpt><trkpt lat="45.7233995" lon="12.5919145"><ele>2.0</ele><time>2026-03-29T07:35:05.941Z</time></trkpt><trkpt lat="45.7234568" lon="12.5916996"><ele>2.0</ele><time>2026-03-29T07:35:06.927Z</time></trkpt><trkpt lat="45.7235109" lon="12.591493"><ele>2.0</ele><time>2026-03-29T07:35:07.931Z</time></trkpt><trkpt lat="45.7235655" lon="12.5912913"><ele>2.333333333333333</ele><time>2026-03-29T07:35:08.951Z</time></trkpt><trkpt lat="45.7236193" lon="12.5910905"><ele>2.6666666666666665</ele><time>2026-03-29T07:35:09.92Z</time></trkpt><trkpt lat="45.7236695" lon="12.5908864"><ele>3.0</ele><time>2026-03-29T07:35:10.91Z</time></trkpt><trkpt lat="45.7237158" lon="12.5906825"><ele>3.0</ele><time>2026-03-29T07:35:11.946Z</time></trkpt><trkpt lat="45.7237617" lon="12.5904787"><ele>3.0</ele><time>2026-03-29T07:35:12.916Z</time></trkpt><trkpt lat="45.7238083" lon="12.5902756"><ele>3.0</ele><time>2026-03-29T07:35:13.922Z</time></trkpt><trkpt lat="45.7238572" lon="12.5900744"><ele>3.0</ele><time>2026-03-29T07:35:14.938Z</time></trkpt><trkpt lat="45.7239073" lon="12.5898751"><ele>3.0</ele><time>2026-03-29T07:35:15.942Z</time></trkpt><trkpt lat="45.7239558" lon="12.5896759"><ele>3.0</ele><time>2026-03-29T07:35:16.947Z</time></trkpt><trkpt lat="45.7240156" lon="12.5894805"><ele>3.0</ele><time>2026-03-29T07:35:17.937Z</time></trkpt><trkpt lat="45.7240693" lon="12.5892823"><ele>3.0</ele><time>2026-03-29T07:35:18.955Z</time></trkpt><trkpt lat="45.7241208" lon="12.5890825"><ele>3.0</ele><time>2026-03-29T07:35:19.932Z</time></trkpt><trkpt lat="45.7241725" lon="12.5888814"><ele>3.0</ele><time>2026-03-29T07:35:20.936Z</time></trkpt><trkpt lat="45.7242209" lon="12.588679"><ele>3.0</ele><time>2026-03-29T07:35:21.931Z</time></trkpt><trkpt lat="45.7242813" lon="12.5884791"><ele>3.0</ele><time>2026-03-29T07:35:22.942Z</time></trkpt><trkpt lat="45.7243369" lon="12.5882784"><ele>3.0</ele><time>2026-03-29T07:35:23.915Z</time></trkpt><trkpt lat="45.7243922" lon="12.5880748"><ele>3.0</ele><time>2026-03-29T07:35:24.921Z</time></trkpt><trkpt lat="45.7244556" lon="12.587875"><ele>3.333333333333333</ele><time>2026-03-29T07:35:25.921Z</time></trkpt><trkpt lat="45.7245287" lon="12.587679"><ele>3.6666666666666665</ele><time>2026-03-29T07:35:26.932Z</time></trkpt><trkpt lat="45.724584" lon="12.5874753"><ele>4.0</ele><time>2026-03-29T07:35:27.934Z</time></trkpt><trkpt lat="45.7246403" lon="12.5872729"><ele>4.0</ele><time>2026-03-29T07:35:28.931Z</time></trkpt><trkpt lat="45.7246857" lon="12.5870654"><ele>4.0</ele><time>2026-03-29T07:35:29.947Z</time></trkpt><trkpt lat="45.7247321" lon="12.5868606"><ele>4.0</ele><time>2026-03-29T07:35:30.925Z</time></trkpt><trkpt lat="45.7247788" lon="12.5866608"><ele>4.0</ele><time>2026-03-29T07:35:31.942Z</time></trkpt><trkpt lat="45.7248332" lon="12.5864658"><ele>4.0</ele><time>2026-03-29T07:35:32.907Z</time></trkpt><trkpt lat="45.7248844" lon="12.5862758"><ele>4.0</ele><time>2026-03-29T07:35:33.924Z</time></trkpt><trkpt lat="45.7249316" lon="12.5860943"><ele>4.0</ele><time>2026-03-29T07:35:34.939Z</time></trkpt><trkpt lat="45.7249722" lon="12.5859152"><ele>4.0</ele><time>2026-03-29T07:35:35.939Z</time></trkpt><trkpt lat="45.7250147" lon="12.5857452"><ele>4.0</ele><time>2026-03-29T07:35:36.95Z</time></trkpt><trkpt lat="45.7250649" lon="12.5855886"><ele>4.0</ele><time>2026-03-29T07:35:37.948Z</time></trkpt><trkpt lat="45.7251147" lon="12.5854376"><ele>4.0</ele><time>2026-03-29T07:35:38.932Z</time></trkpt><trkpt lat="45.7251874" lon="12.5853089"><ele>4.0</ele><time>2026-03-29T07:35:39.922Z</time></trkpt><trkpt lat="45.7252711" lon="12.5851983"><ele>4.5</ele><time>2026-03-29T07:35:40.955Z</time></trkpt><trkpt lat="45.7253646" lon="12.5851006"><ele>5.0</ele><time>2026-03-29T07:35:41.94Z</time></trkpt><trkpt lat="45.725475" lon="12.58503"><ele>5.5</ele><time>2026-03-29T07:35:42.923Z</time></trkpt><trkpt lat="45.7255917" lon="12.5849769"><ele>6.0</ele><time>2026-03-29T07:35:43.909Z</time></trkpt><trkpt lat="45.7257071" lon="12.584934"><ele>6.0</ele><time>2026-03-29T07:35:44.94Z</time></trkpt><trkpt lat="45.7258215" lon="12.5848907"><ele>6.0</ele><time>2026-03-29T07:35:45.92Z</time></trkpt><trkpt lat="45.725934" lon="12.5848155"><ele>6.0</ele><time>2026-03-29T07:35:46.915Z</time></trkpt><trkpt lat="45.7260534" lon="12.5847585"><ele>6.0</ele><time>2026-03-29T07:35:47.927Z</time></trkpt><trkpt lat="45.7261741" lon="12.5847049"><ele>5.75</ele><time>2026-03-29T07:35:48.934Z</time></trkpt><trkpt lat="45.7262895" lon="12.5846478"><ele>5.5</ele><time>2026-03-29T07:35:49.924Z</time></trkpt><trkpt lat="45.7264063" lon="12.5846068"><ele>5.25</ele><time>2026-03-29T07:35:50.933Z</time></trkpt><trkpt lat="45.7265165" lon="12.5845473"><ele>5.0</ele><time>2026-03-29T07:35:51.922Z</time></trkpt><trkpt lat="45.7266211" lon="12.5844934"><ele>5.0</ele><time>2026-03-29T07:35:52.917Z</time></trkpt><trkpt lat="45.7267217" lon="12.5844539"><ele>5.0</ele><time>2026-03-29T07:35:53.907Z</time></trkpt><trkpt lat="45.7268233" lon="12.58441"><ele>5.0</ele><time>2026-03-29T07:35:54.93Z</time></trkpt><trkpt lat="45.7269277" lon="12.5843645"><ele>5.0</ele><time>2026-03-29T07:35:55.929Z</time></trkpt><trkpt lat="45.7270369" lon="12.5843308"><ele>5.0</ele><time>2026-03-29T07:35:56.927Z</time></trkpt><trkpt lat="45.7271378" lon="12.5842611"><ele>5.0</ele><time>2026-03-29T07:35:57.962Z</time></trkpt><trkpt lat="45.7272448" lon="12.5842108"><ele>5.0</ele><time>2026-03-29T07:35:58.93Z</time></trkpt><trkpt lat="45.7273532" lon="12.5841557"><ele>5.0</ele><time>2026-03-29T07:35:59.935Z</time></trkpt><trkpt lat="45.7274672" lon="12.5841036"><ele>5.0</ele><time>2026-03-29T07:36:00.931Z</time></trkpt><trkpt lat="45.727585" lon="12.584052"><ele>5.0</ele><time>2026-03-29T07:36:01.922Z</time></trkpt><trkpt lat="45.7277035" lon="12.5840001"><ele>5.0</ele><time>2026-03-29T07:36:02.934Z</time></trkpt><trkpt lat="45.7278259" lon="12.5839558"><ele>5.0</ele><time>2026-03-29T07:36:03.935Z</time></trkpt><trkpt lat="45.7279482" lon="12.5839042"><ele>5.0</ele><time>2026-03-29T07:36:04.924Z</time></trkpt><trkpt lat="45.7280696" lon="12.5838447"><ele>5.25</ele><time>2026-03-29T07:36:05.938Z</time></trkpt><trkpt lat="45.7281907" lon="12.5837849"><ele>5.5</ele><time>2026-03-29T07:36:06.925Z</time></trkpt><trkpt lat="45.7283145" lon="12.5837283"><ele>5.75</ele><time>2026-03-29T07:36:07.918Z</time></trkpt><trkpt lat="45.7284409" lon="12.5836661"><ele>6.0</ele><time>2026-03-29T07:36:08.942Z</time></trkpt><trkpt lat="45.7285696" lon="12.5836021"><ele>6.5</ele><time>2026-03-29T07:36:09.931Z</time></trkpt><trkpt lat="45.7286966" lon="12.5835298"><ele>7.0</ele><time>2026-03-29T07:36:10.926Z</time></trkpt><trkpt lat="45.7288235" lon="12.5834518"><ele>7.5</ele><time>2026-03-29T07:36:11.948Z</time></trkpt><trkpt lat="45.7289447" lon="12.5833667"><ele>8.0</ele><time>2026-03-29T07:36:12.941Z</time></trkpt><trkpt lat="45.7290571" lon="12.5832763"><ele>8.0</ele><time>2026-03-29T07:36:13.919Z</time></trkpt><trkpt lat="45.7291615" lon="12.583178"><ele>8.0</ele><time>2026-03-29T07:36:14.933Z</time></trkpt><trkpt lat="45.7292527" lon="12.5830735"><ele>8.0</ele><time>2026-03-29T07:36:15.926Z</time></trkpt><trkpt lat="45.7293319" lon="12.5829705"><ele>8.0</ele><time>2026-03-29T07:36:16.915Z</time></trkpt><trkpt lat="45.72941" lon="12.5828868"><ele>8.0</ele><time>2026-03-29T07:36:17.914Z</time></trkpt><trkpt lat="45.7294876" lon="12.5828205"><ele>7.666666666666666</ele><time>2026-03-29T07:36:18.931Z</time></trkpt><trkpt lat="45.7295575" lon="12.5827534"><ele>7.333333333333333</ele><time>2026-03-29T07:36:19.918Z</time></trkpt><trkpt lat="45.7296196" lon="12.582682"><ele>7.0</ele><time>2026-03-29T07:36:20.946Z</time></trkpt><trkpt lat="45.7296579" lon="12.5825739"><ele>6.666666666666666</ele><time>2026-03-29T07:36:21.948Z</time></trkpt><trkpt lat="45.7296724" lon="12.5824494"><ele>6.333333333333333</ele><time>2026-03-29T07:36:22.944Z</time></trkpt><trkpt lat="45.7297053" lon="12.5823119"><ele>6.0</ele><time>2026-03-29T07:36:23.955Z</time></trkpt><trkpt lat="45.7297369" lon="12.5821662"><ele>6.0</ele><time>2026-03-29T07:36:24.945Z</time></trkpt><trkpt lat="45.729778" lon="12.582019"><ele>6.0</ele><time>2026-03-29T07:36:25.949Z</time></trkpt><trkpt lat="45.7298238" lon="12.5818691"><ele>6.0</ele><time>2026-03-29T07:36:26.952Z</time></trkpt><trkpt lat="45.7298626" lon="12.5817123"><ele>6.0</ele><time>2026-03-29T07:36:27.955Z</time></trkpt><trkpt lat="45.7298978" lon="12.5815573"><ele>6.0</ele><time>2026-03-29T07:36:28.941Z</time></trkpt><trkpt lat="45.729926" lon="12.5814054"><ele>6.0</ele><time>2026-03-29T07:36:29.898Z</time></trkpt><trkpt lat="45.7299532" lon="12.5812546"><ele>6.0</ele><time>2026-03-29T07:36:30.932Z</time></trkpt><trkpt lat="45.7299848" lon="12.5811059"><ele>6.0</ele><time>2026-03-29T07:36:31.92Z</time></trkpt><trkpt lat="45.730012" lon="12.5809573"><ele>6.0</ele><time>2026-03-29T07:36:32.929Z</time></trkpt><trkpt lat="45.7300359" lon="12.5808101"><ele>5.833333333333333</ele><time>2026-03-29T07:36:33.929Z</time></trkpt><trkpt lat="45.7300592" lon="12.5806684"><ele>5.666666666666667</ele><time>2026-03-29T07:36:34.93Z</time></trkpt><trkpt lat="45.7300794" lon="12.5805473"><ele>5.5</ele><time>2026-03-29T07:36:35.923Z</time></trkpt><trkpt lat="45.7300993" lon="12.58046"><ele>5.333333333333334</ele><time>2026-03-29T07:36:36.927Z</time></trkpt><trkpt lat="45.7301318" lon="12.5803619"><ele>5.166666666666667</ele><time>2026-03-29T07:36:38.929Z</time></trkpt><trkpt lat="45.7301712" lon="12.5802298"><ele>5.0</ele><time>2026-03-29T07:38:05.939Z</time></trkpt><trkpt lat="45.7301828" lon="12.58003"><ele>5.0</ele><time>2026-03-29T07:38:09.912Z</time></trkpt><trkpt lat="45.730214" lon="12.5798403"><ele>5.0</ele><time>2026-03-29T07:38:11.909Z</time></trkpt><trkpt lat="45.7302385" lon="12.5797189"><ele>5.0</ele><time>2026-03-29T07:38:12.932Z</time></trkpt><trkpt lat="45.7302655" lon="12.579578"><ele>5.0</ele><time>2026-03-29T07:38:13.909Z</time></trkpt><trkpt lat="45.7302902" lon="12.5794245"><ele>5.0</ele><time>2026-03-29T07:38:14.932Z</time></trkpt><trkpt lat="45.7303181" lon="12.5792637"><ele>5.25</ele><time>2026-03-29T07:38:15.915Z</time></trkpt><trkpt lat="45.7303493" lon="12.5790931"><ele>5.5</ele><time>2026-03-29T07:38:16.911Z</time></trkpt><trkpt lat="45.7303624" lon="12.5789106"><ele>5.75</ele><time>2026-03-29T07:38:17.915Z</time></trkpt><trkpt lat="45.7303835" lon="12.5787238"><ele>6.0</ele><time>2026-03-29T07:38:18.909Z</time></trkpt><trkpt lat="45.730415" lon="12.5785291"><ele>6.0</ele><time>2026-03-29T07:38:19.908Z</time></trkpt><trkpt lat="45.7304529" lon="12.5783272"><ele>6.0</ele><time>2026-03-29T07:38:20.927Z</time></trkpt><trkpt lat="45.7305018" lon="12.5781278"><ele>6.0</ele><time>2026-03-29T07:38:21.909Z</time></trkpt><trkpt lat="45.7305486" lon="12.5779244"><ele>6.0</ele><time>2026-03-29T07:38:22.914Z</time></trkpt><trkpt lat="45.7305854" lon="12.5777146"><ele>5.666666666666667</ele><time>2026-03-29T07:38:23.913Z</time></trkpt><trkpt lat="45.7306258" lon="12.5775012"><ele>5.333333333333334</ele><time>2026-03-29T07:38:24.906Z</time></trkpt><trkpt lat="45.7306685" lon="12.5772901"><ele>5.0</ele><time>2026-03-29T07:38:25.922Z</time></trkpt><trkpt lat="45.7306739" lon="12.577067"><ele>4.666666666666667</ele><time>2026-03-29T07:38:26.92Z</time></trkpt><trkpt lat="45.730689" lon="12.5768454"><ele>4.333333333333333</ele><time>2026-03-29T07:38:27.929Z</time></trkpt><trkpt lat="45.730722" lon="12.5766322"><ele>4.0</ele><time>2026-03-29T07:38:28.969Z</time></trkpt><trkpt lat="45.7307615" lon="12.5764152"><ele>4.0</ele><time>2026-03-29T07:38:29.92Z</time></trkpt><trkpt lat="45.7307948" lon="12.5761973"><ele>4.0</ele><time>2026-03-29T07:38:30.93Z</time></trkpt><trkpt lat="45.7308413" lon="12.5759846"><ele>4.0</ele><time>2026-03-29T07:38:31.941Z</time></trkpt><trkpt lat="45.7308775" lon="12.5757704"><ele>3.6666666666666665</ele><time>2026-03-29T07:38:32.928Z</time></trkpt><trkpt lat="45.7309137" lon="12.5755538"><ele>3.333333333333333</ele><time>2026-03-29T07:38:33.918Z</time></trkpt><trkpt lat="45.7309542" lon="12.5753376"><ele>3.0</ele><time>2026-03-29T07:38:34.928Z</time></trkpt><trkpt lat="45.7309965" lon="12.5751244"><ele>3.0</ele><time>2026-03-29T07:38:35.917Z</time></trkpt><trkpt lat="45.7310394" lon="12.5749111"><ele>3.0</ele><time>2026-03-29T07:38:36.932Z</time></trkpt><trkpt lat="45.7310757" lon="12.5746937"><ele>3.0</ele><time>2026-03-29T07:38:37.943Z</time></trkpt><trkpt lat="45.731115" lon="12.5744755"><ele>3.333333333333333</ele><time>2026-03-29T07:38:38.932Z</time></trkpt><trkpt lat="45.7311541" lon="12.5742568"><ele>3.6666666666666665</ele><time>2026-03-29T07:38:39.925Z</time></trkpt><trkpt lat="45.7311895" lon="12.5740375"><ele>4.0</ele><time>2026-03-29T07:38:40.925Z</time></trkpt><trkpt lat="45.7312233" lon="12.5738191"><ele>4.333333333333333</ele><time>2026-03-29T07:38:41.95Z</time></trkpt><trkpt lat="45.7312614" lon="12.5736026"><ele>4.666666666666667</ele><time>2026-03-29T07:38:42.939Z</time></trkpt><trkpt lat="45.7312962" lon="12.573384"><ele>5.0</ele><time>2026-03-29T07:38:43.954Z</time></trkpt><trkpt lat="45.7313299" lon="12.5731646"><ele>5.0</ele><time>2026-03-29T07:38:44.918Z</time></trkpt><trkpt lat="45.7313662" lon="12.5729469"><ele>5.0</ele><time>2026-03-29T07:38:45.926Z</time></trkpt><trkpt lat="45.7313968" lon="12.5727283"><ele>5.0</ele><time>2026-03-29T07:38:46.916Z</time></trkpt><trkpt lat="45.7314345" lon="12.5725101"><ele>4.666666666666667</ele><time>2026-03-29T07:38:47.931Z</time></trkpt><trkpt lat="45.7314701" lon="12.5722879"><ele>4.333333333333333</ele><time>2026-03-29T07:38:48.925Z</time></trkpt><trkpt lat="45.7315094" lon="12.5720611"><ele>4.0</ele><time>2026-03-29T07:38:49.93Z</time></trkpt><trkpt lat="45.7315432" lon="12.5718262"><ele>4.0</ele><time>2026-03-29T07:38:50.92Z</time></trkpt><trkpt lat="45.7315814" lon="12.5715883"><ele>4.0</ele><time>2026-03-29T07:38:51.945Z</time></trkpt><trkpt lat="45.7316242" lon="12.5713496"><ele>4.0</ele><time>2026-03-29T07:38:52.94Z</time></trkpt><trkpt lat="45.7316636" lon="12.5711111"><ele>4.0</ele><time>2026-03-29T07:38:53.932Z</time></trkpt><trkpt lat="45.7316992" lon="12.5708741"><ele>4.0</ele><time>2026-03-29T07:38:54.915Z</time></trkpt><trkpt lat="45.7317401" lon="12.5706401"><ele>4.0</ele><time>2026-03-29T07:38:55.926Z</time></trkpt><trkpt lat="45.7317791" lon="12.5704073"><ele>3.6666666666666665</ele><time>2026-03-29T07:38:56.919Z</time></trkpt><trkpt lat="45.7318225" lon="12.5701778"><ele>3.333333333333333</ele><time>2026-03-29T07:38:57.923Z</time></trkpt><trkpt lat="45.7318649" lon="12.5699519"><ele>3.0</ele><time>2026-03-29T07:38:58.923Z</time></trkpt><trkpt lat="45.7319164" lon="12.569737"><ele>3.0</ele><time>2026-03-29T07:38:59.922Z</time></trkpt><trkpt lat="45.7319597" lon="12.5695279"><ele>3.0</ele><time>2026-03-29T07:39:00.92Z</time></trkpt><trkpt lat="45.7319957" lon="12.5693244"><ele>3.0</ele><time>2026-03-29T07:39:01.933Z</time></trkpt><trkpt lat="45.7320103" lon="12.569119"><ele>3.0</ele><time>2026-03-29T07:39:02.921Z</time></trkpt><trkpt lat="45.7320526" lon="12.5689358"><ele>3.25</ele><time>2026-03-29T07:39:03.924Z</time></trkpt><trkpt lat="45.7320796" lon="12.5687654"><ele>3.5</ele><time>2026-03-29T07:39:04.927Z</time></trkpt><trkpt lat="45.7321004" lon="12.5686113"><ele>3.75</ele><time>2026-03-29T07:39:05.926Z</time></trkpt><trkpt lat="45.7321262" lon="12.5684619"><ele>4.0</ele><time>2026-03-29T07:39:06.921Z</time></trkpt><trkpt lat="45.7321474" lon="12.5683044"><ele>4.25</ele><time>2026-03-29T07:39:07.935Z</time></trkpt><trkpt lat="45.732168" lon="12.5681357"><ele>4.5</ele><time>2026-03-29T07:39:08.906Z</time></trkpt><trkpt lat="45.7322047" lon="12.5679607"><ele>4.75</ele><time>2026-03-29T07:39:09.934Z</time></trkpt><trkpt lat="45.7322337" lon="12.5677725"><ele>5.0</ele><time>2026-03-29T07:39:10.94Z</time></trkpt><trkpt lat="45.7322586" lon="12.5675691"><ele>5.0</ele><time>2026-03-29T07:39:11.934Z</time></trkpt><trkpt lat="45.7322987" lon="12.5673593"><ele>5.0</ele><time>2026-03-29T07:39:12.916Z</time></trkpt><trkpt lat="45.7323355" lon="12.5671414"><ele>5.0</ele><time>2026-03-29T07:39:13.923Z</time></trkpt><trkpt lat="45.7323766" lon="12.5669196"><ele>4.666666666666667</ele><time>2026-03-29T07:39:14.919Z</time></trkpt><trkpt lat="45.7324082" lon="12.5666895"><ele>4.333333333333333</ele><time>2026-03-29T07:39:15.939Z</time></trkpt><trkpt lat="45.7324491" lon="12.5664567"><ele>4.0</ele><time>2026-03-29T07:39:16.928Z</time></trkpt><trkpt lat="45.7324879" lon="12.5662184"><ele>4.0</ele><time>2026-03-29T07:39:17.93Z</time></trkpt><trkpt lat="45.7325277" lon="12.5659752"><ele>4.0</ele><time>2026-03-29T07:39:18.922Z</time></trkpt><trkpt lat="45.73257" lon="12.5657291"><ele>4.0</ele><time>2026-03-29T07:39:19.94Z</time></trkpt><trkpt lat="45.7326078" lon="12.5654795"><ele>4.0</ele><time>2026-03-29T07:39:20.923Z</time></trkpt><trkpt lat="45.7326506" lon="12.5652275"><ele>4.0</ele><time>2026-03-29T07:39:21.918Z</time></trkpt><trkpt lat="45.732693" lon="12.5649734"><ele>4.0</ele><time>2026-03-29T07:39:22.931Z</time></trkpt><trkpt lat="45.7327329" lon="12.5647189"><ele>4.333333333333333</ele><time>2026-03-29T07:39:23.943Z</time></trkpt><trkpt lat="45.7327774" lon="12.5644772"><ele>4.666666666666667</ele><time>2026-03-29T07:39:24.916Z</time></trkpt><trkpt lat="45.7328299" lon="12.5642424"><ele>5.0</ele><time>2026-03-29T07:39:25.928Z</time></trkpt><trkpt lat="45.7328771" lon="12.5640109"><ele>5.0</ele><time>2026-03-29T07:39:26.935Z</time></trkpt><trkpt lat="45.7328916" lon="12.5637748"><ele>5.0</ele><time>2026-03-29T07:39:27.924Z</time></trkpt><trkpt lat="45.7329356" lon="12.5635482"><ele>5.0</ele><time>2026-03-29T07:39:28.912Z</time></trkpt><trkpt lat="45.7329732" lon="12.563322"><ele>5.0</ele><time>2026-03-29T07:39:29.939Z</time></trkpt><trkpt lat="45.7330075" lon="12.5630967"><ele>5.0</ele><time>2026-03-29T07:39:30.903Z</time></trkpt><trkpt lat="45.7330405" lon="12.5628735"><ele>5.0</ele><time>2026-03-29T07:39:31.943Z</time></trkpt><trkpt lat="45.7330763" lon="12.5626522"><ele>5.0</ele><time>2026-03-29T07:39:32.908Z</time></trkpt><trkpt lat="45.7331299" lon="12.5624356"><ele>5.0</ele><time>2026-03-29T07:39:33.917Z</time></trkpt><trkpt lat="45.7331595" lon="12.5622116"><ele>5.0</ele><time>2026-03-29T07:39:34.93Z</time></trkpt><trkpt lat="45.7331936" lon="12.5619867"><ele>5.0</ele><time>2026-03-29T07:39:35.914Z</time></trkpt><trkpt lat="45.7332318" lon="12.5617596"><ele>5.0</ele><time>2026-03-29T07:39:36.92Z</time></trkpt><trkpt lat="45.7332714" lon="12.56153"><ele>5.0</ele><time>2026-03-29T07:39:37.914Z</time></trkpt><trkpt lat="45.7333131" lon="12.5612979"><ele>5.0</ele><time>2026-03-29T07:39:38.933Z</time></trkpt><trkpt lat="45.7333555" lon="12.561063"><ele>5.0</ele><time>2026-03-29T07:39:39.927Z</time></trkpt><trkpt lat="45.7333964" lon="12.5608254"><ele>5.0</ele><time>2026-03-29T07:39:40.926Z</time></trkpt><trkpt lat="45.7334322" lon="12.5605836"><ele>4.666666666666667</ele><time>2026-03-29T07:39:41.926Z</time></trkpt><trkpt lat="45.7334752" lon="12.5603424"><ele>4.333333333333333</ele><time>2026-03-29T07:39:42.942Z</time></trkpt><trkpt lat="45.7335108" lon="12.5600968"><ele>4.0</ele><time>2026-03-29T07:39:43.914Z</time></trkpt><trkpt lat="45.7335537" lon="12.5598526"><ele>4.333333333333333</ele><time>2026-03-29T07:39:44.913Z</time></trkpt><trkpt lat="45.7335922" lon="12.5596062"><ele>4.666666666666667</ele><time>2026-03-29T07:39:45.954Z</time></trkpt><trkpt lat="45.7336335" lon="12.559361"><ele>5.0</ele><time>2026-03-29T07:39:46.928Z</time></trkpt><trkpt lat="45.7336746" lon="12.5591158"><ele>5.0</ele><time>2026-03-29T07:39:47.928Z</time></trkpt><trkpt lat="45.7337164" lon="12.5588694"><ele>5.0</ele><time>2026-03-29T07:39:48.925Z</time></trkpt><trkpt lat="45.7337565" lon="12.5586216"><ele>5.0</ele><time>2026-03-29T07:39:49.928Z</time></trkpt><trkpt lat="45.7337893" lon="12.5583715"><ele>5.0</ele><time>2026-03-29T07:39:50.916Z</time></trkpt><trkpt lat="45.7338292" lon="12.5581237"><ele>5.0</ele><time>2026-03-29T07:39:51.935Z</time></trkpt><trkpt lat="45.7338699" lon="12.5578766"><ele>5.0</ele><time>2026-03-29T07:39:52.918Z</time></trkpt><trkpt lat="45.7338986" lon="12.5576268"><ele>4.666666666666667</ele><time>2026-03-29T07:39:53.927Z</time></trkpt><trkpt lat="45.7339607" lon="12.5573883"><ele>4.333333333333333</ele><time>2026-03-29T07:39:54.925Z</time></trkpt><trkpt lat="45.7339969" lon="12.5571446"><ele>4.0</ele><time>2026-03-29T07:39:55.936Z</time></trkpt><trkpt lat="45.7340403" lon="12.5569046"><ele>3.6666666666666665</ele><time>2026-03-29T07:39:56.913Z</time></trkpt><trkpt lat="45.7340743" lon="12.556663"><ele>3.333333333333333</ele><time>2026-03-29T07:39:57.924Z</time></trkpt><trkpt lat="45.7341192" lon="12.5564263"><ele>3.0</ele><time>2026-03-29T07:39:58.914Z</time></trkpt><trkpt lat="45.7341625" lon="12.5561896"><ele>3.0</ele><time>2026-03-29T07:39:59.939Z</time></trkpt><trkpt lat="45.7342129" lon="12.555955"><ele>3.0</ele><time>2026-03-29T07:40:00.92Z</time></trkpt><trkpt lat="45.7342692" lon="12.5557197"><ele>3.0</ele><time>2026-03-29T07:40:01.938Z</time></trkpt><trkpt lat="45.7343252" lon="12.5554799"><ele>3.333333333333333</ele><time>2026-03-29T07:40:02.93Z</time></trkpt><trkpt lat="45.7343919" lon="12.5552406"><ele>3.6666666666666665</ele><time>2026-03-29T07:40:03.907Z</time></trkpt><trkpt lat="45.7344526" lon="12.5549946"><ele>4.0</ele><time>2026-03-29T07:40:04.915Z</time></trkpt><trkpt lat="45.7345164" lon="12.5547493"><ele>3.6666666666666665</ele><time>2026-03-29T07:40:05.921Z</time></trkpt><trkpt lat="45.7345819" lon="12.5545036"><ele>3.333333333333333</ele><time>2026-03-29T07:40:06.94Z</time></trkpt><trkpt lat="45.7346473" lon="12.5542593"><ele>3.0</ele><time>2026-03-29T07:40:07.925Z</time></trkpt><trkpt lat="45.7347103" lon="12.5540158"><ele>3.0</ele><time>2026-03-29T07:40:08.941Z</time></trkpt><trkpt lat="45.7347539" lon="12.5537696"><ele>3.0</ele><time>2026-03-29T07:40:09.939Z</time></trkpt><trkpt lat="45.7348219" lon="12.5535376"><ele>3.0</ele><time>2026-03-29T07:40:10.923Z</time></trkpt><trkpt lat="45.7348823" lon="12.5533055"><ele>3.666666666666667</ele><time>2026-03-29T07:40:11.931Z</time></trkpt><trkpt lat="45.7349389" lon="12.5530742"><ele>4.333333333333334</ele><time>2026-03-29T07:40:12.937Z</time></trkpt><trkpt lat="45.7349951" lon="12.5528457"><ele>5.0</ele><time>2026-03-29T07:40:13.933Z</time></trkpt><trkpt lat="45.7350505" lon="12.5526241"><ele>5.333333333333334</ele><time>2026-03-29T07:40:14.938Z</time></trkpt><trkpt lat="45.735105" lon="12.5524099"><ele>5.666666666666667</ele><time>2026-03-29T07:40:15.923Z</time></trkpt><trkpt lat="45.7351558" lon="12.5522036"><ele>6.0</ele><time>2026-03-29T07:40:16.918Z</time></trkpt><trkpt lat="45.7352084" lon="12.5520087"><ele>6.0</ele><time>2026-03-29T07:40:17.91Z</time></trkpt><trkpt lat="45.7352574" lon="12.5518227"><ele>6.0</ele><time>2026-03-29T07:40:18.938Z</time></trkpt><trkpt lat="45.7353062" lon="12.551644"><ele>6.0</ele><time>2026-03-29T07:40:19.941Z</time></trkpt><trkpt lat="45.7353487" lon="12.5514635"><ele>6.0</ele><time>2026-03-29T07:40:20.917Z</time></trkpt><trkpt lat="45.7353892" lon="12.5512777"><ele>6.0</ele><time>2026-03-29T07:40:21.935Z</time></trkpt><trkpt lat="45.7354324" lon="12.5510908"><ele>6.0</ele><time>2026-03-29T07:40:22.914Z</time></trkpt><trkpt lat="45.7354796" lon="12.5509058"><ele>6.0</ele><time>2026-03-29T07:40:23.939Z</time></trkpt><trkpt lat="45.7355207" lon="12.5507235"><ele>6.0</ele><time>2026-03-29T07:40:24.932Z</time></trkpt><trkpt lat="45.7355609" lon="12.5505479"><ele>6.0</ele><time>2026-03-29T07:40:25.938Z</time></trkpt><trkpt lat="45.7356022" lon="12.5503837"><ele>6.0</ele><time>2026-03-29T07:40:26.926Z</time></trkpt><trkpt lat="45.7356376" lon="12.5502326"><ele>6.0</ele><time>2026-03-29T07:40:27.938Z</time></trkpt><trkpt lat="45.7356606" lon="12.5500924"><ele>6.0</ele><time>2026-03-29T07:40:28.927Z</time></trkpt><trkpt lat="45.7356818" lon="12.5499781"><ele>6.0</ele><time>2026-03-29T07:40:29.943Z</time></trkpt><trkpt lat="45.7357118" lon="12.549881"><ele>6.0</ele><time>2026-03-29T07:40:30.917Z</time></trkpt><trkpt lat="45.7357416" lon="12.5497783"><ele>6.0</ele><time>2026-03-29T07:40:31.915Z</time></trkpt><trkpt lat="45.7357807" lon="12.5496711"><ele>6.0</ele><time>2026-03-29T07:40:32.926Z</time></trkpt><trkpt lat="45.7358285" lon="12.5495537"><ele>6.0</ele><time>2026-03-29T07:40:33.91Z</time></trkpt><trkpt lat="45.7359116" lon="12.5494363"><ele>6.0</ele><time>2026-03-29T07:40:34.942Z</time></trkpt><trkpt lat="45.7359762" lon="12.5492908"><ele>6.0</ele><time>2026-03-29T07:40:35.924Z</time></trkpt><trkpt lat="45.7360499" lon="12.5491387"><ele>6.0</ele><time>2026-03-29T07:40:36.918Z</time></trkpt><trkpt lat="45.7361344" lon="12.5489868"><ele>6.0</ele><time>2026-03-29T07:40:37.928Z</time></trkpt><trkpt lat="45.7362291" lon="12.5488357"><ele>6.0</ele><time>2026-03-29T07:40:38.926Z</time></trkpt><trkpt lat="45.7363272" lon="12.5486899"><ele>6.0</ele><time>2026-03-29T07:40:39.932Z</time></trkpt><trkpt lat="45.7364283" lon="12.548557"><ele>6.0</ele><time>2026-03-29T07:40:40.933Z</time></trkpt><trkpt lat="45.7365352" lon="12.5484322"><ele>6.0</ele><time>2026-03-29T07:40:41.935Z</time></trkpt><trkpt lat="45.7366396" lon="12.5483221"><ele>6.0</ele><time>2026-03-29T07:40:42.952Z</time></trkpt><trkpt lat="45.7367416" lon="12.5482226"><ele>6.0</ele><time>2026-03-29T07:40:43.923Z</time></trkpt><trkpt lat="45.7368455" lon="12.5481312"><ele>6.0</ele><time>2026-03-29T07:40:44.928Z</time></trkpt><trkpt lat="45.7369484" lon="12.548056"><ele>6.0</ele><time>2026-03-29T07:40:45.911Z</time></trkpt><trkpt lat="45.7370556" lon="12.5479844"><ele>6.0</ele><time>2026-03-29T07:40:46.91Z</time></trkpt><trkpt lat="45.7371596" lon="12.5479207"><ele>6.0</ele><time>2026-03-29T07:40:47.92Z</time></trkpt><trkpt lat="45.7372615" lon="12.5478629"><ele>6.0</ele><time>2026-03-29T07:40:48.916Z</time></trkpt><trkpt lat="45.7373676" lon="12.5478134"><ele>6.0</ele><time>2026-03-29T07:40:49.922Z</time></trkpt><trkpt lat="45.7374782" lon="12.5477707"><ele>6.0</ele><time>2026-03-29T07:40:50.918Z</time></trkpt><trkpt lat="45.7375952" lon="12.5477372"><ele>6.25</ele><time>2026-03-29T07:40:51.907Z</time></trkpt><trkpt lat="45.7377215" lon="12.547714"><ele>6.5</ele><time>2026-03-29T07:40:52.912Z</time></trkpt><trkpt lat="45.7378524" lon="12.5476994"><ele>6.75</ele><time>2026-03-29T07:40:53.936Z</time></trkpt><trkpt lat="45.7379891" lon="12.5476949"><ele>7.0</ele><time>2026-03-29T07:40:54.963Z</time></trkpt><trkpt lat="45.7381281" lon="12.5477008"><ele>7.0</ele><time>2026-03-29T07:40:55.931Z</time></trkpt><trkpt lat="45.7382774" lon="12.5477172"><ele>7.0</ele><time>2026-03-29T07:40:56.918Z</time></trkpt><trkpt lat="45.7384322" lon="12.547741"><ele>7.0</ele><time>2026-03-29T07:40:57.918Z</time></trkpt><trkpt lat="45.7385929" lon="12.5477687"><ele>6.0</ele><time>2026-03-29T07:40:58.916Z</time></trkpt><trkpt lat="45.7387619" lon="12.5477961"><ele>5.0</ele><time>2026-03-29T07:40:59.917Z</time></trkpt><trkpt lat="45.7389357" lon="12.5478301"><ele>4.0</ele><time>2026-03-29T07:41:00.926Z</time></trkpt><trkpt lat="45.7391054" lon="12.5478657"><ele>4.0</ele><time>2026-03-29T07:41:01.918Z</time></trkpt><trkpt lat="45.7392745" lon="12.5479018"><ele>4.0</ele><time>2026-03-29T07:41:02.927Z</time></trkpt><trkpt lat="45.739434" lon="12.5479385"><ele>4.0</ele><time>2026-03-29T07:41:03.92Z</time></trkpt><trkpt lat="45.7395947" lon="12.5479731"><ele>3.333333333333333</ele><time>2026-03-29T07:41:04.917Z</time></trkpt><trkpt lat="45.7397571" lon="12.5480063"><ele>2.6666666666666665</ele><time>2026-03-29T07:41:05.929Z</time></trkpt><trkpt lat="45.7399179" lon="12.5480384"><ele>2.0</ele><time>2026-03-29T07:41:06.925Z</time></trkpt><trkpt lat="45.7400828" lon="12.5480707"><ele>2.6666666666666665</ele><time>2026-03-29T07:41:07.923Z</time></trkpt><trkpt lat="45.7402512" lon="12.5481051"><ele>3.333333333333333</ele><time>2026-03-29T07:41:08.921Z</time></trkpt><trkpt lat="45.7404256" lon="12.5481387"><ele>4.0</ele><time>2026-03-29T07:41:09.928Z</time></trkpt><trkpt lat="45.740604" lon="12.5481708"><ele>4.0</ele><time>2026-03-29T07:41:10.941Z</time></trkpt><trkpt lat="45.7407807" lon="12.5482042"><ele>4.0</ele><time>2026-03-29T07:41:11.93Z</time></trkpt><trkpt lat="45.7409584" lon="12.5482364"><ele>4.0</ele><time>2026-03-29T07:41:12.931Z</time></trkpt><trkpt lat="45.7411365" lon="12.5482682"><ele>3.0</ele><time>2026-03-29T07:41:13.937Z</time></trkpt><trkpt lat="45.7413112" lon="12.5483019"><ele>2.0</ele><time>2026-03-29T07:41:14.924Z</time></trkpt><trkpt lat="45.7414856" lon="12.5483342"><ele>1.0</ele><time>2026-03-29T07:41:15.921Z</time></trkpt><trkpt lat="45.7416565" lon="12.5483667"><ele>1.0</ele><time>2026-03-29T07:41:16.929Z</time></trkpt><trkpt lat="45.7418251" lon="12.5483988"><ele>1.0</ele><time>2026-03-29T07:41:17.916Z</time></trkpt><trkpt lat="45.7419968" lon="12.5484298"><ele>1.0</ele><time>2026-03-29T07:41:18.933Z</time></trkpt><trkpt lat="45.7421686" lon="12.5484591"><ele>2.3333333333333335</ele><time>2026-03-29T07:41:19.945Z</time></trkpt><trkpt lat="45.7423411" lon="12.5484881"><ele>3.666666666666667</ele><time>2026-03-29T07:41:20.933Z</time></trkpt><trkpt lat="45.7425173" lon="12.5485183"><ele>5.0</ele><time>2026-03-29T07:41:21.946Z</time></trkpt><trkpt lat="45.742694" lon="12.5485493"><ele>4.333333333333334</ele><time>2026-03-29T07:41:22.926Z</time></trkpt><trkpt lat="45.7428722" lon="12.5485837"><ele>3.666666666666667</ele><time>2026-03-29T07:41:23.924Z</time></trkpt><trkpt lat="45.7430527" lon="12.5486194"><ele>3.0</ele><time>2026-03-29T07:41:24.927Z</time></trkpt><trkpt lat="45.7432326" lon="12.5486548"><ele>3.0</ele><time>2026-03-29T07:41:25.927Z</time></trkpt><trkpt lat="45.7434119" lon="12.5486881"><ele>3.0</ele><time>2026-03-29T07:41:26.926Z</time></trkpt><trkpt lat="45.7435898" lon="12.5487206"><ele>3.0</ele><time>2026-03-29T07:41:27.936Z</time></trkpt><trkpt lat="45.7437682" lon="12.5487529"><ele>3.0</ele><time>2026-03-29T07:41:28.921Z</time></trkpt><trkpt lat="45.7439503" lon="12.5487853"><ele>3.0</ele><time>2026-03-29T07:41:29.929Z</time></trkpt><trkpt lat="45.7441338" lon="12.5488162"><ele>3.0</ele><time>2026-03-29T07:41:30.938Z</time></trkpt><trkpt lat="45.7443203" lon="12.548846"><ele>3.333333333333333</ele><time>2026-03-29T07:41:31.931Z</time></trkpt><trkpt lat="45.7445117" lon="12.5488775"><ele>3.6666666666666665</ele><time>2026-03-29T07:41:32.917Z</time></trkpt><trkpt lat="45.7447093" lon="12.548912"><ele>4.0</ele><time>2026-03-29T07:41:33.941Z</time></trkpt><trkpt lat="45.7449042" lon="12.5489462"><ele>4.0</ele><time>2026-03-29T07:41:34.917Z</time></trkpt><trkpt lat="45.7451072" lon="12.5489806"><ele>4.0</ele><time>2026-03-29T07:41:35.929Z</time></trkpt><trkpt lat="45.7453145" lon="12.5490194"><ele>4.0</ele><time>2026-03-29T07:41:36.916Z</time></trkpt><trkpt lat="45.7455388" lon="12.5490577"><ele>5.0</ele><time>2026-03-29T07:41:37.927Z</time></trkpt><trkpt lat="45.7457682" lon="12.549099"><ele>6.0</ele><time>2026-03-29T07:41:38.915Z</time></trkpt><trkpt lat="45.7459952" lon="12.5491486"><ele>6.0</ele><time>2026-03-29T07:41:39.921Z</time></trkpt><trkpt lat="45.7462211" lon="12.5492011"><ele>6.0</ele><time>2026-03-29T07:41:40.92Z</time></trkpt><trkpt lat="45.7464481" lon="12.549245"><ele>6.0</ele><time>2026-03-29T07:41:41.938Z</time></trkpt><trkpt lat="45.746666" lon="12.5492828"><ele>6.0</ele><time>2026-03-29T07:41:42.924Z</time></trkpt><trkpt lat="45.7468753" lon="12.5493151"><ele>6.0</ele><time>2026-03-29T07:41:43.926Z</time></trkpt><trkpt lat="45.7470789" lon="12.5493491"><ele>5.333333333333333</ele><time>2026-03-29T07:41:44.928Z</time></trkpt><trkpt lat="45.7472775" lon="12.5493819"><ele>4.666666666666666</ele><time>2026-03-29T07:41:45.922Z</time></trkpt><trkpt lat="45.7474732" lon="12.5494141"><ele>4.0</ele><time>2026-03-29T07:41:46.93Z</time></trkpt><trkpt lat="45.7476646" lon="12.5494467"><ele>4.0</ele><time>2026-03-29T07:41:47.91Z</time></trkpt><trkpt lat="45.7478545" lon="12.5494782"><ele>4.0</ele><time>2026-03-29T07:41:48.904Z</time></trkpt><trkpt lat="45.7480451" lon="12.5495131"><ele>4.0</ele><time>2026-03-29T07:41:49.91Z</time></trkpt><trkpt lat="45.7482344" lon="12.5495502"><ele>4.0</ele><time>2026-03-29T07:41:50.913Z</time></trkpt><trkpt lat="45.7484253" lon="12.5495892"><ele>4.0</ele><time>2026-03-29T07:41:51.919Z</time></trkpt><trkpt lat="45.7486174" lon="12.5496315"><ele>4.0</ele><time>2026-03-29T07:41:52.933Z</time></trkpt><trkpt lat="45.7488088" lon="12.5496721"><ele>4.0</ele><time>2026-03-29T07:41:53.925Z</time></trkpt><trkpt lat="45.7490009" lon="12.5497127"><ele>4.0</ele><time>2026-03-29T07:41:54.92Z</time></trkpt><trkpt lat="45.7491945" lon="12.5497533"><ele>4.0</ele><time>2026-03-29T07:41:55.935Z</time></trkpt><trkpt lat="45.7493867" lon="12.5497934"><ele>3.333333333333333</ele><time>2026-03-29T07:41:56.937Z</time></trkpt><trkpt lat="45.7495796" lon="12.5498315"><ele>2.6666666666666665</ele><time>2026-03-29T07:41:57.93Z</time></trkpt><trkpt lat="45.749771" lon="12.5498683"><ele>2.0</ele><time>2026-03-29T07:41:58.918Z</time></trkpt><trkpt lat="45.7499629" lon="12.5499091"><ele>2.0</ele><time>2026-03-29T07:41:59.929Z</time></trkpt><trkpt lat="45.7501514" lon="12.5499499"><ele>2.0</ele><time>2026-03-29T07:42:00.919Z</time></trkpt><trkpt lat="45.7503379" lon="12.549986"><ele>2.0</ele><time>2026-03-29T07:42:01.929Z</time></trkpt><trkpt lat="45.7505266" lon="12.5500172"><ele>2.333333333333333</ele><time>2026-03-29T07:42:02.938Z</time></trkpt><trkpt lat="45.7507076" lon="12.5500484"><ele>2.6666666666666665</ele><time>2026-03-29T07:42:03.919Z</time></trkpt><trkpt lat="45.7508919" lon="12.5500832"><ele>3.0</ele><time>2026-03-29T07:42:04.925Z</time></trkpt><trkpt lat="45.751074" lon="12.550118"><ele>3.333333333333333</ele><time>2026-03-29T07:42:05.921Z</time></trkpt><trkpt lat="45.7512578" lon="12.5501545"><ele>3.6666666666666665</ele><time>2026-03-29T07:42:06.911Z</time></trkpt><trkpt lat="45.7514421" lon="12.5501915"><ele>4.0</ele><time>2026-03-29T07:42:07.917Z</time></trkpt><trkpt lat="45.751623" lon="12.5502259"><ele>4.0</ele><time>2026-03-29T07:42:08.92Z</time></trkpt><trkpt lat="45.7518036" lon="12.5502563"><ele>4.0</ele><time>2026-03-29T07:42:09.933Z</time></trkpt><trkpt lat="45.7519791" lon="12.5502846"><ele>4.0</ele><time>2026-03-29T07:42:10.909Z</time></trkpt><trkpt lat="45.7521561" lon="12.5503165"><ele>4.333333333333333</ele><time>2026-03-29T07:42:11.928Z</time></trkpt><trkpt lat="45.7523274" lon="12.5503468"><ele>4.666666666666667</ele><time>2026-03-29T07:42:12.915Z</time></trkpt><trkpt lat="45.7524955" lon="12.5503746"><ele>5.0</ele><time>2026-03-29T07:42:13.928Z</time></trkpt><trkpt lat="45.7526545" lon="12.5503989"><ele>4.75</ele><time>2026-03-29T07:42:14.92Z</time></trkpt><trkpt lat="45.7527942" lon="12.5504226"><ele>4.5</ele><time>2026-03-29T07:42:15.913Z</time></trkpt><trkpt lat="45.7529169" lon="12.5504547"><ele>4.25</ele><time>2026-03-29T07:42:16.94Z</time></trkpt><trkpt lat="45.7530203" lon="12.5504987"><ele>4.0</ele><time>2026-03-29T07:42:17.93Z</time></trkpt><trkpt lat="45.7530954" lon="12.5505575"><ele>4.0</ele><time>2026-03-29T07:42:18.924Z</time></trkpt><trkpt lat="45.7531507" lon="12.5506271"><ele>4.0</ele><time>2026-03-29T07:42:19.923Z</time></trkpt><trkpt lat="45.7532025" lon="12.5506881"><ele>4.0</ele><time>2026-03-29T07:42:20.918Z</time></trkpt><trkpt lat="45.7533515" lon="12.5507746"><ele>4.0</ele><time>2026-03-29T07:42:22.924Z</time></trkpt><trkpt lat="45.7534248" lon="12.550708"><ele>4.0</ele><time>2026-03-29T07:42:23.92Z</time></trkpt><trkpt lat="45.7534867" lon="12.5506038"><ele>4.0</ele><time>2026-03-29T07:42:24.941Z</time></trkpt><trkpt lat="45.7535114" lon="12.5504542"><ele>4.0</ele><time>2026-03-29T07:42:25.943Z</time></trkpt><trkpt lat="45.7535432" lon="12.5503125"><ele>4.0</ele><time>2026-03-29T07:42:26.93Z</time></trkpt><trkpt lat="45.753614" lon="12.5501928"><ele>4.0</ele><time>2026-03-29T07:42:27.932Z</time></trkpt><trkpt lat="45.7537118" lon="12.5500986"><ele>4.0</ele><time>2026-03-29T07:42:28.912Z</time></trkpt><trkpt lat="45.7538228" lon="12.5500219"><ele>3.75</ele><time>2026-03-29T07:42:29.936Z</time></trkpt><trkpt lat="45.7539428" lon="12.5499401"><ele>3.5</ele><time>2026-03-29T07:42:30.937Z</time></trkpt><trkpt lat="45.7540619" lon="12.5498201"><ele>3.25</ele><time>2026-03-29T07:42:31.911Z</time></trkpt><trkpt lat="45.754187" lon="12.5497126"><ele>3.0</ele><time>2026-03-29T07:42:32.937Z</time></trkpt><trkpt lat="45.7543026" lon="12.5495782"><ele>3.333333333333333</ele><time>2026-03-29T07:42:33.926Z</time></trkpt><trkpt lat="45.7543988" lon="12.5493988"><ele>3.6666666666666665</ele><time>2026-03-29T07:42:34.918Z</time></trkpt><trkpt lat="45.7544941" lon="12.5492178"><ele>4.0</ele><time>2026-03-29T07:42:35.943Z</time></trkpt><trkpt lat="45.7545821" lon="12.5490166"><ele>4.0</ele><time>2026-03-29T07:42:36.936Z</time></trkpt><trkpt lat="45.754663" lon="12.5488002"><ele>4.0</ele><time>2026-03-29T07:42:37.922Z</time></trkpt><trkpt lat="45.7547305" lon="12.5485636"><ele>4.0</ele><time>2026-03-29T07:42:38.918Z</time></trkpt><trkpt lat="45.7547866" lon="12.5483071"><ele>4.666666666666666</ele><time>2026-03-29T07:42:39.914Z</time></trkpt><trkpt lat="45.7548279" lon="12.5480344"><ele>5.333333333333333</ele><time>2026-03-29T07:42:40.917Z</time></trkpt><trkpt lat="45.7548932" lon="12.5477635"><ele>6.0</ele><time>2026-03-29T07:42:41.928Z</time></trkpt><trkpt lat="45.7549694" lon="12.5474932"><ele>6.0</ele><time>2026-03-29T07:42:42.908Z</time></trkpt><trkpt lat="45.7550452" lon="12.5472277"><ele>6.0</ele><time>2026-03-29T07:42:43.916Z</time></trkpt><trkpt lat="45.7551062" lon="12.5469598"><ele>6.0</ele><time>2026-03-29T07:42:44.917Z</time></trkpt><trkpt lat="45.7551625" lon="12.5466914"><ele>4.666666666666667</ele><time>2026-03-29T07:42:45.915Z</time></trkpt><trkpt lat="45.7552059" lon="12.5464149"><ele>3.333333333333333</ele><time>2026-03-29T07:42:46.92Z</time></trkpt><trkpt lat="45.7552416" lon="12.5461334"><ele>2.0</ele><time>2026-03-29T07:42:47.933Z</time></trkpt><trkpt lat="45.7552619" lon="12.5458468"><ele>2.0</ele><time>2026-03-29T07:42:48.91Z</time></trkpt><trkpt lat="45.7552769" lon="12.5455577"><ele>2.0</ele><time>2026-03-29T07:42:49.921Z</time></trkpt><trkpt lat="45.7552939" lon="12.5452681"><ele>2.0</ele><time>2026-03-29T07:42:50.91Z</time></trkpt><trkpt lat="45.7553059" lon="12.5449787"><ele>2.333333333333333</ele><time>2026-03-29T07:42:51.936Z</time></trkpt><trkpt lat="45.7553204" lon="12.5446913"><ele>2.6666666666666665</ele><time>2026-03-29T07:42:52.928Z</time></trkpt><trkpt lat="45.7553317" lon="12.5444069"><ele>3.0</ele><time>2026-03-29T07:42:53.915Z</time></trkpt><trkpt lat="45.7553583" lon="12.5441274"><ele>3.333333333333333</ele><time>2026-03-29T07:42:54.92Z</time></trkpt><trkpt lat="45.7553789" lon="12.5438481"><ele>3.6666666666666665</ele><time>2026-03-29T07:42:55.912Z</time></trkpt><trkpt lat="45.7554032" lon="12.543572"><ele>4.0</ele><time>2026-03-29T07:42:56.927Z</time></trkpt><trkpt lat="45.7554252" lon="12.5432959"><ele>4.0</ele><time>2026-03-29T07:42:57.925Z</time></trkpt><trkpt lat="45.7554622" lon="12.5430209"><ele>4.0</ele><time>2026-03-29T07:42:58.914Z</time></trkpt><trkpt lat="45.7555198" lon="12.5427533"><ele>4.0</ele><time>2026-03-29T07:42:59.916Z</time></trkpt><trkpt lat="45.7555946" lon="12.5424917"><ele>4.0</ele><time>2026-03-29T07:43:00.921Z</time></trkpt><trkpt lat="45.7556806" lon="12.5422381"><ele>4.0</ele><time>2026-03-29T07:43:01.91Z</time></trkpt><trkpt lat="45.7557587" lon="12.5419825"><ele>4.0</ele><time>2026-03-29T07:43:02.914Z</time></trkpt><trkpt lat="45.7558318" lon="12.5417249"><ele>4.0</ele><time>2026-03-29T07:43:03.929Z</time></trkpt><trkpt lat="45.7559062" lon="12.541471"><ele>4.0</ele><time>2026-03-29T07:43:04.91Z</time></trkpt><trkpt lat="45.7559808" lon="12.5412209"><ele>4.0</ele><time>2026-03-29T07:43:05.916Z</time></trkpt><trkpt lat="45.7560558" lon="12.5409745"><ele>4.0</ele><time>2026-03-29T07:43:06.93Z</time></trkpt><trkpt lat="45.7561222" lon="12.540726"><ele>4.0</ele><time>2026-03-29T07:43:07.907Z</time></trkpt><trkpt lat="45.7561892" lon="12.54048"><ele>4.0</ele><time>2026-03-29T07:43:08.93Z</time></trkpt><trkpt lat="45.7562642" lon="12.5402395"><ele>4.0</ele><time>2026-03-29T07:43:09.913Z</time></trkpt><trkpt lat="45.75633" lon="12.5399939"><ele>4.0</ele><time>2026-03-29T07:43:10.913Z</time></trkpt><trkpt lat="45.7563946" lon="12.5397485"><ele>4.0</ele><time>2026-03-29T07:43:11.917Z</time></trkpt><trkpt lat="45.7564613" lon="12.5395034"><ele>4.333333333333333</ele><time>2026-03-29T07:43:12.921Z</time></trkpt><trkpt lat="45.7565256" lon="12.5392558"><ele>4.666666666666667</ele><time>2026-03-29T07:43:13.933Z</time></trkpt><trkpt lat="45.756594" lon="12.5390094"><ele>5.0</ele><time>2026-03-29T07:43:14.928Z</time></trkpt><trkpt lat="45.7566656" lon="12.5387622"><ele>4.666666666666667</ele><time>2026-03-29T07:43:15.911Z</time></trkpt><trkpt lat="45.7567413" lon="12.5385146"><ele>4.333333333333333</ele><time>2026-03-29T07:43:16.907Z</time></trkpt><trkpt lat="45.7568224" lon="12.5382686"><ele>4.0</ele><time>2026-03-29T07:43:17.93Z</time></trkpt><trkpt lat="45.7569043" lon="12.5380209"><ele>4.666666666666666</ele><time>2026-03-29T07:43:18.928Z</time></trkpt><trkpt lat="45.7569868" lon="12.5377716"><ele>5.333333333333333</ele><time>2026-03-29T07:43:19.944Z</time></trkpt><trkpt lat="45.757069" lon="12.5375205"><ele>6.0</ele><time>2026-03-29T07:43:20.908Z</time></trkpt><trkpt lat="45.7571519" lon="12.5372691"><ele>6.333333333333334</ele><time>2026-03-29T07:43:21.907Z</time></trkpt><trkpt lat="45.7572321" lon="12.5370149"><ele>6.666666666666667</ele><time>2026-03-29T07:43:22.95Z</time></trkpt><trkpt lat="45.7572981" lon="12.5367521"><ele>7.0</ele><time>2026-03-29T07:43:23.917Z</time></trkpt><trkpt lat="45.7573632" lon="12.5364885"><ele>7.0</ele><time>2026-03-29T07:43:24.923Z</time></trkpt><trkpt lat="45.7574119" lon="12.536218"><ele>7.0</ele><time>2026-03-29T07:43:25.93Z</time></trkpt><trkpt lat="45.7574595" lon="12.5359496"><ele>7.0</ele><time>2026-03-29T07:43:26.914Z</time></trkpt><trkpt lat="45.7575045" lon="12.535682"><ele>7.0</ele><time>2026-03-29T07:43:27.945Z</time></trkpt><trkpt lat="45.7575467" lon="12.5354108"><ele>7.0</ele><time>2026-03-29T07:43:28.939Z</time></trkpt><trkpt lat="45.7575794" lon="12.5351334"><ele>7.0</ele><time>2026-03-29T07:43:29.942Z</time></trkpt><trkpt lat="45.7576061" lon="12.5348518"><ele>7.0</ele><time>2026-03-29T07:43:30.925Z</time></trkpt><trkpt lat="45.7576244" lon="12.5345672"><ele>7.0</ele><time>2026-03-29T07:43:31.919Z</time></trkpt><trkpt lat="45.7576487" lon="12.5342835"><ele>7.0</ele><time>2026-03-29T07:43:32.91Z</time></trkpt><trkpt lat="45.7576672" lon="12.5339988"><ele>6.666666666666667</ele><time>2026-03-29T07:43:33.954Z</time></trkpt><trkpt lat="45.7576886" lon="12.5337167"><ele>6.333333333333334</ele><time>2026-03-29T07:43:34.917Z</time></trkpt><trkpt lat="45.7577202" lon="12.5334378"><ele>6.0</ele><time>2026-03-29T07:43:35.922Z</time></trkpt><trkpt lat="45.7577497" lon="12.5331598"><ele>5.666666666666667</ele><time>2026-03-29T07:43:36.922Z</time></trkpt><trkpt lat="45.7577912" lon="12.5328868"><ele>5.333333333333334</ele><time>2026-03-29T07:43:37.947Z</time></trkpt><trkpt lat="45.7578437" lon="12.5326205"><ele>5.0</ele><time>2026-03-29T07:43:38.937Z</time></trkpt><trkpt lat="45.7579101" lon="12.5323633"><ele>5.0</ele><time>2026-03-29T07:43:39.908Z</time></trkpt><trkpt lat="45.7579895" lon="12.5321186"><ele>5.0</ele><time>2026-03-29T07:43:40.926Z</time></trkpt><trkpt lat="45.7580819" lon="12.5318876"><ele>5.0</ele><time>2026-03-29T07:43:41.917Z</time></trkpt><trkpt lat="45.7581866" lon="12.5316698"><ele>5.666666666666667</ele><time>2026-03-29T07:43:42.928Z</time></trkpt><trkpt lat="45.7583042" lon="12.5314673"><ele>6.333333333333334</ele><time>2026-03-29T07:43:43.933Z</time></trkpt><trkpt lat="45.7584374" lon="12.5312849"><ele>7.0</ele><time>2026-03-29T07:43:44.919Z</time></trkpt><trkpt lat="45.7585797" lon="12.5311221"><ele>7.333333333333334</ele><time>2026-03-29T07:43:45.934Z</time></trkpt><trkpt lat="45.7587303" lon="12.5309772"><ele>7.666666666666666</ele><time>2026-03-29T07:43:46.912Z</time></trkpt><trkpt lat="45.7588869" lon="12.530849"><ele>8.0</ele><time>2026-03-29T07:43:47.93Z</time></trkpt><trkpt lat="45.7590392" lon="12.5307243"><ele>8.0</ele><time>2026-03-29T07:43:48.915Z</time></trkpt><trkpt lat="45.7591823" lon="12.530594"><ele>8.0</ele><time>2026-03-29T07:43:49.924Z</time></trkpt><trkpt lat="45.759319" lon="12.530468"><ele>8.0</ele><time>2026-03-29T07:43:50.92Z</time></trkpt><trkpt lat="45.7594493" lon="12.5303386"><ele>7.333333333333333</ele><time>2026-03-29T07:43:51.931Z</time></trkpt><trkpt lat="45.7595834" lon="12.5302228"><ele>6.666666666666666</ele><time>2026-03-29T07:43:52.919Z</time></trkpt><trkpt lat="45.7597161" lon="12.5301042"><ele>6.0</ele><time>2026-03-29T07:43:53.929Z</time></trkpt><trkpt lat="45.7598395" lon="12.5299637"><ele>6.0</ele><time>2026-03-29T07:43:54.914Z</time></trkpt><trkpt lat="45.7599634" lon="12.5298197"><ele>6.0</ele><time>2026-03-29T07:43:55.948Z</time></trkpt><trkpt lat="45.7600816" lon="12.5296669"><ele>6.0</ele><time>2026-03-29T07:43:56.92Z</time></trkpt><trkpt lat="45.7601928" lon="12.5295132"><ele>6.25</ele><time>2026-03-29T07:43:57.92Z</time></trkpt><trkpt lat="45.7602961" lon="12.5293584"><ele>6.5</ele><time>2026-03-29T07:43:58.913Z</time></trkpt><trkpt lat="45.7603979" lon="12.5292115"><ele>6.75</ele><time>2026-03-29T07:43:59.944Z</time></trkpt><trkpt lat="45.7604965" lon="12.5290674"><ele>7.0</ele><time>2026-03-29T07:44:00.923Z</time></trkpt><trkpt lat="45.7605974" lon="12.5289311"><ele>7.0</ele><time>2026-03-29T07:44:01.916Z</time></trkpt><trkpt lat="45.7606977" lon="12.5287925"><ele>7.0</ele><time>2026-03-29T07:44:02.912Z</time></trkpt><trkpt lat="45.7607969" lon="12.5286535"><ele>7.0</ele><time>2026-03-29T07:44:03.928Z</time></trkpt><trkpt lat="45.760888" lon="12.5284993"><ele>7.0</ele><time>2026-03-29T07:44:04.918Z</time></trkpt><trkpt lat="45.7609816" lon="12.5283469"><ele>7.0</ele><time>2026-03-29T07:44:05.931Z</time></trkpt><trkpt lat="45.7610707" lon="12.5281882"><ele>7.0</ele><time>2026-03-29T07:44:06.923Z</time></trkpt><trkpt lat="45.7611589" lon="12.52803"><ele>7.0</ele><time>2026-03-29T07:44:07.937Z</time></trkpt><trkpt lat="45.7612492" lon="12.5278834"><ele>7.0</ele><time>2026-03-29T07:44:08.918Z</time></trkpt><trkpt lat="45.7613323" lon="12.5277444"><ele>7.0</ele><time>2026-03-29T07:44:09.91Z</time></trkpt><trkpt lat="45.7614129" lon="12.5276241"><ele>6.999999999999999</ele><time>2026-03-29T07:44:10.908Z</time></trkpt><trkpt lat="45.7614906" lon="12.5275216"><ele>6.999999999999999</ele><time>2026-03-29T07:44:11.931Z</time></trkpt><trkpt lat="45.7615788" lon="12.5274314"><ele>7.0</ele><time>2026-03-29T07:44:12.921Z</time></trkpt><trkpt lat="45.7616725" lon="12.5273411"><ele>7.0</ele><time>2026-03-29T07:44:13.912Z</time></trkpt><trkpt lat="45.7617716" lon="12.5272454"><ele>7.0</ele><time>2026-03-29T07:44:14.919Z</time></trkpt><trkpt lat="45.7618773" lon="12.5271455"><ele>7.0</ele><time>2026-03-29T07:44:15.926Z</time></trkpt><trkpt lat="45.7619869" lon="12.5270441"><ele>7.0</ele><time>2026-03-29T07:44:16.928Z</time></trkpt><trkpt lat="45.7620949" lon="12.5269374"><ele>7.0</ele><time>2026-03-29T07:44:17.918Z</time></trkpt><trkpt lat="45.7622035" lon="12.5268322"><ele>7.0</ele><time>2026-03-29T07:44:18.911Z</time></trkpt><trkpt lat="45.7623115" lon="12.5267275"><ele>7.0</ele><time>2026-03-29T07:44:19.92Z</time></trkpt><trkpt lat="45.7624209" lon="12.526623"><ele>7.0</ele><time>2026-03-29T07:44:20.928Z</time></trkpt><trkpt lat="45.7625285" lon="12.526512"><ele>7.0</ele><time>2026-03-29T07:44:21.931Z</time></trkpt><trkpt lat="45.7626421" lon="12.5264045"><ele>6.75</ele><time>2026-03-29T07:44:22.918Z</time></trkpt><trkpt lat="45.7627568" lon="12.5262895"><ele>6.5</ele><time>2026-03-29T07:44:23.934Z</time></trkpt><trkpt lat="45.762873" lon="12.526175"><ele>6.25</ele><time>2026-03-29T07:44:24.925Z</time></trkpt><trkpt lat="45.7629843" lon="12.5260651"><ele>6.0</ele><time>2026-03-29T07:44:25.926Z</time></trkpt><trkpt lat="45.763077" lon="12.5259753"><ele>6.0</ele><time>2026-03-29T07:44:26.933Z</time></trkpt><trkpt lat="45.7631497" lon="12.5259138"><ele>6.0</ele><time>2026-03-29T07:44:27.936Z</time></trkpt><trkpt lat="45.7632512" lon="12.5258171"><ele>6.0</ele><time>2026-03-29T07:44:29.924Z</time></trkpt><trkpt lat="45.7633619" lon="12.5257062"><ele>6.0</ele><time>2026-03-29T07:44:31.935Z</time></trkpt><trkpt lat="45.7634306" lon="12.525638"><ele>6.0</ele><time>2026-03-29T07:44:32.92Z</time></trkpt><trkpt lat="45.7635116" lon="12.5255637"><ele>6.0</ele><time>2026-03-29T07:44:33.916Z</time></trkpt><trkpt lat="45.7636007" lon="12.5254739"><ele>6.0</ele><time>2026-03-29T07:44:34.918Z</time></trkpt><trkpt lat="45.7636964" lon="12.5253708"><ele>6.0</ele><time>2026-03-29T07:44:35.926Z</time></trkpt><trkpt lat="45.7638006" lon="12.5252625"><ele>6.0</ele><time>2026-03-29T07:44:36.934Z</time></trkpt><trkpt lat="45.7639097" lon="12.5251482"><ele>6.0</ele><time>2026-03-29T07:44:37.93Z</time></trkpt><trkpt lat="45.7640238" lon="12.5250245"><ele>6.0</ele><time>2026-03-29T07:44:38.912Z</time></trkpt><trkpt lat="45.7641407" lon="12.5248824"><ele>6.0</ele><time>2026-03-29T07:44:39.913Z</time></trkpt><trkpt lat="45.7642559" lon="12.5247203"><ele>6.333333333333334</ele><time>2026-03-29T07:44:40.925Z</time></trkpt><trkpt lat="45.7643695" lon="12.5245429"><ele>6.666666666666667</ele><time>2026-03-29T07:44:41.934Z</time></trkpt><trkpt lat="45.7644792" lon="12.5243487"><ele>7.0</ele><time>2026-03-29T07:44:42.919Z</time></trkpt><trkpt lat="45.7645746" lon="12.5241398"><ele>7.0</ele><time>2026-03-29T07:44:43.91Z</time></trkpt><trkpt lat="45.7646742" lon="12.5239349"><ele>7.0</ele><time>2026-03-29T07:44:44.905Z</time></trkpt><trkpt lat="45.7647744" lon="12.5237282"><ele>7.0</ele><time>2026-03-29T07:44:45.919Z</time></trkpt><trkpt lat="45.7648796" lon="12.5235219"><ele>7.0</ele><time>2026-03-29T07:44:46.916Z</time></trkpt><trkpt lat="45.7649799" lon="12.5233109"><ele>7.0</ele><time>2026-03-29T07:44:47.916Z</time></trkpt><trkpt lat="45.765085" lon="12.5231046"><ele>7.0</ele><time>2026-03-29T07:44:48.912Z</time></trkpt><trkpt lat="45.7652044" lon="12.522911"><ele>7.0</ele><time>2026-03-29T07:44:49.932Z</time></trkpt><trkpt lat="45.7653316" lon="12.5227238"><ele>7.0</ele><time>2026-03-29T07:44:50.927Z</time></trkpt><trkpt lat="45.7654687" lon="12.5225489"><ele>7.0</ele><time>2026-03-29T07:44:51.931Z</time></trkpt><trkpt lat="45.7656123" lon="12.5223826"><ele>7.0</ele><time>2026-03-29T07:44:52.943Z</time></trkpt><trkpt lat="45.7657593" lon="12.5222203"><ele>7.0</ele><time>2026-03-29T07:44:53.939Z</time></trkpt><trkpt lat="45.7659075" lon="12.5220631"><ele>7.0</ele><time>2026-03-29T07:44:54.921Z</time></trkpt><trkpt lat="45.7660474" lon="12.5219052"><ele>7.666666666666667</ele><time>2026-03-29T07:44:55.938Z</time></trkpt><trkpt lat="45.7661824" lon="12.5217544"><ele>8.333333333333334</ele><time>2026-03-29T07:44:56.921Z</time></trkpt><trkpt lat="45.766317" lon="12.5216154"><ele>9.0</ele><time>2026-03-29T07:44:57.935Z</time></trkpt><trkpt lat="45.7664459" lon="12.5214774"><ele>9.0</ele><time>2026-03-29T07:44:58.943Z</time></trkpt><trkpt lat="45.7665686" lon="12.5213409"><ele>9.0</ele><time>2026-03-29T07:44:59.917Z</time></trkpt><trkpt lat="45.7666871" lon="12.5212154"><ele>9.0</ele><time>2026-03-29T07:45:00.918Z</time></trkpt><trkpt lat="45.7667984" lon="12.5210969"><ele>9.0</ele><time>2026-03-29T07:45:01.909Z</time></trkpt><trkpt lat="45.7669019" lon="12.5209942"><ele>8.8</ele><time>2026-03-29T07:45:02.919Z</time></trkpt><trkpt lat="45.7669947" lon="12.5209063"><ele>8.600000000000001</ele><time>2026-03-29T07:45:03.936Z</time></trkpt><trkpt lat="45.7670807" lon="12.520837"><ele>8.4</ele><time>2026-03-29T07:45:04.914Z</time></trkpt><trkpt lat="45.7671642" lon="12.5207925"><ele>8.200000000000001</ele><time>2026-03-29T07:45:05.945Z</time></trkpt><trkpt lat="45.7672418" lon="12.5207746"><ele>8.0</ele><time>2026-03-29T07:45:06.928Z</time></trkpt><trkpt lat="45.7673137" lon="12.5207894"><ele>7.999999999999999</ele><time>2026-03-29T07:45:07.929Z</time></trkpt><trkpt lat="45.7674348" lon="12.5207535"><ele>8.0</ele><time>2026-03-29T07:45:09.927Z</time></trkpt><trkpt lat="45.7674777" lon="12.5206822"><ele>8.0</ele><time>2026-03-29T07:45:10.92Z</time></trkpt><trkpt lat="45.7675007" lon="12.5205813"><ele>8.0</ele><time>2026-03-29T07:45:11.919Z</time></trkpt><trkpt lat="45.7675114" lon="12.520464"><ele>7.999999999999999</ele><time>2026-03-29T07:45:12.908Z</time></trkpt><trkpt lat="45.7675504" lon="12.520341"><ele>8.0</ele><time>2026-03-29T07:45:13.924Z</time></trkpt><trkpt lat="45.7676309" lon="12.5202174"><ele>7.75</ele><time>2026-03-29T07:45:14.929Z</time></trkpt><trkpt lat="45.767741" lon="12.5201064"><ele>7.5</ele><time>2026-03-29T07:45:15.934Z</time></trkpt><trkpt lat="45.767858" lon="12.5199915"><ele>7.25</ele><time>2026-03-29T07:45:16.928Z</time></trkpt><trkpt lat="45.76798" lon="12.5198667"><ele>7.0</ele><time>2026-03-29T07:45:17.928Z</time></trkpt><trkpt lat="45.7680974" lon="12.5197256"><ele>7.0</ele><time>2026-03-29T07:45:18.945Z</time></trkpt><trkpt lat="45.7682201" lon="12.5195871"><ele>7.0</ele><time>2026-03-29T07:45:19.908Z</time></trkpt><trkpt lat="45.7683475" lon="12.5194496"><ele>7.0</ele><time>2026-03-29T07:45:20.932Z</time></trkpt><trkpt lat="45.7684789" lon="12.519309"><ele>7.333333333333334</ele><time>2026-03-29T07:45:21.929Z</time></trkpt><trkpt lat="45.7686157" lon="12.5191582"><ele>7.666666666666666</ele><time>2026-03-29T07:45:22.921Z</time></trkpt><trkpt lat="45.7687558" lon="12.5190022"><ele>8.0</ele><time>2026-03-29T07:45:23.918Z</time></trkpt><trkpt lat="45.7689007" lon="12.5188474"><ele>7.666666666666666</ele><time>2026-03-29T07:45:24.92Z</time></trkpt><trkpt lat="45.7690458" lon="12.5186913"><ele>7.333333333333334</ele><time>2026-03-29T07:45:25.919Z</time></trkpt><trkpt lat="45.7691882" lon="12.5185309"><ele>7.0</ele><time>2026-03-29T07:45:26.913Z</time></trkpt><trkpt lat="45.7693312" lon="12.5183732"><ele>7.333333333333334</ele><time>2026-03-29T07:45:27.939Z</time></trkpt><trkpt lat="45.7694746" lon="12.5182179"><ele>7.666666666666666</ele><time>2026-03-29T07:45:28.921Z</time></trkpt><trkpt lat="45.7696162" lon="12.5180615"><ele>8.0</ele><time>2026-03-29T07:45:29.924Z</time></trkpt><trkpt lat="45.7697543" lon="12.5179057"><ele>8.0</ele><time>2026-03-29T07:45:30.916Z</time></trkpt><trkpt lat="45.7698894" lon="12.5177528"><ele>8.0</ele><time>2026-03-29T07:45:31.934Z</time></trkpt><trkpt lat="45.7700128" lon="12.5175949"><ele>8.0</ele><time>2026-03-29T07:45:32.926Z</time></trkpt><trkpt lat="45.7701306" lon="12.5174389"><ele>7.333333333333333</ele><time>2026-03-29T07:45:33.927Z</time></trkpt><trkpt lat="45.7702377" lon="12.5172756"><ele>6.666666666666666</ele><time>2026-03-29T07:45:34.929Z</time></trkpt><trkpt lat="45.7703368" lon="12.5171119"><ele>6.0</ele><time>2026-03-29T07:45:35.92Z</time></trkpt><trkpt lat="45.7704197" lon="12.5169366"><ele>6.0</ele><time>2026-03-29T07:45:36.914Z</time></trkpt><trkpt lat="45.7704759" lon="12.5167495"><ele>6.0</ele><time>2026-03-29T07:45:37.932Z</time></trkpt><trkpt lat="45.7705147" lon="12.5165639"><ele>6.0</ele><time>2026-03-29T07:45:38.911Z</time></trkpt><trkpt lat="45.7705349" lon="12.516384"><ele>6.0</ele><time>2026-03-29T07:45:39.923Z</time></trkpt><trkpt lat="45.7705489" lon="12.5162179"><ele>5.8</ele><time>2026-03-29T07:45:40.933Z</time></trkpt><trkpt lat="45.7705583" lon="12.5160621"><ele>5.6</ele><time>2026-03-29T07:45:41.938Z</time></trkpt><trkpt lat="45.7705783" lon="12.5159168"><ele>5.4</ele><time>2026-03-29T07:45:42.917Z</time></trkpt><trkpt lat="45.7706435" lon="12.5158088"><ele>5.2</ele><time>2026-03-29T07:45:43.947Z</time></trkpt><trkpt lat="45.770726" lon="12.5157087"><ele>5.0</ele><time>2026-03-29T07:45:44.928Z</time></trkpt><trkpt lat="45.7708104" lon="12.5156075"><ele>5.0</ele><time>2026-03-29T07:45:45.936Z</time></trkpt><trkpt lat="45.7708978" lon="12.5155042"><ele>5.0</ele><time>2026-03-29T07:45:46.917Z</time></trkpt><trkpt lat="45.7709879" lon="12.5154016"><ele>5.0</ele><time>2026-03-29T07:45:47.927Z</time></trkpt><trkpt lat="45.7710881" lon="12.5153064"><ele>5.0</ele><time>2026-03-29T07:45:48.918Z</time></trkpt><trkpt lat="45.7711807" lon="12.5151748"><ele>5.75</ele><time>2026-03-29T07:45:49.909Z</time></trkpt><trkpt lat="45.7712608" lon="12.5150152"><ele>6.5</ele><time>2026-03-29T07:45:50.92Z</time></trkpt><trkpt lat="45.7713389" lon="12.5148403"><ele>7.25</ele><time>2026-03-29T07:45:51.911Z</time></trkpt><trkpt lat="45.7714203" lon="12.5146532"><ele>8.0</ele><time>2026-03-29T07:45:52.931Z</time></trkpt><trkpt lat="45.7715031" lon="12.5144549"><ele>8.333333333333332</ele><time>2026-03-29T07:45:53.935Z</time></trkpt><trkpt lat="45.7715832" lon="12.5142474"><ele>8.666666666666666</ele><time>2026-03-29T07:45:54.928Z</time></trkpt><trkpt lat="45.7716667" lon="12.5140364"><ele>9.0</ele><time>2026-03-29T07:45:55.926Z</time></trkpt><trkpt lat="45.7717562" lon="12.5138221"><ele>9.0</ele><time>2026-03-29T07:45:56.931Z</time></trkpt><trkpt lat="45.7718525" lon="12.5136051"><ele>9.0</ele><time>2026-03-29T07:45:57.914Z</time></trkpt><trkpt lat="45.7719501" lon="12.5133807"><ele>9.0</ele><time>2026-03-29T07:45:58.934Z</time></trkpt><trkpt lat="45.7720486" lon="12.5131502"><ele>9.0</ele><time>2026-03-29T07:45:59.933Z</time></trkpt><trkpt lat="45.7721493" lon="12.5129166"><ele>9.0</ele><time>2026-03-29T07:46:00.936Z</time></trkpt><trkpt lat="45.772249" lon="12.5126781"><ele>9.0</ele><time>2026-03-29T07:46:01.911Z</time></trkpt><trkpt lat="45.7723498" lon="12.5124307"><ele>9.0</ele><time>2026-03-29T07:46:02.929Z</time></trkpt><trkpt lat="45.7724515" lon="12.5121797"><ele>9.0</ele><time>2026-03-29T07:46:03.92Z</time></trkpt><trkpt lat="45.7725546" lon="12.5119306"><ele>9.0</ele><time>2026-03-29T07:46:04.925Z</time></trkpt><trkpt lat="45.7726636" lon="12.5116856"><ele>9.0</ele><time>2026-03-29T07:46:05.915Z</time></trkpt><trkpt lat="45.7727688" lon="12.5114408"><ele>9.0</ele><time>2026-03-29T07:46:06.912Z</time></trkpt><trkpt lat="45.7728701" lon="12.5111963"><ele>9.0</ele><time>2026-03-29T07:46:07.914Z</time></trkpt><trkpt lat="45.7729724" lon="12.5109547"><ele>9.0</ele><time>2026-03-29T07:46:08.918Z</time></trkpt><trkpt lat="45.7730708" lon="12.5107134"><ele>9.0</ele><time>2026-03-29T07:46:09.917Z</time></trkpt><trkpt lat="45.7731695" lon="12.5104794"><ele>9.0</ele><time>2026-03-29T07:46:10.912Z</time></trkpt><trkpt lat="45.773261" lon="12.5102505"><ele>9.0</ele><time>2026-03-29T07:46:11.932Z</time></trkpt><trkpt lat="45.7733435" lon="12.5100225"><ele>9.0</ele><time>2026-03-29T07:46:12.932Z</time></trkpt><trkpt lat="45.7733921" lon="12.5097729"><ele>9.0</ele><time>2026-03-29T07:46:13.935Z</time></trkpt><trkpt lat="45.7734422" lon="12.5095262"><ele>8.333333333333334</ele><time>2026-03-29T07:46:14.918Z</time></trkpt><trkpt lat="45.7734844" lon="12.5092762"><ele>7.666666666666667</ele><time>2026-03-29T07:46:15.919Z</time></trkpt><trkpt lat="45.7735305" lon="12.5090289"><ele>7.0</ele><time>2026-03-29T07:46:16.924Z</time></trkpt><trkpt lat="45.7735621" lon="12.5087712"><ele>7.0</ele><time>2026-03-29T07:46:17.922Z</time></trkpt><trkpt lat="45.7735905" lon="12.5085099"><ele>7.0</ele><time>2026-03-29T07:46:18.917Z</time></trkpt><trkpt lat="45.7736065" lon="12.5082507"><ele>7.0</ele><time>2026-03-29T07:46:19.92Z</time></trkpt><trkpt lat="45.7736255" lon="12.5079983"><ele>6.666666666666667</ele><time>2026-03-29T07:46:20.919Z</time></trkpt><trkpt lat="45.7736402" lon="12.5077497"><ele>6.333333333333334</ele><time>2026-03-29T07:46:21.959Z</time></trkpt><trkpt lat="45.7736663" lon="12.5075062"><ele>6.0</ele><time>2026-03-29T07:46:22.927Z</time></trkpt><trkpt lat="45.7736992" lon="12.5072709"><ele>6.666666666666666</ele><time>2026-03-29T07:46:23.93Z</time></trkpt><trkpt lat="45.7737489" lon="12.5070488"><ele>7.333333333333333</ele><time>2026-03-29T07:46:24.92Z</time></trkpt><trkpt lat="45.7738136" lon="12.5068374"><ele>8.0</ele><time>2026-03-29T07:46:25.92Z</time></trkpt><trkpt lat="45.77389" lon="12.5066317"><ele>8.0</ele><time>2026-03-29T07:46:26.914Z</time></trkpt><trkpt lat="45.7739704" lon="12.5064259"><ele>8.0</ele><time>2026-03-29T07:46:27.934Z</time></trkpt><trkpt lat="45.7740572" lon="12.5062149"><ele>8.0</ele><time>2026-03-29T07:46:28.913Z</time></trkpt><trkpt lat="45.7741501" lon="12.505997"><ele>8.0</ele><time>2026-03-29T07:46:29.917Z</time></trkpt><trkpt lat="45.7742444" lon="12.5057729"><ele>8.0</ele><time>2026-03-29T07:46:30.904Z</time></trkpt><trkpt lat="45.774341" lon="12.5055481"><ele>8.0</ele><time>2026-03-29T07:46:31.927Z</time></trkpt><trkpt lat="45.7744328" lon="12.5053231"><ele>8.0</ele><time>2026-03-29T07:46:32.91Z</time></trkpt><trkpt lat="45.7745233" lon="12.5051041"><ele>8.0</ele><time>2026-03-29T07:46:33.93Z</time></trkpt><trkpt lat="45.7746099" lon="12.5048871"><ele>8.0</ele><time>2026-03-29T07:46:34.93Z</time></trkpt><trkpt lat="45.774702" lon="12.5046798"><ele>8.666666666666666</ele><time>2026-03-29T07:46:35.935Z</time></trkpt><trkpt lat="45.7747897" lon="12.5044736"><ele>9.333333333333334</ele><time>2026-03-29T07:46:36.913Z</time></trkpt><trkpt lat="45.7748789" lon="12.5042683"><ele>10.0</ele><time>2026-03-29T07:46:37.926Z</time></trkpt><trkpt lat="45.7749668" lon="12.5040611"><ele>10.0</ele><time>2026-03-29T07:46:38.923Z</time></trkpt><trkpt lat="45.7750529" lon="12.5038516"><ele>10.0</ele><time>2026-03-29T07:46:39.934Z</time></trkpt><trkpt lat="45.7751363" lon="12.5036407"><ele>10.0</ele><time>2026-03-29T07:46:40.919Z</time></trkpt><trkpt lat="45.7752224" lon="12.5034293"><ele>9.666666666666668</ele><time>2026-03-29T07:46:41.927Z</time></trkpt><trkpt lat="45.7753185" lon="12.5032252"><ele>9.333333333333334</ele><time>2026-03-29T07:46:42.921Z</time></trkpt><trkpt lat="45.7754106" lon="12.5030167"><ele>9.0</ele><time>2026-03-29T07:46:43.921Z</time></trkpt><trkpt lat="45.7755017" lon="12.5028086"><ele>9.0</ele><time>2026-03-29T07:46:44.919Z</time></trkpt><trkpt lat="45.7755871" lon="12.5026015"><ele>9.0</ele><time>2026-03-29T07:46:45.92Z</time></trkpt><trkpt lat="45.7756631" lon="12.5023946"><ele>9.0</ele><time>2026-03-29T07:46:46.904Z</time></trkpt><trkpt lat="45.7757362" lon="12.5021957"><ele>8.75</ele><time>2026-03-29T07:46:47.936Z</time></trkpt><trkpt lat="45.7758071" lon="12.5020099"><ele>8.5</ele><time>2026-03-29T07:46:48.906Z</time></trkpt><trkpt lat="45.7758686" lon="12.5018404"><ele>8.25</ele><time>2026-03-29T07:46:49.93Z</time></trkpt><trkpt lat="45.7759222" lon="12.5016873"><ele>8.0</ele><time>2026-03-29T07:46:50.914Z</time></trkpt><trkpt lat="45.7759812" lon="12.5015438"><ele>8.25</ele><time>2026-03-29T07:46:51.918Z</time></trkpt><trkpt lat="45.7760557" lon="12.5014026"><ele>8.5</ele><time>2026-03-29T07:46:52.917Z</time></trkpt><trkpt lat="45.7761198" lon="12.5012397"><ele>8.75</ele><time>2026-03-29T07:46:53.923Z</time></trkpt><trkpt lat="45.7761944" lon="12.5010743"><ele>9.0</ele><time>2026-03-29T07:46:54.917Z</time></trkpt><trkpt lat="45.7762924" lon="12.5009217"><ele>9.0</ele><time>2026-03-29T07:46:55.905Z</time></trkpt><trkpt lat="45.7763906" lon="12.5007635"><ele>9.0</ele><time>2026-03-29T07:46:56.945Z</time></trkpt><trkpt lat="45.7765033" lon="12.5005981"><ele>9.0</ele><time>2026-03-29T07:46:57.905Z</time></trkpt><trkpt lat="45.7766283" lon="12.5004347"><ele>9.333333333333334</ele><time>2026-03-29T07:46:58.909Z</time></trkpt><trkpt lat="45.7767626" lon="12.5002891"><ele>9.666666666666668</ele><time>2026-03-29T07:46:59.914Z</time></trkpt><trkpt lat="45.7768994" lon="12.5001606"><ele>10.0</ele><time>2026-03-29T07:47:00.918Z</time></trkpt><trkpt lat="45.7770328" lon="12.5000369"><ele>10.0</ele><time>2026-03-29T07:47:01.911Z</time></trkpt><trkpt lat="45.7771594" lon="12.4999217"><ele>10.0</ele><time>2026-03-29T07:47:02.919Z</time></trkpt><trkpt lat="45.7772752" lon="12.4998121"><ele>10.0</ele><time>2026-03-29T07:47:03.917Z</time></trkpt><trkpt lat="45.7773683" lon="12.4996755"><ele>10.0</ele><time>2026-03-29T07:47:04.911Z</time></trkpt><trkpt lat="45.7774716" lon="12.4995561"><ele>10.0</ele><time>2026-03-29T07:47:05.926Z</time></trkpt><trkpt lat="45.7775808" lon="12.4994368"><ele>10.0</ele><time>2026-03-29T07:47:06.919Z</time></trkpt><trkpt lat="45.777694" lon="12.4993111"><ele>10.0</ele><time>2026-03-29T07:47:07.915Z</time></trkpt><trkpt lat="45.7778164" lon="12.4991909"><ele>10.0</ele><time>2026-03-29T07:47:08.931Z</time></trkpt><trkpt lat="45.7779465" lon="12.4990709"><ele>10.0</ele><time>2026-03-29T07:47:09.925Z</time></trkpt><trkpt lat="45.7780764" lon="12.4989338"><ele>10.0</ele><time>2026-03-29T07:47:10.939Z</time></trkpt><trkpt lat="45.7782072" lon="12.4987936"><ele>10.0</ele><time>2026-03-29T07:47:11.924Z</time></trkpt><trkpt lat="45.7783412" lon="12.4986578"><ele>10.0</ele><time>2026-03-29T07:47:12.928Z</time></trkpt><trkpt lat="45.7784689" lon="12.4985102"><ele>10.0</ele><time>2026-03-29T07:47:13.938Z</time></trkpt><trkpt lat="45.7786085" lon="12.4983838"><ele>10.0</ele><time>2026-03-29T07:47:14.911Z</time></trkpt><trkpt lat="45.7787345" lon="12.4982351"><ele>10.333333333333334</ele><time>2026-03-29T07:47:15.957Z</time></trkpt><trkpt lat="45.7788636" lon="12.4980929"><ele>10.666666666666666</ele><time>2026-03-29T07:47:16.916Z</time></trkpt><trkpt lat="45.7789845" lon="12.4979513"><ele>11.0</ele><time>2026-03-29T07:47:17.953Z</time></trkpt><trkpt lat="45.7791024" lon="12.4978182"><ele>11.0</ele><time>2026-03-29T07:47:18.931Z</time></trkpt><trkpt lat="45.7792191" lon="12.4976983"><ele>11.0</ele><time>2026-03-29T07:47:19.944Z</time></trkpt><trkpt lat="45.7793301" lon="12.4975847"><ele>11.0</ele><time>2026-03-29T07:47:20.923Z</time></trkpt><trkpt lat="45.7794319" lon="12.4974782"><ele>11.0</ele><time>2026-03-29T07:47:21.94Z</time></trkpt><trkpt lat="45.779519" lon="12.4973838"><ele>11.4</ele><time>2026-03-29T07:47:22.915Z</time></trkpt><trkpt lat="45.7795828" lon="12.4973201"><ele>11.8</ele><time>2026-03-29T07:47:23.91Z</time></trkpt><trkpt lat="45.7796575" lon="12.4972499"><ele>12.200000000000001</ele><time>2026-03-29T07:47:25.926Z</time></trkpt><trkpt lat="45.779728" lon="12.4971779"><ele>12.600000000000001</ele><time>2026-03-29T07:47:28.918Z</time></trkpt><trkpt lat="45.7798261" lon="12.4971137"><ele>13.0</ele><time>2026-03-29T07:47:31.909Z</time></trkpt><trkpt lat="45.7799247" lon="12.4971959"><ele>12.999999999999998</ele><time>2026-03-29T07:47:33.954Z</time></trkpt><trkpt lat="45.7799646" lon="12.4972701"><ele>13.0</ele><time>2026-03-29T07:47:34.924Z</time></trkpt><trkpt lat="45.7800116" lon="12.4973564"><ele>13.0</ele><time>2026-03-29T07:47:35.921Z</time></trkpt><trkpt lat="45.7800609" lon="12.4974552"><ele>13.0</ele><time>2026-03-29T07:47:36.91Z</time></trkpt><trkpt lat="45.7801245" lon="12.4975509"><ele>12.999999999999998</ele><time>2026-03-29T07:47:37.947Z</time></trkpt><trkpt lat="45.7801965" lon="12.497657"><ele>13.0</ele><time>2026-03-29T07:47:38.93Z</time></trkpt><trkpt lat="45.7802626" lon="12.4977693"><ele>12.8</ele><time>2026-03-29T07:47:39.92Z</time></trkpt><trkpt lat="45.7803242" lon="12.4978842"><ele>12.600000000000001</ele><time>2026-03-29T07:47:40.924Z</time></trkpt><trkpt lat="45.7803952" lon="12.4979873"><ele>12.399999999999999</ele><time>2026-03-29T07:47:41.929Z</time></trkpt><trkpt lat="45.7804794" lon="12.4980665"><ele>12.2</ele><time>2026-03-29T07:47:42.928Z</time></trkpt><trkpt lat="45.7805617" lon="12.4981534"><ele>12.0</ele><time>2026-03-29T07:47:43.929Z</time></trkpt><trkpt lat="45.7806456" lon="12.4982441"><ele>11.6</ele><time>2026-03-29T07:47:44.93Z</time></trkpt><trkpt lat="45.7807353" lon="12.4983268"><ele>11.2</ele><time>2026-03-29T07:47:45.917Z</time></trkpt><trkpt lat="45.7808235" lon="12.4984156"><ele>10.8</ele><time>2026-03-29T07:47:46.915Z</time></trkpt><trkpt lat="45.7809168" lon="12.498501"><ele>10.4</ele><time>2026-03-29T07:47:47.933Z</time></trkpt><trkpt lat="45.7810097" lon="12.4985942"><ele>10.0</ele><time>2026-03-29T07:47:48.925Z</time></trkpt><trkpt lat="45.781112" lon="12.4986757"><ele>10.0</ele><time>2026-03-29T07:47:49.924Z</time></trkpt><trkpt lat="45.7812144" lon="12.4987615"><ele>10.0</ele><time>2026-03-29T07:47:50.928Z</time></trkpt><trkpt lat="45.7813278" lon="12.4988226"><ele>10.0</ele><time>2026-03-29T07:47:51.917Z</time></trkpt><trkpt lat="45.7814461" lon="12.4988778"><ele>10.0</ele><time>2026-03-29T07:47:52.927Z</time></trkpt><trkpt lat="45.7815688" lon="12.4989373"><ele>10.0</ele><time>2026-03-29T07:47:53.927Z</time></trkpt><trkpt lat="45.7817036" lon="12.4989743"><ele>10.0</ele><time>2026-03-29T07:47:54.918Z</time></trkpt><trkpt lat="45.7818432" lon="12.4990138"><ele>10.0</ele><time>2026-03-29T07:47:55.931Z</time></trkpt><trkpt lat="45.7819838" lon="12.4990374"><ele>10.0</ele><time>2026-03-29T07:47:56.931Z</time></trkpt><trkpt lat="45.7821229" lon="12.4990428"><ele>10.0</ele><time>2026-03-29T07:47:57.936Z</time></trkpt><trkpt lat="45.7822564" lon="12.4990368"><ele>10.0</ele><time>2026-03-29T07:47:58.92Z</time></trkpt><trkpt lat="45.7823856" lon="12.4990598"><ele>10.0</ele><time>2026-03-29T07:47:59.945Z</time></trkpt><trkpt lat="45.7825113" lon="12.4990782"><ele>10.0</ele><time>2026-03-29T07:48:00.933Z</time></trkpt><trkpt lat="45.7826337" lon="12.499089"><ele>9.75</ele><time>2026-03-29T07:48:01.929Z</time></trkpt><trkpt lat="45.7827538" lon="12.4991093"><ele>9.5</ele><time>2026-03-29T07:48:02.917Z</time></trkpt><trkpt lat="45.7828688" lon="12.4991186"><ele>9.25</ele><time>2026-03-29T07:48:03.954Z</time></trkpt><trkpt lat="45.7829785" lon="12.499126"><ele>9.0</ele><time>2026-03-29T07:48:04.939Z</time></trkpt><trkpt lat="45.7830838" lon="12.4991498"><ele>9.0</ele><time>2026-03-29T07:48:05.943Z</time></trkpt><trkpt lat="45.7831752" lon="12.4991626"><ele>9.0</ele><time>2026-03-29T07:48:06.931Z</time></trkpt><trkpt lat="45.7832481" lon="12.4991703"><ele>9.0</ele><time>2026-03-29T07:48:07.915Z</time></trkpt><trkpt lat="45.7833765" lon="12.49919"><ele>9.0</ele><time>2026-03-29T07:48:09.918Z</time></trkpt><trkpt lat="45.7834578" lon="12.4991881"><ele>9.0</ele><time>2026-03-29T07:48:10.928Z</time></trkpt><trkpt lat="45.7835525" lon="12.4991827"><ele>9.75</ele><time>2026-03-29T07:48:11.927Z</time></trkpt><trkpt lat="45.7836586" lon="12.4992061"><ele>10.5</ele><time>2026-03-29T07:48:12.929Z</time></trkpt><trkpt lat="45.7837732" lon="12.4992552"><ele>11.25</ele><time>2026-03-29T07:48:13.92Z</time></trkpt><trkpt lat="45.7838903" lon="12.4993216"><ele>12.0</ele><time>2026-03-29T07:48:14.935Z</time></trkpt><trkpt lat="45.7840034" lon="12.4994153"><ele>12.0</ele><time>2026-03-29T07:48:15.936Z</time></trkpt><trkpt lat="45.7841204" lon="12.4995462"><ele>12.0</ele><time>2026-03-29T07:48:16.908Z</time></trkpt><trkpt lat="45.7842478" lon="12.4996842"><ele>12.0</ele><time>2026-03-29T07:48:17.921Z</time></trkpt><trkpt lat="45.7843773" lon="12.4998384"><ele>12.666666666666668</ele><time>2026-03-29T07:48:18.925Z</time></trkpt><trkpt lat="45.7845064" lon="12.4999777"><ele>13.333333333333334</ele><time>2026-03-29T07:48:19.928Z</time></trkpt><trkpt lat="45.7846357" lon="12.5001041"><ele>14.0</ele><time>2026-03-29T07:48:20.929Z</time></trkpt><trkpt lat="45.7847632" lon="12.5002212"><ele>14.0</ele><time>2026-03-29T07:48:21.93Z</time></trkpt><trkpt lat="45.7848817" lon="12.5003347"><ele>14.0</ele><time>2026-03-29T07:48:22.917Z</time></trkpt><trkpt lat="45.7849866" lon="12.5004515"><ele>14.0</ele><time>2026-03-29T07:48:23.908Z</time></trkpt><trkpt lat="45.7850855" lon="12.5005681"><ele>14.0</ele><time>2026-03-29T07:48:24.929Z</time></trkpt><trkpt lat="45.7851771" lon="12.5006698"><ele>14.0</ele><time>2026-03-29T07:48:25.933Z</time></trkpt><trkpt lat="45.7852664" lon="12.5007778"><ele>14.0</ele><time>2026-03-29T07:48:26.929Z</time></trkpt><trkpt lat="45.785358" lon="12.5008845"><ele>14.0</ele><time>2026-03-29T07:48:27.918Z</time></trkpt><trkpt lat="45.785453" lon="12.5009777"><ele>14.0</ele><time>2026-03-29T07:48:28.907Z</time></trkpt><trkpt lat="45.7855464" lon="12.5010711"><ele>14.0</ele><time>2026-03-29T07:48:29.927Z</time></trkpt><trkpt lat="45.7856338" lon="12.5011755"><ele>14.0</ele><time>2026-03-29T07:48:30.922Z</time></trkpt><trkpt lat="45.785722" lon="12.501275"><ele>14.0</ele><time>2026-03-29T07:48:31.921Z</time></trkpt><trkpt lat="45.7858098" lon="12.5013792"><ele>14.0</ele><time>2026-03-29T07:48:32.921Z</time></trkpt><trkpt lat="45.7858938" lon="12.501488"><ele>13.399999999999999</ele><time>2026-03-29T07:48:33.923Z</time></trkpt><trkpt lat="45.7859781" lon="12.5015945"><ele>12.799999999999999</ele><time>2026-03-29T07:48:34.91Z</time></trkpt><trkpt lat="45.7860602" lon="12.5016984"><ele>12.2</ele><time>2026-03-29T07:48:35.924Z</time></trkpt><trkpt lat="45.7861388" lon="12.5018013"><ele>11.600000000000001</ele><time>2026-03-29T07:48:36.928Z</time></trkpt><trkpt lat="45.7862166" lon="12.5018999"><ele>11.0</ele><time>2026-03-29T07:48:37.918Z</time></trkpt><trkpt lat="45.7862981" lon="12.5019802"><ele>10.833333333333332</ele><time>2026-03-29T07:48:38.929Z</time></trkpt><trkpt lat="45.7863768" lon="12.5020497"><ele>10.666666666666666</ele><time>2026-03-29T07:48:39.923Z</time></trkpt><trkpt lat="45.7864388" lon="12.5021272"><ele>10.5</ele><time>2026-03-29T07:48:40.909Z</time></trkpt><trkpt lat="45.7864948" lon="12.5022061"><ele>10.333333333333334</ele><time>2026-03-29T07:48:41.924Z</time></trkpt><trkpt lat="45.7865459" lon="12.5022845"><ele>10.166666666666668</ele><time>2026-03-29T07:48:42.928Z</time></trkpt><trkpt lat="45.7865811" lon="12.5023677"><ele>10.0</ele><time>2026-03-29T07:48:43.929Z</time></trkpt><trkpt lat="45.786688" lon="12.5024388"><ele>9.833333333333334</ele><time>2026-03-29T07:48:45.908Z</time></trkpt><trkpt lat="45.7867609" lon="12.5023987"><ele>9.666666666666668</ele><time>2026-03-29T07:48:46.92Z</time></trkpt><trkpt lat="45.7868215" lon="12.5023468"><ele>9.5</ele><time>2026-03-29T07:48:47.928Z</time></trkpt><trkpt lat="45.7868805" lon="12.5022699"><ele>9.333333333333334</ele><time>2026-03-29T07:48:48.911Z</time></trkpt><trkpt lat="45.7869489" lon="12.5021978"><ele>9.166666666666666</ele><time>2026-03-29T07:48:49.915Z</time></trkpt><trkpt lat="45.7870289" lon="12.5021417"><ele>9.0</ele><time>2026-03-29T07:48:50.929Z</time></trkpt><trkpt lat="45.7871113" lon="12.5020862"><ele>9.5</ele><time>2026-03-29T07:48:51.941Z</time></trkpt><trkpt lat="45.787211" lon="12.5020314"><ele>10.0</ele><time>2026-03-29T07:48:52.924Z</time></trkpt><trkpt lat="45.787323" lon="12.5019645"><ele>10.5</ele><time>2026-03-29T07:48:53.93Z</time></trkpt><trkpt lat="45.7874409" lon="12.5018939"><ele>11.0</ele><time>2026-03-29T07:48:54.924Z</time></trkpt><trkpt lat="45.7875677" lon="12.5018337"><ele>11.0</ele><time>2026-03-29T07:48:55.92Z</time></trkpt><trkpt lat="45.7876948" lon="12.5017536"><ele>11.0</ele><time>2026-03-29T07:48:56.931Z</time></trkpt><trkpt lat="45.7878296" lon="12.5016876"><ele>11.0</ele><time>2026-03-29T07:48:57.922Z</time></trkpt><trkpt lat="45.7879631" lon="12.5016268"><ele>11.0</ele><time>2026-03-29T07:48:58.917Z</time></trkpt><trkpt lat="45.7880997" lon="12.5015731"><ele>11.0</ele><time>2026-03-29T07:48:59.925Z</time></trkpt><trkpt lat="45.788232" lon="12.5015085"><ele>11.0</ele><time>2026-03-29T07:49:00.941Z</time></trkpt><trkpt lat="45.788365" lon="12.501451"><ele>11.0</ele><time>2026-03-29T07:49:01.912Z</time></trkpt><trkpt lat="45.7884938" lon="12.501385"><ele>11.0</ele><time>2026-03-29T07:49:02.929Z</time></trkpt><trkpt lat="45.7886228" lon="12.5013126"><ele>11.0</ele><time>2026-03-29T07:49:03.933Z</time></trkpt><trkpt lat="45.7887543" lon="12.5012449"><ele>11.0</ele><time>2026-03-29T07:49:04.926Z</time></trkpt><trkpt lat="45.7888842" lon="12.5011725"><ele>11.0</ele><time>2026-03-29T07:49:05.93Z</time></trkpt><trkpt lat="45.7890167" lon="12.5011066"><ele>11.0</ele><time>2026-03-29T07:49:06.922Z</time></trkpt><trkpt lat="45.7891483" lon="12.5010425"><ele>11.0</ele><time>2026-03-29T07:49:07.934Z</time></trkpt><trkpt lat="45.7892805" lon="12.5009825"><ele>11.0</ele><time>2026-03-29T07:49:08.93Z</time></trkpt><trkpt lat="45.7894099" lon="12.5009115"><ele>11.0</ele><time>2026-03-29T07:49:09.93Z</time></trkpt><trkpt lat="45.7895428" lon="12.5008457"><ele>11.0</ele><time>2026-03-29T07:49:10.928Z</time></trkpt><trkpt lat="45.7896732" lon="12.5007662"><ele>10.5</ele><time>2026-03-29T07:49:11.927Z</time></trkpt><trkpt lat="45.7898085" lon="12.5006957"><ele>10.0</ele><time>2026-03-29T07:49:12.925Z</time></trkpt><trkpt lat="45.7899433" lon="12.5006239"><ele>9.5</ele><time>2026-03-29T07:49:13.945Z</time></trkpt><trkpt lat="45.7900755" lon="12.5005462"><ele>9.0</ele><time>2026-03-29T07:49:14.92Z</time></trkpt><trkpt lat="45.7902057" lon="12.5004832"><ele>9.0</ele><time>2026-03-29T07:49:15.931Z</time></trkpt><trkpt lat="45.790331" lon="12.5004202"><ele>9.0</ele><time>2026-03-29T07:49:16.918Z</time></trkpt><trkpt lat="45.7904527" lon="12.500358"><ele>9.0</ele><time>2026-03-29T07:49:17.918Z</time></trkpt><trkpt lat="45.7905703" lon="12.5002951"><ele>9.0</ele><time>2026-03-29T07:49:18.918Z</time></trkpt><trkpt lat="45.7906848" lon="12.5002292"><ele>9.25</ele><time>2026-03-29T07:49:19.92Z</time></trkpt><trkpt lat="45.7907986" lon="12.5001659"><ele>9.5</ele><time>2026-03-29T07:49:20.923Z</time></trkpt><trkpt lat="45.7909181" lon="12.500109"><ele>9.75</ele><time>2026-03-29T07:49:21.922Z</time></trkpt><trkpt lat="45.79104" lon="12.5000526"><ele>10.0</ele><time>2026-03-29T07:49:22.927Z</time></trkpt><trkpt lat="45.7911641" lon="12.4999922"><ele>9.5</ele><time>2026-03-29T07:49:23.919Z</time></trkpt><trkpt lat="45.7912936" lon="12.4999228"><ele>9.0</ele><time>2026-03-29T07:49:24.931Z</time></trkpt><trkpt lat="45.7914255" lon="12.4998481"><ele>8.5</ele><time>2026-03-29T07:49:25.931Z</time></trkpt><trkpt lat="45.7915602" lon="12.4997661"><ele>8.0</ele><time>2026-03-29T07:49:26.931Z</time></trkpt><trkpt lat="45.7917003" lon="12.4996879"><ele>9.0</ele><time>2026-03-29T07:49:27.931Z</time></trkpt><trkpt lat="45.7918444" lon="12.499611"><ele>10.0</ele><time>2026-03-29T07:49:28.924Z</time></trkpt><trkpt lat="45.791991" lon="12.4995339"><ele>11.0</ele><time>2026-03-29T07:49:29.918Z</time></trkpt><trkpt lat="45.7921416" lon="12.4994584"><ele>11.0</ele><time>2026-03-29T07:49:30.939Z</time></trkpt><trkpt lat="45.7922957" lon="12.4993837"><ele>11.0</ele><time>2026-03-29T07:49:31.935Z</time></trkpt><trkpt lat="45.7924511" lon="12.4993111"><ele>11.0</ele><time>2026-03-29T07:49:32.935Z</time></trkpt><trkpt lat="45.7926043" lon="12.4992347"><ele>11.0</ele><time>2026-03-29T07:49:33.928Z</time></trkpt><trkpt lat="45.7927558" lon="12.4991583"><ele>11.0</ele><time>2026-03-29T07:49:34.927Z</time></trkpt><trkpt lat="45.7929046" lon="12.4990844"><ele>11.0</ele><time>2026-03-29T07:49:35.943Z</time></trkpt><trkpt lat="45.7930486" lon="12.4990103"><ele>11.0</ele><time>2026-03-29T07:49:36.931Z</time></trkpt><trkpt lat="45.7931916" lon="12.4989384"><ele>11.0</ele><time>2026-03-29T07:49:37.93Z</time></trkpt><trkpt lat="45.7933365" lon="12.4988701"><ele>11.0</ele><time>2026-03-29T07:49:38.934Z</time></trkpt><trkpt lat="45.7934738" lon="12.498787"><ele>11.0</ele><time>2026-03-29T07:49:39.937Z</time></trkpt><trkpt lat="45.7936178" lon="12.4987231"><ele>11.0</ele><time>2026-03-29T07:49:40.913Z</time></trkpt><trkpt lat="45.7937578" lon="12.4986565"><ele>11.0</ele><time>2026-03-29T07:49:41.934Z</time></trkpt><trkpt lat="45.7938948" lon="12.4985801"><ele>11.0</ele><time>2026-03-29T07:49:42.915Z</time></trkpt><trkpt lat="45.7940323" lon="12.4984998"><ele>11.0</ele><time>2026-03-29T07:49:43.936Z</time></trkpt><trkpt lat="45.7941701" lon="12.4984236"><ele>11.0</ele><time>2026-03-29T07:49:44.916Z</time></trkpt><trkpt lat="45.7942987" lon="12.4983338"><ele>11.0</ele><time>2026-03-29T07:49:45.937Z</time></trkpt><trkpt lat="45.7944301" lon="12.4982654"><ele>11.0</ele><time>2026-03-29T07:49:46.927Z</time></trkpt><trkpt lat="45.7945652" lon="12.4982191"><ele>10.75</ele><time>2026-03-29T07:49:47.945Z</time></trkpt><trkpt lat="45.794692" lon="12.4981595"><ele>10.5</ele><time>2026-03-29T07:49:48.925Z</time></trkpt><trkpt lat="45.7948173" lon="12.4981111"><ele>10.25</ele><time>2026-03-29T07:49:49.932Z</time></trkpt><trkpt lat="45.7949396" lon="12.4980679"><ele>10.0</ele><time>2026-03-29T07:49:50.92Z</time></trkpt><trkpt lat="45.7950531" lon="12.4980286"><ele>10.0</ele><time>2026-03-29T07:49:51.917Z</time></trkpt><trkpt lat="45.7951576" lon="12.4979903"><ele>10.0</ele><time>2026-03-29T07:49:52.931Z</time></trkpt><trkpt lat="45.7952387" lon="12.4979885"><ele>10.0</ele><time>2026-03-29T07:49:53.927Z</time></trkpt><trkpt lat="45.7953012" lon="12.4980203"><ele>10.0</ele><time>2026-03-29T07:49:55.93Z</time></trkpt><trkpt lat="45.795399" lon="12.4980789"><ele>10.0</ele><time>2026-03-29T07:49:59.938Z</time></trkpt><trkpt lat="45.7954632" lon="12.4980889"><ele>10.0</ele><time>2026-03-29T07:50:00.947Z</time></trkpt><trkpt lat="45.7955418" lon="12.498083"><ele>10.0</ele><time>2026-03-29T07:50:01.937Z</time></trkpt><trkpt lat="45.7956258" lon="12.498045"><ele>10.0</ele><time>2026-03-29T07:50:02.917Z</time></trkpt><trkpt lat="45.7957165" lon="12.4979743"><ele>10.0</ele><time>2026-03-29T07:50:03.938Z</time></trkpt><trkpt lat="45.7958073" lon="12.4978735"><ele>10.0</ele><time>2026-03-29T07:50:04.913Z</time></trkpt><trkpt lat="45.7959053" lon="12.4977693"><ele>10.0</ele><time>2026-03-29T07:50:05.915Z</time></trkpt><trkpt lat="45.7960276" lon="12.4976779"><ele>10.0</ele><time>2026-03-29T07:50:06.923Z</time></trkpt><trkpt lat="45.7961813" lon="12.4976287"><ele>10.0</ele><time>2026-03-29T07:50:07.926Z</time></trkpt><trkpt lat="45.7963341" lon="12.4975989"><ele>10.0</ele><time>2026-03-29T07:50:08.921Z</time></trkpt><trkpt lat="45.7964833" lon="12.4975558"><ele>10.0</ele><time>2026-03-29T07:50:09.91Z</time></trkpt><trkpt lat="45.7966315" lon="12.497497"><ele>10.0</ele><time>2026-03-29T07:50:10.911Z</time></trkpt><trkpt lat="45.7967832" lon="12.4974357"><ele>10.0</ele><time>2026-03-29T07:50:11.909Z</time></trkpt><trkpt lat="45.7969339" lon="12.4973792"><ele>9.75</ele><time>2026-03-29T07:50:12.915Z</time></trkpt><trkpt lat="45.7970803" lon="12.497326"><ele>9.5</ele><time>2026-03-29T07:50:13.919Z</time></trkpt><trkpt lat="45.7972206" lon="12.4972734"><ele>9.25</ele><time>2026-03-29T07:50:14.94Z</time></trkpt><trkpt lat="45.7973546" lon="12.4972257"><ele>9.0</ele><time>2026-03-29T07:50:15.911Z</time></trkpt><trkpt lat="45.7974863" lon="12.4971894"><ele>9.0</ele><time>2026-03-29T07:50:16.907Z</time></trkpt><trkpt lat="45.7976152" lon="12.4971443"><ele>9.0</ele><time>2026-03-29T07:50:17.924Z</time></trkpt><trkpt lat="45.797748" lon="12.4971017"><ele>9.0</ele><time>2026-03-29T07:50:18.917Z</time></trkpt><trkpt lat="45.7978908" lon="12.4970434"><ele>9.0</ele><time>2026-03-29T07:50:19.91Z</time></trkpt><trkpt lat="45.7980544" lon="12.4969794"><ele>9.0</ele><time>2026-03-29T07:50:20.906Z</time></trkpt><trkpt lat="45.7982355" lon="12.4969108"><ele>9.0</ele><time>2026-03-29T07:50:21.929Z</time></trkpt><trkpt lat="45.7984205" lon="12.4968378"><ele>9.0</ele><time>2026-03-29T07:50:22.905Z</time></trkpt><trkpt lat="45.7986006" lon="12.4967808"><ele>9.333333333333334</ele><time>2026-03-29T07:50:23.915Z</time></trkpt><trkpt lat="45.7987707" lon="12.4967276"><ele>9.666666666666668</ele><time>2026-03-29T07:50:24.916Z</time></trkpt><trkpt lat="45.798932" lon="12.4966798"><ele>10.0</ele><time>2026-03-29T07:50:25.918Z</time></trkpt><trkpt lat="45.7990875" lon="12.4966243"><ele>10.0</ele><time>2026-03-29T07:50:26.915Z</time></trkpt><trkpt lat="45.7992475" lon="12.4965795"><ele>10.0</ele><time>2026-03-29T07:50:27.912Z</time></trkpt><trkpt lat="45.7994059" lon="12.4965259"><ele>10.0</ele><time>2026-03-29T07:50:28.908Z</time></trkpt><trkpt lat="45.7995638" lon="12.4964699"><ele>9.666666666666668</ele><time>2026-03-29T07:50:29.921Z</time></trkpt><trkpt lat="45.7997224" lon="12.4964141"><ele>9.333333333333334</ele><time>2026-03-29T07:50:30.923Z</time></trkpt><trkpt lat="45.7998868" lon="12.4963661"><ele>9.0</ele><time>2026-03-29T07:50:31.909Z</time></trkpt><trkpt lat="45.8000523" lon="12.4963099"><ele>9.666666666666666</ele><time>2026-03-29T07:50:32.93Z</time></trkpt><trkpt lat="45.8002226" lon="12.496255"><ele>10.333333333333332</ele><time>2026-03-29T07:50:33.93Z</time></trkpt><trkpt lat="45.8003955" lon="12.4961973"><ele>11.0</ele><time>2026-03-29T07:50:34.929Z</time></trkpt><trkpt lat="45.8005668" lon="12.4961377"><ele>11.0</ele><time>2026-03-29T07:50:35.909Z</time></trkpt><trkpt lat="45.800735" lon="12.4960785"><ele>11.0</ele><time>2026-03-29T07:50:36.921Z</time></trkpt><trkpt lat="45.8009008" lon="12.4960231"><ele>11.0</ele><time>2026-03-29T07:50:37.911Z</time></trkpt><trkpt lat="45.801065" lon="12.4959678"><ele>11.666666666666666</ele><time>2026-03-29T07:50:38.925Z</time></trkpt><trkpt lat="45.8012239" lon="12.4959083"><ele>12.333333333333332</ele><time>2026-03-29T07:50:39.926Z</time></trkpt><trkpt lat="45.8013836" lon="12.4958581"><ele>13.0</ele><time>2026-03-29T07:50:40.92Z</time></trkpt><trkpt lat="45.8015419" lon="12.4958008"><ele>13.0</ele><time>2026-03-29T07:50:41.926Z</time></trkpt><trkpt lat="45.8017014" lon="12.4957555"><ele>13.0</ele><time>2026-03-29T07:50:42.924Z</time></trkpt><trkpt lat="45.8018612" lon="12.495713"><ele>13.0</ele><time>2026-03-29T07:50:43.913Z</time></trkpt><trkpt lat="45.8020199" lon="12.4956597"><ele>12.333333333333332</ele><time>2026-03-29T07:50:44.928Z</time></trkpt><trkpt lat="45.8021804" lon="12.4956005"><ele>11.666666666666666</ele><time>2026-03-29T07:50:45.927Z</time></trkpt><trkpt lat="45.8023462" lon="12.4955425"><ele>11.0</ele><time>2026-03-29T07:50:46.901Z</time></trkpt><trkpt lat="45.8025173" lon="12.4954805"><ele>11.333333333333332</ele><time>2026-03-29T07:50:47.929Z</time></trkpt><trkpt lat="45.8026886" lon="12.4954127"><ele>11.666666666666666</ele><time>2026-03-29T07:50:48.923Z</time></trkpt><trkpt lat="45.8028624" lon="12.4953598"><ele>12.0</ele><time>2026-03-29T07:50:49.934Z</time></trkpt><trkpt lat="45.8030343" lon="12.4953019"><ele>12.0</ele><time>2026-03-29T07:50:50.939Z</time></trkpt><trkpt lat="45.8032043" lon="12.495243"><ele>12.0</ele><time>2026-03-29T07:50:51.924Z</time></trkpt><trkpt lat="45.8033708" lon="12.4951858"><ele>12.0</ele><time>2026-03-29T07:50:52.925Z</time></trkpt><trkpt lat="45.803531" lon="12.495133"><ele>12.333333333333332</ele><time>2026-03-29T07:50:53.939Z</time></trkpt><trkpt lat="45.8036833" lon="12.4950704"><ele>12.666666666666666</ele><time>2026-03-29T07:50:54.932Z</time></trkpt><trkpt lat="45.8038385" lon="12.4950273"><ele>13.0</ele><time>2026-03-29T07:50:55.933Z</time></trkpt><trkpt lat="45.8039893" lon="12.494966"><ele>13.0</ele><time>2026-03-29T07:50:56.918Z</time></trkpt><trkpt lat="45.8041433" lon="12.4949179"><ele>13.0</ele><time>2026-03-29T07:50:57.924Z</time></trkpt><trkpt lat="45.8042954" lon="12.4948575"><ele>13.0</ele><time>2026-03-29T07:50:58.923Z</time></trkpt><trkpt lat="45.804443" lon="12.4947782"><ele>12.333333333333332</ele><time>2026-03-29T07:50:59.925Z</time></trkpt><trkpt lat="45.8045917" lon="12.4947078"><ele>11.666666666666666</ele><time>2026-03-29T07:51:00.903Z</time></trkpt><trkpt lat="45.8047354" lon="12.4946129"><ele>11.0</ele><time>2026-03-29T07:51:01.915Z</time></trkpt><trkpt lat="45.8048751" lon="12.4945058"><ele>11.333333333333332</ele><time>2026-03-29T07:51:02.92Z</time></trkpt><trkpt lat="45.8050086" lon="12.4943811"><ele>11.666666666666666</ele><time>2026-03-29T07:51:03.911Z</time></trkpt><trkpt lat="45.8051378" lon="12.4942495"><ele>12.0</ele><time>2026-03-29T07:51:04.928Z</time></trkpt><trkpt lat="45.805257" lon="12.4941116"><ele>12.0</ele><time>2026-03-29T07:51:05.906Z</time></trkpt><trkpt lat="45.8053664" lon="12.4939682"><ele>12.0</ele><time>2026-03-29T07:51:06.939Z</time></trkpt><trkpt lat="45.805465" lon="12.4938193"><ele>12.0</ele><time>2026-03-29T07:51:07.933Z</time></trkpt><trkpt lat="45.8055513" lon="12.4936639"><ele>12.0</ele><time>2026-03-29T07:51:08.926Z</time></trkpt><trkpt lat="45.8056377" lon="12.4935263"><ele>11.6</ele><time>2026-03-29T07:51:09.916Z</time></trkpt><trkpt lat="45.8057173" lon="12.4934006"><ele>11.2</ele><time>2026-03-29T07:51:10.924Z</time></trkpt><trkpt lat="45.8057959" lon="12.4932869"><ele>10.8</ele><time>2026-03-29T07:51:11.93Z</time></trkpt><trkpt lat="45.8058734" lon="12.4931804"><ele>10.4</ele><time>2026-03-29T07:51:12.931Z</time></trkpt><trkpt lat="45.8059656" lon="12.4931057"><ele>10.0</ele><time>2026-03-29T07:51:13.909Z</time></trkpt><trkpt lat="45.8060589" lon="12.4930512"><ele>10.0</ele><time>2026-03-29T07:51:14.92Z</time></trkpt><trkpt lat="45.8061576" lon="12.4930214"><ele>10.0</ele><time>2026-03-29T07:51:15.911Z</time></trkpt><trkpt lat="45.8062543" lon="12.4929723"><ele>10.0</ele><time>2026-03-29T07:51:16.934Z</time></trkpt><trkpt lat="45.8063457" lon="12.4929044"><ele>10.0</ele><time>2026-03-29T07:51:17.927Z</time></trkpt><trkpt lat="45.8064243" lon="12.492813"><ele>10.0</ele><time>2026-03-29T07:51:18.918Z</time></trkpt><trkpt lat="45.8064643" lon="12.4926703"><ele>10.2</ele><time>2026-03-29T07:51:19.917Z</time></trkpt><trkpt lat="45.8064738" lon="12.4925162"><ele>10.4</ele><time>2026-03-29T07:51:20.912Z</time></trkpt><trkpt lat="45.806466" lon="12.4923594"><ele>10.600000000000001</ele><time>2026-03-29T07:51:21.96Z</time></trkpt><trkpt lat="45.806428" lon="12.4922093"><ele>10.8</ele><time>2026-03-29T07:51:22.935Z</time></trkpt><trkpt lat="45.8063643" lon="12.4920773"><ele>11.0</ele><time>2026-03-29T07:51:23.938Z</time></trkpt><trkpt lat="45.80634" lon="12.4919153"><ele>11.0</ele><time>2026-03-29T07:51:24.906Z</time></trkpt><trkpt lat="45.8063264" lon="12.491749"><ele>11.0</ele><time>2026-03-29T07:51:25.904Z</time></trkpt><trkpt lat="45.8063733" lon="12.491556"><ele>11.0</ele><time>2026-03-29T07:51:26.923Z</time></trkpt><trkpt lat="45.8064861" lon="12.4913662"><ele>11.0</ele><time>2026-03-29T07:51:27.93Z</time></trkpt><trkpt lat="45.8065874" lon="12.4911485"><ele>10.333333333333332</ele><time>2026-03-29T07:51:28.916Z</time></trkpt><trkpt lat="45.8066979" lon="12.4909068"><ele>9.666666666666666</ele><time>2026-03-29T07:51:29.917Z</time></trkpt><trkpt lat="45.8068249" lon="12.4906529"><ele>9.0</ele><time>2026-03-29T07:51:30.931Z</time></trkpt><trkpt lat="45.806953" lon="12.4903881"><ele>9.0</ele><time>2026-03-29T07:51:31.933Z</time></trkpt><trkpt lat="45.8070791" lon="12.4901155"><ele>9.0</ele><time>2026-03-29T07:51:32.933Z</time></trkpt><trkpt lat="45.8072017" lon="12.4898468"><ele>9.666666666666666</ele><time>2026-03-29T07:51:33.92Z</time></trkpt><trkpt lat="45.8073218" lon="12.4895861"><ele>10.333333333333332</ele><time>2026-03-29T07:51:34.921Z</time></trkpt><trkpt lat="45.8074445" lon="12.4893359"><ele>11.0</ele><time>2026-03-29T07:51:35.917Z</time></trkpt><trkpt lat="45.807567" lon="12.4890919"><ele>11.0</ele><time>2026-03-29T07:51:36.908Z</time></trkpt><trkpt lat="45.8076821" lon="12.4888455"><ele>11.0</ele><time>2026-03-29T07:51:37.926Z</time></trkpt><trkpt lat="45.8077914" lon="12.4886013"><ele>11.0</ele><time>2026-03-29T07:51:38.952Z</time></trkpt><trkpt lat="45.8078976" lon="12.4883606"><ele>11.0</ele><time>2026-03-29T07:51:39.926Z</time></trkpt><trkpt lat="45.8080029" lon="12.4881212"><ele>11.0</ele><time>2026-03-29T07:51:40.914Z</time></trkpt><trkpt lat="45.8081081" lon="12.4878833"><ele>11.0</ele><time>2026-03-29T07:51:41.913Z</time></trkpt><trkpt lat="45.808213" lon="12.4876455"><ele>11.0</ele><time>2026-03-29T07:51:42.936Z</time></trkpt><trkpt lat="45.8083195" lon="12.4874083"><ele>11.0</ele><time>2026-03-29T07:51:43.931Z</time></trkpt><trkpt lat="45.8084251" lon="12.487169"><ele>11.0</ele><time>2026-03-29T07:51:44.932Z</time></trkpt><trkpt lat="45.8085277" lon="12.486926"><ele>10.666666666666666</ele><time>2026-03-29T07:51:45.939Z</time></trkpt><trkpt lat="45.8086335" lon="12.4866853"><ele>10.333333333333334</ele><time>2026-03-29T07:51:46.912Z</time></trkpt><trkpt lat="45.8087378" lon="12.4864442"><ele>10.0</ele><time>2026-03-29T07:51:47.939Z</time></trkpt><trkpt lat="45.8088431" lon="12.4862048"><ele>9.666666666666668</ele><time>2026-03-29T07:51:48.919Z</time></trkpt><trkpt lat="45.8089466" lon="12.4859639"><ele>9.333333333333334</ele><time>2026-03-29T07:51:49.942Z</time></trkpt><trkpt lat="45.8090492" lon="12.4857223"><ele>9.0</ele><time>2026-03-29T07:51:50.917Z</time></trkpt><trkpt lat="45.8091524" lon="12.4854828"><ele>9.666666666666666</ele><time>2026-03-29T07:51:51.922Z</time></trkpt><trkpt lat="45.8092535" lon="12.4852428"><ele>10.333333333333332</ele><time>2026-03-29T07:51:52.914Z</time></trkpt><trkpt lat="45.8093535" lon="12.4850043"><ele>11.0</ele><time>2026-03-29T07:51:53.928Z</time></trkpt><trkpt lat="45.8094523" lon="12.4847671"><ele>10.666666666666666</ele><time>2026-03-29T07:51:54.915Z</time></trkpt><trkpt lat="45.8095532" lon="12.4845325"><ele>10.333333333333334</ele><time>2026-03-29T07:51:55.933Z</time></trkpt><trkpt lat="45.809653" lon="12.4842979"><ele>10.0</ele><time>2026-03-29T07:51:56.924Z</time></trkpt><trkpt lat="45.8097552" lon="12.4840653"><ele>10.0</ele><time>2026-03-29T07:51:57.947Z</time></trkpt><trkpt lat="45.8098595" lon="12.4838329"><ele>10.0</ele><time>2026-03-29T07:51:58.944Z</time></trkpt><trkpt lat="45.8099626" lon="12.4836016"><ele>10.0</ele><time>2026-03-29T07:51:59.918Z</time></trkpt><trkpt lat="45.8100662" lon="12.4833711"><ele>10.0</ele><time>2026-03-29T07:52:00.912Z</time></trkpt><trkpt lat="45.8101711" lon="12.4831407"><ele>10.0</ele><time>2026-03-29T07:52:01.939Z</time></trkpt><trkpt lat="45.8102725" lon="12.4829082"><ele>10.0</ele><time>2026-03-29T07:52:02.926Z</time></trkpt><trkpt lat="45.8103721" lon="12.4826741"><ele>10.0</ele><time>2026-03-29T07:52:03.94Z</time></trkpt><trkpt lat="45.8104712" lon="12.4824398"><ele>10.0</ele><time>2026-03-29T07:52:04.919Z</time></trkpt><trkpt lat="45.8105707" lon="12.4822061"><ele>10.0</ele><time>2026-03-29T07:52:05.937Z</time></trkpt><trkpt lat="45.8106696" lon="12.481972"><ele>10.333333333333334</ele><time>2026-03-29T07:52:06.935Z</time></trkpt><trkpt lat="45.8107643" lon="12.4817381"><ele>10.666666666666666</ele><time>2026-03-29T07:52:07.935Z</time></trkpt><trkpt lat="45.8108648" lon="12.4815076"><ele>11.0</ele><time>2026-03-29T07:52:08.918Z</time></trkpt><trkpt lat="45.810963" lon="12.4812757"><ele>11.0</ele><time>2026-03-29T07:52:09.931Z</time></trkpt><trkpt lat="45.8110641" lon="12.4810474"><ele>11.0</ele><time>2026-03-29T07:52:10.922Z</time></trkpt><trkpt lat="45.8111637" lon="12.4808193"><ele>11.0</ele><time>2026-03-29T07:52:11.942Z</time></trkpt><trkpt lat="45.8112613" lon="12.4805914"><ele>11.333333333333332</ele><time>2026-03-29T07:52:12.937Z</time></trkpt><trkpt lat="45.811359" lon="12.4803649"><ele>11.666666666666666</ele><time>2026-03-29T07:52:13.931Z</time></trkpt><trkpt lat="45.8114572" lon="12.4801379"><ele>12.0</ele><time>2026-03-29T07:52:14.93Z</time></trkpt><trkpt lat="45.8115567" lon="12.4799094"><ele>12.0</ele><time>2026-03-29T07:52:15.931Z</time></trkpt><trkpt lat="45.8116571" lon="12.4796796"><ele>12.0</ele><time>2026-03-29T07:52:16.928Z</time></trkpt><trkpt lat="45.8117529" lon="12.4794453"><ele>12.0</ele><time>2026-03-29T07:52:17.937Z</time></trkpt><trkpt lat="45.8118573" lon="12.4792186"><ele>11.666666666666666</ele><time>2026-03-29T07:52:18.932Z</time></trkpt><trkpt lat="45.8119577" lon="12.4789882"><ele>11.333333333333332</ele><time>2026-03-29T07:52:19.942Z</time></trkpt><trkpt lat="45.8120545" lon="12.478756"><ele>11.0</ele><time>2026-03-29T07:52:20.912Z</time></trkpt><trkpt lat="45.8121521" lon="12.4785225"><ele>11.0</ele><time>2026-03-29T07:52:21.932Z</time></trkpt><trkpt lat="45.8122481" lon="12.4782885"><ele>11.0</ele><time>2026-03-29T07:52:22.937Z</time></trkpt><trkpt lat="45.8123438" lon="12.4780577"><ele>11.0</ele><time>2026-03-29T07:52:23.932Z</time></trkpt><trkpt lat="45.8124409" lon="12.4778282"><ele>11.0</ele><time>2026-03-29T07:52:24.916Z</time></trkpt><trkpt lat="45.8125406" lon="12.4776026"><ele>11.0</ele><time>2026-03-29T07:52:25.927Z</time></trkpt><trkpt lat="45.8126393" lon="12.4773792"><ele>11.0</ele><time>2026-03-29T07:52:26.911Z</time></trkpt><trkpt lat="45.8127346" lon="12.4771591"><ele>11.0</ele><time>2026-03-29T07:52:27.931Z</time></trkpt><trkpt lat="45.8128289" lon="12.4769449"><ele>11.0</ele><time>2026-03-29T07:52:28.927Z</time></trkpt><trkpt lat="45.8129216" lon="12.4767332"><ele>11.0</ele><time>2026-03-29T07:52:29.929Z</time></trkpt><trkpt lat="45.8130214" lon="12.4765313"><ele>11.0</ele><time>2026-03-29T07:52:30.934Z</time></trkpt><trkpt lat="45.8131086" lon="12.4763276"><ele>11.0</ele><time>2026-03-29T07:52:31.927Z</time></trkpt><trkpt lat="45.8131947" lon="12.4761292"><ele>11.0</ele><time>2026-03-29T07:52:32.947Z</time></trkpt><trkpt lat="45.8132776" lon="12.4759381"><ele>12.0</ele><time>2026-03-29T07:52:33.943Z</time></trkpt><trkpt lat="45.8133563" lon="12.4757474"><ele>13.0</ele><time>2026-03-29T07:52:34.929Z</time></trkpt><trkpt lat="45.8134403" lon="12.4755557"><ele>14.0</ele><time>2026-03-29T07:52:35.931Z</time></trkpt><trkpt lat="45.8135264" lon="12.475363"><ele>14.0</ele><time>2026-03-29T07:52:36.92Z</time></trkpt><trkpt lat="45.8136143" lon="12.4751749"><ele>14.0</ele><time>2026-03-29T07:52:37.933Z</time></trkpt><trkpt lat="45.8136973" lon="12.4750031"><ele>14.0</ele><time>2026-03-29T07:52:38.93Z</time></trkpt><trkpt lat="45.8137692" lon="12.4748384"><ele>14.0</ele><time>2026-03-29T07:52:39.951Z</time></trkpt><trkpt lat="45.8138328" lon="12.4746933"><ele>13.799999999999999</ele><time>2026-03-29T07:52:40.916Z</time></trkpt><trkpt lat="45.8138938" lon="12.4745692"><ele>13.599999999999998</ele><time>2026-03-29T07:52:41.943Z</time></trkpt><trkpt lat="45.8139599" lon="12.4744535"><ele>13.4</ele><time>2026-03-29T07:52:42.937Z</time></trkpt><trkpt lat="45.8140418" lon="12.4743435"><ele>13.2</ele><time>2026-03-29T07:52:43.932Z</time></trkpt><trkpt lat="45.8141221" lon="12.47421"><ele>13.0</ele><time>2026-03-29T07:52:44.936Z</time></trkpt><trkpt lat="45.8142091" lon="12.4740647"><ele>13.0</ele><time>2026-03-29T07:52:45.924Z</time></trkpt><trkpt lat="45.8143082" lon="12.4739166"><ele>13.0</ele><time>2026-03-29T07:52:46.931Z</time></trkpt><trkpt lat="45.8144205" lon="12.4737718"><ele>13.0</ele><time>2026-03-29T07:52:47.928Z</time></trkpt><trkpt lat="45.8145417" lon="12.4736307"><ele>13.333333333333332</ele><time>2026-03-29T07:52:48.935Z</time></trkpt><trkpt lat="45.8146666" lon="12.4734934"><ele>13.666666666666668</ele><time>2026-03-29T07:52:49.923Z</time></trkpt><trkpt lat="45.8147944" lon="12.4733623"><ele>14.0</ele><time>2026-03-29T07:52:50.924Z</time></trkpt><trkpt lat="45.8149276" lon="12.4732438"><ele>14.0</ele><time>2026-03-29T07:52:51.929Z</time></trkpt><trkpt lat="45.8150603" lon="12.4731239"><ele>14.0</ele><time>2026-03-29T07:52:52.923Z</time></trkpt><trkpt lat="45.8152043" lon="12.4730249"><ele>14.0</ele><time>2026-03-29T07:52:53.924Z</time></trkpt><trkpt lat="45.8153489" lon="12.4729196"><ele>14.0</ele><time>2026-03-29T07:52:54.917Z</time></trkpt><trkpt lat="45.8154922" lon="12.4728116"><ele>14.0</ele><time>2026-03-29T07:52:55.925Z</time></trkpt><trkpt lat="45.8156373" lon="12.4727165"><ele>14.0</ele><time>2026-03-29T07:52:56.928Z</time></trkpt><trkpt lat="45.8157849" lon="12.4726251"><ele>14.0</ele><time>2026-03-29T07:52:57.919Z</time></trkpt><trkpt lat="45.8159363" lon="12.472545"><ele>14.0</ele><time>2026-03-29T07:52:58.934Z</time></trkpt><trkpt lat="45.8160824" lon="12.4724486"><ele>14.0</ele><time>2026-03-29T07:52:59.93Z</time></trkpt><trkpt lat="45.8162355" lon="12.472372"><ele>13.666666666666668</ele><time>2026-03-29T07:53:00.923Z</time></trkpt><trkpt lat="45.8163915" lon="12.4723027"><ele>13.333333333333332</ele><time>2026-03-29T07:53:01.929Z</time></trkpt><trkpt lat="45.8165532" lon="12.4722508"><ele>13.0</ele><time>2026-03-29T07:53:02.914Z</time></trkpt><trkpt lat="45.8167181" lon="12.4722058"><ele>13.0</ele><time>2026-03-29T07:53:03.929Z</time></trkpt><trkpt lat="45.8168864" lon="12.4721635"><ele>13.0</ele><time>2026-03-29T07:53:04.925Z</time></trkpt><trkpt lat="45.8170618" lon="12.4721392"><ele>13.0</ele><time>2026-03-29T07:53:05.921Z</time></trkpt><trkpt lat="45.8172423" lon="12.4721225"><ele>13.0</ele><time>2026-03-29T07:53:06.904Z</time></trkpt><trkpt lat="45.8174276" lon="12.4721105"><ele>13.0</ele><time>2026-03-29T07:53:07.917Z</time></trkpt><trkpt lat="45.8176141" lon="12.4721061"><ele>13.0</ele><time>2026-03-29T07:53:08.948Z</time></trkpt><trkpt lat="45.8178018" lon="12.4721017"><ele>12.0</ele><time>2026-03-29T07:53:09.924Z</time></trkpt><trkpt lat="45.8179881" lon="12.4720969"><ele>11.0</ele><time>2026-03-29T07:53:10.924Z</time></trkpt><trkpt lat="45.8181721" lon="12.4720944"><ele>10.0</ele><time>2026-03-29T07:53:11.926Z</time></trkpt><trkpt lat="45.8183538" lon="12.4720902"><ele>10.0</ele><time>2026-03-29T07:53:12.928Z</time></trkpt><trkpt lat="45.8185338" lon="12.4720784"><ele>10.0</ele><time>2026-03-29T07:53:13.947Z</time></trkpt><trkpt lat="45.8187115" lon="12.4720703"><ele>10.0</ele><time>2026-03-29T07:53:14.916Z</time></trkpt><trkpt lat="45.8188853" lon="12.4720688"><ele>10.0</ele><time>2026-03-29T07:53:15.923Z</time></trkpt><trkpt lat="45.819057" lon="12.4720649"><ele>10.0</ele><time>2026-03-29T07:53:16.916Z</time></trkpt><trkpt lat="45.8192286" lon="12.4720611"><ele>10.0</ele><time>2026-03-29T07:53:17.923Z</time></trkpt><trkpt lat="45.8193999" lon="12.4720567"><ele>10.0</ele><time>2026-03-29T07:53:18.918Z</time></trkpt><trkpt lat="45.8195726" lon="12.4720523"><ele>10.0</ele><time>2026-03-29T07:53:19.918Z</time></trkpt><trkpt lat="45.819748" lon="12.4720447"><ele>10.0</ele><time>2026-03-29T07:53:20.942Z</time></trkpt><trkpt lat="45.8199267" lon="12.4720381"><ele>10.0</ele><time>2026-03-29T07:53:21.925Z</time></trkpt><trkpt lat="45.8201079" lon="12.4720296"><ele>10.0</ele><time>2026-03-29T07:53:22.932Z</time></trkpt><trkpt lat="45.8202901" lon="12.4720207"><ele>10.0</ele><time>2026-03-29T07:53:23.917Z</time></trkpt><trkpt lat="45.8204727" lon="12.4720091"><ele>10.0</ele><time>2026-03-29T07:53:24.937Z</time></trkpt><trkpt lat="45.8206564" lon="12.4719999"><ele>10.0</ele><time>2026-03-29T07:53:25.941Z</time></trkpt><trkpt lat="45.820841" lon="12.4719924"><ele>10.0</ele><time>2026-03-29T07:53:26.919Z</time></trkpt><trkpt lat="45.8210269" lon="12.4719899"><ele>10.0</ele><time>2026-03-29T07:53:27.925Z</time></trkpt><trkpt lat="45.821214" lon="12.4719929"><ele>10.0</ele><time>2026-03-29T07:53:28.932Z</time></trkpt><trkpt lat="45.8214053" lon="12.4719905"><ele>10.0</ele><time>2026-03-29T07:53:29.954Z</time></trkpt><trkpt lat="45.8216023" lon="12.4719748"><ele>10.0</ele><time>2026-03-29T07:53:30.933Z</time></trkpt><trkpt lat="45.8218041" lon="12.4719615"><ele>10.0</ele><time>2026-03-29T07:53:31.945Z</time></trkpt><trkpt lat="45.8220104" lon="12.4719505"><ele>10.0</ele><time>2026-03-29T07:53:32.913Z</time></trkpt><trkpt lat="45.8222188" lon="12.4719485"><ele>10.0</ele><time>2026-03-29T07:53:33.93Z</time></trkpt><trkpt lat="45.8224246" lon="12.4719423"><ele>10.0</ele><time>2026-03-29T07:53:34.917Z</time></trkpt><trkpt lat="45.8226265" lon="12.4719307"><ele>10.0</ele><time>2026-03-29T07:53:35.939Z</time></trkpt><trkpt lat="45.8228226" lon="12.4719153"><ele>10.0</ele><time>2026-03-29T07:53:36.945Z</time></trkpt><trkpt lat="45.8230123" lon="12.4719043"><ele>10.0</ele><time>2026-03-29T07:53:37.931Z</time></trkpt><trkpt lat="45.8231965" lon="12.4719026"><ele>10.0</ele><time>2026-03-29T07:53:38.945Z</time></trkpt><trkpt lat="45.8233768" lon="12.4719022"><ele>11.0</ele><time>2026-03-29T07:53:39.932Z</time></trkpt><trkpt lat="45.8235565" lon="12.4718956"><ele>12.0</ele><time>2026-03-29T07:53:40.933Z</time></trkpt><trkpt lat="45.8237361" lon="12.4718901"><ele>13.0</ele><time>2026-03-29T07:53:41.914Z</time></trkpt><trkpt lat="45.8239155" lon="12.4718856"><ele>13.0</ele><time>2026-03-29T07:53:42.928Z</time></trkpt><trkpt lat="45.8240964" lon="12.4718809"><ele>13.0</ele><time>2026-03-29T07:53:43.929Z</time></trkpt><trkpt lat="45.8242783" lon="12.4718791"><ele>13.0</ele><time>2026-03-29T07:53:44.932Z</time></trkpt><trkpt lat="45.8244607" lon="12.4718745"><ele>12.666666666666666</ele><time>2026-03-29T07:53:45.94Z</time></trkpt><trkpt lat="45.8246444" lon="12.4718703"><ele>12.333333333333332</ele><time>2026-03-29T07:53:46.932Z</time></trkpt><trkpt lat="45.8248289" lon="12.4718616"><ele>12.0</ele><time>2026-03-29T07:53:47.924Z</time></trkpt><trkpt lat="45.8250148" lon="12.4718539"><ele>12.0</ele><time>2026-03-29T07:53:48.916Z</time></trkpt><trkpt lat="45.8252005" lon="12.4718452"><ele>12.0</ele><time>2026-03-29T07:53:49.926Z</time></trkpt><trkpt lat="45.8253857" lon="12.471835"><ele>12.0</ele><time>2026-03-29T07:53:50.929Z</time></trkpt><trkpt lat="45.8255697" lon="12.4718187"><ele>12.0</ele><time>2026-03-29T07:53:51.926Z</time></trkpt><trkpt lat="45.8257519" lon="12.4718038"><ele>12.0</ele><time>2026-03-29T07:53:52.936Z</time></trkpt><trkpt lat="45.8259311" lon="12.4717948"><ele>12.0</ele><time>2026-03-29T07:53:53.942Z</time></trkpt><trkpt lat="45.8261078" lon="12.4717877"><ele>12.666666666666668</ele><time>2026-03-29T07:53:54.929Z</time></trkpt><trkpt lat="45.8262822" lon="12.471773"><ele>13.333333333333334</ele><time>2026-03-29T07:53:55.934Z</time></trkpt><trkpt lat="45.8264541" lon="12.4717562"><ele>14.0</ele><time>2026-03-29T07:53:56.924Z</time></trkpt><trkpt lat="45.8266258" lon="12.4717002"><ele>14.0</ele><time>2026-03-29T07:53:57.924Z</time></trkpt><trkpt lat="45.8267965" lon="12.4716454"><ele>14.0</ele><time>2026-03-29T07:53:58.921Z</time></trkpt><trkpt lat="45.8269628" lon="12.4715512"><ele>14.0</ele><time>2026-03-29T07:53:59.933Z</time></trkpt><trkpt lat="45.8271281" lon="12.471454"><ele>14.0</ele><time>2026-03-29T07:54:00.947Z</time></trkpt><trkpt lat="45.8272893" lon="12.4713367"><ele>14.0</ele><time>2026-03-29T07:54:01.928Z</time></trkpt><trkpt lat="45.8274481" lon="12.4712071"><ele>14.0</ele><time>2026-03-29T07:54:02.92Z</time></trkpt><trkpt lat="45.8276044" lon="12.4710654"><ele>15.0</ele><time>2026-03-29T07:54:03.932Z</time></trkpt><trkpt lat="45.8277602" lon="12.4709201"><ele>16.0</ele><time>2026-03-29T07:54:04.934Z</time></trkpt><trkpt lat="45.8279166" lon="12.4707761"><ele>17.0</ele><time>2026-03-29T07:54:05.928Z</time></trkpt><trkpt lat="45.8280721" lon="12.4706321"><ele>17.0</ele><time>2026-03-29T07:54:06.924Z</time></trkpt><trkpt lat="45.8282275" lon="12.4704896"><ele>17.0</ele><time>2026-03-29T07:54:07.926Z</time></trkpt><trkpt lat="45.8283843" lon="12.4703481"><ele>17.0</ele><time>2026-03-29T07:54:08.924Z</time></trkpt><trkpt lat="45.8285427" lon="12.4702043"><ele>17.0</ele><time>2026-03-29T07:54:09.949Z</time></trkpt><trkpt lat="45.8287005" lon="12.470056"><ele>17.0</ele><time>2026-03-29T07:54:10.929Z</time></trkpt><trkpt lat="45.828859" lon="12.4699105"><ele>17.0</ele><time>2026-03-29T07:54:11.94Z</time></trkpt><trkpt lat="45.8290144" lon="12.469764"><ele>17.0</ele><time>2026-03-29T07:54:12.926Z</time></trkpt><trkpt lat="45.829165" lon="12.469627"><ele>17.0</ele><time>2026-03-29T07:54:13.961Z</time></trkpt><trkpt lat="45.8293096" lon="12.4694965"><ele>17.0</ele><time>2026-03-29T07:54:14.925Z</time></trkpt><trkpt lat="45.8294528" lon="12.4693707"><ele>16.666666666666668</ele><time>2026-03-29T07:54:15.948Z</time></trkpt><trkpt lat="45.8295937" lon="12.4692492"><ele>16.333333333333332</ele><time>2026-03-29T07:54:16.938Z</time></trkpt><trkpt lat="45.8297274" lon="12.4691266"><ele>16.0</ele><time>2026-03-29T07:54:17.937Z</time></trkpt><trkpt lat="45.8298589" lon="12.4690061"><ele>16.0</ele><time>2026-03-29T07:54:18.91Z</time></trkpt><trkpt lat="45.8299858" lon="12.4688886"><ele>16.0</ele><time>2026-03-29T07:54:19.927Z</time></trkpt><trkpt lat="45.8301061" lon="12.4687799"><ele>16.0</ele><time>2026-03-29T07:54:20.915Z</time></trkpt><trkpt lat="45.8302215" lon="12.4686798"><ele>16.0</ele><time>2026-03-29T07:54:21.938Z</time></trkpt><trkpt lat="45.8303415" lon="12.4685996"><ele>16.0</ele><time>2026-03-29T07:54:22.917Z</time></trkpt><trkpt lat="45.8304508" lon="12.4685032"><ele>16.0</ele><time>2026-03-29T07:54:23.926Z</time></trkpt><trkpt lat="45.8305541" lon="12.468407"><ele>16.0</ele><time>2026-03-29T07:54:24.923Z</time></trkpt><trkpt lat="45.8306552" lon="12.4683152"><ele>16.0</ele><time>2026-03-29T07:54:25.924Z</time></trkpt><trkpt lat="45.8307565" lon="12.4682344"><ele>16.0</ele><time>2026-03-29T07:54:26.922Z</time></trkpt><trkpt lat="45.8308502" lon="12.4681476"><ele>16.0</ele><time>2026-03-29T07:54:27.935Z</time></trkpt><trkpt lat="45.830943" lon="12.4680647"><ele>16.0</ele><time>2026-03-29T07:54:28.907Z</time></trkpt><trkpt lat="45.8310313" lon="12.4679815"><ele>16.0</ele><time>2026-03-29T07:54:29.941Z</time></trkpt><trkpt lat="45.8311119" lon="12.4679064"><ele>16.0</ele><time>2026-03-29T07:54:30.918Z</time></trkpt><trkpt lat="45.8311825" lon="12.4678419"><ele>15.999999999999998</ele><time>2026-03-29T07:54:31.935Z</time></trkpt><trkpt lat="45.8312474" lon="12.4677943"><ele>16.0</ele><time>2026-03-29T07:54:32.935Z</time></trkpt><trkpt lat="45.8312977" lon="12.4677336"><ele>16.0</ele><time>2026-03-29T07:54:33.938Z</time></trkpt><trkpt lat="45.8313562" lon="12.4676937"><ele>16.0</ele><time>2026-03-29T07:54:34.921Z</time></trkpt><trkpt lat="45.831426" lon="12.4676427"><ele>15.999999999999998</ele><time>2026-03-29T07:54:35.925Z</time></trkpt><trkpt lat="45.8314973" lon="12.4675443"><ele>16.0</ele><time>2026-03-29T07:54:36.926Z</time></trkpt><trkpt lat="45.8315804" lon="12.467443"><ele>16.0</ele><time>2026-03-29T07:54:37.935Z</time></trkpt><trkpt lat="45.8316669" lon="12.467325"><ele>16.0</ele><time>2026-03-29T07:54:38.937Z</time></trkpt><trkpt lat="45.8317696" lon="12.4672137"><ele>16.0</ele><time>2026-03-29T07:54:39.931Z</time></trkpt><trkpt lat="45.8318798" lon="12.4671068"><ele>16.0</ele><time>2026-03-29T07:54:40.923Z</time></trkpt><trkpt lat="45.8319959" lon="12.4670079"><ele>15.75</ele><time>2026-03-29T07:54:41.943Z</time></trkpt><trkpt lat="45.8321081" lon="12.4669072"><ele>15.5</ele><time>2026-03-29T07:54:42.928Z</time></trkpt><trkpt lat="45.8322188" lon="12.466807"><ele>15.25</ele><time>2026-03-29T07:54:43.92Z</time></trkpt><trkpt lat="45.8323339" lon="12.4667108"><ele>15.0</ele><time>2026-03-29T07:54:44.936Z</time></trkpt><trkpt lat="45.832458" lon="12.4666241"><ele>15.0</ele><time>2026-03-29T07:54:45.919Z</time></trkpt><trkpt lat="45.8325715" lon="12.4665181"><ele>15.0</ele><time>2026-03-29T07:54:46.932Z</time></trkpt><trkpt lat="45.8326894" lon="12.4664231"><ele>15.0</ele><time>2026-03-29T07:54:47.934Z</time></trkpt><trkpt lat="45.8327988" lon="12.4663104"><ele>15.0</ele><time>2026-03-29T07:54:48.93Z</time></trkpt><trkpt lat="45.8329137" lon="12.4661997"><ele>14.75</ele><time>2026-03-29T07:54:49.933Z</time></trkpt><trkpt lat="45.8330315" lon="12.4660858"><ele>14.5</ele><time>2026-03-29T07:54:50.92Z</time></trkpt><trkpt lat="45.8331521" lon="12.4659731"><ele>14.25</ele><time>2026-03-29T07:54:51.943Z</time></trkpt><trkpt lat="45.8332764" lon="12.4658604"><ele>14.0</ele><time>2026-03-29T07:54:52.941Z</time></trkpt><trkpt lat="45.8334032" lon="12.4657437"><ele>14.0</ele><time>2026-03-29T07:54:53.917Z</time></trkpt><trkpt lat="45.8335337" lon="12.4656275"><ele>14.0</ele><time>2026-03-29T07:54:54.917Z</time></trkpt><trkpt lat="45.8336649" lon="12.4655068"><ele>14.0</ele><time>2026-03-29T07:54:55.959Z</time></trkpt><trkpt lat="45.8337968" lon="12.4653834"><ele>14.0</ele><time>2026-03-29T07:54:56.911Z</time></trkpt><trkpt lat="45.833929" lon="12.465256"><ele>14.0</ele><time>2026-03-29T07:54:57.925Z</time></trkpt><trkpt lat="45.8340636" lon="12.4651244"><ele>14.0</ele><time>2026-03-29T07:54:58.919Z</time></trkpt><trkpt lat="45.8342082" lon="12.465"><ele>14.333333333333334</ele><time>2026-03-29T07:54:59.927Z</time></trkpt><trkpt lat="45.834353" lon="12.4648642"><ele>14.666666666666668</ele><time>2026-03-29T07:55:00.911Z</time></trkpt><trkpt lat="45.8344962" lon="12.464724"><ele>15.0</ele><time>2026-03-29T07:55:01.941Z</time></trkpt><trkpt lat="45.8346365" lon="12.4645804"><ele>15.666666666666668</ele><time>2026-03-29T07:55:02.914Z</time></trkpt><trkpt lat="45.8347721" lon="12.4644288"><ele>16.333333333333336</ele><time>2026-03-29T07:55:03.911Z</time></trkpt><trkpt lat="45.8349006" lon="12.4642701"><ele>17.0</ele><time>2026-03-29T07:55:04.909Z</time></trkpt><trkpt lat="45.8350224" lon="12.4641021"><ele>17.0</ele><time>2026-03-29T07:55:05.93Z</time></trkpt><trkpt lat="45.835137" lon="12.4639242"><ele>17.0</ele><time>2026-03-29T07:55:06.923Z</time></trkpt><trkpt lat="45.8352477" lon="12.4637386"><ele>17.0</ele><time>2026-03-29T07:55:07.927Z</time></trkpt><trkpt lat="45.835353" lon="12.4635469"><ele>17.0</ele><time>2026-03-29T07:55:08.928Z</time></trkpt><trkpt lat="45.8354507" lon="12.4633495"><ele>17.0</ele><time>2026-03-29T07:55:09.924Z</time></trkpt><trkpt lat="45.8355438" lon="12.4631437"><ele>17.0</ele><time>2026-03-29T07:55:10.924Z</time></trkpt><trkpt lat="45.8356242" lon="12.4629309"><ele>16.333333333333336</ele><time>2026-03-29T07:55:11.924Z</time></trkpt><trkpt lat="45.8357111" lon="12.4627209"><ele>15.666666666666668</ele><time>2026-03-29T07:55:12.914Z</time></trkpt><trkpt lat="45.8357945" lon="12.4625084"><ele>15.0</ele><time>2026-03-29T07:55:13.931Z</time></trkpt><trkpt lat="45.8358716" lon="12.4622926"><ele>14.333333333333332</ele><time>2026-03-29T07:55:14.914Z</time></trkpt><trkpt lat="45.835947" lon="12.4620752"><ele>13.666666666666666</ele><time>2026-03-29T07:55:15.941Z</time></trkpt><trkpt lat="45.8360245" lon="12.4618583"><ele>13.0</ele><time>2026-03-29T07:55:16.927Z</time></trkpt><trkpt lat="45.8361057" lon="12.4616398"><ele>13.0</ele><time>2026-03-29T07:55:17.917Z</time></trkpt><trkpt lat="45.8361825" lon="12.4614148"><ele>13.0</ele><time>2026-03-29T07:55:18.922Z</time></trkpt><trkpt lat="45.8362637" lon="12.4611915"><ele>13.0</ele><time>2026-03-29T07:55:19.914Z</time></trkpt><trkpt lat="45.836343" lon="12.4609673"><ele>13.0</ele><time>2026-03-29T07:55:20.912Z</time></trkpt><trkpt lat="45.83642" lon="12.4607417"><ele>13.0</ele><time>2026-03-29T07:55:21.938Z</time></trkpt><trkpt lat="45.836498" lon="12.4605183"><ele>13.0</ele><time>2026-03-29T07:55:22.919Z</time></trkpt><trkpt lat="45.8365759" lon="12.460295"><ele>13.0</ele><time>2026-03-29T07:55:23.924Z</time></trkpt><trkpt lat="45.8366556" lon="12.4600703"><ele>13.0</ele><time>2026-03-29T07:55:24.916Z</time></trkpt><trkpt lat="45.8367325" lon="12.4598424"><ele>13.0</ele><time>2026-03-29T07:55:25.918Z</time></trkpt><trkpt lat="45.8368165" lon="12.4596131"><ele>13.333333333333332</ele><time>2026-03-29T07:55:26.931Z</time></trkpt><trkpt lat="45.8368936" lon="12.4593787"><ele>13.666666666666668</ele><time>2026-03-29T07:55:27.926Z</time></trkpt><trkpt lat="45.8369771" lon="12.4591465"><ele>14.0</ele><time>2026-03-29T07:55:28.909Z</time></trkpt><trkpt lat="45.8370594" lon="12.4589136"><ele>14.333333333333334</ele><time>2026-03-29T07:55:29.93Z</time></trkpt><trkpt lat="45.83714" lon="12.458683"><ele>14.666666666666668</ele><time>2026-03-29T07:55:30.937Z</time></trkpt><trkpt lat="45.8372228" lon="12.4584573"><ele>15.0</ele><time>2026-03-29T07:55:31.932Z</time></trkpt><trkpt lat="45.8373083" lon="12.4582347"><ele>15.0</ele><time>2026-03-29T07:55:32.918Z</time></trkpt><trkpt lat="45.8373916" lon="12.458013"><ele>15.0</ele><time>2026-03-29T07:55:33.911Z</time></trkpt><trkpt lat="45.8374679" lon="12.4577897"><ele>15.0</ele><time>2026-03-29T07:55:34.923Z</time></trkpt><trkpt lat="45.8375459" lon="12.4575689"><ele>15.0</ele><time>2026-03-29T07:55:35.95Z</time></trkpt><trkpt lat="45.8376194" lon="12.4573459"><ele>15.0</ele><time>2026-03-29T07:55:36.946Z</time></trkpt><trkpt lat="45.8377017" lon="12.4571284"><ele>15.0</ele><time>2026-03-29T07:55:37.939Z</time></trkpt><trkpt lat="45.8377814" lon="12.4569095"><ele>15.0</ele><time>2026-03-29T07:55:38.94Z</time></trkpt><trkpt lat="45.8378578" lon="12.456689"><ele>15.0</ele><time>2026-03-29T07:55:39.925Z</time></trkpt><trkpt lat="45.8379339" lon="12.4564676"><ele>15.0</ele><time>2026-03-29T07:55:40.931Z</time></trkpt><trkpt lat="45.8380135" lon="12.4562457"><ele>15.0</ele><time>2026-03-29T07:55:41.931Z</time></trkpt><trkpt lat="45.8380879" lon="12.4560205"><ele>15.0</ele><time>2026-03-29T07:55:42.93Z</time></trkpt><trkpt lat="45.8381656" lon="12.4557962"><ele>15.0</ele><time>2026-03-29T07:55:43.94Z</time></trkpt><trkpt lat="45.8382472" lon="12.4555744"><ele>15.0</ele><time>2026-03-29T07:55:44.941Z</time></trkpt><trkpt lat="45.8383271" lon="12.4553509"><ele>15.0</ele><time>2026-03-29T07:55:45.933Z</time></trkpt><trkpt lat="45.8384088" lon="12.455128"><ele>15.0</ele><time>2026-03-29T07:55:46.93Z</time></trkpt><trkpt lat="45.838489" lon="12.4549034"><ele>15.0</ele><time>2026-03-29T07:55:47.931Z</time></trkpt><trkpt lat="45.8385724" lon="12.4546777"><ele>15.0</ele><time>2026-03-29T07:55:48.922Z</time></trkpt><trkpt lat="45.8386539" lon="12.4544489"><ele>15.0</ele><time>2026-03-29T07:55:49.937Z</time></trkpt><trkpt lat="45.8387376" lon="12.454218"><ele>15.0</ele><time>2026-03-29T07:55:50.92Z</time></trkpt><trkpt lat="45.8388191" lon="12.4539848"><ele>15.0</ele><time>2026-03-29T07:55:51.933Z</time></trkpt><trkpt lat="45.8388993" lon="12.4537525"><ele>15.0</ele><time>2026-03-29T07:55:52.934Z</time></trkpt><trkpt lat="45.8389816" lon="12.4535203"><ele>15.333333333333332</ele><time>2026-03-29T07:55:53.919Z</time></trkpt><trkpt lat="45.8390622" lon="12.4532861"><ele>15.666666666666666</ele><time>2026-03-29T07:55:54.934Z</time></trkpt><trkpt lat="45.8391459" lon="12.4530576"><ele>16.0</ele><time>2026-03-29T07:55:55.928Z</time></trkpt><trkpt lat="45.8392272" lon="12.4528266"><ele>16.0</ele><time>2026-03-29T07:55:56.937Z</time></trkpt><trkpt lat="45.8393097" lon="12.452595"><ele>16.0</ele><time>2026-03-29T07:55:57.938Z</time></trkpt><trkpt lat="45.8393948" lon="12.452363"><ele>16.0</ele><time>2026-03-29T07:55:58.94Z</time></trkpt><trkpt lat="45.8394751" lon="12.4521277"><ele>16.333333333333332</ele><time>2026-03-29T07:55:59.919Z</time></trkpt><trkpt lat="45.8395632" lon="12.451897"><ele>16.666666666666668</ele><time>2026-03-29T07:56:00.928Z</time></trkpt><trkpt lat="45.8396479" lon="12.4516637"><ele>17.0</ele><time>2026-03-29T07:56:01.915Z</time></trkpt><trkpt lat="45.8397328" lon="12.4514303"><ele>17.666666666666668</ele><time>2026-03-29T07:56:02.933Z</time></trkpt><trkpt lat="45.8398155" lon="12.4511963"><ele>18.333333333333332</ele><time>2026-03-29T07:56:03.94Z</time></trkpt><trkpt lat="45.8399007" lon="12.450965"><ele>19.0</ele><time>2026-03-29T07:56:04.925Z</time></trkpt><trkpt lat="45.8399803" lon="12.4507297"><ele>19.0</ele><time>2026-03-29T07:56:05.933Z</time></trkpt><trkpt lat="45.8400617" lon="12.4504979"><ele>19.0</ele><time>2026-03-29T07:56:06.926Z</time></trkpt><trkpt lat="45.8401423" lon="12.4502672"><ele>19.0</ele><time>2026-03-29T07:56:07.931Z</time></trkpt><trkpt lat="45.8402196" lon="12.4500359"><ele>18.666666666666664</ele><time>2026-03-29T07:56:08.928Z</time></trkpt><trkpt lat="45.8402986" lon="12.4498082"><ele>18.333333333333332</ele><time>2026-03-29T07:56:09.926Z</time></trkpt><trkpt lat="45.8403787" lon="12.4495844"><ele>18.0</ele><time>2026-03-29T07:56:10.912Z</time></trkpt><trkpt lat="45.8404603" lon="12.449367"><ele>18.0</ele><time>2026-03-29T07:56:11.925Z</time></trkpt><trkpt lat="45.8405347" lon="12.4491471"><ele>18.0</ele><time>2026-03-29T07:56:12.927Z</time></trkpt><trkpt lat="45.8406123" lon="12.4489312"><ele>18.0</ele><time>2026-03-29T07:56:13.931Z</time></trkpt><trkpt lat="45.8406873" lon="12.4487151"><ele>18.0</ele><time>2026-03-29T07:56:14.924Z</time></trkpt><trkpt lat="45.8407648" lon="12.448501"><ele>18.0</ele><time>2026-03-29T07:56:15.911Z</time></trkpt><trkpt lat="45.8408417" lon="12.448287"><ele>18.0</ele><time>2026-03-29T07:56:16.924Z</time></trkpt><trkpt lat="45.8409202" lon="12.4480756"><ele>18.333333333333332</ele><time>2026-03-29T07:56:17.928Z</time></trkpt><trkpt lat="45.8409959" lon="12.4478614"><ele>18.666666666666664</ele><time>2026-03-29T07:56:18.917Z</time></trkpt><trkpt lat="45.841073" lon="12.4476481"><ele>19.0</ele><time>2026-03-29T07:56:19.938Z</time></trkpt><trkpt lat="45.8411545" lon="12.4474394"><ele>19.0</ele><time>2026-03-29T07:56:20.92Z</time></trkpt><trkpt lat="45.8412317" lon="12.4472286"><ele>19.0</ele><time>2026-03-29T07:56:21.928Z</time></trkpt><trkpt lat="45.8413081" lon="12.4470174"><ele>19.0</ele><time>2026-03-29T07:56:22.935Z</time></trkpt><trkpt lat="45.8413835" lon="12.4468049"><ele>18.666666666666664</ele><time>2026-03-29T07:56:23.933Z</time></trkpt><trkpt lat="45.841459" lon="12.4465922"><ele>18.333333333333332</ele><time>2026-03-29T07:56:24.932Z</time></trkpt><trkpt lat="45.841537" lon="12.4463821"><ele>18.0</ele><time>2026-03-29T07:56:25.938Z</time></trkpt><trkpt lat="45.8416116" lon="12.4461683"><ele>18.0</ele><time>2026-03-29T07:56:26.92Z</time></trkpt><trkpt lat="45.8416844" lon="12.4459529"><ele>18.0</ele><time>2026-03-29T07:56:27.94Z</time></trkpt><trkpt lat="45.8417627" lon="12.4457419"><ele>18.0</ele><time>2026-03-29T07:56:28.925Z</time></trkpt><trkpt lat="45.8418356" lon="12.4455264"><ele>17.0</ele><time>2026-03-29T07:56:29.931Z</time></trkpt><trkpt lat="45.841913" lon="12.4453146"><ele>16.0</ele><time>2026-03-29T07:56:30.919Z</time></trkpt><trkpt lat="45.8419871" lon="12.4451002"><ele>15.0</ele><time>2026-03-29T07:56:31.914Z</time></trkpt><trkpt lat="45.8420633" lon="12.444887"><ele>15.0</ele><time>2026-03-29T07:56:32.932Z</time></trkpt><trkpt lat="45.8421433" lon="12.4446757"><ele>15.0</ele><time>2026-03-29T07:56:33.932Z</time></trkpt><trkpt lat="45.842218" lon="12.4444593"><ele>15.0</ele><time>2026-03-29T07:56:34.93Z</time></trkpt><trkpt lat="45.8422937" lon="12.4442436"><ele>15.0</ele><time>2026-03-29T07:56:35.953Z</time></trkpt><trkpt lat="45.8423704" lon="12.4440294"><ele>15.0</ele><time>2026-03-29T07:56:36.937Z</time></trkpt><trkpt lat="45.8424446" lon="12.4438179"><ele>15.0</ele><time>2026-03-29T07:56:37.934Z</time></trkpt><trkpt lat="45.8425186" lon="12.4436144"><ele>16.0</ele><time>2026-03-29T07:56:38.924Z</time></trkpt><trkpt lat="45.8425906" lon="12.4434157"><ele>17.0</ele><time>2026-03-29T07:56:39.95Z</time></trkpt><trkpt lat="45.8426569" lon="12.443222"><ele>18.0</ele><time>2026-03-29T07:56:40.933Z</time></trkpt><trkpt lat="45.842726" lon="12.4430369"><ele>18.0</ele><time>2026-03-29T07:56:41.937Z</time></trkpt><trkpt lat="45.8427933" lon="12.4428746"><ele>18.0</ele><time>2026-03-29T07:56:42.94Z</time></trkpt><trkpt lat="45.8428687" lon="12.4427488"><ele>18.0</ele><time>2026-03-29T07:56:43.911Z</time></trkpt><trkpt lat="45.8429508" lon="12.4426543"><ele>18.0</ele><time>2026-03-29T07:56:44.92Z</time></trkpt><trkpt lat="45.843029" lon="12.4425768"><ele>18.0</ele><time>2026-03-29T07:56:45.927Z</time></trkpt><trkpt lat="45.8431088" lon="12.4425051"><ele>18.0</ele><time>2026-03-29T07:56:46.914Z</time></trkpt><trkpt lat="45.8431776" lon="12.4424178"><ele>18.0</ele><time>2026-03-29T07:56:47.947Z</time></trkpt><trkpt lat="45.8432165" lon="12.4422904"><ele>18.0</ele><time>2026-03-29T07:56:48.922Z</time></trkpt><trkpt lat="45.84324" lon="12.4421468"><ele>18.0</ele><time>2026-03-29T07:56:49.923Z</time></trkpt><trkpt lat="45.8432708" lon="12.4419972"><ele>18.0</ele><time>2026-03-29T07:56:50.908Z</time></trkpt><trkpt lat="45.8433251" lon="12.4418437"><ele>17.0</ele><time>2026-03-29T07:56:51.921Z</time></trkpt><trkpt lat="45.8434023" lon="12.4416806"><ele>16.0</ele><time>2026-03-29T07:56:52.924Z</time></trkpt><trkpt lat="45.8434968" lon="12.4415"><ele>15.0</ele><time>2026-03-29T07:56:53.926Z</time></trkpt><trkpt lat="45.8436051" lon="12.4412992"><ele>15.666666666666668</ele><time>2026-03-29T07:56:54.92Z</time></trkpt><trkpt lat="45.8437234" lon="12.441082"><ele>16.333333333333336</ele><time>2026-03-29T07:56:55.905Z</time></trkpt><trkpt lat="45.8438425" lon="12.4408511"><ele>17.0</ele><time>2026-03-29T07:56:56.916Z</time></trkpt><trkpt lat="45.8439662" lon="12.4406146"><ele>17.0</ele><time>2026-03-29T07:56:57.911Z</time></trkpt><trkpt lat="45.8441008" lon="12.4403811"><ele>17.0</ele><time>2026-03-29T07:56:58.91Z</time></trkpt><trkpt lat="45.8442363" lon="12.4401422"><ele>17.0</ele><time>2026-03-29T07:56:59.927Z</time></trkpt><trkpt lat="45.8443795" lon="12.4398983"><ele>17.0</ele><time>2026-03-29T07:57:00.907Z</time></trkpt><trkpt lat="45.8445243" lon="12.4396471"><ele>17.0</ele><time>2026-03-29T07:57:01.934Z</time></trkpt><trkpt lat="45.844667" lon="12.4393908"><ele>17.5</ele><time>2026-03-29T07:57:02.929Z</time></trkpt><trkpt lat="45.8448078" lon="12.4391321"><ele>18.0</ele><time>2026-03-29T07:57:03.929Z</time></trkpt><trkpt lat="45.844949" lon="12.4388747"><ele>17.0</ele><time>2026-03-29T07:57:04.949Z</time></trkpt><trkpt lat="45.8450874" lon="12.4386173"><ele>16.0</ele><time>2026-03-29T07:57:05.933Z</time></trkpt><trkpt lat="45.8452222" lon="12.4383686"><ele>15.0</ele><time>2026-03-29T07:57:06.908Z</time></trkpt><trkpt lat="45.8453558" lon="12.4381286"><ele>14.666666666666668</ele><time>2026-03-29T07:57:07.94Z</time></trkpt><trkpt lat="45.8454879" lon="12.4378881"><ele>14.333333333333334</ele><time>2026-03-29T07:57:08.924Z</time></trkpt><trkpt lat="45.8456207" lon="12.4376479"><ele>14.0</ele><time>2026-03-29T07:57:09.928Z</time></trkpt><trkpt lat="45.8457591" lon="12.4374111"><ele>14.0</ele><time>2026-03-29T07:57:10.903Z</time></trkpt><trkpt lat="45.8458941" lon="12.4371681"><ele>14.0</ele><time>2026-03-29T07:57:11.923Z</time></trkpt><trkpt lat="45.8460298" lon="12.4369241"><ele>14.0</ele><time>2026-03-29T07:57:12.914Z</time></trkpt><trkpt lat="45.8461643" lon="12.4366782"><ele>14.0</ele><time>2026-03-29T07:57:13.936Z</time></trkpt><trkpt lat="45.8462966" lon="12.43643"><ele>14.0</ele><time>2026-03-29T07:57:14.919Z</time></trkpt><trkpt lat="45.8464338" lon="12.4361861"><ele>14.0</ele><time>2026-03-29T07:57:15.915Z</time></trkpt><trkpt lat="45.846571" lon="12.4359408"><ele>14.333333333333334</ele><time>2026-03-29T07:57:16.924Z</time></trkpt><trkpt lat="45.8467041" lon="12.4356955"><ele>14.666666666666668</ele><time>2026-03-29T07:57:17.92Z</time></trkpt><trkpt lat="45.846835" lon="12.4354546"><ele>15.0</ele><time>2026-03-29T07:57:18.945Z</time></trkpt><trkpt lat="45.8469639" lon="12.4352195"><ele>15.333333333333332</ele><time>2026-03-29T07:57:19.94Z</time></trkpt><trkpt lat="45.8470924" lon="12.4349902"><ele>15.666666666666666</ele><time>2026-03-29T07:57:20.918Z</time></trkpt><trkpt lat="45.8472181" lon="12.4347612"><ele>16.0</ele><time>2026-03-29T07:57:21.921Z</time></trkpt><trkpt lat="45.8473445" lon="12.4345351"><ele>16.0</ele><time>2026-03-29T07:57:22.913Z</time></trkpt><trkpt lat="45.8474701" lon="12.4343086"><ele>16.0</ele><time>2026-03-29T07:57:23.927Z</time></trkpt><trkpt lat="45.8475965" lon="12.4340808"><ele>16.0</ele><time>2026-03-29T07:57:24.94Z</time></trkpt><trkpt lat="45.847722" lon="12.4338499"><ele>16.0</ele><time>2026-03-29T07:57:25.932Z</time></trkpt><trkpt lat="45.8478494" lon="12.4336219"><ele>16.0</ele><time>2026-03-29T07:57:26.919Z</time></trkpt><trkpt lat="45.8479727" lon="12.4333917"><ele>16.0</ele><time>2026-03-29T07:57:27.931Z</time></trkpt><trkpt lat="45.8480983" lon="12.433171"><ele>15.666666666666666</ele><time>2026-03-29T07:57:28.922Z</time></trkpt><trkpt lat="45.8482185" lon="12.432949"><ele>15.333333333333332</ele><time>2026-03-29T07:57:29.931Z</time></trkpt><trkpt lat="45.8483387" lon="12.4327305"><ele>15.0</ele><time>2026-03-29T07:57:30.928Z</time></trkpt><trkpt lat="45.8484584" lon="12.4325143"><ele>15.666666666666668</ele><time>2026-03-29T07:57:31.917Z</time></trkpt><trkpt lat="45.8485764" lon="12.432296"><ele>16.333333333333336</ele><time>2026-03-29T07:57:32.922Z</time></trkpt><trkpt lat="45.8486952" lon="12.4320745"><ele>17.0</ele><time>2026-03-29T07:57:33.939Z</time></trkpt><trkpt lat="45.8488157" lon="12.4318484"><ele>17.0</ele><time>2026-03-29T07:57:34.937Z</time></trkpt><trkpt lat="45.8489395" lon="12.4316199"><ele>17.0</ele><time>2026-03-29T07:57:35.919Z</time></trkpt><trkpt lat="45.8490652" lon="12.4313893"><ele>17.0</ele><time>2026-03-29T07:57:36.936Z</time></trkpt><trkpt lat="45.8491918" lon="12.4311552"><ele>17.666666666666668</ele><time>2026-03-29T07:57:37.92Z</time></trkpt><trkpt lat="45.8493183" lon="12.4309168"><ele>18.333333333333332</ele><time>2026-03-29T07:57:38.93Z</time></trkpt><trkpt lat="45.8494489" lon="12.4306807"><ele>19.0</ele><time>2026-03-29T07:57:39.946Z</time></trkpt><trkpt lat="45.849581" lon="12.4304466"><ele>19.666666666666664</ele><time>2026-03-29T07:57:40.925Z</time></trkpt><trkpt lat="45.8497155" lon="12.4302139"><ele>20.333333333333332</ele><time>2026-03-29T07:57:41.923Z</time></trkpt><trkpt lat="45.8498493" lon="12.4299798"><ele>21.0</ele><time>2026-03-29T07:57:42.928Z</time></trkpt><trkpt lat="45.8499867" lon="12.4297451"><ele>19.666666666666668</ele><time>2026-03-29T07:57:43.916Z</time></trkpt><trkpt lat="45.8501275" lon="12.4295095"><ele>18.333333333333336</ele><time>2026-03-29T07:57:44.933Z</time></trkpt><trkpt lat="45.8502657" lon="12.4292707"><ele>17.0</ele><time>2026-03-29T07:57:45.928Z</time></trkpt><trkpt lat="45.850403" lon="12.4290318"><ele>17.0</ele><time>2026-03-29T07:57:46.931Z</time></trkpt><trkpt lat="45.8505373" lon="12.4287899"><ele>17.0</ele><time>2026-03-29T07:57:47.942Z</time></trkpt><trkpt lat="45.8506736" lon="12.4285506"><ele>17.0</ele><time>2026-03-29T07:57:48.907Z</time></trkpt><trkpt lat="45.8508095" lon="12.4283122"><ele>17.0</ele><time>2026-03-29T07:57:49.94Z</time></trkpt><trkpt lat="45.8509465" lon="12.4280754"><ele>17.0</ele><time>2026-03-29T07:57:50.936Z</time></trkpt><trkpt lat="45.8510838" lon="12.4278386"><ele>17.0</ele><time>2026-03-29T07:57:51.915Z</time></trkpt><trkpt lat="45.8512208" lon="12.4276033"><ele>17.333333333333336</ele><time>2026-03-29T07:57:52.922Z</time></trkpt><trkpt lat="45.8513552" lon="12.4273677"><ele>17.666666666666668</ele><time>2026-03-29T07:57:53.918Z</time></trkpt><trkpt lat="45.8514894" lon="12.4271337"><ele>18.0</ele><time>2026-03-29T07:57:54.915Z</time></trkpt><trkpt lat="45.8516227" lon="12.4269013"><ele>18.0</ele><time>2026-03-29T07:57:55.927Z</time></trkpt><trkpt lat="45.8517562" lon="12.4266721"><ele>18.0</ele><time>2026-03-29T07:57:56.916Z</time></trkpt><trkpt lat="45.8518878" lon="12.4264432"><ele>18.0</ele><time>2026-03-29T07:57:57.91Z</time></trkpt><trkpt lat="45.8520222" lon="12.4262208"><ele>18.333333333333332</ele><time>2026-03-29T07:57:58.92Z</time></trkpt><trkpt lat="45.8521541" lon="12.4259959"><ele>18.666666666666664</ele><time>2026-03-29T07:57:59.92Z</time></trkpt><trkpt lat="45.8522825" lon="12.4257681"><ele>19.0</ele><time>2026-03-29T07:58:00.929Z</time></trkpt><trkpt lat="45.8524135" lon="12.4255454"><ele>18.666666666666664</ele><time>2026-03-29T07:58:01.92Z</time></trkpt><trkpt lat="45.8525424" lon="12.4253199"><ele>18.333333333333332</ele><time>2026-03-29T07:58:02.923Z</time></trkpt><trkpt lat="45.8526697" lon="12.425093"><ele>18.0</ele><time>2026-03-29T07:58:03.927Z</time></trkpt><trkpt lat="45.8527965" lon="12.4248703"><ele>17.666666666666668</ele><time>2026-03-29T07:58:04.909Z</time></trkpt><trkpt lat="45.852921" lon="12.4246512"><ele>17.333333333333336</ele><time>2026-03-29T07:58:05.94Z</time></trkpt><trkpt lat="45.8530442" lon="12.4244345"><ele>17.0</ele><time>2026-03-29T07:58:06.911Z</time></trkpt><trkpt lat="45.8531675" lon="12.4242195"><ele>17.666666666666668</ele><time>2026-03-29T07:58:07.92Z</time></trkpt><trkpt lat="45.8532912" lon="12.4240046"><ele>18.333333333333332</ele><time>2026-03-29T07:58:08.907Z</time></trkpt><trkpt lat="45.8534164" lon="12.4237913"><ele>19.0</ele><time>2026-03-29T07:58:09.95Z</time></trkpt><trkpt lat="45.853542" lon="12.4235775"><ele>19.666666666666664</ele><time>2026-03-29T07:58:10.922Z</time></trkpt><trkpt lat="45.8536647" lon="12.4233585"><ele>20.333333333333332</ele><time>2026-03-29T07:58:11.906Z</time></trkpt><trkpt lat="45.8537888" lon="12.4231429"><ele>21.0</ele><time>2026-03-29T07:58:12.931Z</time></trkpt><trkpt lat="45.8539123" lon="12.4229251"><ele>21.0</ele><time>2026-03-29T07:58:13.913Z</time></trkpt><trkpt lat="45.8540367" lon="12.4227077"><ele>21.0</ele><time>2026-03-29T07:58:14.935Z</time></trkpt><trkpt lat="45.8541619" lon="12.4224901"><ele>21.0</ele><time>2026-03-29T07:58:15.938Z</time></trkpt><trkpt lat="45.8542881" lon="12.4222715"><ele>21.333333333333332</ele><time>2026-03-29T07:58:16.907Z</time></trkpt><trkpt lat="45.8544146" lon="12.4220508"><ele>21.666666666666664</ele><time>2026-03-29T07:58:17.92Z</time></trkpt><trkpt lat="45.8545414" lon="12.4218286"><ele>22.0</ele><time>2026-03-29T07:58:18.913Z</time></trkpt><trkpt lat="45.8546682" lon="12.4216055"><ele>22.0</ele><time>2026-03-29T07:58:19.947Z</time></trkpt><trkpt lat="45.8547967" lon="12.4213846"><ele>22.0</ele><time>2026-03-29T07:58:20.912Z</time></trkpt><trkpt lat="45.8549244" lon="12.4211625"><ele>22.0</ele><time>2026-03-29T07:58:21.938Z</time></trkpt><trkpt lat="45.8550527" lon="12.4209409"><ele>22.0</ele><time>2026-03-29T07:58:22.927Z</time></trkpt><trkpt lat="45.8551811" lon="12.4207197"><ele>22.0</ele><time>2026-03-29T07:58:23.914Z</time></trkpt><trkpt lat="45.8553085" lon="12.4204967"><ele>22.0</ele><time>2026-03-29T07:58:24.931Z</time></trkpt><trkpt lat="45.8554386" lon="12.4202762"><ele>22.333333333333332</ele><time>2026-03-29T07:58:25.933Z</time></trkpt><trkpt lat="45.8555676" lon="12.4200523"><ele>22.666666666666668</ele><time>2026-03-29T07:58:26.912Z</time></trkpt><trkpt lat="45.8556967" lon="12.4198276"><ele>23.0</ele><time>2026-03-29T07:58:27.924Z</time></trkpt><trkpt lat="45.8558265" lon="12.4196037"><ele>24.333333333333336</ele><time>2026-03-29T07:58:28.915Z</time></trkpt><trkpt lat="45.8559572" lon="12.4193813"><ele>25.666666666666668</ele><time>2026-03-29T07:58:29.929Z</time></trkpt><trkpt lat="45.8560858" lon="12.4191561"><ele>27.0</ele><time>2026-03-29T07:58:30.936Z</time></trkpt><trkpt lat="45.8562125" lon="12.4189286"><ele>26.666666666666664</ele><time>2026-03-29T07:58:31.921Z</time></trkpt><trkpt lat="45.8563364" lon="12.4186986"><ele>26.333333333333332</ele><time>2026-03-29T07:58:32.923Z</time></trkpt><trkpt lat="45.8564613" lon="12.4184688"><ele>26.0</ele><time>2026-03-29T07:58:33.924Z</time></trkpt><trkpt lat="45.8565894" lon="12.4182418"><ele>26.0</ele><time>2026-03-29T07:58:34.925Z</time></trkpt><trkpt lat="45.8567169" lon="12.4180136"><ele>26.0</ele><time>2026-03-29T07:58:35.928Z</time></trkpt><trkpt lat="45.8568438" lon="12.4177848"><ele>26.0</ele><time>2026-03-29T07:58:36.928Z</time></trkpt><trkpt lat="45.8569701" lon="12.417555"><ele>26.0</ele><time>2026-03-29T07:58:37.931Z</time></trkpt><trkpt lat="45.8570974" lon="12.4173234"><ele>26.0</ele><time>2026-03-29T07:58:38.943Z</time></trkpt><trkpt lat="45.8572256" lon="12.4170915"><ele>26.0</ele><time>2026-03-29T07:58:39.929Z</time></trkpt><trkpt lat="45.8573531" lon="12.4168602"><ele>26.0</ele><time>2026-03-29T07:58:40.934Z</time></trkpt><trkpt lat="45.8574775" lon="12.4166308"><ele>26.0</ele><time>2026-03-29T07:58:41.945Z</time></trkpt><trkpt lat="45.8576013" lon="12.4164089"><ele>26.0</ele><time>2026-03-29T07:58:42.928Z</time></trkpt><trkpt lat="45.8577222" lon="12.4161874"><ele>25.333333333333332</ele><time>2026-03-29T07:58:43.936Z</time></trkpt><trkpt lat="45.8578427" lon="12.4159661"><ele>24.666666666666664</ele><time>2026-03-29T07:58:44.928Z</time></trkpt><trkpt lat="45.8579643" lon="12.4157491"><ele>24.0</ele><time>2026-03-29T07:58:45.928Z</time></trkpt><trkpt lat="45.8580816" lon="12.4155318"><ele>24.333333333333336</ele><time>2026-03-29T07:58:46.932Z</time></trkpt><trkpt lat="45.8582015" lon="12.4153215"><ele>24.666666666666668</ele><time>2026-03-29T07:58:47.926Z</time></trkpt><trkpt lat="45.8583197" lon="12.4151144"><ele>25.0</ele><time>2026-03-29T07:58:48.935Z</time></trkpt><trkpt lat="45.8584318" lon="12.4149124"><ele>24.333333333333336</ele><time>2026-03-29T07:58:49.928Z</time></trkpt><trkpt lat="45.8585386" lon="12.4147143"><ele>23.666666666666668</ele><time>2026-03-29T07:58:50.941Z</time></trkpt><trkpt lat="45.8586467" lon="12.414526"><ele>23.0</ele><time>2026-03-29T07:58:51.941Z</time></trkpt><trkpt lat="45.8587475" lon="12.414341"><ele>22.666666666666668</ele><time>2026-03-29T07:58:52.916Z</time></trkpt><trkpt lat="45.8588468" lon="12.4141628"><ele>22.333333333333332</ele><time>2026-03-29T07:58:53.931Z</time></trkpt><trkpt lat="45.8589424" lon="12.4139863"><ele>22.0</ele><time>2026-03-29T07:58:54.935Z</time></trkpt><trkpt lat="45.8590368" lon="12.4138196"><ele>22.5</ele><time>2026-03-29T07:58:55.946Z</time></trkpt><trkpt lat="45.8591254" lon="12.413655"><ele>23.0</ele><time>2026-03-29T07:58:56.92Z</time></trkpt><trkpt lat="45.8592148" lon="12.4134966"><ele>23.5</ele><time>2026-03-29T07:58:57.932Z</time></trkpt><trkpt lat="45.8592989" lon="12.413341"><ele>24.0</ele><time>2026-03-29T07:58:58.93Z</time></trkpt><trkpt lat="45.859378" lon="12.4131952"><ele>24.166666666666668</ele><time>2026-03-29T07:58:59.951Z</time></trkpt><trkpt lat="45.8594514" lon="12.4130658"><ele>24.333333333333336</ele><time>2026-03-29T07:59:00.916Z</time></trkpt><trkpt lat="45.8595146" lon="12.4129571"><ele>24.5</ele><time>2026-03-29T07:59:01.911Z</time></trkpt><trkpt lat="45.859571" lon="12.4128698"><ele>24.666666666666668</ele><time>2026-03-29T07:59:02.92Z</time></trkpt><trkpt lat="45.8596274" lon="12.4127999"><ele>24.833333333333336</ele><time>2026-03-29T07:59:03.907Z</time></trkpt><trkpt lat="45.8596869" lon="12.4127423"><ele>25.0</ele><time>2026-03-29T07:59:04.924Z</time></trkpt><trkpt lat="45.8597584" lon="12.4127064"><ele>24.6</ele><time>2026-03-29T07:59:05.922Z</time></trkpt><trkpt lat="45.8598365" lon="12.4126809"><ele>24.2</ele><time>2026-03-29T07:59:06.921Z</time></trkpt><trkpt lat="45.8599146" lon="12.4126367"><ele>23.799999999999997</ele><time>2026-03-29T07:59:07.924Z</time></trkpt><trkpt lat="45.8599909" lon="12.4125622"><ele>23.4</ele><time>2026-03-29T07:59:08.916Z</time></trkpt><trkpt lat="45.8600474" lon="12.4124472"><ele>23.0</ele><time>2026-03-29T07:59:09.933Z</time></trkpt><trkpt lat="45.8600837" lon="12.4123101"><ele>23.25</ele><time>2026-03-29T07:59:10.904Z</time></trkpt><trkpt lat="45.860091" lon="12.4121499"><ele>23.5</ele><time>2026-03-29T07:59:11.924Z</time></trkpt><trkpt lat="45.8600985" lon="12.4119849"><ele>23.75</ele><time>2026-03-29T07:59:12.919Z</time></trkpt><trkpt lat="45.8601252" lon="12.4118217"><ele>24.0</ele><time>2026-03-29T07:59:13.923Z</time></trkpt><trkpt lat="45.8601947" lon="12.4116639"><ele>24.333333333333336</ele><time>2026-03-29T07:59:14.922Z</time></trkpt><trkpt lat="45.8602845" lon="12.4114943"><ele>24.666666666666668</ele><time>2026-03-29T07:59:15.912Z</time></trkpt><trkpt lat="45.860386" lon="12.4113046"><ele>25.0</ele><time>2026-03-29T07:59:16.921Z</time></trkpt><trkpt lat="45.8604921" lon="12.4110975"><ele>25.0</ele><time>2026-03-29T07:59:17.92Z</time></trkpt><trkpt lat="45.8606007" lon="12.4108832"><ele>25.0</ele><time>2026-03-29T07:59:18.921Z</time></trkpt><trkpt lat="45.8607092" lon="12.4106712"><ele>25.0</ele><time>2026-03-29T07:59:19.912Z</time></trkpt><trkpt lat="45.8608159" lon="12.4104592"><ele>24.666666666666668</ele><time>2026-03-29T07:59:20.923Z</time></trkpt><trkpt lat="45.860922" lon="12.410246"><ele>24.333333333333336</ele><time>2026-03-29T07:59:21.92Z</time></trkpt><trkpt lat="45.8610311" lon="12.4100368"><ele>24.0</ele><time>2026-03-29T07:59:22.917Z</time></trkpt><trkpt lat="45.8611389" lon="12.409825"><ele>24.333333333333336</ele><time>2026-03-29T07:59:23.915Z</time></trkpt><trkpt lat="45.8612479" lon="12.4096113"><ele>24.666666666666668</ele><time>2026-03-29T07:59:24.925Z</time></trkpt><trkpt lat="45.8613554" lon="12.4093937"><ele>25.0</ele><time>2026-03-29T07:59:25.916Z</time></trkpt><trkpt lat="45.861464" lon="12.4091761"><ele>25.0</ele><time>2026-03-29T07:59:26.93Z</time></trkpt><trkpt lat="45.861577" lon="12.4089611"><ele>25.0</ele><time>2026-03-29T07:59:27.92Z</time></trkpt><trkpt lat="45.8616933" lon="12.4087458"><ele>25.0</ele><time>2026-03-29T07:59:28.921Z</time></trkpt><trkpt lat="45.8618072" lon="12.4085232"><ele>25.0</ele><time>2026-03-29T07:59:29.913Z</time></trkpt><trkpt lat="45.861917" lon="12.4082964"><ele>25.0</ele><time>2026-03-29T07:59:30.918Z</time></trkpt><trkpt lat="45.8620266" lon="12.40807"><ele>25.0</ele><time>2026-03-29T07:59:31.934Z</time></trkpt><trkpt lat="45.8621383" lon="12.4078507"><ele>25.666666666666668</ele><time>2026-03-29T07:59:32.928Z</time></trkpt><trkpt lat="45.8622534" lon="12.4076359"><ele>26.333333333333336</ele><time>2026-03-29T07:59:33.948Z</time></trkpt><trkpt lat="45.8623656" lon="12.4074209"><ele>27.0</ele><time>2026-03-29T07:59:34.923Z</time></trkpt><trkpt lat="45.8624801" lon="12.4072044"><ele>26.666666666666664</ele><time>2026-03-29T07:59:35.932Z</time></trkpt><trkpt lat="45.8625913" lon="12.4069812"><ele>26.333333333333332</ele><time>2026-03-29T07:59:36.944Z</time></trkpt><trkpt lat="45.8627031" lon="12.4067538"><ele>26.0</ele><time>2026-03-29T07:59:37.923Z</time></trkpt><trkpt lat="45.8628134" lon="12.4065216"><ele>26.333333333333332</ele><time>2026-03-29T07:59:38.928Z</time></trkpt><trkpt lat="45.8629296" lon="12.4062956"><ele>26.666666666666664</ele><time>2026-03-29T07:59:39.922Z</time></trkpt><trkpt lat="45.8630415" lon="12.406075"><ele>27.0</ele><time>2026-03-29T07:59:40.921Z</time></trkpt><trkpt lat="45.8631507" lon="12.4058647"><ele>27.0</ele><time>2026-03-29T07:59:41.932Z</time></trkpt><trkpt lat="45.8632547" lon="12.4056628"><ele>27.0</ele><time>2026-03-29T07:59:42.932Z</time></trkpt><trkpt lat="45.8633547" lon="12.4054674"><ele>27.0</ele><time>2026-03-29T07:59:43.944Z</time></trkpt><trkpt lat="45.8634499" lon="12.4052759"><ele>28.0</ele><time>2026-03-29T07:59:44.931Z</time></trkpt><trkpt lat="45.8635465" lon="12.405094"><ele>29.0</ele><time>2026-03-29T07:59:45.923Z</time></trkpt><trkpt lat="45.8636366" lon="12.4049147"><ele>30.0</ele><time>2026-03-29T07:59:46.932Z</time></trkpt><trkpt lat="45.8637256" lon="12.4047426"><ele>29.0</ele><time>2026-03-29T07:59:47.927Z</time></trkpt><trkpt lat="45.8638102" lon="12.4045732"><ele>28.0</ele><time>2026-03-29T07:59:48.924Z</time></trkpt><trkpt lat="45.8638897" lon="12.4044064"><ele>27.0</ele><time>2026-03-29T07:59:49.936Z</time></trkpt><trkpt lat="45.8639651" lon="12.4042438"><ele>26.0</ele><time>2026-03-29T07:59:50.934Z</time></trkpt><trkpt lat="45.864037" lon="12.4040908"><ele>26.0</ele><time>2026-03-29T07:59:51.927Z</time></trkpt><trkpt lat="45.8640998" lon="12.403953"><ele>26.0</ele><time>2026-03-29T07:59:52.926Z</time></trkpt><trkpt lat="45.8641624" lon="12.4038339"><ele>26.0</ele><time>2026-03-29T07:59:53.941Z</time></trkpt><trkpt lat="45.8642344" lon="12.4037366"><ele>26.0</ele><time>2026-03-29T07:59:54.935Z</time></trkpt><trkpt lat="45.8643083" lon="12.4036545"><ele>26.0</ele><time>2026-03-29T07:59:55.962Z</time></trkpt><trkpt lat="45.8643736" lon="12.4035645"><ele>26.5</ele><time>2026-03-29T07:59:56.931Z</time></trkpt><trkpt lat="45.8644196" lon="12.4034427"><ele>27.0</ele><time>2026-03-29T07:59:57.925Z</time></trkpt><trkpt lat="45.8644522" lon="12.4032935"><ele>27.5</ele><time>2026-03-29T07:59:58.936Z</time></trkpt><trkpt lat="45.8645002" lon="12.403129"><ele>28.0</ele><time>2026-03-29T07:59:59.934Z</time></trkpt><trkpt lat="45.8645863" lon="12.4029638"><ele>28.666666666666668</ele><time>2026-03-29T08:00:00.931Z</time></trkpt><trkpt lat="45.8646914" lon="12.4027809"><ele>29.333333333333336</ele><time>2026-03-29T08:00:01.919Z</time></trkpt><trkpt lat="45.8647925" lon="12.4025712"><ele>30.0</ele><time>2026-03-29T08:00:02.94Z</time></trkpt><trkpt lat="45.8648842" lon="12.4023515"><ele>30.0</ele><time>2026-03-29T08:00:03.925Z</time></trkpt><trkpt lat="45.8649662" lon="12.402136"><ele>30.0</ele><time>2026-03-29T08:00:04.92Z</time></trkpt><trkpt lat="45.8650436" lon="12.4019286"><ele>30.0</ele><time>2026-03-29T08:00:05.933Z</time></trkpt><trkpt lat="45.8651182" lon="12.4017255"><ele>29.666666666666664</ele><time>2026-03-29T08:00:06.934Z</time></trkpt><trkpt lat="45.8651879" lon="12.4015207"><ele>29.333333333333332</ele><time>2026-03-29T08:00:07.926Z</time></trkpt><trkpt lat="45.8652593" lon="12.4013119"><ele>29.0</ele><time>2026-03-29T08:00:08.927Z</time></trkpt><trkpt lat="45.8653342" lon="12.4010985"><ele>29.0</ele><time>2026-03-29T08:00:09.922Z</time></trkpt><trkpt lat="45.8654076" lon="12.4008769"><ele>29.0</ele><time>2026-03-29T08:00:10.913Z</time></trkpt><trkpt lat="45.86548" lon="12.4006483"><ele>29.0</ele><time>2026-03-29T08:00:11.915Z</time></trkpt><trkpt lat="45.8655556" lon="12.4004194"><ele>29.0</ele><time>2026-03-29T08:00:12.935Z</time></trkpt><trkpt lat="45.8656282" lon="12.4001871"><ele>29.0</ele><time>2026-03-29T08:00:13.94Z</time></trkpt><trkpt lat="45.8657031" lon="12.3999565"><ele>29.0</ele><time>2026-03-29T08:00:14.914Z</time></trkpt><trkpt lat="45.8657767" lon="12.3997271"><ele>29.0</ele><time>2026-03-29T08:00:15.928Z</time></trkpt><trkpt lat="45.8658475" lon="12.3995003"><ele>29.0</ele><time>2026-03-29T08:00:16.923Z</time></trkpt><trkpt lat="45.8659202" lon="12.3992794"><ele>29.0</ele><time>2026-03-29T08:00:17.915Z</time></trkpt><trkpt lat="45.8659929" lon="12.3990631"><ele>29.333333333333332</ele><time>2026-03-29T08:00:18.917Z</time></trkpt><trkpt lat="45.866061" lon="12.3988484"><ele>29.666666666666664</ele><time>2026-03-29T08:00:19.932Z</time></trkpt><trkpt lat="45.8661301" lon="12.3986424"><ele>30.0</ele><time>2026-03-29T08:00:20.932Z</time></trkpt><trkpt lat="45.866197" lon="12.3984405"><ele>30.0</ele><time>2026-03-29T08:00:21.913Z</time></trkpt><trkpt lat="45.8662615" lon="12.3982397"><ele>30.0</ele><time>2026-03-29T08:00:22.919Z</time></trkpt><trkpt lat="45.866327" lon="12.398044"><ele>30.0</ele><time>2026-03-29T08:00:23.928Z</time></trkpt><trkpt lat="45.8663892" lon="12.3978497"><ele>30.0</ele><time>2026-03-29T08:00:24.913Z</time></trkpt><trkpt lat="45.8664526" lon="12.3976563"><ele>30.0</ele><time>2026-03-29T08:00:25.931Z</time></trkpt><trkpt lat="45.8665149" lon="12.3974588"><ele>30.0</ele><time>2026-03-29T08:00:26.918Z</time></trkpt><trkpt lat="45.8665848" lon="12.3972611"><ele>29.666666666666664</ele><time>2026-03-29T08:00:27.931Z</time></trkpt><trkpt lat="45.8666537" lon="12.3970572"><ele>29.333333333333332</ele><time>2026-03-29T08:00:28.934Z</time></trkpt><trkpt lat="45.8667242" lon="12.3968479"><ele>29.0</ele><time>2026-03-29T08:00:29.913Z</time></trkpt><trkpt lat="45.8667935" lon="12.3966351"><ele>29.0</ele><time>2026-03-29T08:00:30.929Z</time></trkpt><trkpt lat="45.866862" lon="12.3964266"><ele>29.0</ele><time>2026-03-29T08:00:31.929Z</time></trkpt><trkpt lat="45.8669304" lon="12.3962247"><ele>29.0</ele><time>2026-03-29T08:00:32.965Z</time></trkpt><trkpt lat="45.8669954" lon="12.3960278"><ele>29.0</ele><time>2026-03-29T08:00:33.931Z</time></trkpt><trkpt lat="45.8670597" lon="12.3958355"><ele>29.0</ele><time>2026-03-29T08:00:34.922Z</time></trkpt><trkpt lat="45.8671259" lon="12.3956464"><ele>29.0</ele><time>2026-03-29T08:00:35.918Z</time></trkpt><trkpt lat="45.8671909" lon="12.3954581"><ele>29.0</ele><time>2026-03-29T08:00:36.92Z</time></trkpt><trkpt lat="45.8672558" lon="12.3952708"><ele>29.0</ele><time>2026-03-29T08:00:37.936Z</time></trkpt><trkpt lat="45.8673203" lon="12.3950823"><ele>29.0</ele><time>2026-03-29T08:00:38.929Z</time></trkpt><trkpt lat="45.8673767" lon="12.3948848"><ele>29.0</ele><time>2026-03-29T08:00:39.916Z</time></trkpt><trkpt lat="45.8674258" lon="12.3946763"><ele>29.0</ele><time>2026-03-29T08:00:40.929Z</time></trkpt><trkpt lat="45.8674653" lon="12.3944569"><ele>29.333333333333332</ele><time>2026-03-29T08:00:41.933Z</time></trkpt><trkpt lat="45.8675018" lon="12.3942284"><ele>29.666666666666664</ele><time>2026-03-29T08:00:42.924Z</time></trkpt><trkpt lat="45.8675278" lon="12.3939858"><ele>30.0</ele><time>2026-03-29T08:00:43.923Z</time></trkpt><trkpt lat="45.8675539" lon="12.3937341"><ele>30.0</ele><time>2026-03-29T08:00:44.917Z</time></trkpt><trkpt lat="45.8675818" lon="12.3934789"><ele>30.0</ele><time>2026-03-29T08:00:45.932Z</time></trkpt><trkpt lat="45.867614" lon="12.3932274"><ele>30.0</ele><time>2026-03-29T08:00:46.935Z</time></trkpt><trkpt lat="45.8676452" lon="12.3929823"><ele>29.666666666666664</ele><time>2026-03-29T08:00:47.914Z</time></trkpt><trkpt lat="45.8676729" lon="12.3927465"><ele>29.333333333333332</ele><time>2026-03-29T08:00:48.911Z</time></trkpt><trkpt lat="45.8677019" lon="12.3925246"><ele>29.0</ele><time>2026-03-29T08:00:49.913Z</time></trkpt><trkpt lat="45.867728" lon="12.3923142"><ele>29.25</ele><time>2026-03-29T08:00:50.92Z</time></trkpt><trkpt lat="45.8677557" lon="12.3921127"><ele>29.5</ele><time>2026-03-29T08:00:51.928Z</time></trkpt><trkpt lat="45.867785" lon="12.3919161"><ele>29.75</ele><time>2026-03-29T08:00:52.917Z</time></trkpt><trkpt lat="45.8678138" lon="12.391723"><ele>30.0</ele><time>2026-03-29T08:00:53.924Z</time></trkpt><trkpt lat="45.8678389" lon="12.3915295"><ele>30.25</ele><time>2026-03-29T08:00:54.904Z</time></trkpt><trkpt lat="45.8678625" lon="12.3913305"><ele>30.5</ele><time>2026-03-29T08:00:55.908Z</time></trkpt><trkpt lat="45.8678814" lon="12.3911249"><ele>30.75</ele><time>2026-03-29T08:00:56.931Z</time></trkpt><trkpt lat="45.8679055" lon="12.3909114"><ele>31.0</ele><time>2026-03-29T08:00:57.915Z</time></trkpt><trkpt lat="45.8679288" lon="12.390688"><ele>31.0</ele><time>2026-03-29T08:00:58.929Z</time></trkpt><trkpt lat="45.8679505" lon="12.3904542"><ele>31.0</ele><time>2026-03-29T08:00:59.927Z</time></trkpt><trkpt lat="45.8679743" lon="12.3902101"><ele>31.0</ele><time>2026-03-29T08:01:00.923Z</time></trkpt><trkpt lat="45.8680038" lon="12.3899599"><ele>31.0</ele><time>2026-03-29T08:01:01.919Z</time></trkpt><trkpt lat="45.8680356" lon="12.3897064"><ele>31.0</ele><time>2026-03-29T08:01:02.923Z</time></trkpt><trkpt lat="45.8680699" lon="12.3894548"><ele>31.0</ele><time>2026-03-29T08:01:03.914Z</time></trkpt><trkpt lat="45.8681054" lon="12.3892062"><ele>32.0</ele><time>2026-03-29T08:01:04.929Z</time></trkpt><trkpt lat="45.8681454" lon="12.3889622"><ele>33.0</ele><time>2026-03-29T08:01:05.929Z</time></trkpt><trkpt lat="45.8681838" lon="12.3887179"><ele>34.0</ele><time>2026-03-29T08:01:06.935Z</time></trkpt><trkpt lat="45.8682247" lon="12.388473"><ele>34.0</ele><time>2026-03-29T08:01:07.933Z</time></trkpt><trkpt lat="45.8682653" lon="12.3882287"><ele>34.0</ele><time>2026-03-29T08:01:08.929Z</time></trkpt><trkpt lat="45.8683051" lon="12.3879851"><ele>34.0</ele><time>2026-03-29T08:01:09.942Z</time></trkpt><trkpt lat="45.8683456" lon="12.387741"><ele>32.66666666666667</ele><time>2026-03-29T08:01:10.923Z</time></trkpt><trkpt lat="45.8683901" lon="12.3874956"><ele>31.333333333333336</ele><time>2026-03-29T08:01:11.931Z</time></trkpt><trkpt lat="45.8684325" lon="12.3872461"><ele>30.0</ele><time>2026-03-29T08:01:12.924Z</time></trkpt><trkpt lat="45.8684753" lon="12.3869943"><ele>29.666666666666664</ele><time>2026-03-29T08:01:13.923Z</time></trkpt><trkpt lat="45.8685178" lon="12.3867395"><ele>29.333333333333332</ele><time>2026-03-29T08:01:14.913Z</time></trkpt><trkpt lat="45.8685599" lon="12.3864821"><ele>29.0</ele><time>2026-03-29T08:01:15.928Z</time></trkpt><trkpt lat="45.8686016" lon="12.3862212"><ele>29.333333333333332</ele><time>2026-03-29T08:01:16.915Z</time></trkpt><trkpt lat="45.868644" lon="12.3859574"><ele>29.666666666666664</ele><time>2026-03-29T08:01:17.927Z</time></trkpt><trkpt lat="45.8686874" lon="12.3856909"><ele>30.0</ele><time>2026-03-29T08:01:18.932Z</time></trkpt><trkpt lat="45.8687333" lon="12.385424"><ele>30.0</ele><time>2026-03-29T08:01:19.935Z</time></trkpt><trkpt lat="45.8687763" lon="12.3851604"><ele>30.0</ele><time>2026-03-29T08:01:20.922Z</time></trkpt><trkpt lat="45.8688179" lon="12.3848993"><ele>30.0</ele><time>2026-03-29T08:01:21.926Z</time></trkpt><trkpt lat="45.8688608" lon="12.3846399"><ele>29.666666666666664</ele><time>2026-03-29T08:01:22.935Z</time></trkpt><trkpt lat="45.8689054" lon="12.3843821"><ele>29.333333333333332</ele><time>2026-03-29T08:01:23.934Z</time></trkpt><trkpt lat="45.8689463" lon="12.3841219"><ele>29.0</ele><time>2026-03-29T08:01:24.913Z</time></trkpt><trkpt lat="45.8689908" lon="12.3838618"><ele>29.666666666666664</ele><time>2026-03-29T08:01:25.916Z</time></trkpt><trkpt lat="45.8690276" lon="12.3835976"><ele>30.333333333333336</ele><time>2026-03-29T08:01:26.905Z</time></trkpt><trkpt lat="45.869065" lon="12.3833323"><ele>31.0</ele><time>2026-03-29T08:01:27.919Z</time></trkpt><trkpt lat="45.8691062" lon="12.3830678"><ele>31.0</ele><time>2026-03-29T08:01:28.919Z</time></trkpt><trkpt lat="45.8691503" lon="12.382805"><ele>31.0</ele><time>2026-03-29T08:01:29.922Z</time></trkpt><trkpt lat="45.869205" lon="12.3825479"><ele>31.0</ele><time>2026-03-29T08:01:30.926Z</time></trkpt><trkpt lat="45.8692506" lon="12.3822889"><ele>30.333333333333336</ele><time>2026-03-29T08:01:31.933Z</time></trkpt><trkpt lat="45.8693006" lon="12.3820314"><ele>29.666666666666664</ele><time>2026-03-29T08:01:32.929Z</time></trkpt><trkpt lat="45.8693376" lon="12.3817728"><ele>29.0</ele><time>2026-03-29T08:01:33.925Z</time></trkpt><trkpt lat="45.8693767" lon="12.3815163"><ele>29.333333333333332</ele><time>2026-03-29T08:01:34.946Z</time></trkpt><trkpt lat="45.8694173" lon="12.381261"><ele>29.666666666666664</ele><time>2026-03-29T08:01:35.943Z</time></trkpt><trkpt lat="45.8694608" lon="12.3810073"><ele>30.0</ele><time>2026-03-29T08:01:36.93Z</time></trkpt><trkpt lat="45.8695047" lon="12.3807544"><ele>30.333333333333336</ele><time>2026-03-29T08:01:37.936Z</time></trkpt><trkpt lat="45.8695486" lon="12.3805019"><ele>30.666666666666668</ele><time>2026-03-29T08:01:38.912Z</time></trkpt><trkpt lat="45.8695922" lon="12.3802496"><ele>31.0</ele><time>2026-03-29T08:01:39.93Z</time></trkpt><trkpt lat="45.869635" lon="12.3799984"><ele>31.0</ele><time>2026-03-29T08:01:40.914Z</time></trkpt><trkpt lat="45.8696758" lon="12.3797478"><ele>31.0</ele><time>2026-03-29T08:01:41.922Z</time></trkpt><trkpt lat="45.8697183" lon="12.3794985"><ele>31.0</ele><time>2026-03-29T08:01:42.918Z</time></trkpt><trkpt lat="45.8697583" lon="12.3792484"><ele>31.0</ele><time>2026-03-29T08:01:43.941Z</time></trkpt><trkpt lat="45.8698016" lon="12.3789986"><ele>31.0</ele><time>2026-03-29T08:01:44.928Z</time></trkpt><trkpt lat="45.8698414" lon="12.3787433"><ele>31.0</ele><time>2026-03-29T08:01:45.968Z</time></trkpt><trkpt lat="45.8698822" lon="12.3784833"><ele>31.0</ele><time>2026-03-29T08:01:46.931Z</time></trkpt><trkpt lat="45.8699217" lon="12.3782152"><ele>31.0</ele><time>2026-03-29T08:01:47.957Z</time></trkpt><trkpt lat="45.8699634" lon="12.3779401"><ele>31.0</ele><time>2026-03-29T08:01:48.921Z</time></trkpt><trkpt lat="45.8700069" lon="12.3776624"><ele>31.0</ele><time>2026-03-29T08:01:49.921Z</time></trkpt><trkpt lat="45.8700528" lon="12.3773858"><ele>31.0</ele><time>2026-03-29T08:01:50.92Z</time></trkpt><trkpt lat="45.8701021" lon="12.3771125"><ele>31.0</ele><time>2026-03-29T08:01:51.931Z</time></trkpt><trkpt lat="45.8701501" lon="12.3768436"><ele>31.0</ele><time>2026-03-29T08:01:52.939Z</time></trkpt><trkpt lat="45.8701956" lon="12.3765774"><ele>31.0</ele><time>2026-03-29T08:01:53.924Z</time></trkpt><trkpt lat="45.8702336" lon="12.3763106"><ele>31.0</ele><time>2026-03-29T08:01:54.931Z</time></trkpt><trkpt lat="45.8702756" lon="12.3760463"><ele>31.0</ele><time>2026-03-29T08:01:55.929Z</time></trkpt><trkpt lat="45.8703171" lon="12.3757834"><ele>31.0</ele><time>2026-03-29T08:01:56.932Z</time></trkpt><trkpt lat="45.8703586" lon="12.375521"><ele>31.0</ele><time>2026-03-29T08:01:57.927Z</time></trkpt><trkpt lat="45.870405" lon="12.3752602"><ele>31.0</ele><time>2026-03-29T08:01:58.913Z</time></trkpt><trkpt lat="45.8704473" lon="12.3749977"><ele>31.0</ele><time>2026-03-29T08:01:59.934Z</time></trkpt><trkpt lat="45.8704923" lon="12.3747355"><ele>31.0</ele><time>2026-03-29T08:02:00.93Z</time></trkpt><trkpt lat="45.8705363" lon="12.3744742"><ele>31.666666666666668</ele><time>2026-03-29T08:02:01.932Z</time></trkpt><trkpt lat="45.8705781" lon="12.3742138"><ele>32.333333333333336</ele><time>2026-03-29T08:02:02.914Z</time></trkpt><trkpt lat="45.870628" lon="12.3739565"><ele>33.0</ele><time>2026-03-29T08:02:03.914Z</time></trkpt><trkpt lat="45.8706645" lon="12.3736982"><ele>33.0</ele><time>2026-03-29T08:02:04.922Z</time></trkpt><trkpt lat="45.8707083" lon="12.3734438"><ele>33.0</ele><time>2026-03-29T08:02:05.937Z</time></trkpt><trkpt lat="45.8707584" lon="12.3731921"><ele>33.0</ele><time>2026-03-29T08:02:06.929Z</time></trkpt><trkpt lat="45.8707964" lon="12.3729393"><ele>33.0</ele><time>2026-03-29T08:02:07.932Z</time></trkpt><trkpt lat="45.870837" lon="12.3726873"><ele>33.0</ele><time>2026-03-29T08:02:08.923Z</time></trkpt><trkpt lat="45.8708796" lon="12.3724368"><ele>33.0</ele><time>2026-03-29T08:02:09.93Z</time></trkpt><trkpt lat="45.8709221" lon="12.3721898"><ele>32.333333333333336</ele><time>2026-03-29T08:02:10.934Z</time></trkpt><trkpt lat="45.8709642" lon="12.3719461"><ele>31.666666666666668</ele><time>2026-03-29T08:02:11.924Z</time></trkpt><trkpt lat="45.8710043" lon="12.371701"><ele>31.0</ele><time>2026-03-29T08:02:12.919Z</time></trkpt><trkpt lat="45.8710452" lon="12.3714536"><ele>31.0</ele><time>2026-03-29T08:02:13.928Z</time></trkpt><trkpt lat="45.8710833" lon="12.3712021"><ele>31.0</ele><time>2026-03-29T08:02:14.925Z</time></trkpt><trkpt lat="45.871127" lon="12.370948"><ele>31.0</ele><time>2026-03-29T08:02:15.926Z</time></trkpt><trkpt lat="45.8711707" lon="12.3706896"><ele>32.0</ele><time>2026-03-29T08:02:16.919Z</time></trkpt><trkpt lat="45.8712116" lon="12.3704285"><ele>33.0</ele><time>2026-03-29T08:02:17.934Z</time></trkpt><trkpt lat="45.8712558" lon="12.3701661"><ele>34.0</ele><time>2026-03-29T08:02:18.922Z</time></trkpt><trkpt lat="45.871298" lon="12.3699004"><ele>35.0</ele><time>2026-03-29T08:02:19.919Z</time></trkpt><trkpt lat="45.8713424" lon="12.3696339"><ele>36.0</ele><time>2026-03-29T08:02:20.916Z</time></trkpt><trkpt lat="45.871388" lon="12.3693677"><ele>37.0</ele><time>2026-03-29T08:02:21.93Z</time></trkpt><trkpt lat="45.8714337" lon="12.369101"><ele>37.0</ele><time>2026-03-29T08:02:22.942Z</time></trkpt><trkpt lat="45.8714787" lon="12.3688313"><ele>37.0</ele><time>2026-03-29T08:02:23.919Z</time></trkpt><trkpt lat="45.8715232" lon="12.3685592"><ele>37.0</ele><time>2026-03-29T08:02:24.931Z</time></trkpt><trkpt lat="45.8715716" lon="12.3682856"><ele>37.333333333333336</ele><time>2026-03-29T08:02:25.94Z</time></trkpt><trkpt lat="45.8716167" lon="12.3680029"><ele>37.666666666666664</ele><time>2026-03-29T08:02:26.931Z</time></trkpt><trkpt lat="45.8716624" lon="12.3677076"><ele>38.0</ele><time>2026-03-29T08:02:27.947Z</time></trkpt><trkpt lat="45.8717079" lon="12.3673971"><ele>37.0</ele><time>2026-03-29T08:02:28.944Z</time></trkpt><trkpt lat="45.8717574" lon="12.3670702"><ele>36.0</ele><time>2026-03-29T08:02:29.922Z</time></trkpt><trkpt lat="45.8718107" lon="12.3667251"><ele>35.5</ele><time>2026-03-29T08:02:30.942Z</time></trkpt><trkpt lat="45.871873" lon="12.3663621"><ele>35.0</ele><time>2026-03-29T08:02:31.936Z</time></trkpt><trkpt lat="45.8719435" lon="12.3659804"><ele>36.0</ele><time>2026-03-29T08:02:32.926Z</time></trkpt><trkpt lat="45.8720246" lon="12.365591"><ele>37.0</ele><time>2026-03-29T08:02:33.927Z</time></trkpt><trkpt lat="45.8721002" lon="12.3652035"><ele>37.0</ele><time>2026-03-29T08:02:34.931Z</time></trkpt><trkpt lat="45.8721674" lon="12.3648214"><ele>37.0</ele><time>2026-03-29T08:02:35.936Z</time></trkpt><trkpt lat="45.8722173" lon="12.3644509"><ele>37.0</ele><time>2026-03-29T08:02:36.922Z</time></trkpt><trkpt lat="45.8722693" lon="12.3641025"><ele>37.0</ele><time>2026-03-29T08:02:37.916Z</time></trkpt><trkpt lat="45.8723234" lon="12.3637717"><ele>36.5</ele><time>2026-03-29T08:02:38.913Z</time></trkpt><trkpt lat="45.8723784" lon="12.3634495"><ele>36.0</ele><time>2026-03-29T08:02:39.933Z</time></trkpt><trkpt lat="45.8724415" lon="12.3631323"><ele>36.0</ele><time>2026-03-29T08:02:40.939Z</time></trkpt><trkpt lat="45.8724967" lon="12.3628179"><ele>36.0</ele><time>2026-03-29T08:02:41.916Z</time></trkpt><trkpt lat="45.8725448" lon="12.3625062"><ele>36.0</ele><time>2026-03-29T08:02:42.914Z</time></trkpt><trkpt lat="45.8725952" lon="12.3621961"><ele>36.333333333333336</ele><time>2026-03-29T08:02:43.934Z</time></trkpt><trkpt lat="45.8726463" lon="12.3618883"><ele>36.66666666666667</ele><time>2026-03-29T08:02:44.939Z</time></trkpt><trkpt lat="45.8726991" lon="12.3615826"><ele>37.0</ele><time>2026-03-29T08:02:45.944Z</time></trkpt><trkpt lat="45.8727547" lon="12.3612796"><ele>37.66666666666667</ele><time>2026-03-29T08:02:46.923Z</time></trkpt><trkpt lat="45.8728149" lon="12.3609783"><ele>38.333333333333336</ele><time>2026-03-29T08:02:47.92Z</time></trkpt><trkpt lat="45.8728691" lon="12.3606773"><ele>39.0</ele><time>2026-03-29T08:02:48.91Z</time></trkpt><trkpt lat="45.8729242" lon="12.3603802"><ele>39.0</ele><time>2026-03-29T08:02:49.914Z</time></trkpt><trkpt lat="45.8729739" lon="12.3600845"><ele>39.0</ele><time>2026-03-29T08:02:50.922Z</time></trkpt><trkpt lat="45.8730144" lon="12.3597912"><ele>39.0</ele><time>2026-03-29T08:02:51.927Z</time></trkpt><trkpt lat="45.8730569" lon="12.3595014"><ele>39.0</ele><time>2026-03-29T08:02:52.929Z</time></trkpt><trkpt lat="45.8731048" lon="12.3592136"><ele>39.0</ele><time>2026-03-29T08:02:53.935Z</time></trkpt><trkpt lat="45.873156" lon="12.3589255"><ele>39.0</ele><time>2026-03-29T08:02:54.929Z</time></trkpt><trkpt lat="45.8732062" lon="12.3586339"><ele>39.0</ele><time>2026-03-29T08:02:55.927Z</time></trkpt><trkpt lat="45.8732546" lon="12.3583385"><ele>39.0</ele><time>2026-03-29T08:02:56.918Z</time></trkpt><trkpt lat="45.8733063" lon="12.3580419"><ele>39.0</ele><time>2026-03-29T08:02:57.918Z</time></trkpt><trkpt lat="45.8733478" lon="12.3577431"><ele>38.666666666666664</ele><time>2026-03-29T08:02:58.932Z</time></trkpt><trkpt lat="45.8733991" lon="12.357447"><ele>38.33333333333333</ele><time>2026-03-29T08:02:59.931Z</time></trkpt><trkpt lat="45.8734367" lon="12.3571494"><ele>38.0</ele><time>2026-03-29T08:03:00.929Z</time></trkpt><trkpt lat="45.8734782" lon="12.3568555"><ele>38.0</ele><time>2026-03-29T08:03:01.926Z</time></trkpt><trkpt lat="45.8735222" lon="12.3565693"><ele>38.0</ele><time>2026-03-29T08:03:02.928Z</time></trkpt><trkpt lat="45.8735692" lon="12.3562891"><ele>38.0</ele><time>2026-03-29T08:03:03.935Z</time></trkpt><trkpt lat="45.8736161" lon="12.3560098"><ele>38.0</ele><time>2026-03-29T08:03:04.909Z</time></trkpt><trkpt lat="45.8736636" lon="12.3557306"><ele>38.0</ele><time>2026-03-29T08:03:05.925Z</time></trkpt><trkpt lat="45.8737126" lon="12.3554504"><ele>38.0</ele><time>2026-03-29T08:03:06.922Z</time></trkpt><trkpt lat="45.8737584" lon="12.3551655"><ele>38.666666666666664</ele><time>2026-03-29T08:03:07.907Z</time></trkpt><trkpt lat="45.8738054" lon="12.3548783"><ele>39.333333333333336</ele><time>2026-03-29T08:03:08.923Z</time></trkpt><trkpt lat="45.8738524" lon="12.3545897"><ele>40.0</ele><time>2026-03-29T08:03:09.908Z</time></trkpt><trkpt lat="45.8739049" lon="12.354301"><ele>40.0</ele><time>2026-03-29T08:03:10.918Z</time></trkpt><trkpt lat="45.8739549" lon="12.3540131"><ele>40.0</ele><time>2026-03-29T08:03:11.923Z</time></trkpt><trkpt lat="45.8740035" lon="12.3537284"><ele>40.0</ele><time>2026-03-29T08:03:12.922Z</time></trkpt><trkpt lat="45.8740471" lon="12.3534466"><ele>40.0</ele><time>2026-03-29T08:03:13.918Z</time></trkpt><trkpt lat="45.8740985" lon="12.3531685"><ele>40.0</ele><time>2026-03-29T08:03:14.921Z</time></trkpt><trkpt lat="45.8741463" lon="12.3528899"><ele>40.0</ele><time>2026-03-29T08:03:15.918Z</time></trkpt><trkpt lat="45.8741849" lon="12.3526111"><ele>39.66666666666667</ele><time>2026-03-29T08:03:16.914Z</time></trkpt><trkpt lat="45.8742304" lon="12.3523364"><ele>39.333333333333336</ele><time>2026-03-29T08:03:17.923Z</time></trkpt><trkpt lat="45.8742737" lon="12.352064"><ele>39.0</ele><time>2026-03-29T08:03:18.919Z</time></trkpt><trkpt lat="45.8743174" lon="12.3517949"><ele>39.0</ele><time>2026-03-29T08:03:19.916Z</time></trkpt><trkpt lat="45.874361" lon="12.3515274"><ele>39.0</ele><time>2026-03-29T08:03:20.919Z</time></trkpt><trkpt lat="45.8744047" lon="12.351261"><ele>39.0</ele><time>2026-03-29T08:03:21.925Z</time></trkpt><trkpt lat="45.8744484" lon="12.3509969"><ele>39.0</ele><time>2026-03-29T08:03:22.913Z</time></trkpt><trkpt lat="45.8744912" lon="12.3507337"><ele>39.0</ele><time>2026-03-29T08:03:23.913Z</time></trkpt><trkpt lat="45.8745338" lon="12.3504705"><ele>39.0</ele><time>2026-03-29T08:03:24.925Z</time></trkpt><trkpt lat="45.8745748" lon="12.3502066"><ele>39.666666666666664</ele><time>2026-03-29T08:03:25.915Z</time></trkpt><trkpt lat="45.8746204" lon="12.3499449"><ele>40.33333333333333</ele><time>2026-03-29T08:03:26.919Z</time></trkpt><trkpt lat="45.8746578" lon="12.3496827"><ele>41.0</ele><time>2026-03-29T08:03:27.923Z</time></trkpt><trkpt lat="45.8746987" lon="12.3494238"><ele>41.0</ele><time>2026-03-29T08:03:28.925Z</time></trkpt><trkpt lat="45.8747461" lon="12.3491694"><ele>41.0</ele><time>2026-03-29T08:03:29.931Z</time></trkpt><trkpt lat="45.8747916" lon="12.3489153"><ele>41.0</ele><time>2026-03-29T08:03:30.918Z</time></trkpt><trkpt lat="45.8748373" lon="12.3486614"><ele>41.33333333333333</ele><time>2026-03-29T08:03:31.932Z</time></trkpt><trkpt lat="45.8748796" lon="12.3484066"><ele>41.666666666666664</ele><time>2026-03-29T08:03:32.924Z</time></trkpt><trkpt lat="45.8749236" lon="12.3481518"><ele>42.0</ele><time>2026-03-29T08:03:33.923Z</time></trkpt><trkpt lat="45.8749693" lon="12.3478966"><ele>42.0</ele><time>2026-03-29T08:03:34.917Z</time></trkpt><trkpt lat="45.8750174" lon="12.3476412"><ele>42.0</ele><time>2026-03-29T08:03:35.936Z</time></trkpt><trkpt lat="45.8750626" lon="12.347386"><ele>42.0</ele><time>2026-03-29T08:03:36.932Z</time></trkpt><trkpt lat="45.875104" lon="12.3471325"><ele>41.333333333333336</ele><time>2026-03-29T08:03:37.933Z</time></trkpt><trkpt lat="45.8751498" lon="12.3468846"><ele>40.66666666666667</ele><time>2026-03-29T08:03:38.93Z</time></trkpt><trkpt lat="45.875193" lon="12.3466388"><ele>40.0</ele><time>2026-03-29T08:03:39.922Z</time></trkpt><trkpt lat="45.8752313" lon="12.3463946"><ele>39.66666666666667</ele><time>2026-03-29T08:03:40.924Z</time></trkpt><trkpt lat="45.875274" lon="12.3461542"><ele>39.333333333333336</ele><time>2026-03-29T08:03:41.918Z</time></trkpt><trkpt lat="45.8753195" lon="12.3459158"><ele>39.0</ele><time>2026-03-29T08:03:42.934Z</time></trkpt><trkpt lat="45.8753629" lon="12.3456793"><ele>39.666666666666664</ele><time>2026-03-29T08:03:43.925Z</time></trkpt><trkpt lat="45.8754011" lon="12.3454409"><ele>40.33333333333333</ele><time>2026-03-29T08:03:44.929Z</time></trkpt><trkpt lat="45.8754434" lon="12.3452034"><ele>41.0</ele><time>2026-03-29T08:03:45.949Z</time></trkpt><trkpt lat="45.8754847" lon="12.3449643"><ele>41.0</ele><time>2026-03-29T08:03:46.929Z</time></trkpt><trkpt lat="45.8755169" lon="12.3447225"><ele>41.0</ele><time>2026-03-29T08:03:47.93Z</time></trkpt><trkpt lat="45.8755527" lon="12.3444881"><ele>41.0</ele><time>2026-03-29T08:03:48.939Z</time></trkpt><trkpt lat="45.8755861" lon="12.3442618"><ele>41.25</ele><time>2026-03-29T08:03:49.952Z</time></trkpt><trkpt lat="45.8756195" lon="12.3440479"><ele>41.5</ele><time>2026-03-29T08:03:50.921Z</time></trkpt><trkpt lat="45.8756556" lon="12.3438459"><ele>41.75</ele><time>2026-03-29T08:03:51.936Z</time></trkpt><trkpt lat="45.8756879" lon="12.3436509"><ele>42.0</ele><time>2026-03-29T08:03:52.932Z</time></trkpt><trkpt lat="45.8757238" lon="12.3434668"><ele>42.0</ele><time>2026-03-29T08:03:53.935Z</time></trkpt><trkpt lat="45.8757318" lon="12.3432796"><ele>42.0</ele><time>2026-03-29T08:03:54.92Z</time></trkpt><trkpt lat="45.8757324" lon="12.3430885"><ele>42.0</ele><time>2026-03-29T08:03:55.911Z</time></trkpt><trkpt lat="45.8757101" lon="12.342884"><ele>42.0</ele><time>2026-03-29T08:03:56.919Z</time></trkpt><trkpt lat="45.8757556" lon="12.3427116"><ele>41.8</ele><time>2026-03-29T08:03:57.925Z</time></trkpt><trkpt lat="45.8757879" lon="12.3425408"><ele>41.6</ele><time>2026-03-29T08:03:58.924Z</time></trkpt><trkpt lat="45.8757958" lon="12.3423833"><ele>41.4</ele><time>2026-03-29T08:03:59.927Z</time></trkpt><trkpt lat="45.8758182" lon="12.3422578"><ele>41.199999999999996</ele><time>2026-03-29T08:04:00.924Z</time></trkpt><trkpt lat="45.8758606" lon="12.3421598"><ele>41.0</ele><time>2026-03-29T08:04:01.915Z</time></trkpt><trkpt lat="45.8759077" lon="12.342082"><ele>41.0</ele><time>2026-03-29T08:04:02.94Z</time></trkpt><trkpt lat="45.8759536" lon="12.3420094"><ele>41.0</ele><time>2026-03-29T08:04:03.919Z</time></trkpt><trkpt lat="45.8760069" lon="12.3419399"><ele>41.0</ele><time>2026-03-29T08:04:04.923Z</time></trkpt><trkpt lat="45.8760644" lon="12.3418703"><ele>41.0</ele><time>2026-03-29T08:04:05.925Z</time></trkpt><trkpt lat="45.8761147" lon="12.3417792"><ele>41.0</ele><time>2026-03-29T08:04:06.919Z</time></trkpt><trkpt lat="45.87615" lon="12.3416628"><ele>41.0</ele><time>2026-03-29T08:04:07.931Z</time></trkpt><trkpt lat="45.8761705" lon="12.3415265"><ele>41.5</ele><time>2026-03-29T08:04:08.921Z</time></trkpt><trkpt lat="45.8761764" lon="12.3413751"><ele>42.0</ele><time>2026-03-29T08:04:09.923Z</time></trkpt><trkpt lat="45.8761859" lon="12.3412059"><ele>42.5</ele><time>2026-03-29T08:04:10.918Z</time></trkpt><trkpt lat="45.876204" lon="12.3410116"><ele>43.0</ele><time>2026-03-29T08:04:11.922Z</time></trkpt><trkpt lat="45.8762414" lon="12.3408001"><ele>43.0</ele><time>2026-03-29T08:04:12.913Z</time></trkpt><trkpt lat="45.8762885" lon="12.3405853"><ele>43.0</ele><time>2026-03-29T08:04:13.908Z</time></trkpt><trkpt lat="45.87635" lon="12.3403753"><ele>43.0</ele><time>2026-03-29T08:04:14.926Z</time></trkpt><trkpt lat="45.8764197" lon="12.3401717"><ele>43.66666666666667</ele><time>2026-03-29T08:04:15.919Z</time></trkpt><trkpt lat="45.8764975" lon="12.3399745"><ele>44.333333333333336</ele><time>2026-03-29T08:04:16.925Z</time></trkpt><trkpt lat="45.8765847" lon="12.3397826"><ele>45.0</ele><time>2026-03-29T08:04:17.919Z</time></trkpt><trkpt lat="45.876671" lon="12.3395948"><ele>45.0</ele><time>2026-03-29T08:04:18.914Z</time></trkpt><trkpt lat="45.8767636" lon="12.3394193"><ele>45.0</ele><time>2026-03-29T08:04:19.915Z</time></trkpt><trkpt lat="45.8768621" lon="12.3392529"><ele>45.0</ele><time>2026-03-29T08:04:20.911Z</time></trkpt><trkpt lat="45.8769654" lon="12.3390981"><ele>45.5</ele><time>2026-03-29T08:04:21.923Z</time></trkpt><trkpt lat="45.8770692" lon="12.3389558"><ele>46.0</ele><time>2026-03-29T08:04:22.92Z</time></trkpt><trkpt lat="45.8771745" lon="12.3388257"><ele>46.5</ele><time>2026-03-29T08:04:23.936Z</time></trkpt><trkpt lat="45.877279" lon="12.338702"><ele>47.0</ele><time>2026-03-29T08:04:24.929Z</time></trkpt><trkpt lat="45.8773929" lon="12.338601"><ele>47.0</ele><time>2026-03-29T08:04:25.912Z</time></trkpt><trkpt lat="45.8775019" lon="12.3384967"><ele>47.0</ele><time>2026-03-29T08:04:26.917Z</time></trkpt><trkpt lat="45.8776203" lon="12.3384059"><ele>47.0</ele><time>2026-03-29T08:04:27.919Z</time></trkpt><trkpt lat="45.8777384" lon="12.33831"><ele>47.0</ele><time>2026-03-29T08:04:28.922Z</time></trkpt><trkpt lat="45.8790988" lon="12.3380607"><ele>46.5</ele><time>2026-03-29T08:04:41.922Z</time></trkpt><trkpt lat="45.8791049" lon="12.3382864"><ele>46.0</ele><time>2026-03-29T08:04:42.92Z</time></trkpt><trkpt lat="45.8791053" lon="12.3384659"><ele>45.5</ele><time>2026-03-29T08:04:43.92Z</time></trkpt><trkpt lat="45.879123" lon="12.3385926"><ele>45.0</ele><time>2026-03-29T08:04:44.913Z</time></trkpt><trkpt lat="45.8791565" lon="12.3386932"><ele>45.0</ele><time>2026-03-29T08:04:45.925Z</time></trkpt><trkpt lat="45.879181" lon="12.3387899"><ele>45.0</ele><time>2026-03-29T08:04:46.927Z</time></trkpt><trkpt lat="45.8791932" lon="12.3388798"><ele>45.0</ele><time>2026-03-29T08:04:47.919Z</time></trkpt><trkpt lat="45.8792195" lon="12.3390686"><ele>45.0</ele><time>2026-03-29T08:04:49.933Z</time></trkpt><trkpt lat="45.8791915" lon="12.3391885"><ele>45.0</ele><time>2026-03-29T08:04:50.911Z</time></trkpt><trkpt lat="45.8791999" lon="12.3393125"><ele>45.0</ele><time>2026-03-29T08:04:51.924Z</time></trkpt><trkpt lat="45.8792014" lon="12.3394631"><ele>45.25</ele><time>2026-03-29T08:04:52.925Z</time></trkpt><trkpt lat="45.8792204" lon="12.3396256"><ele>45.5</ele><time>2026-03-29T08:04:53.931Z</time></trkpt><trkpt lat="45.8792652" lon="12.3398115"><ele>45.75</ele><time>2026-03-29T08:04:54.938Z</time></trkpt><trkpt lat="45.8793205" lon="12.340013"><ele>46.0</ele><time>2026-03-29T08:04:55.928Z</time></trkpt><trkpt lat="45.8793663" lon="12.3402291"><ele>46.0</ele><time>2026-03-29T08:04:56.927Z</time></trkpt><trkpt lat="45.8793988" lon="12.3404474"><ele>46.0</ele><time>2026-03-29T08:04:57.928Z</time></trkpt><trkpt lat="45.8794401" lon="12.3406725"><ele>46.0</ele><time>2026-03-29T08:04:58.93Z</time></trkpt><trkpt lat="45.8794886" lon="12.3409037"><ele>45.66666666666667</ele><time>2026-03-29T08:04:59.929Z</time></trkpt><trkpt lat="45.8795154" lon="12.3411575"><ele>45.333333333333336</ele><time>2026-03-29T08:05:00.924Z</time></trkpt><trkpt lat="45.8795594" lon="12.3413974"><ele>45.0</ele><time>2026-03-29T08:05:01.924Z</time></trkpt><trkpt lat="45.879611" lon="12.3416282"><ele>44.333333333333336</ele><time>2026-03-29T08:05:02.914Z</time></trkpt><trkpt lat="45.8796467" lon="12.3418539"><ele>43.66666666666667</ele><time>2026-03-29T08:05:03.945Z</time></trkpt><trkpt lat="45.8796906" lon="12.3420682"><ele>43.0</ele><time>2026-03-29T08:05:04.922Z</time></trkpt><trkpt lat="45.8797279" lon="12.3422761"><ele>42.75</ele><time>2026-03-29T08:05:05.927Z</time></trkpt><trkpt lat="45.879763" lon="12.3424794"><ele>42.5</ele><time>2026-03-29T08:05:06.924Z</time></trkpt><trkpt lat="45.8797919" lon="12.3426791"><ele>42.25</ele><time>2026-03-29T08:05:07.924Z</time></trkpt><trkpt lat="45.8798159" lon="12.3428743"><ele>42.0</ele><time>2026-03-29T08:05:08.921Z</time></trkpt><trkpt lat="45.8798318" lon="12.3430606"><ele>42.0</ele><time>2026-03-29T08:05:09.932Z</time></trkpt><trkpt lat="45.8798361" lon="12.3432376"><ele>42.0</ele><time>2026-03-29T08:05:10.932Z</time></trkpt><trkpt lat="45.879815" lon="12.34341"><ele>42.0</ele><time>2026-03-29T08:05:11.947Z</time></trkpt><trkpt lat="45.8797558" lon="12.3435655"><ele>42.0</ele><time>2026-03-29T08:05:12.913Z</time></trkpt><trkpt lat="45.8796961" lon="12.3437047"><ele>42.0</ele><time>2026-03-29T08:05:13.93Z</time></trkpt><trkpt lat="45.8796115" lon="12.3438164"><ele>42.0</ele><time>2026-03-29T08:05:14.918Z</time></trkpt><trkpt lat="45.8795018" lon="12.3438817"><ele>42.0</ele><time>2026-03-29T08:05:15.928Z</time></trkpt><trkpt lat="45.8793701" lon="12.3438856"><ele>42.0</ele><time>2026-03-29T08:05:16.939Z</time></trkpt><trkpt lat="45.8792384" lon="12.3438358"><ele>41.75</ele><time>2026-03-29T08:05:17.928Z</time></trkpt><trkpt lat="45.879117" lon="12.343778"><ele>41.5</ele><time>2026-03-29T08:05:18.925Z</time></trkpt><trkpt lat="45.8790231" lon="12.3436582"><ele>41.25</ele><time>2026-03-29T08:05:19.924Z</time></trkpt><trkpt lat="45.8789724" lon="12.3434933"><ele>41.0</ele><time>2026-03-29T08:05:20.908Z</time></trkpt><trkpt lat="45.8789552" lon="12.3433062"><ele>41.0</ele><time>2026-03-29T08:05:21.922Z</time></trkpt><trkpt lat="45.8789525" lon="12.3431329"><ele>41.0</ele><time>2026-03-29T08:05:22.922Z</time></trkpt><trkpt lat="45.8789856" lon="12.3429608"><ele>41.0</ele><time>2026-03-29T08:05:23.926Z</time></trkpt><trkpt lat="45.8790516" lon="12.3427966"><ele>41.0</ele><time>2026-03-29T08:05:24.917Z</time></trkpt><trkpt lat="45.8791522" lon="12.3426699"><ele>41.25</ele><time>2026-03-29T08:05:25.92Z</time></trkpt><trkpt lat="45.8792808" lon="12.3425887"><ele>41.5</ele><time>2026-03-29T08:05:26.905Z</time></trkpt><trkpt lat="45.8794186" lon="12.3425263"><ele>41.75</ele><time>2026-03-29T08:05:27.925Z</time></trkpt><trkpt lat="45.8795677" lon="12.3424718"><ele>42.0</ele><time>2026-03-29T08:05:28.929Z</time></trkpt><trkpt lat="45.8797234" lon="12.3424184"><ele>42.0</ele><time>2026-03-29T08:05:29.928Z</time></trkpt><trkpt lat="45.8798899" lon="12.3423758"><ele>42.0</ele><time>2026-03-29T08:05:30.941Z</time></trkpt><trkpt lat="45.8800603" lon="12.3423186"><ele>42.0</ele><time>2026-03-29T08:05:31.926Z</time></trkpt><trkpt lat="45.8802261" lon="12.3422492"><ele>43.333333333333336</ele><time>2026-03-29T08:05:32.923Z</time></trkpt><trkpt lat="45.8803868" lon="12.3421857"><ele>44.66666666666667</ele><time>2026-03-29T08:05:33.928Z</time></trkpt><trkpt lat="45.8805416" lon="12.3421342"><ele>46.0</ele><time>2026-03-29T08:05:34.931Z</time></trkpt><trkpt lat="45.8806895" lon="12.3420695"><ele>46.0</ele><time>2026-03-29T08:05:35.923Z</time></trkpt><trkpt lat="45.8808427" lon="12.3420415"><ele>46.0</ele><time>2026-03-29T08:05:36.919Z</time></trkpt><trkpt lat="45.8810043" lon="12.3420414"><ele>46.0</ele><time>2026-03-29T08:05:37.931Z</time></trkpt><trkpt lat="45.8811741" lon="12.3420749"><ele>45.0</ele><time>2026-03-29T08:05:38.94Z</time></trkpt><trkpt lat="45.8813501" lon="12.3421171"><ele>44.0</ele><time>2026-03-29T08:05:39.927Z</time></trkpt><trkpt lat="45.8815305" lon="12.3421617"><ele>43.0</ele><time>2026-03-29T08:05:40.926Z</time></trkpt><trkpt lat="45.8817135" lon="12.342204"><ele>43.0</ele><time>2026-03-29T08:05:41.933Z</time></trkpt><trkpt lat="45.8819058" lon="12.3422044"><ele>43.0</ele><time>2026-03-29T08:05:42.942Z</time></trkpt><trkpt lat="45.8821001" lon="12.3421732"><ele>43.0</ele><time>2026-03-29T08:05:43.92Z</time></trkpt><trkpt lat="45.88229" lon="12.3421167"><ele>43.0</ele><time>2026-03-29T08:05:44.933Z</time></trkpt><trkpt lat="45.8824717" lon="12.3420256"><ele>43.0</ele><time>2026-03-29T08:05:45.931Z</time></trkpt><trkpt lat="45.882644" lon="12.3419085"><ele>43.0</ele><time>2026-03-29T08:05:46.921Z</time></trkpt><trkpt lat="45.8828099" lon="12.3417776"><ele>43.66666666666667</ele><time>2026-03-29T08:05:47.927Z</time></trkpt><trkpt lat="45.8829733" lon="12.3416397"><ele>44.333333333333336</ele><time>2026-03-29T08:05:48.921Z</time></trkpt><trkpt lat="45.8831363" lon="12.3415097"><ele>45.0</ele><time>2026-03-29T08:05:49.917Z</time></trkpt><trkpt lat="45.8832988" lon="12.3413831"><ele>45.333333333333336</ele><time>2026-03-29T08:05:50.913Z</time></trkpt><trkpt lat="45.8834703" lon="12.3412808"><ele>45.66666666666667</ele><time>2026-03-29T08:05:51.924Z</time></trkpt><trkpt lat="45.8836468" lon="12.3411894"><ele>46.0</ele><time>2026-03-29T08:05:52.915Z</time></trkpt><trkpt lat="45.8838308" lon="12.3411104"><ele>46.0</ele><time>2026-03-29T08:05:53.928Z</time></trkpt><trkpt lat="45.8840259" lon="12.3410552"><ele>46.0</ele><time>2026-03-29T08:05:54.917Z</time></trkpt><trkpt lat="45.8842256" lon="12.3410048"><ele>46.0</ele><time>2026-03-29T08:05:55.938Z</time></trkpt><trkpt lat="45.8844308" lon="12.3409624"><ele>47.0</ele><time>2026-03-29T08:05:56.932Z</time></trkpt><trkpt lat="45.8846399" lon="12.3409307"><ele>48.0</ele><time>2026-03-29T08:05:57.922Z</time></trkpt><trkpt lat="45.8848534" lon="12.3409058"><ele>49.0</ele><time>2026-03-29T08:05:58.918Z</time></trkpt><trkpt lat="45.8850726" lon="12.3408851"><ele>50.0</ele><time>2026-03-29T08:05:59.926Z</time></trkpt><trkpt lat="45.8852971" lon="12.3408642"><ele>51.0</ele><time>2026-03-29T08:06:00.91Z</time></trkpt><trkpt lat="45.8855265" lon="12.3408522"><ele>51.0</ele><time>2026-03-29T08:06:01.938Z</time></trkpt><trkpt lat="45.8857602" lon="12.340845"><ele>51.0</ele><time>2026-03-29T08:06:02.924Z</time></trkpt><trkpt lat="45.8859997" lon="12.3408408"><ele>50.0</ele><time>2026-03-29T08:06:03.919Z</time></trkpt><trkpt lat="45.8862432" lon="12.3408436"><ele>49.0</ele><time>2026-03-29T08:06:04.911Z</time></trkpt><trkpt lat="45.8864923" lon="12.3408496"><ele>49.0</ele><time>2026-03-29T08:06:05.926Z</time></trkpt><trkpt lat="45.8867485" lon="12.3408613"><ele>49.0</ele><time>2026-03-29T08:06:06.922Z</time></trkpt><trkpt lat="45.8870099" lon="12.340884"><ele>48.5</ele><time>2026-03-29T08:06:07.931Z</time></trkpt><trkpt lat="45.8872758" lon="12.3409145"><ele>48.0</ele><time>2026-03-29T08:06:08.919Z</time></trkpt><trkpt lat="45.8875439" lon="12.3409498"><ele>49.0</ele><time>2026-03-29T08:06:09.934Z</time></trkpt><trkpt lat="45.887814" lon="12.3409904"><ele>50.0</ele><time>2026-03-29T08:06:10.907Z</time></trkpt><trkpt lat="45.8880836" lon="12.3410354"><ele>50.0</ele><time>2026-03-29T08:06:11.921Z</time></trkpt><trkpt lat="45.8883514" lon="12.3410849"><ele>50.0</ele><time>2026-03-29T08:06:12.927Z</time></trkpt><trkpt lat="45.8886178" lon="12.3411413"><ele>49.5</ele><time>2026-03-29T08:06:13.924Z</time></trkpt><trkpt lat="45.8888837" lon="12.3412047"><ele>49.0</ele><time>2026-03-29T08:06:14.928Z</time></trkpt><trkpt lat="45.889149" lon="12.341275"><ele>49.0</ele><time>2026-03-29T08:06:15.926Z</time></trkpt><trkpt lat="45.8894149" lon="12.3413486"><ele>49.0</ele><time>2026-03-29T08:06:16.927Z</time></trkpt><trkpt lat="45.889681" lon="12.3414299"><ele>49.0</ele><time>2026-03-29T08:06:17.92Z</time></trkpt><trkpt lat="45.8899485" lon="12.3415106"><ele>49.0</ele><time>2026-03-29T08:06:18.924Z</time></trkpt><trkpt lat="45.8902182" lon="12.3415894"><ele>50.0</ele><time>2026-03-29T08:06:19.926Z</time></trkpt><trkpt lat="45.8904885" lon="12.3416749"><ele>51.0</ele><time>2026-03-29T08:06:20.928Z</time></trkpt><trkpt lat="45.8907597" lon="12.3417566"><ele>49.5</ele><time>2026-03-29T08:06:21.93Z</time></trkpt><trkpt lat="45.8910309" lon="12.3418449"><ele>48.0</ele><time>2026-03-29T08:06:22.928Z</time></trkpt><trkpt lat="45.8913026" lon="12.3419326"><ele>48.0</ele><time>2026-03-29T08:06:23.946Z</time></trkpt><trkpt lat="45.891577" lon="12.342011"><ele>48.0</ele><time>2026-03-29T08:06:24.928Z</time></trkpt><trkpt lat="45.8918532" lon="12.3420889"><ele>49.5</ele><time>2026-03-29T08:06:25.92Z</time></trkpt><trkpt lat="45.892131" lon="12.3421759"><ele>51.0</ele><time>2026-03-29T08:06:26.924Z</time></trkpt><trkpt lat="45.892413" lon="12.3422649"><ele>51.0</ele><time>2026-03-29T08:06:27.922Z</time></trkpt><trkpt lat="45.8926996" lon="12.3423484"><ele>51.0</ele><time>2026-03-29T08:06:28.931Z</time></trkpt><trkpt lat="45.8929868" lon="12.3424361"><ele>51.0</ele><time>2026-03-29T08:06:29.923Z</time></trkpt><trkpt lat="45.8932751" lon="12.3425154"><ele>51.0</ele><time>2026-03-29T08:06:30.938Z</time></trkpt><trkpt lat="45.893563" lon="12.3425997"><ele>49.0</ele><time>2026-03-29T08:06:31.934Z</time></trkpt><trkpt lat="45.8938513" lon="12.3426836"><ele>47.0</ele><time>2026-03-29T08:06:32.935Z</time></trkpt><trkpt lat="45.8941384" lon="12.3427695"><ele>49.5</ele><time>2026-03-29T08:06:33.924Z</time></trkpt><trkpt lat="45.8944218" lon="12.3428602"><ele>52.0</ele><time>2026-03-29T08:06:34.926Z</time></trkpt><trkpt lat="45.8947044" lon="12.3429491"><ele>52.0</ele><time>2026-03-29T08:06:35.936Z</time></trkpt><trkpt lat="45.8949881" lon="12.3430297"><ele>52.0</ele><time>2026-03-29T08:06:36.924Z</time></trkpt><trkpt lat="45.8952722" lon="12.343114"><ele>53.0</ele><time>2026-03-29T08:06:37.919Z</time></trkpt><trkpt lat="45.895557" lon="12.3432006"><ele>54.0</ele><time>2026-03-29T08:06:38.933Z</time></trkpt><trkpt lat="45.8958412" lon="12.3432899"><ele>55.0</ele><time>2026-03-29T08:06:39.943Z</time></trkpt><trkpt lat="45.8961274" lon="12.3433708"><ele>56.0</ele><time>2026-03-29T08:06:40.925Z</time></trkpt><trkpt lat="45.8964128" lon="12.3434561"><ele>56.0</ele><time>2026-03-29T08:06:41.933Z</time></trkpt><trkpt lat="45.8966978" lon="12.343544"><ele>56.0</ele><time>2026-03-29T08:06:42.952Z</time></trkpt><trkpt lat="45.8969843" lon="12.3436283"><ele>56.0</ele><time>2026-03-29T08:06:43.949Z</time></trkpt><trkpt lat="45.8972712" lon="12.343711"><ele>56.0</ele><time>2026-03-29T08:06:44.937Z</time></trkpt><trkpt lat="45.8975584" lon="12.3437964"><ele>56.5</ele><time>2026-03-29T08:06:45.95Z</time></trkpt><trkpt lat="45.8978463" lon="12.3438821"><ele>57.0</ele><time>2026-03-29T08:06:46.949Z</time></trkpt><trkpt lat="45.8981347" lon="12.3439671"><ele>57.5</ele><time>2026-03-29T08:06:47.941Z</time></trkpt><trkpt lat="45.8984229" lon="12.3440523"><ele>58.0</ele><time>2026-03-29T08:06:48.942Z</time></trkpt><trkpt lat="45.8987112" lon="12.344137"><ele>58.0</ele><time>2026-03-29T08:06:49.939Z</time></trkpt><trkpt lat="45.8989975" lon="12.3442254"><ele>58.0</ele><time>2026-03-29T08:06:50.93Z</time></trkpt><trkpt lat="45.8992839" lon="12.3443072"><ele>57.5</ele><time>2026-03-29T08:06:51.936Z</time></trkpt><trkpt lat="45.8995705" lon="12.344392"><ele>57.0</ele><time>2026-03-29T08:06:52.936Z</time></trkpt><trkpt lat="45.8998575" lon="12.3444756"><ele>57.5</ele><time>2026-03-29T08:06:53.926Z</time></trkpt><trkpt lat="45.9001452" lon="12.3445618"><ele>58.0</ele><time>2026-03-29T08:06:54.934Z</time></trkpt><trkpt lat="45.9004329" lon="12.3446513"><ele>58.5</ele><time>2026-03-29T08:06:55.936Z</time></trkpt><trkpt lat="45.9007208" lon="12.3447389"><ele>59.0</ele><time>2026-03-29T08:06:56.938Z</time></trkpt><trkpt lat="45.9010086" lon="12.3448272"><ele>58.0</ele><time>2026-03-29T08:06:57.932Z</time></trkpt><trkpt lat="45.9012974" lon="12.3449138"><ele>57.0</ele><time>2026-03-29T08:06:58.931Z</time></trkpt><trkpt lat="45.9015889" lon="12.3449919"><ele>59.0</ele><time>2026-03-29T08:06:59.929Z</time></trkpt><trkpt lat="45.9018841" lon="12.3450551"><ele>61.0</ele><time>2026-03-29T08:07:00.937Z</time></trkpt><trkpt lat="45.9021843" lon="12.3451108"><ele>61.0</ele><time>2026-03-29T08:07:01.937Z</time></trkpt><trkpt lat="45.9024918" lon="12.3451473"><ele>61.0</ele><time>2026-03-29T08:07:02.931Z</time></trkpt><trkpt lat="45.9028059" lon="12.3451701"><ele>60.5</ele><time>2026-03-29T08:07:03.943Z</time></trkpt><trkpt lat="45.903125" lon="12.3451667"><ele>60.0</ele><time>2026-03-29T08:07:04.921Z</time></trkpt><trkpt lat="45.9034435" lon="12.3451384"><ele>58.0</ele><time>2026-03-29T08:07:05.933Z</time></trkpt><trkpt lat="45.9037588" lon="12.3450892"><ele>56.0</ele><time>2026-03-29T08:07:06.936Z</time></trkpt><trkpt lat="45.9040716" lon="12.345006"><ele>56.0</ele><time>2026-03-29T08:07:07.937Z</time></trkpt><trkpt lat="45.9043795" lon="12.3449201"><ele>56.0</ele><time>2026-03-29T08:07:08.924Z</time></trkpt><trkpt lat="45.9046839" lon="12.344815"><ele>56.0</ele><time>2026-03-29T08:07:09.942Z</time></trkpt><trkpt lat="45.904985" lon="12.3446876"><ele>56.0</ele><time>2026-03-29T08:07:10.931Z</time></trkpt><trkpt lat="45.9052816" lon="12.3445373"><ele>56.0</ele><time>2026-03-29T08:07:11.928Z</time></trkpt><trkpt lat="45.9055725" lon="12.3443824"><ele>56.0</ele><time>2026-03-29T08:07:12.932Z</time></trkpt><trkpt lat="45.9058566" lon="12.3442087"><ele>55.5</ele><time>2026-03-29T08:07:13.912Z</time></trkpt><trkpt lat="45.906131" lon="12.3440165"><ele>55.0</ele><time>2026-03-29T08:07:14.929Z</time></trkpt><trkpt lat="45.906395" lon="12.3438083"><ele>56.5</ele><time>2026-03-29T08:07:15.93Z</time></trkpt><trkpt lat="45.9066504" lon="12.3435874"><ele>58.0</ele><time>2026-03-29T08:07:16.935Z</time></trkpt><trkpt lat="45.9068974" lon="12.3433536"><ele>58.0</ele><time>2026-03-29T08:07:17.934Z</time></trkpt><trkpt lat="45.9071369" lon="12.3431086"><ele>58.0</ele><time>2026-03-29T08:07:18.929Z</time></trkpt><trkpt lat="45.9073688" lon="12.3428501"><ele>59.0</ele><time>2026-03-29T08:07:19.933Z</time></trkpt><trkpt lat="45.9075944" lon="12.3425761"><ele>60.0</ele><time>2026-03-29T08:07:20.926Z</time></trkpt><trkpt lat="45.907813" lon="12.3422926"><ele>61.5</ele><time>2026-03-29T08:07:21.925Z</time></trkpt><trkpt lat="45.9080243" lon="12.3419979"><ele>63.0</ele><time>2026-03-29T08:07:22.93Z</time></trkpt><trkpt lat="45.9082284" lon="12.3416894"><ele>62.5</ele><time>2026-03-29T08:07:23.924Z</time></trkpt><trkpt lat="45.9084248" lon="12.3413715"><ele>62.0</ele><time>2026-03-29T08:07:24.933Z</time></trkpt><trkpt lat="45.9086171" lon="12.3410449"><ele>62.0</ele><time>2026-03-29T08:07:25.935Z</time></trkpt><trkpt lat="45.9088065" lon="12.3407157"><ele>62.0</ele><time>2026-03-29T08:07:26.933Z</time></trkpt><trkpt lat="45.9089986" lon="12.3403892"><ele>61.5</ele><time>2026-03-29T08:07:27.926Z</time></trkpt><trkpt lat="45.9091923" lon="12.3400675"><ele>61.0</ele><time>2026-03-29T08:07:28.933Z</time></trkpt><trkpt lat="45.9093846" lon="12.3397447"><ele>61.5</ele><time>2026-03-29T08:07:29.927Z</time></trkpt><trkpt lat="45.9095797" lon="12.3394266"><ele>62.0</ele><time>2026-03-29T08:07:30.921Z</time></trkpt><trkpt lat="45.9097791" lon="12.3391135"><ele>63.0</ele><time>2026-03-29T08:07:31.929Z</time></trkpt><trkpt lat="45.9099827" lon="12.3388037"><ele>64.0</ele><time>2026-03-29T08:07:32.931Z</time></trkpt><trkpt lat="45.9101912" lon="12.3384999"><ele>64.0</ele><time>2026-03-29T08:07:33.92Z</time></trkpt><trkpt lat="45.9104037" lon="12.3382017"><ele>64.0</ele><time>2026-03-29T08:07:34.926Z</time></trkpt><trkpt lat="45.9106175" lon="12.3379043"><ele>64.0</ele><time>2026-03-29T08:07:35.928Z</time></trkpt><trkpt lat="45.9108357" lon="12.3376135"><ele>64.0</ele><time>2026-03-29T08:07:36.929Z</time></trkpt><trkpt lat="45.9110556" lon="12.337326"><ele>65.5</ele><time>2026-03-29T08:07:37.913Z</time></trkpt><trkpt lat="45.9112774" lon="12.3370458"><ele>67.0</ele><time>2026-03-29T08:07:38.925Z</time></trkpt><trkpt lat="45.9115006" lon="12.3367733"><ele>67.0</ele><time>2026-03-29T08:07:39.936Z</time></trkpt><trkpt lat="45.9117287" lon="12.336512"><ele>67.0</ele><time>2026-03-29T08:07:40.92Z</time></trkpt><trkpt lat="45.9119632" lon="12.3362629"><ele>67.0</ele><time>2026-03-29T08:07:41.911Z</time></trkpt><trkpt lat="45.9121972" lon="12.3360162"><ele>67.0</ele><time>2026-03-29T08:07:42.93Z</time></trkpt><trkpt lat="45.9124318" lon="12.3357725"><ele>70.5</ele><time>2026-03-29T08:07:43.926Z</time></trkpt><trkpt lat="45.9126668" lon="12.3355275"><ele>74.0</ele><time>2026-03-29T08:07:44.94Z</time></trkpt><trkpt lat="45.9129073" lon="12.3352936"><ele>74.0</ele><time>2026-03-29T08:07:45.926Z</time></trkpt><trkpt lat="45.9131484" lon="12.3350582"><ele>74.0</ele><time>2026-03-29T08:07:46.921Z</time></trkpt><trkpt lat="45.913393" lon="12.3348303"><ele>77.0</ele><time>2026-03-29T08:07:47.924Z</time></trkpt><trkpt lat="45.9136404" lon="12.3346049"><ele>80.0</ele><time>2026-03-29T08:07:48.918Z</time></trkpt><trkpt lat="45.913893" lon="12.3343848"><ele>80.0</ele><time>2026-03-29T08:07:49.92Z</time></trkpt><trkpt lat="45.9141461" lon="12.3341657"><ele>80.0</ele><time>2026-03-29T08:07:50.918Z</time></trkpt><trkpt lat="45.9143975" lon="12.3339433"><ele>83.5</ele><time>2026-03-29T08:07:51.917Z</time></trkpt><trkpt lat="45.9146486" lon="12.3337236"><ele>87.0</ele><time>2026-03-29T08:07:52.917Z</time></trkpt><trkpt lat="45.9148943" lon="12.3334999"><ele>89.0</ele><time>2026-03-29T08:07:53.929Z</time></trkpt><trkpt lat="45.9151377" lon="12.3332741"><ele>91.0</ele><time>2026-03-29T08:07:54.927Z</time></trkpt><trkpt lat="45.9153776" lon="12.3330386"><ele>92.0</ele><time>2026-03-29T08:07:55.929Z</time></trkpt><trkpt lat="45.9156166" lon="12.3327951"><ele>93.0</ele><time>2026-03-29T08:07:56.918Z</time></trkpt><trkpt lat="45.9158544" lon="12.332537"><ele>93.5</ele><time>2026-03-29T08:07:57.925Z</time></trkpt><trkpt lat="45.916092" lon="12.3322679"><ele>94.0</ele><time>2026-03-29T08:07:58.918Z</time></trkpt><trkpt lat="45.9163308" lon="12.3319962"><ele>94.0</ele><time>2026-03-29T08:07:59.936Z</time></trkpt><trkpt lat="45.9165725" lon="12.3317259"><ele>94.0</ele><time>2026-03-29T08:08:00.919Z</time></trkpt><trkpt lat="45.9168113" lon="12.3314466"><ele>93.0</ele><time>2026-03-29T08:08:01.927Z</time></trkpt><trkpt lat="45.9170449" lon="12.3311559"><ele>92.0</ele><time>2026-03-29T08:08:02.926Z</time></trkpt><trkpt lat="45.9172746" lon="12.3308586"><ele>91.0</ele><time>2026-03-29T08:08:03.927Z</time></trkpt><trkpt lat="45.9175015" lon="12.3305571"><ele>90.0</ele><time>2026-03-29T08:08:04.929Z</time></trkpt><trkpt lat="45.9177217" lon="12.3302455"><ele>88.5</ele><time>2026-03-29T08:08:05.934Z</time></trkpt><trkpt lat="45.9179391" lon="12.3299314"><ele>87.0</ele><time>2026-03-29T08:08:06.935Z</time></trkpt><trkpt lat="45.9181545" lon="12.3296142"><ele>87.0</ele><time>2026-03-29T08:08:07.937Z</time></trkpt><trkpt lat="45.9183644" lon="12.329291"><ele>87.0</ele><time>2026-03-29T08:08:08.924Z</time></trkpt><trkpt lat="45.9185744" lon="12.3289685"><ele>90.0</ele><time>2026-03-29T08:08:09.931Z</time></trkpt><trkpt lat="45.9187804" lon="12.3286384"><ele>93.0</ele><time>2026-03-29T08:08:10.94Z</time></trkpt><trkpt lat="45.9189828" lon="12.3283017"><ele>92.0</ele><time>2026-03-29T08:08:11.91Z</time></trkpt><trkpt lat="45.9191777" lon="12.327954"><ele>91.0</ele><time>2026-03-29T08:08:12.917Z</time></trkpt><trkpt lat="45.9193696" lon="12.3276022"><ele>91.0</ele><time>2026-03-29T08:08:13.925Z</time></trkpt><trkpt lat="45.919557" lon="12.3272424"><ele>91.0</ele><time>2026-03-29T08:08:14.934Z</time></trkpt><trkpt lat="45.9197357" lon="12.3268781"><ele>88.0</ele><time>2026-03-29T08:08:15.932Z</time></trkpt><trkpt lat="45.9198992" lon="12.3265061"><ele>85.0</ele><time>2026-03-29T08:08:16.932Z</time></trkpt><trkpt lat="45.9200667" lon="12.3261415"><ele>82.0</ele><time>2026-03-29T08:08:17.936Z</time></trkpt><trkpt lat="45.9202312" lon="12.3257745"><ele>79.0</ele><time>2026-03-29T08:08:18.937Z</time></trkpt><trkpt lat="45.9203921" lon="12.3254059"><ele>77.5</ele><time>2026-03-29T08:08:19.931Z</time></trkpt><trkpt lat="45.9205497" lon="12.3250356"><ele>76.0</ele><time>2026-03-29T08:08:20.935Z</time></trkpt><trkpt lat="45.9207044" lon="12.3246627"><ele>76.0</ele><time>2026-03-29T08:08:21.926Z</time></trkpt><trkpt lat="45.9208495" lon="12.324286"><ele>76.0</ele><time>2026-03-29T08:08:22.931Z</time></trkpt><trkpt lat="45.9209941" lon="12.3239085"><ele>76.5</ele><time>2026-03-29T08:08:23.933Z</time></trkpt><trkpt lat="45.9211348" lon="12.3235303"><ele>77.0</ele><time>2026-03-29T08:08:24.923Z</time></trkpt><trkpt lat="45.9212656" lon="12.3231475"><ele>77.0</ele><time>2026-03-29T08:08:25.941Z</time></trkpt><trkpt lat="45.9213885" lon="12.3227629"><ele>77.0</ele><time>2026-03-29T08:08:26.927Z</time></trkpt><trkpt lat="45.9215091" lon="12.3223803"><ele>77.5</ele><time>2026-03-29T08:08:27.93Z</time></trkpt><trkpt lat="45.9216229" lon="12.3219956"><ele>78.0</ele><time>2026-03-29T08:08:28.95Z</time></trkpt><trkpt lat="45.9217324" lon="12.3216094"><ele>79.0</ele><time>2026-03-29T08:08:29.929Z</time></trkpt><trkpt lat="45.9218393" lon="12.3212225"><ele>80.0</ele><time>2026-03-29T08:08:30.939Z</time></trkpt><trkpt lat="45.921941" lon="12.3208321"><ele>80.0</ele><time>2026-03-29T08:08:31.948Z</time></trkpt><trkpt lat="45.922036" lon="12.3204384"><ele>80.0</ele><time>2026-03-29T08:08:32.924Z</time></trkpt><trkpt lat="45.922129" lon="12.3200442"><ele>80.5</ele><time>2026-03-29T08:08:33.939Z</time></trkpt><trkpt lat="45.9222196" lon="12.3196491"><ele>81.0</ele><time>2026-03-29T08:08:34.935Z</time></trkpt><trkpt lat="45.9223123" lon="12.319255"><ele>81.0</ele><time>2026-03-29T08:08:35.926Z</time></trkpt><trkpt lat="45.9224053" lon="12.3188626"><ele>81.0</ele><time>2026-03-29T08:08:36.949Z</time></trkpt><trkpt lat="45.9224999" lon="12.318472"><ele>80.5</ele><time>2026-03-29T08:08:37.924Z</time></trkpt><trkpt lat="45.9225981" lon="12.3180836"><ele>80.0</ele><time>2026-03-29T08:08:38.936Z</time></trkpt><trkpt lat="45.9227054" lon="12.3176989"><ele>79.5</ele><time>2026-03-29T08:08:39.914Z</time></trkpt><trkpt lat="45.9228257" lon="12.3173178"><ele>79.0</ele><time>2026-03-29T08:08:40.937Z</time></trkpt><trkpt lat="45.9229613" lon="12.3169434"><ele>79.0</ele><time>2026-03-29T08:08:41.927Z</time></trkpt><trkpt lat="45.9231096" lon="12.3165783"><ele>79.0</ele><time>2026-03-29T08:08:42.93Z</time></trkpt><trkpt lat="45.9232699" lon="12.3162244"><ele>80.0</ele><time>2026-03-29T08:08:43.943Z</time></trkpt><trkpt lat="45.9234413" lon="12.3158819"><ele>81.0</ele><time>2026-03-29T08:08:44.915Z</time></trkpt><trkpt lat="45.9236287" lon="12.3155593"><ele>81.0</ele><time>2026-03-29T08:08:45.93Z</time></trkpt><trkpt lat="45.9238291" lon="12.3152558"><ele>81.0</ele><time>2026-03-29T08:08:46.932Z</time></trkpt><trkpt lat="45.9240424" lon="12.3149688"><ele>81.5</ele><time>2026-03-29T08:08:47.943Z</time></trkpt><trkpt lat="45.924264" lon="12.314695"><ele>82.0</ele><time>2026-03-29T08:08:48.933Z</time></trkpt><trkpt lat="45.924493" lon="12.314436"><ele>82.0</ele><time>2026-03-29T08:08:49.953Z</time></trkpt><trkpt lat="45.924729" lon="12.314192"><ele>82.0</ele><time>2026-03-29T08:08:50.917Z</time></trkpt><trkpt lat="45.924975" lon="12.3139696"><ele>82.5</ele><time>2026-03-29T08:08:51.925Z</time></trkpt><trkpt lat="45.9252309" lon="12.3137728"><ele>83.0</ele><time>2026-03-29T08:08:52.923Z</time></trkpt><trkpt lat="45.9254947" lon="12.313597"><ele>83.0</ele><time>2026-03-29T08:08:53.925Z</time></trkpt><trkpt lat="45.9257679" lon="12.313447"><ele>83.0</ele><time>2026-03-29T08:08:54.918Z</time></trkpt><trkpt lat="45.9260456" lon="12.3133161"><ele>83.0</ele><time>2026-03-29T08:08:55.942Z</time></trkpt><trkpt lat="45.9263272" lon="12.3132023"><ele>83.0</ele><time>2026-03-29T08:08:56.924Z</time></trkpt><trkpt lat="45.9266123" lon="12.3131094"><ele>84.5</ele><time>2026-03-29T08:08:57.934Z</time></trkpt><trkpt lat="45.9269003" lon="12.3130408"><ele>86.0</ele><time>2026-03-29T08:08:58.943Z</time></trkpt><trkpt lat="45.92719" lon="12.3129974"><ele>86.0</ele><time>2026-03-29T08:08:59.926Z</time></trkpt><trkpt lat="45.9274818" lon="12.3129731"><ele>86.0</ele><time>2026-03-29T08:09:00.942Z</time></trkpt><trkpt lat="45.9277752" lon="12.3129708"><ele>85.5</ele><time>2026-03-29T08:09:01.943Z</time></trkpt><trkpt lat="45.9280693" lon="12.3129609"><ele>85.0</ele><time>2026-03-29T08:09:02.935Z</time></trkpt><trkpt lat="45.9283634" lon="12.3129735"><ele>86.0</ele><time>2026-03-29T08:09:03.935Z</time></trkpt><trkpt lat="45.928657" lon="12.31299"><ele>87.0</ele><time>2026-03-29T08:09:04.927Z</time></trkpt><trkpt lat="45.9289519" lon="12.3130031"><ele>86.5</ele><time>2026-03-29T08:09:05.927Z</time></trkpt><trkpt lat="45.929248" lon="12.3130228"><ele>86.0</ele><time>2026-03-29T08:09:06.929Z</time></trkpt><trkpt lat="45.9295442" lon="12.3130346"><ele>86.0</ele><time>2026-03-29T08:09:07.929Z</time></trkpt><trkpt lat="45.9298415" lon="12.313031"><ele>86.0</ele><time>2026-03-29T08:09:08.945Z</time></trkpt><trkpt lat="45.9301383" lon="12.3130345"><ele>86.5</ele><time>2026-03-29T08:09:09.922Z</time></trkpt><trkpt lat="45.9304353" lon="12.3130393"><ele>87.0</ele><time>2026-03-29T08:09:10.929Z</time></trkpt><trkpt lat="45.9307328" lon="12.3130454"><ele>88.0</ele><time>2026-03-29T08:09:11.924Z</time></trkpt><trkpt lat="45.9310309" lon="12.3130512"><ele>89.0</ele><time>2026-03-29T08:09:12.925Z</time></trkpt><trkpt lat="45.9313283" lon="12.3130605"><ele>89.0</ele><time>2026-03-29T08:09:13.927Z</time></trkpt><trkpt lat="45.9316255" lon="12.3130673"><ele>89.0</ele><time>2026-03-29T08:09:14.932Z</time></trkpt><trkpt lat="45.9319225" lon="12.3130747"><ele>89.0</ele><time>2026-03-29T08:09:15.925Z</time></trkpt><trkpt lat="45.9322202" lon="12.3130799"><ele>89.0</ele><time>2026-03-29T08:09:16.959Z</time></trkpt><trkpt lat="45.9325176" lon="12.3130855"><ele>88.0</ele><time>2026-03-29T08:09:17.925Z</time></trkpt><trkpt lat="45.9328156" lon="12.3130884"><ele>87.0</ele><time>2026-03-29T08:09:18.925Z</time></trkpt><trkpt lat="45.9331138" lon="12.3130838"><ele>87.5</ele><time>2026-03-29T08:09:19.936Z</time></trkpt><trkpt lat="45.9334107" lon="12.3130751"><ele>88.0</ele><time>2026-03-29T08:09:20.927Z</time></trkpt><trkpt lat="45.9337067" lon="12.3130272"><ele>88.0</ele><time>2026-03-29T08:09:21.938Z</time></trkpt><trkpt lat="45.9340006" lon="12.3129698"><ele>88.0</ele><time>2026-03-29T08:09:22.942Z</time></trkpt><trkpt lat="45.9342906" lon="12.3128923"><ele>88.0</ele><time>2026-03-29T08:09:23.932Z</time></trkpt><trkpt lat="45.9345772" lon="12.3127863"><ele>88.0</ele><time>2026-03-29T08:09:24.948Z</time></trkpt><trkpt lat="45.9348596" lon="12.3126556"><ele>88.0</ele><time>2026-03-29T08:09:25.955Z</time></trkpt><trkpt lat="45.9351379" lon="12.312506"><ele>88.0</ele><time>2026-03-29T08:09:26.927Z</time></trkpt><trkpt lat="45.9354117" lon="12.3123384"><ele>88.5</ele><time>2026-03-29T08:09:27.938Z</time></trkpt><trkpt lat="45.9356772" lon="12.3121465"><ele>89.0</ele><time>2026-03-29T08:09:28.928Z</time></trkpt><trkpt lat="45.9359352" lon="12.3119379"><ele>89.0</ele><time>2026-03-29T08:09:29.929Z</time></trkpt><trkpt lat="45.9361829" lon="12.3117055"><ele>89.0</ele><time>2026-03-29T08:09:30.924Z</time></trkpt><trkpt lat="45.9364227" lon="12.3114549"><ele>88.5</ele><time>2026-03-29T08:09:31.934Z</time></trkpt><trkpt lat="45.936662" lon="12.3112034"><ele>88.0</ele><time>2026-03-29T08:09:32.924Z</time></trkpt><trkpt lat="45.9368946" lon="12.3109362"><ele>88.0</ele><time>2026-03-29T08:09:33.93Z</time></trkpt><trkpt lat="45.9371265" lon="12.3106721"><ele>88.0</ele><time>2026-03-29T08:09:34.926Z</time></trkpt><trkpt lat="45.937357" lon="12.3104067"><ele>88.0</ele><time>2026-03-29T08:09:35.92Z</time></trkpt><trkpt lat="45.9375879" lon="12.3101416"><ele>88.0</ele><time>2026-03-29T08:09:36.945Z</time></trkpt><trkpt lat="45.9378193" lon="12.3098753"><ele>89.0</ele><time>2026-03-29T08:09:37.926Z</time></trkpt><trkpt lat="45.938051" lon="12.3096056"><ele>90.0</ele><time>2026-03-29T08:09:38.923Z</time></trkpt><trkpt lat="45.9382816" lon="12.3093343"><ele>91.0</ele><time>2026-03-29T08:09:39.929Z</time></trkpt><trkpt lat="45.9385089" lon="12.3090586"><ele>92.0</ele><time>2026-03-29T08:09:40.912Z</time></trkpt><trkpt lat="45.9387336" lon="12.308778"><ele>92.5</ele><time>2026-03-29T08:09:41.935Z</time></trkpt><trkpt lat="45.9389523" lon="12.3084877"><ele>93.0</ele><time>2026-03-29T08:09:42.938Z</time></trkpt><trkpt lat="45.9391737" lon="12.3082035"><ele>93.5</ele><time>2026-03-29T08:09:43.931Z</time></trkpt><trkpt lat="45.9393929" lon="12.3079135"><ele>94.0</ele><time>2026-03-29T08:09:44.931Z</time></trkpt><trkpt lat="45.9396098" lon="12.3076177"><ele>94.0</ele><time>2026-03-29T08:09:45.933Z</time></trkpt><trkpt lat="45.9398246" lon="12.3073186"><ele>94.0</ele><time>2026-03-29T08:09:46.93Z</time></trkpt><trkpt lat="45.9400379" lon="12.3070181"><ele>93.0</ele><time>2026-03-29T08:09:47.924Z</time></trkpt><trkpt lat="45.9402493" lon="12.3067156"><ele>92.0</ele><time>2026-03-29T08:09:48.925Z</time></trkpt><trkpt lat="45.9404594" lon="12.3064123"><ele>93.0</ele><time>2026-03-29T08:09:49.925Z</time></trkpt><trkpt lat="45.9406691" lon="12.3061097"><ele>94.0</ele><time>2026-03-29T08:09:50.912Z</time></trkpt><trkpt lat="45.9408691" lon="12.3057941"><ele>97.0</ele><time>2026-03-29T08:09:51.925Z</time></trkpt><trkpt lat="45.9410872" lon="12.3055016"><ele>100.0</ele><time>2026-03-29T08:09:52.912Z</time></trkpt><trkpt lat="45.9413002" lon="12.3052013"><ele>100.0</ele><time>2026-03-29T08:09:53.929Z</time></trkpt><trkpt lat="45.9414996" lon="12.3048842"><ele>100.0</ele><time>2026-03-29T08:09:54.921Z</time></trkpt><trkpt lat="45.9417063" lon="12.304579"><ele>98.5</ele><time>2026-03-29T08:09:55.94Z</time></trkpt><trkpt lat="45.9419146" lon="12.304276"><ele>97.0</ele><time>2026-03-29T08:09:56.933Z</time></trkpt><trkpt lat="45.9421228" lon="12.3039733"><ele>99.0</ele><time>2026-03-29T08:09:57.932Z</time></trkpt><trkpt lat="45.942332" lon="12.3036753"><ele>101.0</ele><time>2026-03-29T08:09:58.929Z</time></trkpt><trkpt lat="45.9425437" lon="12.3033803"><ele>101.0</ele><time>2026-03-29T08:09:59.942Z</time></trkpt><trkpt lat="45.9427672" lon="12.3031023"><ele>101.0</ele><time>2026-03-29T08:10:00.928Z</time></trkpt><trkpt lat="45.942992" lon="12.3028261"><ele>101.0</ele><time>2026-03-29T08:10:01.939Z</time></trkpt><trkpt lat="45.9432202" lon="12.3025565"><ele>101.0</ele><time>2026-03-29T08:10:02.91Z</time></trkpt><trkpt lat="45.9434491" lon="12.3022921"><ele>103.0</ele><time>2026-03-29T08:10:03.927Z</time></trkpt><trkpt lat="45.9436813" lon="12.3020322"><ele>105.0</ele><time>2026-03-29T08:10:04.955Z</time></trkpt><trkpt lat="45.9439187" lon="12.3017783"><ele>105.0</ele><time>2026-03-29T08:10:05.949Z</time></trkpt><trkpt lat="45.9441628" lon="12.3015369"><ele>105.0</ele><time>2026-03-29T08:10:06.947Z</time></trkpt><trkpt lat="45.9444081" lon="12.3012981"><ele>104.0</ele><time>2026-03-29T08:10:07.946Z</time></trkpt><trkpt lat="45.9446498" lon="12.3010536"><ele>103.0</ele><time>2026-03-29T08:10:08.932Z</time></trkpt><trkpt lat="45.9449048" lon="12.300836"><ele>103.5</ele><time>2026-03-29T08:10:09.931Z</time></trkpt><trkpt lat="45.9451602" lon="12.3006169"><ele>104.0</ele><time>2026-03-29T08:10:10.938Z</time></trkpt><trkpt lat="45.9454185" lon="12.3004034"><ele>104.0</ele><time>2026-03-29T08:10:11.941Z</time></trkpt><trkpt lat="45.9456815" lon="12.3002042"><ele>104.0</ele><time>2026-03-29T08:10:12.929Z</time></trkpt><trkpt lat="45.9459466" lon="12.3000103"><ele>103.5</ele><time>2026-03-29T08:10:13.92Z</time></trkpt><trkpt lat="45.9462153" lon="12.299828"><ele>103.0</ele><time>2026-03-29T08:10:14.938Z</time></trkpt><trkpt lat="45.9464854" lon="12.2996459"><ele>104.0</ele><time>2026-03-29T08:10:15.918Z</time></trkpt><trkpt lat="45.9467578" lon="12.2994736"><ele>105.0</ele><time>2026-03-29T08:10:16.929Z</time></trkpt><trkpt lat="45.9470317" lon="12.2993082"><ele>105.0</ele><time>2026-03-29T08:10:17.93Z</time></trkpt><trkpt lat="45.9473062" lon="12.2991418"><ele>105.0</ele><time>2026-03-29T08:10:18.92Z</time></trkpt><trkpt lat="45.9475799" lon="12.2989743"><ele>106.5</ele><time>2026-03-29T08:10:19.927Z</time></trkpt><trkpt lat="45.9478559" lon="12.2988176"><ele>108.0</ele><time>2026-03-29T08:10:20.928Z</time></trkpt><trkpt lat="45.9481304" lon="12.2986532"><ele>108.5</ele><time>2026-03-29T08:10:21.913Z</time></trkpt><trkpt lat="45.9484045" lon="12.2984892"><ele>109.0</ele><time>2026-03-29T08:10:22.934Z</time></trkpt><trkpt lat="45.9486766" lon="12.2983186"><ele>109.0</ele><time>2026-03-29T08:10:23.953Z</time></trkpt><trkpt lat="45.9489415" lon="12.2981257"><ele>109.0</ele><time>2026-03-29T08:10:24.916Z</time></trkpt><trkpt lat="45.9492002" lon="12.2979211"><ele>108.0</ele><time>2026-03-29T08:10:25.918Z</time></trkpt><trkpt lat="45.9494543" lon="12.297705"><ele>107.0</ele><time>2026-03-29T08:10:26.915Z</time></trkpt><trkpt lat="45.9497024" lon="12.2974746"><ele>108.5</ele><time>2026-03-29T08:10:27.927Z</time></trkpt><trkpt lat="45.949947" lon="12.297235"><ele>110.0</ele><time>2026-03-29T08:10:28.928Z</time></trkpt><trkpt lat="45.9501878" lon="12.296987"><ele>110.0</ele><time>2026-03-29T08:10:29.94Z</time></trkpt><trkpt lat="45.9504163" lon="12.2967144"><ele>110.0</ele><time>2026-03-29T08:10:30.944Z</time></trkpt><trkpt lat="45.9506509" lon="12.2964526"><ele>110.0</ele><time>2026-03-29T08:10:31.942Z</time></trkpt><trkpt lat="45.9508798" lon="12.2961776"><ele>110.0</ele><time>2026-03-29T08:10:32.921Z</time></trkpt><trkpt lat="45.9511087" lon="12.2959037"><ele>110.0</ele><time>2026-03-29T08:10:33.907Z</time></trkpt><trkpt lat="45.9513374" lon="12.2956296"><ele>110.0</ele><time>2026-03-29T08:10:34.917Z</time></trkpt><trkpt lat="45.9515637" lon="12.2953521"><ele>110.5</ele><time>2026-03-29T08:10:35.92Z</time></trkpt><trkpt lat="45.9517942" lon="12.29508"><ele>111.0</ele><time>2026-03-29T08:10:36.917Z</time></trkpt><trkpt lat="45.9520247" lon="12.2948086"><ele>117.5</ele><time>2026-03-29T08:10:37.932Z</time></trkpt><trkpt lat="45.952262" lon="12.2945511"><ele>124.0</ele><time>2026-03-29T08:10:38.933Z</time></trkpt><trkpt lat="45.9525026" lon="12.294301"><ele>121.5</ele><time>2026-03-29T08:10:39.945Z</time></trkpt><trkpt lat="45.9527516" lon="12.2940672"><ele>119.0</ele><time>2026-03-29T08:10:40.938Z</time></trkpt><trkpt lat="45.9530071" lon="12.2938502"><ele>124.0</ele><time>2026-03-29T08:10:41.922Z</time></trkpt><trkpt lat="45.9532685" lon="12.2936492"><ele>129.0</ele><time>2026-03-29T08:10:42.943Z</time></trkpt><trkpt lat="45.953535" lon="12.2934651"><ele>129.0</ele><time>2026-03-29T08:10:43.947Z</time></trkpt><trkpt lat="45.9538036" lon="12.2932875"><ele>129.0</ele><time>2026-03-29T08:10:44.939Z</time></trkpt><trkpt lat="45.954075" lon="12.2931181"><ele>134.0</ele><time>2026-03-29T08:10:45.942Z</time></trkpt><trkpt lat="45.954351" lon="12.2929633"><ele>139.0</ele><time>2026-03-29T08:10:46.938Z</time></trkpt><trkpt lat="45.9546325" lon="12.2928267"><ele>139.0</ele><time>2026-03-29T08:10:47.938Z</time></trkpt><trkpt lat="45.9549141" lon="12.2926924"><ele>139.0</ele><time>2026-03-29T08:10:48.934Z</time></trkpt><trkpt lat="45.955195" lon="12.2925609"><ele>138.5</ele><time>2026-03-29T08:10:49.933Z</time></trkpt><trkpt lat="45.9554782" lon="12.2924347"><ele>138.0</ele><time>2026-03-29T08:10:50.924Z</time></trkpt><trkpt lat="45.9557615" lon="12.2923032"><ele>142.5</ele><time>2026-03-29T08:10:51.939Z</time></trkpt><trkpt lat="45.9560435" lon="12.2921642"><ele>147.0</ele><time>2026-03-29T08:10:52.924Z</time></trkpt><trkpt lat="45.9563255" lon="12.2920263"><ele>147.0</ele><time>2026-03-29T08:10:53.912Z</time></trkpt><trkpt lat="45.9566062" lon="12.2918848"><ele>147.0</ele><time>2026-03-29T08:10:54.931Z</time></trkpt><trkpt lat="45.9568857" lon="12.2917419"><ele>146.0</ele><time>2026-03-29T08:10:55.922Z</time></trkpt><trkpt lat="45.9571646" lon="12.2915931"><ele>145.0</ele><time>2026-03-29T08:10:56.907Z</time></trkpt><trkpt lat="45.9574399" lon="12.2914279"><ele>148.5</ele><time>2026-03-29T08:10:57.926Z</time></trkpt><trkpt lat="45.9577102" lon="12.2912504"><ele>152.0</ele><time>2026-03-29T08:10:58.927Z</time></trkpt><trkpt lat="45.9579695" lon="12.2910374"><ele>152.0</ele><time>2026-03-29T08:10:59.923Z</time></trkpt><trkpt lat="45.9582251" lon="12.2908161"><ele>152.0</ele><time>2026-03-29T08:11:00.927Z</time></trkpt><trkpt lat="45.9584759" lon="12.2905837"><ele>151.5</ele><time>2026-03-29T08:11:01.941Z</time></trkpt><trkpt lat="45.9587159" lon="12.2903273"><ele>151.0</ele><time>2026-03-29T08:11:02.916Z</time></trkpt><trkpt lat="45.9589671" lon="12.2900911"><ele>151.5</ele><time>2026-03-29T08:11:03.931Z</time></trkpt><trkpt lat="45.9592135" lon="12.2898447"><ele>152.0</ele><time>2026-03-29T08:11:04.918Z</time></trkpt><trkpt lat="45.9594612" lon="12.2895991"><ele>152.0</ele><time>2026-03-29T08:11:05.932Z</time></trkpt><trkpt lat="45.959711" lon="12.2893554"><ele>152.0</ele><time>2026-03-29T08:11:06.924Z</time></trkpt><trkpt lat="45.9599591" lon="12.2891108"><ele>154.5</ele><time>2026-03-29T08:11:07.932Z</time></trkpt><trkpt lat="45.9602065" lon="12.2888667"><ele>157.0</ele><time>2026-03-29T08:11:08.943Z</time></trkpt><trkpt lat="45.9604573" lon="12.2886296"><ele>157.0</ele><time>2026-03-29T08:11:09.916Z</time></trkpt><trkpt lat="45.9607021" lon="12.2883824"><ele>157.0</ele><time>2026-03-29T08:11:10.931Z</time></trkpt><trkpt lat="45.9609499" lon="12.2881415"><ele>154.5</ele><time>2026-03-29T08:11:11.929Z</time></trkpt><trkpt lat="45.9611982" lon="12.2879004"><ele>152.0</ele><time>2026-03-29T08:11:12.922Z</time></trkpt><trkpt lat="45.96145" lon="12.2876678"><ele>149.0</ele><time>2026-03-29T08:11:13.945Z</time></trkpt><trkpt lat="45.961707" lon="12.287449"><ele>146.0</ele><time>2026-03-29T08:11:14.93Z</time></trkpt><trkpt lat="45.9619696" lon="12.2872576"><ele>144.0</ele><time>2026-03-29T08:11:15.918Z</time></trkpt><trkpt lat="45.9622349" lon="12.2870655"><ele>142.0</ele><time>2026-03-29T08:11:16.925Z</time></trkpt><trkpt lat="45.962508" lon="12.2868844"><ele>140.0</ele><time>2026-03-29T08:11:17.924Z</time></trkpt><trkpt lat="45.9627864" lon="12.2867259"><ele>138.0</ele><time>2026-03-29T08:11:18.914Z</time></trkpt><trkpt lat="45.9630694" lon="12.2865853"><ele>138.0</ele><time>2026-03-29T08:11:19.933Z</time></trkpt><trkpt lat="45.9633546" lon="12.2864592"><ele>138.0</ele><time>2026-03-29T08:11:20.943Z</time></trkpt><trkpt lat="45.9636397" lon="12.2863413"><ele>138.5</ele><time>2026-03-29T08:11:21.928Z</time></trkpt><trkpt lat="45.9639278" lon="12.286245"><ele>139.0</ele><time>2026-03-29T08:11:22.931Z</time></trkpt><trkpt lat="45.9642194" lon="12.2861686"><ele>139.0</ele><time>2026-03-29T08:11:23.912Z</time></trkpt><trkpt lat="45.9645132" lon="12.2861105"><ele>139.0</ele><time>2026-03-29T08:11:24.913Z</time></trkpt><trkpt lat="45.964808" lon="12.2860697"><ele>142.0</ele><time>2026-03-29T08:11:25.934Z</time></trkpt><trkpt lat="45.9651041" lon="12.2860447"><ele>145.0</ele><time>2026-03-29T08:11:26.922Z</time></trkpt><trkpt lat="45.9654004" lon="12.286044"><ele>145.0</ele><time>2026-03-29T08:11:27.923Z</time></trkpt><trkpt lat="45.9656925" lon="12.2860547"><ele>145.0</ele><time>2026-03-29T08:11:28.924Z</time></trkpt><trkpt lat="45.9659841" lon="12.2860968"><ele>149.0</ele><time>2026-03-29T08:11:29.917Z</time></trkpt><trkpt lat="45.9662752" lon="12.2861681"><ele>153.0</ele><time>2026-03-29T08:11:30.914Z</time></trkpt><trkpt lat="45.9665655" lon="12.2862387"><ele>156.5</ele><time>2026-03-29T08:11:31.934Z</time></trkpt><trkpt lat="45.9668552" lon="12.2863158"><ele>160.0</ele><time>2026-03-29T08:11:32.943Z</time></trkpt><trkpt lat="45.9671443" lon="12.2863987"><ele>156.5</ele><time>2026-03-29T08:11:33.927Z</time></trkpt><trkpt lat="45.9674342" lon="12.2864821"><ele>153.0</ele><time>2026-03-29T08:11:34.942Z</time></trkpt><trkpt lat="45.9677248" lon="12.2865631"><ele>153.0</ele><time>2026-03-29T08:11:35.947Z</time></trkpt><trkpt lat="45.968016" lon="12.2866405"><ele>153.0</ele><time>2026-03-29T08:11:36.925Z</time></trkpt><trkpt lat="45.9683064" lon="12.2867214"><ele>154.5</ele><time>2026-03-29T08:11:37.928Z</time></trkpt><trkpt lat="45.9685967" lon="12.286797"><ele>156.0</ele><time>2026-03-29T08:11:38.932Z</time></trkpt><trkpt lat="45.9688854" lon="12.2868749"><ele>156.0</ele><time>2026-03-29T08:11:39.934Z</time></trkpt><trkpt lat="45.9691758" lon="12.2869332"><ele>156.0</ele><time>2026-03-29T08:11:40.918Z</time></trkpt><trkpt lat="45.9694685" lon="12.2869516"><ele>160.0</ele><time>2026-03-29T08:11:41.937Z</time></trkpt><trkpt lat="45.9697612" lon="12.2869405"><ele>164.0</ele><time>2026-03-29T08:11:42.933Z</time></trkpt><trkpt lat="45.9700509" lon="12.2868953"><ele>166.5</ele><time>2026-03-29T08:11:43.917Z</time></trkpt><trkpt lat="45.9703384" lon="12.28681"><ele>169.0</ele><time>2026-03-29T08:11:44.93Z</time></trkpt><trkpt lat="45.9706217" lon="12.2866902"><ele>166.5</ele><time>2026-03-29T08:11:45.954Z</time></trkpt><trkpt lat="45.9709014" lon="12.2865706"><ele>164.0</ele><time>2026-03-29T08:11:46.923Z</time></trkpt><trkpt lat="45.9711685" lon="12.2863956"><ele>171.5</ele><time>2026-03-29T08:11:47.934Z</time></trkpt><trkpt lat="45.9714246" lon="12.2861868"><ele>179.0</ele><time>2026-03-29T08:11:48.921Z</time></trkpt><trkpt lat="45.9716716" lon="12.2859575"><ele>175.5</ele><time>2026-03-29T08:11:49.932Z</time></trkpt><trkpt lat="45.9719064" lon="12.2857016"><ele>172.0</ele><time>2026-03-29T08:11:50.913Z</time></trkpt><trkpt lat="45.9721272" lon="12.2854207"><ele>172.0</ele><time>2026-03-29T08:11:51.923Z</time></trkpt><trkpt lat="45.9723388" lon="12.2851267"><ele>172.0</ele><time>2026-03-29T08:11:52.928Z</time></trkpt><trkpt lat="45.9725463" lon="12.284825"><ele>171.0</ele><time>2026-03-29T08:11:53.925Z</time></trkpt><trkpt lat="45.9727447" lon="12.2845089"><ele>170.0</ele><time>2026-03-29T08:11:54.925Z</time></trkpt><trkpt lat="45.9729564" lon="12.2842126"><ele>170.0</ele><time>2026-03-29T08:11:55.939Z</time></trkpt><trkpt lat="45.9731876" lon="12.2839465"><ele>170.0</ele><time>2026-03-29T08:11:56.941Z</time></trkpt><trkpt lat="45.9734264" lon="12.2836948"><ele>172.5</ele><time>2026-03-29T08:11:57.927Z</time></trkpt><trkpt lat="45.9736777" lon="12.2834723"><ele>175.0</ele><time>2026-03-29T08:11:58.929Z</time></trkpt><trkpt lat="45.9739438" lon="12.2832918"><ele>179.0</ele><time>2026-03-29T08:11:59.946Z</time></trkpt><trkpt lat="45.9742186" lon="12.2831421"><ele>183.0</ele><time>2026-03-29T08:12:00.933Z</time></trkpt><trkpt lat="45.9745002" lon="12.2830153"><ele>190.0</ele><time>2026-03-29T08:12:01.924Z</time></trkpt><trkpt lat="45.9747892" lon="12.2829237"><ele>197.0</ele><time>2026-03-29T08:12:02.929Z</time></trkpt><trkpt lat="45.9750829" lon="12.2828593"><ele>201.0</ele><time>2026-03-29T08:12:03.927Z</time></trkpt><trkpt lat="45.9753797" lon="12.2828161"><ele>205.0</ele><time>2026-03-29T08:12:04.934Z</time></trkpt><trkpt lat="45.9756769" lon="12.2827942"><ele>200.5</ele><time>2026-03-29T08:12:05.94Z</time></trkpt><trkpt lat="45.9759698" lon="12.2827532"><ele>196.0</ele><time>2026-03-29T08:12:06.94Z</time></trkpt><trkpt lat="45.9762634" lon="12.2827347"><ele>196.0</ele><time>2026-03-29T08:12:07.928Z</time></trkpt><trkpt lat="45.9765601" lon="12.282737"><ele>196.0</ele><time>2026-03-29T08:12:08.948Z</time></trkpt><trkpt lat="45.9768561" lon="12.2827218"><ele>188.5</ele><time>2026-03-29T08:12:09.918Z</time></trkpt><trkpt lat="45.9771515" lon="12.2826827"><ele>181.0</ele><time>2026-03-29T08:12:10.924Z</time></trkpt><trkpt lat="45.9774463" lon="12.2826312"><ele>182.5</ele><time>2026-03-29T08:12:11.918Z</time></trkpt><trkpt lat="45.977738" lon="12.2825512"><ele>184.0</ele><time>2026-03-29T08:12:12.925Z</time></trkpt><trkpt lat="45.9780241" lon="12.2824319"><ele>184.0</ele><time>2026-03-29T08:12:13.931Z</time></trkpt><trkpt lat="45.9783031" lon="12.2822918"><ele>184.0</ele><time>2026-03-29T08:12:14.93Z</time></trkpt><trkpt lat="45.9785764" lon="12.2821148"><ele>190.5</ele><time>2026-03-29T08:12:15.938Z</time></trkpt><trkpt lat="45.9788419" lon="12.2818986"><ele>197.0</ele><time>2026-03-29T08:12:16.939Z</time></trkpt><trkpt lat="45.9791003" lon="12.2816446"><ele>211.0</ele><time>2026-03-29T08:12:17.918Z</time></trkpt><trkpt lat="45.9793508" lon="12.2813504"><ele>225.0</ele><time>2026-03-29T08:12:18.921Z</time></trkpt><trkpt lat="45.9795915" lon="12.2810259"><ele>225.0</ele><time>2026-03-29T08:12:19.927Z</time></trkpt><trkpt lat="45.9798198" lon="12.2806826"><ele>225.0</ele><time>2026-03-29T08:12:20.938Z</time></trkpt><trkpt lat="45.9800404" lon="12.2803347"><ele>226.0</ele><time>2026-03-29T08:12:21.925Z</time></trkpt><trkpt lat="45.9802591" lon="12.2799916"><ele>227.0</ele><time>2026-03-29T08:12:22.917Z</time></trkpt><trkpt lat="45.9804806" lon="12.2796593"><ele>227.0</ele><time>2026-03-29T08:12:23.933Z</time></trkpt><trkpt lat="45.9807076" lon="12.2793419"><ele>227.0</ele><time>2026-03-29T08:12:24.921Z</time></trkpt><trkpt lat="45.980925" lon="12.2790183"><ele>230.0</ele><time>2026-03-29T08:12:25.93Z</time></trkpt><trkpt lat="45.9811373" lon="12.278697"><ele>233.0</ele><time>2026-03-29T08:12:26.945Z</time></trkpt><trkpt lat="45.9813457" lon="12.2783774"><ele>231.5</ele><time>2026-03-29T08:12:27.928Z</time></trkpt><trkpt lat="45.9815526" lon="12.2780604"><ele>230.0</ele><time>2026-03-29T08:12:28.939Z</time></trkpt><trkpt lat="45.9817587" lon="12.2777478"><ele>235.5</ele><time>2026-03-29T08:12:29.953Z</time></trkpt><trkpt lat="45.9819662" lon="12.2774406"><ele>241.0</ele><time>2026-03-29T08:12:30.938Z</time></trkpt><trkpt lat="45.9821869" lon="12.2771512"><ele>241.0</ele><time>2026-03-29T08:12:31.935Z</time></trkpt><trkpt lat="45.9824221" lon="12.276883"><ele>241.0</ele><time>2026-03-29T08:12:32.946Z</time></trkpt><trkpt lat="45.9826712" lon="12.2766387"><ele>245.0</ele><time>2026-03-29T08:12:33.938Z</time></trkpt><trkpt lat="45.982938" lon="12.2764302"><ele>249.0</ele><time>2026-03-29T08:12:34.926Z</time></trkpt><trkpt lat="45.9832202" lon="12.2762586"><ele>249.5</ele><time>2026-03-29T08:12:35.929Z</time></trkpt><trkpt lat="45.9835125" lon="12.2761117"><ele>250.0</ele><time>2026-03-29T08:12:36.933Z</time></trkpt><trkpt lat="45.9838226" lon="12.2760356"><ele>250.0</ele><time>2026-03-29T08:12:37.927Z</time></trkpt><trkpt lat="45.9841348" lon="12.2759694"><ele>250.0</ele><time>2026-03-29T08:12:38.911Z</time></trkpt><trkpt lat="45.9844515" lon="12.2759205"><ele>252.0</ele><time>2026-03-29T08:12:39.945Z</time></trkpt><trkpt lat="45.9847754" lon="12.2758759"><ele>254.0</ele><time>2026-03-29T08:12:40.93Z</time></trkpt><trkpt lat="45.9851098" lon="12.275844"><ele>212.0</ele><time>2026-03-29T08:12:41.93Z</time></trkpt><trkpt lat="46.0017883" lon="12.274637"><ele>212.0</ele><time>2026-03-29T08:13:37.865Z</time></trkpt><trkpt lat="46.0021561" lon="12.274644"><ele>212.0</ele><time>2026-03-29T08:13:38.937Z</time></trkpt><trkpt lat="46.0024858" lon="12.2746921"><ele>209.0</ele><time>2026-03-29T08:13:39.924Z</time></trkpt><trkpt lat="46.0027767" lon="12.2747497"><ele>206.0</ele><time>2026-03-29T08:13:40.93Z</time></trkpt><trkpt lat="46.0030766" lon="12.2748255"><ele>202.5</ele><time>2026-03-29T08:13:41.923Z</time></trkpt><trkpt lat="46.0033739" lon="12.2749212"><ele>199.0</ele><time>2026-03-29T08:13:42.929Z</time></trkpt><trkpt lat="46.0036715" lon="12.2750145"><ele>199.0</ele><time>2026-03-29T08:13:43.924Z</time></trkpt><trkpt lat="46.0039666" lon="12.275111"><ele>199.0</ele><time>2026-03-29T08:13:44.919Z</time></trkpt><trkpt lat="46.0042597" lon="12.2751951"><ele>194.5</ele><time>2026-03-29T08:13:45.934Z</time></trkpt><trkpt lat="46.0045533" lon="12.2752812"><ele>190.0</ele><time>2026-03-29T08:13:46.915Z</time></trkpt><trkpt lat="46.0048466" lon="12.2753662"><ele>184.0</ele><time>2026-03-29T08:13:47.957Z</time></trkpt><trkpt lat="46.005139" lon="12.275448"><ele>178.0</ele><time>2026-03-29T08:13:48.919Z</time></trkpt><trkpt lat="46.0054306" lon="12.2755283"><ele>178.0</ele><time>2026-03-29T08:13:49.934Z</time></trkpt><trkpt lat="46.005723" lon="12.275605"><ele>178.0</ele><time>2026-03-29T08:13:50.928Z</time></trkpt><trkpt lat="46.0060161" lon="12.2756846"><ele>178.0</ele><time>2026-03-29T08:13:51.913Z</time></trkpt><trkpt lat="46.0063101" lon="12.2757649"><ele>178.0</ele><time>2026-03-29T08:13:52.927Z</time></trkpt><trkpt lat="46.0066043" lon="12.275846"><ele>178.0</ele><time>2026-03-29T08:13:53.927Z</time></trkpt><trkpt lat="46.0068972" lon="12.275926"><ele>178.0</ele><time>2026-03-29T08:13:54.932Z</time></trkpt><trkpt lat="46.0071896" lon="12.2760051"><ele>178.0</ele><time>2026-03-29T08:13:55.935Z</time></trkpt><trkpt lat="46.0074816" lon="12.2760859"><ele>178.0</ele><time>2026-03-29T08:13:56.933Z</time></trkpt><trkpt lat="46.0077726" lon="12.2761743"><ele>178.5</ele><time>2026-03-29T08:13:57.954Z</time></trkpt><trkpt lat="46.0080621" lon="12.2762739"><ele>179.0</ele><time>2026-03-29T08:13:58.932Z</time></trkpt><trkpt lat="46.0083483" lon="12.2763843"><ele>177.5</ele><time>2026-03-29T08:13:59.929Z</time></trkpt><trkpt lat="46.0086326" lon="12.2765016"><ele>176.0</ele><time>2026-03-29T08:14:00.929Z</time></trkpt><trkpt lat="46.0089172" lon="12.2766245"><ele>179.0</ele><time>2026-03-29T08:14:01.932Z</time></trkpt><trkpt lat="46.009201" lon="12.2767586"><ele>182.0</ele><time>2026-03-29T08:14:02.921Z</time></trkpt><trkpt lat="46.0094831" lon="12.2769007"><ele>182.0</ele><time>2026-03-29T08:14:03.92Z</time></trkpt><trkpt lat="46.0097617" lon="12.277052"><ele>182.0</ele><time>2026-03-29T08:14:04.928Z</time></trkpt><trkpt lat="46.0100385" lon="12.2772112"><ele>183.5</ele><time>2026-03-29T08:14:05.943Z</time></trkpt><trkpt lat="46.010312" lon="12.2773817"><ele>185.0</ele><time>2026-03-29T08:14:06.927Z</time></trkpt><trkpt lat="46.0105813" lon="12.2775624"><ele>191.0</ele><time>2026-03-29T08:14:07.937Z</time></trkpt><trkpt lat="46.0108468" lon="12.2777541"><ele>197.0</ele><time>2026-03-29T08:14:08.921Z</time></trkpt><trkpt lat="46.0111097" lon="12.2779524"><ele>195.0</ele><time>2026-03-29T08:14:09.928Z</time></trkpt><trkpt lat="46.0113678" lon="12.2781634"><ele>193.0</ele><time>2026-03-29T08:14:10.931Z</time></trkpt><trkpt lat="46.0116231" lon="12.2783824"><ele>198.0</ele><time>2026-03-29T08:14:11.923Z</time></trkpt><trkpt lat="46.0118756" lon="12.2786105"><ele>203.0</ele><time>2026-03-29T08:14:12.918Z</time></trkpt><trkpt lat="46.0121293" lon="12.2788423"><ele>202.0</ele><time>2026-03-29T08:14:13.949Z</time></trkpt><trkpt lat="46.0123789" lon="12.2790832"><ele>201.0</ele><time>2026-03-29T08:14:14.928Z</time></trkpt><trkpt lat="46.0126205" lon="12.2793391"><ele>200.5</ele><time>2026-03-29T08:14:15.946Z</time></trkpt><trkpt lat="46.0128622" lon="12.279594"><ele>200.0</ele><time>2026-03-29T08:14:16.935Z</time></trkpt><trkpt lat="46.0130974" lon="12.2798586"><ele>203.0</ele><time>2026-03-29T08:14:17.934Z</time></trkpt><trkpt lat="46.0133284" lon="12.2801307"><ele>206.0</ele><time>2026-03-29T08:14:18.929Z</time></trkpt><trkpt lat="46.0135515" lon="12.2804048"><ele>201.5</ele><time>2026-03-29T08:14:19.925Z</time></trkpt><trkpt lat="46.0137607" lon="12.2806794"><ele>197.0</ele><time>2026-03-29T08:14:20.921Z</time></trkpt><trkpt lat="46.0139689" lon="12.2809542"><ele>197.5</ele><time>2026-03-29T08:14:21.925Z</time></trkpt><trkpt lat="46.0141777" lon="12.2812393"><ele>198.0</ele><time>2026-03-29T08:14:22.921Z</time></trkpt><trkpt lat="46.0143881" lon="12.2815319"><ele>195.0</ele><time>2026-03-29T08:14:23.922Z</time></trkpt><trkpt lat="46.0146036" lon="12.2818237"><ele>192.0</ele><time>2026-03-29T08:14:24.927Z</time></trkpt><trkpt lat="46.0148122" lon="12.2821324"><ele>191.0</ele><time>2026-03-29T08:14:25.925Z</time></trkpt><trkpt lat="46.0150144" lon="12.2824587"><ele>190.0</ele><time>2026-03-29T08:14:26.93Z</time></trkpt><trkpt lat="46.0152212" lon="12.2827838"><ele>189.5</ele><time>2026-03-29T08:14:27.924Z</time></trkpt><trkpt lat="46.015428" lon="12.2831096"><ele>189.0</ele><time>2026-03-29T08:14:28.938Z</time></trkpt><trkpt lat="46.0156306" lon="12.2834389"><ele>189.0</ele><time>2026-03-29T08:14:29.929Z</time></trkpt><trkpt lat="46.0158363" lon="12.283766"><ele>189.0</ele><time>2026-03-29T08:14:30.913Z</time></trkpt><trkpt lat="46.0160447" lon="12.2840906"><ele>189.0</ele><time>2026-03-29T08:14:31.923Z</time></trkpt><trkpt lat="46.0162529" lon="12.2844154"><ele>189.0</ele><time>2026-03-29T08:14:32.919Z</time></trkpt><trkpt lat="46.016462" lon="12.2847384"><ele>190.0</ele><time>2026-03-29T08:14:33.924Z</time></trkpt><trkpt lat="46.0166667" lon="12.2850653"><ele>191.0</ele><time>2026-03-29T08:14:34.908Z</time></trkpt><trkpt lat="46.0168682" lon="12.285392"><ele>191.5</ele><time>2026-03-29T08:14:35.943Z</time></trkpt><trkpt lat="46.0170695" lon="12.2857137"><ele>192.0</ele><time>2026-03-29T08:14:36.926Z</time></trkpt><trkpt lat="46.0172834" lon="12.2860137"><ele>191.0</ele><time>2026-03-29T08:14:37.917Z</time></trkpt><trkpt lat="46.0174942" lon="12.286315"><ele>190.0</ele><time>2026-03-29T08:14:38.936Z</time></trkpt><trkpt lat="46.0177111" lon="12.2866054"><ele>189.5</ele><time>2026-03-29T08:14:39.941Z</time></trkpt><trkpt lat="46.0179255" lon="12.2868943"><ele>189.0</ele><time>2026-03-29T08:14:40.924Z</time></trkpt><trkpt lat="46.0181394" lon="12.2871806"><ele>187.0</ele><time>2026-03-29T08:14:41.918Z</time></trkpt><trkpt lat="46.018352" lon="12.2874656"><ele>185.0</ele><time>2026-03-29T08:14:42.919Z</time></trkpt><trkpt lat="46.0185654" lon="12.2877452"><ele>185.0</ele><time>2026-03-29T08:14:43.94Z</time></trkpt><trkpt lat="46.0187816" lon="12.2880188"><ele>185.0</ele><time>2026-03-29T08:14:44.92Z</time></trkpt><trkpt lat="46.0190025" lon="12.2882859"><ele>184.5</ele><time>2026-03-29T08:14:45.93Z</time></trkpt><trkpt lat="46.0192235" lon="12.2885502"><ele>184.0</ele><time>2026-03-29T08:14:46.925Z</time></trkpt><trkpt lat="46.0194464" lon="12.2888085"><ele>184.0</ele><time>2026-03-29T08:14:47.93Z</time></trkpt><trkpt lat="46.0196682" lon="12.2890653"><ele>184.0</ele><time>2026-03-29T08:14:48.928Z</time></trkpt><trkpt lat="46.0198923" lon="12.2893118"><ele>182.5</ele><time>2026-03-29T08:14:49.931Z</time></trkpt><trkpt lat="46.0201162" lon="12.2895518"><ele>181.0</ele><time>2026-03-29T08:14:50.914Z</time></trkpt><trkpt lat="46.0203389" lon="12.2897854"><ele>181.0</ele><time>2026-03-29T08:14:51.932Z</time></trkpt><trkpt lat="46.0205614" lon="12.2900082"><ele>181.0</ele><time>2026-03-29T08:14:52.949Z</time></trkpt><trkpt lat="46.0207797" lon="12.2902283"><ele>181.5</ele><time>2026-03-29T08:14:53.928Z</time></trkpt><trkpt lat="46.0209963" lon="12.2904444"><ele>182.0</ele><time>2026-03-29T08:14:54.937Z</time></trkpt><trkpt lat="46.0212132" lon="12.2906534"><ele>179.5</ele><time>2026-03-29T08:14:55.938Z</time></trkpt><trkpt lat="46.0214288" lon="12.2908545"><ele>177.0</ele><time>2026-03-29T08:14:56.927Z</time></trkpt><trkpt lat="46.0216442" lon="12.2910508"><ele>181.5</ele><time>2026-03-29T08:14:57.933Z</time></trkpt><trkpt lat="46.0218598" lon="12.2912448"><ele>186.0</ele><time>2026-03-29T08:14:58.931Z</time></trkpt><trkpt lat="46.0220738" lon="12.2914377"><ele>186.0</ele><time>2026-03-29T08:14:59.949Z</time></trkpt><trkpt lat="46.0222898" lon="12.2916263"><ele>186.0</ele><time>2026-03-29T08:15:00.94Z</time></trkpt><trkpt lat="46.0225071" lon="12.2918147"><ele>190.5</ele><time>2026-03-29T08:15:01.922Z</time></trkpt><trkpt lat="46.0227271" lon="12.2919994"><ele>195.0</ele><time>2026-03-29T08:15:02.924Z</time></trkpt><trkpt lat="46.0229474" lon="12.2921848"><ele>198.0</ele><time>2026-03-29T08:15:03.932Z</time></trkpt><trkpt lat="46.023169" lon="12.2923663"><ele>201.0</ele><time>2026-03-29T08:15:04.935Z</time></trkpt><trkpt lat="46.0233917" lon="12.2925427"><ele>201.0</ele><time>2026-03-29T08:15:05.937Z</time></trkpt><trkpt lat="46.0236176" lon="12.2927145"><ele>201.0</ele><time>2026-03-29T08:15:06.92Z</time></trkpt><trkpt lat="46.0238478" lon="12.2928849"><ele>201.0</ele><time>2026-03-29T08:15:07.923Z</time></trkpt><trkpt lat="46.0240834" lon="12.2930575"><ele>201.0</ele><time>2026-03-29T08:15:08.918Z</time></trkpt><trkpt lat="46.0243265" lon="12.2932446"><ele>198.5</ele><time>2026-03-29T08:15:09.958Z</time></trkpt><trkpt lat="46.024587" lon="12.2934499"><ele>196.0</ele><time>2026-03-29T08:15:10.933Z</time></trkpt><trkpt lat="46.0248694" lon="12.293684"><ele>196.0</ele><time>2026-03-29T08:15:11.957Z</time></trkpt><trkpt lat="46.0251712" lon="12.2939358"><ele>196.0</ele><time>2026-03-29T08:15:12.922Z</time></trkpt><trkpt lat="46.0254858" lon="12.2942012"><ele>196.0</ele><time>2026-03-29T08:15:13.929Z</time></trkpt><trkpt lat="46.0258025" lon="12.2944896"><ele>196.0</ele><time>2026-03-29T08:15:14.932Z</time></trkpt><trkpt lat="46.0261057" lon="12.2947918"><ele>201.0</ele><time>2026-03-29T08:15:15.924Z</time></trkpt><trkpt lat="46.0263837" lon="12.2951081"><ele>206.0</ele><time>2026-03-29T08:15:16.915Z</time></trkpt><trkpt lat="46.0266547" lon="12.2954149"><ele>203.5</ele><time>2026-03-29T08:15:17.927Z</time></trkpt><trkpt lat="46.0269095" lon="12.295754"><ele>201.0</ele><time>2026-03-29T08:15:18.919Z</time></trkpt><trkpt lat="46.0271509" lon="12.2961182"><ele>202.5</ele><time>2026-03-29T08:15:19.919Z</time></trkpt><trkpt lat="46.0273823" lon="12.2964982"><ele>204.0</ele><time>2026-03-29T08:15:20.922Z</time></trkpt><trkpt lat="46.0275965" lon="12.2969101"><ele>196.0</ele><time>2026-03-29T08:15:21.92Z</time></trkpt><trkpt lat="46.0278045" lon="12.2973372"><ele>188.0</ele><time>2026-03-29T08:15:22.932Z</time></trkpt><trkpt lat="46.0280062" lon="12.2977698"><ele>183.5</ele><time>2026-03-29T08:15:23.93Z</time></trkpt><trkpt lat="46.0281949" lon="12.2981952"><ele>179.0</ele><time>2026-03-29T08:15:24.921Z</time></trkpt><trkpt lat="46.0283681" lon="12.298613"><ele>176.5</ele><time>2026-03-29T08:15:25.925Z</time></trkpt><trkpt lat="46.0285407" lon="12.2990191"><ele>174.0</ele><time>2026-03-29T08:15:26.932Z</time></trkpt><trkpt lat="46.0287098" lon="12.2994098"><ele>171.5</ele><time>2026-03-29T08:15:27.932Z</time></trkpt><trkpt lat="46.028883" lon="12.2997781"><ele>169.0</ele><time>2026-03-29T08:15:28.928Z</time></trkpt><trkpt lat="46.0290432" lon="12.300145"><ele>173.0</ele><time>2026-03-29T08:15:29.924Z</time></trkpt><trkpt lat="46.0292099" lon="12.3004996"><ele>177.0</ele><time>2026-03-29T08:15:30.951Z</time></trkpt><trkpt lat="46.0293637" lon="12.3008632"><ele>176.5</ele><time>2026-03-29T08:15:31.932Z</time></trkpt><trkpt lat="46.0295205" lon="12.3012227"><ele>176.0</ele><time>2026-03-29T08:15:32.93Z</time></trkpt><trkpt lat="46.0296773" lon="12.3015787"><ele>176.0</ele><time>2026-03-29T08:15:33.937Z</time></trkpt><trkpt lat="46.0298385" lon="12.3019286"><ele>176.0</ele><time>2026-03-29T08:15:34.93Z</time></trkpt><trkpt lat="46.0299917" lon="12.302286"><ele>180.5</ele><time>2026-03-29T08:15:35.929Z</time></trkpt><trkpt lat="46.0301486" lon="12.3026394"><ele>185.0</ele><time>2026-03-29T08:15:36.931Z</time></trkpt><trkpt lat="46.0303077" lon="12.302986"><ele>191.0</ele><time>2026-03-29T08:15:37.911Z</time></trkpt><trkpt lat="46.0304687" lon="12.3033242"><ele>197.0</ele><time>2026-03-29T08:15:38.944Z</time></trkpt><trkpt lat="46.030634" lon="12.3036568"><ele>203.5</ele><time>2026-03-29T08:15:39.928Z</time></trkpt><trkpt lat="46.0307989" lon="12.3039929"><ele>210.0</ele><time>2026-03-29T08:15:40.919Z</time></trkpt><trkpt lat="46.0309733" lon="12.3043235"><ele>215.5</ele><time>2026-03-29T08:15:41.926Z</time></trkpt><trkpt lat="46.0311551" lon="12.3046544"><ele>221.0</ele><time>2026-03-29T08:15:42.937Z</time></trkpt><trkpt lat="46.031353" lon="12.3049782"><ele>226.0</ele><time>2026-03-29T08:15:43.919Z</time></trkpt><trkpt lat="46.0315681" lon="12.3052942"><ele>231.0</ele><time>2026-03-29T08:15:44.929Z</time></trkpt><trkpt lat="46.0317942" lon="12.3056042"><ele>234.5</ele><time>2026-03-29T08:15:45.925Z</time></trkpt><trkpt lat="46.0320299" lon="12.305899"><ele>238.0</ele><time>2026-03-29T08:15:46.934Z</time></trkpt><trkpt lat="46.0322726" lon="12.3061773"><ele>233.5</ele><time>2026-03-29T08:15:47.925Z</time></trkpt><trkpt lat="46.0325125" lon="12.3064495"><ele>229.0</ele><time>2026-03-29T08:15:48.916Z</time></trkpt><trkpt lat="46.0327577" lon="12.3067035"><ele>229.0</ele><time>2026-03-29T08:15:49.924Z</time></trkpt><trkpt lat="46.0330072" lon="12.306943"><ele>229.0</ele><time>2026-03-29T08:15:50.921Z</time></trkpt><trkpt lat="46.0332631" lon="12.3071625"><ele>233.0</ele><time>2026-03-29T08:15:51.92Z</time></trkpt><trkpt lat="46.0335219" lon="12.307368"><ele>237.0</ele><time>2026-03-29T08:15:52.924Z</time></trkpt><trkpt lat="46.0337836" lon="12.3075578"><ele>237.0</ele><time>2026-03-29T08:15:53.923Z</time></trkpt><trkpt lat="46.0340463" lon="12.3077387"><ele>237.0</ele><time>2026-03-29T08:15:54.922Z</time></trkpt><trkpt lat="46.034309" lon="12.3079161"><ele>248.0</ele><time>2026-03-29T08:15:55.935Z</time></trkpt><trkpt lat="46.0345736" lon="12.3080868"><ele>259.0</ele><time>2026-03-29T08:15:56.921Z</time></trkpt><trkpt lat="46.034841" lon="12.3082488"><ele>246.0</ele><time>2026-03-29T08:15:57.938Z</time></trkpt><trkpt lat="46.0351073" lon="12.3084148"><ele>233.0</ele><time>2026-03-29T08:15:58.917Z</time></trkpt><trkpt lat="46.0353749" lon="12.3085778"><ele>233.0</ele><time>2026-03-29T08:15:59.953Z</time></trkpt><trkpt lat="46.0356409" lon="12.3087461"><ele>233.0</ele><time>2026-03-29T08:16:00.941Z</time></trkpt><trkpt lat="46.035906" lon="12.3089158"><ele>244.5</ele><time>2026-03-29T08:16:01.929Z</time></trkpt><trkpt lat="46.0361711" lon="12.3090847"><ele>256.0</ele><time>2026-03-29T08:16:02.928Z</time></trkpt><trkpt lat="46.036442" lon="12.3092379"><ele>244.0</ele><time>2026-03-29T08:16:03.936Z</time></trkpt><trkpt lat="46.0367036" lon="12.3094159"><ele>232.0</ele><time>2026-03-29T08:16:04.929Z</time></trkpt><trkpt lat="46.0369665" lon="12.3095868"><ele>239.0</ele><time>2026-03-29T08:16:05.922Z</time></trkpt><trkpt lat="46.0372291" lon="12.3097537"><ele>246.0</ele><time>2026-03-29T08:16:06.926Z</time></trkpt><trkpt lat="46.0374924" lon="12.309918"><ele>246.0</ele><time>2026-03-29T08:16:07.926Z</time></trkpt><trkpt lat="46.037756" lon="12.3100828"><ele>246.0</ele><time>2026-03-29T08:16:08.917Z</time></trkpt><trkpt lat="46.0380199" lon="12.3102461"><ele>246.0</ele><time>2026-03-29T08:16:09.937Z</time></trkpt><trkpt lat="46.038284" lon="12.3104103"><ele>246.0</ele><time>2026-03-29T08:16:10.921Z</time></trkpt><trkpt lat="46.0385487" lon="12.3105766"><ele>251.0</ele><time>2026-03-29T08:16:11.931Z</time></trkpt><trkpt lat="46.0388136" lon="12.3107459"><ele>256.0</ele><time>2026-03-29T08:16:12.931Z</time></trkpt><trkpt lat="46.0390788" lon="12.3109177"><ele>252.0</ele><time>2026-03-29T08:16:13.947Z</time></trkpt><trkpt lat="46.0393459" lon="12.3110865"><ele>248.0</ele><time>2026-03-29T08:16:14.909Z</time></trkpt><trkpt lat="46.0396132" lon="12.3112559"><ele>259.0</ele><time>2026-03-29T08:16:15.952Z</time></trkpt><trkpt lat="46.0398803" lon="12.311425"><ele>270.0</ele><time>2026-03-29T08:16:16.924Z</time></trkpt><trkpt lat="46.0401477" lon="12.3115939"><ele>270.5</ele><time>2026-03-29T08:16:17.942Z</time></trkpt><trkpt lat="46.0404109" lon="12.3117787"><ele>271.0</ele><time>2026-03-29T08:16:18.912Z</time></trkpt><trkpt lat="46.0406798" lon="12.3119531"><ele>278.5</ele><time>2026-03-29T08:16:19.927Z</time></trkpt><trkpt lat="46.0409525" lon="12.3121225"><ele>286.0</ele><time>2026-03-29T08:16:20.921Z</time></trkpt><trkpt lat="46.0412271" lon="12.312292"><ele>290.5</ele><time>2026-03-29T08:16:21.922Z</time></trkpt><trkpt lat="46.0415111" lon="12.3124463"><ele>295.0</ele><time>2026-03-29T08:16:22.921Z</time></trkpt><trkpt lat="46.0418003" lon="12.3125922"><ele>300.0</ele><time>2026-03-29T08:16:23.923Z</time></trkpt><trkpt lat="46.0420776" lon="12.3127879"><ele>305.0</ele><time>2026-03-29T08:16:24.931Z</time></trkpt><trkpt lat="46.0433899" lon="12.3135192"><ele>309.5</ele><time>2026-03-29T08:16:29.899Z</time></trkpt><trkpt lat="46.0437307" lon="12.3136745"><ele>314.0</ele><time>2026-03-29T08:16:30.898Z</time></trkpt><trkpt lat="46.0440342" lon="12.313784"><ele>313.5</ele><time>2026-03-29T08:16:31.936Z</time></trkpt><trkpt lat="46.044306" lon="12.3138872"><ele>313.0</ele><time>2026-03-29T08:16:32.931Z</time></trkpt><trkpt lat="46.0446504" lon="12.3140339"><ele>313.0</ele><time>2026-03-29T08:16:33.935Z</time></trkpt><trkpt lat="46.0449513" lon="12.3141667"><ele>313.0</ele><time>2026-03-29T08:16:34.95Z</time></trkpt><trkpt lat="46.0452389" lon="12.3142969"><ele>314.0</ele><time>2026-03-29T08:16:35.928Z</time></trkpt><trkpt lat="46.0455217" lon="12.3144199"><ele>315.0</ele><time>2026-03-29T08:16:36.922Z</time></trkpt><trkpt lat="46.0458041" lon="12.3145412"><ele>315.5</ele><time>2026-03-29T08:16:37.941Z</time></trkpt><trkpt lat="46.0460869" lon="12.3146649"><ele>316.0</ele><time>2026-03-29T08:16:38.93Z</time></trkpt><trkpt lat="46.0463679" lon="12.3147864"><ele>317.0</ele><time>2026-03-29T08:16:39.916Z</time></trkpt><trkpt lat="46.0466457" lon="12.31491"><ele>318.0</ele><time>2026-03-29T08:16:40.928Z</time></trkpt><trkpt lat="46.0469217" lon="12.3150306"><ele>318.0</ele><time>2026-03-29T08:16:41.921Z</time></trkpt><trkpt lat="46.0471951" lon="12.3151506"><ele>318.0</ele><time>2026-03-29T08:16:42.949Z</time></trkpt><trkpt lat="46.0474628" lon="12.3152829"><ele>317.5</ele><time>2026-03-29T08:16:43.938Z</time></trkpt><trkpt lat="46.0477331" lon="12.3154049"><ele>317.0</ele><time>2026-03-29T08:16:44.917Z</time></trkpt><trkpt lat="46.0480031" lon="12.3155249"><ele>316.5</ele><time>2026-03-29T08:16:45.927Z</time></trkpt><trkpt lat="46.0482723" lon="12.3156442"><ele>316.0</ele><time>2026-03-29T08:16:46.929Z</time></trkpt><trkpt lat="46.0485428" lon="12.3157614"><ele>315.0</ele><time>2026-03-29T08:16:47.927Z</time></trkpt><trkpt lat="46.0488154" lon="12.3158814"><ele>314.0</ele><time>2026-03-29T08:16:48.929Z</time></trkpt><trkpt lat="46.0490878" lon="12.3160117"><ele>314.0</ele><time>2026-03-29T08:16:49.933Z</time></trkpt><trkpt lat="46.0493598" lon="12.3161529"><ele>314.0</ele><time>2026-03-29T08:16:50.936Z</time></trkpt><trkpt lat="46.0496368" lon="12.3162906"><ele>312.5</ele><time>2026-03-29T08:16:51.937Z</time></trkpt><trkpt lat="46.0499096" lon="12.316452"><ele>311.0</ele><time>2026-03-29T08:16:52.91Z</time></trkpt><trkpt lat="46.050179" lon="12.3166319"><ele>308.0</ele><time>2026-03-29T08:16:53.932Z</time></trkpt><trkpt lat="46.0504452" lon="12.316826"><ele>305.0</ele><time>2026-03-29T08:16:54.923Z</time></trkpt><trkpt lat="46.0507072" lon="12.3170328"><ele>306.0</ele><time>2026-03-29T08:16:55.914Z</time></trkpt><trkpt lat="46.0509635" lon="12.3172534"><ele>307.0</ele><time>2026-03-29T08:16:56.925Z</time></trkpt><trkpt lat="46.0512136" lon="12.317488"><ele>307.0</ele><time>2026-03-29T08:16:57.918Z</time></trkpt><trkpt lat="46.0514598" lon="12.3177317"><ele>307.0</ele><time>2026-03-29T08:16:58.916Z</time></trkpt><trkpt lat="46.0517023" lon="12.317984"><ele>315.0</ele><time>2026-03-29T08:16:59.924Z</time></trkpt><trkpt lat="46.0519417" lon="12.3182459"><ele>323.0</ele><time>2026-03-29T08:17:00.927Z</time></trkpt><trkpt lat="46.0521772" lon="12.3185163"><ele>323.0</ele><time>2026-03-29T08:17:01.92Z</time></trkpt><trkpt lat="46.0524087" lon="12.3187922"><ele>323.0</ele><time>2026-03-29T08:17:02.931Z</time></trkpt><trkpt lat="46.0526406" lon="12.3190641"><ele>326.5</ele><time>2026-03-29T08:17:03.922Z</time></trkpt><trkpt lat="46.0528715" lon="12.3193346"><ele>330.0</ele><time>2026-03-29T08:17:04.924Z</time></trkpt><trkpt lat="46.053102" lon="12.3196025"><ele>327.5</ele><time>2026-03-29T08:17:05.917Z</time></trkpt><trkpt lat="46.0533333" lon="12.319868"><ele>325.0</ele><time>2026-03-29T08:17:06.931Z</time></trkpt><trkpt lat="46.0535614" lon="12.3201392"><ele>325.0</ele><time>2026-03-29T08:17:07.94Z</time></trkpt><trkpt lat="46.0537942" lon="12.3204037"><ele>325.0</ele><time>2026-03-29T08:17:08.924Z</time></trkpt><trkpt lat="46.0540223" lon="12.320675"><ele>325.0</ele><time>2026-03-29T08:17:09.922Z</time></trkpt><trkpt lat="46.0542335" lon="12.3209703"><ele>325.0</ele><time>2026-03-29T08:17:10.929Z</time></trkpt><trkpt lat="46.0544546" lon="12.3212452"><ele>331.0</ele><time>2026-03-29T08:17:11.922Z</time></trkpt><trkpt lat="46.0546769" lon="12.3215157"><ele>337.0</ele><time>2026-03-29T08:17:12.923Z</time></trkpt><trkpt lat="46.0549002" lon="12.3217831"><ele>340.0</ele><time>2026-03-29T08:17:13.934Z</time></trkpt><trkpt lat="46.055123" lon="12.3220491"><ele>343.0</ele><time>2026-03-29T08:17:14.928Z</time></trkpt><trkpt lat="46.0553446" lon="12.3223146"><ele>343.0</ele><time>2026-03-29T08:17:15.915Z</time></trkpt><trkpt lat="46.0555656" lon="12.3225799"><ele>343.0</ele><time>2026-03-29T08:17:16.915Z</time></trkpt><trkpt lat="46.0557876" lon="12.3228419"><ele>348.5</ele><time>2026-03-29T08:17:17.924Z</time></trkpt><trkpt lat="46.0560102" lon="12.3231007"><ele>354.0</ele><time>2026-03-29T08:17:18.918Z</time></trkpt><trkpt lat="46.0562344" lon="12.3233564"><ele>354.0</ele><time>2026-03-29T08:17:19.932Z</time></trkpt><trkpt lat="46.056457" lon="12.3236169"><ele>354.0</ele><time>2026-03-29T08:17:20.93Z</time></trkpt><trkpt lat="46.056679" lon="12.3238814"><ele>351.0</ele><time>2026-03-29T08:17:21.934Z</time></trkpt><trkpt lat="46.0569019" lon="12.3241494"><ele>348.0</ele><time>2026-03-29T08:17:22.946Z</time></trkpt><trkpt lat="46.0571327" lon="12.3244124"><ele>348.0</ele><time>2026-03-29T08:17:23.934Z</time></trkpt><trkpt lat="46.0573631" lon="12.3246833"><ele>348.0</ele><time>2026-03-29T08:17:24.927Z</time></trkpt><trkpt lat="46.0575946" lon="12.3249584"><ele>346.5</ele><time>2026-03-29T08:17:25.931Z</time></trkpt><trkpt lat="46.0578352" lon="12.3252237"><ele>345.0</ele><time>2026-03-29T08:17:26.934Z</time></trkpt><trkpt lat="46.0580645" lon="12.325513"><ele>346.0</ele><time>2026-03-29T08:17:27.929Z</time></trkpt><trkpt lat="46.0583004" lon="12.3257935"><ele>347.0</ele><time>2026-03-29T08:17:28.928Z</time></trkpt><trkpt lat="46.0585381" lon="12.3260726"><ele>347.0</ele><time>2026-03-29T08:17:29.932Z</time></trkpt><trkpt lat="46.0587759" lon="12.3263489"><ele>347.0</ele><time>2026-03-29T08:17:30.917Z</time></trkpt><trkpt lat="46.0590129" lon="12.3266239"><ele>351.0</ele><time>2026-03-29T08:17:31.938Z</time></trkpt><trkpt lat="46.059249" lon="12.3269001"><ele>355.0</ele><time>2026-03-29T08:17:32.924Z</time></trkpt><trkpt lat="46.059485" lon="12.3271819"><ele>352.0</ele><time>2026-03-29T08:17:33.928Z</time></trkpt><trkpt lat="46.0597191" lon="12.3274724"><ele>349.0</ele><time>2026-03-29T08:17:34.933Z</time></trkpt><trkpt lat="46.0599507" lon="12.3277725"><ele>363.5</ele><time>2026-03-29T08:17:35.929Z</time></trkpt><trkpt lat="46.0601791" lon="12.3280824"><ele>378.0</ele><time>2026-03-29T08:17:36.916Z</time></trkpt><trkpt lat="46.0604001" lon="12.3284072"><ele>378.0</ele><time>2026-03-29T08:17:37.932Z</time></trkpt><trkpt lat="46.060627" lon="12.3287246"><ele>378.0</ele><time>2026-03-29T08:17:38.93Z</time></trkpt><trkpt lat="46.0608557" lon="12.3290379"><ele>378.0</ele><time>2026-03-29T08:17:39.927Z</time></trkpt><trkpt lat="46.0610846" lon="12.3293479"><ele>378.0</ele><time>2026-03-29T08:17:40.934Z</time></trkpt><trkpt lat="46.0613077" lon="12.3296577"><ele>375.0</ele><time>2026-03-29T08:17:41.932Z</time></trkpt><trkpt lat="46.0615321" lon="12.3299607"><ele>372.0</ele><time>2026-03-29T08:17:42.92Z</time></trkpt><trkpt lat="46.0617555" lon="12.3302631"><ele>386.0</ele><time>2026-03-29T08:17:43.94Z</time></trkpt><trkpt lat="46.0619789" lon="12.3305649"><ele>400.0</ele><time>2026-03-29T08:17:44.936Z</time></trkpt><trkpt lat="46.0622002" lon="12.3308688"><ele>400.0</ele><time>2026-03-29T08:17:45.95Z</time></trkpt><trkpt lat="46.0624218" lon="12.3311721"><ele>400.0</ele><time>2026-03-29T08:17:46.92Z</time></trkpt><trkpt lat="46.0626439" lon="12.3314729"><ele>400.0</ele><time>2026-03-29T08:17:47.936Z</time></trkpt><trkpt lat="46.0628647" lon="12.3317743"><ele>400.0</ele><time>2026-03-29T08:17:48.939Z</time></trkpt><trkpt lat="46.063084" lon="12.3320747"><ele>396.5</ele><time>2026-03-29T08:17:49.93Z</time></trkpt><trkpt lat="46.0633022" lon="12.3323715"><ele>393.0</ele><time>2026-03-29T08:17:50.938Z</time></trkpt><trkpt lat="46.0635182" lon="12.3326675"><ele>393.0</ele><time>2026-03-29T08:17:51.93Z</time></trkpt><trkpt lat="46.063733" lon="12.3329629"><ele>393.0</ele><time>2026-03-29T08:17:52.943Z</time></trkpt><trkpt lat="46.0639474" lon="12.3332582"><ele>385.5</ele><time>2026-03-29T08:17:53.927Z</time></trkpt><trkpt lat="46.0641612" lon="12.3335535"><ele>378.0</ele><time>2026-03-29T08:17:54.928Z</time></trkpt><trkpt lat="46.0643754" lon="12.3338465"><ele>390.5</ele><time>2026-03-29T08:17:55.922Z</time></trkpt><trkpt lat="46.0645928" lon="12.3341365"><ele>403.0</ele><time>2026-03-29T08:17:56.928Z</time></trkpt><trkpt lat="46.0648145" lon="12.3344245"><ele>399.5</ele><time>2026-03-29T08:17:57.927Z</time></trkpt><trkpt lat="46.0650413" lon="12.3347094"><ele>396.0</ele><time>2026-03-29T08:17:58.938Z</time></trkpt><trkpt lat="46.0652735" lon="12.3349888"><ele>396.0</ele><time>2026-03-29T08:17:59.947Z</time></trkpt><trkpt lat="46.0655078" lon="12.3352613"><ele>396.0</ele><time>2026-03-29T08:18:00.924Z</time></trkpt><trkpt lat="46.0657439" lon="12.3355227"><ele>390.0</ele><time>2026-03-29T08:18:01.938Z</time></trkpt><trkpt lat="46.0659834" lon="12.335772"><ele>384.0</ele><time>2026-03-29T08:18:02.922Z</time></trkpt><trkpt lat="46.0662284" lon="12.3360087"><ele>384.0</ele><time>2026-03-29T08:18:03.926Z</time></trkpt><trkpt lat="46.0664786" lon="12.336235"><ele>384.0</ele><time>2026-03-29T08:18:04.929Z</time></trkpt><trkpt lat="46.0667351" lon="12.3364519"><ele>390.5</ele><time>2026-03-29T08:18:05.924Z</time></trkpt><trkpt lat="46.0669968" lon="12.3366607"><ele>397.0</ele><time>2026-03-29T08:18:06.927Z</time></trkpt><trkpt lat="46.0672631" lon="12.33686"><ele>403.5</ele><time>2026-03-29T08:18:07.932Z</time></trkpt><trkpt lat="46.0675329" lon="12.3370513"><ele>410.0</ele><time>2026-03-29T08:18:08.927Z</time></trkpt><trkpt lat="46.0678061" lon="12.3372326"><ele>410.0</ele><time>2026-03-29T08:18:09.925Z</time></trkpt><trkpt lat="46.0680842" lon="12.3373991"><ele>410.0</ele><time>2026-03-29T08:18:10.927Z</time></trkpt><trkpt lat="46.068365" lon="12.3375545"><ele>401.0</ele><time>2026-03-29T08:18:11.926Z</time></trkpt><trkpt lat="46.0686445" lon="12.3377082"><ele>392.0</ele><time>2026-03-29T08:18:12.931Z</time></trkpt><trkpt lat="46.0689221" lon="12.3378589"><ele>391.0</ele><time>2026-03-29T08:18:13.921Z</time></trkpt><trkpt lat="46.0691984" lon="12.3380082"><ele>390.0</ele><time>2026-03-29T08:18:14.929Z</time></trkpt><trkpt lat="46.0694733" lon="12.3381563"><ele>390.0</ele><time>2026-03-29T08:18:15.924Z</time></trkpt><trkpt lat="46.0697468" lon="12.338306"><ele>390.0</ele><time>2026-03-29T08:18:16.925Z</time></trkpt><trkpt lat="46.070019" lon="12.3384599"><ele>375.0</ele><time>2026-03-29T08:18:17.926Z</time></trkpt><trkpt lat="46.070292" lon="12.3386149"><ele>360.0</ele><time>2026-03-29T08:18:18.91Z</time></trkpt><trkpt lat="46.0705677" lon="12.3387696"><ele>365.0</ele><time>2026-03-29T08:18:19.931Z</time></trkpt><trkpt lat="46.0708465" lon="12.3389214"><ele>370.0</ele><time>2026-03-29T08:18:20.941Z</time></trkpt><trkpt lat="46.0711279" lon="12.3390692"><ele>370.0</ele><time>2026-03-29T08:18:21.925Z</time></trkpt><trkpt lat="46.0714126" lon="12.3392071"><ele>370.0</ele><time>2026-03-29T08:18:22.923Z</time></trkpt><trkpt lat="46.0717001" lon="12.3393349"><ele>377.5</ele><time>2026-03-29T08:18:23.92Z</time></trkpt><trkpt lat="46.0719901" lon="12.3394473"><ele>385.0</ele><time>2026-03-29T08:18:24.928Z</time></trkpt><trkpt lat="46.0722816" lon="12.3395399"><ele>384.5</ele><time>2026-03-29T08:18:25.915Z</time></trkpt><trkpt lat="46.0725751" lon="12.3396102"><ele>384.0</ele><time>2026-03-29T08:18:26.928Z</time></trkpt><trkpt lat="46.0728698" lon="12.3396661"><ele>384.0</ele><time>2026-03-29T08:18:27.949Z</time></trkpt><trkpt lat="46.0731668" lon="12.3397059"><ele>384.0</ele><time>2026-03-29T08:18:28.927Z</time></trkpt><trkpt lat="46.0734672" lon="12.3397265"><ele>393.0</ele><time>2026-03-29T08:18:29.94Z</time></trkpt><trkpt lat="46.0737673" lon="12.3397255"><ele>402.0</ele><time>2026-03-29T08:18:30.922Z</time></trkpt><trkpt lat="46.0740663" lon="12.3397009"><ele>412.0</ele><time>2026-03-29T08:18:31.926Z</time></trkpt><trkpt lat="46.0743645" lon="12.3396546"><ele>422.0</ele><time>2026-03-29T08:18:32.927Z</time></trkpt><trkpt lat="46.0746591" lon="12.3395936"><ele>429.5</ele><time>2026-03-29T08:18:33.949Z</time></trkpt><trkpt lat="46.0749571" lon="12.3394949"><ele>437.0</ele><time>2026-03-29T08:18:34.924Z</time></trkpt><trkpt lat="46.0752541" lon="12.3393973"><ele>437.0</ele><time>2026-03-29T08:18:35.929Z</time></trkpt><trkpt lat="46.0755472" lon="12.3393075"><ele>437.0</ele><time>2026-03-29T08:18:36.926Z</time></trkpt><trkpt lat="46.0758329" lon="12.3391606"><ele>436.5</ele><time>2026-03-29T08:18:37.917Z</time></trkpt><trkpt lat="46.0761168" lon="12.3390168"><ele>436.0</ele><time>2026-03-29T08:18:38.914Z</time></trkpt><trkpt lat="46.0763988" lon="12.3388899"><ele>435.0</ele><time>2026-03-29T08:18:39.943Z</time></trkpt><trkpt lat="46.0766727" lon="12.3387424"><ele>434.0</ele><time>2026-03-29T08:18:40.927Z</time></trkpt><trkpt lat="46.0769445" lon="12.3385911"><ele>434.0</ele><time>2026-03-29T08:18:41.939Z</time></trkpt><trkpt lat="46.0772116" lon="12.3384262"><ele>434.0</ele><time>2026-03-29T08:18:42.914Z</time></trkpt><trkpt lat="46.0763435" lon="12.3390118"><ele>479.0</ele><time>2026-03-29T08:18:50.99Z</time></trkpt><trkpt lat="46.0864521" lon="12.3331927"><ele>482.0</ele><time>2026-03-29T08:19:16.877Z</time></trkpt><trkpt lat="46.0867194" lon="12.3330794"><ele>485.0</ele><time>2026-03-29T08:19:17.906Z</time></trkpt><trkpt lat="46.0869999" lon="12.3329"><ele>485.0</ele><time>2026-03-29T08:19:18.924Z</time></trkpt><trkpt lat="46.0872743" lon="12.3327304"><ele>485.0</ele><time>2026-03-29T08:19:19.92Z</time></trkpt><trkpt lat="46.0875392" lon="12.3325329"><ele>489.0</ele><time>2026-03-29T08:19:20.927Z</time></trkpt><trkpt lat="46.0907403" lon="12.3296205"><ele>485.0</ele><time>2026-03-29T08:19:33.87Z</time></trkpt><trkpt lat="46.0909231" lon="12.329065"><ele>481.0</ele><time>2026-03-29T08:19:34.922Z</time></trkpt><trkpt lat="46.0911632" lon="12.328699"><ele>481.0</ele><time>2026-03-29T08:19:35.902Z</time></trkpt><trkpt lat="46.0914207" lon="12.3283757"><ele>481.0</ele><time>2026-03-29T08:19:36.903Z</time></trkpt><trkpt lat="46.0916927" lon="12.3280051"><ele>477.0</ele><time>2026-03-29T08:19:37.908Z</time></trkpt><trkpt lat="46.0919085" lon="12.3276658"><ele>473.0</ele><time>2026-03-29T08:19:38.909Z</time></trkpt><trkpt lat="46.0921099" lon="12.3273335"><ele>470.0</ele><time>2026-03-29T08:19:39.901Z</time></trkpt><trkpt lat="46.092307" lon="12.3269989"><ele>467.0</ele><time>2026-03-29T08:19:40.928Z</time></trkpt><trkpt lat="46.0925007" lon="12.326671"><ele>473.0</ele><time>2026-03-29T08:19:41.92Z</time></trkpt><trkpt lat="46.0927075" lon="12.3263619"><ele>479.0</ele><time>2026-03-29T08:19:42.922Z</time></trkpt><trkpt lat="46.0929094" lon="12.3260581"><ele>479.0</ele><time>2026-03-29T08:19:43.923Z</time></trkpt><trkpt lat="46.0931029" lon="12.3257472"><ele>479.0</ele><time>2026-03-29T08:19:44.926Z</time></trkpt><trkpt lat="46.0933089" lon="12.3254473"><ele>475.0</ele><time>2026-03-29T08:19:45.91Z</time></trkpt><trkpt lat="46.0935384" lon="12.3251824"><ele>471.0</ele><time>2026-03-29T08:19:46.906Z</time></trkpt><trkpt lat="46.0937819" lon="12.3249373"><ele>472.5</ele><time>2026-03-29T08:19:47.915Z</time></trkpt><trkpt lat="46.0940373" lon="12.3247284"><ele>474.0</ele><time>2026-03-29T08:19:48.9Z</time></trkpt><trkpt lat="46.0943048" lon="12.3245459"><ele>474.0</ele><time>2026-03-29T08:19:49.908Z</time></trkpt><trkpt lat="46.0945839" lon="12.3243923"><ele>474.0</ele><time>2026-03-29T08:19:50.903Z</time></trkpt><trkpt lat="46.0948738" lon="12.3242695"><ele>467.5</ele><time>2026-03-29T08:19:51.907Z</time></trkpt><trkpt lat="46.095171" lon="12.3241814"><ele>461.0</ele><time>2026-03-29T08:19:52.911Z</time></trkpt><trkpt lat="46.0954733" lon="12.3241273"><ele>463.0</ele><time>2026-03-29T08:19:53.918Z</time></trkpt><trkpt lat="46.0957807" lon="12.3241115"><ele>465.0</ele><time>2026-03-29T08:19:54.908Z</time></trkpt><trkpt lat="46.0960933" lon="12.3241201"><ele>465.0</ele><time>2026-03-29T08:19:55.919Z</time></trkpt><trkpt lat="46.0964003" lon="12.3241757"><ele>465.0</ele><time>2026-03-29T08:19:56.91Z</time></trkpt><trkpt lat="46.0967052" lon="12.3242183"><ele>464.0</ele><time>2026-03-29T08:19:57.91Z</time></trkpt><trkpt lat="46.0970057" lon="12.3242665"><ele>463.0</ele><time>2026-03-29T08:19:58.903Z</time></trkpt><trkpt lat="46.0973036" lon="12.3243102"><ele>467.5</ele><time>2026-03-29T08:19:59.905Z</time></trkpt><trkpt lat="46.0975997" lon="12.3243582"><ele>472.0</ele><time>2026-03-29T08:20:00.918Z</time></trkpt><trkpt lat="46.0978952" lon="12.3244134"><ele>472.0</ele><time>2026-03-29T08:20:01.906Z</time></trkpt><trkpt lat="46.0981885" lon="12.3244795"><ele>472.0</ele><time>2026-03-29T08:20:02.917Z</time></trkpt><trkpt lat="46.0984811" lon="12.324524"><ele>474.5</ele><time>2026-03-29T08:20:03.933Z</time></trkpt><trkpt lat="46.0987702" lon="12.3245798"><ele>477.0</ele><time>2026-03-29T08:20:04.916Z</time></trkpt><trkpt lat="46.0990549" lon="12.3246245"><ele>474.5</ele><time>2026-03-29T08:20:05.91Z</time></trkpt><trkpt lat="46.0993371" lon="12.324674"><ele>472.0</ele><time>2026-03-29T08:20:06.919Z</time></trkpt><trkpt lat="46.0996213" lon="12.3247252"><ele>456.0</ele><time>2026-03-29T08:20:07.9Z</time></trkpt><trkpt lat="46.0999065" lon="12.3247618"><ele>440.0</ele><time>2026-03-29T08:20:08.904Z</time></trkpt><trkpt lat="46.1001936" lon="12.3247951"><ele>440.0</ele><time>2026-03-29T08:20:09.908Z</time></trkpt><trkpt lat="46.1004826" lon="12.3248212"><ele>440.0</ele><time>2026-03-29T08:20:10.906Z</time></trkpt><trkpt lat="46.1007712" lon="12.3248263"><ele>430.0</ele><time>2026-03-29T08:20:11.901Z</time></trkpt><trkpt lat="46.1290538" lon="12.3165741"><ele>423.5</ele><time>2026-03-29T08:21:48.862Z</time></trkpt><trkpt lat="46.1293029" lon="12.3165161"><ele>417.0</ele><time>2026-03-29T08:21:49.914Z</time></trkpt><trkpt lat="46.1295965" lon="12.3164866"><ele>413.5</ele><time>2026-03-29T08:21:50.921Z</time></trkpt><trkpt lat="46.1298994" lon="12.3164495"><ele>410.0</ele><time>2026-03-29T08:21:51.93Z</time></trkpt><trkpt lat="46.1302094" lon="12.3164151"><ele>422.0</ele><time>2026-03-29T08:21:52.922Z</time></trkpt><trkpt lat="46.1305179" lon="12.3163798"><ele>434.0</ele><time>2026-03-29T08:21:53.915Z</time></trkpt><trkpt lat="46.1308133" lon="12.3163377"><ele>435.0</ele><time>2026-03-29T08:21:54.916Z</time></trkpt><trkpt lat="46.1311059" lon="12.3163007"><ele>436.0</ele><time>2026-03-29T08:21:55.923Z</time></trkpt><trkpt lat="46.1313936" lon="12.3162593"><ele>432.5</ele><time>2026-03-29T08:21:56.924Z</time></trkpt><trkpt lat="46.1316804" lon="12.3162204"><ele>429.0</ele><time>2026-03-29T08:21:57.924Z</time></trkpt><trkpt lat="46.1319656" lon="12.3161825"><ele>429.0</ele><time>2026-03-29T08:21:58.915Z</time></trkpt><trkpt lat="46.1322527" lon="12.3161449"><ele>429.0</ele><time>2026-03-29T08:21:59.932Z</time></trkpt><trkpt lat="46.1325429" lon="12.3161082"><ele>425.0</ele><time>2026-03-29T08:22:00.924Z</time></trkpt><trkpt lat="46.1328362" lon="12.3160723"><ele>421.0</ele><time>2026-03-29T08:22:01.939Z</time></trkpt><trkpt lat="46.1331363" lon="12.3160307"><ele>417.5</ele><time>2026-03-29T08:22:02.934Z</time></trkpt><trkpt lat="46.1334461" lon="12.3159873"><ele>414.0</ele><time>2026-03-29T08:22:03.93Z</time></trkpt><trkpt lat="46.1337676" lon="12.3159424"><ele>411.0</ele><time>2026-03-29T08:22:04.935Z</time></trkpt><trkpt lat="46.1340966" lon="12.3158998"><ele>408.0</ele><time>2026-03-29T08:22:05.929Z</time></trkpt><trkpt lat="46.1344149" lon="12.3158579"><ele>408.0</ele><time>2026-03-29T08:22:06.921Z</time></trkpt><trkpt lat="46.1347313" lon="12.315821"><ele>408.0</ele><time>2026-03-29T08:22:07.937Z</time></trkpt><trkpt lat="46.1350418" lon="12.3157835"><ele>402.0</ele><time>2026-03-29T08:22:08.923Z</time></trkpt><trkpt lat="46.1353467" lon="12.3157454"><ele>396.0</ele><time>2026-03-29T08:22:09.925Z</time></trkpt><trkpt lat="46.1356451" lon="12.3157067"><ele>397.0</ele><time>2026-03-29T08:22:10.93Z</time></trkpt><trkpt lat="46.1359381" lon="12.3156634"><ele>398.0</ele><time>2026-03-29T08:22:11.934Z</time></trkpt><trkpt lat="46.13623" lon="12.3156258"><ele>398.0</ele><time>2026-03-29T08:22:12.931Z</time></trkpt><trkpt lat="46.1365205" lon="12.3155875"><ele>398.0</ele><time>2026-03-29T08:22:13.941Z</time></trkpt><trkpt lat="46.1368133" lon="12.3155455"><ele>407.5</ele><time>2026-03-29T08:22:14.922Z</time></trkpt><trkpt lat="46.1371111" lon="12.3154932"><ele>417.0</ele><time>2026-03-29T08:22:15.935Z</time></trkpt><trkpt lat="46.1374121" lon="12.3154371"><ele>417.0</ele><time>2026-03-29T08:22:16.928Z</time></trkpt><trkpt lat="46.137715" lon="12.3153759"><ele>417.0</ele><time>2026-03-29T08:22:17.932Z</time></trkpt><trkpt lat="46.1380169" lon="12.3153026"><ele>413.5</ele><time>2026-03-29T08:22:18.925Z</time></trkpt><trkpt lat="46.1383193" lon="12.3152245"><ele>410.0</ele><time>2026-03-29T08:22:19.937Z</time></trkpt><trkpt lat="46.1386211" lon="12.3151407"><ele>410.0</ele><time>2026-03-29T08:22:20.936Z</time></trkpt><trkpt lat="46.1389186" lon="12.3150559"><ele>410.0</ele><time>2026-03-29T08:22:21.924Z</time></trkpt><trkpt lat="46.1392094" lon="12.3149682"><ele>407.5</ele><time>2026-03-29T08:22:22.927Z</time></trkpt><trkpt lat="46.1394967" lon="12.314881"><ele>405.0</ele><time>2026-03-29T08:22:23.928Z</time></trkpt><trkpt lat="46.1397845" lon="12.3148007"><ele>411.5</ele><time>2026-03-29T08:22:24.942Z</time></trkpt><trkpt lat="46.1400742" lon="12.3147279"><ele>418.0</ele><time>2026-03-29T08:22:25.934Z</time></trkpt><trkpt lat="46.140369" lon="12.3146753"><ele>418.0</ele><time>2026-03-29T08:22:26.915Z</time></trkpt><trkpt lat="46.1406652" lon="12.3146481"><ele>418.0</ele><time>2026-03-29T08:22:27.965Z</time></trkpt><trkpt lat="46.1409589" lon="12.3146509"><ele>417.5</ele><time>2026-03-29T08:22:28.948Z</time></trkpt><trkpt lat="46.1412513" lon="12.3146873"><ele>417.0</ele><time>2026-03-29T08:22:29.94Z</time></trkpt><trkpt lat="46.1415427" lon="12.3147515"><ele>413.0</ele><time>2026-03-29T08:22:30.919Z</time></trkpt><trkpt lat="46.1418321" lon="12.3148593"><ele>409.0</ele><time>2026-03-29T08:22:31.933Z</time></trkpt><trkpt lat="46.1421171" lon="12.3150048"><ele>409.5</ele><time>2026-03-29T08:22:32.929Z</time></trkpt><trkpt lat="46.1423952" lon="12.3151801"><ele>410.0</ele><time>2026-03-29T08:22:33.933Z</time></trkpt><trkpt lat="46.1426661" lon="12.3153798"><ele>406.0</ele><time>2026-03-29T08:22:34.934Z</time></trkpt><trkpt lat="46.1429266" lon="12.3156054"><ele>402.0</ele><time>2026-03-29T08:22:35.927Z</time></trkpt><trkpt lat="46.1431819" lon="12.3158312"><ele>406.0</ele><time>2026-03-29T08:22:36.925Z</time></trkpt><trkpt lat="46.1434372" lon="12.3160508"><ele>410.0</ele><time>2026-03-29T08:22:37.922Z</time></trkpt><trkpt lat="46.1436916" lon="12.3162684"><ele>410.0</ele><time>2026-03-29T08:22:38.931Z</time></trkpt><trkpt lat="46.1439456" lon="12.3164843"><ele>410.0</ele><time>2026-03-29T08:22:39.928Z</time></trkpt><trkpt lat="46.1442054" lon="12.3166853"><ele>410.0</ele><time>2026-03-29T08:22:40.927Z</time></trkpt><trkpt lat="46.1444622" lon="12.3168926"><ele>410.0</ele><time>2026-03-29T08:22:41.928Z</time></trkpt><trkpt lat="46.1447176" lon="12.3171008"><ele>408.5</ele><time>2026-03-29T08:22:42.926Z</time></trkpt><trkpt lat="46.1449827" lon="12.3172906"><ele>407.0</ele><time>2026-03-29T08:22:43.928Z</time></trkpt><trkpt lat="46.1452628" lon="12.3174373"><ele>407.0</ele><time>2026-03-29T08:22:44.93Z</time></trkpt><trkpt lat="46.1455422" lon="12.3175739"><ele>407.0</ele><time>2026-03-29T08:22:45.932Z</time></trkpt><trkpt lat="46.1458137" lon="12.3177176"><ele>408.5</ele><time>2026-03-29T08:22:46.927Z</time></trkpt><trkpt lat="46.1461027" lon="12.3177999"><ele>410.0</ele><time>2026-03-29T08:22:47.925Z</time></trkpt><trkpt lat="46.1463902" lon="12.3178615"><ele>411.5</ele><time>2026-03-29T08:22:48.922Z</time></trkpt><trkpt lat="46.1466718" lon="12.3179037"><ele>413.0</ele><time>2026-03-29T08:22:49.929Z</time></trkpt><trkpt lat="46.1469403" lon="12.317932"><ele>413.0</ele><time>2026-03-29T08:22:50.929Z</time></trkpt><trkpt lat="46.1471936" lon="12.3179331"><ele>413.0</ele><time>2026-03-29T08:22:51.93Z</time></trkpt><trkpt lat="46.1474332" lon="12.3179251"><ele>413.66666666666663</ele><time>2026-03-29T08:22:52.918Z</time></trkpt><trkpt lat="46.1476618" lon="12.3179063"><ele>414.33333333333337</ele><time>2026-03-29T08:22:53.935Z</time></trkpt><trkpt lat="46.1478744" lon="12.3178844"><ele>415.0</ele><time>2026-03-29T08:22:54.938Z</time></trkpt><trkpt lat="46.1480652" lon="12.317848"><ele>414.0</ele><time>2026-03-29T08:22:55.939Z</time></trkpt><trkpt lat="46.1482426" lon="12.3178034"><ele>413.0</ele><time>2026-03-29T08:22:56.941Z</time></trkpt><trkpt lat="46.1484092" lon="12.3177527"><ele>412.0</ele><time>2026-03-29T08:22:57.942Z</time></trkpt><trkpt lat="46.1485671" lon="12.3177007"><ele>412.0</ele><time>2026-03-29T08:22:58.922Z</time></trkpt><trkpt lat="46.148716" lon="12.3176527"><ele>412.0</ele><time>2026-03-29T08:22:59.935Z</time></trkpt><trkpt lat="46.1488543" lon="12.3176121"><ele>412.0</ele><time>2026-03-29T08:23:00.928Z</time></trkpt><trkpt lat="46.1489862" lon="12.3175726"><ele>412.0</ele><time>2026-03-29T08:23:01.932Z</time></trkpt><trkpt lat="46.1491147" lon="12.3175372"><ele>411.40000000000003</ele><time>2026-03-29T08:23:02.926Z</time></trkpt><trkpt lat="46.1492354" lon="12.3175082"><ele>410.8</ele><time>2026-03-29T08:23:03.918Z</time></trkpt><trkpt lat="46.1493459" lon="12.3174896"><ele>410.2</ele><time>2026-03-29T08:23:04.918Z</time></trkpt><trkpt lat="46.1494429" lon="12.3174738"><ele>409.6</ele><time>2026-03-29T08:23:05.925Z</time></trkpt><trkpt lat="46.1495235" lon="12.317459"><ele>409.0</ele><time>2026-03-29T08:23:06.915Z</time></trkpt><trkpt lat="46.1495967" lon="12.3174477"><ele>409.0</ele><time>2026-03-29T08:23:07.947Z</time></trkpt><trkpt lat="46.1496718" lon="12.3174276"><ele>409.0</ele><time>2026-03-29T08:23:08.929Z</time></trkpt><trkpt lat="46.1497474" lon="12.3174216"><ele>409.0</ele><time>2026-03-29T08:23:09.923Z</time></trkpt><trkpt lat="46.1498251" lon="12.317391"><ele>409.0</ele><time>2026-03-29T08:23:10.921Z</time></trkpt><trkpt lat="46.1499234" lon="12.3173934"><ele>409.0</ele><time>2026-03-29T08:23:11.935Z</time></trkpt><trkpt lat="46.1500521" lon="12.3173784"><ele>409.33333333333337</ele><time>2026-03-29T08:23:12.939Z</time></trkpt><trkpt lat="46.1501997" lon="12.3173845"><ele>409.66666666666663</ele><time>2026-03-29T08:23:13.94Z</time></trkpt><trkpt lat="46.1503516" lon="12.317413"><ele>410.0</ele><time>2026-03-29T08:23:14.937Z</time></trkpt><trkpt lat="46.1505107" lon="12.3174355"><ele>410.0</ele><time>2026-03-29T08:23:15.928Z</time></trkpt><trkpt lat="46.1506897" lon="12.3174723"><ele>410.0</ele><time>2026-03-29T08:23:16.932Z</time></trkpt><trkpt lat="46.1508885" lon="12.317519"><ele>410.0</ele><time>2026-03-29T08:23:17.926Z</time></trkpt><trkpt lat="46.1511038" lon="12.3175732"><ele>409.5</ele><time>2026-03-29T08:23:18.919Z</time></trkpt><trkpt lat="46.1513397" lon="12.317624"><ele>409.0</ele><time>2026-03-29T08:23:19.939Z</time></trkpt><trkpt lat="46.1515901" lon="12.31769"><ele>412.5</ele><time>2026-03-29T08:23:20.931Z</time></trkpt><trkpt lat="46.1518432" lon="12.3177744"><ele>416.0</ele><time>2026-03-29T08:23:21.938Z</time></trkpt><trkpt lat="46.1520889" lon="12.3178577"><ele>416.0</ele><time>2026-03-29T08:23:22.939Z</time></trkpt><trkpt lat="46.152331" lon="12.3179339"><ele>416.0</ele><time>2026-03-29T08:23:23.936Z</time></trkpt><trkpt lat="46.1525721" lon="12.3180096"><ele>413.5</ele><time>2026-03-29T08:23:24.933Z</time></trkpt><trkpt lat="46.1528137" lon="12.3180893"><ele>411.0</ele><time>2026-03-29T08:23:25.929Z</time></trkpt><trkpt lat="46.1530522" lon="12.3181607"><ele>407.5</ele><time>2026-03-29T08:23:26.941Z</time></trkpt><trkpt lat="46.1532889" lon="12.3182244"><ele>404.0</ele><time>2026-03-29T08:23:27.932Z</time></trkpt><trkpt lat="46.1535312" lon="12.3182472"><ele>404.0</ele><time>2026-03-29T08:23:28.938Z</time></trkpt><trkpt lat="46.153777" lon="12.3182586"><ele>404.0</ele><time>2026-03-29T08:23:29.925Z</time></trkpt><trkpt lat="46.1540239" lon="12.3182546"><ele>404.0</ele><time>2026-03-29T08:23:30.927Z</time></trkpt><trkpt lat="46.1542709" lon="12.3182211"><ele>404.0</ele><time>2026-03-29T08:23:31.935Z</time></trkpt><trkpt lat="46.1545161" lon="12.3181631"><ele>404.0</ele><time>2026-03-29T08:23:32.92Z</time></trkpt><trkpt lat="46.1547586" lon="12.3180771"><ele>404.0</ele><time>2026-03-29T08:23:33.922Z</time></trkpt><trkpt lat="46.1550033" lon="12.3179814"><ele>408.5</ele><time>2026-03-29T08:23:34.941Z</time></trkpt><trkpt lat="46.1552397" lon="12.317842"><ele>413.0</ele><time>2026-03-29T08:23:35.939Z</time></trkpt><trkpt lat="46.1554728" lon="12.3176896"><ele>413.0</ele><time>2026-03-29T08:23:36.925Z</time></trkpt><trkpt lat="46.1557011" lon="12.3175316"><ele>413.0</ele><time>2026-03-29T08:23:37.942Z</time></trkpt><trkpt lat="46.1559237" lon="12.3173605"><ele>415.0</ele><time>2026-03-29T08:23:38.942Z</time></trkpt><trkpt lat="46.1561474" lon="12.317191"><ele>417.0</ele><time>2026-03-29T08:23:39.937Z</time></trkpt><trkpt lat="46.1563739" lon="12.317028"><ele>412.0</ele><time>2026-03-29T08:23:40.942Z</time></trkpt><trkpt lat="46.1566064" lon="12.3168745"><ele>407.0</ele><time>2026-03-29T08:23:41.939Z</time></trkpt><trkpt lat="46.1568365" lon="12.3167141"><ele>407.0</ele><time>2026-03-29T08:23:42.944Z</time></trkpt><trkpt lat="46.1570657" lon="12.3165516"><ele>407.0</ele><time>2026-03-29T08:23:43.965Z</time></trkpt><trkpt lat="46.1572935" lon="12.3163878"><ele>402.0</ele><time>2026-03-29T08:23:44.938Z</time></trkpt><trkpt lat="46.1575215" lon="12.3162251"><ele>397.0</ele><time>2026-03-29T08:23:45.951Z</time></trkpt><trkpt lat="46.1577501" lon="12.3160566"><ele>397.0</ele><time>2026-03-29T08:23:46.933Z</time></trkpt><trkpt lat="46.1579816" lon="12.3158837"><ele>397.0</ele><time>2026-03-29T08:23:47.942Z</time></trkpt><trkpt lat="46.15822" lon="12.3157038"><ele>401.0</ele><time>2026-03-29T08:23:48.931Z</time></trkpt><trkpt lat="46.1584653" lon="12.3155251"><ele>405.0</ele><time>2026-03-29T08:23:49.928Z</time></trkpt><trkpt lat="46.1587059" lon="12.3153442"><ele>413.0</ele><time>2026-03-29T08:23:50.92Z</time></trkpt><trkpt lat="46.1638791" lon="12.3126784"><ele>412.0</ele><time>2026-03-29T08:24:10.88Z</time></trkpt><trkpt lat="46.1642316" lon="12.3125701"><ele>411.0</ele><time>2026-03-29T08:24:11.934Z</time></trkpt><trkpt lat="46.164525" lon="12.3125017"><ele>411.0</ele><time>2026-03-29T08:24:12.935Z</time></trkpt><trkpt lat="46.1648296" lon="12.3124134"><ele>411.0</ele><time>2026-03-29T08:24:13.938Z</time></trkpt><trkpt lat="46.1651333" lon="12.312318"><ele>413.0</ele><time>2026-03-29T08:24:14.93Z</time></trkpt><trkpt lat="46.1654254" lon="12.3122085"><ele>415.0</ele><time>2026-03-29T08:24:15.943Z</time></trkpt><trkpt lat="46.1657109" lon="12.3121075"><ele>411.0</ele><time>2026-03-29T08:24:16.945Z</time></trkpt><trkpt lat="46.1659931" lon="12.3119828"><ele>407.0</ele><time>2026-03-29T08:24:17.934Z</time></trkpt><trkpt lat="46.1662735" lon="12.3118637"><ele>403.0</ele><time>2026-03-29T08:24:18.928Z</time></trkpt><trkpt lat="46.1665527" lon="12.3117486"><ele>399.0</ele><time>2026-03-29T08:24:19.946Z</time></trkpt><trkpt lat="46.1668304" lon="12.3116293"><ele>399.0</ele><time>2026-03-29T08:24:20.926Z</time></trkpt><trkpt lat="46.1671077" lon="12.3115117"><ele>399.0</ele><time>2026-03-29T08:24:21.935Z</time></trkpt><trkpt lat="46.1673834" lon="12.3113973"><ele>402.0</ele><time>2026-03-29T08:24:22.936Z</time></trkpt><trkpt lat="46.1676588" lon="12.3112852"><ele>405.0</ele><time>2026-03-29T08:24:23.919Z</time></trkpt><trkpt lat="46.1679334" lon="12.3111719"><ele>403.5</ele><time>2026-03-29T08:24:24.928Z</time></trkpt><trkpt lat="46.1682053" lon="12.3110532"><ele>402.0</ele><time>2026-03-29T08:24:25.927Z</time></trkpt><trkpt lat="46.1684761" lon="12.3109307"><ele>402.0</ele><time>2026-03-29T08:24:26.929Z</time></trkpt><trkpt lat="46.1687466" lon="12.3108056"><ele>402.0</ele><time>2026-03-29T08:24:27.933Z</time></trkpt><trkpt lat="46.1690168" lon="12.3106761"><ele>406.5</ele><time>2026-03-29T08:24:28.944Z</time></trkpt><trkpt lat="46.1692862" lon="12.3105373"><ele>411.0</ele><time>2026-03-29T08:24:29.938Z</time></trkpt><trkpt lat="46.1695567" lon="12.3103848"><ele>411.0</ele><time>2026-03-29T08:24:30.929Z</time></trkpt><trkpt lat="46.1698307" lon="12.3102259"><ele>411.0</ele><time>2026-03-29T08:24:31.924Z</time></trkpt><trkpt lat="46.1700936" lon="12.310034"><ele>409.0</ele><time>2026-03-29T08:24:32.924Z</time></trkpt><trkpt lat="46.1703644" lon="12.3098412"><ele>407.0</ele><time>2026-03-29T08:24:33.925Z</time></trkpt><trkpt lat="46.1706323" lon="12.3096399"><ele>399.5</ele><time>2026-03-29T08:24:34.924Z</time></trkpt><trkpt lat="46.1709015" lon="12.3094268"><ele>392.0</ele><time>2026-03-29T08:24:35.928Z</time></trkpt><trkpt lat="46.1711699" lon="12.3091983"><ele>392.0</ele><time>2026-03-29T08:24:36.919Z</time></trkpt><trkpt lat="46.1714438" lon="12.3089495"><ele>392.0</ele><time>2026-03-29T08:24:37.946Z</time></trkpt><trkpt lat="46.1717142" lon="12.308687"><ele>388.0</ele><time>2026-03-29T08:24:38.928Z</time></trkpt><trkpt lat="46.1719802" lon="12.3084096"><ele>384.0</ele><time>2026-03-29T08:24:39.946Z</time></trkpt><trkpt lat="46.1722428" lon="12.3081236"><ele>383.5</ele><time>2026-03-29T08:24:40.937Z</time></trkpt><trkpt lat="46.1724965" lon="12.3078334"><ele>383.0</ele><time>2026-03-29T08:24:41.929Z</time></trkpt><trkpt lat="46.1727377" lon="12.3075348"><ele>383.5</ele><time>2026-03-29T08:24:42.927Z</time></trkpt><trkpt lat="46.1729705" lon="12.3072234"><ele>384.0</ele><time>2026-03-29T08:24:43.941Z</time></trkpt><trkpt lat="46.1731926" lon="12.3069091"><ele>384.0</ele><time>2026-03-29T08:24:44.931Z</time></trkpt><trkpt lat="46.1734055" lon="12.3065931"><ele>384.0</ele><time>2026-03-29T08:24:45.927Z</time></trkpt><trkpt lat="46.1736156" lon="12.3062662"><ele>384.0</ele><time>2026-03-29T08:24:46.933Z</time></trkpt><trkpt lat="46.1738175" lon="12.3059341"><ele>384.0</ele><time>2026-03-29T08:24:47.939Z</time></trkpt><trkpt lat="46.1740157" lon="12.3055933"><ele>382.5</ele><time>2026-03-29T08:24:48.934Z</time></trkpt><trkpt lat="46.1742129" lon="12.3052503"><ele>381.0</ele><time>2026-03-29T08:24:49.93Z</time></trkpt><trkpt lat="46.1744075" lon="12.3049019"><ele>383.5</ele><time>2026-03-29T08:24:50.934Z</time></trkpt><trkpt lat="46.1745956" lon="12.3045548"><ele>386.0</ele><time>2026-03-29T08:24:51.931Z</time></trkpt><trkpt lat="46.1747803" lon="12.3042125"><ele>383.5</ele><time>2026-03-29T08:24:52.933Z</time></trkpt><trkpt lat="46.174965" lon="12.3038714"><ele>381.0</ele><time>2026-03-29T08:24:53.927Z</time></trkpt><trkpt lat="46.1751481" lon="12.3035383"><ele>381.0</ele><time>2026-03-29T08:24:54.931Z</time></trkpt><trkpt lat="46.1753279" lon="12.3032115"><ele>381.0</ele><time>2026-03-29T08:24:55.932Z</time></trkpt><trkpt lat="46.1755101" lon="12.3028857"><ele>379.5</ele><time>2026-03-29T08:24:56.92Z</time></trkpt><trkpt lat="46.1756948" lon="12.3025629"><ele>378.0</ele><time>2026-03-29T08:24:57.923Z</time></trkpt><trkpt lat="46.1758846" lon="12.3022507"><ele>377.5</ele><time>2026-03-29T08:24:58.936Z</time></trkpt><trkpt lat="46.1760804" lon="12.3019483"><ele>377.0</ele><time>2026-03-29T08:24:59.938Z</time></trkpt><trkpt lat="46.1762833" lon="12.3016501"><ele>376.0</ele><time>2026-03-29T08:25:00.94Z</time></trkpt><trkpt lat="46.176486" lon="12.3013605"><ele>375.0</ele><time>2026-03-29T08:25:01.925Z</time></trkpt><trkpt lat="46.1766967" lon="12.30107"><ele>374.5</ele><time>2026-03-29T08:25:02.937Z</time></trkpt><trkpt lat="46.1769075" lon="12.3007896"><ele>374.0</ele><time>2026-03-29T08:25:03.929Z</time></trkpt><trkpt lat="46.1771198" lon="12.3005168"><ele>376.5</ele><time>2026-03-29T08:25:04.925Z</time></trkpt><trkpt lat="46.1773379" lon="12.3002495"><ele>379.0</ele><time>2026-03-29T08:25:05.938Z</time></trkpt><trkpt lat="46.1775573" lon="12.2999883"><ele>383.5</ele><time>2026-03-29T08:25:06.927Z</time></trkpt><trkpt lat="46.1777792" lon="12.2997268"><ele>388.0</ele><time>2026-03-29T08:25:07.932Z</time></trkpt><trkpt lat="46.1779979" lon="12.2994666"><ele>388.0</ele><time>2026-03-29T08:25:08.93Z</time></trkpt><trkpt lat="46.1782237" lon="12.2992013"><ele>388.0</ele><time>2026-03-29T08:25:09.921Z</time></trkpt><trkpt lat="46.178452" lon="12.298934"><ele>391.0</ele><time>2026-03-29T08:25:10.923Z</time></trkpt><trkpt lat="46.1786834" lon="12.2986607"><ele>394.0</ele><time>2026-03-29T08:25:11.927Z</time></trkpt><trkpt lat="46.1789194" lon="12.2983864"><ele>394.0</ele><time>2026-03-29T08:25:12.935Z</time></trkpt><trkpt lat="46.1791519" lon="12.2981194"><ele>394.0</ele><time>2026-03-29T08:25:13.926Z</time></trkpt><trkpt lat="46.1793914" lon="12.2978466"><ele>394.0</ele><time>2026-03-29T08:25:14.929Z</time></trkpt><trkpt lat="46.1796262" lon="12.297572"><ele>394.0</ele><time>2026-03-29T08:25:15.932Z</time></trkpt><trkpt lat="46.1798644" lon="12.2972953"><ele>394.5</ele><time>2026-03-29T08:25:16.932Z</time></trkpt><trkpt lat="46.1801012" lon="12.2970239"><ele>395.0</ele><time>2026-03-29T08:25:17.921Z</time></trkpt><trkpt lat="46.1803409" lon="12.2967487"><ele>395.0</ele><time>2026-03-29T08:25:18.925Z</time></trkpt><trkpt lat="46.1805802" lon="12.2964778"><ele>395.0</ele><time>2026-03-29T08:25:19.926Z</time></trkpt><trkpt lat="46.1808219" lon="12.2962041"><ele>396.0</ele><time>2026-03-29T08:25:20.922Z</time></trkpt><trkpt lat="46.181063" lon="12.2959309"><ele>397.0</ele><time>2026-03-29T08:25:21.925Z</time></trkpt><trkpt lat="46.1813039" lon="12.2956574"><ele>396.5</ele><time>2026-03-29T08:25:22.917Z</time></trkpt><trkpt lat="46.1815424" lon="12.2953815"><ele>396.0</ele><time>2026-03-29T08:25:23.925Z</time></trkpt><trkpt lat="46.1817823" lon="12.2951074"><ele>396.0</ele><time>2026-03-29T08:25:24.915Z</time></trkpt><trkpt lat="46.1820298" lon="12.294832"><ele>396.0</ele><time>2026-03-29T08:25:25.939Z</time></trkpt><trkpt lat="46.1822727" lon="12.2945718"><ele>393.5</ele><time>2026-03-29T08:25:26.92Z</time></trkpt><trkpt lat="46.1825208" lon="12.2943078"><ele>391.0</ele><time>2026-03-29T08:25:27.923Z</time></trkpt><trkpt lat="46.1827696" lon="12.2940429"><ele>390.5</ele><time>2026-03-29T08:25:28.927Z</time></trkpt><trkpt lat="46.183023" lon="12.2937759"><ele>390.0</ele><time>2026-03-29T08:25:29.93Z</time></trkpt><trkpt lat="46.1832764" lon="12.2935101"><ele>390.0</ele><time>2026-03-29T08:25:30.934Z</time></trkpt><trkpt lat="46.1835328" lon="12.293246"><ele>390.0</ele><time>2026-03-29T08:25:31.925Z</time></trkpt><trkpt lat="46.18379" lon="12.2929868"><ele>390.5</ele><time>2026-03-29T08:25:32.924Z</time></trkpt><trkpt lat="46.184047" lon="12.2927346"><ele>391.0</ele><time>2026-03-29T08:25:33.921Z</time></trkpt><trkpt lat="46.1843066" lon="12.2924896"><ele>396.0</ele><time>2026-03-29T08:25:34.914Z</time></trkpt><trkpt lat="46.1845689" lon="12.2922511"><ele>401.0</ele><time>2026-03-29T08:25:35.929Z</time></trkpt><trkpt lat="46.1848258" lon="12.2920276"><ele>396.5</ele><time>2026-03-29T08:25:36.933Z</time></trkpt><trkpt lat="46.1850887" lon="12.2918087"><ele>392.0</ele><time>2026-03-29T08:25:37.953Z</time></trkpt><trkpt lat="46.1853413" lon="12.2916095"><ele>393.5</ele><time>2026-03-29T08:25:38.921Z</time></trkpt><trkpt lat="46.185603" lon="12.2914154"><ele>395.0</ele><time>2026-03-29T08:25:39.924Z</time></trkpt><trkpt lat="46.1858662" lon="12.2912336"><ele>395.0</ele><time>2026-03-29T08:25:40.922Z</time></trkpt><trkpt lat="46.1861343" lon="12.2910581"><ele>395.0</ele><time>2026-03-29T08:25:41.931Z</time></trkpt><trkpt lat="46.186401" lon="12.2908931"><ele>392.5</ele><time>2026-03-29T08:25:42.933Z</time></trkpt><trkpt lat="46.1866715" lon="12.2907398"><ele>390.0</ele><time>2026-03-29T08:25:43.922Z</time></trkpt><trkpt lat="46.1869478" lon="12.2905968"><ele>392.0</ele><time>2026-03-29T08:25:44.926Z</time></trkpt><trkpt lat="46.1872227" lon="12.2904628"><ele>394.0</ele><time>2026-03-29T08:25:45.927Z</time></trkpt><trkpt lat="46.1874977" lon="12.2903396"><ele>394.0</ele><time>2026-03-29T08:25:46.926Z</time></trkpt><trkpt lat="46.187775" lon="12.2902263"><ele>394.0</ele><time>2026-03-29T08:25:47.921Z</time></trkpt><trkpt lat="46.1880573" lon="12.2901214"><ele>394.0</ele><time>2026-03-29T08:25:48.921Z</time></trkpt><trkpt lat="46.188346" lon="12.2900273"><ele>394.0</ele><time>2026-03-29T08:25:49.926Z</time></trkpt><trkpt lat="46.1886417" lon="12.289946"><ele>394.0</ele><time>2026-03-29T08:25:50.919Z</time></trkpt><trkpt lat="46.1889492" lon="12.2898717"><ele>394.0</ele><time>2026-03-29T08:25:51.933Z</time></trkpt><trkpt lat="46.1892571" lon="12.2898071"><ele>398.0</ele><time>2026-03-29T08:25:52.936Z</time></trkpt><trkpt lat="46.189573" lon="12.2897494"><ele>402.0</ele><time>2026-03-29T08:25:53.94Z</time></trkpt><trkpt lat="46.1898825" lon="12.2897033"><ele>403.5</ele><time>2026-03-29T08:25:54.924Z</time></trkpt><trkpt lat="46.1901888" lon="12.289671"><ele>405.0</ele><time>2026-03-29T08:25:55.939Z</time></trkpt><trkpt lat="46.1904886" lon="12.2896541"><ele>404.0</ele><time>2026-03-29T08:25:56.913Z</time></trkpt><trkpt lat="46.1907865" lon="12.2896506"><ele>403.0</ele><time>2026-03-29T08:25:57.919Z</time></trkpt><trkpt lat="46.1910852" lon="12.2896564"><ele>403.0</ele><time>2026-03-29T08:25:58.926Z</time></trkpt><trkpt lat="46.1913808" lon="12.2896684"><ele>403.0</ele><time>2026-03-29T08:25:59.925Z</time></trkpt><trkpt lat="46.1916811" lon="12.289687"><ele>402.5</ele><time>2026-03-29T08:26:00.928Z</time></trkpt><trkpt lat="46.1919827" lon="12.2897096"><ele>402.0</ele><time>2026-03-29T08:26:01.929Z</time></trkpt><trkpt lat="46.1922806" lon="12.2897355"><ele>395.0</ele><time>2026-03-29T08:26:02.944Z</time></trkpt><trkpt lat="46.1925774" lon="12.2897632"><ele>388.0</ele><time>2026-03-29T08:26:03.938Z</time></trkpt><trkpt lat="46.192869" lon="12.28979"><ele>388.0</ele><time>2026-03-29T08:26:04.93Z</time></trkpt><trkpt lat="46.193158" lon="12.2898176"><ele>388.0</ele><time>2026-03-29T08:26:05.94Z</time></trkpt><trkpt lat="46.1934424" lon="12.289845"><ele>389.0</ele><time>2026-03-29T08:26:06.918Z</time></trkpt><trkpt lat="46.1937301" lon="12.2898714"><ele>390.0</ele><time>2026-03-29T08:26:07.933Z</time></trkpt><trkpt lat="46.1940125" lon="12.2898946"><ele>391.5</ele><time>2026-03-29T08:26:08.923Z</time></trkpt><trkpt lat="46.1942994" lon="12.2899185"><ele>393.0</ele><time>2026-03-29T08:26:09.95Z</time></trkpt><trkpt lat="46.1945817" lon="12.2899431"><ele>391.5</ele><time>2026-03-29T08:26:10.957Z</time></trkpt><trkpt lat="46.1948663" lon="12.2899625"><ele>390.0</ele><time>2026-03-29T08:26:11.939Z</time></trkpt><trkpt lat="46.1951504" lon="12.289979"><ele>390.0</ele><time>2026-03-29T08:26:12.933Z</time></trkpt><trkpt lat="46.1954356" lon="12.2899915"><ele>390.0</ele><time>2026-03-29T08:26:13.931Z</time></trkpt><trkpt lat="46.1957258" lon="12.2900025"><ele>391.0</ele><time>2026-03-29T08:26:14.937Z</time></trkpt><trkpt lat="46.1960188" lon="12.290014"><ele>392.0</ele><time>2026-03-29T08:26:15.928Z</time></trkpt><trkpt lat="46.1963114" lon="12.2900221"><ele>392.0</ele><time>2026-03-29T08:26:16.925Z</time></trkpt><trkpt lat="46.1966056" lon="12.2900292"><ele>392.0</ele><time>2026-03-29T08:26:17.928Z</time></trkpt><trkpt lat="46.1969032" lon="12.2900346"><ele>392.0</ele><time>2026-03-29T08:26:18.925Z</time></trkpt><trkpt lat="46.1972003" lon="12.2900323"><ele>392.0</ele><time>2026-03-29T08:26:19.933Z</time></trkpt><trkpt lat="46.1974971" lon="12.2900254"><ele>391.5</ele><time>2026-03-29T08:26:20.928Z</time></trkpt><trkpt lat="46.1977947" lon="12.2900126"><ele>391.0</ele><time>2026-03-29T08:26:21.94Z</time></trkpt><trkpt lat="46.1980856" lon="12.2900003"><ele>391.0</ele><time>2026-03-29T08:26:22.922Z</time></trkpt><trkpt lat="46.1983827" lon="12.289978"><ele>391.0</ele><time>2026-03-29T08:26:23.929Z</time></trkpt><trkpt lat="46.1986769" lon="12.289951"><ele>391.0</ele><time>2026-03-29T08:26:24.933Z</time></trkpt><trkpt lat="46.1989723" lon="12.2899204"><ele>391.0</ele><time>2026-03-29T08:26:25.948Z</time></trkpt><trkpt lat="46.1992622" lon="12.2898923"><ele>391.0</ele><time>2026-03-29T08:26:26.94Z</time></trkpt><trkpt lat="46.199552" lon="12.2898595"><ele>391.0</ele><time>2026-03-29T08:26:27.934Z</time></trkpt><trkpt lat="46.1998408" lon="12.2898183"><ele>392.5</ele><time>2026-03-29T08:26:28.924Z</time></trkpt><trkpt lat="46.200134" lon="12.2897726"><ele>394.0</ele><time>2026-03-29T08:26:29.946Z</time></trkpt><trkpt lat="46.2004205" lon="12.2897253"><ele>395.5</ele><time>2026-03-29T08:26:30.944Z</time></trkpt><trkpt lat="46.2007074" lon="12.2896717"><ele>397.0</ele><time>2026-03-29T08:26:31.943Z</time></trkpt><trkpt lat="46.2009918" lon="12.289616"><ele>397.0</ele><time>2026-03-29T08:26:32.938Z</time></trkpt><trkpt lat="46.2012771" lon="12.2895559"><ele>397.0</ele><time>2026-03-29T08:26:33.931Z</time></trkpt><trkpt lat="46.201566" lon="12.2894891"><ele>397.0</ele><time>2026-03-29T08:26:34.948Z</time></trkpt><trkpt lat="46.2018471" lon="12.2894169"><ele>397.0</ele><time>2026-03-29T08:26:35.931Z</time></trkpt><trkpt lat="46.2021289" lon="12.2893435"><ele>396.0</ele><time>2026-03-29T08:26:36.931Z</time></trkpt><trkpt lat="46.2024106" lon="12.289272"><ele>395.0</ele><time>2026-03-29T08:26:37.934Z</time></trkpt><trkpt lat="46.2026916" lon="12.2891999"><ele>395.0</ele><time>2026-03-29T08:26:38.934Z</time></trkpt><trkpt lat="46.2029623" lon="12.2891311"><ele>395.0</ele><time>2026-03-29T08:26:39.944Z</time></trkpt><trkpt lat="46.2032145" lon="12.2890677"><ele>395.0</ele><time>2026-03-29T08:26:40.945Z</time></trkpt><trkpt lat="46.2034535" lon="12.2890038"><ele>395.0</ele><time>2026-03-29T08:26:41.949Z</time></trkpt><trkpt lat="46.2036716" lon="12.2889384"><ele>395.0</ele><time>2026-03-29T08:26:42.93Z</time></trkpt><trkpt lat="46.2038806" lon="12.2888639"><ele>395.0</ele><time>2026-03-29T08:26:43.948Z</time></trkpt><trkpt lat="46.2040781" lon="12.2887866"><ele>395.0</ele><time>2026-03-29T08:26:44.946Z</time></trkpt><trkpt lat="46.2042735" lon="12.2887049"><ele>395.3333333333333</ele><time>2026-03-29T08:26:45.945Z</time></trkpt><trkpt lat="46.2044609" lon="12.2886248"><ele>395.66666666666663</ele><time>2026-03-29T08:26:46.935Z</time></trkpt><trkpt lat="46.2046358" lon="12.2885479"><ele>396.0</ele><time>2026-03-29T08:26:47.939Z</time></trkpt><trkpt lat="46.2048042" lon="12.2884704"><ele>397.33333333333337</ele><time>2026-03-29T08:26:48.937Z</time></trkpt><trkpt lat="46.2049705" lon="12.2883905"><ele>398.6666666666667</ele><time>2026-03-29T08:26:49.954Z</time></trkpt><trkpt lat="46.205123" lon="12.2883129"><ele>400.0</ele><time>2026-03-29T08:26:50.926Z</time></trkpt><trkpt lat="46.2052584" lon="12.2882188"><ele>400.0</ele><time>2026-03-29T08:26:51.919Z</time></trkpt><trkpt lat="46.2053857" lon="12.2880938"><ele>400.0</ele><time>2026-03-29T08:26:52.928Z</time></trkpt><trkpt lat="46.2054955" lon="12.2879392"><ele>400.0</ele><time>2026-03-29T08:26:53.921Z</time></trkpt><trkpt lat="46.2055998" lon="12.2877563"><ele>400.0</ele><time>2026-03-29T08:26:54.927Z</time></trkpt><trkpt lat="46.2057227" lon="12.2875447"><ele>400.0</ele><time>2026-03-29T08:26:55.935Z</time></trkpt><trkpt lat="46.2058652" lon="12.2873121"><ele>400.0</ele><time>2026-03-29T08:26:56.92Z</time></trkpt><trkpt lat="46.2059794" lon="12.2871199"><ele>401.33333333333337</ele><time>2026-03-29T08:26:57.937Z</time></trkpt><trkpt lat="46.2060932" lon="12.286935"><ele>402.66666666666663</ele><time>2026-03-29T08:26:58.925Z</time></trkpt><trkpt lat="46.2062198" lon="12.2867307"><ele>404.0</ele><time>2026-03-29T08:26:59.928Z</time></trkpt><trkpt lat="46.2063238" lon="12.2865602"><ele>405.66666666666663</ele><time>2026-03-29T08:27:00.926Z</time></trkpt><trkpt lat="46.2064253" lon="12.2863921"><ele>407.33333333333337</ele><time>2026-03-29T08:27:01.937Z</time></trkpt><trkpt lat="46.2065371" lon="12.2862146"><ele>409.0</ele><time>2026-03-29T08:27:02.934Z</time></trkpt><trkpt lat="46.2066478" lon="12.2860596"><ele>409.0</ele><time>2026-03-29T08:27:03.942Z</time></trkpt><trkpt lat="46.206818" lon="12.2859206"><ele>409.0</ele><time>2026-03-29T08:27:04.924Z</time></trkpt><trkpt lat="46.206952" lon="12.2858395"><ele>409.0</ele><time>2026-03-29T08:27:05.924Z</time></trkpt><trkpt lat="46.2070825" lon="12.2857846"><ele>409.0</ele><time>2026-03-29T08:27:06.93Z</time></trkpt><trkpt lat="46.2072103" lon="12.2857537"><ele>409.0</ele><time>2026-03-29T08:27:07.931Z</time></trkpt><trkpt lat="46.2073468" lon="12.2857424"><ele>409.0</ele><time>2026-03-29T08:27:08.934Z</time></trkpt><trkpt lat="46.2074907" lon="12.2857402"><ele>409.0</ele><time>2026-03-29T08:27:09.93Z</time></trkpt><trkpt lat="46.2076456" lon="12.2857363"><ele>407.6666666666667</ele><time>2026-03-29T08:27:10.932Z</time></trkpt><trkpt lat="46.207812" lon="12.2857277"><ele>406.33333333333337</ele><time>2026-03-29T08:27:11.944Z</time></trkpt><trkpt lat="46.2079664" lon="12.2857211"><ele>405.0</ele><time>2026-03-29T08:27:12.938Z</time></trkpt><trkpt lat="46.208122" lon="12.2857183"><ele>406.33333333333337</ele><time>2026-03-29T08:27:13.923Z</time></trkpt><trkpt lat="46.2082908" lon="12.2857244"><ele>407.6666666666667</ele><time>2026-03-29T08:27:14.937Z</time></trkpt><trkpt lat="46.2084685" lon="12.2857418"><ele>409.0</ele><time>2026-03-29T08:27:15.921Z</time></trkpt><trkpt lat="46.208658" lon="12.2857622"><ele>409.0</ele><time>2026-03-29T08:27:16.933Z</time></trkpt><trkpt lat="46.2088495" lon="12.2857895"><ele>409.0</ele><time>2026-03-29T08:27:17.928Z</time></trkpt><trkpt lat="46.2090451" lon="12.2858266"><ele>409.0</ele><time>2026-03-29T08:27:18.934Z</time></trkpt><trkpt lat="46.2092443" lon="12.2858822"><ele>408.0</ele><time>2026-03-29T08:27:19.94Z</time></trkpt><trkpt lat="46.20945" lon="12.2859588"><ele>407.0</ele><time>2026-03-29T08:27:20.934Z</time></trkpt><trkpt lat="46.2096702" lon="12.2860539"><ele>406.0</ele><time>2026-03-29T08:27:21.941Z</time></trkpt><trkpt lat="46.2098936" lon="12.2861511"><ele>409.5</ele><time>2026-03-29T08:27:22.932Z</time></trkpt><trkpt lat="46.2101172" lon="12.2862482"><ele>413.0</ele><time>2026-03-29T08:27:23.949Z</time></trkpt><trkpt lat="46.210327" lon="12.2863375"><ele>413.0</ele><time>2026-03-29T08:27:24.945Z</time></trkpt><trkpt lat="46.210539" lon="12.2864268"><ele>413.0</ele><time>2026-03-29T08:27:25.973Z</time></trkpt><trkpt lat="46.2107415" lon="12.2865129"><ele>413.0</ele><time>2026-03-29T08:27:26.938Z</time></trkpt><trkpt lat="46.2109421" lon="12.2866036"><ele>411.66666666666663</ele><time>2026-03-29T08:27:27.943Z</time></trkpt><trkpt lat="46.2111157" lon="12.2866767"><ele>410.33333333333337</ele><time>2026-03-29T08:27:28.946Z</time></trkpt><trkpt lat="46.2113195" lon="12.2867752"><ele>409.0</ele><time>2026-03-29T08:27:29.954Z</time></trkpt><trkpt lat="46.2115372" lon="12.2868903"><ele>415.5</ele><time>2026-03-29T08:27:30.935Z</time></trkpt><trkpt lat="46.211751" lon="12.2869971"><ele>422.0</ele><time>2026-03-29T08:27:31.938Z</time></trkpt><trkpt lat="46.2119634" lon="12.2871042"><ele>422.0</ele><time>2026-03-29T08:27:32.925Z</time></trkpt><trkpt lat="46.2121797" lon="12.2872083"><ele>422.0</ele><time>2026-03-29T08:27:33.933Z</time></trkpt><trkpt lat="46.2123996" lon="12.2873075"><ele>413.5</ele><time>2026-03-29T08:27:34.964Z</time></trkpt><trkpt lat="46.2126108" lon="12.2873987"><ele>405.0</ele><time>2026-03-29T08:27:35.944Z</time></trkpt><trkpt lat="46.2128305" lon="12.2874955"><ele>405.0</ele><time>2026-03-29T08:27:36.95Z</time></trkpt><trkpt lat="46.2130473" lon="12.2875894"><ele>405.0</ele><time>2026-03-29T08:27:37.942Z</time></trkpt><trkpt lat="46.2132665" lon="12.2876814"><ele>410.0</ele><time>2026-03-29T08:27:38.942Z</time></trkpt><trkpt lat="46.2134823" lon="12.2877695"><ele>415.0</ele><time>2026-03-29T08:27:39.935Z</time></trkpt><trkpt lat="46.2137008" lon="12.2878575"><ele>415.0</ele><time>2026-03-29T08:27:40.935Z</time></trkpt><trkpt lat="46.2139125" lon="12.2879399"><ele>415.0</ele><time>2026-03-29T08:27:41.934Z</time></trkpt><trkpt lat="46.2141283" lon="12.2880243"><ele>415.0</ele><time>2026-03-29T08:27:42.94Z</time></trkpt><trkpt lat="46.2143373" lon="12.2881032"><ele>412.0</ele><time>2026-03-29T08:27:43.931Z</time></trkpt><trkpt lat="46.2145396" lon="12.2881741"><ele>409.0</ele><time>2026-03-29T08:27:44.922Z</time></trkpt><trkpt lat="46.2147583" lon="12.2881369"><ele>406.0</ele><time>2026-03-29T08:27:45.943Z</time></trkpt><trkpt lat="46.2149556" lon="12.288186"><ele>406.0</ele><time>2026-03-29T08:27:46.929Z</time></trkpt><trkpt lat="46.2151519" lon="12.288213"><ele>406.0</ele><time>2026-03-29T08:27:47.929Z</time></trkpt><trkpt lat="46.2153465" lon="12.2882267"><ele>406.0</ele><time>2026-03-29T08:27:48.927Z</time></trkpt><trkpt lat="46.2155428" lon="12.2882254"><ele>405.33333333333337</ele><time>2026-03-29T08:27:49.918Z</time></trkpt><trkpt lat="46.2157371" lon="12.2882335"><ele>404.66666666666663</ele><time>2026-03-29T08:27:50.916Z</time></trkpt><trkpt lat="46.2159342" lon="12.2882231"><ele>404.0</ele><time>2026-03-29T08:27:51.933Z</time></trkpt><trkpt lat="46.2161361" lon="12.2881827"><ele>404.0</ele><time>2026-03-29T08:27:52.933Z</time></trkpt><trkpt lat="46.2163418" lon="12.288134"><ele>404.0</ele><time>2026-03-29T08:27:53.936Z</time></trkpt><trkpt lat="46.2165498" lon="12.2880642"><ele>404.0</ele><time>2026-03-29T08:27:54.93Z</time></trkpt><trkpt lat="46.2167576" lon="12.2879919"><ele>405.3333333333333</ele><time>2026-03-29T08:27:55.94Z</time></trkpt><trkpt lat="46.2169625" lon="12.2878943"><ele>406.66666666666663</ele><time>2026-03-29T08:27:56.924Z</time></trkpt><trkpt lat="46.2171656" lon="12.2877849"><ele>408.0</ele><time>2026-03-29T08:27:57.916Z</time></trkpt><trkpt lat="46.2173669" lon="12.2876692"><ele>408.0</ele><time>2026-03-29T08:27:58.918Z</time></trkpt><trkpt lat="46.2175667" lon="12.2875528"><ele>408.0</ele><time>2026-03-29T08:27:59.921Z</time></trkpt><trkpt lat="46.217764" lon="12.2874388"><ele>408.0</ele><time>2026-03-29T08:28:00.927Z</time></trkpt><trkpt lat="46.217959" lon="12.2873221"><ele>410.66666666666663</ele><time>2026-03-29T08:28:01.925Z</time></trkpt><trkpt lat="46.2181535" lon="12.2872117"><ele>413.3333333333333</ele><time>2026-03-29T08:28:02.927Z</time></trkpt><trkpt lat="46.218348" lon="12.2871072"><ele>416.0</ele><time>2026-03-29T08:28:03.926Z</time></trkpt><trkpt lat="46.2185425" lon="12.286992"><ele>416.0</ele><time>2026-03-29T08:28:04.924Z</time></trkpt><trkpt lat="46.2187399" lon="12.2868869"><ele>416.0</ele><time>2026-03-29T08:28:05.933Z</time></trkpt><trkpt lat="46.2189359" lon="12.2867777"><ele>416.0</ele><time>2026-03-29T08:28:06.934Z</time></trkpt><trkpt lat="46.2191299" lon="12.2866624"><ele>417.66666666666663</ele><time>2026-03-29T08:28:07.928Z</time></trkpt><trkpt lat="46.219328" lon="12.2865583"><ele>419.33333333333337</ele><time>2026-03-29T08:28:08.921Z</time></trkpt><trkpt lat="46.2195267" lon="12.2864609"><ele>421.0</ele><time>2026-03-29T08:28:09.934Z</time></trkpt><trkpt lat="46.2197262" lon="12.2863747"><ele>422.33333333333337</ele><time>2026-03-29T08:28:10.916Z</time></trkpt><trkpt lat="46.2199278" lon="12.2862984"><ele>423.66666666666663</ele><time>2026-03-29T08:28:11.969Z</time></trkpt><trkpt lat="46.2201292" lon="12.2862293"><ele>425.0</ele><time>2026-03-29T08:28:12.93Z</time></trkpt><trkpt lat="46.2203321" lon="12.2861692"><ele>425.0</ele><time>2026-03-29T08:28:13.942Z</time></trkpt><trkpt lat="46.2205366" lon="12.2861169"><ele>425.0</ele><time>2026-03-29T08:28:14.929Z</time></trkpt><trkpt lat="46.2207425" lon="12.286074"><ele>425.0</ele><time>2026-03-29T08:28:15.92Z</time></trkpt><trkpt lat="46.2209484" lon="12.2860383"><ele>424.3333333333333</ele><time>2026-03-29T08:28:16.92Z</time></trkpt><trkpt lat="46.2211515" lon="12.2860128"><ele>423.66666666666663</ele><time>2026-03-29T08:28:17.93Z</time></trkpt><trkpt lat="46.2213505" lon="12.2859968"><ele>423.0</ele><time>2026-03-29T08:28:18.925Z</time></trkpt><trkpt lat="46.2215481" lon="12.2859813"><ele>422.0</ele><time>2026-03-29T08:28:19.935Z</time></trkpt><trkpt lat="46.2217455" lon="12.285978"><ele>421.0</ele><time>2026-03-29T08:28:20.916Z</time></trkpt><trkpt lat="46.2219437" lon="12.2859856"><ele>420.0</ele><time>2026-03-29T08:28:21.928Z</time></trkpt><trkpt lat="46.2221412" lon="12.2860056"><ele>419.0</ele><time>2026-03-29T08:28:22.919Z</time></trkpt><trkpt lat="46.222337" lon="12.2860296"><ele>418.0</ele><time>2026-03-29T08:28:23.937Z</time></trkpt><trkpt lat="46.2225284" lon="12.2860655"><ele>417.0</ele><time>2026-03-29T08:28:24.923Z</time></trkpt><trkpt lat="46.2227164" lon="12.2861026"><ele>417.0</ele><time>2026-03-29T08:28:25.934Z</time></trkpt><trkpt lat="46.2229005" lon="12.2861482"><ele>417.0</ele><time>2026-03-29T08:28:26.93Z</time></trkpt><trkpt lat="46.2230771" lon="12.2861983"><ele>417.0</ele><time>2026-03-29T08:28:27.927Z</time></trkpt><trkpt lat="46.2232409" lon="12.2862521"><ele>416.75</ele><time>2026-03-29T08:28:28.917Z</time></trkpt><trkpt lat="46.2233904" lon="12.2863086"><ele>416.5</ele><time>2026-03-29T08:28:29.933Z</time></trkpt><trkpt lat="46.2235278" lon="12.2863656"><ele>416.25</ele><time>2026-03-29T08:28:30.907Z</time></trkpt><trkpt lat="46.2236554" lon="12.2864246"><ele>416.0</ele><time>2026-03-29T08:28:31.934Z</time></trkpt><trkpt lat="46.2237743" lon="12.2864877"><ele>415.0</ele><time>2026-03-29T08:28:32.916Z</time></trkpt><trkpt lat="46.2238878" lon="12.2865445"><ele>414.0</ele><time>2026-03-29T08:28:33.927Z</time></trkpt><trkpt lat="46.2239967" lon="12.2865971"><ele>413.0</ele><time>2026-03-29T08:28:34.939Z</time></trkpt><trkpt lat="46.2241062" lon="12.2866339"><ele>412.0</ele><time>2026-03-29T08:28:35.941Z</time></trkpt><trkpt lat="46.2242146" lon="12.2866689"><ele>414.40000000000003</ele><time>2026-03-29T08:28:36.926Z</time></trkpt><trkpt lat="46.2243231" lon="12.2867043"><ele>416.8</ele><time>2026-03-29T08:28:37.923Z</time></trkpt><trkpt lat="46.2244294" lon="12.2867353"><ele>419.2</ele><time>2026-03-29T08:28:38.922Z</time></trkpt><trkpt lat="46.224533" lon="12.2867625"><ele>421.6</ele><time>2026-03-29T08:28:39.926Z</time></trkpt><trkpt lat="46.2246251" lon="12.2868252"><ele>424.0</ele><time>2026-03-29T08:28:40.929Z</time></trkpt><trkpt lat="46.2246947" lon="12.2869274"><ele>424.0</ele><time>2026-03-29T08:28:41.941Z</time></trkpt><trkpt lat="46.2247668" lon="12.2870114"><ele>424.0</ele><time>2026-03-29T08:28:42.931Z</time></trkpt><trkpt lat="46.2248645" lon="12.2870706"><ele>424.0</ele><time>2026-03-29T08:28:43.941Z</time></trkpt><trkpt lat="46.2249869" lon="12.2870809"><ele>424.0</ele><time>2026-03-29T08:28:44.916Z</time></trkpt><trkpt lat="46.2251255" lon="12.2870733"><ele>422.6666666666667</ele><time>2026-03-29T08:28:45.933Z</time></trkpt><trkpt lat="46.2252615" lon="12.2871139"><ele>421.33333333333337</ele><time>2026-03-29T08:28:46.952Z</time></trkpt><trkpt lat="46.2253969" lon="12.2872111"><ele>420.0</ele><time>2026-03-29T08:28:47.937Z</time></trkpt><trkpt lat="46.2255314" lon="12.2873537"><ele>423.33333333333337</ele><time>2026-03-29T08:28:48.935Z</time></trkpt><trkpt lat="46.2256759" lon="12.2874901"><ele>426.6666666666667</ele><time>2026-03-29T08:28:49.937Z</time></trkpt><trkpt lat="46.2258311" lon="12.2876117"><ele>430.0</ele><time>2026-03-29T08:28:50.94Z</time></trkpt><trkpt lat="46.2259968" lon="12.2877109"><ele>430.0</ele><time>2026-03-29T08:28:51.934Z</time></trkpt><trkpt lat="46.2261708" lon="12.2877855"><ele>430.0</ele><time>2026-03-29T08:28:52.921Z</time></trkpt><trkpt lat="46.2263391" lon="12.2878758"><ele>430.0</ele><time>2026-03-29T08:28:53.928Z</time></trkpt><trkpt lat="46.2265023" lon="12.2879679"><ele>431.6666666666667</ele><time>2026-03-29T08:28:54.928Z</time></trkpt><trkpt lat="46.2266631" lon="12.2880537"><ele>433.33333333333337</ele><time>2026-03-29T08:28:55.925Z</time></trkpt><trkpt lat="46.2268203" lon="12.2881314"><ele>435.0</ele><time>2026-03-29T08:28:56.934Z</time></trkpt><trkpt lat="46.2269781" lon="12.288197"><ele>434.33333333333337</ele><time>2026-03-29T08:28:57.934Z</time></trkpt><trkpt lat="46.2271334" lon="12.2882623"><ele>433.6666666666667</ele><time>2026-03-29T08:28:58.928Z</time></trkpt><trkpt lat="46.2272871" lon="12.2883234"><ele>433.0</ele><time>2026-03-29T08:28:59.932Z</time></trkpt><trkpt lat="46.2274373" lon="12.2883861"><ele>433.0</ele><time>2026-03-29T08:29:00.926Z</time></trkpt><trkpt lat="46.2275863" lon="12.2884454"><ele>433.0</ele><time>2026-03-29T08:29:01.939Z</time></trkpt><trkpt lat="46.2277344" lon="12.2885039"><ele>433.0</ele><time>2026-03-29T08:29:02.923Z</time></trkpt><trkpt lat="46.2278813" lon="12.2885599"><ele>433.0</ele><time>2026-03-29T08:29:03.926Z</time></trkpt><trkpt lat="46.2280248" lon="12.2886227"><ele>433.0</ele><time>2026-03-29T08:29:04.929Z</time></trkpt><trkpt lat="46.2281684" lon="12.288685"><ele>433.0</ele><time>2026-03-29T08:29:05.941Z</time></trkpt><trkpt lat="46.2283124" lon="12.2887537"><ele>433.0</ele><time>2026-03-29T08:29:06.961Z</time></trkpt><trkpt lat="46.2284604" lon="12.2888214"><ele>433.0</ele><time>2026-03-29T08:29:07.942Z</time></trkpt><trkpt lat="46.2286158" lon="12.2888831"><ele>433.0</ele><time>2026-03-29T08:29:08.944Z</time></trkpt><trkpt lat="46.2287705" lon="12.2889633"><ele>433.0</ele><time>2026-03-29T08:29:09.934Z</time></trkpt><trkpt lat="46.2289312" lon="12.2890437"><ele>433.0</ele><time>2026-03-29T08:29:10.931Z</time></trkpt><trkpt lat="46.2290976" lon="12.289128"><ele>433.0</ele><time>2026-03-29T08:29:11.935Z</time></trkpt><trkpt lat="46.2292678" lon="12.2892158"><ele>433.33333333333337</ele><time>2026-03-29T08:29:12.925Z</time></trkpt><trkpt lat="46.2294406" lon="12.2893031"><ele>433.66666666666663</ele><time>2026-03-29T08:29:13.942Z</time></trkpt><trkpt lat="46.2296132" lon="12.289392"><ele>434.0</ele><time>2026-03-29T08:29:14.942Z</time></trkpt><trkpt lat="46.2297854" lon="12.2894811"><ele>434.3333333333333</ele><time>2026-03-29T08:29:15.929Z</time></trkpt><trkpt lat="46.2299555" lon="12.2895671"><ele>434.66666666666663</ele><time>2026-03-29T08:29:16.933Z</time></trkpt><trkpt lat="46.2301211" lon="12.2896507"><ele>435.0</ele><time>2026-03-29T08:29:17.931Z</time></trkpt><trkpt lat="46.2302819" lon="12.2897331"><ele>435.0</ele><time>2026-03-29T08:29:18.924Z</time></trkpt><trkpt lat="46.2304363" lon="12.2898147"><ele>435.0</ele><time>2026-03-29T08:29:19.928Z</time></trkpt><trkpt lat="46.2305843" lon="12.2899021"><ele>435.0</ele><time>2026-03-29T08:29:20.93Z</time></trkpt><trkpt lat="46.2307287" lon="12.2899944"><ele>435.66666666666663</ele><time>2026-03-29T08:29:21.939Z</time></trkpt><trkpt lat="46.2308666" lon="12.2901115"><ele>436.3333333333333</ele><time>2026-03-29T08:29:22.928Z</time></trkpt><trkpt lat="46.2310089" lon="12.2902242"><ele>437.0</ele><time>2026-03-29T08:29:23.935Z</time></trkpt><trkpt lat="46.2311385" lon="12.2903651"><ele>437.0</ele><time>2026-03-29T08:29:24.934Z</time></trkpt><trkpt lat="46.2312703" lon="12.2904997"><ele>437.0</ele><time>2026-03-29T08:29:25.934Z</time></trkpt><trkpt lat="46.2314037" lon="12.2906311"><ele>437.0</ele><time>2026-03-29T08:29:26.931Z</time></trkpt><trkpt lat="46.2315384" lon="12.2907634"><ele>438.0</ele><time>2026-03-29T08:29:27.919Z</time></trkpt><trkpt lat="46.2316842" lon="12.2908786"><ele>439.0</ele><time>2026-03-29T08:29:28.939Z</time></trkpt><trkpt lat="46.2318154" lon="12.2910313"><ele>440.0</ele><time>2026-03-29T08:29:29.955Z</time></trkpt><trkpt lat="46.2319439" lon="12.2912024"><ele>440.0</ele><time>2026-03-29T08:29:30.942Z</time></trkpt><trkpt lat="46.2320679" lon="12.2913881"><ele>440.0</ele><time>2026-03-29T08:29:31.947Z</time></trkpt><trkpt lat="46.2321899" lon="12.2915816"><ele>440.0</ele><time>2026-03-29T08:29:32.942Z</time></trkpt><trkpt lat="46.2323135" lon="12.2917752"><ele>441.0</ele><time>2026-03-29T08:29:33.937Z</time></trkpt><trkpt lat="46.2324499" lon="12.2919553"><ele>442.0</ele><time>2026-03-29T08:29:34.929Z</time></trkpt><trkpt lat="46.2325788" lon="12.2921539"><ele>443.0</ele><time>2026-03-29T08:29:35.943Z</time></trkpt><trkpt lat="46.2327292" lon="12.2923328"><ele>444.3333333333333</ele><time>2026-03-29T08:29:36.922Z</time></trkpt><trkpt lat="46.2328804" lon="12.2925208"><ele>445.66666666666663</ele><time>2026-03-29T08:29:37.931Z</time></trkpt><trkpt lat="46.2330419" lon="12.2926992"><ele>447.0</ele><time>2026-03-29T08:29:38.941Z</time></trkpt><trkpt lat="46.2332102" lon="12.2928681"><ele>447.0</ele><time>2026-03-29T08:29:39.927Z</time></trkpt><trkpt lat="46.2333822" lon="12.2930338"><ele>447.0</ele><time>2026-03-29T08:29:40.941Z</time></trkpt><trkpt lat="46.2335549" lon="12.2931971"><ele>447.0</ele><time>2026-03-29T08:29:41.934Z</time></trkpt><trkpt lat="46.2337285" lon="12.2933565"><ele>448.0</ele><time>2026-03-29T08:29:42.914Z</time></trkpt><trkpt lat="46.2338994" lon="12.2935203"><ele>449.0</ele><time>2026-03-29T08:29:43.926Z</time></trkpt><trkpt lat="46.2340687" lon="12.2936804"><ele>450.0</ele><time>2026-03-29T08:29:44.939Z</time></trkpt><trkpt lat="46.2342403" lon="12.2938252"><ele>443.66666666666663</ele><time>2026-03-29T08:29:45.93Z</time></trkpt><trkpt lat="46.2344142" lon="12.2939551"><ele>437.3333333333333</ele><time>2026-03-29T08:29:46.935Z</time></trkpt><trkpt lat="46.2345915" lon="12.2940618"><ele>431.0</ele><time>2026-03-29T08:29:47.935Z</time></trkpt><trkpt lat="46.2347706" lon="12.2941521"><ele>434.3333333333333</ele><time>2026-03-29T08:29:48.949Z</time></trkpt><trkpt lat="46.2349576" lon="12.2942077"><ele>437.66666666666663</ele><time>2026-03-29T08:29:49.929Z</time></trkpt><trkpt lat="46.2351458" lon="12.2942595"><ele>441.0</ele><time>2026-03-29T08:29:50.926Z</time></trkpt><trkpt lat="46.2353292" lon="12.2943306"><ele>441.0</ele><time>2026-03-29T08:29:51.935Z</time></trkpt><trkpt lat="46.2355148" lon="12.2943938"><ele>441.0</ele><time>2026-03-29T08:29:52.939Z</time></trkpt><trkpt lat="46.2356992" lon="12.2944617"><ele>441.0</ele><time>2026-03-29T08:29:53.931Z</time></trkpt><trkpt lat="46.2358836" lon="12.2945315"><ele>441.0</ele><time>2026-03-29T08:29:54.93Z</time></trkpt><trkpt lat="46.2360678" lon="12.2946002"><ele>441.0</ele><time>2026-03-29T08:29:55.934Z</time></trkpt><trkpt lat="46.2362511" lon="12.2946685"><ele>441.0</ele><time>2026-03-29T08:29:56.933Z</time></trkpt><trkpt lat="46.2364281" lon="12.2947356"><ele>439.0</ele><time>2026-03-29T08:29:57.941Z</time></trkpt><trkpt lat="46.2365971" lon="12.2948006"><ele>437.0</ele><time>2026-03-29T08:29:58.955Z</time></trkpt><trkpt lat="46.2367582" lon="12.29487"><ele>435.0</ele><time>2026-03-29T08:29:59.942Z</time></trkpt><trkpt lat="46.2369189" lon="12.2949183"><ele>435.0</ele><time>2026-03-29T08:30:00.93Z</time></trkpt><trkpt lat="46.2370731" lon="12.2949701"><ele>435.0</ele><time>2026-03-29T08:30:01.951Z</time></trkpt><trkpt lat="46.2372234" lon="12.2950237"><ele>435.0</ele><time>2026-03-29T08:30:02.93Z</time></trkpt><trkpt lat="46.237374" lon="12.2950752"><ele>436.0</ele><time>2026-03-29T08:30:03.933Z</time></trkpt><trkpt lat="46.237525" lon="12.2951276"><ele>437.0</ele><time>2026-03-29T08:30:04.931Z</time></trkpt><trkpt lat="46.2376767" lon="12.2951839"><ele>438.0</ele><time>2026-03-29T08:30:05.942Z</time></trkpt><trkpt lat="46.2378304" lon="12.295242"><ele>438.0</ele><time>2026-03-29T08:30:06.934Z</time></trkpt><trkpt lat="46.2379865" lon="12.2953009"><ele>438.0</ele><time>2026-03-29T08:30:07.97Z</time></trkpt><trkpt lat="46.2381438" lon="12.2953582"><ele>438.0</ele><time>2026-03-29T08:30:08.951Z</time></trkpt><trkpt lat="46.2382922" lon="12.2954102"><ele>437.2</ele><time>2026-03-29T08:30:09.932Z</time></trkpt><trkpt lat="46.2384181" lon="12.2954507"><ele>436.4</ele><time>2026-03-29T08:30:10.945Z</time></trkpt><trkpt lat="46.2385171" lon="12.295479"><ele>435.59999999999997</ele><time>2026-03-29T08:30:11.956Z</time></trkpt><trkpt lat="46.2385938" lon="12.2954715"><ele>434.79999999999995</ele><time>2026-03-29T08:30:12.927Z</time></trkpt><trkpt lat="46.2386957" lon="12.2953482"><ele>434.0</ele><time>2026-03-29T08:30:23.933Z</time></trkpt><trkpt lat="46.238786" lon="12.2953673"><ele>433.99999999999994</ele><time>2026-03-29T08:30:26.934Z</time></trkpt><trkpt lat="46.2388629" lon="12.2953798"><ele>434.0</ele><time>2026-03-29T08:30:29.953Z</time></trkpt><trkpt lat="46.2388003" lon="12.2954087"><ele>434.0</ele><time>2026-03-29T08:30:46.94Z</time></trkpt><trkpt lat="46.2387341" lon="12.2954268"><ele>434.0</ele><time>2026-03-29T08:30:48.918Z</time></trkpt><trkpt lat="46.2386523" lon="12.2954238"><ele>433.99999999999994</ele><time>2026-03-29T08:30:51.937Z</time></trkpt><trkpt lat="46.2385566" lon="12.2953889"><ele>434.0</ele><time>2026-03-29T08:31:36.934Z</time></trkpt><trkpt lat="46.2384977" lon="12.2953417"><ele>433.99999999999994</ele><time>2026-03-29T08:32:28.932Z</time></trkpt><trkpt lat="46.2384889" lon="12.295468"><ele>434.0</ele><time>2026-03-29T08:32:32.918Z</time></trkpt><trkpt lat="46.2384208" lon="12.2954693"><ele>434.0</ele><time>2026-03-29T08:32:33.899Z</time></trkpt><trkpt lat="46.2384678" lon="12.2954065"><ele>434.0</ele><time>2026-03-29T08:32:44.131Z</time></trkpt><trkpt lat="46.2385203" lon="12.2952311"><ele>433.99999999999994</ele><time>2026-03-29T08:32:51.396Z</time></trkpt><trkpt lat="46.2384849" lon="12.2951365"><ele>434.0</ele><time>2026-03-29T08:33:34.93Z</time></trkpt><trkpt lat="46.2384766" lon="12.2950459"><ele>434.0</ele><time>2026-03-29T08:33:42.896Z</time></trkpt><trkpt lat="46.2385301" lon="12.2951772"><ele>434.0</ele><time>2026-03-29T08:35:49.945Z</time></trkpt><trkpt lat="46.2384763" lon="12.2950569"><ele>434.0</ele><time>2026-03-29T08:36:08.898Z</time></trkpt><trkpt lat="46.2384367" lon="12.2951287"><ele>434.0</ele><time>2026-03-29T08:36:13.932Z</time></trkpt><trkpt lat="46.2383742" lon="12.2946419"><ele>434.0</ele><time>2026-03-29T08:42:47.876Z</time></trkpt><trkpt lat="46.2384283" lon="12.2947503"><ele>434.0</ele><time>2026-03-29T08:42:56.913Z</time></trkpt><trkpt lat="46.2384771" lon="12.2950836"><ele>434.0</ele><time>2026-03-29T08:43:04.908Z</time></trkpt><trkpt lat="46.2385312" lon="12.2951978"><ele>434.0</ele><time>2026-03-29T08:44:14.714Z</time></trkpt><trkpt lat="46.2385149" lon="12.2953216"><ele>434.0</ele><time>2026-03-29T08:44:39.826Z</time></trkpt><trkpt lat="46.2386258" lon="12.2952857"><ele>434.0</ele><time>2026-03-29T08:48:24.923Z</time></trkpt><trkpt lat="46.2387718" lon="12.2954625"><ele>434.0</ele><time>2026-03-29T08:48:26.941Z</time></trkpt><trkpt lat="46.2388784" lon="12.2954812"><ele>434.0</ele><time>2026-03-29T08:48:27.907Z</time></trkpt><trkpt lat="46.2390137" lon="12.2954882"><ele>435.3333333333333</ele><time>2026-03-29T08:48:28.926Z</time></trkpt><trkpt lat="46.2391635" lon="12.2955029"><ele>436.66666666666663</ele><time>2026-03-29T08:48:29.92Z</time></trkpt><trkpt lat="46.2393115" lon="12.2955111"><ele>438.0</ele><time>2026-03-29T08:48:30.938Z</time></trkpt><trkpt lat="46.2394689" lon="12.2955077"><ele>438.0</ele><time>2026-03-29T08:48:31.933Z</time></trkpt><trkpt lat="46.239623" lon="12.2954887"><ele>438.0</ele><time>2026-03-29T08:48:32.916Z</time></trkpt><trkpt lat="46.2397768" lon="12.2954555"><ele>438.0</ele><time>2026-03-29T08:48:33.918Z</time></trkpt><trkpt lat="46.2399267" lon="12.2954085"><ele>437.66666666666663</ele><time>2026-03-29T08:48:34.936Z</time></trkpt><trkpt lat="46.2400727" lon="12.2953419"><ele>437.3333333333333</ele><time>2026-03-29T08:48:35.919Z</time></trkpt><trkpt lat="46.2402242" lon="12.2952496"><ele>437.0</ele><time>2026-03-29T08:48:36.94Z</time></trkpt><trkpt lat="46.2403774" lon="12.2951597"><ele>437.0</ele><time>2026-03-29T08:48:37.921Z</time></trkpt><trkpt lat="46.2405308" lon="12.2950618"><ele>437.0</ele><time>2026-03-29T08:48:38.903Z</time></trkpt><trkpt lat="46.2406783" lon="12.2949532"><ele>437.0</ele><time>2026-03-29T08:48:39.919Z</time></trkpt><trkpt lat="46.2408238" lon="12.2948458"><ele>440.3333333333333</ele><time>2026-03-29T08:48:40.922Z</time></trkpt><trkpt lat="46.2409662" lon="12.2947444"><ele>443.66666666666663</ele><time>2026-03-29T08:48:41.915Z</time></trkpt><trkpt lat="46.2411175" lon="12.2946698"><ele>447.0</ele><time>2026-03-29T08:48:42.931Z</time></trkpt><trkpt lat="46.2412698" lon="12.294601"><ele>447.0</ele><time>2026-03-29T08:48:43.925Z</time></trkpt><trkpt lat="46.2414243" lon="12.2945571"><ele>447.0</ele><time>2026-03-29T08:48:44.915Z</time></trkpt><trkpt lat="46.2415815" lon="12.2945396"><ele>447.0</ele><time>2026-03-29T08:48:45.942Z</time></trkpt><trkpt lat="46.24174" lon="12.2945524"><ele>450.66666666666663</ele><time>2026-03-29T08:48:46.925Z</time></trkpt><trkpt lat="46.2418944" lon="12.294599"><ele>454.3333333333333</ele><time>2026-03-29T08:48:47.91Z</time></trkpt><trkpt lat="46.2420523" lon="12.294651"><ele>458.0</ele><time>2026-03-29T08:48:48.916Z</time></trkpt><trkpt lat="46.2422168" lon="12.2947212"><ele>453.3333333333333</ele><time>2026-03-29T08:48:49.911Z</time></trkpt><trkpt lat="46.2423686" lon="12.2948328"><ele>448.66666666666663</ele><time>2026-03-29T08:48:50.916Z</time></trkpt><trkpt lat="46.2425182" lon="12.2949514"><ele>444.0</ele><time>2026-03-29T08:48:51.955Z</time></trkpt><trkpt lat="46.242659" lon="12.2950857"><ele>444.0</ele><time>2026-03-29T08:48:52.912Z</time></trkpt><trkpt lat="46.2427808" lon="12.2952542"><ele>444.0</ele><time>2026-03-29T08:48:53.917Z</time></trkpt><trkpt lat="46.2429134" lon="12.2954134"><ele>444.0</ele><time>2026-03-29T08:48:54.909Z</time></trkpt><trkpt lat="46.2430628" lon="12.2955444"><ele>443.0</ele><time>2026-03-29T08:48:55.913Z</time></trkpt><trkpt lat="46.243206" lon="12.2956893"><ele>442.0</ele><time>2026-03-29T08:48:56.909Z</time></trkpt><trkpt lat="46.2433566" lon="12.2958264"><ele>441.0</ele><time>2026-03-29T08:48:57.909Z</time></trkpt><trkpt lat="46.2434946" lon="12.2959857"><ele>441.0</ele><time>2026-03-29T08:48:58.917Z</time></trkpt><trkpt lat="46.2436461" lon="12.296126"><ele>441.0</ele><time>2026-03-29T08:48:59.917Z</time></trkpt><trkpt lat="46.243787" lon="12.2962813"><ele>441.0</ele><time>2026-03-29T08:49:00.919Z</time></trkpt><trkpt lat="46.2439349" lon="12.2964254"><ele>440.33333333333337</ele><time>2026-03-29T08:49:01.905Z</time></trkpt><trkpt lat="46.244083" lon="12.2965753"><ele>439.6666666666667</ele><time>2026-03-29T08:49:02.915Z</time></trkpt><trkpt lat="46.244242" lon="12.2967112"><ele>439.0</ele><time>2026-03-29T08:49:03.91Z</time></trkpt><trkpt lat="46.2443957" lon="12.2968553"><ele>439.0</ele><time>2026-03-29T08:49:04.913Z</time></trkpt><trkpt lat="46.2445237" lon="12.297041"><ele>439.0</ele><time>2026-03-29T08:49:05.927Z</time></trkpt><trkpt lat="46.2446651" lon="12.2971923"><ele>439.0</ele><time>2026-03-29T08:49:06.93Z</time></trkpt><trkpt lat="46.2448234" lon="12.2973119"><ele>437.33333333333337</ele><time>2026-03-29T08:49:07.92Z</time></trkpt><trkpt lat="46.2449711" lon="12.2974515"><ele>435.66666666666663</ele><time>2026-03-29T08:49:08.909Z</time></trkpt><trkpt lat="46.245111" lon="12.2976036"><ele>434.0</ele><time>2026-03-29T08:49:09.906Z</time></trkpt><trkpt lat="46.245248" lon="12.2977614"><ele>434.0</ele><time>2026-03-29T08:49:10.913Z</time></trkpt><trkpt lat="46.2453809" lon="12.2979231"><ele>434.0</ele><time>2026-03-29T08:49:11.919Z</time></trkpt><trkpt lat="46.2455096" lon="12.2980855"><ele>434.0</ele><time>2026-03-29T08:49:12.917Z</time></trkpt><trkpt lat="46.2456353" lon="12.2982437"><ele>434.0</ele><time>2026-03-29T08:49:13.915Z</time></trkpt><trkpt lat="46.2457631" lon="12.2983912"><ele>434.0</ele><time>2026-03-29T08:49:14.912Z</time></trkpt><trkpt lat="46.2458934" lon="12.2985274"><ele>434.0</ele><time>2026-03-29T08:49:15.941Z</time></trkpt><trkpt lat="46.2460299" lon="12.2986405"><ele>434.0</ele><time>2026-03-29T08:49:16.913Z</time></trkpt><trkpt lat="46.2461662" lon="12.2987425"><ele>434.0</ele><time>2026-03-29T08:49:17.929Z</time></trkpt><trkpt lat="46.2463081" lon="12.2988241"><ele>434.0</ele><time>2026-03-29T08:49:18.937Z</time></trkpt><trkpt lat="46.2464541" lon="12.2988916"><ele>432.66666666666663</ele><time>2026-03-29T08:49:19.934Z</time></trkpt><trkpt lat="46.2466055" lon="12.2989392"><ele>431.33333333333337</ele><time>2026-03-29T08:49:20.924Z</time></trkpt><trkpt lat="46.24676" lon="12.2989751"><ele>430.0</ele><time>2026-03-29T08:49:21.916Z</time></trkpt><trkpt lat="46.2469173" lon="12.299001"><ele>430.0</ele><time>2026-03-29T08:49:22.909Z</time></trkpt><trkpt lat="46.2470768" lon="12.2990149"><ele>430.0</ele><time>2026-03-29T08:49:23.918Z</time></trkpt><trkpt lat="46.2472406" lon="12.2990033"><ele>430.0</ele><time>2026-03-29T08:49:24.921Z</time></trkpt><trkpt lat="46.2474067" lon="12.2989797"><ele>429.33333333333337</ele><time>2026-03-29T08:49:25.915Z</time></trkpt><trkpt lat="46.2475746" lon="12.2989323"><ele>428.66666666666663</ele><time>2026-03-29T08:49:26.913Z</time></trkpt><trkpt lat="46.2477434" lon="12.2988644"><ele>428.0</ele><time>2026-03-29T08:49:27.92Z</time></trkpt><trkpt lat="46.2479153" lon="12.2988008"><ele>429.66666666666663</ele><time>2026-03-29T08:49:28.916Z</time></trkpt><trkpt lat="46.2480874" lon="12.2987369"><ele>431.33333333333337</ele><time>2026-03-29T08:49:29.948Z</time></trkpt><trkpt lat="46.2482619" lon="12.2986851"><ele>433.0</ele><time>2026-03-29T08:49:30.927Z</time></trkpt><trkpt lat="46.2484337" lon="12.2986407"><ele>433.0</ele><time>2026-03-29T08:49:31.921Z</time></trkpt><trkpt lat="46.2486066" lon="12.2985957"><ele>433.0</ele><time>2026-03-29T08:49:32.922Z</time></trkpt><trkpt lat="46.2487819" lon="12.2985613"><ele>433.0</ele><time>2026-03-29T08:49:33.916Z</time></trkpt><trkpt lat="46.2489594" lon="12.2985319"><ele>433.33333333333337</ele><time>2026-03-29T08:49:34.917Z</time></trkpt><trkpt lat="46.2491363" lon="12.2985005"><ele>433.66666666666663</ele><time>2026-03-29T08:49:35.919Z</time></trkpt><trkpt lat="46.2493116" lon="12.2984711"><ele>434.0</ele><time>2026-03-29T08:49:36.918Z</time></trkpt><trkpt lat="46.2494842" lon="12.2984306"><ele>434.0</ele><time>2026-03-29T08:49:37.916Z</time></trkpt><trkpt lat="46.2496545" lon="12.298396"><ele>434.0</ele><time>2026-03-29T08:49:38.922Z</time></trkpt><trkpt lat="46.2498221" lon="12.2983578"><ele>434.0</ele><time>2026-03-29T08:49:39.914Z</time></trkpt><trkpt lat="46.2499895" lon="12.2983264"><ele>435.66666666666663</ele><time>2026-03-29T08:49:40.922Z</time></trkpt><trkpt lat="46.2501571" lon="12.298297"><ele>437.33333333333337</ele><time>2026-03-29T08:49:41.911Z</time></trkpt><trkpt lat="46.2503247" lon="12.298271"><ele>439.0</ele><time>2026-03-29T08:49:42.911Z</time></trkpt><trkpt lat="46.2504923" lon="12.2982577"><ele>438.33333333333337</ele><time>2026-03-29T08:49:43.913Z</time></trkpt><trkpt lat="46.2506633" lon="12.2982477"><ele>437.66666666666663</ele><time>2026-03-29T08:49:44.911Z</time></trkpt><trkpt lat="46.2508383" lon="12.2982603"><ele>437.0</ele><time>2026-03-29T08:49:45.909Z</time></trkpt><trkpt lat="46.2510155" lon="12.2982766"><ele>437.0</ele><time>2026-03-29T08:49:46.932Z</time></trkpt><trkpt lat="46.2511956" lon="12.2983041"><ele>437.0</ele><time>2026-03-29T08:49:47.925Z</time></trkpt><trkpt lat="46.25138" lon="12.2983351"><ele>437.0</ele><time>2026-03-29T08:49:48.921Z</time></trkpt><trkpt lat="46.2515692" lon="12.2983628"><ele>439.0</ele><time>2026-03-29T08:49:49.915Z</time></trkpt><trkpt lat="46.2517628" lon="12.2983884"><ele>441.0</ele><time>2026-03-29T08:49:50.91Z</time></trkpt><trkpt lat="46.2519583" lon="12.2984145"><ele>443.0</ele><time>2026-03-29T08:49:51.915Z</time></trkpt><trkpt lat="46.2521542" lon="12.2984396"><ele>446.0</ele><time>2026-03-29T08:49:52.912Z</time></trkpt><trkpt lat="46.2523489" lon="12.2984541"><ele>449.0</ele><time>2026-03-29T08:49:53.938Z</time></trkpt><trkpt lat="46.2525432" lon="12.2984699"><ele>452.0</ele><time>2026-03-29T08:49:54.909Z</time></trkpt><trkpt lat="46.2527368" lon="12.298491"><ele>452.0</ele><time>2026-03-29T08:49:55.916Z</time></trkpt><trkpt lat="46.2529325" lon="12.2985059"><ele>452.0</ele><time>2026-03-29T08:49:56.918Z</time></trkpt><trkpt lat="46.2531323" lon="12.2985109"><ele>452.0</ele><time>2026-03-29T08:49:57.922Z</time></trkpt><trkpt lat="46.2533347" lon="12.2985111"><ele>451.0</ele><time>2026-03-29T08:49:58.926Z</time></trkpt><trkpt lat="46.2535363" lon="12.2985205"><ele>450.0</ele><time>2026-03-29T08:49:59.913Z</time></trkpt><trkpt lat="46.2537405" lon="12.2985356"><ele>449.0</ele><time>2026-03-29T08:50:00.933Z</time></trkpt><trkpt lat="46.2539517" lon="12.2985473"><ele>448.0</ele><time>2026-03-29T08:50:01.916Z</time></trkpt><trkpt lat="46.2541649" lon="12.2985548"><ele>447.0</ele><time>2026-03-29T08:50:02.922Z</time></trkpt><trkpt lat="46.2543802" lon="12.2985611"><ele>446.0</ele><time>2026-03-29T08:50:03.912Z</time></trkpt><trkpt lat="46.2545951" lon="12.2985636"><ele>447.66666666666663</ele><time>2026-03-29T08:50:04.922Z</time></trkpt><trkpt lat="46.2548053" lon="12.298566"><ele>449.33333333333337</ele><time>2026-03-29T08:50:05.918Z</time></trkpt><trkpt lat="46.2550109" lon="12.2985685"><ele>451.0</ele><time>2026-03-29T08:50:06.919Z</time></trkpt><trkpt lat="46.2552141" lon="12.2985796"><ele>451.0</ele><time>2026-03-29T08:50:07.93Z</time></trkpt><trkpt lat="46.255413" lon="12.2985948"><ele>451.0</ele><time>2026-03-29T08:50:08.919Z</time></trkpt><trkpt lat="46.2556074" lon="12.2986296"><ele>451.0</ele><time>2026-03-29T08:50:09.925Z</time></trkpt><trkpt lat="46.255798" lon="12.2986712"><ele>450.0</ele><time>2026-03-29T08:50:10.91Z</time></trkpt><trkpt lat="46.2559851" lon="12.2987039"><ele>449.0</ele><time>2026-03-29T08:50:11.92Z</time></trkpt><trkpt lat="46.2561683" lon="12.2987576"><ele>448.0</ele><time>2026-03-29T08:50:12.93Z</time></trkpt><trkpt lat="46.2563491" lon="12.2988186"><ele>448.0</ele><time>2026-03-29T08:50:13.909Z</time></trkpt><trkpt lat="46.2565281" lon="12.2988855"><ele>448.0</ele><time>2026-03-29T08:50:14.92Z</time></trkpt><trkpt lat="46.2567044" lon="12.2989654"><ele>448.0</ele><time>2026-03-29T08:50:15.948Z</time></trkpt><trkpt lat="46.2568815" lon="12.299045"><ele>449.0</ele><time>2026-03-29T08:50:16.907Z</time></trkpt><trkpt lat="46.2570574" lon="12.2991254"><ele>450.0</ele><time>2026-03-29T08:50:17.917Z</time></trkpt><trkpt lat="46.2572325" lon="12.2992028"><ele>451.0</ele><time>2026-03-29T08:50:18.937Z</time></trkpt><trkpt lat="46.2574078" lon="12.2992861"><ele>451.0</ele><time>2026-03-29T08:50:19.938Z</time></trkpt><trkpt lat="46.2575815" lon="12.2993733"><ele>451.0</ele><time>2026-03-29T08:50:20.91Z</time></trkpt><trkpt lat="46.2577546" lon="12.2994584"><ele>451.0</ele><time>2026-03-29T08:50:21.919Z</time></trkpt><trkpt lat="46.2579272" lon="12.2995382"><ele>451.0</ele><time>2026-03-29T08:50:22.918Z</time></trkpt><trkpt lat="46.2581005" lon="12.2996012"><ele>451.0</ele><time>2026-03-29T08:50:23.923Z</time></trkpt><trkpt lat="46.2582731" lon="12.299657"><ele>451.0</ele><time>2026-03-29T08:50:24.907Z</time></trkpt><trkpt lat="46.2584478" lon="12.2996993"><ele>454.33333333333337</ele><time>2026-03-29T08:50:25.915Z</time></trkpt><trkpt lat="46.2586235" lon="12.2997382"><ele>457.66666666666663</ele><time>2026-03-29T08:50:26.94Z</time></trkpt><trkpt lat="46.2588034" lon="12.2997699"><ele>461.0</ele><time>2026-03-29T08:50:27.945Z</time></trkpt><trkpt lat="46.2589847" lon="12.2998062"><ele>454.0</ele><time>2026-03-29T08:50:28.911Z</time></trkpt><trkpt lat="46.2591686" lon="12.2998503"><ele>447.0</ele><time>2026-03-29T08:50:29.925Z</time></trkpt><trkpt lat="46.2593545" lon="12.2999059"><ele>440.0</ele><time>2026-03-29T08:50:30.913Z</time></trkpt><trkpt lat="46.2595433" lon="12.2999803"><ele>440.0</ele><time>2026-03-29T08:50:31.92Z</time></trkpt><trkpt lat="46.2597299" lon="12.3000678"><ele>440.0</ele><time>2026-03-29T08:50:32.913Z</time></trkpt><trkpt lat="46.2599138" lon="12.3001629"><ele>440.0</ele><time>2026-03-29T08:50:33.912Z</time></trkpt><trkpt lat="46.2600974" lon="12.3002536"><ele>441.66666666666663</ele><time>2026-03-29T08:50:34.949Z</time></trkpt><trkpt lat="46.2602781" lon="12.3003439"><ele>443.33333333333337</ele><time>2026-03-29T08:50:35.914Z</time></trkpt><trkpt lat="46.2604553" lon="12.3004301"><ele>445.0</ele><time>2026-03-29T08:50:36.934Z</time></trkpt><trkpt lat="46.2606243" lon="12.3005397"><ele>447.0</ele><time>2026-03-29T08:50:37.925Z</time></trkpt><trkpt lat="46.2607879" lon="12.3006719"><ele>449.0</ele><time>2026-03-29T08:50:38.933Z</time></trkpt><trkpt lat="46.2609453" lon="12.3008141"><ele>451.0</ele><time>2026-03-29T08:50:39.915Z</time></trkpt><trkpt lat="46.261101" lon="12.3009429"><ele>451.0</ele><time>2026-03-29T08:50:40.931Z</time></trkpt><trkpt lat="46.2612651" lon="12.3010763"><ele>451.0</ele><time>2026-03-29T08:50:41.914Z</time></trkpt><trkpt lat="46.2614373" lon="12.3012074"><ele>451.0</ele><time>2026-03-29T08:50:42.918Z</time></trkpt><trkpt lat="46.2616116" lon="12.3013315"><ele>450.33333333333337</ele><time>2026-03-29T08:50:43.919Z</time></trkpt><trkpt lat="46.261789" lon="12.3014511"><ele>449.66666666666663</ele><time>2026-03-29T08:50:44.907Z</time></trkpt><trkpt lat="46.2619623" lon="12.3015751"><ele>449.0</ele><time>2026-03-29T08:50:45.911Z</time></trkpt><trkpt lat="46.2621282" lon="12.3017108"><ele>453.66666666666663</ele><time>2026-03-29T08:50:46.919Z</time></trkpt><trkpt lat="46.2622917" lon="12.3018403"><ele>458.33333333333337</ele><time>2026-03-29T08:50:47.923Z</time></trkpt><trkpt lat="46.2624566" lon="12.3019562"><ele>463.0</ele><time>2026-03-29T08:50:48.904Z</time></trkpt><trkpt lat="46.2626225" lon="12.3020511"><ele>463.0</ele><time>2026-03-29T08:50:49.91Z</time></trkpt><trkpt lat="46.2627847" lon="12.3021481"><ele>463.0</ele><time>2026-03-29T08:50:50.936Z</time></trkpt><trkpt lat="46.2629414" lon="12.3022501"><ele>463.0</ele><time>2026-03-29T08:50:51.912Z</time></trkpt><trkpt lat="46.2630966" lon="12.3023448"><ele>464.0</ele><time>2026-03-29T08:50:52.946Z</time></trkpt><trkpt lat="46.2632482" lon="12.302387"><ele>465.0</ele><time>2026-03-29T08:50:53.953Z</time></trkpt><trkpt lat="46.2634084" lon="12.3024927"><ele>466.0</ele><time>2026-03-29T08:50:54.927Z</time></trkpt><trkpt lat="46.2635608" lon="12.3025981"><ele>466.0</ele><time>2026-03-29T08:50:55.927Z</time></trkpt><trkpt lat="46.263706" lon="12.302702"><ele>466.0</ele><time>2026-03-29T08:50:56.923Z</time></trkpt><trkpt lat="46.2638476" lon="12.3027945"><ele>466.0</ele><time>2026-03-29T08:50:57.921Z</time></trkpt><trkpt lat="46.2639753" lon="12.3028519"><ele>469.5</ele><time>2026-03-29T08:50:58.91Z</time></trkpt><trkpt lat="46.2641057" lon="12.3028944"><ele>473.0</ele><time>2026-03-29T08:50:59.921Z</time></trkpt><trkpt lat="46.2642215" lon="12.3028979"><ele>476.5</ele><time>2026-03-29T08:51:00.909Z</time></trkpt><trkpt lat="46.2643543" lon="12.3029007"><ele>480.0</ele><time>2026-03-29T08:51:01.913Z</time></trkpt><trkpt lat="46.2644844" lon="12.302889"><ele>480.0</ele><time>2026-03-29T08:51:02.901Z</time></trkpt><trkpt lat="46.2646016" lon="12.3028516"><ele>480.0</ele><time>2026-03-29T08:51:03.922Z</time></trkpt><trkpt lat="46.2647074" lon="12.3027964"><ele>480.0</ele><time>2026-03-29T08:51:04.926Z</time></trkpt><trkpt lat="46.2648174" lon="12.3027219"><ele>480.0</ele><time>2026-03-29T08:51:05.917Z</time></trkpt><trkpt lat="46.2649098" lon="12.3026245"><ele>480.25</ele><time>2026-03-29T08:51:06.917Z</time></trkpt><trkpt lat="46.265017" lon="12.302501"><ele>480.5</ele><time>2026-03-29T08:51:07.924Z</time></trkpt><trkpt lat="46.265121" lon="12.3023635"><ele>480.75</ele><time>2026-03-29T08:51:08.921Z</time></trkpt><trkpt lat="46.2652297" lon="12.3022177"><ele>481.0</ele><time>2026-03-29T08:51:09.919Z</time></trkpt><trkpt lat="46.2653445" lon="12.3020724"><ele>481.0</ele><time>2026-03-29T08:51:10.932Z</time></trkpt><trkpt lat="46.2654628" lon="12.3019382"><ele>481.0</ele><time>2026-03-29T08:51:11.938Z</time></trkpt><trkpt lat="46.2655858" lon="12.301815"><ele>481.0</ele><time>2026-03-29T08:51:12.908Z</time></trkpt><trkpt lat="46.2657139" lon="12.3017081"><ele>481.0</ele><time>2026-03-29T08:51:13.92Z</time></trkpt><trkpt lat="46.2658487" lon="12.3016301"><ele>478.33333333333337</ele><time>2026-03-29T08:51:14.939Z</time></trkpt><trkpt lat="46.2659885" lon="12.3015774"><ele>475.66666666666663</ele><time>2026-03-29T08:51:15.908Z</time></trkpt><trkpt lat="46.2661453" lon="12.3015327"><ele>473.0</ele><time>2026-03-29T08:51:16.932Z</time></trkpt><trkpt lat="46.2663105" lon="12.301498"><ele>474.3333333333333</ele><time>2026-03-29T08:51:17.932Z</time></trkpt><trkpt lat="46.2664787" lon="12.3014692"><ele>475.66666666666663</ele><time>2026-03-29T08:51:18.925Z</time></trkpt><trkpt lat="46.2666372" lon="12.3014418"><ele>477.0</ele><time>2026-03-29T08:51:19.94Z</time></trkpt><trkpt lat="46.2667908" lon="12.3014139"><ele>477.0</ele><time>2026-03-29T08:51:20.935Z</time></trkpt><trkpt lat="46.2669481" lon="12.301391"><ele>477.0</ele><time>2026-03-29T08:51:21.911Z</time></trkpt><trkpt lat="46.2670963" lon="12.3013901"><ele>477.0</ele><time>2026-03-29T08:51:22.943Z</time></trkpt><trkpt lat="46.2672508" lon="12.3014018"><ele>473.66666666666663</ele><time>2026-03-29T08:51:23.925Z</time></trkpt><trkpt lat="46.2674091" lon="12.3014278"><ele>470.3333333333333</ele><time>2026-03-29T08:51:24.919Z</time></trkpt><trkpt lat="46.2675717" lon="12.3014644"><ele>467.0</ele><time>2026-03-29T08:51:25.941Z</time></trkpt><trkpt lat="46.2677336" lon="12.3015027"><ele>467.0</ele><time>2026-03-29T08:51:26.912Z</time></trkpt><trkpt lat="46.2679029" lon="12.3015423"><ele>467.0</ele><time>2026-03-29T08:51:27.916Z</time></trkpt><trkpt lat="46.2680725" lon="12.3015816"><ele>467.0</ele><time>2026-03-29T08:51:28.922Z</time></trkpt><trkpt lat="46.2682375" lon="12.3016184"><ele>468.0</ele><time>2026-03-29T08:51:29.929Z</time></trkpt><trkpt lat="46.2684054" lon="12.3016569"><ele>469.0</ele><time>2026-03-29T08:51:30.928Z</time></trkpt><trkpt lat="46.2685634" lon="12.3016827"><ele>470.0</ele><time>2026-03-29T08:51:31.927Z</time></trkpt><trkpt lat="46.2687238" lon="12.3017012"><ele>470.0</ele><time>2026-03-29T08:51:32.919Z</time></trkpt><trkpt lat="46.2688836" lon="12.3017095"><ele>470.0</ele><time>2026-03-29T08:51:33.913Z</time></trkpt><trkpt lat="46.2690319" lon="12.3017035"><ele>470.0</ele><time>2026-03-29T08:51:34.937Z</time></trkpt><trkpt lat="46.2691859" lon="12.301695"><ele>470.25</ele><time>2026-03-29T08:51:35.944Z</time></trkpt><trkpt lat="46.2693245" lon="12.3016829"><ele>470.5</ele><time>2026-03-29T08:51:36.92Z</time></trkpt><trkpt lat="46.2694699" lon="12.3016737"><ele>470.75</ele><time>2026-03-29T08:51:37.913Z</time></trkpt><trkpt lat="46.2696105" lon="12.3016643"><ele>471.0</ele><time>2026-03-29T08:51:38.91Z</time></trkpt><trkpt lat="46.269746" lon="12.301647"><ele>470.25</ele><time>2026-03-29T08:51:39.92Z</time></trkpt><trkpt lat="46.2698726" lon="12.3016179"><ele>469.5</ele><time>2026-03-29T08:51:40.922Z</time></trkpt><trkpt lat="46.270003" lon="12.3015736"><ele>468.75</ele><time>2026-03-29T08:51:41.915Z</time></trkpt><trkpt lat="46.2701248" lon="12.3015136"><ele>468.0</ele><time>2026-03-29T08:51:42.921Z</time></trkpt><trkpt lat="46.2702466" lon="12.3014454"><ele>470.25</ele><time>2026-03-29T08:51:43.934Z</time></trkpt><trkpt lat="46.2703633" lon="12.3013768"><ele>472.5</ele><time>2026-03-29T08:51:44.917Z</time></trkpt><trkpt lat="46.2704749" lon="12.3013074"><ele>474.75</ele><time>2026-03-29T08:51:45.915Z</time></trkpt><trkpt lat="46.2705811" lon="12.3012373"><ele>477.0</ele><time>2026-03-29T08:51:46.93Z</time></trkpt><trkpt lat="46.270684" lon="12.3011705"><ele>477.0</ele><time>2026-03-29T08:51:47.938Z</time></trkpt><trkpt lat="46.270778" lon="12.3011115"><ele>477.00000000000006</ele><time>2026-03-29T08:51:48.906Z</time></trkpt><trkpt lat="46.2708654" lon="12.3010588"><ele>477.00000000000006</ele><time>2026-03-29T08:51:49.93Z</time></trkpt><trkpt lat="46.2709472" lon="12.3010105"><ele>477.0</ele><time>2026-03-29T08:51:50.933Z</time></trkpt><trkpt lat="46.2710322" lon="12.3009617"><ele>477.0</ele><time>2026-03-29T08:51:51.93Z</time></trkpt><trkpt lat="46.2711305" lon="12.3008952"><ele>477.0</ele><time>2026-03-29T08:51:52.928Z</time></trkpt><trkpt lat="46.2712379" lon="12.3008199"><ele>477.0</ele><time>2026-03-29T08:51:53.936Z</time></trkpt><trkpt lat="46.2713531" lon="12.3007435"><ele>477.0</ele><time>2026-03-29T08:51:54.933Z</time></trkpt><trkpt lat="46.2714738" lon="12.3006692"><ele>477.0</ele><time>2026-03-29T08:51:55.944Z</time></trkpt><trkpt lat="46.2716038" lon="12.3006025"><ele>480.33333333333337</ele><time>2026-03-29T08:51:56.916Z</time></trkpt><trkpt lat="46.2717518" lon="12.3005324"><ele>483.6666666666667</ele><time>2026-03-29T08:51:57.929Z</time></trkpt><trkpt lat="46.2719099" lon="12.3004793"><ele>487.0</ele><time>2026-03-29T08:51:58.917Z</time></trkpt><trkpt lat="46.2720692" lon="12.3004447"><ele>487.0</ele><time>2026-03-29T08:51:59.915Z</time></trkpt><trkpt lat="46.2722265" lon="12.3004399"><ele>487.0</ele><time>2026-03-29T08:52:00.909Z</time></trkpt><trkpt lat="46.2723809" lon="12.3004654"><ele>487.0</ele><time>2026-03-29T08:52:01.924Z</time></trkpt><trkpt lat="46.2725318" lon="12.3005169"><ele>487.6666666666667</ele><time>2026-03-29T08:52:02.917Z</time></trkpt><trkpt lat="46.2726851" lon="12.3005788"><ele>488.33333333333337</ele><time>2026-03-29T08:52:03.917Z</time></trkpt><trkpt lat="46.2728408" lon="12.3006377"><ele>489.0</ele><time>2026-03-29T08:52:04.919Z</time></trkpt><trkpt lat="46.2729946" lon="12.300701"><ele>485.66666666666663</ele><time>2026-03-29T08:52:05.919Z</time></trkpt><trkpt lat="46.2731593" lon="12.3007649"><ele>482.3333333333333</ele><time>2026-03-29T08:52:06.921Z</time></trkpt><trkpt lat="46.2733234" lon="12.3008258"><ele>479.0</ele><time>2026-03-29T08:52:07.924Z</time></trkpt><trkpt lat="46.2734938" lon="12.3008781"><ele>479.0</ele><time>2026-03-29T08:52:08.929Z</time></trkpt><trkpt lat="46.2736651" lon="12.3009144"><ele>479.0</ele><time>2026-03-29T08:52:09.946Z</time></trkpt><trkpt lat="46.273833" lon="12.3009488"><ele>479.0</ele><time>2026-03-29T08:52:10.927Z</time></trkpt><trkpt lat="46.2740014" lon="12.3009716"><ele>481.66666666666663</ele><time>2026-03-29T08:52:11.926Z</time></trkpt><trkpt lat="46.2741685" lon="12.3009815"><ele>484.33333333333337</ele><time>2026-03-29T08:52:12.93Z</time></trkpt><trkpt lat="46.2743381" lon="12.3009776"><ele>487.0</ele><time>2026-03-29T08:52:13.928Z</time></trkpt><trkpt lat="46.2745123" lon="12.3009676"><ele>487.0</ele><time>2026-03-29T08:52:14.927Z</time></trkpt><trkpt lat="46.2746877" lon="12.3009549"><ele>487.0</ele><time>2026-03-29T08:52:15.919Z</time></trkpt><trkpt lat="46.2748586" lon="12.3009396"><ele>487.0</ele><time>2026-03-29T08:52:16.912Z</time></trkpt><trkpt lat="46.2750337" lon="12.3009257"><ele>488.0</ele><time>2026-03-29T08:52:17.928Z</time></trkpt><trkpt lat="46.2752034" lon="12.3009122"><ele>489.0</ele><time>2026-03-29T08:52:18.906Z</time></trkpt><trkpt lat="46.2753842" lon="12.3009004"><ele>490.0</ele><time>2026-03-29T08:52:19.915Z</time></trkpt><trkpt lat="46.2755474" lon="12.300881"><ele>491.6666666666667</ele><time>2026-03-29T08:52:20.911Z</time></trkpt><trkpt lat="46.2757141" lon="12.3008659"><ele>493.33333333333337</ele><time>2026-03-29T08:52:21.938Z</time></trkpt><trkpt lat="46.2758807" lon="12.3008494"><ele>495.0</ele><time>2026-03-29T08:52:22.934Z</time></trkpt><trkpt lat="46.2760489" lon="12.3008294"><ele>495.0</ele><time>2026-03-29T08:52:23.947Z</time></trkpt><trkpt lat="46.2762074" lon="12.3008099"><ele>495.0</ele><time>2026-03-29T08:52:24.923Z</time></trkpt><trkpt lat="46.2763633" lon="12.30079"><ele>495.0</ele><time>2026-03-29T08:52:25.94Z</time></trkpt><trkpt lat="46.2765115" lon="12.3007756"><ele>495.75</ele><time>2026-03-29T08:52:26.935Z</time></trkpt><trkpt lat="46.2766586" lon="12.3007673"><ele>496.5</ele><time>2026-03-29T08:52:27.93Z</time></trkpt><trkpt lat="46.2767993" lon="12.3007722"><ele>497.25</ele><time>2026-03-29T08:52:28.954Z</time></trkpt><trkpt lat="46.2769361" lon="12.3008022"><ele>498.0</ele><time>2026-03-29T08:52:29.932Z</time></trkpt><trkpt lat="46.2770776" lon="12.3008576"><ele>498.0</ele><time>2026-03-29T08:52:30.931Z</time></trkpt><trkpt lat="46.2771308" lon="12.3009254"><ele>498.0</ele><time>2026-03-29T08:52:31.936Z</time></trkpt><trkpt lat="46.2772586" lon="12.3010674"><ele>498.0</ele><time>2026-03-29T08:52:32.944Z</time></trkpt><trkpt lat="46.2774064" lon="12.3012183"><ele>498.0</ele><time>2026-03-29T08:52:33.927Z</time></trkpt><trkpt lat="46.2775639" lon="12.3013606"><ele>495.0</ele><time>2026-03-29T08:52:34.947Z</time></trkpt><trkpt lat="46.277716" lon="12.3014877"><ele>492.0</ele><time>2026-03-29T08:52:35.919Z</time></trkpt><trkpt lat="46.2778722" lon="12.3015957"><ele>489.0</ele><time>2026-03-29T08:52:36.923Z</time></trkpt><trkpt lat="46.2780162" lon="12.3016789"><ele>496.0</ele><time>2026-03-29T08:52:37.921Z</time></trkpt><trkpt lat="46.2781657" lon="12.3017614"><ele>503.0</ele><time>2026-03-29T08:52:38.934Z</time></trkpt><trkpt lat="46.2782941" lon="12.3018413"><ele>510.0</ele><time>2026-03-29T08:52:39.923Z</time></trkpt><trkpt lat="46.2784219" lon="12.3019393"><ele>517.0</ele><time>2026-03-29T08:52:40.92Z</time></trkpt><trkpt lat="46.2785386" lon="12.3020606"><ele>517.0</ele><time>2026-03-29T08:52:41.933Z</time></trkpt><trkpt lat="46.2786382" lon="12.302199"><ele>517.0</ele><time>2026-03-29T08:52:42.923Z</time></trkpt><trkpt lat="46.2787431" lon="12.3023412"><ele>517.0</ele><time>2026-03-29T08:52:43.924Z</time></trkpt><trkpt lat="46.2788482" lon="12.3024685"><ele>517.0</ele><time>2026-03-29T08:52:44.936Z</time></trkpt><trkpt lat="46.2789157" lon="12.302517"><ele>513.5</ele><time>2026-03-29T08:52:45.931Z</time></trkpt><trkpt lat="46.2789909" lon="12.3025399"><ele>510.0</ele><time>2026-03-29T08:52:46.928Z</time></trkpt><trkpt lat="46.2791608" lon="12.3025468"><ele>506.5</ele><time>2026-03-29T08:52:47.928Z</time></trkpt><trkpt lat="46.2793362" lon="12.302547"><ele>503.0</ele><time>2026-03-29T08:52:48.916Z</time></trkpt><trkpt lat="46.2795364" lon="12.302574"><ele>503.0</ele><time>2026-03-29T08:52:49.917Z</time></trkpt><trkpt lat="46.2797243" lon="12.3025863"><ele>503.0</ele><time>2026-03-29T08:52:50.912Z</time></trkpt><trkpt lat="46.2799095" lon="12.302599"><ele>503.0</ele><time>2026-03-29T08:52:51.91Z</time></trkpt><trkpt lat="46.2800975" lon="12.3026343"><ele>507.0</ele><time>2026-03-29T08:52:52.934Z</time></trkpt><trkpt lat="46.2802728" lon="12.3027046"><ele>511.0</ele><time>2026-03-29T08:52:53.946Z</time></trkpt><trkpt lat="46.2804326" lon="12.3028066"><ele>515.0</ele><time>2026-03-29T08:52:54.938Z</time></trkpt><trkpt lat="46.2805919" lon="12.3029366"><ele>511.66666666666663</ele><time>2026-03-29T08:52:55.932Z</time></trkpt><trkpt lat="46.280745" lon="12.3030696"><ele>508.33333333333337</ele><time>2026-03-29T08:52:56.919Z</time></trkpt><trkpt lat="46.2808973" lon="12.3031869"><ele>505.0</ele><time>2026-03-29T08:52:57.924Z</time></trkpt><trkpt lat="46.2810463" lon="12.3032633"><ele>505.0</ele><time>2026-03-29T08:52:58.918Z</time></trkpt><trkpt lat="46.2811899" lon="12.3032937"><ele>505.0</ele><time>2026-03-29T08:52:59.933Z</time></trkpt><trkpt lat="46.2813501" lon="12.3033304"><ele>505.0</ele><time>2026-03-29T08:53:00.94Z</time></trkpt><trkpt lat="46.2815246" lon="12.3033846"><ele>512.3333333333334</ele><time>2026-03-29T08:53:01.926Z</time></trkpt><trkpt lat="46.2816926" lon="12.3034416"><ele>519.6666666666666</ele><time>2026-03-29T08:53:02.934Z</time></trkpt><trkpt lat="46.2818474" lon="12.3034911"><ele>527.0</ele><time>2026-03-29T08:53:03.934Z</time></trkpt><trkpt lat="46.2820201" lon="12.3035761"><ele>527.0</ele><time>2026-03-29T08:53:04.934Z</time></trkpt><trkpt lat="46.2821019" lon="12.3036543"><ele>527.0</ele><time>2026-03-29T08:53:05.921Z</time></trkpt><trkpt lat="46.2822409" lon="12.3038478"><ele>527.0</ele><time>2026-03-29T08:53:06.945Z</time></trkpt><trkpt lat="46.2823687" lon="12.304036"><ele>520.6666666666666</ele><time>2026-03-29T08:53:07.932Z</time></trkpt><trkpt lat="46.2824843" lon="12.3042044"><ele>514.3333333333334</ele><time>2026-03-29T08:53:08.92Z</time></trkpt><trkpt lat="46.2825841" lon="12.3043761"><ele>508.0</ele><time>2026-03-29T08:53:09.927Z</time></trkpt><trkpt lat="46.2826656" lon="12.3045705"><ele>508.0</ele><time>2026-03-29T08:53:10.92Z</time></trkpt><trkpt lat="46.2827147" lon="12.3047232"><ele>508.0</ele><time>2026-03-29T08:53:11.926Z</time></trkpt><trkpt lat="46.2827654" lon="12.3049628"><ele>508.0</ele><time>2026-03-29T08:53:12.921Z</time></trkpt><trkpt lat="46.2827692" lon="12.3051844"><ele>508.0</ele><time>2026-03-29T08:53:13.927Z</time></trkpt><trkpt lat="46.2827571" lon="12.3053954"><ele>502.0</ele><time>2026-03-29T08:53:14.923Z</time></trkpt><trkpt lat="46.2827408" lon="12.3056203"><ele>496.0</ele><time>2026-03-29T08:53:15.931Z</time></trkpt><trkpt lat="46.2827233" lon="12.3058471"><ele>490.0</ele><time>2026-03-29T08:53:16.924Z</time></trkpt><trkpt lat="46.2827086" lon="12.3060759"><ele>490.0</ele><time>2026-03-29T08:53:17.926Z</time></trkpt><trkpt lat="46.2826984" lon="12.3063099"><ele>490.0</ele><time>2026-03-29T08:53:18.912Z</time></trkpt><trkpt lat="46.2827005" lon="12.3065501"><ele>490.0</ele><time>2026-03-29T08:53:19.913Z</time></trkpt><trkpt lat="46.2827266" lon="12.3067627"><ele>489.6666666666667</ele><time>2026-03-29T08:53:20.935Z</time></trkpt><trkpt lat="46.2827644" lon="12.3069758"><ele>489.33333333333337</ele><time>2026-03-29T08:53:21.934Z</time></trkpt><trkpt lat="46.2828081" lon="12.307183"><ele>489.0</ele><time>2026-03-29T08:53:22.909Z</time></trkpt><trkpt lat="46.2828528" lon="12.3073988"><ele>488.5</ele><time>2026-03-29T08:53:23.94Z</time></trkpt><trkpt lat="46.2828939" lon="12.3075452"><ele>488.0</ele><time>2026-03-29T08:53:24.922Z</time></trkpt><trkpt lat="46.2829564" lon="12.3076688"><ele>487.5</ele><time>2026-03-29T08:53:26.925Z</time></trkpt><trkpt lat="46.2830087" lon="12.3077229"><ele>487.0</ele><time>2026-03-29T08:53:27.913Z</time></trkpt><trkpt lat="46.2832143" lon="12.3079083"><ele>488.0</ele><time>2026-03-29T08:53:28.921Z</time></trkpt><trkpt lat="46.2833862" lon="12.3080684"><ele>489.0</ele><time>2026-03-29T08:53:29.914Z</time></trkpt><trkpt lat="46.283534" lon="12.3082183"><ele>490.0</ele><time>2026-03-29T08:53:30.914Z</time></trkpt><trkpt lat="46.2836853" lon="12.3083781"><ele>490.0</ele><time>2026-03-29T08:53:31.923Z</time></trkpt><trkpt lat="46.2838632" lon="12.308556"><ele>490.0</ele><time>2026-03-29T08:53:32.935Z</time></trkpt><trkpt lat="46.2840199" lon="12.3087143"><ele>490.0</ele><time>2026-03-29T08:53:33.915Z</time></trkpt><trkpt lat="46.2841874" lon="12.308883"><ele>490.6666666666667</ele><time>2026-03-29T08:53:34.933Z</time></trkpt><trkpt lat="46.2843393" lon="12.3090279"><ele>491.33333333333337</ele><time>2026-03-29T08:53:35.905Z</time></trkpt><trkpt lat="46.2844816" lon="12.3091451"><ele>492.0</ele><time>2026-03-29T08:53:36.913Z</time></trkpt><trkpt lat="46.2846269" lon="12.3092542"><ele>495.33333333333337</ele><time>2026-03-29T08:53:37.923Z</time></trkpt><trkpt lat="46.28478" lon="12.309371"><ele>498.6666666666667</ele><time>2026-03-29T08:53:38.921Z</time></trkpt><trkpt lat="46.2849277" lon="12.309491"><ele>502.0</ele><time>2026-03-29T08:53:39.911Z</time></trkpt><trkpt lat="46.2850721" lon="12.3096233"><ele>497.6666666666667</ele><time>2026-03-29T08:53:40.917Z</time></trkpt><trkpt lat="46.2852127" lon="12.3097737"><ele>493.33333333333337</ele><time>2026-03-29T08:53:41.932Z</time></trkpt><trkpt lat="46.2853472" lon="12.309937"><ele>489.0</ele><time>2026-03-29T08:53:42.912Z</time></trkpt><trkpt lat="46.2854776" lon="12.3101058"><ele>494.66666666666663</ele><time>2026-03-29T08:53:43.929Z</time></trkpt><trkpt lat="46.2856128" lon="12.3102601"><ele>500.3333333333333</ele><time>2026-03-29T08:53:44.919Z</time></trkpt><trkpt lat="46.2857487" lon="12.3103898"><ele>506.0</ele><time>2026-03-29T08:53:45.908Z</time></trkpt><trkpt lat="46.2858882" lon="12.3104963"><ele>499.3333333333333</ele><time>2026-03-29T08:53:46.922Z</time></trkpt><trkpt lat="46.286034" lon="12.3105811"><ele>492.66666666666663</ele><time>2026-03-29T08:53:47.925Z</time></trkpt><trkpt lat="46.2861877" lon="12.3106571"><ele>486.0</ele><time>2026-03-29T08:53:48.907Z</time></trkpt><trkpt lat="46.2863409" lon="12.3107112"><ele>488.66666666666663</ele><time>2026-03-29T08:53:49.91Z</time></trkpt><trkpt lat="46.2864993" lon="12.3107502"><ele>491.3333333333333</ele><time>2026-03-29T08:53:50.917Z</time></trkpt><trkpt lat="46.2866614" lon="12.3107685"><ele>494.0</ele><time>2026-03-29T08:53:51.95Z</time></trkpt><trkpt lat="46.286828" lon="12.3107748"><ele>494.0</ele><time>2026-03-29T08:53:52.903Z</time></trkpt><trkpt lat="46.2869962" lon="12.3107636"><ele>494.0</ele><time>2026-03-29T08:53:53.907Z</time></trkpt><trkpt lat="46.2871718" lon="12.3107474"><ele>494.0</ele><time>2026-03-29T08:53:54.902Z</time></trkpt><trkpt lat="46.2873496" lon="12.3107255"><ele>491.0</ele><time>2026-03-29T08:53:55.911Z</time></trkpt><trkpt lat="46.287538" lon="12.310703"><ele>488.0</ele><time>2026-03-29T08:53:56.908Z</time></trkpt><trkpt lat="46.2877288" lon="12.3106802"><ele>485.0</ele><time>2026-03-29T08:53:57.914Z</time></trkpt><trkpt lat="46.2879295" lon="12.31066"><ele>482.66666666666663</ele><time>2026-03-29T08:53:58.911Z</time></trkpt><trkpt lat="46.2881308" lon="12.3106389"><ele>480.33333333333337</ele><time>2026-03-29T08:53:59.915Z</time></trkpt><trkpt lat="46.2883281" lon="12.3106127"><ele>478.0</ele><time>2026-03-29T08:54:00.928Z</time></trkpt><trkpt lat="46.2885384" lon="12.3105888"><ele>485.0</ele><time>2026-03-29T08:54:01.919Z</time></trkpt><trkpt lat="46.2887341" lon="12.3105624"><ele>492.0</ele><time>2026-03-29T08:54:02.907Z</time></trkpt><trkpt lat="46.2888868" lon="12.3105574"><ele>499.0</ele><time>2026-03-29T08:54:03.913Z</time></trkpt><trkpt lat="46.2891199" lon="12.3105639"><ele>499.0</ele><time>2026-03-29T08:54:04.921Z</time></trkpt><trkpt lat="46.2893613" lon="12.3105672"><ele>499.0</ele><time>2026-03-29T08:54:05.91Z</time></trkpt><trkpt lat="46.2895666" lon="12.3105725"><ele>499.0</ele><time>2026-03-29T08:54:06.905Z</time></trkpt><trkpt lat="46.2897705" lon="12.3105813"><ele>488.6666666666667</ele><time>2026-03-29T08:54:07.917Z</time></trkpt><trkpt lat="46.28998" lon="12.3105949"><ele>478.33333333333337</ele><time>2026-03-29T08:54:08.926Z</time></trkpt><trkpt lat="46.2901814" lon="12.3106188"><ele>468.0</ele><time>2026-03-29T08:54:09.912Z</time></trkpt><trkpt lat="46.2903653" lon="12.3106551"><ele>468.0</ele><time>2026-03-29T08:54:10.916Z</time></trkpt><trkpt lat="46.2905824" lon="12.3107051"><ele>468.0</ele><time>2026-03-29T08:54:11.922Z</time></trkpt><trkpt lat="46.2908007" lon="12.3107496"><ele>468.0</ele><time>2026-03-29T08:54:12.909Z</time></trkpt><trkpt lat="46.2910202" lon="12.31079"><ele>468.0</ele><time>2026-03-29T08:54:13.915Z</time></trkpt><trkpt lat="46.2912373" lon="12.3108253"><ele>468.0</ele><time>2026-03-29T08:54:14.918Z</time></trkpt><trkpt lat="46.2914527" lon="12.3108565"><ele>468.0</ele><time>2026-03-29T08:54:15.921Z</time></trkpt><trkpt lat="46.2916564" lon="12.3108872"><ele>468.0</ele><time>2026-03-29T08:54:16.912Z</time></trkpt><trkpt lat="46.2918702" lon="12.3109172"><ele>468.0</ele><time>2026-03-29T08:54:17.936Z</time></trkpt><trkpt lat="46.2920809" lon="12.3109418"><ele>468.0</ele><time>2026-03-29T08:54:18.919Z</time></trkpt><trkpt lat="46.2922911" lon="12.3109615"><ele>467.0</ele><time>2026-03-29T08:54:19.934Z</time></trkpt><trkpt lat="46.2925383" lon="12.3108562"><ele>466.0</ele><time>2026-03-29T08:54:20.92Z</time></trkpt><trkpt lat="46.2927451" lon="12.3108454"><ele>466.0</ele><time>2026-03-29T08:54:21.91Z</time></trkpt><trkpt lat="46.2929438" lon="12.3108553"><ele>466.0</ele><time>2026-03-29T08:54:22.916Z</time></trkpt><trkpt lat="46.293127" lon="12.3108021"><ele>466.0</ele><time>2026-03-29T08:54:23.928Z</time></trkpt><trkpt lat="46.2933107" lon="12.3107924"><ele>468.0</ele><time>2026-03-29T08:54:24.916Z</time></trkpt><trkpt lat="46.2934844" lon="12.310771"><ele>470.0</ele><time>2026-03-29T08:54:25.913Z</time></trkpt><trkpt lat="46.2936511" lon="12.3107274"><ele>472.0</ele><time>2026-03-29T08:54:26.912Z</time></trkpt><trkpt lat="46.2938128" lon="12.3106791"><ele>469.33333333333337</ele><time>2026-03-29T08:54:27.908Z</time></trkpt><trkpt lat="46.2939681" lon="12.3106101"><ele>466.66666666666663</ele><time>2026-03-29T08:54:28.905Z</time></trkpt><trkpt lat="46.2941253" lon="12.3105807"><ele>464.0</ele><time>2026-03-29T08:54:29.904Z</time></trkpt><trkpt lat="46.2942796" lon="12.3105737"><ele>464.0</ele><time>2026-03-29T08:54:30.913Z</time></trkpt><trkpt lat="46.2944273" lon="12.3105726"><ele>464.0</ele><time>2026-03-29T08:54:31.945Z</time></trkpt><trkpt lat="46.294564" lon="12.3105956"><ele>464.0</ele><time>2026-03-29T08:54:32.904Z</time></trkpt><trkpt lat="46.2946892" lon="12.3106217"><ele>464.0</ele><time>2026-03-29T08:54:33.93Z</time></trkpt><trkpt lat="46.2948064" lon="12.3105877"><ele>466.75</ele><time>2026-03-29T08:54:34.919Z</time></trkpt><trkpt lat="46.2949213" lon="12.3105821"><ele>469.5</ele><time>2026-03-29T08:54:35.92Z</time></trkpt><trkpt lat="46.295058" lon="12.3106151"><ele>472.25</ele><time>2026-03-29T08:54:36.907Z</time></trkpt><trkpt lat="46.2952064" lon="12.3106815"><ele>475.0</ele><time>2026-03-29T08:54:37.913Z</time></trkpt><trkpt lat="46.2953584" lon="12.3108288"><ele>475.0</ele><time>2026-03-29T08:54:38.903Z</time></trkpt><trkpt lat="46.2955175" lon="12.3110168"><ele>475.0</ele><time>2026-03-29T08:54:39.918Z</time></trkpt><trkpt lat="46.2956794" lon="12.3111818"><ele>475.0</ele><time>2026-03-29T08:54:40.914Z</time></trkpt><trkpt lat="46.2958108" lon="12.3113785"><ele>472.33333333333337</ele><time>2026-03-29T08:54:41.91Z</time></trkpt><trkpt lat="46.295932" lon="12.3115877"><ele>469.66666666666663</ele><time>2026-03-29T08:54:42.913Z</time></trkpt><trkpt lat="46.2960493" lon="12.3117835"><ele>467.0</ele><time>2026-03-29T08:54:43.911Z</time></trkpt><trkpt lat="46.2962043" lon="12.3118907"><ele>467.0</ele><time>2026-03-29T08:54:44.907Z</time></trkpt><trkpt lat="46.2963573" lon="12.3120232"><ele>467.0</ele><time>2026-03-29T08:54:45.908Z</time></trkpt><trkpt lat="46.2965084" lon="12.3121799"><ele>467.0</ele><time>2026-03-29T08:54:46.895Z</time></trkpt><trkpt lat="46.2966631" lon="12.3123316"><ele>470.3333333333333</ele><time>2026-03-29T08:54:47.904Z</time></trkpt><trkpt lat="46.2968088" lon="12.31248"><ele>473.66666666666663</ele><time>2026-03-29T08:54:48.904Z</time></trkpt><trkpt lat="46.2969415" lon="12.3126254"><ele>477.0</ele><time>2026-03-29T08:54:49.92Z</time></trkpt><trkpt lat="46.297061" lon="12.3127684"><ele>477.0</ele><time>2026-03-29T08:54:50.904Z</time></trkpt><trkpt lat="46.2971752" lon="12.3129114"><ele>477.0</ele><time>2026-03-29T08:54:51.909Z</time></trkpt><trkpt lat="46.2972953" lon="12.3130415"><ele>477.0</ele><time>2026-03-29T08:54:52.908Z</time></trkpt><trkpt lat="46.2974283" lon="12.3131473"><ele>480.0</ele><time>2026-03-29T08:54:53.918Z</time></trkpt><trkpt lat="46.2975789" lon="12.3132356"><ele>483.0</ele><time>2026-03-29T08:54:54.92Z</time></trkpt><trkpt lat="46.2977379" lon="12.3132899"><ele>486.0</ele><time>2026-03-29T08:54:55.903Z</time></trkpt><trkpt lat="46.3186491" lon="12.3157437"><ele>474.0</ele><time>2026-03-29T08:56:18.481Z</time></trkpt><trkpt lat="46.3181228" lon="12.3165797"><ele>474.0</ele><time>2026-03-29T08:56:41.913Z</time></trkpt><trkpt lat="46.3183392" lon="12.3166535"><ele>474.0</ele><time>2026-03-29T08:56:42.928Z</time></trkpt><trkpt lat="46.3185171" lon="12.3167067"><ele>474.0</ele><time>2026-03-29T08:56:43.912Z</time></trkpt><trkpt lat="46.3186995" lon="12.3167537"><ele>474.0</ele><time>2026-03-29T08:56:44.914Z</time></trkpt><trkpt lat="46.3188843" lon="12.3168064"><ele>474.0</ele><time>2026-03-29T08:56:45.918Z</time></trkpt><trkpt lat="46.3190727" lon="12.3168616"><ele>474.0</ele><time>2026-03-29T08:56:46.908Z</time></trkpt><trkpt lat="46.3192586" lon="12.3169188"><ele>475.0</ele><time>2026-03-29T08:56:47.899Z</time></trkpt><trkpt lat="46.3194455" lon="12.3169711"><ele>476.0</ele><time>2026-03-29T08:56:48.907Z</time></trkpt><trkpt lat="46.3196329" lon="12.317023"><ele>477.0</ele><time>2026-03-29T08:56:49.91Z</time></trkpt><trkpt lat="46.3198225" lon="12.3170756"><ele>478.66666666666663</ele><time>2026-03-29T08:56:50.926Z</time></trkpt><trkpt lat="46.3200156" lon="12.3171291"><ele>480.3333333333333</ele><time>2026-03-29T08:56:51.911Z</time></trkpt><trkpt lat="46.3202077" lon="12.317186"><ele>482.0</ele><time>2026-03-29T08:56:52.905Z</time></trkpt><trkpt lat="46.320409" lon="12.3172462"><ele>479.0</ele><time>2026-03-29T08:56:53.921Z</time></trkpt><trkpt lat="46.3206134" lon="12.3173078"><ele>476.0</ele><time>2026-03-29T08:56:54.905Z</time></trkpt><trkpt lat="46.3208196" lon="12.3173693"><ele>473.0</ele><time>2026-03-29T08:56:55.911Z</time></trkpt><trkpt lat="46.3210235" lon="12.3174288"><ele>473.0</ele><time>2026-03-29T08:56:56.915Z</time></trkpt><trkpt lat="46.3212274" lon="12.3174891"><ele>473.0</ele><time>2026-03-29T08:56:57.918Z</time></trkpt><trkpt lat="46.3214289" lon="12.3175506"><ele>473.0</ele><time>2026-03-29T08:56:58.936Z</time></trkpt><trkpt lat="46.3216294" lon="12.3176172"><ele>472.0</ele><time>2026-03-29T08:56:59.945Z</time></trkpt><trkpt lat="46.3218296" lon="12.3176908"><ele>471.0</ele><time>2026-03-29T08:57:00.937Z</time></trkpt><trkpt lat="46.3220288" lon="12.3177756"><ele>470.0</ele><time>2026-03-29T08:57:01.917Z</time></trkpt><trkpt lat="46.3222254" lon="12.3178777"><ele>469.66666666666663</ele><time>2026-03-29T08:57:02.907Z</time></trkpt><trkpt lat="46.3224198" lon="12.3179985"><ele>469.33333333333337</ele><time>2026-03-29T08:57:03.912Z</time></trkpt><trkpt lat="46.3226096" lon="12.3181358"><ele>469.0</ele><time>2026-03-29T08:57:04.927Z</time></trkpt><trkpt lat="46.3227923" lon="12.3182869"><ele>469.0</ele><time>2026-03-29T08:57:05.924Z</time></trkpt><trkpt lat="46.3229694" lon="12.3184572"><ele>469.0</ele><time>2026-03-29T08:57:06.911Z</time></trkpt><trkpt lat="46.3231414" lon="12.3186436"><ele>469.0</ele><time>2026-03-29T08:57:07.906Z</time></trkpt><trkpt lat="46.3232996" lon="12.3188582"><ele>469.33333333333337</ele><time>2026-03-29T08:57:08.915Z</time></trkpt><trkpt lat="46.3234518" lon="12.3190815"><ele>469.66666666666663</ele><time>2026-03-29T08:57:09.913Z</time></trkpt><trkpt lat="46.3235968" lon="12.3193125"><ele>470.0</ele><time>2026-03-29T08:57:10.911Z</time></trkpt><trkpt lat="46.3237282" lon="12.319557"><ele>469.3333333333333</ele><time>2026-03-29T08:57:11.919Z</time></trkpt><trkpt lat="46.3238487" lon="12.3198075"><ele>468.66666666666663</ele><time>2026-03-29T08:57:12.903Z</time></trkpt><trkpt lat="46.3239596" lon="12.3200534"><ele>468.0</ele><time>2026-03-29T08:57:13.905Z</time></trkpt><trkpt lat="46.3240611" lon="12.3202941"><ele>469.66666666666663</ele><time>2026-03-29T08:57:14.897Z</time></trkpt><trkpt lat="46.3241613" lon="12.3205297"><ele>471.3333333333333</ele><time>2026-03-29T08:57:15.91Z</time></trkpt><trkpt lat="46.3242497" lon="12.3207746"><ele>473.0</ele><time>2026-03-29T08:57:16.92Z</time></trkpt><trkpt lat="46.3243474" lon="12.3210097"><ele>473.0</ele><time>2026-03-29T08:57:17.906Z</time></trkpt><trkpt lat="46.3244494" lon="12.3212416"><ele>473.0</ele><time>2026-03-29T08:57:18.906Z</time></trkpt><trkpt lat="46.3245571" lon="12.3214691"><ele>473.0</ele><time>2026-03-29T08:57:19.914Z</time></trkpt><trkpt lat="46.3246741" lon="12.3216895"><ele>473.3333333333333</ele><time>2026-03-29T08:57:20.91Z</time></trkpt><trkpt lat="46.3248028" lon="12.3219023"><ele>473.66666666666663</ele><time>2026-03-29T08:57:21.898Z</time></trkpt><trkpt lat="46.3249338" lon="12.3221193"><ele>474.0</ele><time>2026-03-29T08:57:22.922Z</time></trkpt><trkpt lat="46.3250704" lon="12.3223333"><ele>474.66666666666663</ele><time>2026-03-29T08:57:23.921Z</time></trkpt><trkpt lat="46.3252116" lon="12.322546"><ele>475.3333333333333</ele><time>2026-03-29T08:57:24.9Z</time></trkpt><trkpt lat="46.3253563" lon="12.3227594"><ele>476.0</ele><time>2026-03-29T08:57:25.916Z</time></trkpt><trkpt lat="46.3254998" lon="12.3229769"><ele>475.66666666666663</ele><time>2026-03-29T08:57:26.909Z</time></trkpt><trkpt lat="46.3256447" lon="12.3231937"><ele>475.33333333333337</ele><time>2026-03-29T08:57:27.929Z</time></trkpt><trkpt lat="46.3257917" lon="12.3234089"><ele>475.0</ele><time>2026-03-29T08:57:28.909Z</time></trkpt><trkpt lat="46.325942" lon="12.3236231"><ele>475.0</ele><time>2026-03-29T08:57:29.942Z</time></trkpt><trkpt lat="46.3261007" lon="12.3238305"><ele>475.0</ele><time>2026-03-29T08:57:30.909Z</time></trkpt><trkpt lat="46.3262803" lon="12.3240082"><ele>475.0</ele><time>2026-03-29T08:57:31.918Z</time></trkpt><trkpt lat="46.3264659" lon="12.3241783"><ele>475.0</ele><time>2026-03-29T08:57:32.914Z</time></trkpt><trkpt lat="46.3266566" lon="12.3243412"><ele>475.0</ele><time>2026-03-29T08:57:33.935Z</time></trkpt><trkpt lat="46.3268534" lon="12.3244951"><ele>475.0</ele><time>2026-03-29T08:57:34.905Z</time></trkpt><trkpt lat="46.327055" lon="12.3246385"><ele>476.0</ele><time>2026-03-29T08:57:35.911Z</time></trkpt><trkpt lat="46.3272543" lon="12.3247896"><ele>477.0</ele><time>2026-03-29T08:57:36.913Z</time></trkpt><trkpt lat="46.3274579" lon="12.3249303"><ele>477.0</ele><time>2026-03-29T08:57:37.917Z</time></trkpt><trkpt lat="46.3276607" lon="12.3250699"><ele>477.0</ele><time>2026-03-29T08:57:38.919Z</time></trkpt><trkpt lat="46.3278628" lon="12.3252065"><ele>477.0</ele><time>2026-03-29T08:57:39.921Z</time></trkpt><trkpt lat="46.3280664" lon="12.3253404"><ele>476.66666666666663</ele><time>2026-03-29T08:57:40.908Z</time></trkpt><trkpt lat="46.3282685" lon="12.3254746"><ele>476.3333333333333</ele><time>2026-03-29T08:57:41.91Z</time></trkpt><trkpt lat="46.3284733" lon="12.3255992"><ele>476.0</ele><time>2026-03-29T08:57:42.934Z</time></trkpt><trkpt lat="46.3286825" lon="12.3257098"><ele>479.0</ele><time>2026-03-29T08:57:43.912Z</time></trkpt><trkpt lat="46.3288963" lon="12.3258024"><ele>482.0</ele><time>2026-03-29T08:57:44.917Z</time></trkpt><trkpt lat="46.3291147" lon="12.3258723"><ele>485.0</ele><time>2026-03-29T08:57:45.925Z</time></trkpt><trkpt lat="46.3293378" lon="12.3259204"><ele>510.0</ele><time>2026-03-29T08:57:46.915Z</time></trkpt><trkpt lat="46.3418824" lon="12.3303711"><ele>510.0</ele><time>2026-03-29T08:58:49.867Z</time></trkpt><trkpt lat="46.3421623" lon="12.3304235"><ele>510.0</ele><time>2026-03-29T08:58:50.933Z</time></trkpt><trkpt lat="46.3424058" lon="12.3305116"><ele>508.5</ele><time>2026-03-29T08:58:51.928Z</time></trkpt><trkpt lat="46.3426587" lon="12.3305458"><ele>507.0</ele><time>2026-03-29T08:58:52.911Z</time></trkpt><trkpt lat="46.3428969" lon="12.3305856"><ele>496.0</ele><time>2026-03-29T08:58:53.937Z</time></trkpt><trkpt lat="46.3431507" lon="12.3306384"><ele>485.0</ele><time>2026-03-29T08:58:54.909Z</time></trkpt><trkpt lat="46.3433959" lon="12.330689"><ele>485.0</ele><time>2026-03-29T08:58:55.924Z</time></trkpt><trkpt lat="46.3436365" lon="12.3307307"><ele>485.0</ele><time>2026-03-29T08:58:56.909Z</time></trkpt><trkpt lat="46.3438734" lon="12.3307708"><ele>487.0</ele><time>2026-03-29T08:58:57.908Z</time></trkpt><trkpt lat="46.3441025" lon="12.3308215"><ele>489.0</ele><time>2026-03-29T08:58:58.909Z</time></trkpt><trkpt lat="46.3443295" lon="12.3308756"><ele>489.0</ele><time>2026-03-29T08:58:59.912Z</time></trkpt><trkpt lat="46.3445551" lon="12.3309266"><ele>489.0</ele><time>2026-03-29T08:59:00.913Z</time></trkpt><trkpt lat="46.3447761" lon="12.330991"><ele>491.0</ele><time>2026-03-29T08:59:01.93Z</time></trkpt><trkpt lat="46.3449907" lon="12.3310683"><ele>493.0</ele><time>2026-03-29T08:59:02.931Z</time></trkpt><trkpt lat="46.3452019" lon="12.3311562"><ele>495.0</ele><time>2026-03-29T08:59:03.921Z</time></trkpt><trkpt lat="46.3454088" lon="12.3312527"><ele>494.33333333333337</ele><time>2026-03-29T08:59:04.929Z</time></trkpt><trkpt lat="46.3456092" lon="12.3313636"><ele>493.6666666666667</ele><time>2026-03-29T08:59:05.92Z</time></trkpt><trkpt lat="46.3458032" lon="12.3314859"><ele>493.0</ele><time>2026-03-29T08:59:06.912Z</time></trkpt><trkpt lat="46.3459899" lon="12.3316258"><ele>493.0</ele><time>2026-03-29T08:59:07.906Z</time></trkpt><trkpt lat="46.3461711" lon="12.3317765"><ele>493.0</ele><time>2026-03-29T08:59:08.91Z</time></trkpt><trkpt lat="46.3463482" lon="12.3319391"><ele>493.0</ele><time>2026-03-29T08:59:09.913Z</time></trkpt><trkpt lat="46.3465188" lon="12.3321172"><ele>493.33333333333337</ele><time>2026-03-29T08:59:10.91Z</time></trkpt><trkpt lat="46.3466894" lon="12.3323002"><ele>493.66666666666663</ele><time>2026-03-29T08:59:11.909Z</time></trkpt><trkpt lat="46.3468511" lon="12.3325006"><ele>494.0</ele><time>2026-03-29T08:59:12.905Z</time></trkpt><trkpt lat="46.3470109" lon="12.3327007"><ele>494.0</ele><time>2026-03-29T08:59:13.918Z</time></trkpt><trkpt lat="46.3471658" lon="12.3329025"><ele>494.0</ele><time>2026-03-29T08:59:14.914Z</time></trkpt><trkpt lat="46.3473081" lon="12.3331193"><ele>494.0</ele><time>2026-03-29T08:59:15.924Z</time></trkpt><trkpt lat="46.3474385" lon="12.3333515"><ele>494.0</ele><time>2026-03-29T08:59:16.91Z</time></trkpt><trkpt lat="46.3475712" lon="12.3335845"><ele>494.0</ele><time>2026-03-29T08:59:17.916Z</time></trkpt><trkpt lat="46.3477117" lon="12.3338138"><ele>494.0</ele><time>2026-03-29T08:59:18.912Z</time></trkpt><trkpt lat="46.3478529" lon="12.3340447"><ele>492.66666666666663</ele><time>2026-03-29T08:59:19.939Z</time></trkpt><trkpt lat="46.3479922" lon="12.3342763"><ele>491.33333333333337</ele><time>2026-03-29T08:59:20.938Z</time></trkpt><trkpt lat="46.3481388" lon="12.3345029"><ele>490.0</ele><time>2026-03-29T08:59:21.912Z</time></trkpt><trkpt lat="46.3482864" lon="12.3347294"><ele>489.6666666666667</ele><time>2026-03-29T08:59:22.916Z</time></trkpt><trkpt lat="46.3484331" lon="12.3349586"><ele>489.33333333333337</ele><time>2026-03-29T08:59:23.921Z</time></trkpt><trkpt lat="46.3485794" lon="12.3351902"><ele>489.0</ele><time>2026-03-29T08:59:24.904Z</time></trkpt><trkpt lat="46.3487241" lon="12.3354264"><ele>488.66666666666663</ele><time>2026-03-29T08:59:25.912Z</time></trkpt><trkpt lat="46.3488708" lon="12.3356594"><ele>488.3333333333333</ele><time>2026-03-29T08:59:26.923Z</time></trkpt><trkpt lat="46.349018" lon="12.3358921"><ele>488.0</ele><time>2026-03-29T08:59:27.92Z</time></trkpt><trkpt lat="46.3491666" lon="12.3361225"><ele>488.0</ele><time>2026-03-29T08:59:28.914Z</time></trkpt><trkpt lat="46.349316" lon="12.3363527"><ele>488.0</ele><time>2026-03-29T08:59:29.914Z</time></trkpt><trkpt lat="46.3494691" lon="12.3365796"><ele>488.0</ele><time>2026-03-29T08:59:30.905Z</time></trkpt><trkpt lat="46.3496335" lon="12.3367948"><ele>489.0</ele><time>2026-03-29T08:59:31.919Z</time></trkpt><trkpt lat="46.3498097" lon="12.3369958"><ele>490.0</ele><time>2026-03-29T08:59:32.913Z</time></trkpt><trkpt lat="46.3499936" lon="12.337186"><ele>488.0</ele><time>2026-03-29T08:59:33.903Z</time></trkpt><trkpt lat="46.3501834" lon="12.3373658"><ele>486.0</ele><time>2026-03-29T08:59:34.912Z</time></trkpt><trkpt lat="46.3503792" lon="12.3375324"><ele>489.0</ele><time>2026-03-29T08:59:35.92Z</time></trkpt><trkpt lat="46.3505824" lon="12.3376845"><ele>492.0</ele><time>2026-03-29T08:59:36.908Z</time></trkpt><trkpt lat="46.3507916" lon="12.3378244"><ele>492.0</ele><time>2026-03-29T08:59:37.911Z</time></trkpt><trkpt lat="46.3510067" lon="12.3379483"><ele>492.0</ele><time>2026-03-29T08:59:38.915Z</time></trkpt><trkpt lat="46.351225" lon="12.3380599"><ele>491.0</ele><time>2026-03-29T08:59:39.903Z</time></trkpt><trkpt lat="46.3514457" lon="12.3381599"><ele>490.0</ele><time>2026-03-29T08:59:40.903Z</time></trkpt><trkpt lat="46.3516694" lon="12.3382423"><ele>490.0</ele><time>2026-03-29T08:59:41.921Z</time></trkpt><trkpt lat="46.3518942" lon="12.3383059"><ele>490.0</ele><time>2026-03-29T08:59:42.891Z</time></trkpt><trkpt lat="46.3521195" lon="12.3383508"><ele>490.0</ele><time>2026-03-29T08:59:43.918Z</time></trkpt><trkpt lat="46.3523456" lon="12.3383796"><ele>490.0</ele><time>2026-03-29T08:59:44.917Z</time></trkpt><trkpt lat="46.3525726" lon="12.3383939"><ele>490.0</ele><time>2026-03-29T08:59:45.914Z</time></trkpt><trkpt lat="46.3528003" lon="12.3383916"><ele>490.0</ele><time>2026-03-29T08:59:46.914Z</time></trkpt><trkpt lat="46.3530283" lon="12.3383712"><ele>490.5</ele><time>2026-03-29T08:59:47.92Z</time></trkpt><trkpt lat="46.3532572" lon="12.3383441"><ele>491.0</ele><time>2026-03-29T08:59:48.919Z</time></trkpt><trkpt lat="46.3534871" lon="12.3383177"><ele>491.0</ele><time>2026-03-29T08:59:49.916Z</time></trkpt><trkpt lat="46.3537193" lon="12.3383166"><ele>491.0</ele><time>2026-03-29T08:59:50.917Z</time></trkpt><trkpt lat="46.3539493" lon="12.3383113"><ele>493.5</ele><time>2026-03-29T08:59:51.927Z</time></trkpt><trkpt lat="46.3541771" lon="12.3383068"><ele>496.0</ele><time>2026-03-29T08:59:52.916Z</time></trkpt><trkpt lat="46.3544065" lon="12.3383175"><ele>496.0</ele><time>2026-03-29T08:59:53.911Z</time></trkpt><trkpt lat="46.3546337" lon="12.3383378"><ele>496.0</ele><time>2026-03-29T08:59:54.926Z</time></trkpt><trkpt lat="46.3548551" lon="12.338363"><ele>495.33333333333337</ele><time>2026-03-29T08:59:55.935Z</time></trkpt><trkpt lat="46.3550727" lon="12.3384007"><ele>494.66666666666663</ele><time>2026-03-29T08:59:56.935Z</time></trkpt><trkpt lat="46.3552882" lon="12.3384572"><ele>494.0</ele><time>2026-03-29T08:59:57.923Z</time></trkpt><trkpt lat="46.3555038" lon="12.3385124"><ele>495.0</ele><time>2026-03-29T08:59:58.915Z</time></trkpt><trkpt lat="46.3557186" lon="12.3385821"><ele>496.0</ele><time>2026-03-29T08:59:59.926Z</time></trkpt><trkpt lat="46.3559315" lon="12.3386645"><ele>497.0</ele><time>2026-03-29T09:00:00.918Z</time></trkpt><trkpt lat="46.3561429" lon="12.3387627"><ele>497.0</ele><time>2026-03-29T09:00:01.922Z</time></trkpt><trkpt lat="46.3563513" lon="12.3388677"><ele>497.0</ele><time>2026-03-29T09:00:02.91Z</time></trkpt><trkpt lat="46.3565549" lon="12.3389765"><ele>497.0</ele><time>2026-03-29T09:00:03.904Z</time></trkpt><trkpt lat="46.3567544" lon="12.3390886"><ele>498.3333333333333</ele><time>2026-03-29T09:00:04.917Z</time></trkpt><trkpt lat="46.3569486" lon="12.3392029"><ele>499.66666666666663</ele><time>2026-03-29T09:00:05.902Z</time></trkpt><trkpt lat="46.3571394" lon="12.3393163"><ele>501.0</ele><time>2026-03-29T09:00:06.913Z</time></trkpt><trkpt lat="46.3573309" lon="12.3394246"><ele>499.0</ele><time>2026-03-29T09:00:07.913Z</time></trkpt><trkpt lat="46.3575221" lon="12.339531"><ele>497.0</ele><time>2026-03-29T09:00:08.906Z</time></trkpt><trkpt lat="46.357714" lon="12.3396382"><ele>495.0</ele><time>2026-03-29T09:00:09.934Z</time></trkpt><trkpt lat="46.3579075" lon="12.3397482"><ele>497.33333333333337</ele><time>2026-03-29T09:00:10.929Z</time></trkpt><trkpt lat="46.3581035" lon="12.3398576"><ele>499.6666666666667</ele><time>2026-03-29T09:00:11.924Z</time></trkpt><trkpt lat="46.358301" lon="12.3399722"><ele>502.0</ele><time>2026-03-29T09:00:12.928Z</time></trkpt><trkpt lat="46.3585014" lon="12.3400882"><ele>502.0</ele><time>2026-03-29T09:00:13.934Z</time></trkpt><trkpt lat="46.358707" lon="12.3401911"><ele>502.0</ele><time>2026-03-29T09:00:14.924Z</time></trkpt><trkpt lat="46.3589092" lon="12.3403092"><ele>502.0</ele><time>2026-03-29T09:00:15.918Z</time></trkpt><trkpt lat="46.3591077" lon="12.3404445"><ele>500.33333333333337</ele><time>2026-03-29T09:00:16.912Z</time></trkpt><trkpt lat="46.3593011" lon="12.3405965"><ele>498.66666666666663</ele><time>2026-03-29T09:00:17.926Z</time></trkpt><trkpt lat="46.3594897" lon="12.3407615"><ele>497.0</ele><time>2026-03-29T09:00:18.921Z</time></trkpt><trkpt lat="46.3596767" lon="12.3409497"><ele>506.0</ele><time>2026-03-29T09:00:19.93Z</time></trkpt><trkpt lat="46.3598632" lon="12.3411468"><ele>515.0</ele><time>2026-03-29T09:00:20.92Z</time></trkpt><trkpt lat="46.3600462" lon="12.3413565"><ele>508.0</ele><time>2026-03-29T09:00:21.913Z</time></trkpt><trkpt lat="46.3602244" lon="12.341578"><ele>501.0</ele><time>2026-03-29T09:00:22.917Z</time></trkpt><trkpt lat="46.3603884" lon="12.3418177"><ele>505.0</ele><time>2026-03-29T09:00:23.916Z</time></trkpt><trkpt lat="46.3605445" lon="12.3420602"><ele>509.0</ele><time>2026-03-29T09:00:24.916Z</time></trkpt><trkpt lat="46.3606857" lon="12.3423067"><ele>509.0</ele><time>2026-03-29T09:00:25.928Z</time></trkpt><trkpt lat="46.3608076" lon="12.3425605"><ele>509.0</ele><time>2026-03-29T09:00:26.91Z</time></trkpt><trkpt lat="46.3609274" lon="12.3428087"><ele>509.0</ele><time>2026-03-29T09:00:27.917Z</time></trkpt><trkpt lat="46.3610503" lon="12.3430494"><ele>507.3333333333333</ele><time>2026-03-29T09:00:28.927Z</time></trkpt><trkpt lat="46.3611774" lon="12.3432831"><ele>505.66666666666663</ele><time>2026-03-29T09:00:29.911Z</time></trkpt><trkpt lat="46.3613103" lon="12.3435072"><ele>504.0</ele><time>2026-03-29T09:00:30.911Z</time></trkpt><trkpt lat="46.3614504" lon="12.3437204"><ele>506.33333333333337</ele><time>2026-03-29T09:00:31.917Z</time></trkpt><trkpt lat="46.361599" lon="12.3439225"><ele>508.6666666666667</ele><time>2026-03-29T09:00:32.901Z</time></trkpt><trkpt lat="46.3617564" lon="12.3441114"><ele>511.0</ele><time>2026-03-29T09:00:33.912Z</time></trkpt><trkpt lat="46.3619315" lon="12.3442657"><ele>511.0</ele><time>2026-03-29T09:00:34.902Z</time></trkpt><trkpt lat="46.3621014" lon="12.3444292"><ele>511.0</ele><time>2026-03-29T09:00:35.923Z</time></trkpt><trkpt lat="46.3704545" lon="12.354466"><ele>517.3333333333334</ele><time>2026-03-29T09:01:32.881Z</time></trkpt><trkpt lat="46.3706347" lon="12.3546372"><ele>523.6666666666666</ele><time>2026-03-29T09:01:33.926Z</time></trkpt><trkpt lat="46.3708157" lon="12.3547728"><ele>530.0</ele><time>2026-03-29T09:01:34.93Z</time></trkpt><trkpt lat="46.3710093" lon="12.3549221"><ele>530.0</ele><time>2026-03-29T09:01:35.922Z</time></trkpt><trkpt lat="46.3711989" lon="12.3550771"><ele>530.0</ele><time>2026-03-29T09:01:36.912Z</time></trkpt><trkpt lat="46.3713822" lon="12.3552352"><ele>530.0</ele><time>2026-03-29T09:01:37.914Z</time></trkpt><trkpt lat="46.3715647" lon="12.3553925"><ele>523.0</ele><time>2026-03-29T09:01:38.906Z</time></trkpt><trkpt lat="46.3717382" lon="12.3555499"><ele>516.0</ele><time>2026-03-29T09:01:39.914Z</time></trkpt><trkpt lat="46.3719162" lon="12.3557008"><ele>509.0</ele><time>2026-03-29T09:01:40.925Z</time></trkpt><trkpt lat="46.3720913" lon="12.3558544"><ele>508.66666666666663</ele><time>2026-03-29T09:01:41.94Z</time></trkpt><trkpt lat="46.3722671" lon="12.356013"><ele>508.33333333333337</ele><time>2026-03-29T09:01:42.896Z</time></trkpt><trkpt lat="46.3724438" lon="12.3561733"><ele>508.0</ele><time>2026-03-29T09:01:43.904Z</time></trkpt><trkpt lat="46.3726224" lon="12.3563269"><ele>510.0</ele><time>2026-03-29T09:01:44.895Z</time></trkpt><trkpt lat="46.3727983" lon="12.3564772"><ele>512.0</ele><time>2026-03-29T09:01:45.92Z</time></trkpt><trkpt lat="46.3729731" lon="12.3566243"><ele>514.0</ele><time>2026-03-29T09:01:46.909Z</time></trkpt><trkpt lat="46.3731452" lon="12.3567684"><ele>518.0</ele><time>2026-03-29T09:01:47.92Z</time></trkpt><trkpt lat="46.3733207" lon="12.3569014"><ele>522.0</ele><time>2026-03-29T09:01:48.911Z</time></trkpt><trkpt lat="46.3734923" lon="12.3570361"><ele>526.0</ele><time>2026-03-29T09:01:49.924Z</time></trkpt><trkpt lat="46.3736583" lon="12.3571817"><ele>534.3333333333334</ele><time>2026-03-29T09:01:50.919Z</time></trkpt><trkpt lat="46.3738226" lon="12.3573237"><ele>542.6666666666666</ele><time>2026-03-29T09:01:51.941Z</time></trkpt><trkpt lat="46.3739849" lon="12.3574661"><ele>551.0</ele><time>2026-03-29T09:01:52.904Z</time></trkpt><trkpt lat="46.3741459" lon="12.3576046"><ele>551.0</ele><time>2026-03-29T09:01:53.918Z</time></trkpt><trkpt lat="46.3743041" lon="12.3577438"><ele>551.0</ele><time>2026-03-29T09:01:54.911Z</time></trkpt><trkpt lat="46.3744594" lon="12.3578844"><ele>551.0</ele><time>2026-03-29T09:01:55.926Z</time></trkpt><trkpt lat="46.3746268" lon="12.358001"><ele>554.3333333333333</ele><time>2026-03-29T09:01:56.924Z</time></trkpt><trkpt lat="46.3747782" lon="12.3581305"><ele>557.6666666666666</ele><time>2026-03-29T09:01:57.918Z</time></trkpt><trkpt lat="46.3749353" lon="12.3582624"><ele>561.0</ele><time>2026-03-29T09:01:58.919Z</time></trkpt><trkpt lat="46.3750941" lon="12.3583963"><ele>561.0</ele><time>2026-03-29T09:01:59.928Z</time></trkpt><trkpt lat="46.3752555" lon="12.3585332"><ele>561.0</ele><time>2026-03-29T09:02:00.929Z</time></trkpt><trkpt lat="46.3754215" lon="12.3586713"><ele>561.0</ele><time>2026-03-29T09:02:01.923Z</time></trkpt><trkpt lat="46.3755916" lon="12.3588037"><ele>563.6666666666666</ele><time>2026-03-29T09:02:02.905Z</time></trkpt><trkpt lat="46.3757798" lon="12.3589296"><ele>566.3333333333333</ele><time>2026-03-29T09:02:03.921Z</time></trkpt><trkpt lat="46.3759896" lon="12.3590473"><ele>569.0</ele><time>2026-03-29T09:02:04.91Z</time></trkpt><trkpt lat="46.3761952" lon="12.3591294"><ele>569.6666666666666</ele><time>2026-03-29T09:02:05.906Z</time></trkpt><trkpt lat="46.3764075" lon="12.3591819"><ele>570.3333333333334</ele><time>2026-03-29T09:02:06.903Z</time></trkpt><trkpt lat="46.3766153" lon="12.359206"><ele>571.0</ele><time>2026-03-29T09:02:07.921Z</time></trkpt><trkpt lat="46.3768362" lon="12.3592165"><ele>571.0</ele><time>2026-03-29T09:02:08.91Z</time></trkpt><trkpt lat="46.3770507" lon="12.3591994"><ele>571.0</ele><time>2026-03-29T09:02:09.915Z</time></trkpt><trkpt lat="46.3772634" lon="12.3591582"><ele>571.0</ele><time>2026-03-29T09:02:10.905Z</time></trkpt><trkpt lat="46.3774739" lon="12.3590886"><ele>574.5</ele><time>2026-03-29T09:02:11.937Z</time></trkpt><trkpt lat="46.3776881" lon="12.3590008"><ele>578.0</ele><time>2026-03-29T09:02:12.908Z</time></trkpt><trkpt lat="46.3779078" lon="12.3589144"><ele>575.0</ele><time>2026-03-29T09:02:13.925Z</time></trkpt><trkpt lat="46.37813" lon="12.3588313"><ele>572.0</ele><time>2026-03-29T09:02:14.918Z</time></trkpt><trkpt lat="46.3783555" lon="12.3587456"><ele>572.0</ele><time>2026-03-29T09:02:15.91Z</time></trkpt><trkpt lat="46.3785817" lon="12.3586586"><ele>572.0</ele><time>2026-03-29T09:02:16.931Z</time></trkpt><trkpt lat="46.3787999" lon="12.3585739"><ele>575.3333333333333</ele><time>2026-03-29T09:02:17.93Z</time></trkpt><trkpt lat="46.3790157" lon="12.3584921"><ele>578.6666666666666</ele><time>2026-03-29T09:02:18.911Z</time></trkpt><trkpt lat="46.3792288" lon="12.3584138"><ele>582.0</ele><time>2026-03-29T09:02:19.935Z</time></trkpt><trkpt lat="46.3794326" lon="12.3583357"><ele>582.0</ele><time>2026-03-29T09:02:20.918Z</time></trkpt><trkpt lat="46.3796155" lon="12.3582498"><ele>582.0</ele><time>2026-03-29T09:02:21.916Z</time></trkpt><trkpt lat="46.3798222" lon="12.3581609"><ele>582.0</ele><time>2026-03-29T09:02:22.932Z</time></trkpt><trkpt lat="46.3800235" lon="12.3580765"><ele>582.6666666666666</ele><time>2026-03-29T09:02:23.94Z</time></trkpt><trkpt lat="46.3802186" lon="12.3579986"><ele>583.3333333333333</ele><time>2026-03-29T09:02:24.912Z</time></trkpt><trkpt lat="46.3804185" lon="12.3579259"><ele>584.0</ele><time>2026-03-29T09:02:25.913Z</time></trkpt><trkpt lat="46.3806196" lon="12.3578663"><ele>584.0</ele><time>2026-03-29T09:02:26.899Z</time></trkpt><trkpt lat="46.3808216" lon="12.3578337"><ele>584.0</ele><time>2026-03-29T09:02:27.923Z</time></trkpt><trkpt lat="46.3810231" lon="12.357831"><ele>584.0</ele><time>2026-03-29T09:02:28.907Z</time></trkpt><trkpt lat="46.3812321" lon="12.3578414"><ele>589.0</ele><time>2026-03-29T09:02:29.909Z</time></trkpt><trkpt lat="46.3814381" lon="12.3578695"><ele>594.0</ele><time>2026-03-29T09:02:30.918Z</time></trkpt><trkpt lat="46.381617" lon="12.3579341"><ele>599.0</ele><time>2026-03-29T09:02:31.931Z</time></trkpt><trkpt lat="46.3817959" lon="12.3580287"><ele>602.75</ele><time>2026-03-29T09:02:32.914Z</time></trkpt><trkpt lat="46.3819939" lon="12.3581386"><ele>606.5</ele><time>2026-03-29T09:02:33.919Z</time></trkpt><trkpt lat="46.3820829" lon="12.3581955"><ele>610.25</ele><time>2026-03-29T09:02:34.913Z</time></trkpt><trkpt lat="46.3821956" lon="12.3582621"><ele>614.0</ele><time>2026-03-29T09:02:35.935Z</time></trkpt><trkpt lat="46.3822983" lon="12.3583241"><ele>617.8</ele><time>2026-03-29T09:02:36.908Z</time></trkpt><trkpt lat="46.3824033" lon="12.3583882"><ele>621.5999999999999</ele><time>2026-03-29T09:02:37.916Z</time></trkpt><trkpt lat="46.3824965" lon="12.3584477"><ele>625.4</ele><time>2026-03-29T09:02:38.926Z</time></trkpt><trkpt lat="46.3825821" lon="12.3585029"><ele>629.1999999999999</ele><time>2026-03-29T09:02:39.916Z</time></trkpt><trkpt lat="46.3826654" lon="12.3585564"><ele>633.0</ele><time>2026-03-29T09:02:40.91Z</time></trkpt><trkpt lat="46.3827367" lon="12.3586023"><ele>633.0</ele><time>2026-03-29T09:02:41.915Z</time></trkpt><trkpt lat="46.3827977" lon="12.3586409"><ele>633.0</ele><time>2026-03-29T09:02:42.928Z</time></trkpt><trkpt lat="46.3828655" lon="12.358689"><ele>633.0</ele><time>2026-03-29T09:02:44.904Z</time></trkpt><trkpt lat="46.3826912" lon="12.3585842"><ele>633.0</ele><time>2026-03-29T09:02:47.928Z</time></trkpt><trkpt lat="46.382616" lon="12.358578"><ele>633.0</ele><time>2026-03-29T09:02:55.902Z</time></trkpt><trkpt lat="46.3824914" lon="12.3584962"><ele>633.0</ele><time>2026-03-29T09:03:00.91Z</time></trkpt><trkpt lat="46.3824252" lon="12.3584916"><ele>633.0</ele><time>2026-03-29T09:03:09.919Z</time></trkpt><trkpt lat="46.3823627" lon="12.3584569"><ele>633.0</ele><time>2026-03-29T09:03:12.915Z</time></trkpt><trkpt lat="46.3824327" lon="12.3586424"><ele>633.0</ele><time>2026-03-29T09:03:34.907Z</time></trkpt><trkpt lat="46.3824987" lon="12.3587987"><ele>633.0</ele><time>2026-03-29T09:03:37.927Z</time></trkpt><trkpt lat="46.3825387" lon="12.3589147"><ele>639.6666666666666</ele><time>2026-03-29T09:03:38.889Z</time></trkpt><trkpt lat="46.3825668" lon="12.3590022"><ele>646.3333333333333</ele><time>2026-03-29T09:03:39.904Z</time></trkpt><trkpt lat="46.3826018" lon="12.359116"><ele>653.0</ele><time>2026-03-29T09:03:41.899Z</time></trkpt><trkpt lat="46.3827609" lon="12.359645"><ele>664.5</ele><time>2026-03-29T09:03:47.908Z</time></trkpt><trkpt lat="46.3829426" lon="12.3601784"><ele>676.0</ele><time>2026-03-29T09:03:48.9Z</time></trkpt><trkpt lat="46.3830743" lon="12.3604807"><ele>694.0</ele><time>2026-03-29T09:03:49.889Z</time></trkpt><trkpt lat="46.3831947" lon="12.3606988"><ele>712.0</ele><time>2026-03-29T09:03:50.9Z</time></trkpt><trkpt lat="46.3832962" lon="12.3608422"><ele>730.0</ele><time>2026-03-29T09:03:51.888Z</time></trkpt><trkpt lat="46.3833955" lon="12.3609616"><ele>730.0</ele><time>2026-03-29T09:03:52.884Z</time></trkpt><trkpt lat="46.3834915" lon="12.3610602"><ele>730.0</ele><time>2026-03-29T09:03:53.894Z</time></trkpt><trkpt lat="46.383575" lon="12.3611342"><ele>730.0</ele><time>2026-03-29T09:03:54.884Z</time></trkpt><trkpt lat="46.3836681" lon="12.3612284"><ele>730.0</ele><time>2026-03-29T09:03:55.899Z</time></trkpt><trkpt lat="46.3837631" lon="12.3613286"><ele>730.0</ele><time>2026-03-29T09:03:56.896Z</time></trkpt><trkpt lat="46.3838479" lon="12.361415"><ele>747.8</ele><time>2026-03-29T09:03:57.907Z</time></trkpt><trkpt lat="46.383921" lon="12.3614848"><ele>765.6</ele><time>2026-03-29T09:03:58.891Z</time></trkpt><trkpt lat="46.3840072" lon="12.3615731"><ele>783.4000000000001</ele><time>2026-03-29T09:03:59.895Z</time></trkpt><trkpt lat="46.3841042" lon="12.3616718"><ele>801.2</ele><time>2026-03-29T09:04:00.91Z</time></trkpt><trkpt lat="46.3841745" lon="12.3617361"><ele>819.0</ele><time>2026-03-29T09:04:01.891Z</time></trkpt><trkpt lat="46.3842471" lon="12.3618015"><ele>819.0</ele><time>2026-03-29T09:04:02.908Z</time></trkpt><trkpt lat="46.3843028" lon="12.3618474"><ele>819.0</ele><time>2026-03-29T09:04:03.94Z</time></trkpt><trkpt lat="46.3836972" lon="12.3611682"><ele>836.0</ele><time>2026-03-29T09:04:10.91Z</time></trkpt><trkpt lat="46.3851378" lon="12.3623453"><ele>836.0</ele><time>2026-03-29T09:04:16.901Z</time></trkpt><trkpt lat="46.3853104" lon="12.3624293"><ele>836.0</ele><time>2026-03-29T09:04:17.883Z</time></trkpt><trkpt lat="46.3854356" lon="12.362458"><ele>836.0</ele><time>2026-03-29T09:04:18.897Z</time></trkpt><trkpt lat="46.3855944" lon="12.362493"><ele>833.0</ele><time>2026-03-29T09:04:19.889Z</time></trkpt><trkpt lat="46.3857514" lon="12.3625051"><ele>830.0</ele><time>2026-03-29T09:04:20.886Z</time></trkpt><trkpt lat="46.3859022" lon="12.3624797"><ele>827.0</ele><time>2026-03-29T09:04:21.891Z</time></trkpt><trkpt lat="46.3984592" lon="12.3713474"><ele>631.0</ele><time>2026-03-29T09:04:34.889Z</time></trkpt><trkpt lat="46.4051364" lon="12.3725179"><ele>672.0</ele><time>2026-03-29T09:04:39.921Z</time></trkpt><trkpt lat="46.4058367" lon="12.3694106"><ele>672.0</ele><time>2026-03-29T09:04:42.895Z</time></trkpt><trkpt lat="46.4057644" lon="12.3694266"><ele>672.0</ele><time>2026-03-29T09:04:47.91Z</time></trkpt><trkpt lat="46.406023" lon="12.3692044"><ele>672.0</ele><time>2026-03-29T09:04:48.909Z</time></trkpt><trkpt lat="46.4061999" lon="12.369072"><ele>674.0</ele><time>2026-03-29T09:04:49.91Z</time></trkpt><trkpt lat="46.4063716" lon="12.3689353"><ele>676.0</ele><time>2026-03-29T09:04:50.945Z</time></trkpt><trkpt lat="46.4065353" lon="12.3687965"><ele>678.0</ele><time>2026-03-29T09:04:51.92Z</time></trkpt><trkpt lat="46.406705" lon="12.3686556"><ele>685.3333333333334</ele><time>2026-03-29T09:04:52.925Z</time></trkpt><trkpt lat="46.4068717" lon="12.3685182"><ele>692.6666666666667</ele><time>2026-03-29T09:04:53.911Z</time></trkpt><trkpt lat="46.4070361" lon="12.3683837"><ele>700.0</ele><time>2026-03-29T09:04:54.913Z</time></trkpt><trkpt lat="46.407199" lon="12.3682465"><ele>702.0</ele><time>2026-03-29T09:04:55.917Z</time></trkpt><trkpt lat="46.407361" lon="12.3681046"><ele>704.0</ele><time>2026-03-29T09:04:56.914Z</time></trkpt><trkpt lat="46.4075227" lon="12.3679613"><ele>706.0</ele><time>2026-03-29T09:04:57.929Z</time></trkpt><trkpt lat="46.4076841" lon="12.3678199"><ele>713.3333333333334</ele><time>2026-03-29T09:04:58.922Z</time></trkpt><trkpt lat="46.4078467" lon="12.3676823"><ele>720.6666666666666</ele><time>2026-03-29T09:04:59.93Z</time></trkpt><trkpt lat="46.4080099" lon="12.3675461"><ele>728.0</ele><time>2026-03-29T09:05:00.924Z</time></trkpt><trkpt lat="46.4081712" lon="12.3674131"><ele>728.0</ele><time>2026-03-29T09:05:01.915Z</time></trkpt><trkpt lat="46.4083326" lon="12.3672907"><ele>728.0</ele><time>2026-03-29T09:05:02.918Z</time></trkpt><trkpt lat="46.4084981" lon="12.3671882"><ele>728.0</ele><time>2026-03-29T09:05:03.936Z</time></trkpt><trkpt lat="46.4086767" lon="12.3671192"><ele>738.6666666666666</ele><time>2026-03-29T09:05:04.939Z</time></trkpt><trkpt lat="46.4088626" lon="12.3670834"><ele>749.3333333333334</ele><time>2026-03-29T09:05:05.924Z</time></trkpt><trkpt lat="46.4090533" lon="12.3670863"><ele>760.0</ele><time>2026-03-29T09:05:06.914Z</time></trkpt><trkpt lat="46.4092447" lon="12.3671265"><ele>758.3333333333334</ele><time>2026-03-29T09:05:07.92Z</time></trkpt><trkpt lat="46.4094362" lon="12.3672013"><ele>756.6666666666666</ele><time>2026-03-29T09:05:08.907Z</time></trkpt><trkpt lat="46.4096293" lon="12.3672857"><ele>755.0</ele><time>2026-03-29T09:05:09.911Z</time></trkpt><trkpt lat="46.40981" lon="12.3674204"><ele>755.0</ele><time>2026-03-29T09:05:10.91Z</time></trkpt><trkpt lat="46.4099813" lon="12.3675803"><ele>755.0</ele><time>2026-03-29T09:05:11.912Z</time></trkpt><trkpt lat="46.4101484" lon="12.3677567"><ele>755.0</ele><time>2026-03-29T09:05:12.901Z</time></trkpt><trkpt lat="46.4103126" lon="12.3679322"><ele>755.3333333333333</ele><time>2026-03-29T09:05:13.92Z</time></trkpt><trkpt lat="46.4104774" lon="12.3681073"><ele>755.6666666666666</ele><time>2026-03-29T09:05:14.918Z</time></trkpt><trkpt lat="46.410646" lon="12.3682745"><ele>756.0</ele><time>2026-03-29T09:05:15.921Z</time></trkpt><trkpt lat="46.4108164" lon="12.3684236"><ele>756.0</ele><time>2026-03-29T09:05:16.913Z</time></trkpt><trkpt lat="46.4109934" lon="12.3685589"><ele>756.0</ele><time>2026-03-29T09:05:17.919Z</time></trkpt><trkpt lat="46.4111825" lon="12.3686705"><ele>756.0</ele><time>2026-03-29T09:05:18.917Z</time></trkpt><trkpt lat="46.4113767" lon="12.3687693"><ele>754.6666666666666</ele><time>2026-03-29T09:05:19.921Z</time></trkpt><trkpt lat="46.4115646" lon="12.3688585"><ele>753.3333333333333</ele><time>2026-03-29T09:05:20.922Z</time></trkpt><trkpt lat="46.411752" lon="12.3689492"><ele>752.0</ele><time>2026-03-29T09:05:21.905Z</time></trkpt><trkpt lat="46.4119395" lon="12.3690426"><ele>752.0</ele><time>2026-03-29T09:05:22.926Z</time></trkpt><trkpt lat="46.4121275" lon="12.3691381"><ele>752.0</ele><time>2026-03-29T09:05:23.92Z</time></trkpt><trkpt lat="46.4123206" lon="12.3692311"><ele>752.0</ele><time>2026-03-29T09:05:24.923Z</time></trkpt><trkpt lat="46.4125151" lon="12.3693288"><ele>757.0</ele><time>2026-03-29T09:05:25.917Z</time></trkpt><trkpt lat="46.412712" lon="12.3694367"><ele>762.0</ele><time>2026-03-29T09:05:26.938Z</time></trkpt><trkpt lat="46.4129022" lon="12.3695609"><ele>767.0</ele><time>2026-03-29T09:05:27.915Z</time></trkpt><trkpt lat="46.413085" lon="12.3697149"><ele>768.0</ele><time>2026-03-29T09:05:28.925Z</time></trkpt><trkpt lat="46.4132512" lon="12.3698963"><ele>769.0</ele><time>2026-03-29T09:05:29.925Z</time></trkpt><trkpt lat="46.4134223" lon="12.3700861"><ele>770.0</ele><time>2026-03-29T09:05:30.919Z</time></trkpt><trkpt lat="46.4135935" lon="12.3702751"><ele>770.0</ele><time>2026-03-29T09:05:31.921Z</time></trkpt><trkpt lat="46.4137674" lon="12.3704653"><ele>770.0</ele><time>2026-03-29T09:05:32.922Z</time></trkpt><trkpt lat="46.4139451" lon="12.3706533"><ele>770.0</ele><time>2026-03-29T09:05:33.928Z</time></trkpt><trkpt lat="46.4141215" lon="12.3708355"><ele>772.3333333333334</ele><time>2026-03-29T09:05:34.915Z</time></trkpt><trkpt lat="46.4142961" lon="12.3710165"><ele>774.6666666666667</ele><time>2026-03-29T09:05:35.921Z</time></trkpt><trkpt lat="46.4144674" lon="12.3711979"><ele>777.0</ele><time>2026-03-29T09:05:36.92Z</time></trkpt><trkpt lat="46.4146314" lon="12.3713932"><ele>779.3333333333333</ele><time>2026-03-29T09:05:37.918Z</time></trkpt><trkpt lat="46.4147862" lon="12.3716049"><ele>781.6666666666666</ele><time>2026-03-29T09:05:38.927Z</time></trkpt><trkpt lat="46.4149268" lon="12.3718351"><ele>784.0</ele><time>2026-03-29T09:05:39.917Z</time></trkpt><trkpt lat="46.4150628" lon="12.3720654"><ele>788.3333333333333</ele><time>2026-03-29T09:05:40.936Z</time></trkpt><trkpt lat="46.415204" lon="12.3722864"><ele>792.6666666666667</ele><time>2026-03-29T09:05:41.91Z</time></trkpt><trkpt lat="46.4153597" lon="12.3724823"><ele>797.0</ele><time>2026-03-29T09:05:42.909Z</time></trkpt><trkpt lat="46.4155338" lon="12.3726624"><ele>797.0</ele><time>2026-03-29T09:05:43.914Z</time></trkpt><trkpt lat="46.4157089" lon="12.3728243"><ele>797.0</ele><time>2026-03-29T09:05:44.924Z</time></trkpt><trkpt lat="46.415884" lon="12.3729874"><ele>797.0</ele><time>2026-03-29T09:05:45.937Z</time></trkpt><trkpt lat="46.4160627" lon="12.373148"><ele>796.0</ele><time>2026-03-29T09:05:46.933Z</time></trkpt><trkpt lat="46.4162379" lon="12.3733078"><ele>795.0</ele><time>2026-03-29T09:05:47.938Z</time></trkpt><trkpt lat="46.4164111" lon="12.3734664"><ele>794.0</ele><time>2026-03-29T09:05:48.912Z</time></trkpt><trkpt lat="46.4165821" lon="12.3736251"><ele>794.0</ele><time>2026-03-29T09:05:49.913Z</time></trkpt><trkpt lat="46.4167547" lon="12.3737823"><ele>794.0</ele><time>2026-03-29T09:05:50.914Z</time></trkpt><trkpt lat="46.4169257" lon="12.3739366"><ele>794.0</ele><time>2026-03-29T09:05:51.916Z</time></trkpt><trkpt lat="46.4170931" lon="12.3740871"><ele>794.3333333333334</ele><time>2026-03-29T09:05:52.917Z</time></trkpt><trkpt lat="46.417256" lon="12.3742328"><ele>794.6666666666667</ele><time>2026-03-29T09:05:53.941Z</time></trkpt><trkpt lat="46.4174224" lon="12.3743678"><ele>795.0</ele><time>2026-03-29T09:05:54.912Z</time></trkpt><trkpt lat="46.4175887" lon="12.3744716"><ele>795.0</ele><time>2026-03-29T09:05:55.918Z</time></trkpt><trkpt lat="46.4177675" lon="12.3745224"><ele>795.0</ele><time>2026-03-29T09:05:56.918Z</time></trkpt><trkpt lat="46.4179525" lon="12.3745207"><ele>795.0</ele><time>2026-03-29T09:05:57.92Z</time></trkpt><trkpt lat="46.4181485" lon="12.374495"><ele>798.0</ele><time>2026-03-29T09:05:58.912Z</time></trkpt><trkpt lat="46.4183491" lon="12.3744553"><ele>801.0</ele><time>2026-03-29T09:05:59.925Z</time></trkpt><trkpt lat="46.4185488" lon="12.3744068"><ele>804.0</ele><time>2026-03-29T09:06:00.926Z</time></trkpt><trkpt lat="46.4187462" lon="12.3743569"><ele>803.3333333333333</ele><time>2026-03-29T09:06:01.917Z</time></trkpt><trkpt lat="46.4189341" lon="12.374304"><ele>802.6666666666666</ele><time>2026-03-29T09:06:02.932Z</time></trkpt><trkpt lat="46.4191138" lon="12.3742208"><ele>802.0</ele><time>2026-03-29T09:06:03.917Z</time></trkpt><trkpt lat="46.4192786" lon="12.3740992"><ele>802.0</ele><time>2026-03-29T09:06:04.92Z</time></trkpt><trkpt lat="46.4194142" lon="12.3739184"><ele>802.0</ele><time>2026-03-29T09:06:05.916Z</time></trkpt><trkpt lat="46.4195278" lon="12.3736885"><ele>802.0</ele><time>2026-03-29T09:06:06.904Z</time></trkpt><trkpt lat="46.4196199" lon="12.3734301"><ele>801.0</ele><time>2026-03-29T09:06:07.909Z</time></trkpt><trkpt lat="46.419673" lon="12.3731303"><ele>800.0</ele><time>2026-03-29T09:06:08.906Z</time></trkpt><trkpt lat="46.4197254" lon="12.3728275"><ele>799.0</ele><time>2026-03-29T09:06:09.912Z</time></trkpt><trkpt lat="46.41978" lon="12.3725267"><ele>799.0</ele><time>2026-03-29T09:06:10.911Z</time></trkpt><trkpt lat="46.4198343" lon="12.3722308"><ele>799.0</ele><time>2026-03-29T09:06:11.911Z</time></trkpt><trkpt lat="46.4198852" lon="12.3719397"><ele>799.0</ele><time>2026-03-29T09:06:12.915Z</time></trkpt><trkpt lat="46.4199287" lon="12.3716526"><ele>802.3333333333333</ele><time>2026-03-29T09:06:13.907Z</time></trkpt><trkpt lat="46.4199575" lon="12.371367"><ele>805.6666666666667</ele><time>2026-03-29T09:06:14.904Z</time></trkpt><trkpt lat="46.4199731" lon="12.3710805"><ele>809.0</ele><time>2026-03-29T09:06:15.92Z</time></trkpt><trkpt lat="46.4199774" lon="12.3707776"><ele>810.6666666666667</ele><time>2026-03-29T09:06:16.912Z</time></trkpt><trkpt lat="46.419977" lon="12.3704734"><ele>812.3333333333333</ele><time>2026-03-29T09:06:17.932Z</time></trkpt><trkpt lat="46.4199758" lon="12.3701711"><ele>814.0</ele><time>2026-03-29T09:06:18.916Z</time></trkpt><trkpt lat="46.4199767" lon="12.3698757"><ele>816.0</ele><time>2026-03-29T09:06:19.933Z</time></trkpt><trkpt lat="46.4199766" lon="12.3695921"><ele>818.0</ele><time>2026-03-29T09:06:20.914Z</time></trkpt><trkpt lat="46.4199761" lon="12.3693103"><ele>820.0</ele><time>2026-03-29T09:06:21.905Z</time></trkpt><trkpt lat="46.4199757" lon="12.3690457"><ele>820.0</ele><time>2026-03-29T09:06:22.913Z</time></trkpt><trkpt lat="46.4199738" lon="12.3687857"><ele>820.0</ele><time>2026-03-29T09:06:23.916Z</time></trkpt><trkpt lat="46.4199731" lon="12.3685393"><ele>820.0</ele><time>2026-03-29T09:06:24.912Z</time></trkpt><trkpt lat="46.4199805" lon="12.3683093"><ele>820.0</ele><time>2026-03-29T09:06:25.907Z</time></trkpt><trkpt lat="46.4199978" lon="12.3680975"><ele>820.0</ele><time>2026-03-29T09:06:26.905Z</time></trkpt><trkpt lat="46.420026" lon="12.367906"><ele>820.0</ele><time>2026-03-29T09:06:27.912Z</time></trkpt><trkpt lat="46.4200611" lon="12.3677416"><ele>820.0</ele><time>2026-03-29T09:06:28.893Z</time></trkpt><trkpt lat="46.4201053" lon="12.3676129"><ele>820.6</ele><time>2026-03-29T09:06:29.936Z</time></trkpt><trkpt lat="46.4201601" lon="12.367518"><ele>821.2</ele><time>2026-03-29T09:06:30.913Z</time></trkpt><trkpt lat="46.42021" lon="12.3674513"><ele>821.8</ele><time>2026-03-29T09:06:31.923Z</time></trkpt><trkpt lat="46.4203186" lon="12.3673812"><ele>822.4</ele><time>2026-03-29T09:06:33.93Z</time></trkpt><trkpt lat="46.4204284" lon="12.3673332"><ele>823.0</ele><time>2026-03-29T09:06:35.914Z</time></trkpt><trkpt lat="46.4205375" lon="12.3672346"><ele>822.1428571428571</ele><time>2026-03-29T09:06:37.91Z</time></trkpt><trkpt lat="46.4205779" lon="12.3671488"><ele>821.2857142857143</ele><time>2026-03-29T09:06:38.899Z</time></trkpt><trkpt lat="46.4206004" lon="12.3670481"><ele>820.4285714285713</ele><time>2026-03-29T09:06:39.908Z</time></trkpt><trkpt lat="46.4206009" lon="12.3669449"><ele>819.5714285714286</ele><time>2026-03-29T09:06:40.915Z</time></trkpt><trkpt lat="46.4205885" lon="12.3668461"><ele>818.7142857142857</ele><time>2026-03-29T09:06:41.913Z</time></trkpt><trkpt lat="46.4205796" lon="12.3667504"><ele>817.8571428571428</ele><time>2026-03-29T09:06:42.909Z</time></trkpt><trkpt lat="46.4205864" lon="12.3666587"><ele>817.0</ele><time>2026-03-29T09:06:43.921Z</time></trkpt><trkpt lat="46.4206453" lon="12.3665074"><ele>816.9999999999999</ele><time>2026-03-29T09:06:45.913Z</time></trkpt><trkpt lat="46.4207012" lon="12.366464"><ele>817.0</ele><time>2026-03-29T09:06:46.9Z</time></trkpt><trkpt lat="46.4207726" lon="12.3664517"><ele>817.0</ele><time>2026-03-29T09:06:47.909Z</time></trkpt><trkpt lat="46.4208542" lon="12.3664558"><ele>817.0</ele><time>2026-03-29T09:06:48.919Z</time></trkpt><trkpt lat="46.4209395" lon="12.3664673"><ele>816.9999999999999</ele><time>2026-03-29T09:06:49.917Z</time></trkpt><trkpt lat="46.4210213" lon="12.366476"><ele>817.0</ele><time>2026-03-29T09:06:50.902Z</time></trkpt><trkpt lat="46.4211138" lon="12.3664857"><ele>816.9999999999999</ele><time>2026-03-29T09:06:51.909Z</time></trkpt><trkpt lat="46.4212105" lon="12.3665013"><ele>817.0</ele><time>2026-03-29T09:06:52.908Z</time></trkpt><trkpt lat="46.4213009" lon="12.366521"><ele>817.0</ele><time>2026-03-29T09:06:53.919Z</time></trkpt><trkpt lat="46.4213756" lon="12.3665389"><ele>817.0</ele><time>2026-03-29T09:06:54.91Z</time></trkpt><trkpt lat="46.4214463" lon="12.3665534"><ele>816.9999999999999</ele><time>2026-03-29T09:06:55.911Z</time></trkpt><trkpt lat="46.4215437" lon="12.3665705"><ele>817.0</ele><time>2026-03-29T09:06:57.918Z</time></trkpt><trkpt lat="46.421598" lon="12.3666321"><ele>816.9999999999999</ele><time>2026-03-29T09:06:59.927Z</time></trkpt><trkpt lat="46.421642" lon="12.366718"><ele>817.0</ele><time>2026-03-29T09:07:01.929Z</time></trkpt><trkpt lat="46.4217024" lon="12.3668465"><ele>817.0</ele><time>2026-03-29T09:07:06.912Z</time></trkpt><trkpt lat="46.4216818" lon="12.3669462"><ele>817.0</ele><time>2026-03-29T09:07:08.901Z</time></trkpt><trkpt lat="46.4216341" lon="12.3670068"><ele>816.9999999999999</ele><time>2026-03-29T09:07:09.906Z</time></trkpt><trkpt lat="46.4215652" lon="12.3670572"><ele>817.0</ele><time>2026-03-29T09:07:10.902Z</time></trkpt><trkpt lat="46.4214786" lon="12.3671033"><ele>817.0</ele><time>2026-03-29T09:07:11.914Z</time></trkpt><trkpt lat="46.4213818" lon="12.3671515"><ele>817.0</ele><time>2026-03-29T09:07:12.922Z</time></trkpt><trkpt lat="46.4212804" lon="12.3671953"><ele>817.0</ele><time>2026-03-29T09:07:13.924Z</time></trkpt><trkpt lat="46.4211728" lon="12.3672284"><ele>817.0</ele><time>2026-03-29T09:07:14.919Z</time></trkpt><trkpt lat="46.4210564" lon="12.3672283"><ele>817.0</ele><time>2026-03-29T09:07:15.92Z</time></trkpt><trkpt lat="46.4209412" lon="12.3672097"><ele>816.9999999999999</ele><time>2026-03-29T09:07:16.917Z</time></trkpt><trkpt lat="46.4208337" lon="12.3671831"><ele>817.0</ele><time>2026-03-29T09:07:17.916Z</time></trkpt><trkpt lat="46.4207432" lon="12.3671445"><ele>817.0</ele><time>2026-03-29T09:07:18.901Z</time></trkpt><trkpt lat="46.420671" lon="12.3671008"><ele>817.0</ele><time>2026-03-29T09:07:19.906Z</time></trkpt><trkpt lat="46.4206153" lon="12.3670428"><ele>816.9999999999999</ele><time>2026-03-29T09:07:20.908Z</time></trkpt><trkpt lat="46.4205753" lon="12.3669547"><ele>817.0</ele><time>2026-03-29T09:07:21.912Z</time></trkpt><trkpt lat="46.4205327" lon="12.3668645"><ele>819.1428571428571</ele><time>2026-03-29T09:07:22.908Z</time></trkpt><trkpt lat="46.4204823" lon="12.3667873"><ele>821.2857142857142</ele><time>2026-03-29T09:07:23.937Z</time></trkpt><trkpt lat="46.4204167" lon="12.3667424"><ele>823.4285714285713</ele><time>2026-03-29T09:07:24.906Z</time></trkpt><trkpt lat="46.4203456" lon="12.3667299"><ele>825.5714285714286</ele><time>2026-03-29T09:07:25.921Z</time></trkpt><trkpt lat="46.4202693" lon="12.3667279"><ele>827.7142857142858</ele><time>2026-03-29T09:07:26.904Z</time></trkpt><trkpt lat="46.4202046" lon="12.3667746"><ele>829.8571428571428</ele><time>2026-03-29T09:07:27.917Z</time></trkpt><trkpt lat="46.4201554" lon="12.3668464"><ele>832.0</ele><time>2026-03-29T09:07:28.924Z</time></trkpt><trkpt lat="46.420128" lon="12.3669386"><ele>831.9999999999999</ele><time>2026-03-29T09:07:29.911Z</time></trkpt><trkpt lat="46.4201243" lon="12.3670485"><ele>832.0</ele><time>2026-03-29T09:07:30.907Z</time></trkpt><trkpt lat="46.4201582" lon="12.3671575"><ele>832.0</ele><time>2026-03-29T09:07:31.909Z</time></trkpt><trkpt lat="46.4202177" lon="12.3672512"><ele>832.0</ele><time>2026-03-29T09:07:32.923Z</time></trkpt><trkpt lat="46.4203022" lon="12.3673056"><ele>831.9999999999999</ele><time>2026-03-29T09:07:33.91Z</time></trkpt><trkpt lat="46.4203966" lon="12.3673288"><ele>832.0</ele><time>2026-03-29T09:07:34.904Z</time></trkpt><trkpt lat="46.4205085" lon="12.3673322"><ele>826.0</ele><time>2026-03-29T09:07:35.923Z</time></trkpt><trkpt lat="46.4206296" lon="12.3673374"><ele>820.0</ele><time>2026-03-29T09:07:36.91Z</time></trkpt><trkpt lat="46.4207604" lon="12.3673659"><ele>814.0</ele><time>2026-03-29T09:07:37.936Z</time></trkpt><trkpt lat="46.4208914" lon="12.3673911"><ele>808.0</ele><time>2026-03-29T09:07:38.916Z</time></trkpt><trkpt lat="46.4210196" lon="12.367407"><ele>808.0</ele><time>2026-03-29T09:07:39.95Z</time></trkpt><trkpt lat="46.4211481" lon="12.3674053"><ele>808.0</ele><time>2026-03-29T09:07:40.923Z</time></trkpt><trkpt lat="46.4212821" lon="12.3673763"><ele>808.0</ele><time>2026-03-29T09:07:41.927Z</time></trkpt><trkpt lat="46.4214177" lon="12.367314"><ele>808.0</ele><time>2026-03-29T09:07:42.906Z</time></trkpt><trkpt lat="46.4215466" lon="12.3672201"><ele>810.25</ele><time>2026-03-29T09:07:43.909Z</time></trkpt><trkpt lat="46.4216667" lon="12.3671047"><ele>812.5</ele><time>2026-03-29T09:07:44.908Z</time></trkpt><trkpt lat="46.4217735" lon="12.3669649"><ele>814.75</ele><time>2026-03-29T09:07:45.911Z</time></trkpt><trkpt lat="46.4218765" lon="12.3668184"><ele>817.0</ele><time>2026-03-29T09:07:46.92Z</time></trkpt><trkpt lat="46.4219744" lon="12.3666677"><ele>817.0</ele><time>2026-03-29T09:07:47.923Z</time></trkpt><trkpt lat="46.4220671" lon="12.3665127"><ele>817.0</ele><time>2026-03-29T09:07:48.918Z</time></trkpt><trkpt lat="46.4221579" lon="12.3663547"><ele>817.0</ele><time>2026-03-29T09:07:49.938Z</time></trkpt><trkpt lat="46.4222632" lon="12.3662155"><ele>817.0</ele><time>2026-03-29T09:07:50.92Z</time></trkpt><trkpt lat="46.422367" lon="12.3660629"><ele>817.5</ele><time>2026-03-29T09:07:51.93Z</time></trkpt><trkpt lat="46.4224672" lon="12.3659077"><ele>818.0</ele><time>2026-03-29T09:07:52.922Z</time></trkpt><trkpt lat="46.4225593" lon="12.3657527"><ele>818.5</ele><time>2026-03-29T09:07:53.932Z</time></trkpt><trkpt lat="46.4226462" lon="12.3656059"><ele>819.0</ele><time>2026-03-29T09:07:54.924Z</time></trkpt><trkpt lat="46.4227305" lon="12.3654848"><ele>819.1666666666666</ele><time>2026-03-29T09:07:55.926Z</time></trkpt><trkpt lat="46.4228049" lon="12.365387"><ele>819.3333333333333</ele><time>2026-03-29T09:07:56.927Z</time></trkpt><trkpt lat="46.4228716" lon="12.3653051"><ele>819.5</ele><time>2026-03-29T09:07:57.913Z</time></trkpt><trkpt lat="46.4229507" lon="12.3652619"><ele>819.6666666666666</ele><time>2026-03-29T09:07:58.92Z</time></trkpt><trkpt lat="46.4230335" lon="12.3652418"><ele>819.8333333333333</ele><time>2026-03-29T09:07:59.919Z</time></trkpt><trkpt lat="46.4231165" lon="12.36523"><ele>820.0</ele><time>2026-03-29T09:08:00.91Z</time></trkpt><trkpt lat="46.4232022" lon="12.3652204"><ele>820.0</ele><time>2026-03-29T09:08:01.928Z</time></trkpt><trkpt lat="46.4232931" lon="12.3652003"><ele>820.0</ele><time>2026-03-29T09:08:02.911Z</time></trkpt><trkpt lat="46.4233878" lon="12.3651687"><ele>820.0</ele><time>2026-03-29T09:08:03.91Z</time></trkpt><trkpt lat="46.4234872" lon="12.3651304"><ele>820.0</ele><time>2026-03-29T09:08:04.935Z</time></trkpt><trkpt lat="46.423592" lon="12.3650907"><ele>820.0</ele><time>2026-03-29T09:08:05.914Z</time></trkpt><trkpt lat="46.4237027" lon="12.3650491"><ele>820.75</ele><time>2026-03-29T09:08:06.933Z</time></trkpt><trkpt lat="46.4238153" lon="12.3650063"><ele>821.5</ele><time>2026-03-29T09:08:07.919Z</time></trkpt><trkpt lat="46.4239293" lon="12.3649635"><ele>822.25</ele><time>2026-03-29T09:08:08.934Z</time></trkpt><trkpt lat="46.4240461" lon="12.364919"><ele>823.0</ele><time>2026-03-29T09:08:09.911Z</time></trkpt><trkpt lat="46.4241667" lon="12.3648855"><ele>823.0</ele><time>2026-03-29T09:08:10.924Z</time></trkpt><trkpt lat="46.4242906" lon="12.3648663"><ele>823.0</ele><time>2026-03-29T09:08:11.906Z</time></trkpt><trkpt lat="46.4244165" lon="12.3648661"><ele>823.0</ele><time>2026-03-29T09:08:12.911Z</time></trkpt><trkpt lat="46.4245439" lon="12.3648863"><ele>823.0</ele><time>2026-03-29T09:08:13.942Z</time></trkpt><trkpt lat="46.4246726" lon="12.3649289"><ele>826.0</ele><time>2026-03-29T09:08:14.91Z</time></trkpt><trkpt lat="46.424799" lon="12.3649764"><ele>829.0</ele><time>2026-03-29T09:08:15.921Z</time></trkpt><trkpt lat="46.4249167" lon="12.3650548"><ele>832.0</ele><time>2026-03-29T09:08:16.917Z</time></trkpt><trkpt lat="46.4250279" lon="12.3651671"><ele>835.0</ele><time>2026-03-29T09:08:17.915Z</time></trkpt><trkpt lat="46.4251297" lon="12.3653038"><ele>835.0</ele><time>2026-03-29T09:08:18.917Z</time></trkpt><trkpt lat="46.4252182" lon="12.3654771"><ele>835.0</ele><time>2026-03-29T09:08:19.918Z</time></trkpt><trkpt lat="46.4252884" lon="12.3656645"><ele>835.0</ele><time>2026-03-29T09:08:20.919Z</time></trkpt><trkpt lat="46.4253464" lon="12.3658628"><ele>835.0</ele><time>2026-03-29T09:08:21.908Z</time></trkpt><trkpt lat="46.4253799" lon="12.3660741"><ele>835.0</ele><time>2026-03-29T09:08:22.924Z</time></trkpt><trkpt lat="46.4254001" lon="12.3662865"><ele>835.0</ele><time>2026-03-29T09:08:23.926Z</time></trkpt><trkpt lat="46.4250965" lon="12.3655039"><ele>828.0</ele><time>2026-03-29T09:08:32.019Z</time></trkpt><trkpt lat="46.4249823" lon="12.3698387"><ele>828.0</ele><time>2026-03-29T09:08:37.888Z</time></trkpt><trkpt lat="46.4250139" lon="12.3700051"><ele>828.0</ele><time>2026-03-29T09:08:38.918Z</time></trkpt><trkpt lat="46.4250152" lon="12.3702446"><ele>828.0</ele><time>2026-03-29T09:08:39.935Z</time></trkpt><trkpt lat="46.4250708" lon="12.3705075"><ele>826.6666666666667</ele><time>2026-03-29T09:08:40.925Z</time></trkpt><trkpt lat="46.425105" lon="12.3707535"><ele>825.3333333333334</ele><time>2026-03-29T09:08:41.924Z</time></trkpt><trkpt lat="46.4251562" lon="12.371008"><ele>824.0</ele><time>2026-03-29T09:08:42.914Z</time></trkpt><trkpt lat="46.4252032" lon="12.3712495"><ele>828.0</ele><time>2026-03-29T09:08:43.917Z</time></trkpt><trkpt lat="46.424998" lon="12.3702484"><ele>834.0</ele><time>2026-03-29T09:08:54.013Z</time></trkpt><trkpt lat="46.4304489" lon="12.3792648"><ele>833.0</ele><time>2026-03-29T09:09:25.886Z</time></trkpt><trkpt lat="46.4305883" lon="12.379278"><ele>832.0</ele><time>2026-03-29T09:09:26.905Z</time></trkpt><trkpt lat="46.4307875" lon="12.3793824"><ele>831.0</ele><time>2026-03-29T09:09:27.909Z</time></trkpt><trkpt lat="46.4309769" lon="12.3794291"><ele>831.0</ele><time>2026-03-29T09:09:28.925Z</time></trkpt><trkpt lat="46.4311626" lon="12.3794693"><ele>831.0</ele><time>2026-03-29T09:09:29.943Z</time></trkpt><trkpt lat="46.431348" lon="12.3795106"><ele>831.0</ele><time>2026-03-29T09:09:30.913Z</time></trkpt><trkpt lat="46.4315369" lon="12.3795572"><ele>835.6666666666667</ele><time>2026-03-29T09:09:31.954Z</time></trkpt><trkpt lat="46.4317221" lon="12.3796004"><ele>840.3333333333334</ele><time>2026-03-29T09:09:32.935Z</time></trkpt><trkpt lat="46.4319052" lon="12.3796317"><ele>845.0</ele><time>2026-03-29T09:09:33.921Z</time></trkpt><trkpt lat="46.4320842" lon="12.379655"><ele>843.6666666666667</ele><time>2026-03-29T09:09:34.965Z</time></trkpt><trkpt lat="46.4322622" lon="12.3796307"><ele>842.3333333333333</ele><time>2026-03-29T09:09:35.906Z</time></trkpt><trkpt lat="46.4324432" lon="12.3796378"><ele>841.0</ele><time>2026-03-29T09:09:36.927Z</time></trkpt><trkpt lat="46.4326245" lon="12.3796317"><ele>841.0</ele><time>2026-03-29T09:09:37.925Z</time></trkpt><trkpt lat="46.4328041" lon="12.3795715"><ele>841.0</ele><time>2026-03-29T09:09:38.935Z</time></trkpt><trkpt lat="46.4329797" lon="12.3795301"><ele>841.0</ele><time>2026-03-29T09:09:39.934Z</time></trkpt><trkpt lat="46.4331518" lon="12.3794903"><ele>837.0</ele><time>2026-03-29T09:09:40.927Z</time></trkpt><trkpt lat="46.4333194" lon="12.3794381"><ele>833.0</ele><time>2026-03-29T09:09:41.927Z</time></trkpt><trkpt lat="46.4334875" lon="12.3793727"><ele>829.0</ele><time>2026-03-29T09:09:42.919Z</time></trkpt><trkpt lat="46.4336581" lon="12.3793077"><ele>824.0</ele><time>2026-03-29T09:09:43.947Z</time></trkpt><trkpt lat="46.4338218" lon="12.3792344"><ele>819.0</ele><time>2026-03-29T09:09:44.924Z</time></trkpt><trkpt lat="46.4339729" lon="12.3791495"><ele>814.0</ele><time>2026-03-29T09:09:45.93Z</time></trkpt><trkpt lat="46.4341226" lon="12.3790554"><ele>814.0</ele><time>2026-03-29T09:09:46.915Z</time></trkpt><trkpt lat="46.4342708" lon="12.3789605"><ele>814.0</ele><time>2026-03-29T09:09:47.942Z</time></trkpt><trkpt lat="46.4344144" lon="12.3788459"><ele>814.0</ele><time>2026-03-29T09:09:48.924Z</time></trkpt><trkpt lat="46.4345629" lon="12.3787413"><ele>818.3333333333333</ele><time>2026-03-29T09:09:49.932Z</time></trkpt><trkpt lat="46.4347129" lon="12.3786466"><ele>822.6666666666667</ele><time>2026-03-29T09:09:50.915Z</time></trkpt><trkpt lat="46.434855" lon="12.3785476"><ele>827.0</ele><time>2026-03-29T09:09:51.912Z</time></trkpt><trkpt lat="46.4350077" lon="12.3784803"><ele>827.0</ele><time>2026-03-29T09:09:52.914Z</time></trkpt><trkpt lat="46.435163" lon="12.3784423"><ele>827.0</ele><time>2026-03-29T09:09:53.909Z</time></trkpt><trkpt lat="46.4353212" lon="12.3784407"><ele>827.0</ele><time>2026-03-29T09:09:54.907Z</time></trkpt><trkpt lat="46.4354742" lon="12.3784795"><ele>825.0</ele><time>2026-03-29T09:09:55.926Z</time></trkpt><trkpt lat="46.4356173" lon="12.3785694"><ele>823.0</ele><time>2026-03-29T09:09:56.946Z</time></trkpt><trkpt lat="46.4357455" lon="12.3786838"><ele>821.0</ele><time>2026-03-29T09:09:57.931Z</time></trkpt><trkpt lat="46.4358551" lon="12.3788044"><ele>819.0</ele><time>2026-03-29T09:09:58.925Z</time></trkpt><trkpt lat="46.4359491" lon="12.3789225"><ele>816.6</ele><time>2026-03-29T09:09:59.925Z</time></trkpt><trkpt lat="46.4360366" lon="12.3790304"><ele>814.2</ele><time>2026-03-29T09:10:00.925Z</time></trkpt><trkpt lat="46.4361141" lon="12.3791414"><ele>811.8000000000001</ele><time>2026-03-29T09:10:01.919Z</time></trkpt><trkpt lat="46.4361839" lon="12.3792542"><ele>809.4000000000001</ele><time>2026-03-29T09:10:02.911Z</time></trkpt><trkpt lat="46.4362331" lon="12.3793734"><ele>807.0</ele><time>2026-03-29T09:10:03.944Z</time></trkpt><trkpt lat="46.4362662" lon="12.3794955"><ele>807.3333333333334</ele><time>2026-03-29T09:10:04.936Z</time></trkpt><trkpt lat="46.436308" lon="12.3796076"><ele>807.6666666666667</ele><time>2026-03-29T09:10:05.913Z</time></trkpt><trkpt lat="46.4363648" lon="12.3796975"><ele>808.0</ele><time>2026-03-29T09:10:06.917Z</time></trkpt><trkpt lat="46.4364331" lon="12.3797639"><ele>808.3333333333334</ele><time>2026-03-29T09:10:07.922Z</time></trkpt><trkpt lat="46.436518" lon="12.3797883"><ele>808.6666666666667</ele><time>2026-03-29T09:10:08.918Z</time></trkpt><trkpt lat="46.4366135" lon="12.3797769"><ele>809.0</ele><time>2026-03-29T09:10:09.927Z</time></trkpt><trkpt lat="46.4367204" lon="12.3797467"><ele>809.0</ele><time>2026-03-29T09:10:10.916Z</time></trkpt><trkpt lat="46.4368369" lon="12.3797221"><ele>809.0</ele><time>2026-03-29T09:10:11.92Z</time></trkpt><trkpt lat="46.4369641" lon="12.3797237"><ele>809.0</ele><time>2026-03-29T09:10:12.921Z</time></trkpt><trkpt lat="46.437098" lon="12.3797562"><ele>809.0</ele><time>2026-03-29T09:10:13.926Z</time></trkpt><trkpt lat="46.4372367" lon="12.3798103"><ele>810.0</ele><time>2026-03-29T09:10:14.921Z</time></trkpt><trkpt lat="46.4373831" lon="12.379878"><ele>811.0</ele><time>2026-03-29T09:10:15.915Z</time></trkpt><trkpt lat="46.4375386" lon="12.3799557"><ele>812.0</ele><time>2026-03-29T09:10:16.91Z</time></trkpt><trkpt lat="46.4377027" lon="12.3800271"><ele>812.0</ele><time>2026-03-29T09:10:17.928Z</time></trkpt><trkpt lat="46.4378748" lon="12.3800924"><ele>812.0</ele><time>2026-03-29T09:10:18.938Z</time></trkpt><trkpt lat="46.4380538" lon="12.3801425"><ele>812.0</ele><time>2026-03-29T09:10:19.923Z</time></trkpt><trkpt lat="46.4382345" lon="12.3801805"><ele>811.6666666666667</ele><time>2026-03-29T09:10:20.932Z</time></trkpt><trkpt lat="46.4384201" lon="12.3802108"><ele>811.3333333333333</ele><time>2026-03-29T09:10:21.936Z</time></trkpt><trkpt lat="46.4386126" lon="12.3802111"><ele>811.0</ele><time>2026-03-29T09:10:22.91Z</time></trkpt><trkpt lat="46.4388042" lon="12.3801993"><ele>810.0</ele><time>2026-03-29T09:10:23.95Z</time></trkpt><trkpt lat="46.4389901" lon="12.3801782"><ele>809.0</ele><time>2026-03-29T09:10:24.916Z</time></trkpt><trkpt lat="46.439171" lon="12.3801433"><ele>808.0</ele><time>2026-03-29T09:10:25.934Z</time></trkpt><trkpt lat="46.4393517" lon="12.380114"><ele>808.0</ele><time>2026-03-29T09:10:26.939Z</time></trkpt><trkpt lat="46.4395266" lon="12.3800978"><ele>808.0</ele><time>2026-03-29T09:10:27.92Z</time></trkpt><trkpt lat="46.4396947" lon="12.3800971"><ele>808.0</ele><time>2026-03-29T09:10:28.921Z</time></trkpt><trkpt lat="46.4398561" lon="12.3801324"><ele>806.0</ele><time>2026-03-29T09:10:29.915Z</time></trkpt><trkpt lat="46.440007" lon="12.3801983"><ele>804.0</ele><time>2026-03-29T09:10:30.925Z</time></trkpt><trkpt lat="46.4401545" lon="12.3802653"><ele>802.0</ele><time>2026-03-29T09:10:31.933Z</time></trkpt><trkpt lat="46.4402977" lon="12.3803486"><ele>802.0</ele><time>2026-03-29T09:10:32.926Z</time></trkpt><trkpt lat="46.4404418" lon="12.3804252"><ele>802.0</ele><time>2026-03-29T09:10:33.929Z</time></trkpt><trkpt lat="46.4405839" lon="12.3804933"><ele>802.0</ele><time>2026-03-29T09:10:34.931Z</time></trkpt><trkpt lat="46.4407224" lon="12.3805638"><ele>797.25</ele><time>2026-03-29T09:10:35.916Z</time></trkpt><trkpt lat="46.4408587" lon="12.3806295"><ele>792.5</ele><time>2026-03-29T09:10:36.91Z</time></trkpt><trkpt lat="46.4409857" lon="12.3807166"><ele>787.75</ele><time>2026-03-29T09:10:37.932Z</time></trkpt><trkpt lat="46.4411129" lon="12.3807922"><ele>783.0</ele><time>2026-03-29T09:10:38.914Z</time></trkpt><trkpt lat="46.4412473" lon="12.3808457"><ele>784.0</ele><time>2026-03-29T09:10:39.921Z</time></trkpt><trkpt lat="46.4413782" lon="12.3809112"><ele>785.0</ele><time>2026-03-29T09:10:40.906Z</time></trkpt><trkpt lat="46.4415049" lon="12.3809931"><ele>786.0</ele><time>2026-03-29T09:10:41.907Z</time></trkpt><trkpt lat="46.4416224" lon="12.3811034"><ele>787.0</ele><time>2026-03-29T09:10:42.918Z</time></trkpt><trkpt lat="46.4417305" lon="12.381226"><ele>787.0</ele><time>2026-03-29T09:10:43.921Z</time></trkpt><trkpt lat="46.4418355" lon="12.3813416"><ele>787.0</ele><time>2026-03-29T09:10:44.922Z</time></trkpt><trkpt lat="46.4419376" lon="12.3814615"><ele>787.0</ele><time>2026-03-29T09:10:45.924Z</time></trkpt><trkpt lat="46.4420377" lon="12.3815852"><ele>787.0</ele><time>2026-03-29T09:10:46.936Z</time></trkpt><trkpt lat="46.4421371" lon="12.3817108"><ele>786.5</ele><time>2026-03-29T09:10:47.921Z</time></trkpt><trkpt lat="46.4422351" lon="12.3818442"><ele>786.0</ele><time>2026-03-29T09:10:48.921Z</time></trkpt><trkpt lat="46.4423346" lon="12.381972"><ele>785.5</ele><time>2026-03-29T09:10:49.915Z</time></trkpt><trkpt lat="46.4424258" lon="12.3821138"><ele>785.0</ele><time>2026-03-29T09:10:50.916Z</time></trkpt><trkpt lat="46.4425088" lon="12.3822669"><ele>782.5</ele><time>2026-03-29T09:10:51.913Z</time></trkpt><trkpt lat="46.4425801" lon="12.3824314"><ele>780.0</ele><time>2026-03-29T09:10:52.923Z</time></trkpt><trkpt lat="46.4426371" lon="12.3826039"><ele>777.5</ele><time>2026-03-29T09:10:53.915Z</time></trkpt><trkpt lat="46.4427027" lon="12.3827741"><ele>775.0</ele><time>2026-03-29T09:10:54.917Z</time></trkpt><trkpt lat="46.4427663" lon="12.3829356"><ele>774.25</ele><time>2026-03-29T09:10:55.934Z</time></trkpt><trkpt lat="46.4428282" lon="12.3830905"><ele>773.5</ele><time>2026-03-29T09:10:56.921Z</time></trkpt><trkpt lat="46.4428959" lon="12.383229"><ele>772.75</ele><time>2026-03-29T09:10:57.937Z</time></trkpt><trkpt lat="46.442966" lon="12.3833606"><ele>772.0</ele><time>2026-03-29T09:10:58.931Z</time></trkpt><trkpt lat="46.4430456" lon="12.3834889"><ele>772.25</ele><time>2026-03-29T09:10:59.908Z</time></trkpt><trkpt lat="46.4431299" lon="12.3836229"><ele>772.5</ele><time>2026-03-29T09:11:00.93Z</time></trkpt><trkpt lat="46.4432131" lon="12.3837682"><ele>772.75</ele><time>2026-03-29T09:11:01.916Z</time></trkpt><trkpt lat="46.4433035" lon="12.3839207"><ele>773.0</ele><time>2026-03-29T09:11:02.911Z</time></trkpt><trkpt lat="46.4434025" lon="12.3840764"><ele>773.0</ele><time>2026-03-29T09:11:03.97Z</time></trkpt><trkpt lat="46.4435032" lon="12.3842342"><ele>773.0</ele><time>2026-03-29T09:11:04.941Z</time></trkpt><trkpt lat="46.4436034" lon="12.3843942"><ele>773.0</ele><time>2026-03-29T09:11:05.931Z</time></trkpt><trkpt lat="46.4437062" lon="12.3845551"><ele>773.0</ele><time>2026-03-29T09:11:06.922Z</time></trkpt><trkpt lat="46.4438086" lon="12.3847153"><ele>772.25</ele><time>2026-03-29T09:11:07.915Z</time></trkpt><trkpt lat="46.4439133" lon="12.3848714"><ele>771.5</ele><time>2026-03-29T09:11:08.925Z</time></trkpt><trkpt lat="46.4440185" lon="12.385024"><ele>770.75</ele><time>2026-03-29T09:11:09.914Z</time></trkpt><trkpt lat="46.4441286" lon="12.3851633"><ele>770.0</ele><time>2026-03-29T09:11:10.933Z</time></trkpt><trkpt lat="46.4442372" lon="12.3852949"><ele>770.0</ele><time>2026-03-29T09:11:11.918Z</time></trkpt><trkpt lat="46.4443548" lon="12.3854039"><ele>770.0</ele><time>2026-03-29T09:11:12.913Z</time></trkpt><trkpt lat="46.4444742" lon="12.3855035"><ele>770.0</ele><time>2026-03-29T09:11:13.921Z</time></trkpt><trkpt lat="46.4445936" lon="12.3856004"><ele>770.0</ele><time>2026-03-29T09:11:14.928Z</time></trkpt><trkpt lat="46.4447131" lon="12.3856968"><ele>768.75</ele><time>2026-03-29T09:11:15.939Z</time></trkpt><trkpt lat="46.4448336" lon="12.3857868"><ele>767.5</ele><time>2026-03-29T09:11:16.921Z</time></trkpt><trkpt lat="46.4449568" lon="12.3858666"><ele>766.25</ele><time>2026-03-29T09:11:17.924Z</time></trkpt><trkpt lat="46.445083" lon="12.3859309"><ele>765.0</ele><time>2026-03-29T09:11:18.92Z</time></trkpt><trkpt lat="46.445211" lon="12.3859809"><ele>765.0</ele><time>2026-03-29T09:11:19.928Z</time></trkpt><trkpt lat="46.4453374" lon="12.3860187"><ele>765.0</ele><time>2026-03-29T09:11:20.919Z</time></trkpt><trkpt lat="46.4454565" lon="12.3860543"><ele>765.0</ele><time>2026-03-29T09:11:21.927Z</time></trkpt><trkpt lat="46.445568" lon="12.3860855"><ele>765.0</ele><time>2026-03-29T09:11:22.931Z</time></trkpt><trkpt lat="46.4456756" lon="12.3861214"><ele>765.2</ele><time>2026-03-29T09:11:23.934Z</time></trkpt><trkpt lat="46.4457823" lon="12.3861654"><ele>765.4</ele><time>2026-03-29T09:11:24.929Z</time></trkpt><trkpt lat="46.4458873" lon="12.3862264"><ele>765.5999999999999</ele><time>2026-03-29T09:11:25.92Z</time></trkpt><trkpt lat="46.4459833" lon="12.3863143"><ele>765.8</ele><time>2026-03-29T09:11:26.928Z</time></trkpt><trkpt lat="46.4460547" lon="12.3864289"><ele>766.0</ele><time>2026-03-29T09:11:27.938Z</time></trkpt><trkpt lat="46.4461097" lon="12.3865325"><ele>765.2857142857142</ele><time>2026-03-29T09:11:28.928Z</time></trkpt><trkpt lat="46.446146" lon="12.3866263"><ele>764.5714285714286</ele><time>2026-03-29T09:11:29.922Z</time></trkpt><trkpt lat="46.4461801" lon="12.3867082"><ele>763.8571428571429</ele><time>2026-03-29T09:11:30.934Z</time></trkpt><trkpt lat="46.4462181" lon="12.3867846"><ele>763.1428571428571</ele><time>2026-03-29T09:11:31.921Z</time></trkpt><trkpt lat="46.4462532" lon="12.3868669"><ele>762.4285714285714</ele><time>2026-03-29T09:11:32.938Z</time></trkpt><trkpt lat="46.4462986" lon="12.3869551"><ele>761.7142857142857</ele><time>2026-03-29T09:11:33.916Z</time></trkpt><trkpt lat="46.4463554" lon="12.3870559"><ele>761.0</ele><time>2026-03-29T09:11:34.927Z</time></trkpt><trkpt lat="46.4464146" lon="12.3871719"><ele>759.8</ele><time>2026-03-29T09:11:35.932Z</time></trkpt><trkpt lat="46.4464717" lon="12.3872983"><ele>758.5999999999999</ele><time>2026-03-29T09:11:36.925Z</time></trkpt><trkpt lat="46.4465294" lon="12.3874214"><ele>757.4</ele><time>2026-03-29T09:11:37.93Z</time></trkpt><trkpt lat="46.4466005" lon="12.3875275"><ele>756.2</ele><time>2026-03-29T09:11:38.936Z</time></trkpt><trkpt lat="46.446691" lon="12.3876115"><ele>755.0</ele><time>2026-03-29T09:11:39.923Z</time></trkpt><trkpt lat="46.4467935" lon="12.3876748"><ele>755.0</ele><time>2026-03-29T09:11:40.919Z</time></trkpt><trkpt lat="46.4469076" lon="12.3877121"><ele>755.0</ele><time>2026-03-29T09:11:41.917Z</time></trkpt><trkpt lat="46.4470293" lon="12.3877362"><ele>755.0</ele><time>2026-03-29T09:11:42.913Z</time></trkpt><trkpt lat="46.4471588" lon="12.3877456"><ele>755.0</ele><time>2026-03-29T09:11:43.925Z</time></trkpt><trkpt lat="46.4472955" lon="12.3877462"><ele>755.75</ele><time>2026-03-29T09:11:44.922Z</time></trkpt><trkpt lat="46.4474348" lon="12.3877462"><ele>756.5</ele><time>2026-03-29T09:11:45.917Z</time></trkpt><trkpt lat="46.4475743" lon="12.3877424"><ele>757.25</ele><time>2026-03-29T09:11:46.942Z</time></trkpt><trkpt lat="46.4477117" lon="12.3877373"><ele>758.0</ele><time>2026-03-29T09:11:47.924Z</time></trkpt><trkpt lat="46.4478517" lon="12.3877219"><ele>755.5</ele><time>2026-03-29T09:11:48.919Z</time></trkpt><trkpt lat="46.4479915" lon="12.3877055"><ele>753.0</ele><time>2026-03-29T09:11:49.917Z</time></trkpt><trkpt lat="46.44812" lon="12.3876759"><ele>750.5</ele><time>2026-03-29T09:11:50.922Z</time></trkpt><trkpt lat="46.44824" lon="12.387628"><ele>748.0</ele><time>2026-03-29T09:11:51.914Z</time></trkpt><trkpt lat="46.44835" lon="12.3875722"><ele>748.0</ele><time>2026-03-29T09:11:52.907Z</time></trkpt><trkpt lat="46.4484555" lon="12.3875342"><ele>748.0</ele><time>2026-03-29T09:11:53.922Z</time></trkpt><trkpt lat="46.4485538" lon="12.3875307"><ele>748.0</ele><time>2026-03-29T09:11:54.924Z</time></trkpt><trkpt lat="46.448645" lon="12.3875693"><ele>748.0</ele><time>2026-03-29T09:11:55.926Z</time></trkpt><trkpt lat="46.4487352" lon="12.3876252"><ele>748.0</ele><time>2026-03-29T09:11:56.925Z</time></trkpt><trkpt lat="46.4488278" lon="12.3876986"><ele>748.75</ele><time>2026-03-29T09:11:57.948Z</time></trkpt><trkpt lat="46.4489184" lon="12.3878001"><ele>749.5</ele><time>2026-03-29T09:11:58.916Z</time></trkpt><trkpt lat="46.449002" lon="12.3879219"><ele>750.25</ele><time>2026-03-29T09:11:59.926Z</time></trkpt><trkpt lat="46.449065" lon="12.3880568"><ele>751.0</ele><time>2026-03-29T09:12:00.926Z</time></trkpt><trkpt lat="46.4491045" lon="12.3882004"><ele>751.0</ele><time>2026-03-29T09:12:01.94Z</time></trkpt><trkpt lat="46.4491173" lon="12.3883526"><ele>751.0</ele><time>2026-03-29T09:12:02.935Z</time></trkpt><trkpt lat="46.4491005" lon="12.3885075"><ele>751.0</ele><time>2026-03-29T09:12:03.922Z</time></trkpt><trkpt lat="46.4490705" lon="12.3886314"><ele>751.0</ele><time>2026-03-29T09:12:04.912Z</time></trkpt><trkpt lat="46.4490019" lon="12.3887472"><ele>751.0</ele><time>2026-03-29T09:12:05.938Z</time></trkpt><trkpt lat="46.4488952" lon="12.3888376"><ele>749.0</ele><time>2026-03-29T09:12:06.918Z</time></trkpt><trkpt lat="46.4487737" lon="12.3889164"><ele>747.0</ele><time>2026-03-29T09:12:07.916Z</time></trkpt><trkpt lat="46.4486491" lon="12.3890357"><ele>745.0</ele><time>2026-03-29T09:12:08.935Z</time></trkpt><trkpt lat="46.4485467" lon="12.3891642"><ele>743.0</ele><time>2026-03-29T09:12:09.921Z</time></trkpt><trkpt lat="46.4484638" lon="12.3893289"><ele>743.0</ele><time>2026-03-29T09:12:10.907Z</time></trkpt><trkpt lat="46.4483897" lon="12.3895053"><ele>743.0</ele><time>2026-03-29T09:12:11.921Z</time></trkpt><trkpt lat="46.4483347" lon="12.389708"><ele>743.0</ele><time>2026-03-29T09:12:12.914Z</time></trkpt><trkpt lat="46.4482956" lon="12.3899326"><ele>746.3333333333333</ele><time>2026-03-29T09:12:13.912Z</time></trkpt><trkpt lat="46.4482567" lon="12.3901655"><ele>749.6666666666666</ele><time>2026-03-29T09:12:14.915Z</time></trkpt><trkpt lat="46.4482295" lon="12.3904129"><ele>753.0</ele><time>2026-03-29T09:12:15.921Z</time></trkpt><trkpt lat="46.4482091" lon="12.3906656"><ele>755.3333333333334</ele><time>2026-03-29T09:12:16.908Z</time></trkpt><trkpt lat="46.4481807" lon="12.3909041"><ele>757.6666666666667</ele><time>2026-03-29T09:12:17.926Z</time></trkpt><trkpt lat="46.4481583" lon="12.3911331"><ele>760.0</ele><time>2026-03-29T09:12:18.928Z</time></trkpt><trkpt lat="46.4481252" lon="12.3913478"><ele>760.0</ele><time>2026-03-29T09:12:19.953Z</time></trkpt><trkpt lat="46.4481337" lon="12.3915614"><ele>760.0</ele><time>2026-03-29T09:12:20.925Z</time></trkpt><trkpt lat="46.4481731" lon="12.391767"><ele>760.0</ele><time>2026-03-29T09:12:21.919Z</time></trkpt><trkpt lat="46.4482077" lon="12.3919737"><ele>760.0</ele><time>2026-03-29T09:12:22.926Z</time></trkpt><trkpt lat="46.4482617" lon="12.3921827"><ele>759.0</ele><time>2026-03-29T09:12:23.927Z</time></trkpt><trkpt lat="46.4483093" lon="12.3924008"><ele>758.0</ele><time>2026-03-29T09:12:24.928Z</time></trkpt><trkpt lat="46.4483484" lon="12.3926225"><ele>757.0</ele><time>2026-03-29T09:12:25.93Z</time></trkpt><trkpt lat="46.4483948" lon="12.3928399"><ele>755.3333333333334</ele><time>2026-03-29T09:12:26.934Z</time></trkpt><trkpt lat="46.448439" lon="12.3930547"><ele>753.6666666666666</ele><time>2026-03-29T09:12:27.929Z</time></trkpt><trkpt lat="46.4484843" lon="12.3932682"><ele>752.0</ele><time>2026-03-29T09:12:28.93Z</time></trkpt><trkpt lat="46.4485205" lon="12.3934845"><ele>752.0</ele><time>2026-03-29T09:12:29.927Z</time></trkpt><trkpt lat="46.4485581" lon="12.3936973"><ele>752.0</ele><time>2026-03-29T09:12:30.936Z</time></trkpt><trkpt lat="46.4486022" lon="12.3939043"><ele>752.0</ele><time>2026-03-29T09:12:31.927Z</time></trkpt><trkpt lat="46.4486421" lon="12.3941104"><ele>752.0</ele><time>2026-03-29T09:12:32.923Z</time></trkpt><trkpt lat="46.4486834" lon="12.394311"><ele>751.0</ele><time>2026-03-29T09:12:33.944Z</time></trkpt><trkpt lat="46.448725" lon="12.3945071"><ele>750.0</ele><time>2026-03-29T09:12:34.933Z</time></trkpt><trkpt lat="46.4487685" lon="12.3947004"><ele>749.0</ele><time>2026-03-29T09:12:35.93Z</time></trkpt><trkpt lat="46.4488062" lon="12.3948979"><ele>748.0</ele><time>2026-03-29T09:12:36.926Z</time></trkpt><trkpt lat="46.4488435" lon="12.3950984"><ele>749.0</ele><time>2026-03-29T09:12:37.928Z</time></trkpt><trkpt lat="46.4488796" lon="12.3953005"><ele>750.0</ele><time>2026-03-29T09:12:38.943Z</time></trkpt><trkpt lat="46.4489186" lon="12.3955035"><ele>751.0</ele><time>2026-03-29T09:12:39.929Z</time></trkpt><trkpt lat="46.4489613" lon="12.3957048"><ele>752.0</ele><time>2026-03-29T09:12:40.935Z</time></trkpt><trkpt lat="46.4490013" lon="12.3959023"><ele>752.0</ele><time>2026-03-29T09:12:41.946Z</time></trkpt><trkpt lat="46.4490397" lon="12.396094"><ele>752.0</ele><time>2026-03-29T09:12:42.929Z</time></trkpt><trkpt lat="46.4490848" lon="12.3962756"><ele>752.0</ele><time>2026-03-29T09:12:43.926Z</time></trkpt><trkpt lat="46.4491434" lon="12.3964449"><ele>752.0</ele><time>2026-03-29T09:12:44.931Z</time></trkpt><trkpt lat="46.4492172" lon="12.3966008"><ele>752.75</ele><time>2026-03-29T09:12:45.947Z</time></trkpt><trkpt lat="46.4493043" lon="12.3967459"><ele>753.5</ele><time>2026-03-29T09:12:46.91Z</time></trkpt><trkpt lat="46.4494153" lon="12.3968659"><ele>754.25</ele><time>2026-03-29T09:12:47.946Z</time></trkpt><trkpt lat="46.4495367" lon="12.3969727"><ele>755.0</ele><time>2026-03-29T09:12:48.943Z</time></trkpt><trkpt lat="46.4496646" lon="12.3970751"><ele>751.25</ele><time>2026-03-29T09:12:49.94Z</time></trkpt><trkpt lat="46.4497954" lon="12.3971707"><ele>747.5</ele><time>2026-03-29T09:12:50.942Z</time></trkpt><trkpt lat="46.4499287" lon="12.3972218"><ele>743.75</ele><time>2026-03-29T09:12:51.934Z</time></trkpt><trkpt lat="46.4500515" lon="12.3973001"><ele>740.0</ele><time>2026-03-29T09:12:52.931Z</time></trkpt><trkpt lat="46.4501745" lon="12.3973738"><ele>740.0</ele><time>2026-03-29T09:12:53.937Z</time></trkpt><trkpt lat="46.4502967" lon="12.3974462"><ele>740.0</ele><time>2026-03-29T09:12:54.942Z</time></trkpt><trkpt lat="46.4504221" lon="12.3975282"><ele>740.0</ele><time>2026-03-29T09:12:55.93Z</time></trkpt><trkpt lat="46.4505533" lon="12.3975975"><ele>740.0</ele><time>2026-03-29T09:12:56.925Z</time></trkpt><trkpt lat="46.4506812" lon="12.3976763"><ele>738.5</ele><time>2026-03-29T09:12:57.936Z</time></trkpt><trkpt lat="46.4508032" lon="12.3977705"><ele>737.0</ele><time>2026-03-29T09:12:58.941Z</time></trkpt><trkpt lat="46.450918" lon="12.3978825"><ele>735.5</ele><time>2026-03-29T09:12:59.956Z</time></trkpt><trkpt lat="46.4510205" lon="12.3980129"><ele>734.0</ele><time>2026-03-29T09:13:00.935Z</time></trkpt><trkpt lat="46.4511061" lon="12.3981659"><ele>734.0</ele><time>2026-03-29T09:13:01.955Z</time></trkpt><trkpt lat="46.4511811" lon="12.3983269"><ele>734.0</ele><time>2026-03-29T09:13:02.945Z</time></trkpt><trkpt lat="46.4512489" lon="12.398487"><ele>734.0</ele><time>2026-03-29T09:13:03.934Z</time></trkpt><trkpt lat="46.4513306" lon="12.3986406"><ele>734.0</ele><time>2026-03-29T09:13:04.921Z</time></trkpt><trkpt lat="46.4514314" lon="12.3987751"><ele>735.25</ele><time>2026-03-29T09:13:05.919Z</time></trkpt><trkpt lat="46.451546" lon="12.3988892"><ele>736.5</ele><time>2026-03-29T09:13:06.924Z</time></trkpt><trkpt lat="46.4516664" lon="12.3989799"><ele>737.75</ele><time>2026-03-29T09:13:07.957Z</time></trkpt><trkpt lat="46.4517856" lon="12.3990499"><ele>739.0</ele><time>2026-03-29T09:13:08.926Z</time></trkpt><trkpt lat="46.4519007" lon="12.3991162"><ele>739.0</ele><time>2026-03-29T09:13:09.936Z</time></trkpt><trkpt lat="46.4520156" lon="12.3991724"><ele>739.0</ele><time>2026-03-29T09:13:10.942Z</time></trkpt><trkpt lat="46.4521328" lon="12.3992188"><ele>739.0</ele><time>2026-03-29T09:13:11.946Z</time></trkpt><trkpt lat="46.4522524" lon="12.399227"><ele>739.0</ele><time>2026-03-29T09:13:12.935Z</time></trkpt><trkpt lat="46.4523559" lon="12.3991734"><ele>739.8333333333334</ele><time>2026-03-29T09:13:13.946Z</time></trkpt><trkpt lat="46.452449" lon="12.3991065"><ele>740.6666666666667</ele><time>2026-03-29T09:13:14.955Z</time></trkpt><trkpt lat="46.4525352" lon="12.3990546"><ele>741.5</ele><time>2026-03-29T09:13:15.939Z</time></trkpt><trkpt lat="46.4526167" lon="12.3990119"><ele>742.3333333333334</ele><time>2026-03-29T09:13:16.944Z</time></trkpt><trkpt lat="46.4526958" lon="12.3989963"><ele>743.1666666666666</ele><time>2026-03-29T09:13:17.944Z</time></trkpt><trkpt lat="46.4527714" lon="12.3990475"><ele>744.0</ele><time>2026-03-29T09:13:18.926Z</time></trkpt><trkpt lat="46.4528428" lon="12.399123"><ele>744.0</ele><time>2026-03-29T09:13:19.93Z</time></trkpt><trkpt lat="46.4529141" lon="12.3992189"><ele>744.0</ele><time>2026-03-29T09:13:20.934Z</time></trkpt><trkpt lat="46.4529837" lon="12.3993291"><ele>744.0</ele><time>2026-03-29T09:13:21.93Z</time></trkpt><trkpt lat="46.4530487" lon="12.3994578"><ele>744.0</ele><time>2026-03-29T09:13:22.931Z</time></trkpt><trkpt lat="46.4531161" lon="12.3996081"><ele>744.0</ele><time>2026-03-29T09:13:23.951Z</time></trkpt><trkpt lat="46.4531722" lon="12.3997722"><ele>746.75</ele><time>2026-03-29T09:13:24.949Z</time></trkpt><trkpt lat="46.453213" lon="12.3999493"><ele>749.5</ele><time>2026-03-29T09:13:25.964Z</time></trkpt><trkpt lat="46.4532287" lon="12.4001415"><ele>752.25</ele><time>2026-03-29T09:13:26.929Z</time></trkpt><trkpt lat="46.4532217" lon="12.4003467"><ele>755.0</ele><time>2026-03-29T09:13:27.947Z</time></trkpt><trkpt lat="46.4532091" lon="12.4005656"><ele>755.3333333333333</ele><time>2026-03-29T09:13:28.93Z</time></trkpt><trkpt lat="46.4531973" lon="12.4007939"><ele>755.6666666666666</ele><time>2026-03-29T09:13:29.967Z</time></trkpt><trkpt lat="46.4531978" lon="12.4010261"><ele>756.0</ele><time>2026-03-29T09:13:30.935Z</time></trkpt><trkpt lat="46.453228" lon="12.4012569"><ele>754.6666666666666</ele><time>2026-03-29T09:13:31.941Z</time></trkpt><trkpt lat="46.4532606" lon="12.4014774"><ele>753.3333333333333</ele><time>2026-03-29T09:13:32.94Z</time></trkpt><trkpt lat="46.4532921" lon="12.4016913"><ele>752.0</ele><time>2026-03-29T09:13:33.931Z</time></trkpt><trkpt lat="46.4533016" lon="12.4019043"><ele>752.0</ele><time>2026-03-29T09:13:34.923Z</time></trkpt><trkpt lat="46.4532993" lon="12.402109"><ele>752.0</ele><time>2026-03-29T09:13:35.921Z</time></trkpt><trkpt lat="46.4532824" lon="12.4023035"><ele>752.0</ele><time>2026-03-29T09:13:36.922Z</time></trkpt><trkpt lat="46.4532407" lon="12.4024649"><ele>752.0</ele><time>2026-03-29T09:13:37.929Z</time></trkpt><trkpt lat="46.4532207" lon="12.4026475"><ele>753.25</ele><time>2026-03-29T09:13:38.93Z</time></trkpt><trkpt lat="46.4531942" lon="12.40283"><ele>754.5</ele><time>2026-03-29T09:13:39.937Z</time></trkpt><trkpt lat="46.4531814" lon="12.403018"><ele>755.75</ele><time>2026-03-29T09:13:40.933Z</time></trkpt><trkpt lat="46.453171" lon="12.4031945"><ele>757.0</ele><time>2026-03-29T09:13:41.928Z</time></trkpt><trkpt lat="46.4531851" lon="12.4033785"><ele>757.75</ele><time>2026-03-29T09:13:42.931Z</time></trkpt><trkpt lat="46.4531982" lon="12.4035564"><ele>758.5</ele><time>2026-03-29T09:13:43.915Z</time></trkpt><trkpt lat="46.4532305" lon="12.4037368"><ele>759.25</ele><time>2026-03-29T09:13:44.932Z</time></trkpt><trkpt lat="46.4532726" lon="12.4039186"><ele>760.0</ele><time>2026-03-29T09:13:45.937Z</time></trkpt><trkpt lat="46.4533344" lon="12.4040937"><ele>760.0</ele><time>2026-03-29T09:13:46.931Z</time></trkpt><trkpt lat="46.4534151" lon="12.4042578"><ele>760.0</ele><time>2026-03-29T09:13:47.936Z</time></trkpt><trkpt lat="46.4535189" lon="12.4044079"><ele>760.0</ele><time>2026-03-29T09:13:48.93Z</time></trkpt><trkpt lat="46.453627" lon="12.404553"><ele>760.0</ele><time>2026-03-29T09:13:49.951Z</time></trkpt><trkpt lat="46.4537507" lon="12.4046896"><ele>760.0</ele><time>2026-03-29T09:13:50.934Z</time></trkpt><trkpt lat="46.4538857" lon="12.4048188"><ele>760.0</ele><time>2026-03-29T09:13:51.921Z</time></trkpt><trkpt lat="46.454032" lon="12.4049355"><ele>760.0</ele><time>2026-03-29T09:13:52.917Z</time></trkpt><trkpt lat="46.4541849" lon="12.4050445"><ele>760.0</ele><time>2026-03-29T09:13:53.927Z</time></trkpt><trkpt lat="46.4543365" lon="12.4051432"><ele>760.0</ele><time>2026-03-29T09:13:54.929Z</time></trkpt><trkpt lat="46.4544879" lon="12.405245"><ele>760.0</ele><time>2026-03-29T09:13:55.915Z</time></trkpt><trkpt lat="46.4546344" lon="12.4053634"><ele>758.3333333333334</ele><time>2026-03-29T09:13:56.926Z</time></trkpt><trkpt lat="46.4547715" lon="12.4055019"><ele>756.6666666666666</ele><time>2026-03-29T09:13:57.921Z</time></trkpt><trkpt lat="46.4548978" lon="12.4056624"><ele>755.0</ele><time>2026-03-29T09:13:58.918Z</time></trkpt><trkpt lat="46.4550114" lon="12.4058438"><ele>755.0</ele><time>2026-03-29T09:13:59.926Z</time></trkpt><trkpt lat="46.455109" lon="12.4060431"><ele>755.0</ele><time>2026-03-29T09:14:00.93Z</time></trkpt><trkpt lat="46.4551982" lon="12.4062478"><ele>755.0</ele><time>2026-03-29T09:14:01.932Z</time></trkpt><trkpt lat="46.4552844" lon="12.406457"><ele>753.3333333333333</ele><time>2026-03-29T09:14:02.928Z</time></trkpt><trkpt lat="46.4553691" lon="12.4066657"><ele>751.6666666666666</ele><time>2026-03-29T09:14:03.937Z</time></trkpt><trkpt lat="46.4554673" lon="12.4068489"><ele>750.0</ele><time>2026-03-29T09:14:04.929Z</time></trkpt><trkpt lat="46.4555682" lon="12.4070269"><ele>751.3333333333334</ele><time>2026-03-29T09:14:05.93Z</time></trkpt><trkpt lat="46.4556692" lon="12.4072018"><ele>752.6666666666667</ele><time>2026-03-29T09:14:06.943Z</time></trkpt><trkpt lat="46.4557727" lon="12.4073712"><ele>754.0</ele><time>2026-03-29T09:14:07.934Z</time></trkpt><trkpt lat="46.4558768" lon="12.4075384"><ele>754.0</ele><time>2026-03-29T09:14:08.921Z</time></trkpt><trkpt lat="46.4559822" lon="12.4076999"><ele>754.0</ele><time>2026-03-29T09:14:09.923Z</time></trkpt><trkpt lat="46.4560913" lon="12.4078531"><ele>754.0</ele><time>2026-03-29T09:14:10.927Z</time></trkpt><trkpt lat="46.456207" lon="12.4079905"><ele>755.25</ele><time>2026-03-29T09:14:11.947Z</time></trkpt><trkpt lat="46.4563212" lon="12.4081132"><ele>756.5</ele><time>2026-03-29T09:14:12.925Z</time></trkpt><trkpt lat="46.4564277" lon="12.4082371"><ele>757.75</ele><time>2026-03-29T09:14:13.93Z</time></trkpt><trkpt lat="46.4565385" lon="12.4083481"><ele>759.0</ele><time>2026-03-29T09:14:14.929Z</time></trkpt><trkpt lat="46.4566431" lon="12.4084617"><ele>759.0</ele><time>2026-03-29T09:14:15.928Z</time></trkpt><trkpt lat="46.4567437" lon="12.4085732"><ele>759.0</ele><time>2026-03-29T09:14:16.936Z</time></trkpt><trkpt lat="46.4568473" lon="12.4086774"><ele>759.0</ele><time>2026-03-29T09:14:17.941Z</time></trkpt><trkpt lat="46.4569479" lon="12.4087863"><ele>759.0</ele><time>2026-03-29T09:14:18.933Z</time></trkpt><trkpt lat="46.4570513" lon="12.408895"><ele>759.0</ele><time>2026-03-29T09:14:19.926Z</time></trkpt><trkpt lat="46.4571642" lon="12.4089951"><ele>759.0</ele><time>2026-03-29T09:14:20.919Z</time></trkpt><trkpt lat="46.4572743" lon="12.4091137"><ele>759.0</ele><time>2026-03-29T09:14:21.922Z</time></trkpt><trkpt lat="46.4573812" lon="12.4092425"><ele>759.0</ele><time>2026-03-29T09:14:22.937Z</time></trkpt><trkpt lat="46.4574861" lon="12.4093768"><ele>759.0</ele><time>2026-03-29T09:14:23.934Z</time></trkpt><trkpt lat="46.4575883" lon="12.4095287"><ele>759.0</ele><time>2026-03-29T09:14:24.934Z</time></trkpt><trkpt lat="46.4576889" lon="12.4096875"><ele>759.0</ele><time>2026-03-29T09:14:25.925Z</time></trkpt><trkpt lat="46.457783" lon="12.4098557"><ele>759.0</ele><time>2026-03-29T09:14:26.927Z</time></trkpt><trkpt lat="46.4578827" lon="12.4100154"><ele>759.5</ele><time>2026-03-29T09:14:27.93Z</time></trkpt><trkpt lat="46.4579781" lon="12.41018"><ele>760.0</ele><time>2026-03-29T09:14:28.924Z</time></trkpt><trkpt lat="46.4580716" lon="12.4103369"><ele>760.5</ele><time>2026-03-29T09:14:29.93Z</time></trkpt><trkpt lat="46.4581748" lon="12.4104795"><ele>761.0</ele><time>2026-03-29T09:14:30.941Z</time></trkpt><trkpt lat="46.4582641" lon="12.410636"><ele>761.0</ele><time>2026-03-29T09:14:31.938Z</time></trkpt><trkpt lat="46.4583559" lon="12.410798"><ele>761.0</ele><time>2026-03-29T09:14:32.959Z</time></trkpt><trkpt lat="46.458449" lon="12.4109747"><ele>761.0</ele><time>2026-03-29T09:14:33.955Z</time></trkpt><trkpt lat="46.45854" lon="12.4111654"><ele>759.6666666666666</ele><time>2026-03-29T09:14:34.947Z</time></trkpt><trkpt lat="46.4586551" lon="12.4113372"><ele>758.3333333333334</ele><time>2026-03-29T09:14:35.947Z</time></trkpt><trkpt lat="46.4587665" lon="12.4115154"><ele>757.0</ele><time>2026-03-29T09:14:36.937Z</time></trkpt><trkpt lat="46.4588696" lon="12.4116986"><ele>761.0</ele><time>2026-03-29T09:14:37.93Z</time></trkpt><trkpt lat="46.4589579" lon="12.4118965"><ele>765.0</ele><time>2026-03-29T09:14:38.947Z</time></trkpt><trkpt lat="46.4590392" lon="12.4120859"><ele>769.0</ele><time>2026-03-29T09:14:39.944Z</time></trkpt><trkpt lat="46.4591104" lon="12.4122755"><ele>769.0</ele><time>2026-03-29T09:14:40.949Z</time></trkpt><trkpt lat="46.4591842" lon="12.4124537"><ele>769.0</ele><time>2026-03-29T09:14:41.945Z</time></trkpt><trkpt lat="46.4592391" lon="12.4126366"><ele>769.0</ele><time>2026-03-29T09:14:42.958Z</time></trkpt><trkpt lat="46.4592521" lon="12.4128275"><ele>769.0</ele><time>2026-03-29T09:14:43.946Z</time></trkpt><trkpt lat="46.4592673" lon="12.4130125"><ele>768.4000000000001</ele><time>2026-03-29T09:14:44.956Z</time></trkpt><trkpt lat="46.4592737" lon="12.4131845"><ele>767.8</ele><time>2026-03-29T09:14:45.938Z</time></trkpt><trkpt lat="46.4592815" lon="12.4133473"><ele>767.2</ele><time>2026-03-29T09:14:46.93Z</time></trkpt><trkpt lat="46.4593049" lon="12.4135002"><ele>766.5999999999999</ele><time>2026-03-29T09:14:47.941Z</time></trkpt><trkpt lat="46.4593346" lon="12.4136476"><ele>766.0</ele><time>2026-03-29T09:14:48.92Z</time></trkpt><trkpt lat="46.4593757" lon="12.4137872"><ele>766.1999999999999</ele><time>2026-03-29T09:14:49.941Z</time></trkpt><trkpt lat="46.4594216" lon="12.4139197"><ele>766.4</ele><time>2026-03-29T09:14:50.943Z</time></trkpt><trkpt lat="46.4594648" lon="12.4140472"><ele>766.6</ele><time>2026-03-29T09:14:51.936Z</time></trkpt><trkpt lat="46.4595138" lon="12.4141695"><ele>766.8</ele><time>2026-03-29T09:14:52.924Z</time></trkpt><trkpt lat="46.4595588" lon="12.4142939"><ele>767.0</ele><time>2026-03-29T09:14:53.943Z</time></trkpt><trkpt lat="46.4596028" lon="12.4144144"><ele>768.0</ele><time>2026-03-29T09:14:54.925Z</time></trkpt><trkpt lat="46.4596413" lon="12.4145324"><ele>769.0</ele><time>2026-03-29T09:14:55.934Z</time></trkpt><trkpt lat="46.4596952" lon="12.4146243"><ele>770.0</ele><time>2026-03-29T09:14:56.929Z</time></trkpt><trkpt lat="46.4597337" lon="12.4147269"><ele>771.0</ele><time>2026-03-29T09:14:57.933Z</time></trkpt><trkpt lat="46.4597757" lon="12.4148154"><ele>772.0000000000001</ele><time>2026-03-29T09:14:58.924Z</time></trkpt><trkpt lat="46.4597949" lon="12.4149052"><ele>773.0</ele><time>2026-03-29T09:14:59.926Z</time></trkpt><trkpt lat="46.4598388" lon="12.4150489"><ele>773.0</ele><time>2026-03-29T09:15:01.931Z</time></trkpt><trkpt lat="46.4598828" lon="12.4151901"><ele>773.0</ele><time>2026-03-29T09:15:03.932Z</time></trkpt><trkpt lat="46.4599311" lon="12.4153588"><ele>773.0</ele><time>2026-03-29T09:15:05.932Z</time></trkpt><trkpt lat="46.4599561" lon="12.4154555"><ele>773.0</ele><time>2026-03-29T09:15:06.923Z</time></trkpt><trkpt lat="46.4599932" lon="12.4155564"><ele>773.0</ele><time>2026-03-29T09:15:07.926Z</time></trkpt><trkpt lat="46.460028" lon="12.4156613"><ele>773.1666666666667</ele><time>2026-03-29T09:15:08.922Z</time></trkpt><trkpt lat="46.4600603" lon="12.4157696"><ele>773.3333333333334</ele><time>2026-03-29T09:15:09.924Z</time></trkpt><trkpt lat="46.4600997" lon="12.4158585"><ele>773.5</ele><time>2026-03-29T09:15:10.931Z</time></trkpt><trkpt lat="46.4601467" lon="12.4159379"><ele>773.6666666666667</ele><time>2026-03-29T09:15:11.933Z</time></trkpt><trkpt lat="46.4601755" lon="12.4160315"><ele>773.8333333333334</ele><time>2026-03-29T09:15:12.918Z</time></trkpt><trkpt lat="46.4602051" lon="12.4161133"><ele>774.0</ele><time>2026-03-29T09:15:13.96Z</time></trkpt><trkpt lat="46.4603063" lon="12.416226"><ele>774.0</ele><time>2026-03-29T09:15:15.939Z</time></trkpt><trkpt lat="46.4603611" lon="12.4162909"><ele>774.0</ele><time>2026-03-29T09:15:16.917Z</time></trkpt><trkpt lat="46.4604247" lon="12.4163659"><ele>774.0</ele><time>2026-03-29T09:15:17.919Z</time></trkpt><trkpt lat="46.4604911" lon="12.4164602"><ele>774.0</ele><time>2026-03-29T09:15:18.925Z</time></trkpt><trkpt lat="46.4605584" lon="12.4165632"><ele>774.0</ele><time>2026-03-29T09:15:19.932Z</time></trkpt><trkpt lat="46.4606499" lon="12.4166503"><ele>775.0</ele><time>2026-03-29T09:15:20.932Z</time></trkpt><trkpt lat="46.4607464" lon="12.4167579"><ele>776.0</ele><time>2026-03-29T09:15:21.938Z</time></trkpt><trkpt lat="46.4608358" lon="12.4168747"><ele>777.0</ele><time>2026-03-29T09:15:22.926Z</time></trkpt><trkpt lat="46.4609294" lon="12.4169896"><ele>778.0</ele><time>2026-03-29T09:15:23.934Z</time></trkpt><trkpt lat="46.4610221" lon="12.4171053"><ele>777.25</ele><time>2026-03-29T09:15:24.934Z</time></trkpt><trkpt lat="46.4610957" lon="12.4172563"><ele>776.5</ele><time>2026-03-29T09:15:25.94Z</time></trkpt><trkpt lat="46.4611874" lon="12.4173979"><ele>775.75</ele><time>2026-03-29T09:15:26.935Z</time></trkpt><trkpt lat="46.4612639" lon="12.4175581"><ele>775.0</ele><time>2026-03-29T09:15:27.927Z</time></trkpt><trkpt lat="46.4613398" lon="12.4177248"><ele>775.0</ele><time>2026-03-29T09:15:28.941Z</time></trkpt><trkpt lat="46.4613987" lon="12.4178935"><ele>775.0</ele><time>2026-03-29T09:15:29.924Z</time></trkpt><trkpt lat="46.4614625" lon="12.4180514"><ele>775.0</ele><time>2026-03-29T09:15:30.934Z</time></trkpt><trkpt lat="46.4615351" lon="12.4182042"><ele>775.0</ele><time>2026-03-29T09:15:31.932Z</time></trkpt><trkpt lat="46.4615929" lon="12.4183612"><ele>774.25</ele><time>2026-03-29T09:15:32.919Z</time></trkpt><trkpt lat="46.4616526" lon="12.4185184"><ele>773.5</ele><time>2026-03-29T09:15:33.939Z</time></trkpt><trkpt lat="46.461712" lon="12.4186723"><ele>772.75</ele><time>2026-03-29T09:15:34.93Z</time></trkpt><trkpt lat="46.4617875" lon="12.4188017"><ele>772.0</ele><time>2026-03-29T09:15:35.931Z</time></trkpt><trkpt lat="46.4618549" lon="12.4189248"><ele>771.6</ele><time>2026-03-29T09:15:36.921Z</time></trkpt><trkpt lat="46.4619245" lon="12.4190421"><ele>771.2</ele><time>2026-03-29T09:15:37.937Z</time></trkpt><trkpt lat="46.4619876" lon="12.4191674"><ele>770.8</ele><time>2026-03-29T09:15:38.939Z</time></trkpt><trkpt lat="46.4620409" lon="12.4193046"><ele>770.4</ele><time>2026-03-29T09:15:39.952Z</time></trkpt><trkpt lat="46.4620926" lon="12.4194451"><ele>770.0</ele><time>2026-03-29T09:15:40.934Z</time></trkpt><trkpt lat="46.462139" lon="12.4195912"><ele>772.0</ele><time>2026-03-29T09:15:41.922Z</time></trkpt><trkpt lat="46.4621704" lon="12.4197593"><ele>774.0</ele><time>2026-03-29T09:15:42.934Z</time></trkpt><trkpt lat="46.4622227" lon="12.4199179"><ele>776.0</ele><time>2026-03-29T09:15:43.931Z</time></trkpt><trkpt lat="46.4623019" lon="12.4200649"><ele>778.0</ele><time>2026-03-29T09:15:44.951Z</time></trkpt><trkpt lat="46.4623953" lon="12.4202054"><ele>778.0</ele><time>2026-03-29T09:15:45.933Z</time></trkpt><trkpt lat="46.4624951" lon="12.4203368"><ele>778.0</ele><time>2026-03-29T09:15:46.924Z</time></trkpt><trkpt lat="46.4625942" lon="12.4204481"><ele>778.0</ele><time>2026-03-29T09:15:47.95Z</time></trkpt><trkpt lat="46.4626857" lon="12.4205565"><ele>778.0</ele><time>2026-03-29T09:15:48.934Z</time></trkpt><trkpt lat="46.4627692" lon="12.4206433"><ele>777.4999999999999</ele><time>2026-03-29T09:15:49.941Z</time></trkpt><trkpt lat="46.4628301" lon="12.4207055"><ele>777.0</ele><time>2026-03-29T09:15:50.93Z</time></trkpt><trkpt lat="46.4629099" lon="12.4208033"><ele>776.5</ele><time>2026-03-29T09:15:51.929Z</time></trkpt><trkpt lat="46.4629779" lon="12.4208833"><ele>776.0</ele><time>2026-03-29T09:15:52.947Z</time></trkpt><trkpt lat="46.4630321" lon="12.4209569"><ele>775.4999999999999</ele><time>2026-03-29T09:15:53.927Z</time></trkpt><trkpt lat="46.4630708" lon="12.4210311"><ele>775.0</ele><time>2026-03-29T09:15:54.937Z</time></trkpt><trkpt lat="46.4631077" lon="12.4211212"><ele>776.25</ele><time>2026-03-29T09:15:55.928Z</time></trkpt><trkpt lat="46.4631372" lon="12.4212112"><ele>777.5</ele><time>2026-03-29T09:15:56.92Z</time></trkpt><trkpt lat="46.463301" lon="12.4212876"><ele>778.75</ele><time>2026-03-29T09:15:59.94Z</time></trkpt><trkpt lat="46.4634194" lon="12.421382"><ele>780.0</ele><time>2026-03-29T09:16:00.944Z</time></trkpt><trkpt lat="46.463546" lon="12.4215886"><ele>780.0</ele><time>2026-03-29T09:16:02.93Z</time></trkpt><trkpt lat="46.4636104" lon="12.4217332"><ele>780.0</ele><time>2026-03-29T09:16:03.92Z</time></trkpt><trkpt lat="46.4636741" lon="12.4218786"><ele>780.0</ele><time>2026-03-29T09:16:04.929Z</time></trkpt><trkpt lat="46.4637429" lon="12.4220393"><ele>780.0</ele><time>2026-03-29T09:16:05.928Z</time></trkpt><trkpt lat="46.4637998" lon="12.4221835"><ele>784.0</ele><time>2026-03-29T09:16:06.936Z</time></trkpt><trkpt lat="46.4638703" lon="12.4223392"><ele>788.0</ele><time>2026-03-29T09:16:07.933Z</time></trkpt><trkpt lat="46.4639354" lon="12.4224853"><ele>792.0</ele><time>2026-03-29T09:16:08.923Z</time></trkpt><trkpt lat="46.4640188" lon="12.4226396"><ele>796.0</ele><time>2026-03-29T09:16:09.925Z</time></trkpt><trkpt lat="46.4641071" lon="12.4227877"><ele>796.0</ele><time>2026-03-29T09:16:10.934Z</time></trkpt><trkpt lat="46.4641874" lon="12.4229291"><ele>796.0</ele><time>2026-03-29T09:16:11.931Z</time></trkpt><trkpt lat="46.4642713" lon="12.423067"><ele>796.0</ele><time>2026-03-29T09:16:12.926Z</time></trkpt><trkpt lat="46.4643646" lon="12.4231941"><ele>796.0</ele><time>2026-03-29T09:16:13.925Z</time></trkpt><trkpt lat="46.4644761" lon="12.4233135"><ele>798.75</ele><time>2026-03-29T09:16:14.922Z</time></trkpt><trkpt lat="46.4645973" lon="12.4234222"><ele>801.5</ele><time>2026-03-29T09:16:15.938Z</time></trkpt><trkpt lat="46.4647229" lon="12.4235269"><ele>804.25</ele><time>2026-03-29T09:16:16.926Z</time></trkpt><trkpt lat="46.4648478" lon="12.4236262"><ele>807.0</ele><time>2026-03-29T09:16:17.936Z</time></trkpt><trkpt lat="46.4649706" lon="12.4237261"><ele>802.5</ele><time>2026-03-29T09:16:18.92Z</time></trkpt><trkpt lat="46.4650918" lon="12.423833"><ele>798.0</ele><time>2026-03-29T09:16:19.948Z</time></trkpt><trkpt lat="46.4652022" lon="12.4239452"><ele>793.5</ele><time>2026-03-29T09:16:20.923Z</time></trkpt><trkpt lat="46.465315" lon="12.424074"><ele>789.0</ele><time>2026-03-29T09:16:21.928Z</time></trkpt><trkpt lat="46.4654163" lon="12.4242089"><ele>791.0</ele><time>2026-03-29T09:16:22.936Z</time></trkpt><trkpt lat="46.4655129" lon="12.4243509"><ele>793.0</ele><time>2026-03-29T09:16:23.93Z</time></trkpt><trkpt lat="46.4656004" lon="12.4244979"><ele>795.0</ele><time>2026-03-29T09:16:24.927Z</time></trkpt><trkpt lat="46.4656874" lon="12.4246556"><ele>797.0</ele><time>2026-03-29T09:16:25.926Z</time></trkpt><trkpt lat="46.4657747" lon="12.4248076"><ele>797.0</ele><time>2026-03-29T09:16:26.921Z</time></trkpt><trkpt lat="46.4658625" lon="12.4249529"><ele>797.0</ele><time>2026-03-29T09:16:27.941Z</time></trkpt><trkpt lat="46.4659478" lon="12.4250971"><ele>797.0</ele><time>2026-03-29T09:16:28.935Z</time></trkpt><trkpt lat="46.466037" lon="12.4252647"><ele>797.0</ele><time>2026-03-29T09:16:29.931Z</time></trkpt><trkpt lat="46.4661159" lon="12.4254082"><ele>795.5</ele><time>2026-03-29T09:16:30.934Z</time></trkpt><trkpt lat="46.4661951" lon="12.4255537"><ele>794.0</ele><time>2026-03-29T09:16:31.92Z</time></trkpt><trkpt lat="46.4662798" lon="12.4257085"><ele>792.5</ele><time>2026-03-29T09:16:32.932Z</time></trkpt><trkpt lat="46.466366" lon="12.4258701"><ele>791.0</ele><time>2026-03-29T09:16:33.944Z</time></trkpt><trkpt lat="46.466453" lon="12.4260406"><ele>794.25</ele><time>2026-03-29T09:16:34.938Z</time></trkpt><trkpt lat="46.4665376" lon="12.4262109"><ele>797.5</ele><time>2026-03-29T09:16:35.934Z</time></trkpt><trkpt lat="46.4666234" lon="12.4263797"><ele>800.75</ele><time>2026-03-29T09:16:36.924Z</time></trkpt><trkpt lat="46.4667128" lon="12.4265349"><ele>804.0</ele><time>2026-03-29T09:16:37.94Z</time></trkpt><trkpt lat="46.4668109" lon="12.4266885"><ele>804.0</ele><time>2026-03-29T09:16:38.932Z</time></trkpt><trkpt lat="46.4669132" lon="12.4268256"><ele>804.0</ele><time>2026-03-29T09:16:39.941Z</time></trkpt><trkpt lat="46.4670157" lon="12.4269488"><ele>804.0</ele><time>2026-03-29T09:16:40.932Z</time></trkpt><trkpt lat="46.4671223" lon="12.4270804"><ele>804.0</ele><time>2026-03-29T09:16:41.929Z</time></trkpt><trkpt lat="46.4672281" lon="12.4272155"><ele>805.75</ele><time>2026-03-29T09:16:42.934Z</time></trkpt><trkpt lat="46.4673343" lon="12.4273552"><ele>807.5</ele><time>2026-03-29T09:16:43.943Z</time></trkpt><trkpt lat="46.467425" lon="12.4274973"><ele>809.25</ele><time>2026-03-29T09:16:44.924Z</time></trkpt><trkpt lat="46.4675139" lon="12.427653"><ele>811.0</ele><time>2026-03-29T09:16:45.937Z</time></trkpt><trkpt lat="46.4676018" lon="12.4278166"><ele>810.5</ele><time>2026-03-29T09:16:46.917Z</time></trkpt><trkpt lat="46.4676933" lon="12.4279845"><ele>810.0</ele><time>2026-03-29T09:16:47.917Z</time></trkpt><trkpt lat="46.4677852" lon="12.4281487"><ele>809.5</ele><time>2026-03-29T09:16:48.928Z</time></trkpt><trkpt lat="46.4678755" lon="12.4283077"><ele>809.0</ele><time>2026-03-29T09:16:49.931Z</time></trkpt><trkpt lat="46.4679673" lon="12.4284645"><ele>809.75</ele><time>2026-03-29T09:16:50.93Z</time></trkpt><trkpt lat="46.4680587" lon="12.428625"><ele>810.5</ele><time>2026-03-29T09:16:51.937Z</time></trkpt><trkpt lat="46.4681443" lon="12.4287887"><ele>811.25</ele><time>2026-03-29T09:16:52.941Z</time></trkpt><trkpt lat="46.4682265" lon="12.4289608"><ele>812.0</ele><time>2026-03-29T09:16:53.93Z</time></trkpt><trkpt lat="46.4683105" lon="12.4291323"><ele>812.0</ele><time>2026-03-29T09:16:54.936Z</time></trkpt><trkpt lat="46.4684" lon="12.4293031"><ele>812.0</ele><time>2026-03-29T09:16:55.934Z</time></trkpt><trkpt lat="46.4684959" lon="12.4294807"><ele>812.0</ele><time>2026-03-29T09:16:56.936Z</time></trkpt><trkpt lat="46.4685956" lon="12.4296554"><ele>812.6666666666667</ele><time>2026-03-29T09:16:57.924Z</time></trkpt><trkpt lat="46.468697" lon="12.4298368"><ele>813.3333333333333</ele><time>2026-03-29T09:16:58.925Z</time></trkpt><trkpt lat="46.4688039" lon="12.430016"><ele>814.0</ele><time>2026-03-29T09:16:59.933Z</time></trkpt><trkpt lat="46.4689177" lon="12.4301794"><ele>814.0</ele><time>2026-03-29T09:17:00.942Z</time></trkpt><trkpt lat="46.4690423" lon="12.430327"><ele>814.0</ele><time>2026-03-29T09:17:01.929Z</time></trkpt><trkpt lat="46.4691788" lon="12.4304728"><ele>814.0</ele><time>2026-03-29T09:17:02.935Z</time></trkpt><trkpt lat="46.4693124" lon="12.4306149"><ele>814.0</ele><time>2026-03-29T09:17:03.938Z</time></trkpt><trkpt lat="46.469445" lon="12.4307532"><ele>814.0</ele><time>2026-03-29T09:17:04.92Z</time></trkpt><trkpt lat="46.4695706" lon="12.4308978"><ele>814.0</ele><time>2026-03-29T09:17:05.928Z</time></trkpt><trkpt lat="46.4696958" lon="12.4310511"><ele>814.0</ele><time>2026-03-29T09:17:06.927Z</time></trkpt><trkpt lat="46.4698201" lon="12.4312072"><ele>814.0</ele><time>2026-03-29T09:17:07.932Z</time></trkpt><trkpt lat="46.4699483" lon="12.431365"><ele>814.0</ele><time>2026-03-29T09:17:08.94Z</time></trkpt><trkpt lat="46.4700677" lon="12.4315158"><ele>811.0</ele><time>2026-03-29T09:17:09.93Z</time></trkpt><trkpt lat="46.4701855" lon="12.4316645"><ele>808.0</ele><time>2026-03-29T09:17:10.933Z</time></trkpt><trkpt lat="46.4703023" lon="12.4318096"><ele>805.0</ele><time>2026-03-29T09:17:11.955Z</time></trkpt><trkpt lat="46.4704196" lon="12.431936"><ele>805.75</ele><time>2026-03-29T09:17:12.921Z</time></trkpt><trkpt lat="46.4705467" lon="12.4320411"><ele>806.5</ele><time>2026-03-29T09:17:13.94Z</time></trkpt><trkpt lat="46.4706778" lon="12.4321225"><ele>807.25</ele><time>2026-03-29T09:17:14.931Z</time></trkpt><trkpt lat="46.4708053" lon="12.4321634"><ele>808.0</ele><time>2026-03-29T09:17:15.934Z</time></trkpt><trkpt lat="46.4709288" lon="12.4321702"><ele>805.5</ele><time>2026-03-29T09:17:16.928Z</time></trkpt><trkpt lat="46.4710643" lon="12.432194"><ele>803.0</ele><time>2026-03-29T09:17:17.922Z</time></trkpt><trkpt lat="46.4712056" lon="12.4321907"><ele>800.5</ele><time>2026-03-29T09:17:18.925Z</time></trkpt><trkpt lat="46.4713417" lon="12.4321846"><ele>798.0</ele><time>2026-03-29T09:17:19.925Z</time></trkpt><trkpt lat="46.4714737" lon="12.4321747"><ele>798.5</ele><time>2026-03-29T09:17:20.925Z</time></trkpt><trkpt lat="46.4716099" lon="12.4321543"><ele>799.0</ele><time>2026-03-29T09:17:21.936Z</time></trkpt><trkpt lat="46.4717551" lon="12.4321224"><ele>799.5</ele><time>2026-03-29T09:17:22.945Z</time></trkpt><trkpt lat="46.4719061" lon="12.4320842"><ele>800.0</ele><time>2026-03-29T09:17:23.955Z</time></trkpt><trkpt lat="46.4720553" lon="12.4320415"><ele>797.75</ele><time>2026-03-29T09:17:24.929Z</time></trkpt><trkpt lat="46.4722098" lon="12.4319993"><ele>795.5</ele><time>2026-03-29T09:17:25.949Z</time></trkpt><trkpt lat="46.4723616" lon="12.4319671"><ele>793.25</ele><time>2026-03-29T09:17:26.929Z</time></trkpt><trkpt lat="46.4724942" lon="12.431976"><ele>791.0</ele><time>2026-03-29T09:17:27.94Z</time></trkpt><trkpt lat="46.4725621" lon="12.4320078"><ele>791.0</ele><time>2026-03-29T09:17:28.92Z</time></trkpt><trkpt lat="46.4726724" lon="12.4320605"><ele>791.0</ele><time>2026-03-29T09:17:29.924Z</time></trkpt><trkpt lat="46.472824" lon="12.4321984"><ele>791.0</ele><time>2026-03-29T09:17:30.926Z</time></trkpt><trkpt lat="46.4729459" lon="12.4323392"><ele>791.25</ele><time>2026-03-29T09:17:31.925Z</time></trkpt><trkpt lat="46.4730502" lon="12.4324915"><ele>791.5</ele><time>2026-03-29T09:17:32.932Z</time></trkpt><trkpt lat="46.4731431" lon="12.4326375"><ele>791.75</ele><time>2026-03-29T09:17:33.925Z</time></trkpt><trkpt lat="46.4732354" lon="12.4327883"><ele>792.0</ele><time>2026-03-29T09:17:34.935Z</time></trkpt><trkpt lat="46.4733259" lon="12.4329382"><ele>790.25</ele><time>2026-03-29T09:17:35.923Z</time></trkpt><trkpt lat="46.4734031" lon="12.4330734"><ele>788.5</ele><time>2026-03-29T09:17:36.927Z</time></trkpt><trkpt lat="46.4734862" lon="12.4332095"><ele>786.75</ele><time>2026-03-29T09:17:37.928Z</time></trkpt><trkpt lat="46.4735847" lon="12.4333428"><ele>785.0</ele><time>2026-03-29T09:17:38.926Z</time></trkpt><trkpt lat="46.4737059" lon="12.4334791"><ele>786.0</ele><time>2026-03-29T09:17:39.949Z</time></trkpt><trkpt lat="46.4738347" lon="12.433596"><ele>787.0</ele><time>2026-03-29T09:17:40.942Z</time></trkpt><trkpt lat="46.4739619" lon="12.4337074"><ele>788.0</ele><time>2026-03-29T09:17:41.925Z</time></trkpt><trkpt lat="46.4740916" lon="12.4338213"><ele>788.0</ele><time>2026-03-29T09:17:42.917Z</time></trkpt><trkpt lat="46.4742246" lon="12.4339435"><ele>788.0</ele><time>2026-03-29T09:17:43.928Z</time></trkpt><trkpt lat="46.4743495" lon="12.4340665"><ele>788.0</ele><time>2026-03-29T09:17:44.922Z</time></trkpt><trkpt lat="46.474479" lon="12.4341925"><ele>788.0</ele><time>2026-03-29T09:17:45.953Z</time></trkpt><trkpt lat="46.4746023" lon="12.4343172"><ele>788.0</ele><time>2026-03-29T09:17:46.933Z</time></trkpt><trkpt lat="46.4747127" lon="12.4344505"><ele>788.0</ele><time>2026-03-29T09:17:47.933Z</time></trkpt><trkpt lat="46.4748135" lon="12.4345953"><ele>788.0</ele><time>2026-03-29T09:17:48.915Z</time></trkpt><trkpt lat="46.4749145" lon="12.4347522"><ele>788.75</ele><time>2026-03-29T09:17:49.943Z</time></trkpt><trkpt lat="46.4750068" lon="12.4349049"><ele>789.5</ele><time>2026-03-29T09:17:50.929Z</time></trkpt><trkpt lat="46.4750895" lon="12.4350598"><ele>790.25</ele><time>2026-03-29T09:17:51.943Z</time></trkpt><trkpt lat="46.4751719" lon="12.4352102"><ele>791.0</ele><time>2026-03-29T09:17:52.928Z</time></trkpt><trkpt lat="46.4752496" lon="12.4353601"><ele>790.25</ele><time>2026-03-29T09:17:53.931Z</time></trkpt><trkpt lat="46.4753263" lon="12.4354899"><ele>789.5</ele><time>2026-03-29T09:17:54.927Z</time></trkpt><trkpt lat="46.4754353" lon="12.4356253"><ele>788.75</ele><time>2026-03-29T09:17:55.92Z</time></trkpt><trkpt lat="46.4755335" lon="12.435758"><ele>788.0</ele><time>2026-03-29T09:17:56.936Z</time></trkpt><trkpt lat="46.4756341" lon="12.4358889"><ele>789.6666666666667</ele><time>2026-03-29T09:17:57.925Z</time></trkpt><trkpt lat="46.4757456" lon="12.4360264"><ele>791.3333333333333</ele><time>2026-03-29T09:17:58.94Z</time></trkpt><trkpt lat="46.4758582" lon="12.4361642"><ele>793.0</ele><time>2026-03-29T09:17:59.926Z</time></trkpt><trkpt lat="46.4759832" lon="12.4363035"><ele>793.0</ele><time>2026-03-29T09:18:00.928Z</time></trkpt><trkpt lat="46.4761164" lon="12.4364467"><ele>793.0</ele><time>2026-03-29T09:18:01.931Z</time></trkpt><trkpt lat="46.4762549" lon="12.4365988"><ele>793.0</ele><time>2026-03-29T09:18:02.925Z</time></trkpt><trkpt lat="46.4764119" lon="12.4367499"><ele>793.0</ele><time>2026-03-29T09:18:03.926Z</time></trkpt><trkpt lat="46.4765618" lon="12.436899"><ele>793.0</ele><time>2026-03-29T09:18:04.942Z</time></trkpt><trkpt lat="46.4767076" lon="12.4370483"><ele>793.0</ele><time>2026-03-29T09:18:05.939Z</time></trkpt><trkpt lat="46.4768519" lon="12.4372056"><ele>793.0</ele><time>2026-03-29T09:18:06.94Z</time></trkpt><trkpt lat="46.476986" lon="12.4373761"><ele>793.0</ele><time>2026-03-29T09:18:07.948Z</time></trkpt><trkpt lat="46.4771155" lon="12.4375547"><ele>793.0</ele><time>2026-03-29T09:18:08.93Z</time></trkpt><trkpt lat="46.4772431" lon="12.4377447"><ele>793.0</ele><time>2026-03-29T09:18:09.941Z</time></trkpt><trkpt lat="46.4773613" lon="12.4379363"><ele>793.0</ele><time>2026-03-29T09:18:10.927Z</time></trkpt><trkpt lat="46.4774726" lon="12.4381305"><ele>793.0</ele><time>2026-03-29T09:18:11.929Z</time></trkpt><trkpt lat="46.4775765" lon="12.438319"><ele>789.6666666666666</ele><time>2026-03-29T09:18:12.941Z</time></trkpt><trkpt lat="46.4776792" lon="12.4385035"><ele>786.3333333333333</ele><time>2026-03-29T09:18:13.925Z</time></trkpt><trkpt lat="46.4777725" lon="12.4386742"><ele>783.0</ele><time>2026-03-29T09:18:14.929Z</time></trkpt><trkpt lat="46.4778596" lon="12.4388389"><ele>782.0</ele><time>2026-03-29T09:18:15.929Z</time></trkpt><trkpt lat="46.4779425" lon="12.4389852"><ele>781.0</ele><time>2026-03-29T09:18:16.921Z</time></trkpt><trkpt lat="46.478044" lon="12.4391554"><ele>780.0</ele><time>2026-03-29T09:18:17.928Z</time></trkpt><trkpt lat="46.4781492" lon="12.4393275"><ele>779.0</ele><time>2026-03-29T09:18:18.929Z</time></trkpt><trkpt lat="46.4782674" lon="12.4395021"><ele>776.5</ele><time>2026-03-29T09:18:19.921Z</time></trkpt><trkpt lat="46.4783809" lon="12.4396591"><ele>774.0</ele><time>2026-03-29T09:18:20.929Z</time></trkpt><trkpt lat="46.4784927" lon="12.4398023"><ele>771.5</ele><time>2026-03-29T09:18:21.923Z</time></trkpt><trkpt lat="46.4785936" lon="12.439923"><ele>769.0</ele><time>2026-03-29T09:18:22.93Z</time></trkpt><trkpt lat="46.4786864" lon="12.4400268"><ele>769.2</ele><time>2026-03-29T09:18:23.93Z</time></trkpt><trkpt lat="46.4787739" lon="12.4401142"><ele>769.4000000000001</ele><time>2026-03-29T09:18:24.923Z</time></trkpt><trkpt lat="46.478862" lon="12.4401948"><ele>769.6</ele><time>2026-03-29T09:18:25.924Z</time></trkpt><trkpt lat="46.4789529" lon="12.4402737"><ele>769.8</ele><time>2026-03-29T09:18:26.938Z</time></trkpt><trkpt lat="46.4790472" lon="12.4403429"><ele>770.0</ele><time>2026-03-29T09:18:27.926Z</time></trkpt><trkpt lat="46.4791466" lon="12.4404116"><ele>766.8</ele><time>2026-03-29T09:18:28.928Z</time></trkpt><trkpt lat="46.479248" lon="12.4404762"><ele>763.6</ele><time>2026-03-29T09:18:29.929Z</time></trkpt><trkpt lat="46.4793496" lon="12.440538"><ele>760.4000000000001</ele><time>2026-03-29T09:18:30.924Z</time></trkpt><trkpt lat="46.4794506" lon="12.4405999"><ele>757.2</ele><time>2026-03-29T09:18:31.929Z</time></trkpt><trkpt lat="46.4795509" lon="12.4406644"><ele>754.0</ele><time>2026-03-29T09:18:32.94Z</time></trkpt><trkpt lat="46.4796503" lon="12.4407285"><ele>753.6</ele><time>2026-03-29T09:18:33.928Z</time></trkpt><trkpt lat="46.4797512" lon="12.4407945"><ele>753.2</ele><time>2026-03-29T09:18:34.933Z</time></trkpt><trkpt lat="46.4798518" lon="12.4408567"><ele>752.8000000000001</ele><time>2026-03-29T09:18:35.932Z</time></trkpt><trkpt lat="46.4799525" lon="12.4409228"><ele>752.4000000000001</ele><time>2026-03-29T09:18:36.921Z</time></trkpt><trkpt lat="46.4800551" lon="12.4409887"><ele>752.0</ele><time>2026-03-29T09:18:37.921Z</time></trkpt><trkpt lat="46.4801631" lon="12.441063"><ele>752.0</ele><time>2026-03-29T09:18:38.923Z</time></trkpt><trkpt lat="46.4802758" lon="12.4411467"><ele>752.0</ele><time>2026-03-29T09:18:39.937Z</time></trkpt><trkpt lat="46.4803898" lon="12.4412398"><ele>752.0</ele><time>2026-03-29T09:18:40.922Z</time></trkpt><trkpt lat="46.4805033" lon="12.4413398"><ele>752.0</ele><time>2026-03-29T09:18:41.921Z</time></trkpt><trkpt lat="46.4806154" lon="12.4414456"><ele>749.75</ele><time>2026-03-29T09:18:42.925Z</time></trkpt><trkpt lat="46.4807243" lon="12.4415547"><ele>747.5</ele><time>2026-03-29T09:18:43.916Z</time></trkpt><trkpt lat="46.4808329" lon="12.4416709"><ele>745.25</ele><time>2026-03-29T09:18:44.938Z</time></trkpt><trkpt lat="46.4809409" lon="12.441795"><ele>743.0</ele><time>2026-03-29T09:18:45.931Z</time></trkpt><trkpt lat="46.4810531" lon="12.4419312"><ele>743.0</ele><time>2026-03-29T09:18:46.931Z</time></trkpt><trkpt lat="46.4811692" lon="12.4420806"><ele>743.0</ele><time>2026-03-29T09:18:47.931Z</time></trkpt><trkpt lat="46.4812848" lon="12.4422395"><ele>743.0</ele><time>2026-03-29T09:18:48.928Z</time></trkpt><trkpt lat="46.4813997" lon="12.4424047"><ele>743.3333333333333</ele><time>2026-03-29T09:18:49.936Z</time></trkpt><trkpt lat="46.4815121" lon="12.4425709"><ele>743.6666666666666</ele><time>2026-03-29T09:18:50.926Z</time></trkpt><trkpt lat="46.4816189" lon="12.4427424"><ele>744.0</ele><time>2026-03-29T09:18:51.932Z</time></trkpt><trkpt lat="46.4817271" lon="12.4429138"><ele>741.0</ele><time>2026-03-29T09:18:52.936Z</time></trkpt><trkpt lat="46.4818333" lon="12.4430786"><ele>738.0</ele><time>2026-03-29T09:18:53.924Z</time></trkpt><trkpt lat="46.4819426" lon="12.4432428"><ele>735.0</ele><time>2026-03-29T09:18:54.928Z</time></trkpt><trkpt lat="46.4820512" lon="12.4434063"><ele>735.0</ele><time>2026-03-29T09:18:55.935Z</time></trkpt><trkpt lat="46.4821632" lon="12.4435721"><ele>735.0</ele><time>2026-03-29T09:18:56.928Z</time></trkpt><trkpt lat="46.482276" lon="12.4437395"><ele>735.0</ele><time>2026-03-29T09:18:57.929Z</time></trkpt><trkpt lat="46.4823903" lon="12.4439076"><ele>736.3333333333334</ele><time>2026-03-29T09:18:58.92Z</time></trkpt><trkpt lat="46.4824999" lon="12.4440784"><ele>737.6666666666667</ele><time>2026-03-29T09:18:59.924Z</time></trkpt><trkpt lat="46.4826075" lon="12.4442604"><ele>739.0</ele><time>2026-03-29T09:19:00.945Z</time></trkpt><trkpt lat="46.4827028" lon="12.4444501"><ele>739.6666666666667</ele><time>2026-03-29T09:19:01.941Z</time></trkpt><trkpt lat="46.4827927" lon="12.4446521"><ele>740.3333333333334</ele><time>2026-03-29T09:19:02.928Z</time></trkpt><trkpt lat="46.4828784" lon="12.4448653"><ele>741.0</ele><time>2026-03-29T09:19:03.931Z</time></trkpt><trkpt lat="46.482958" lon="12.4450842"><ele>741.0</ele><time>2026-03-29T09:19:04.946Z</time></trkpt><trkpt lat="46.4830324" lon="12.4453072"><ele>741.0</ele><time>2026-03-29T09:19:05.934Z</time></trkpt><trkpt lat="46.4831059" lon="12.4455275"><ele>741.0</ele><time>2026-03-29T09:19:06.937Z</time></trkpt><trkpt lat="46.4831813" lon="12.4457463"><ele>739.0</ele><time>2026-03-29T09:19:07.94Z</time></trkpt><trkpt lat="46.4832584" lon="12.4459606"><ele>737.0</ele><time>2026-03-29T09:19:08.934Z</time></trkpt><trkpt lat="46.4833364" lon="12.4461758"><ele>735.0</ele><time>2026-03-29T09:19:09.941Z</time></trkpt><trkpt lat="46.4834126" lon="12.4463935"><ele>731.6666666666666</ele><time>2026-03-29T09:19:10.924Z</time></trkpt><trkpt lat="46.4834888" lon="12.4466142"><ele>728.3333333333333</ele><time>2026-03-29T09:19:11.935Z</time></trkpt><trkpt lat="46.4835648" lon="12.4468352"><ele>725.0</ele><time>2026-03-29T09:19:12.93Z</time></trkpt><trkpt lat="46.4836423" lon="12.4470588"><ele>727.0</ele><time>2026-03-29T09:19:13.941Z</time></trkpt><trkpt lat="46.4837219" lon="12.4472805"><ele>729.0</ele><time>2026-03-29T09:19:14.937Z</time></trkpt><trkpt lat="46.483804" lon="12.4475033"><ele>731.0</ele><time>2026-03-29T09:19:15.935Z</time></trkpt><trkpt lat="46.4838883" lon="12.447729"><ele>731.0</ele><time>2026-03-29T09:19:16.941Z</time></trkpt><trkpt lat="46.4839753" lon="12.4479542"><ele>731.0</ele><time>2026-03-29T09:19:17.924Z</time></trkpt><trkpt lat="46.4840673" lon="12.448182"><ele>731.0</ele><time>2026-03-29T09:19:18.94Z</time></trkpt><trkpt lat="46.4841617" lon="12.4484074"><ele>727.0</ele><time>2026-03-29T09:19:19.933Z</time></trkpt><trkpt lat="46.4842609" lon="12.4486292"><ele>723.0</ele><time>2026-03-29T09:19:20.93Z</time></trkpt><trkpt lat="46.4843621" lon="12.4488489"><ele>719.0</ele><time>2026-03-29T09:19:21.944Z</time></trkpt><trkpt lat="46.4844644" lon="12.4490598"><ele>721.0</ele><time>2026-03-29T09:19:22.949Z</time></trkpt><trkpt lat="46.4845726" lon="12.4492594"><ele>723.0</ele><time>2026-03-29T09:19:23.96Z</time></trkpt><trkpt lat="46.4846832" lon="12.4494423"><ele>725.0</ele><time>2026-03-29T09:19:24.933Z</time></trkpt><trkpt lat="46.4847985" lon="12.4496162"><ele>724.6666666666666</ele><time>2026-03-29T09:19:25.952Z</time></trkpt><trkpt lat="46.4849172" lon="12.4497667"><ele>724.3333333333334</ele><time>2026-03-29T09:19:26.926Z</time></trkpt><trkpt lat="46.4850519" lon="12.449917"><ele>724.0</ele><time>2026-03-29T09:19:27.934Z</time></trkpt><trkpt lat="46.485191" lon="12.4500555"><ele>724.0</ele><time>2026-03-29T09:19:28.925Z</time></trkpt><trkpt lat="46.4853372" lon="12.450185"><ele>724.0</ele><time>2026-03-29T09:19:29.938Z</time></trkpt><trkpt lat="46.4854857" lon="12.4502893"><ele>724.0</ele><time>2026-03-29T09:19:30.933Z</time></trkpt><trkpt lat="46.4856404" lon="12.4503928"><ele>724.0</ele><time>2026-03-29T09:19:31.929Z</time></trkpt><trkpt lat="46.4857972" lon="12.4504819"><ele>724.0</ele><time>2026-03-29T09:19:32.923Z</time></trkpt><trkpt lat="46.4859614" lon="12.4505626"><ele>724.0</ele><time>2026-03-29T09:19:33.939Z</time></trkpt><trkpt lat="46.4861252" lon="12.4506316"><ele>724.6666666666667</ele><time>2026-03-29T09:19:34.934Z</time></trkpt><trkpt lat="46.4862993" lon="12.4506888"><ele>725.3333333333334</ele><time>2026-03-29T09:19:35.949Z</time></trkpt><trkpt lat="46.4864825" lon="12.4507286"><ele>726.0</ele><time>2026-03-29T09:19:36.946Z</time></trkpt><trkpt lat="46.4866671" lon="12.4507527"><ele>726.0</ele><time>2026-03-29T09:19:37.94Z</time></trkpt><trkpt lat="46.4868541" lon="12.4507618"><ele>726.0</ele><time>2026-03-29T09:19:38.934Z</time></trkpt><trkpt lat="46.4870471" lon="12.4507633"><ele>726.0</ele><time>2026-03-29T09:19:39.948Z</time></trkpt><trkpt lat="46.4872325" lon="12.4507663"><ele>730.3333333333334</ele><time>2026-03-29T09:19:40.948Z</time></trkpt><trkpt lat="46.4874175" lon="12.4507746"><ele>734.6666666666667</ele><time>2026-03-29T09:19:41.926Z</time></trkpt><trkpt lat="46.4876058" lon="12.4507868"><ele>739.0</ele><time>2026-03-29T09:19:42.926Z</time></trkpt><trkpt lat="46.4877988" lon="12.4508011"><ele>742.6666666666667</ele><time>2026-03-29T09:19:43.94Z</time></trkpt><trkpt lat="46.487986" lon="12.4508153"><ele>746.3333333333334</ele><time>2026-03-29T09:19:44.935Z</time></trkpt><trkpt lat="46.4881736" lon="12.4508297"><ele>750.0</ele><time>2026-03-29T09:19:45.938Z</time></trkpt><trkpt lat="46.4883465" lon="12.4508486"><ele>750.0</ele><time>2026-03-29T09:19:46.935Z</time></trkpt><trkpt lat="46.4885162" lon="12.4508894"><ele>750.0</ele><time>2026-03-29T09:19:47.961Z</time></trkpt><trkpt lat="46.4886887" lon="12.4509203"><ele>750.0</ele><time>2026-03-29T09:19:48.936Z</time></trkpt><trkpt lat="46.4888646" lon="12.4509443"><ele>750.0</ele><time>2026-03-29T09:19:49.952Z</time></trkpt><trkpt lat="46.4890216" lon="12.4509777"><ele>750.0</ele><time>2026-03-29T09:19:50.923Z</time></trkpt><trkpt lat="46.4891732" lon="12.4510278"><ele>750.0</ele><time>2026-03-29T09:19:51.931Z</time></trkpt><trkpt lat="46.4893406" lon="12.4509743"><ele>750.0</ele><time>2026-03-29T09:19:52.94Z</time></trkpt><trkpt lat="46.4894607" lon="12.4510378"><ele>750.0</ele><time>2026-03-29T09:19:53.95Z</time></trkpt><trkpt lat="46.4895494" lon="12.4510812"><ele>750.0</ele><time>2026-03-29T09:19:54.941Z</time></trkpt><trkpt lat="46.4896098" lon="12.45112"><ele>750.0</ele><time>2026-03-29T09:19:55.934Z</time></trkpt><trkpt lat="46.4897181" lon="12.4511514"><ele>750.0</ele><time>2026-03-29T09:21:27.937Z</time></trkpt><trkpt lat="46.4897987" lon="12.4511763"><ele>750.0</ele><time>2026-03-29T09:21:29.92Z</time></trkpt><trkpt lat="46.4898648" lon="12.4511939"><ele>750.0</ele><time>2026-03-29T09:21:30.925Z</time></trkpt><trkpt lat="46.4899532" lon="12.4512001"><ele>750.0</ele><time>2026-03-29T09:21:31.925Z</time></trkpt><trkpt lat="46.4900603" lon="12.4512271"><ele>750.0</ele><time>2026-03-29T09:21:32.939Z</time></trkpt><trkpt lat="46.4901824" lon="12.45126"><ele>750.0</ele><time>2026-03-29T09:21:33.926Z</time></trkpt><trkpt lat="46.4903146" lon="12.4512928"><ele>747.25</ele><time>2026-03-29T09:21:34.935Z</time></trkpt><trkpt lat="46.490449" lon="12.4513226"><ele>744.5</ele><time>2026-03-29T09:21:35.92Z</time></trkpt><trkpt lat="46.4905777" lon="12.4513635"><ele>741.75</ele><time>2026-03-29T09:21:36.922Z</time></trkpt><trkpt lat="46.4907093" lon="12.451382"><ele>739.0</ele><time>2026-03-29T09:21:37.928Z</time></trkpt><trkpt lat="46.4908453" lon="12.4513737"><ele>739.0</ele><time>2026-03-29T09:21:38.92Z</time></trkpt><trkpt lat="46.4909841" lon="12.451334"><ele>739.0</ele><time>2026-03-29T09:21:39.922Z</time></trkpt><trkpt lat="46.4911265" lon="12.451333"><ele>739.0</ele><time>2026-03-29T09:21:40.919Z</time></trkpt><trkpt lat="46.4912692" lon="12.4513558"><ele>739.0</ele><time>2026-03-29T09:21:41.928Z</time></trkpt><trkpt lat="46.4914109" lon="12.4513844"><ele>738.75</ele><time>2026-03-29T09:21:42.934Z</time></trkpt><trkpt lat="46.4915513" lon="12.4514228"><ele>738.5</ele><time>2026-03-29T09:21:43.946Z</time></trkpt><trkpt lat="46.4916968" lon="12.451428"><ele>738.25</ele><time>2026-03-29T09:21:44.935Z</time></trkpt><trkpt lat="46.4918444" lon="12.4514267"><ele>738.0</ele><time>2026-03-29T09:21:45.934Z</time></trkpt><trkpt lat="46.4919937" lon="12.4514235"><ele>739.5</ele><time>2026-03-29T09:21:46.94Z</time></trkpt><trkpt lat="46.4921422" lon="12.4514129"><ele>741.0</ele><time>2026-03-29T09:21:47.928Z</time></trkpt><trkpt lat="46.4923031" lon="12.4514107"><ele>742.5</ele><time>2026-03-29T09:21:48.954Z</time></trkpt><trkpt lat="46.49244" lon="12.4514131"><ele>744.0</ele><time>2026-03-29T09:21:49.934Z</time></trkpt><trkpt lat="46.4925691" lon="12.4514493"><ele>744.0</ele><time>2026-03-29T09:21:50.942Z</time></trkpt><trkpt lat="46.4926923" lon="12.4514907"><ele>744.0</ele><time>2026-03-29T09:21:51.974Z</time></trkpt><trkpt lat="46.4928037" lon="12.4515314"><ele>744.0</ele><time>2026-03-29T09:21:52.931Z</time></trkpt><trkpt lat="46.4929103" lon="12.4515749"><ele>744.0</ele><time>2026-03-29T09:21:53.939Z</time></trkpt><trkpt lat="46.4930017" lon="12.4516191"><ele>744.0</ele><time>2026-03-29T09:21:54.937Z</time></trkpt><trkpt lat="46.4930775" lon="12.4516937"><ele>745.2</ele><time>2026-03-29T09:21:55.944Z</time></trkpt><trkpt lat="46.493141" lon="12.4518005"><ele>746.4000000000001</ele><time>2026-03-29T09:21:56.944Z</time></trkpt><trkpt lat="46.4931909" lon="12.4519402"><ele>747.6</ele><time>2026-03-29T09:21:57.937Z</time></trkpt><trkpt lat="46.4932437" lon="12.452082"><ele>748.8</ele><time>2026-03-29T09:21:58.937Z</time></trkpt><trkpt lat="46.4932976" lon="12.4522171"><ele>750.0</ele><time>2026-03-29T09:21:59.946Z</time></trkpt><trkpt lat="46.4933502" lon="12.4523378"><ele>750.0</ele><time>2026-03-29T09:22:00.961Z</time></trkpt><trkpt lat="46.4934259" lon="12.4524278"><ele>750.0</ele><time>2026-03-29T09:22:01.942Z</time></trkpt><trkpt lat="46.4935214" lon="12.4524674"><ele>750.0</ele><time>2026-03-29T09:22:02.949Z</time></trkpt><trkpt lat="46.493619" lon="12.4524535"><ele>750.0</ele><time>2026-03-29T09:22:03.97Z</time></trkpt><trkpt lat="46.4937125" lon="12.4524095"><ele>750.0</ele><time>2026-03-29T09:22:04.934Z</time></trkpt><trkpt lat="46.4938076" lon="12.4523602"><ele>749.0</ele><time>2026-03-29T09:22:05.935Z</time></trkpt><trkpt lat="46.4939035" lon="12.4522948"><ele>748.0</ele><time>2026-03-29T09:22:06.918Z</time></trkpt><trkpt lat="46.4939949" lon="12.4522411"><ele>747.0</ele><time>2026-03-29T09:22:07.92Z</time></trkpt><trkpt lat="46.4940751" lon="12.4522079"><ele>746.0</ele><time>2026-03-29T09:22:08.923Z</time></trkpt><trkpt lat="46.4941496" lon="12.4522211"><ele>745.0</ele><time>2026-03-29T09:22:09.928Z</time></trkpt><trkpt lat="46.4942141" lon="12.4522723"><ele>744.0</ele><time>2026-03-29T09:22:10.924Z</time></trkpt><trkpt lat="46.4942596" lon="12.4523618"><ele>744.0</ele><time>2026-03-29T09:22:11.936Z</time></trkpt><trkpt lat="46.494317" lon="12.4524319"><ele>744.0</ele><time>2026-03-29T09:22:12.941Z</time></trkpt><trkpt lat="46.4943978" lon="12.4524802"><ele>744.0</ele><time>2026-03-29T09:22:13.928Z</time></trkpt><trkpt lat="46.4945064" lon="12.4524814"><ele>744.0</ele><time>2026-03-29T09:22:14.928Z</time></trkpt><trkpt lat="46.4946227" lon="12.4524777"><ele>744.0</ele><time>2026-03-29T09:22:15.939Z</time></trkpt><trkpt lat="46.4947513" lon="12.4524791"><ele>742.6666666666666</ele><time>2026-03-29T09:22:16.921Z</time></trkpt><trkpt lat="46.4948996" lon="12.4525084"><ele>741.3333333333333</ele><time>2026-03-29T09:22:17.954Z</time></trkpt><trkpt lat="46.4950525" lon="12.4525407"><ele>740.0</ele><time>2026-03-29T09:22:18.942Z</time></trkpt><trkpt lat="46.4952078" lon="12.4525689"><ele>740.0</ele><time>2026-03-29T09:22:19.948Z</time></trkpt><trkpt lat="46.495357" lon="12.4526058"><ele>740.0</ele><time>2026-03-29T09:22:20.922Z</time></trkpt><trkpt lat="46.4954996" lon="12.452648"><ele>740.0</ele><time>2026-03-29T09:22:21.934Z</time></trkpt><trkpt lat="46.4956417" lon="12.4526929"><ele>740.0</ele><time>2026-03-29T09:22:22.932Z</time></trkpt><trkpt lat="46.4957772" lon="12.4527652"><ele>736.5</ele><time>2026-03-29T09:22:23.94Z</time></trkpt><trkpt lat="46.4958909" lon="12.452887"><ele>733.0</ele><time>2026-03-29T09:22:24.93Z</time></trkpt><trkpt lat="46.4959864" lon="12.4530206"><ele>729.5</ele><time>2026-03-29T09:22:25.931Z</time></trkpt><trkpt lat="46.4960864" lon="12.4531415"><ele>726.0</ele><time>2026-03-29T09:22:26.933Z</time></trkpt><trkpt lat="46.4961845" lon="12.4532354"><ele>727.1666666666666</ele><time>2026-03-29T09:22:27.926Z</time></trkpt><trkpt lat="46.4962764" lon="12.4532918"><ele>728.3333333333334</ele><time>2026-03-29T09:22:28.929Z</time></trkpt><trkpt lat="46.4963609" lon="12.4533356"><ele>729.5</ele><time>2026-03-29T09:22:29.948Z</time></trkpt><trkpt lat="46.4964418" lon="12.4533794"><ele>730.6666666666667</ele><time>2026-03-29T09:22:30.938Z</time></trkpt><trkpt lat="46.4965125" lon="12.4534182"><ele>731.8333333333334</ele><time>2026-03-29T09:22:31.932Z</time></trkpt><trkpt lat="46.4965893" lon="12.4534886"><ele>733.0</ele><time>2026-03-29T09:22:32.947Z</time></trkpt><trkpt lat="46.4966667" lon="12.4535644"><ele>733.0</ele><time>2026-03-29T09:22:33.938Z</time></trkpt><trkpt lat="46.4967547" lon="12.4536493"><ele>733.0</ele><time>2026-03-29T09:22:34.937Z</time></trkpt><trkpt lat="46.4968504" lon="12.4537433"><ele>733.0</ele><time>2026-03-29T09:22:35.939Z</time></trkpt><trkpt lat="46.4969616" lon="12.4538248"><ele>733.0</ele><time>2026-03-29T09:22:36.937Z</time></trkpt><trkpt lat="46.497083" lon="12.4538896"><ele>731.75</ele><time>2026-03-29T09:22:37.961Z</time></trkpt><trkpt lat="46.4972096" lon="12.453949"><ele>730.5</ele><time>2026-03-29T09:22:38.931Z</time></trkpt><trkpt lat="46.4973377" lon="12.4540175"><ele>729.25</ele><time>2026-03-29T09:22:39.929Z</time></trkpt><trkpt lat="46.4974585" lon="12.4541225"><ele>728.0</ele><time>2026-03-29T09:22:40.94Z</time></trkpt><trkpt lat="46.4975834" lon="12.4542256"><ele>728.0</ele><time>2026-03-29T09:22:41.926Z</time></trkpt><trkpt lat="46.4977126" lon="12.454314"><ele>728.0</ele><time>2026-03-29T09:22:42.945Z</time></trkpt><trkpt lat="46.4978504" lon="12.4543841"><ele>728.0</ele><time>2026-03-29T09:22:43.929Z</time></trkpt><trkpt lat="46.4979927" lon="12.4544268"><ele>728.0</ele><time>2026-03-29T09:22:44.931Z</time></trkpt><trkpt lat="46.4981357" lon="12.4544776"><ele>729.0</ele><time>2026-03-29T09:22:45.934Z</time></trkpt><trkpt lat="46.4982751" lon="12.4545491"><ele>730.0</ele><time>2026-03-29T09:22:46.927Z</time></trkpt><trkpt lat="46.4984182" lon="12.4546217"><ele>731.0</ele><time>2026-03-29T09:22:47.933Z</time></trkpt><trkpt lat="46.4985679" lon="12.4547018"><ele>731.0</ele><time>2026-03-29T09:22:48.922Z</time></trkpt><trkpt lat="46.4987251" lon="12.454761"><ele>731.0</ele><time>2026-03-29T09:22:49.912Z</time></trkpt><trkpt lat="46.4988864" lon="12.45481"><ele>731.0</ele><time>2026-03-29T09:22:50.925Z</time></trkpt><trkpt lat="46.4990506" lon="12.4548552"><ele>731.0</ele><time>2026-03-29T09:22:51.916Z</time></trkpt><trkpt lat="46.4992169" lon="12.4548952"><ele>731.0</ele><time>2026-03-29T09:22:52.926Z</time></trkpt><trkpt lat="46.499387" lon="12.45493"><ele>731.0</ele><time>2026-03-29T09:22:53.92Z</time></trkpt><trkpt lat="46.499554" lon="12.4549704"><ele>730.0</ele><time>2026-03-29T09:22:54.928Z</time></trkpt><trkpt lat="46.4997173" lon="12.4550081"><ele>729.0</ele><time>2026-03-29T09:22:55.931Z</time></trkpt><trkpt lat="46.4998753" lon="12.4550572"><ele>728.0</ele><time>2026-03-29T09:22:56.929Z</time></trkpt><trkpt lat="46.5000291" lon="12.4551112"><ele>728.0</ele><time>2026-03-29T09:22:57.951Z</time></trkpt><trkpt lat="46.5001805" lon="12.4551747"><ele>728.0</ele><time>2026-03-29T09:22:58.93Z</time></trkpt><trkpt lat="46.5003292" lon="12.455255"><ele>728.0</ele><time>2026-03-29T09:22:59.94Z</time></trkpt><trkpt lat="46.5004773" lon="12.4553368"><ele>727.0</ele><time>2026-03-29T09:23:00.949Z</time></trkpt><trkpt lat="46.5006267" lon="12.4554217"><ele>726.0</ele><time>2026-03-29T09:23:01.935Z</time></trkpt><trkpt lat="46.5007782" lon="12.4555093"><ele>725.0</ele><time>2026-03-29T09:23:02.93Z</time></trkpt><trkpt lat="46.5009299" lon="12.4556087"><ele>728.6666666666666</ele><time>2026-03-29T09:23:03.93Z</time></trkpt><trkpt lat="46.5010766" lon="12.4557319"><ele>732.3333333333334</ele><time>2026-03-29T09:23:04.928Z</time></trkpt><trkpt lat="46.5012245" lon="12.4558542"><ele>736.0</ele><time>2026-03-29T09:23:05.94Z</time></trkpt><trkpt lat="46.5013725" lon="12.4559788"><ele>736.3333333333334</ele><time>2026-03-29T09:23:06.936Z</time></trkpt><trkpt lat="46.5015212" lon="12.4561028"><ele>736.6666666666666</ele><time>2026-03-29T09:23:07.94Z</time></trkpt><trkpt lat="46.5016706" lon="12.4562272"><ele>737.0</ele><time>2026-03-29T09:23:08.935Z</time></trkpt><trkpt lat="46.5018216" lon="12.4563507"><ele>735.3333333333333</ele><time>2026-03-29T09:23:09.934Z</time></trkpt><trkpt lat="46.501973" lon="12.4564754"><ele>733.6666666666666</ele><time>2026-03-29T09:23:10.923Z</time></trkpt><trkpt lat="46.5021239" lon="12.4565993"><ele>732.0</ele><time>2026-03-29T09:23:11.928Z</time></trkpt><trkpt lat="46.5022742" lon="12.456723"><ele>732.0</ele><time>2026-03-29T09:23:12.931Z</time></trkpt><trkpt lat="46.5024228" lon="12.4568444"><ele>732.0</ele><time>2026-03-29T09:23:13.942Z</time></trkpt><trkpt lat="46.5025697" lon="12.4569625"><ele>732.0</ele><time>2026-03-29T09:23:14.925Z</time></trkpt><trkpt lat="46.5027132" lon="12.4570759"><ele>734.75</ele><time>2026-03-29T09:23:15.934Z</time></trkpt><trkpt lat="46.5028487" lon="12.4571928"><ele>737.5</ele><time>2026-03-29T09:23:16.939Z</time></trkpt><trkpt lat="46.5029841" lon="12.4572835"><ele>740.25</ele><time>2026-03-29T09:23:17.948Z</time></trkpt><trkpt lat="46.5031118" lon="12.4573757"><ele>743.0</ele><time>2026-03-29T09:23:18.926Z</time></trkpt><trkpt lat="46.5032395" lon="12.4574553"><ele>743.0</ele><time>2026-03-29T09:23:19.941Z</time></trkpt><trkpt lat="46.5033717" lon="12.4575114"><ele>743.0</ele><time>2026-03-29T09:23:20.93Z</time></trkpt><trkpt lat="46.503505" lon="12.4575633"><ele>743.0</ele><time>2026-03-29T09:23:21.945Z</time></trkpt><trkpt lat="46.5036412" lon="12.4575911"><ele>743.0</ele><time>2026-03-29T09:23:22.939Z</time></trkpt><trkpt lat="46.5037854" lon="12.4576012"><ele>741.6666666666666</ele><time>2026-03-29T09:23:23.923Z</time></trkpt><trkpt lat="46.503934" lon="12.4575944"><ele>740.3333333333334</ele><time>2026-03-29T09:23:24.928Z</time></trkpt><trkpt lat="46.5040855" lon="12.4575804"><ele>739.0</ele><time>2026-03-29T09:23:25.926Z</time></trkpt><trkpt lat="46.5042404" lon="12.4575665"><ele>739.0</ele><time>2026-03-29T09:23:26.923Z</time></trkpt><trkpt lat="46.5043967" lon="12.4575466"><ele>739.0</ele><time>2026-03-29T09:23:27.936Z</time></trkpt><trkpt lat="46.5045511" lon="12.4575135"><ele>739.0</ele><time>2026-03-29T09:23:28.92Z</time></trkpt><trkpt lat="46.5047127" lon="12.457501"><ele>741.0</ele><time>2026-03-29T09:23:29.923Z</time></trkpt><trkpt lat="46.5048734" lon="12.4575003"><ele>743.0</ele><time>2026-03-29T09:23:30.931Z</time></trkpt><trkpt lat="46.505031" lon="12.4575274"><ele>745.0</ele><time>2026-03-29T09:23:31.938Z</time></trkpt><trkpt lat="46.5051876" lon="12.4575673"><ele>745.0</ele><time>2026-03-29T09:23:32.929Z</time></trkpt><trkpt lat="46.5053454" lon="12.4576091"><ele>745.0</ele><time>2026-03-29T09:23:33.919Z</time></trkpt><trkpt lat="46.5055081" lon="12.4576349"><ele>745.0</ele><time>2026-03-29T09:23:34.945Z</time></trkpt><trkpt lat="46.5056707" lon="12.4576626"><ele>744.3333333333334</ele><time>2026-03-29T09:23:35.947Z</time></trkpt><trkpt lat="46.5058365" lon="12.4576659"><ele>743.6666666666666</ele><time>2026-03-29T09:23:36.943Z</time></trkpt><trkpt lat="46.5060036" lon="12.4576444"><ele>743.0</ele><time>2026-03-29T09:23:37.94Z</time></trkpt><trkpt lat="46.5061644" lon="12.4576201"><ele>741.3333333333333</ele><time>2026-03-29T09:23:38.929Z</time></trkpt><trkpt lat="46.5063209" lon="12.4575768"><ele>739.6666666666666</ele><time>2026-03-29T09:23:39.922Z</time></trkpt><trkpt lat="46.5064857" lon="12.4575578"><ele>738.0</ele><time>2026-03-29T09:23:40.925Z</time></trkpt><trkpt lat="46.5066458" lon="12.4575368"><ele>738.0</ele><time>2026-03-29T09:23:41.927Z</time></trkpt><trkpt lat="46.5068044" lon="12.4575411"><ele>738.0</ele><time>2026-03-29T09:23:42.928Z</time></trkpt><trkpt lat="46.5069658" lon="12.457566"><ele>738.0</ele><time>2026-03-29T09:23:43.921Z</time></trkpt><trkpt lat="46.5071241" lon="12.4576056"><ele>739.0</ele><time>2026-03-29T09:23:44.923Z</time></trkpt><trkpt lat="46.5072801" lon="12.4576752"><ele>740.0</ele><time>2026-03-29T09:23:45.932Z</time></trkpt><trkpt lat="46.5074318" lon="12.4577607"><ele>741.0</ele><time>2026-03-29T09:23:46.923Z</time></trkpt><trkpt lat="46.507584" lon="12.4578433"><ele>741.0</ele><time>2026-03-29T09:23:47.94Z</time></trkpt><trkpt lat="46.5077338" lon="12.4579255"><ele>741.0</ele><time>2026-03-29T09:23:48.924Z</time></trkpt><trkpt lat="46.507884" lon="12.4580068"><ele>741.0</ele><time>2026-03-29T09:23:49.939Z</time></trkpt><trkpt lat="46.5080357" lon="12.458088"><ele>739.6666666666666</ele><time>2026-03-29T09:23:50.931Z</time></trkpt><trkpt lat="46.5081911" lon="12.458163"><ele>738.3333333333333</ele><time>2026-03-29T09:23:51.924Z</time></trkpt><trkpt lat="46.5083445" lon="12.4582418"><ele>737.0</ele><time>2026-03-29T09:23:52.924Z</time></trkpt><trkpt lat="46.5084966" lon="12.4583286"><ele>737.0</ele><time>2026-03-29T09:23:53.919Z</time></trkpt><trkpt lat="46.508649" lon="12.4584135"><ele>737.0</ele><time>2026-03-29T09:23:54.93Z</time></trkpt><trkpt lat="46.5088013" lon="12.4585013"><ele>737.0</ele><time>2026-03-29T09:23:55.935Z</time></trkpt><trkpt lat="46.5089536" lon="12.4585886"><ele>740.0</ele><time>2026-03-29T09:23:56.937Z</time></trkpt><trkpt lat="46.5091007" lon="12.4586675"><ele>743.0</ele><time>2026-03-29T09:23:57.92Z</time></trkpt><trkpt lat="46.5092448" lon="12.4587748"><ele>746.0</ele><time>2026-03-29T09:23:58.939Z</time></trkpt><trkpt lat="46.5093891" lon="12.4588833"><ele>746.0</ele><time>2026-03-29T09:23:59.93Z</time></trkpt><trkpt lat="46.5095259" lon="12.4590054"><ele>746.0</ele><time>2026-03-29T09:24:00.944Z</time></trkpt><trkpt lat="46.509658" lon="12.4591338"><ele>746.0</ele><time>2026-03-29T09:24:01.935Z</time></trkpt><trkpt lat="46.5097851" lon="12.4592689"><ele>748.25</ele><time>2026-03-29T09:24:02.925Z</time></trkpt><trkpt lat="46.5099051" lon="12.4594003"><ele>750.5</ele><time>2026-03-29T09:24:03.955Z</time></trkpt><trkpt lat="46.5100131" lon="12.459534"><ele>752.75</ele><time>2026-03-29T09:24:04.928Z</time></trkpt><trkpt lat="46.5101118" lon="12.4596697"><ele>755.0</ele><time>2026-03-29T09:24:05.935Z</time></trkpt><trkpt lat="46.5102115" lon="12.4597904"><ele>756.0</ele><time>2026-03-29T09:24:06.955Z</time></trkpt><trkpt lat="46.5103036" lon="12.45992"><ele>757.0</ele><time>2026-03-29T09:24:07.926Z</time></trkpt><trkpt lat="46.5103993" lon="12.4600489"><ele>758.0</ele><time>2026-03-29T09:24:08.942Z</time></trkpt><trkpt lat="46.5105015" lon="12.4601795"><ele>759.0</ele><time>2026-03-29T09:24:09.938Z</time></trkpt><trkpt lat="46.5106109" lon="12.4603176"><ele>763.3333333333333</ele><time>2026-03-29T09:24:10.928Z</time></trkpt><trkpt lat="46.5107253" lon="12.4604585"><ele>767.6666666666666</ele><time>2026-03-29T09:24:11.922Z</time></trkpt><trkpt lat="46.5108431" lon="12.4605982"><ele>772.0</ele><time>2026-03-29T09:24:12.921Z</time></trkpt><trkpt lat="46.5109647" lon="12.4607262"><ele>772.0</ele><time>2026-03-29T09:24:13.921Z</time></trkpt><trkpt lat="46.51109" lon="12.4608416"><ele>772.0</ele><time>2026-03-29T09:24:14.93Z</time></trkpt><trkpt lat="46.5112207" lon="12.4609519"><ele>772.0</ele><time>2026-03-29T09:24:15.937Z</time></trkpt><trkpt lat="46.5113587" lon="12.4610534"><ele>771.0</ele><time>2026-03-29T09:24:16.935Z</time></trkpt><trkpt lat="46.5114972" lon="12.4611612"><ele>770.0</ele><time>2026-03-29T09:24:17.923Z</time></trkpt><trkpt lat="46.5116389" lon="12.461268"><ele>769.0</ele><time>2026-03-29T09:24:18.923Z</time></trkpt><trkpt lat="46.5117813" lon="12.4613796"><ele>769.0</ele><time>2026-03-29T09:24:19.926Z</time></trkpt><trkpt lat="46.5119253" lon="12.4614899"><ele>769.0</ele><time>2026-03-29T09:24:20.926Z</time></trkpt><trkpt lat="46.5120718" lon="12.4615959"><ele>769.0</ele><time>2026-03-29T09:24:21.936Z</time></trkpt><trkpt lat="46.5122162" lon="12.4617057"><ele>768.3333333333333</ele><time>2026-03-29T09:24:22.921Z</time></trkpt><trkpt lat="46.5123578" lon="12.4618183"><ele>767.6666666666666</ele><time>2026-03-29T09:24:23.928Z</time></trkpt><trkpt lat="46.5124994" lon="12.4619248"><ele>767.0</ele><time>2026-03-29T09:24:24.934Z</time></trkpt><trkpt lat="46.5126398" lon="12.4620292"><ele>767.6666666666666</ele><time>2026-03-29T09:24:25.948Z</time></trkpt><trkpt lat="46.5127793" lon="12.4621298"><ele>768.3333333333333</ele><time>2026-03-29T09:24:26.944Z</time></trkpt><trkpt lat="46.5129158" lon="12.4622324"><ele>769.0</ele><time>2026-03-29T09:24:27.951Z</time></trkpt><trkpt lat="46.5130481" lon="12.4623411"><ele>770.3333333333333</ele><time>2026-03-29T09:24:28.937Z</time></trkpt><trkpt lat="46.5131759" lon="12.4624579"><ele>771.6666666666667</ele><time>2026-03-29T09:24:29.935Z</time></trkpt><trkpt lat="46.5132972" lon="12.462588"><ele>773.0</ele><time>2026-03-29T09:24:30.933Z</time></trkpt><trkpt lat="46.5134151" lon="12.4627221"><ele>773.0</ele><time>2026-03-29T09:24:31.933Z</time></trkpt><trkpt lat="46.5135295" lon="12.4628619"><ele>773.0</ele><time>2026-03-29T09:24:32.926Z</time></trkpt><trkpt lat="46.513645" lon="12.4629993"><ele>773.0</ele><time>2026-03-29T09:24:33.945Z</time></trkpt><trkpt lat="46.5137618" lon="12.4631345"><ele>773.0</ele><time>2026-03-29T09:24:34.951Z</time></trkpt><trkpt lat="46.513878" lon="12.4632724"><ele>774.5</ele><time>2026-03-29T09:24:35.937Z</time></trkpt><trkpt lat="46.5139974" lon="12.4634011"><ele>776.0</ele><time>2026-03-29T09:24:36.943Z</time></trkpt><trkpt lat="46.5141248" lon="12.46351"><ele>777.5</ele><time>2026-03-29T09:24:37.93Z</time></trkpt><trkpt lat="46.5142594" lon="12.4636"><ele>779.0</ele><time>2026-03-29T09:24:38.932Z</time></trkpt><trkpt lat="46.5143993" lon="12.4636675"><ele>779.0</ele><time>2026-03-29T09:24:39.934Z</time></trkpt><trkpt lat="46.5145471" lon="12.4637055"><ele>779.0</ele><time>2026-03-29T09:24:40.959Z</time></trkpt><trkpt lat="46.5146958" lon="12.4637458"><ele>779.0</ele><time>2026-03-29T09:24:41.952Z</time></trkpt><trkpt lat="46.5148458" lon="12.4637841"><ele>780.0</ele><time>2026-03-29T09:24:42.942Z</time></trkpt><trkpt lat="46.5149961" lon="12.4638233"><ele>781.0</ele><time>2026-03-29T09:24:43.929Z</time></trkpt><trkpt lat="46.5151453" lon="12.4638599"><ele>782.0</ele><time>2026-03-29T09:24:44.929Z</time></trkpt><trkpt lat="46.5152933" lon="12.4638972"><ele>783.6666666666667</ele><time>2026-03-29T09:24:45.939Z</time></trkpt><trkpt lat="46.5154417" lon="12.4639356"><ele>785.3333333333333</ele><time>2026-03-29T09:24:46.933Z</time></trkpt><trkpt lat="46.5155902" lon="12.4639781"><ele>787.0</ele><time>2026-03-29T09:24:47.921Z</time></trkpt><trkpt lat="46.5157391" lon="12.4640213"><ele>787.0</ele><time>2026-03-29T09:24:48.924Z</time></trkpt><trkpt lat="46.5158877" lon="12.464066"><ele>787.0</ele><time>2026-03-29T09:24:49.934Z</time></trkpt><trkpt lat="46.516035" lon="12.4641106"><ele>787.0</ele><time>2026-03-29T09:24:50.932Z</time></trkpt><trkpt lat="46.51618" lon="12.4641654"><ele>788.0</ele><time>2026-03-29T09:24:51.936Z</time></trkpt><trkpt lat="46.516325" lon="12.4642312"><ele>789.0</ele><time>2026-03-29T09:24:52.929Z</time></trkpt><trkpt lat="46.5164701" lon="12.4643136"><ele>790.0</ele><time>2026-03-29T09:24:53.949Z</time></trkpt><trkpt lat="46.5166174" lon="12.4644049"><ele>790.0</ele><time>2026-03-29T09:24:54.918Z</time></trkpt><trkpt lat="46.5167648" lon="12.4645092"><ele>790.0</ele><time>2026-03-29T09:24:55.95Z</time></trkpt><trkpt lat="46.5169134" lon="12.4646131"><ele>790.0</ele><time>2026-03-29T09:24:56.929Z</time></trkpt><trkpt lat="46.517062" lon="12.4647115"><ele>790.3333333333333</ele><time>2026-03-29T09:24:57.947Z</time></trkpt><trkpt lat="46.5172081" lon="12.4648102"><ele>790.6666666666667</ele><time>2026-03-29T09:24:58.908Z</time></trkpt><trkpt lat="46.5173514" lon="12.4649072"><ele>791.0</ele><time>2026-03-29T09:24:59.913Z</time></trkpt><trkpt lat="46.5174915" lon="12.4650057"><ele>791.0</ele><time>2026-03-29T09:25:00.928Z</time></trkpt><trkpt lat="46.5176287" lon="12.4651079"><ele>791.0</ele><time>2026-03-29T09:25:01.937Z</time></trkpt><trkpt lat="46.5177645" lon="12.4652107"><ele>791.0</ele><time>2026-03-29T09:25:02.925Z</time></trkpt><trkpt lat="46.5178992" lon="12.4653196"><ele>788.6666666666667</ele><time>2026-03-29T09:25:03.948Z</time></trkpt><trkpt lat="46.518046" lon="12.4653999"><ele>786.3333333333333</ele><time>2026-03-29T09:25:04.934Z</time></trkpt><trkpt lat="46.518194" lon="12.4654861"><ele>784.0</ele><time>2026-03-29T09:25:05.939Z</time></trkpt><trkpt lat="46.5183426" lon="12.4655829"><ele>785.3333333333333</ele><time>2026-03-29T09:25:06.93Z</time></trkpt><trkpt lat="46.5184923" lon="12.4656911"><ele>786.6666666666667</ele><time>2026-03-29T09:25:07.939Z</time></trkpt><trkpt lat="46.518651" lon="12.4657879"><ele>788.0</ele><time>2026-03-29T09:25:08.921Z</time></trkpt><trkpt lat="46.5188064" lon="12.4658925"><ele>788.0</ele><time>2026-03-29T09:25:09.924Z</time></trkpt><trkpt lat="46.5189593" lon="12.4659983"><ele>788.0</ele><time>2026-03-29T09:25:10.934Z</time></trkpt><trkpt lat="46.519101" lon="12.4661333"><ele>788.0</ele><time>2026-03-29T09:25:11.954Z</time></trkpt><trkpt lat="46.5192378" lon="12.4662819"><ele>787.0</ele><time>2026-03-29T09:25:12.934Z</time></trkpt><trkpt lat="46.519373" lon="12.4664452"><ele>786.0</ele><time>2026-03-29T09:25:13.937Z</time></trkpt><trkpt lat="46.5195245" lon="12.4665906"><ele>785.0</ele><time>2026-03-29T09:25:14.942Z</time></trkpt><trkpt lat="46.5196761" lon="12.4667352"><ele>785.0</ele><time>2026-03-29T09:25:15.932Z</time></trkpt><trkpt lat="46.5198206" lon="12.4668902"><ele>785.0</ele><time>2026-03-29T09:25:16.929Z</time></trkpt><trkpt lat="46.5199755" lon="12.4670235"><ele>785.0</ele><time>2026-03-29T09:25:17.952Z</time></trkpt><trkpt lat="46.5201334" lon="12.4671367"><ele>791.0</ele><time>2026-03-29T09:25:18.93Z</time></trkpt><trkpt lat="46.5202916" lon="12.467232"><ele>797.0</ele><time>2026-03-29T09:25:19.924Z</time></trkpt><trkpt lat="46.5204329" lon="12.4673496"><ele>803.0</ele><time>2026-03-29T09:25:20.92Z</time></trkpt><trkpt lat="46.5205811" lon="12.4674265"><ele>803.0</ele><time>2026-03-29T09:25:21.919Z</time></trkpt><trkpt lat="46.5207397" lon="12.4674709"><ele>803.0</ele><time>2026-03-29T09:25:22.93Z</time></trkpt><trkpt lat="46.5209063" lon="12.4674696"><ele>803.0</ele><time>2026-03-29T09:25:23.948Z</time></trkpt><trkpt lat="46.5210754" lon="12.4674448"><ele>802.3333333333334</ele><time>2026-03-29T09:25:24.926Z</time></trkpt><trkpt lat="46.5212507" lon="12.4674083"><ele>801.6666666666667</ele><time>2026-03-29T09:25:25.929Z</time></trkpt><trkpt lat="46.5214258" lon="12.4673573"><ele>801.0</ele><time>2026-03-29T09:25:26.929Z</time></trkpt><trkpt lat="46.5216036" lon="12.4672968"><ele>801.0</ele><time>2026-03-29T09:25:27.92Z</time></trkpt><trkpt lat="46.5217743" lon="12.4672623"><ele>801.0</ele><time>2026-03-29T09:25:28.925Z</time></trkpt><trkpt lat="46.5219465" lon="12.4672512"><ele>801.0</ele><time>2026-03-29T09:25:29.929Z</time></trkpt><trkpt lat="46.52212" lon="12.4672689"><ele>799.6666666666667</ele><time>2026-03-29T09:25:30.925Z</time></trkpt><trkpt lat="46.5222976" lon="12.4672712"><ele>798.3333333333334</ele><time>2026-03-29T09:25:31.919Z</time></trkpt><trkpt lat="46.5224744" lon="12.4672936"><ele>797.0</ele><time>2026-03-29T09:25:32.927Z</time></trkpt><trkpt lat="46.5226515" lon="12.4673259"><ele>797.0</ele><time>2026-03-29T09:25:33.928Z</time></trkpt><trkpt lat="46.5228235" lon="12.4673354"><ele>797.0</ele><time>2026-03-29T09:25:34.934Z</time></trkpt><trkpt lat="46.5229879" lon="12.4673537"><ele>797.0</ele><time>2026-03-29T09:25:35.942Z</time></trkpt><trkpt lat="46.5231473" lon="12.46734"><ele>801.3333333333334</ele><time>2026-03-29T09:25:36.916Z</time></trkpt><trkpt lat="46.5233073" lon="12.4672664"><ele>805.6666666666667</ele><time>2026-03-29T09:25:37.929Z</time></trkpt><trkpt lat="46.5234601" lon="12.467167"><ele>810.0</ele><time>2026-03-29T09:25:38.933Z</time></trkpt><trkpt lat="46.5236087" lon="12.4670646"><ele>804.25</ele><time>2026-03-29T09:25:39.933Z</time></trkpt><trkpt lat="46.523748" lon="12.4669785"><ele>798.5</ele><time>2026-03-29T09:25:40.942Z</time></trkpt><trkpt lat="46.5238849" lon="12.4669187"><ele>792.75</ele><time>2026-03-29T09:25:41.936Z</time></trkpt><trkpt lat="46.5240162" lon="12.4668665"><ele>787.0</ele><time>2026-03-29T09:25:42.931Z</time></trkpt><trkpt lat="46.52414" lon="12.4668222"><ele>787.0</ele><time>2026-03-29T09:25:43.924Z</time></trkpt><trkpt lat="46.5242661" lon="12.4668075"><ele>787.0</ele><time>2026-03-29T09:25:44.93Z</time></trkpt><trkpt lat="46.5243925" lon="12.4668195"><ele>787.0</ele><time>2026-03-29T09:25:45.945Z</time></trkpt><trkpt lat="46.5245195" lon="12.4668554"><ele>787.0</ele><time>2026-03-29T09:25:46.933Z</time></trkpt><trkpt lat="46.5246461" lon="12.46695"><ele>788.0</ele><time>2026-03-29T09:25:47.918Z</time></trkpt><trkpt lat="46.5247619" lon="12.4670661"><ele>789.0</ele><time>2026-03-29T09:25:48.922Z</time></trkpt><trkpt lat="46.524878" lon="12.4671919"><ele>790.0</ele><time>2026-03-29T09:25:49.921Z</time></trkpt><trkpt lat="46.5250022" lon="12.4672971"><ele>791.0</ele><time>2026-03-29T09:25:50.922Z</time></trkpt><trkpt lat="46.525122" lon="12.4674065"><ele>792.0</ele><time>2026-03-29T09:25:51.942Z</time></trkpt><trkpt lat="46.5252381" lon="12.467511"><ele>793.0</ele><time>2026-03-29T09:25:52.925Z</time></trkpt><trkpt lat="46.5253599" lon="12.4676276"><ele>794.0</ele><time>2026-03-29T09:25:53.92Z</time></trkpt><trkpt lat="46.5254999" lon="12.4677289"><ele>795.0</ele><time>2026-03-29T09:25:54.925Z</time></trkpt><trkpt lat="46.5256515" lon="12.4677879"><ele>795.0</ele><time>2026-03-29T09:25:55.94Z</time></trkpt><trkpt lat="46.525812" lon="12.4678178"><ele>795.0</ele><time>2026-03-29T09:25:56.929Z</time></trkpt><trkpt lat="46.5259692" lon="12.4678387"><ele>795.0</ele><time>2026-03-29T09:25:57.953Z</time></trkpt><trkpt lat="46.5261258" lon="12.4678345"><ele>796.6666666666667</ele><time>2026-03-29T09:25:58.925Z</time></trkpt><trkpt lat="46.5262876" lon="12.4678266"><ele>798.3333333333334</ele><time>2026-03-29T09:25:59.922Z</time></trkpt><trkpt lat="46.5264503" lon="12.46782"><ele>800.0</ele><time>2026-03-29T09:26:00.929Z</time></trkpt><trkpt lat="46.52661" lon="12.4678167"><ele>800.0</ele><time>2026-03-29T09:26:01.916Z</time></trkpt><trkpt lat="46.5267651" lon="12.467822"><ele>800.0</ele><time>2026-03-29T09:26:02.913Z</time></trkpt><trkpt lat="46.5269224" lon="12.4678288"><ele>800.0</ele><time>2026-03-29T09:26:03.923Z</time></trkpt><trkpt lat="46.5270785" lon="12.4678697"><ele>798.6666666666667</ele><time>2026-03-29T09:26:04.926Z</time></trkpt><trkpt lat="46.527232" lon="12.4679251"><ele>797.3333333333333</ele><time>2026-03-29T09:26:05.931Z</time></trkpt><trkpt lat="46.5273874" lon="12.4679748"><ele>796.0</ele><time>2026-03-29T09:26:06.921Z</time></trkpt><trkpt lat="46.5275415" lon="12.4680213"><ele>798.6666666666666</ele><time>2026-03-29T09:26:07.93Z</time></trkpt><trkpt lat="46.5276923" lon="12.4680738"><ele>801.3333333333333</ele><time>2026-03-29T09:26:08.925Z</time></trkpt><trkpt lat="46.5278404" lon="12.4681037"><ele>804.0</ele><time>2026-03-29T09:26:09.944Z</time></trkpt><trkpt lat="46.5279852" lon="12.4681423"><ele>804.0</ele><time>2026-03-29T09:26:10.92Z</time></trkpt><trkpt lat="46.5281286" lon="12.4681821"><ele>804.0</ele><time>2026-03-29T09:26:11.941Z</time></trkpt><trkpt lat="46.5282694" lon="12.4682284"><ele>804.0</ele><time>2026-03-29T09:26:12.925Z</time></trkpt><trkpt lat="46.5284099" lon="12.4682905"><ele>804.0</ele><time>2026-03-29T09:26:13.933Z</time></trkpt><trkpt lat="46.5285543" lon="12.4683568"><ele>804.0</ele><time>2026-03-29T09:26:14.948Z</time></trkpt><trkpt lat="46.5287005" lon="12.4684352"><ele>804.0</ele><time>2026-03-29T09:26:15.93Z</time></trkpt><trkpt lat="46.5288495" lon="12.4685038"><ele>804.0</ele><time>2026-03-29T09:26:16.933Z</time></trkpt><trkpt lat="46.5290014" lon="12.4685634"><ele>800.3333333333333</ele><time>2026-03-29T09:26:17.94Z</time></trkpt><trkpt lat="46.5291553" lon="12.468616"><ele>796.6666666666666</ele><time>2026-03-29T09:26:18.934Z</time></trkpt><trkpt lat="46.5293086" lon="12.4686666"><ele>793.0</ele><time>2026-03-29T09:26:19.939Z</time></trkpt><trkpt lat="46.5294619" lon="12.4687164"><ele>793.0</ele><time>2026-03-29T09:26:20.924Z</time></trkpt><trkpt lat="46.5296151" lon="12.4687655"><ele>793.0</ele><time>2026-03-29T09:26:21.927Z</time></trkpt><trkpt lat="46.5297684" lon="12.4688123"><ele>793.0</ele><time>2026-03-29T09:26:22.935Z</time></trkpt><trkpt lat="46.5299224" lon="12.4688555"><ele>801.0</ele><time>2026-03-29T09:26:23.944Z</time></trkpt><trkpt lat="46.5300771" lon="12.4688975"><ele>809.0</ele><time>2026-03-29T09:26:24.942Z</time></trkpt><trkpt lat="46.5302314" lon="12.4689489"><ele>817.0</ele><time>2026-03-29T09:26:25.935Z</time></trkpt><trkpt lat="46.5303867" lon="12.4689993"><ele>812.3333333333333</ele><time>2026-03-29T09:26:26.932Z</time></trkpt><trkpt lat="46.530541" lon="12.4690483"><ele>807.6666666666667</ele><time>2026-03-29T09:26:27.941Z</time></trkpt><trkpt lat="46.5306944" lon="12.4690907"><ele>803.0</ele><time>2026-03-29T09:26:28.918Z</time></trkpt><trkpt lat="46.5308449" lon="12.4691345"><ele>803.0</ele><time>2026-03-29T09:26:29.924Z</time></trkpt><trkpt lat="46.5309923" lon="12.4691711"><ele>803.0</ele><time>2026-03-29T09:26:30.94Z</time></trkpt><trkpt lat="46.5311339" lon="12.469205"><ele>803.0</ele><time>2026-03-29T09:26:31.924Z</time></trkpt><trkpt lat="46.5312697" lon="12.4692422"><ele>803.0</ele><time>2026-03-29T09:26:32.932Z</time></trkpt><trkpt lat="46.5314029" lon="12.4692819"><ele>801.5</ele><time>2026-03-29T09:26:33.946Z</time></trkpt><trkpt lat="46.5315378" lon="12.4693177"><ele>800.0</ele><time>2026-03-29T09:26:34.94Z</time></trkpt><trkpt lat="46.5316779" lon="12.4693589"><ele>798.5</ele><time>2026-03-29T09:26:35.96Z</time></trkpt><trkpt lat="46.5318238" lon="12.4693944"><ele>797.0</ele><time>2026-03-29T09:26:36.943Z</time></trkpt><trkpt lat="46.5319705" lon="12.4694219"><ele>799.0</ele><time>2026-03-29T09:26:37.922Z</time></trkpt><trkpt lat="46.532123" lon="12.4694328"><ele>801.0</ele><time>2026-03-29T09:26:38.925Z</time></trkpt><trkpt lat="46.5322841" lon="12.4694246"><ele>803.0</ele><time>2026-03-29T09:26:39.946Z</time></trkpt><trkpt lat="46.5324428" lon="12.4694005"><ele>803.0</ele><time>2026-03-29T09:26:40.931Z</time></trkpt><trkpt lat="46.5325942" lon="12.4693878"><ele>803.0</ele><time>2026-03-29T09:26:41.951Z</time></trkpt><trkpt lat="46.5327424" lon="12.4693638"><ele>803.0</ele><time>2026-03-29T09:26:42.92Z</time></trkpt><trkpt lat="46.5328845" lon="12.4693154"><ele>803.0</ele><time>2026-03-29T09:26:43.928Z</time></trkpt><trkpt lat="46.5330219" lon="12.469238"><ele>805.3333333333334</ele><time>2026-03-29T09:26:44.919Z</time></trkpt><trkpt lat="46.5331523" lon="12.4691231"><ele>807.6666666666667</ele><time>2026-03-29T09:26:45.947Z</time></trkpt><trkpt lat="46.5332825" lon="12.4689881"><ele>810.0</ele><time>2026-03-29T09:26:46.93Z</time></trkpt><trkpt lat="46.5334125" lon="12.4688334"><ele>813.0</ele><time>2026-03-29T09:26:47.918Z</time></trkpt><trkpt lat="46.5335487" lon="12.4686876"><ele>816.0</ele><time>2026-03-29T09:26:48.932Z</time></trkpt><trkpt lat="46.5336856" lon="12.4685555"><ele>819.0</ele><time>2026-03-29T09:26:49.938Z</time></trkpt><trkpt lat="46.5338217" lon="12.4684316"><ele>819.0</ele><time>2026-03-29T09:26:50.929Z</time></trkpt><trkpt lat="46.5339601" lon="12.4683281"><ele>819.0</ele><time>2026-03-29T09:26:51.933Z</time></trkpt><trkpt lat="46.5340977" lon="12.468251"><ele>819.0</ele><time>2026-03-29T09:26:52.922Z</time></trkpt><trkpt lat="46.5342316" lon="12.4681774"><ele>819.0</ele><time>2026-03-29T09:26:53.94Z</time></trkpt><trkpt lat="46.5343669" lon="12.4681048"><ele>819.0</ele><time>2026-03-29T09:26:54.921Z</time></trkpt><trkpt lat="46.5345045" lon="12.4680304"><ele>819.0</ele><time>2026-03-29T09:26:55.928Z</time></trkpt><trkpt lat="46.5346451" lon="12.4679522"><ele>819.0</ele><time>2026-03-29T09:26:56.917Z</time></trkpt><trkpt lat="46.5347849" lon="12.4678643"><ele>815.0</ele><time>2026-03-29T09:26:57.927Z</time></trkpt><trkpt lat="46.5349293" lon="12.4677887"><ele>811.0</ele><time>2026-03-29T09:26:58.924Z</time></trkpt><trkpt lat="46.535076" lon="12.467711"><ele>807.0</ele><time>2026-03-29T09:26:59.927Z</time></trkpt><trkpt lat="46.5352257" lon="12.4676386"><ele>807.0</ele><time>2026-03-29T09:27:00.921Z</time></trkpt><trkpt lat="46.5353779" lon="12.4675611"><ele>807.0</ele><time>2026-03-29T09:27:01.93Z</time></trkpt><trkpt lat="46.5355364" lon="12.4674912"><ele>807.0</ele><time>2026-03-29T09:27:02.929Z</time></trkpt><trkpt lat="46.5357034" lon="12.4674431"><ele>813.0</ele><time>2026-03-29T09:27:03.94Z</time></trkpt><trkpt lat="46.535876" lon="12.4674035"><ele>819.0</ele><time>2026-03-29T09:27:04.926Z</time></trkpt><trkpt lat="46.5360502" lon="12.4673625"><ele>825.0</ele><time>2026-03-29T09:27:05.918Z</time></trkpt><trkpt lat="46.5362238" lon="12.4673202"><ele>831.6666666666667</ele><time>2026-03-29T09:27:06.938Z</time></trkpt><trkpt lat="46.5363949" lon="12.4672742"><ele>838.3333333333334</ele><time>2026-03-29T09:27:07.929Z</time></trkpt><trkpt lat="46.5365625" lon="12.4672383"><ele>845.0</ele><time>2026-03-29T09:27:08.917Z</time></trkpt><trkpt lat="46.5367222" lon="12.4672225"><ele>845.0</ele><time>2026-03-29T09:27:09.934Z</time></trkpt><trkpt lat="46.5368764" lon="12.4671994"><ele>845.0</ele><time>2026-03-29T09:27:10.929Z</time></trkpt><trkpt lat="46.5370256" lon="12.467144"><ele>845.0</ele><time>2026-03-29T09:27:11.938Z</time></trkpt><trkpt lat="46.5371701" lon="12.4670656"><ele>839.0</ele><time>2026-03-29T09:27:12.935Z</time></trkpt><trkpt lat="46.5373123" lon="12.4669468"><ele>833.0</ele><time>2026-03-29T09:27:13.931Z</time></trkpt><trkpt lat="46.5374487" lon="12.4667899"><ele>827.0</ele><time>2026-03-29T09:27:14.947Z</time></trkpt><trkpt lat="46.537583" lon="12.4666083"><ele>827.0</ele><time>2026-03-29T09:27:15.927Z</time></trkpt><trkpt lat="46.5377257" lon="12.4664298"><ele>827.0</ele><time>2026-03-29T09:27:16.917Z</time></trkpt><trkpt lat="46.5378737" lon="12.4662602"><ele>827.0</ele><time>2026-03-29T09:27:17.932Z</time></trkpt><trkpt lat="46.5380126" lon="12.4660843"><ele>833.3333333333334</ele><time>2026-03-29T09:27:18.929Z</time></trkpt><trkpt lat="46.5381352" lon="12.4658948"><ele>839.6666666666667</ele><time>2026-03-29T09:27:19.925Z</time></trkpt><trkpt lat="46.5382468" lon="12.4656897"><ele>846.0</ele><time>2026-03-29T09:27:20.928Z</time></trkpt><trkpt lat="46.5383446" lon="12.4654672"><ele>837.6666666666667</ele><time>2026-03-29T09:27:21.927Z</time></trkpt><trkpt lat="46.5384349" lon="12.465239"><ele>829.3333333333334</ele><time>2026-03-29T09:27:22.926Z</time></trkpt><trkpt lat="46.5385194" lon="12.4650057"><ele>821.0</ele><time>2026-03-29T09:27:23.923Z</time></trkpt><trkpt lat="46.5386222" lon="12.4647923"><ele>824.0</ele><time>2026-03-29T09:27:24.926Z</time></trkpt><trkpt lat="46.5387316" lon="12.4646068"><ele>827.0</ele><time>2026-03-29T09:27:25.934Z</time></trkpt><trkpt lat="46.5388206" lon="12.4644466"><ele>830.0</ele><time>2026-03-29T09:27:26.972Z</time></trkpt><trkpt lat="46.5388916" lon="12.4643119"><ele>833.0</ele><time>2026-03-29T09:27:27.927Z</time></trkpt><trkpt lat="46.53896" lon="12.4641976"><ele>833.0</ele><time>2026-03-29T09:27:28.928Z</time></trkpt><trkpt lat="46.5390285" lon="12.4640958"><ele>833.0</ele><time>2026-03-29T09:27:29.933Z</time></trkpt><trkpt lat="46.539095" lon="12.4640059"><ele>833.0</ele><time>2026-03-29T09:27:30.941Z</time></trkpt><trkpt lat="46.5391636" lon="12.4639253"><ele>833.0</ele><time>2026-03-29T09:27:31.93Z</time></trkpt><trkpt lat="46.5392365" lon="12.4638479"><ele>833.0</ele><time>2026-03-29T09:27:32.929Z</time></trkpt><trkpt lat="46.5393164" lon="12.4637725"><ele>832.0</ele><time>2026-03-29T09:27:33.962Z</time></trkpt><trkpt lat="46.5394042" lon="12.4637011"><ele>831.0</ele><time>2026-03-29T09:27:34.928Z</time></trkpt><trkpt lat="46.5394958" lon="12.4636305"><ele>830.0</ele><time>2026-03-29T09:27:35.928Z</time></trkpt><trkpt lat="46.5395901" lon="12.4635618"><ele>829.0</ele><time>2026-03-29T09:27:36.942Z</time></trkpt><trkpt lat="46.5396847" lon="12.4634906"><ele>828.0</ele><time>2026-03-29T09:27:37.94Z</time></trkpt><trkpt lat="46.5397811" lon="12.4634193"><ele>828.0</ele><time>2026-03-29T09:27:38.928Z</time></trkpt><trkpt lat="46.5398819" lon="12.4633496"><ele>828.0</ele><time>2026-03-29T09:27:39.93Z</time></trkpt><trkpt lat="46.5399881" lon="12.4632858"><ele>828.0</ele><time>2026-03-29T09:27:40.927Z</time></trkpt><trkpt lat="46.5401014" lon="12.4632325"><ele>828.0</ele><time>2026-03-29T09:27:41.935Z</time></trkpt><trkpt lat="46.5402194" lon="12.4631847"><ele>828.0</ele><time>2026-03-29T09:27:42.937Z</time></trkpt><trkpt lat="46.5403404" lon="12.4631386"><ele>828.0</ele><time>2026-03-29T09:27:43.932Z</time></trkpt><trkpt lat="46.5404633" lon="12.463092"><ele>828.0</ele><time>2026-03-29T09:27:44.935Z</time></trkpt><trkpt lat="46.54059" lon="12.4630412"><ele>828.0</ele><time>2026-03-29T09:27:45.922Z</time></trkpt><trkpt lat="46.540722" lon="12.4629855"><ele>828.0</ele><time>2026-03-29T09:27:46.931Z</time></trkpt><trkpt lat="46.5408584" lon="12.4629309"><ele>828.0</ele><time>2026-03-29T09:27:47.945Z</time></trkpt><trkpt lat="46.5409994" lon="12.4628821"><ele>828.0</ele><time>2026-03-29T09:27:48.94Z</time></trkpt><trkpt lat="46.541142" lon="12.4628332"><ele>828.0</ele><time>2026-03-29T09:27:49.95Z</time></trkpt><trkpt lat="46.5412794" lon="12.4627813"><ele>830.25</ele><time>2026-03-29T09:27:50.924Z</time></trkpt><trkpt lat="46.5414082" lon="12.4627269"><ele>832.5</ele><time>2026-03-29T09:27:51.938Z</time></trkpt><trkpt lat="46.5415244" lon="12.4626634"><ele>834.75</ele><time>2026-03-29T09:27:52.929Z</time></trkpt><trkpt lat="46.5416305" lon="12.4625919"><ele>837.0</ele><time>2026-03-29T09:27:53.933Z</time></trkpt><trkpt lat="46.541729" lon="12.4624892"><ele>837.0</ele><time>2026-03-29T09:27:54.934Z</time></trkpt><trkpt lat="46.5418211" lon="12.4623495"><ele>837.0</ele><time>2026-03-29T09:27:55.94Z</time></trkpt><trkpt lat="46.5419003" lon="12.4621871"><ele>837.0</ele><time>2026-03-29T09:27:56.918Z</time></trkpt><trkpt lat="46.5419505" lon="12.4620123"><ele>837.0</ele><time>2026-03-29T09:27:57.92Z</time></trkpt><trkpt lat="46.5420112" lon="12.4618472"><ele>837.5</ele><time>2026-03-29T09:27:58.914Z</time></trkpt><trkpt lat="46.5420724" lon="12.4616892"><ele>838.0</ele><time>2026-03-29T09:27:59.922Z</time></trkpt><trkpt lat="46.5421423" lon="12.461539"><ele>838.5</ele><time>2026-03-29T09:28:00.922Z</time></trkpt><trkpt lat="46.5422228" lon="12.4614012"><ele>839.0</ele><time>2026-03-29T09:28:01.947Z</time></trkpt><trkpt lat="46.5423062" lon="12.4612661"><ele>839.0</ele><time>2026-03-29T09:28:02.917Z</time></trkpt><trkpt lat="46.5423964" lon="12.4611355"><ele>839.0</ele><time>2026-03-29T09:28:03.922Z</time></trkpt><trkpt lat="46.5424871" lon="12.4610025"><ele>839.0</ele><time>2026-03-29T09:28:04.925Z</time></trkpt><trkpt lat="46.5425772" lon="12.460862"><ele>839.0</ele><time>2026-03-29T09:28:05.928Z</time></trkpt><trkpt lat="46.5426684" lon="12.4607225"><ele>839.0</ele><time>2026-03-29T09:28:06.931Z</time></trkpt><trkpt lat="46.5427648" lon="12.4605835"><ele>839.0</ele><time>2026-03-29T09:28:07.948Z</time></trkpt><trkpt lat="46.5428719" lon="12.4604541"><ele>839.0</ele><time>2026-03-29T09:28:08.929Z</time></trkpt><trkpt lat="46.5429859" lon="12.4603317"><ele>839.0</ele><time>2026-03-29T09:28:09.922Z</time></trkpt><trkpt lat="46.5431056" lon="12.4602131"><ele>840.0</ele><time>2026-03-29T09:28:10.92Z</time></trkpt><trkpt lat="46.5432292" lon="12.4600958"><ele>841.0</ele><time>2026-03-29T09:28:11.923Z</time></trkpt><trkpt lat="46.543353" lon="12.4599757"><ele>842.0</ele><time>2026-03-29T09:28:12.928Z</time></trkpt><trkpt lat="46.5434803" lon="12.4598572"><ele>843.0</ele><time>2026-03-29T09:28:13.925Z</time></trkpt><trkpt lat="46.5436071" lon="12.4597334"><ele>842.6666666666667</ele><time>2026-03-29T09:28:14.926Z</time></trkpt><trkpt lat="46.5437346" lon="12.4596079"><ele>842.3333333333334</ele><time>2026-03-29T09:28:15.924Z</time></trkpt><trkpt lat="46.5438626" lon="12.4594816"><ele>842.0</ele><time>2026-03-29T09:28:16.926Z</time></trkpt><trkpt lat="46.5439876" lon="12.4593522"><ele>842.0</ele><time>2026-03-29T09:28:17.946Z</time></trkpt><trkpt lat="46.5441159" lon="12.4592329"><ele>842.0</ele><time>2026-03-29T09:28:18.924Z</time></trkpt><trkpt lat="46.5442403" lon="12.4591123"><ele>842.0</ele><time>2026-03-29T09:28:19.948Z</time></trkpt><trkpt lat="46.5443581" lon="12.4589924"><ele>842.0</ele><time>2026-03-29T09:28:20.923Z</time></trkpt><trkpt lat="46.5444735" lon="12.4588806"><ele>843.0</ele><time>2026-03-29T09:28:21.93Z</time></trkpt><trkpt lat="46.5445858" lon="12.4587735"><ele>844.0</ele><time>2026-03-29T09:28:22.932Z</time></trkpt><trkpt lat="46.5446938" lon="12.4586682"><ele>845.0</ele><time>2026-03-29T09:28:23.941Z</time></trkpt><trkpt lat="46.5447967" lon="12.458564"><ele>846.0</ele><time>2026-03-29T09:28:24.94Z</time></trkpt><trkpt lat="46.5448979" lon="12.4584627"><ele>846.0</ele><time>2026-03-29T09:28:25.96Z</time></trkpt><trkpt lat="46.5449931" lon="12.4583672"><ele>846.0</ele><time>2026-03-29T09:28:26.924Z</time></trkpt><trkpt lat="46.5450772" lon="12.4582783"><ele>846.0</ele><time>2026-03-29T09:28:27.919Z</time></trkpt><trkpt lat="46.5451462" lon="12.4582024"><ele>846.0</ele><time>2026-03-29T09:28:28.92Z</time></trkpt><trkpt lat="46.5452255" lon="12.458124"><ele>846.0</ele><time>2026-03-29T09:28:30.924Z</time></trkpt><trkpt lat="46.5452879" lon="12.4581361"><ele>846.0</ele><time>2026-03-29T09:28:33.936Z</time></trkpt><trkpt lat="46.5452604" lon="12.4582474"><ele>846.0</ele><time>2026-03-29T09:28:35.938Z</time></trkpt><trkpt lat="46.5452255" lon="12.4583402"><ele>846.0</ele><time>2026-03-29T09:28:36.932Z</time></trkpt><trkpt lat="46.5451798" lon="12.4584171"><ele>846.0</ele><time>2026-03-29T09:28:37.919Z</time></trkpt><trkpt lat="46.5450974" lon="12.4585419"><ele>846.0</ele><time>2026-03-29T09:28:39.929Z</time></trkpt><trkpt lat="46.5449965" lon="12.4586589"><ele>846.0</ele><time>2026-03-29T09:28:41.938Z</time></trkpt><trkpt lat="46.5449256" lon="12.4587242"><ele>846.0</ele><time>2026-03-29T09:28:42.938Z</time></trkpt><trkpt lat="46.5448665" lon="12.4588114"><ele>846.0</ele><time>2026-03-29T09:28:43.941Z</time></trkpt><trkpt lat="46.5448024" lon="12.4588982"><ele>846.0</ele><time>2026-03-29T09:28:44.937Z</time></trkpt><trkpt lat="46.5447422" lon="12.4590053"><ele>846.0</ele><time>2026-03-29T09:28:45.937Z</time></trkpt><trkpt lat="46.5446888" lon="12.4591209"><ele>846.0</ele><time>2026-03-29T09:28:46.933Z</time></trkpt><trkpt lat="46.5446417" lon="12.4592334"><ele>846.3333333333334</ele><time>2026-03-29T09:28:47.94Z</time></trkpt><trkpt lat="46.5445868" lon="12.4593304"><ele>846.6666666666667</ele><time>2026-03-29T09:28:48.948Z</time></trkpt><trkpt lat="46.5445089" lon="12.4593819"><ele>847.0</ele><time>2026-03-29T09:28:49.948Z</time></trkpt><trkpt lat="46.5444452" lon="12.4594524"><ele>847.3333333333334</ele><time>2026-03-29T09:28:50.937Z</time></trkpt><trkpt lat="46.5443694" lon="12.4595211"><ele>847.6666666666667</ele><time>2026-03-29T09:28:51.949Z</time></trkpt><trkpt lat="46.5442988" lon="12.4596074"><ele>848.0</ele><time>2026-03-29T09:28:52.949Z</time></trkpt><trkpt lat="46.5442268" lon="12.4596976"><ele>848.8333333333334</ele><time>2026-03-29T09:28:53.937Z</time></trkpt><trkpt lat="46.544159" lon="12.459782"><ele>849.6666666666667</ele><time>2026-03-29T09:28:54.929Z</time></trkpt><trkpt lat="46.5440943" lon="12.4598574"><ele>850.5</ele><time>2026-03-29T09:28:55.917Z</time></trkpt><trkpt lat="46.5440291" lon="12.4599224"><ele>851.3333333333333</ele><time>2026-03-29T09:28:56.924Z</time></trkpt><trkpt lat="46.543965" lon="12.4599892"><ele>852.1666666666666</ele><time>2026-03-29T09:28:57.938Z</time></trkpt><trkpt lat="46.5438948" lon="12.4600527"><ele>853.0</ele><time>2026-03-29T09:28:58.933Z</time></trkpt><trkpt lat="46.5438329" lon="12.4601443"><ele>853.0</ele><time>2026-03-29T09:28:59.942Z</time></trkpt><trkpt lat="46.543754" lon="12.4602145"><ele>853.0</ele><time>2026-03-29T09:29:00.944Z</time></trkpt><trkpt lat="46.5436918" lon="12.460319"><ele>853.0</ele><time>2026-03-29T09:29:01.934Z</time></trkpt><trkpt lat="46.543656" lon="12.4604561"><ele>853.0</ele><time>2026-03-29T09:29:02.942Z</time></trkpt><trkpt lat="46.5436046" lon="12.4605652"><ele>853.0</ele><time>2026-03-29T09:29:03.939Z</time></trkpt><trkpt lat="46.5435305" lon="12.4606338"><ele>852.1666666666666</ele><time>2026-03-29T09:29:04.943Z</time></trkpt><trkpt lat="46.5434327" lon="12.460642"><ele>851.3333333333333</ele><time>2026-03-29T09:29:05.945Z</time></trkpt><trkpt lat="46.543344" lon="12.4606429"><ele>850.5</ele><time>2026-03-29T09:29:06.943Z</time></trkpt><trkpt lat="46.5432689" lon="12.4606899"><ele>849.6666666666667</ele><time>2026-03-29T09:29:07.935Z</time></trkpt><trkpt lat="46.5431873" lon="12.4606768"><ele>848.8333333333334</ele><time>2026-03-29T09:29:08.93Z</time></trkpt><trkpt lat="46.5431023" lon="12.4606925"><ele>848.0</ele><time>2026-03-29T09:29:09.938Z</time></trkpt><trkpt lat="46.5430324" lon="12.4607858"><ele>848.0</ele><time>2026-03-29T09:29:10.919Z</time></trkpt><trkpt lat="46.5429674" lon="12.4608855"><ele>848.0</ele><time>2026-03-29T09:29:11.922Z</time></trkpt><trkpt lat="46.5428883" lon="12.4609574"><ele>848.0</ele><time>2026-03-29T09:29:12.932Z</time></trkpt><trkpt lat="46.5428371" lon="12.4610721"><ele>848.0</ele><time>2026-03-29T09:29:13.933Z</time></trkpt><trkpt lat="46.5427747" lon="12.461168"><ele>848.0</ele><time>2026-03-29T09:29:14.951Z</time></trkpt><trkpt lat="46.5427148" lon="12.4612709"><ele>847.5999999999999</ele><time>2026-03-29T09:29:15.947Z</time></trkpt><trkpt lat="46.5426659" lon="12.4613917"><ele>847.1999999999999</ele><time>2026-03-29T09:29:16.968Z</time></trkpt><trkpt lat="46.5426124" lon="12.4615117"><ele>846.8</ele><time>2026-03-29T09:29:17.963Z</time></trkpt><trkpt lat="46.5425695" lon="12.4616478"><ele>846.4</ele><time>2026-03-29T09:29:18.949Z</time></trkpt><trkpt lat="46.5425232" lon="12.4617871"><ele>846.0</ele><time>2026-03-29T09:29:19.939Z</time></trkpt><trkpt lat="46.542477" lon="12.4619292"><ele>846.0</ele><time>2026-03-29T09:29:20.94Z</time></trkpt><trkpt lat="46.5424287" lon="12.4620652"><ele>846.0</ele><time>2026-03-29T09:29:21.946Z</time></trkpt><trkpt lat="46.5424045" lon="12.4622131"><ele>846.0</ele><time>2026-03-29T09:29:22.93Z</time></trkpt><trkpt lat="46.5423772" lon="12.4623576"><ele>846.0</ele><time>2026-03-29T09:29:23.958Z</time></trkpt><trkpt lat="46.5423697" lon="12.4625071"><ele>846.0</ele><time>2026-03-29T09:29:24.936Z</time></trkpt><trkpt lat="46.5423592" lon="12.4626508"><ele>846.8333333333334</ele><time>2026-03-29T09:29:25.941Z</time></trkpt><trkpt lat="46.5423471" lon="12.4627822"><ele>847.6666666666667</ele><time>2026-03-29T09:29:26.936Z</time></trkpt><trkpt lat="46.5423416" lon="12.4628984"><ele>848.5</ele><time>2026-03-29T09:29:27.943Z</time></trkpt><trkpt lat="46.5423202" lon="12.4629902"><ele>849.3333333333334</ele><time>2026-03-29T09:29:28.943Z</time></trkpt><trkpt lat="46.5423159" lon="12.4631175"><ele>850.1666666666667</ele><time>2026-03-29T09:29:30.928Z</time></trkpt><trkpt lat="46.5423016" lon="12.4632143"><ele>851.0</ele><time>2026-03-29T09:30:37.948Z</time></trkpt><trkpt lat="46.5422989" lon="12.4633638"><ele>851.5999999999999</ele><time>2026-03-29T09:30:40.932Z</time></trkpt><trkpt lat="46.5422584" lon="12.4635331"><ele>852.2</ele><time>2026-03-29T09:30:42.932Z</time></trkpt><trkpt lat="46.5422081" lon="12.4636302"><ele>852.8000000000001</ele><time>2026-03-29T09:30:43.96Z</time></trkpt><trkpt lat="46.5421358" lon="12.4637289"><ele>853.4000000000001</ele><time>2026-03-29T09:30:44.942Z</time></trkpt><trkpt lat="46.5420489" lon="12.463823"><ele>854.0</ele><time>2026-03-29T09:30:45.935Z</time></trkpt><trkpt lat="46.5419558" lon="12.4638947"><ele>854.0</ele><time>2026-03-29T09:30:46.923Z</time></trkpt><trkpt lat="46.5418645" lon="12.4639393"><ele>854.0000000000001</ele><time>2026-03-29T09:30:47.938Z</time></trkpt><trkpt lat="46.5417806" lon="12.4639652"><ele>854.0000000000001</ele><time>2026-03-29T09:30:48.926Z</time></trkpt><trkpt lat="46.5417075" lon="12.4639894"><ele>854.0</ele><time>2026-03-29T09:30:49.927Z</time></trkpt><trkpt lat="46.5416452" lon="12.4640207"><ele>854.0</ele><time>2026-03-29T09:30:50.924Z</time></trkpt><trkpt lat="46.5415539" lon="12.4641503"><ele>854.0000000000001</ele><time>2026-03-29T09:30:52.93Z</time></trkpt><trkpt lat="46.5415199" lon="12.4642329"><ele>854.0</ele><time>2026-03-29T09:30:53.931Z</time></trkpt><trkpt lat="46.5415056" lon="12.4643378"><ele>854.0</ele><time>2026-03-29T09:30:54.928Z</time></trkpt><trkpt lat="46.5415021" lon="12.464458"><ele>854.0</ele><time>2026-03-29T09:30:55.949Z</time></trkpt><trkpt lat="46.5415108" lon="12.4645956"><ele>854.0000000000001</ele><time>2026-03-29T09:30:56.935Z</time></trkpt><trkpt lat="46.5415165" lon="12.4647414"><ele>854.0</ele><time>2026-03-29T09:30:57.949Z</time></trkpt><trkpt lat="46.5415191" lon="12.4648969"><ele>856.5</ele><time>2026-03-29T09:30:58.951Z</time></trkpt><trkpt lat="46.5415117" lon="12.4650724"><ele>859.0</ele><time>2026-03-29T09:30:59.955Z</time></trkpt><trkpt lat="46.5415067" lon="12.4652618"><ele>861.5</ele><time>2026-03-29T09:31:00.94Z</time></trkpt><trkpt lat="46.5414968" lon="12.4654552"><ele>864.0</ele><time>2026-03-29T09:31:01.926Z</time></trkpt><trkpt lat="46.5414909" lon="12.4656502"><ele>864.75</ele><time>2026-03-29T09:31:02.929Z</time></trkpt><trkpt lat="46.5415087" lon="12.4658566"><ele>865.5</ele><time>2026-03-29T09:31:03.935Z</time></trkpt><trkpt lat="46.5415322" lon="12.466071"><ele>866.25</ele><time>2026-03-29T09:31:04.938Z</time></trkpt><trkpt lat="46.5415633" lon="12.4662796"><ele>867.0</ele><time>2026-03-29T09:31:05.942Z</time></trkpt><trkpt lat="46.5416054" lon="12.4664855"><ele>867.0</ele><time>2026-03-29T09:31:06.938Z</time></trkpt><trkpt lat="46.5416671" lon="12.4666906"><ele>867.0</ele><time>2026-03-29T09:31:07.943Z</time></trkpt><trkpt lat="46.5417217" lon="12.4669089"><ele>867.0</ele><time>2026-03-29T09:31:08.937Z</time></trkpt><trkpt lat="46.5417727" lon="12.4671345"><ele>867.6666666666667</ele><time>2026-03-29T09:31:09.949Z</time></trkpt><trkpt lat="46.5418121" lon="12.4673675"><ele>868.3333333333334</ele><time>2026-03-29T09:31:10.94Z</time></trkpt><trkpt lat="46.5418548" lon="12.4675958"><ele>869.0</ele><time>2026-03-29T09:31:11.93Z</time></trkpt><trkpt lat="46.5418787" lon="12.4678197"><ele>872.25</ele><time>2026-03-29T09:31:12.936Z</time></trkpt><trkpt lat="46.5419058" lon="12.4680318"><ele>875.5</ele><time>2026-03-29T09:31:13.945Z</time></trkpt><trkpt lat="46.5419372" lon="12.4682353"><ele>878.75</ele><time>2026-03-29T09:31:14.939Z</time></trkpt><trkpt lat="46.5419733" lon="12.4684288"><ele>882.0</ele><time>2026-03-29T09:31:15.924Z</time></trkpt><trkpt lat="46.5420205" lon="12.4686257"><ele>887.25</ele><time>2026-03-29T09:31:16.929Z</time></trkpt><trkpt lat="46.5420756" lon="12.4688149"><ele>892.5</ele><time>2026-03-29T09:31:17.931Z</time></trkpt><trkpt lat="46.5421427" lon="12.4689995"><ele>897.75</ele><time>2026-03-29T09:31:18.929Z</time></trkpt><trkpt lat="46.5421962" lon="12.4691955"><ele>903.0</ele><time>2026-03-29T09:31:19.93Z</time></trkpt><trkpt lat="46.542265" lon="12.4693852"><ele>903.0</ele><time>2026-03-29T09:31:20.939Z</time></trkpt><trkpt lat="46.5423307" lon="12.4695817"><ele>903.0</ele><time>2026-03-29T09:31:21.941Z</time></trkpt><trkpt lat="46.5423953" lon="12.469789"><ele>903.0</ele><time>2026-03-29T09:31:22.93Z</time></trkpt><trkpt lat="46.5424593" lon="12.4699951"><ele>901.25</ele><time>2026-03-29T09:31:23.934Z</time></trkpt><trkpt lat="46.5425345" lon="12.4701803"><ele>899.5</ele><time>2026-03-29T09:31:24.942Z</time></trkpt><trkpt lat="46.5425892" lon="12.4703576"><ele>897.75</ele><time>2026-03-29T09:31:25.963Z</time></trkpt><trkpt lat="46.5426316" lon="12.4705078"><ele>896.0</ele><time>2026-03-29T09:31:26.941Z</time></trkpt><trkpt lat="46.5426566" lon="12.4706196"><ele>896.0000000000001</ele><time>2026-03-29T09:31:27.951Z</time></trkpt><trkpt lat="46.5427227" lon="12.470743"><ele>896.0</ele><time>2026-03-29T09:31:29.939Z</time></trkpt><trkpt lat="46.542806" lon="12.4707067"><ele>896.0</ele><time>2026-03-29T09:31:31.925Z</time></trkpt><trkpt lat="46.542818" lon="12.4706163"><ele>896.0</ele><time>2026-03-29T09:31:32.937Z</time></trkpt><trkpt lat="46.5428209" lon="12.470506"><ele>896.0000000000001</ele><time>2026-03-29T09:31:33.937Z</time></trkpt><trkpt lat="46.5428219" lon="12.4703703"><ele>896.0</ele><time>2026-03-29T09:31:34.929Z</time></trkpt><trkpt lat="46.5428225" lon="12.4702332"><ele>895.5000000000001</ele><time>2026-03-29T09:31:35.929Z</time></trkpt><trkpt lat="46.5428295" lon="12.4701113"><ele>895.0</ele><time>2026-03-29T09:31:36.926Z</time></trkpt><trkpt lat="46.5428336" lon="12.4700184"><ele>894.5</ele><time>2026-03-29T09:31:37.932Z</time></trkpt><trkpt lat="46.5428621" lon="12.469894"><ele>894.0</ele><time>2026-03-29T09:31:39.934Z</time></trkpt><trkpt lat="46.5429438" lon="12.469882"><ele>893.5000000000001</ele><time>2026-03-29T09:31:41.941Z</time></trkpt><trkpt lat="46.5429922" lon="12.4699649"><ele>893.0</ele><time>2026-03-29T09:31:42.932Z</time></trkpt><trkpt lat="46.5430439" lon="12.4700648"><ele>900.2</ele><time>2026-03-29T09:31:43.928Z</time></trkpt><trkpt lat="46.5430924" lon="12.4701869"><ele>907.4</ele><time>2026-03-29T09:31:44.947Z</time></trkpt><trkpt lat="46.543126" lon="12.4703177"><ele>914.6000000000001</ele><time>2026-03-29T09:31:45.93Z</time></trkpt><trkpt lat="46.5431285" lon="12.4704642"><ele>921.8000000000001</ele><time>2026-03-29T09:31:46.926Z</time></trkpt><trkpt lat="46.5431142" lon="12.4706214"><ele>929.0</ele><time>2026-03-29T09:31:47.921Z</time></trkpt><trkpt lat="46.543102" lon="12.4707824"><ele>930.2</ele><time>2026-03-29T09:31:48.92Z</time></trkpt><trkpt lat="46.5430927" lon="12.4709361"><ele>931.4000000000001</ele><time>2026-03-29T09:31:49.927Z</time></trkpt><trkpt lat="46.5430668" lon="12.4710819"><ele>932.6</ele><time>2026-03-29T09:31:50.924Z</time></trkpt><trkpt lat="46.5430169" lon="12.4712152"><ele>933.8</ele><time>2026-03-29T09:31:51.929Z</time></trkpt><trkpt lat="46.5429774" lon="12.4713458"><ele>935.0</ele><time>2026-03-29T09:31:52.923Z</time></trkpt><trkpt lat="46.5429497" lon="12.4714861"><ele>937.25</ele><time>2026-03-29T09:31:53.922Z</time></trkpt><trkpt lat="46.5429401" lon="12.4716438"><ele>939.5</ele><time>2026-03-29T09:31:54.931Z</time></trkpt><trkpt lat="46.5429326" lon="12.4718092"><ele>941.75</ele><time>2026-03-29T09:31:55.941Z</time></trkpt><trkpt lat="46.5429284" lon="12.4719922"><ele>944.0</ele><time>2026-03-29T09:31:56.931Z</time></trkpt><trkpt lat="46.5429511" lon="12.472185"><ele>947.5</ele><time>2026-03-29T09:31:57.944Z</time></trkpt><trkpt lat="46.5429694" lon="12.4723871"><ele>951.0</ele><time>2026-03-29T09:31:58.939Z</time></trkpt><trkpt lat="46.542972" lon="12.4725852"><ele>954.5</ele><time>2026-03-29T09:31:59.936Z</time></trkpt><trkpt lat="46.5429919" lon="12.4728006"><ele>958.0</ele><time>2026-03-29T09:32:00.941Z</time></trkpt><trkpt lat="46.5429987" lon="12.4730119"><ele>958.0</ele><time>2026-03-29T09:32:01.931Z</time></trkpt><trkpt lat="46.5430006" lon="12.4732244"><ele>958.0</ele><time>2026-03-29T09:32:02.938Z</time></trkpt><trkpt lat="46.5430053" lon="12.4734374"><ele>958.0</ele><time>2026-03-29T09:32:03.951Z</time></trkpt><trkpt lat="46.5430065" lon="12.4736498"><ele>958.0</ele><time>2026-03-29T09:32:04.936Z</time></trkpt><trkpt lat="46.543038" lon="12.4738578"><ele>956.75</ele><time>2026-03-29T09:32:05.993Z</time></trkpt><trkpt lat="46.5430821" lon="12.4740636"><ele>955.5</ele><time>2026-03-29T09:32:06.922Z</time></trkpt><trkpt lat="46.5431381" lon="12.4742562"><ele>954.25</ele><time>2026-03-29T09:32:07.926Z</time></trkpt><trkpt lat="46.5432039" lon="12.4744333"><ele>953.0</ele><time>2026-03-29T09:32:08.933Z</time></trkpt><trkpt lat="46.5432613" lon="12.4745998"><ele>953.0</ele><time>2026-03-29T09:32:09.938Z</time></trkpt><trkpt lat="46.5433127" lon="12.4747608"><ele>953.0</ele><time>2026-03-29T09:32:10.943Z</time></trkpt><trkpt lat="46.5433534" lon="12.4749181"><ele>953.0</ele><time>2026-03-29T09:32:11.935Z</time></trkpt><trkpt lat="46.5433779" lon="12.4750786"><ele>953.0</ele><time>2026-03-29T09:32:12.927Z</time></trkpt><trkpt lat="46.5434196" lon="12.4752234"><ele>953.0</ele><time>2026-03-29T09:32:13.931Z</time></trkpt><trkpt lat="46.5434467" lon="12.4753676"><ele>953.0</ele><time>2026-03-29T09:32:14.952Z</time></trkpt><trkpt lat="46.543457" lon="12.4755267"><ele>953.0</ele><time>2026-03-29T09:32:15.943Z</time></trkpt><trkpt lat="46.5434439" lon="12.4756937"><ele>953.0</ele><time>2026-03-29T09:32:16.946Z</time></trkpt><trkpt lat="46.5434033" lon="12.4758762"><ele>953.8</ele><time>2026-03-29T09:32:17.928Z</time></trkpt><trkpt lat="46.5433886" lon="12.4760583"><ele>954.5999999999999</ele><time>2026-03-29T09:32:18.927Z</time></trkpt><trkpt lat="46.5433689" lon="12.4762091"><ele>955.4000000000001</ele><time>2026-03-29T09:32:19.928Z</time></trkpt><trkpt lat="46.5433484" lon="12.4763308"><ele>956.2</ele><time>2026-03-29T09:32:20.924Z</time></trkpt><trkpt lat="46.543373" lon="12.4764419"><ele>957.0</ele><time>2026-03-29T09:32:21.937Z</time></trkpt><trkpt lat="46.5434136" lon="12.4765569"><ele>958.6</ele><time>2026-03-29T09:32:22.945Z</time></trkpt><trkpt lat="46.543487" lon="12.4766629"><ele>960.2</ele><time>2026-03-29T09:32:23.946Z</time></trkpt><trkpt lat="46.5435535" lon="12.4767758"><ele>961.8</ele><time>2026-03-29T09:32:24.928Z</time></trkpt><trkpt lat="46.5436585" lon="12.4768271"><ele>963.4</ele><time>2026-03-29T09:32:25.934Z</time></trkpt><trkpt lat="46.543764" lon="12.4768415"><ele>965.0</ele><time>2026-03-29T09:32:26.918Z</time></trkpt><trkpt lat="46.543853" lon="12.4768998"><ele>968.6</ele><time>2026-03-29T09:32:27.943Z</time></trkpt><trkpt lat="46.5439325" lon="12.4769683"><ele>972.2</ele><time>2026-03-29T09:32:28.93Z</time></trkpt><trkpt lat="46.5440083" lon="12.4770355"><ele>975.8</ele><time>2026-03-29T09:32:29.934Z</time></trkpt><trkpt lat="46.544077" lon="12.4771258"><ele>979.4</ele><time>2026-03-29T09:32:30.937Z</time></trkpt><trkpt lat="46.5441418" lon="12.4772208"><ele>983.0</ele><time>2026-03-29T09:32:31.927Z</time></trkpt><trkpt lat="46.5442017" lon="12.477315"><ele>983.0</ele><time>2026-03-29T09:32:32.935Z</time></trkpt><trkpt lat="46.5442417" lon="12.4774397"><ele>983.0</ele><time>2026-03-29T09:32:33.933Z</time></trkpt><trkpt lat="46.5442728" lon="12.4775672"><ele>983.0</ele><time>2026-03-29T09:32:34.933Z</time></trkpt><trkpt lat="46.5442992" lon="12.477698"><ele>983.0</ele><time>2026-03-29T09:32:35.933Z</time></trkpt><trkpt lat="46.5443244" lon="12.4778315"><ele>983.0</ele><time>2026-03-29T09:32:36.928Z</time></trkpt><trkpt lat="46.5443519" lon="12.4779684"><ele>980.25</ele><time>2026-03-29T09:32:37.951Z</time></trkpt><trkpt lat="46.5444157" lon="12.4781031"><ele>977.5</ele><time>2026-03-29T09:32:38.925Z</time></trkpt><trkpt lat="46.5444884" lon="12.4782242"><ele>974.75</ele><time>2026-03-29T09:32:39.929Z</time></trkpt><trkpt lat="46.5445755" lon="12.478338"><ele>972.0</ele><time>2026-03-29T09:32:40.928Z</time></trkpt><trkpt lat="46.5446748" lon="12.4784506"><ele>977.0</ele><time>2026-03-29T09:32:41.937Z</time></trkpt><trkpt lat="46.5447734" lon="12.4785294"><ele>982.0</ele><time>2026-03-29T09:32:42.94Z</time></trkpt><trkpt lat="46.54487" lon="12.4785808"><ele>987.0</ele><time>2026-03-29T09:32:43.943Z</time></trkpt><trkpt lat="46.5449441" lon="12.4786334"><ele>992.0</ele><time>2026-03-29T09:32:44.925Z</time></trkpt><trkpt lat="46.5450108" lon="12.4786709"><ele>997.0</ele><time>2026-03-29T09:32:45.925Z</time></trkpt><trkpt lat="46.5451068" lon="12.4787262"><ele>996.9999999999999</ele><time>2026-03-29T09:32:47.928Z</time></trkpt><trkpt lat="46.5451993" lon="12.4787439"><ele>997.0</ele><time>2026-03-29T09:32:49.922Z</time></trkpt><trkpt lat="46.5452787" lon="12.4786393"><ele>997.0</ele><time>2026-03-29T09:32:51.935Z</time></trkpt><trkpt lat="46.5452946" lon="12.4785481"><ele>997.0</ele><time>2026-03-29T09:32:52.918Z</time></trkpt><trkpt lat="46.5452896" lon="12.4784551"><ele>996.9999999999999</ele><time>2026-03-29T09:32:53.927Z</time></trkpt><trkpt lat="46.5452501" lon="12.4783349"><ele>997.0</ele><time>2026-03-29T09:32:54.939Z</time></trkpt><trkpt lat="46.5452281" lon="12.4782317"><ele>997.0</ele><time>2026-03-29T09:32:55.924Z</time></trkpt><trkpt lat="46.5451725" lon="12.4780952"><ele>997.0</ele><time>2026-03-29T09:32:57.933Z</time></trkpt><trkpt lat="46.5451481" lon="12.4779783"><ele>997.0</ele><time>2026-03-29T09:32:59.935Z</time></trkpt><trkpt lat="46.5452718" lon="12.4779761"><ele>997.0</ele><time>2026-03-29T09:33:01.934Z</time></trkpt><trkpt lat="46.5453684" lon="12.478025"><ele>997.0</ele><time>2026-03-29T09:33:02.925Z</time></trkpt><trkpt lat="46.5454642" lon="12.4781133"><ele>1001.6</ele><time>2026-03-29T09:33:03.929Z</time></trkpt><trkpt lat="46.5455675" lon="12.4781964"><ele>1006.2</ele><time>2026-03-29T09:33:04.933Z</time></trkpt><trkpt lat="46.545653" lon="12.4782678"><ele>1010.8</ele><time>2026-03-29T09:33:05.923Z</time></trkpt><trkpt lat="46.5457206" lon="12.478361"><ele>1015.4</ele><time>2026-03-29T09:33:06.928Z</time></trkpt><trkpt lat="46.5457779" lon="12.4784603"><ele>1020.0</ele><time>2026-03-29T09:33:07.931Z</time></trkpt><trkpt lat="46.5458461" lon="12.478573"><ele>1020.0</ele><time>2026-03-29T09:33:08.932Z</time></trkpt><trkpt lat="46.5459353" lon="12.4786682"><ele>1020.0</ele><time>2026-03-29T09:33:09.952Z</time></trkpt><trkpt lat="46.5460233" lon="12.47876"><ele>1020.0</ele><time>2026-03-29T09:33:10.943Z</time></trkpt><trkpt lat="46.5461029" lon="12.4788646"><ele>1020.0</ele><time>2026-03-29T09:33:11.934Z</time></trkpt><trkpt lat="46.5461818" lon="12.4789919"><ele>1020.0</ele><time>2026-03-29T09:33:12.926Z</time></trkpt><trkpt lat="46.5462796" lon="12.4791039"><ele>1021.3333333333333</ele><time>2026-03-29T09:33:13.94Z</time></trkpt><trkpt lat="46.5463463" lon="12.4793028"><ele>1022.6666666666666</ele><time>2026-03-29T09:33:14.909Z</time></trkpt><trkpt lat="46.5463315" lon="12.4795544"><ele>1024.0</ele><time>2026-03-29T09:33:15.918Z</time></trkpt><trkpt lat="46.5462964" lon="12.4798011"><ele>1025.0</ele><time>2026-03-29T09:33:16.939Z</time></trkpt><trkpt lat="46.5462593" lon="12.4800328"><ele>1026.0</ele><time>2026-03-29T09:33:17.943Z</time></trkpt><trkpt lat="46.5462489" lon="12.4802377"><ele>1027.0</ele><time>2026-03-29T09:33:18.932Z</time></trkpt><trkpt lat="46.5462523" lon="12.480421"><ele>1028.0</ele><time>2026-03-29T09:33:19.949Z</time></trkpt><trkpt lat="46.5462561" lon="12.4805703"><ele>1028.3333333333335</ele><time>2026-03-29T09:33:20.944Z</time></trkpt><trkpt lat="46.5462643" lon="12.4806948"><ele>1028.6666666666667</ele><time>2026-03-29T09:33:21.926Z</time></trkpt><trkpt lat="46.5462789" lon="12.4808095"><ele>1029.0</ele><time>2026-03-29T09:33:22.926Z</time></trkpt><trkpt lat="46.5463203" lon="12.4809171"><ele>1029.3333333333333</ele><time>2026-03-29T09:33:23.932Z</time></trkpt><trkpt lat="46.5463832" lon="12.4810018"><ele>1029.6666666666665</ele><time>2026-03-29T09:33:24.938Z</time></trkpt><trkpt lat="46.5464651" lon="12.4810255"><ele>1030.0</ele><time>2026-03-29T09:33:25.937Z</time></trkpt><trkpt lat="46.5465535" lon="12.480943"><ele>1030.0</ele><time>2026-03-29T09:33:26.922Z</time></trkpt><trkpt lat="46.5466301" lon="12.4808126"><ele>1030.0</ele><time>2026-03-29T09:33:27.929Z</time></trkpt><trkpt lat="46.5466967" lon="12.4806878"><ele>1030.0</ele><time>2026-03-29T09:33:28.941Z</time></trkpt><trkpt lat="46.546735" lon="12.4805314"><ele>1030.0</ele><time>2026-03-29T09:33:29.938Z</time></trkpt><trkpt lat="46.5467542" lon="12.4803753"><ele>1029.5</ele><time>2026-03-29T09:33:30.932Z</time></trkpt><trkpt lat="46.5467668" lon="12.4802243"><ele>1029.0</ele><time>2026-03-29T09:33:31.931Z</time></trkpt><trkpt lat="46.54679" lon="12.4800892"><ele>1028.5</ele><time>2026-03-29T09:33:32.94Z</time></trkpt><trkpt lat="46.5468272" lon="12.4799171"><ele>1028.0</ele><time>2026-03-29T09:33:33.928Z</time></trkpt><trkpt lat="46.5469359" lon="12.4797109"><ele>1035.3333333333335</ele><time>2026-03-29T09:33:34.929Z</time></trkpt><trkpt lat="46.5470486" lon="12.47953"><ele>1042.6666666666667</ele><time>2026-03-29T09:33:35.919Z</time></trkpt><trkpt lat="46.5471604" lon="12.4793645"><ele>1050.0</ele><time>2026-03-29T09:33:36.932Z</time></trkpt><trkpt lat="46.5472698" lon="12.4792203"><ele>1050.0</ele><time>2026-03-29T09:33:37.956Z</time></trkpt><trkpt lat="46.5473636" lon="12.4790872"><ele>1050.0</ele><time>2026-03-29T09:33:38.94Z</time></trkpt><trkpt lat="46.5474488" lon="12.4789839"><ele>1050.0</ele><time>2026-03-29T09:33:39.928Z</time></trkpt><trkpt lat="46.5475255" lon="12.4789046"><ele>1050.0</ele><time>2026-03-29T09:33:40.923Z</time></trkpt><trkpt lat="46.5476031" lon="12.4788631"><ele>1050.0</ele><time>2026-03-29T09:33:41.925Z</time></trkpt><trkpt lat="46.5476798" lon="12.4788725"><ele>1050.0</ele><time>2026-03-29T09:33:42.918Z</time></trkpt><trkpt lat="46.54775" lon="12.4788616"><ele>1050.0</ele><time>2026-03-29T09:33:43.918Z</time></trkpt><trkpt lat="46.5478119" lon="12.4788059"><ele>1050.0</ele><time>2026-03-29T09:33:44.93Z</time></trkpt><trkpt lat="46.5478673" lon="12.4787439"><ele>1050.0</ele><time>2026-03-29T09:33:45.946Z</time></trkpt><trkpt lat="46.5479024" lon="12.4786242"><ele>1050.0</ele><time>2026-03-29T09:33:46.919Z</time></trkpt><trkpt lat="46.5478495" lon="12.4784599"><ele>1050.0</ele><time>2026-03-29T09:33:47.918Z</time></trkpt><trkpt lat="46.5477566" lon="12.4783267"><ele>1051.3333333333333</ele><time>2026-03-29T09:33:48.923Z</time></trkpt><trkpt lat="46.5476565" lon="12.4781412"><ele>1052.6666666666665</ele><time>2026-03-29T09:33:49.93Z</time></trkpt><trkpt lat="46.5475911" lon="12.477937"><ele>1054.0</ele><time>2026-03-29T09:33:50.934Z</time></trkpt><trkpt lat="46.547539" lon="12.4777503"><ele>1057.6000000000001</ele><time>2026-03-29T09:33:51.937Z</time></trkpt><trkpt lat="46.5474736" lon="12.4775948"><ele>1061.2</ele><time>2026-03-29T09:33:52.947Z</time></trkpt><trkpt lat="46.5473956" lon="12.4774953"><ele>1064.8000000000002</ele><time>2026-03-29T09:33:53.938Z</time></trkpt><trkpt lat="46.5473487" lon="12.4774042"><ele>1068.4</ele><time>2026-03-29T09:33:54.916Z</time></trkpt><trkpt lat="46.5473354" lon="12.4772354"><ele>1072.0</ele><time>2026-03-29T09:33:56.933Z</time></trkpt><trkpt lat="46.5474097" lon="12.4771391"><ele>1072.0</ele><time>2026-03-29T09:33:58.937Z</time></trkpt><trkpt lat="46.5474775" lon="12.4772209"><ele>1072.0</ele><time>2026-03-29T09:33:59.931Z</time></trkpt><trkpt lat="46.5475309" lon="12.4773395"><ele>1072.0</ele><time>2026-03-29T09:34:00.927Z</time></trkpt><trkpt lat="46.5475881" lon="12.4774817"><ele>1072.0</ele><time>2026-03-29T09:34:01.938Z</time></trkpt><trkpt lat="46.5476733" lon="12.4776339"><ele>1072.0</ele><time>2026-03-29T09:34:02.933Z</time></trkpt><trkpt lat="46.5478176" lon="12.4778357"><ele>1076.0</ele><time>2026-03-29T09:34:03.922Z</time></trkpt><trkpt lat="46.5479521" lon="12.4780097"><ele>1080.0</ele><time>2026-03-29T09:34:04.939Z</time></trkpt><trkpt lat="46.5480762" lon="12.478186"><ele>1084.0</ele><time>2026-03-29T09:34:05.924Z</time></trkpt><trkpt lat="46.5481928" lon="12.478361"><ele>1084.0</ele><time>2026-03-29T09:34:06.934Z</time></trkpt><trkpt lat="46.5483048" lon="12.4785344"><ele>1084.0</ele><time>2026-03-29T09:34:07.93Z</time></trkpt><trkpt lat="46.5484168" lon="12.4786883"><ele>1084.0</ele><time>2026-03-29T09:34:08.926Z</time></trkpt><trkpt lat="46.5485224" lon="12.4788378"><ele>1082.0</ele><time>2026-03-29T09:34:09.947Z</time></trkpt><trkpt lat="46.5486227" lon="12.4789814"><ele>1080.0</ele><time>2026-03-29T09:34:10.93Z</time></trkpt><trkpt lat="46.5487141" lon="12.4790982"><ele>1078.0</ele><time>2026-03-29T09:34:11.929Z</time></trkpt><trkpt lat="46.5487886" lon="12.4792038"><ele>1076.0</ele><time>2026-03-29T09:34:12.939Z</time></trkpt><trkpt lat="46.5488424" lon="12.4793055"><ele>1079.2</ele><time>2026-03-29T09:34:13.925Z</time></trkpt><trkpt lat="46.548872" lon="12.4794044"><ele>1082.3999999999999</ele><time>2026-03-29T09:34:14.934Z</time></trkpt><trkpt lat="46.5488401" lon="12.4795706"><ele>1085.6</ele><time>2026-03-29T09:34:16.917Z</time></trkpt><trkpt lat="46.5487514" lon="12.4796465"><ele>1088.8</ele><time>2026-03-29T09:34:17.92Z</time></trkpt><trkpt lat="46.5486421" lon="12.4796736"><ele>1092.0</ele><time>2026-03-29T09:34:18.935Z</time></trkpt><trkpt lat="46.5485287" lon="12.4796761"><ele>1092.0</ele><time>2026-03-29T09:34:19.925Z</time></trkpt><trkpt lat="46.5484277" lon="12.4796826"><ele>1092.0</ele><time>2026-03-29T09:34:20.926Z</time></trkpt><trkpt lat="46.5483324" lon="12.4797029"><ele>1092.0</ele><time>2026-03-29T09:34:21.927Z</time></trkpt><trkpt lat="46.5482514" lon="12.4797495"><ele>1092.0</ele><time>2026-03-29T09:34:22.933Z</time></trkpt><trkpt lat="46.5481928" lon="12.479816"><ele>1092.0</ele><time>2026-03-29T09:34:23.945Z</time></trkpt><trkpt lat="46.5481526" lon="12.4798991"><ele>1092.0</ele><time>2026-03-29T09:34:24.937Z</time></trkpt><trkpt lat="46.5481541" lon="12.4800241"><ele>1092.0</ele><time>2026-03-29T09:34:25.932Z</time></trkpt><trkpt lat="46.5481818" lon="12.4801617"><ele>1092.0</ele><time>2026-03-29T09:34:26.922Z</time></trkpt><trkpt lat="46.5482441" lon="12.4803111"><ele>1092.0</ele><time>2026-03-29T09:34:27.923Z</time></trkpt><trkpt lat="46.5482986" lon="12.4804776"><ele>1092.0</ele><time>2026-03-29T09:34:28.924Z</time></trkpt><trkpt lat="46.548358" lon="12.4806514"><ele>1093.3333333333333</ele><time>2026-03-29T09:34:29.925Z</time></trkpt><trkpt lat="46.5484166" lon="12.4808046"><ele>1094.6666666666667</ele><time>2026-03-29T09:34:30.934Z</time></trkpt><trkpt lat="46.5484594" lon="12.4809412"><ele>1096.0</ele><time>2026-03-29T09:34:31.931Z</time></trkpt><trkpt lat="46.5484953" lon="12.4810529"><ele>1097.3333333333335</ele><time>2026-03-29T09:34:32.932Z</time></trkpt><trkpt lat="46.5485489" lon="12.4811241"><ele>1098.6666666666667</ele><time>2026-03-29T09:34:33.928Z</time></trkpt><trkpt lat="46.5486124" lon="12.4811563"><ele>1100.0</ele><time>2026-03-29T09:34:34.936Z</time></trkpt><trkpt lat="46.5487024" lon="12.4810944"><ele>1100.0</ele><time>2026-03-29T09:34:36.927Z</time></trkpt><trkpt lat="46.5487104" lon="12.480956"><ele>1100.0</ele><time>2026-03-29T09:34:37.943Z</time></trkpt><trkpt lat="46.5487025" lon="12.4808237"><ele>1100.0</ele><time>2026-03-29T09:34:38.929Z</time></trkpt><trkpt lat="46.5487029" lon="12.4807069"><ele>1100.0</ele><time>2026-03-29T09:34:39.929Z</time></trkpt><trkpt lat="46.5487225" lon="12.4806004"><ele>1100.0</ele><time>2026-03-29T09:34:40.928Z</time></trkpt><trkpt lat="46.5487581" lon="12.4805212"><ele>1100.0</ele><time>2026-03-29T09:34:41.949Z</time></trkpt><trkpt lat="46.5488169" lon="12.4804565"><ele>1103.6</ele><time>2026-03-29T09:34:42.923Z</time></trkpt><trkpt lat="46.5489058" lon="12.4804462"><ele>1107.2</ele><time>2026-03-29T09:34:43.925Z</time></trkpt><trkpt lat="46.5490065" lon="12.4804749"><ele>1110.8</ele><time>2026-03-29T09:34:44.944Z</time></trkpt><trkpt lat="46.5491167" lon="12.4805227"><ele>1114.4</ele><time>2026-03-29T09:34:45.926Z</time></trkpt><trkpt lat="46.5492395" lon="12.4805582"><ele>1118.0</ele><time>2026-03-29T09:34:46.935Z</time></trkpt><trkpt lat="46.5493518" lon="12.4805822"><ele>1118.0</ele><time>2026-03-29T09:34:47.941Z</time></trkpt><trkpt lat="46.5494685" lon="12.4806099"><ele>1118.0</ele><time>2026-03-29T09:34:48.93Z</time></trkpt><trkpt lat="46.549581" lon="12.4806797"><ele>1118.0</ele><time>2026-03-29T09:34:49.957Z</time></trkpt><trkpt lat="46.5496869" lon="12.4807462"><ele>1118.0</ele><time>2026-03-29T09:34:50.939Z</time></trkpt><trkpt lat="46.5497837" lon="12.4807825"><ele>1120.3333333333335</ele><time>2026-03-29T09:34:51.924Z</time></trkpt><trkpt lat="46.5498556" lon="12.4807572"><ele>1122.6666666666667</ele><time>2026-03-29T09:34:52.93Z</time></trkpt><trkpt lat="46.5499225" lon="12.4807224"><ele>1125.0</ele><time>2026-03-29T09:34:53.953Z</time></trkpt><trkpt lat="46.5499871" lon="12.4806737"><ele>1127.3333333333333</ele><time>2026-03-29T09:34:54.923Z</time></trkpt><trkpt lat="46.550035" lon="12.4805628"><ele>1129.6666666666665</ele><time>2026-03-29T09:34:55.934Z</time></trkpt><trkpt lat="46.5500412" lon="12.4804263"><ele>1132.0</ele><time>2026-03-29T09:34:56.925Z</time></trkpt><trkpt lat="46.5500411" lon="12.4803123"><ele>1132.4</ele><time>2026-03-29T09:34:57.927Z</time></trkpt><trkpt lat="46.5500718" lon="12.4801652"><ele>1132.8000000000002</ele><time>2026-03-29T09:34:59.92Z</time></trkpt><trkpt lat="46.5501021" lon="12.4800294"><ele>1133.2</ele><time>2026-03-29T09:35:01.955Z</time></trkpt><trkpt lat="46.5501781" lon="12.4800544"><ele>1133.6000000000001</ele><time>2026-03-29T09:35:03.936Z</time></trkpt><trkpt lat="46.550229" lon="12.4802389"><ele>1134.0</ele><time>2026-03-29T09:35:05.952Z</time></trkpt><trkpt lat="46.5502429" lon="12.4803995"><ele>1133.6000000000001</ele><time>2026-03-29T09:35:06.932Z</time></trkpt><trkpt lat="46.5502831" lon="12.4805603"><ele>1133.2</ele><time>2026-03-29T09:35:07.931Z</time></trkpt><trkpt lat="46.5503227" lon="12.4807255"><ele>1132.8000000000002</ele><time>2026-03-29T09:35:08.934Z</time></trkpt><trkpt lat="46.5503586" lon="12.4808707"><ele>1132.4</ele><time>2026-03-29T09:35:09.943Z</time></trkpt><trkpt lat="46.5503947" lon="12.4809949"><ele>1132.0</ele><time>2026-03-29T09:35:10.924Z</time></trkpt><trkpt lat="46.5504161" lon="12.4811097"><ele>1135.0</ele><time>2026-03-29T09:35:11.933Z</time></trkpt><trkpt lat="46.5503738" lon="12.48127"><ele>1138.0</ele><time>2026-03-29T09:35:13.919Z</time></trkpt><trkpt lat="46.550305" lon="12.4813291"><ele>1141.0</ele><time>2026-03-29T09:35:14.923Z</time></trkpt><trkpt lat="46.5502019" lon="12.4813745"><ele>1144.0</ele><time>2026-03-29T09:35:15.935Z</time></trkpt><trkpt lat="46.5500116" lon="12.4814679"><ele>1144.0</ele><time>2026-03-29T09:35:17.941Z</time></trkpt><trkpt lat="46.5499513" lon="12.4815774"><ele>1144.0</ele><time>2026-03-29T09:35:19.935Z</time></trkpt><trkpt lat="46.5498914" lon="12.4817526"><ele>1144.0</ele><time>2026-03-29T09:35:21.947Z</time></trkpt><trkpt lat="46.5499289" lon="12.4818766"><ele>1144.0</ele><time>2026-03-29T09:35:22.929Z</time></trkpt><trkpt lat="46.5499875" lon="12.4819806"><ele>1144.0</ele><time>2026-03-29T09:35:23.929Z</time></trkpt><trkpt lat="46.5500396" lon="12.4821149"><ele>1145.8</ele><time>2026-03-29T09:35:24.925Z</time></trkpt><trkpt lat="46.5500719" lon="12.4822544"><ele>1147.6000000000001</ele><time>2026-03-29T09:35:25.942Z</time></trkpt><trkpt lat="46.5501127" lon="12.4824013"><ele>1149.4</ele><time>2026-03-29T09:35:26.936Z</time></trkpt><trkpt lat="46.5501597" lon="12.4825478"><ele>1151.2</ele><time>2026-03-29T09:35:27.926Z</time></trkpt><trkpt lat="46.5502131" lon="12.4826913"><ele>1153.0</ele><time>2026-03-29T09:35:28.928Z</time></trkpt><trkpt lat="46.5502645" lon="12.4828385"><ele>1150.6</ele><time>2026-03-29T09:35:29.929Z</time></trkpt><trkpt lat="46.5503184" lon="12.4829711"><ele>1148.1999999999998</ele><time>2026-03-29T09:35:30.934Z</time></trkpt><trkpt lat="46.550365" lon="12.4830891"><ele>1145.8</ele><time>2026-03-29T09:35:31.964Z</time></trkpt><trkpt lat="46.5503995" lon="12.4831847"><ele>1143.3999999999999</ele><time>2026-03-29T09:35:32.95Z</time></trkpt><trkpt lat="46.5504877" lon="12.4832872"><ele>1141.0</ele><time>2026-03-29T09:35:34.929Z</time></trkpt><trkpt lat="46.5505848" lon="12.4831787"><ele>1147.3999999999999</ele><time>2026-03-29T09:35:36.928Z</time></trkpt><trkpt lat="46.5505912" lon="12.4830476"><ele>1153.8</ele><time>2026-03-29T09:35:37.939Z</time></trkpt><trkpt lat="46.5505667" lon="12.4829185"><ele>1160.1999999999998</ele><time>2026-03-29T09:35:38.924Z</time></trkpt><trkpt lat="46.5505486" lon="12.4828223"><ele>1166.6</ele><time>2026-03-29T09:35:39.93Z</time></trkpt><trkpt lat="46.5505748" lon="12.48267"><ele>1173.0</ele><time>2026-03-29T09:35:41.927Z</time></trkpt><trkpt lat="46.5506665" lon="12.4826086"><ele>1173.0</ele><time>2026-03-29T09:35:43.952Z</time></trkpt><trkpt lat="46.550722" lon="12.4826702"><ele>1173.0</ele><time>2026-03-29T09:35:44.945Z</time></trkpt><trkpt lat="46.5507737" lon="12.4827644"><ele>1173.0</ele><time>2026-03-29T09:35:45.939Z</time></trkpt><trkpt lat="46.5508466" lon="12.4828329"><ele>1173.0</ele><time>2026-03-29T09:35:46.933Z</time></trkpt><trkpt lat="46.5509308" lon="12.4828633"><ele>1173.0</ele><time>2026-03-29T09:35:47.931Z</time></trkpt><trkpt lat="46.5510132" lon="12.4828295"><ele>1173.0</ele><time>2026-03-29T09:35:48.939Z</time></trkpt><trkpt lat="46.5510935" lon="12.4827661"><ele>1173.0</ele><time>2026-03-29T09:35:49.937Z</time></trkpt><trkpt lat="46.5511632" lon="12.4826479"><ele>1173.0</ele><time>2026-03-29T09:35:50.953Z</time></trkpt><trkpt lat="46.5512364" lon="12.4825195"><ele>1173.0</ele><time>2026-03-29T09:35:51.944Z</time></trkpt><trkpt lat="46.5512816" lon="12.4823462"><ele>1173.0</ele><time>2026-03-29T09:35:52.944Z</time></trkpt><trkpt lat="46.5513264" lon="12.4821564"><ele>1181.25</ele><time>2026-03-29T09:35:53.949Z</time></trkpt><trkpt lat="46.5513701" lon="12.4819587"><ele>1189.5</ele><time>2026-03-29T09:35:54.933Z</time></trkpt><trkpt lat="46.5514278" lon="12.4817673"><ele>1197.75</ele><time>2026-03-29T09:35:55.931Z</time></trkpt><trkpt lat="46.5514774" lon="12.4815775"><ele>1206.0</ele><time>2026-03-29T09:35:56.936Z</time></trkpt><trkpt lat="46.551518" lon="12.4813894"><ele>1207.75</ele><time>2026-03-29T09:35:57.941Z</time></trkpt><trkpt lat="46.5515458" lon="12.4811962"><ele>1209.5</ele><time>2026-03-29T09:35:58.94Z</time></trkpt><trkpt lat="46.5515549" lon="12.4809894"><ele>1211.25</ele><time>2026-03-29T09:35:59.944Z</time></trkpt><trkpt lat="46.5515409" lon="12.4807761"><ele>1213.0</ele><time>2026-03-29T09:36:00.937Z</time></trkpt><trkpt lat="46.5515155" lon="12.480567"><ele>1217.75</ele><time>2026-03-29T09:36:01.938Z</time></trkpt><trkpt lat="46.5515239" lon="12.4803524"><ele>1222.5</ele><time>2026-03-29T09:36:02.937Z</time></trkpt><trkpt lat="46.551509" lon="12.4801414"><ele>1227.25</ele><time>2026-03-29T09:36:03.945Z</time></trkpt><trkpt lat="46.5514578" lon="12.4799373"><ele>1232.0</ele><time>2026-03-29T09:36:04.946Z</time></trkpt><trkpt lat="46.5513734" lon="12.4797583"><ele>1240.3333333333335</ele><time>2026-03-29T09:36:05.948Z</time></trkpt><trkpt lat="46.5512942" lon="12.4795735"><ele>1248.6666666666667</ele><time>2026-03-29T09:36:06.941Z</time></trkpt><trkpt lat="46.5512204" lon="12.4793653"><ele>1257.0</ele><time>2026-03-29T09:36:07.96Z</time></trkpt><trkpt lat="46.5511607" lon="12.4791298"><ele>1243.6666666666667</ele><time>2026-03-29T09:36:08.943Z</time></trkpt><trkpt lat="46.5511016" lon="12.4788893"><ele>1230.3333333333335</ele><time>2026-03-29T09:36:09.944Z</time></trkpt><trkpt lat="46.5510198" lon="12.4785755"><ele>1217.0</ele><time>2026-03-29T09:36:10.939Z</time></trkpt><trkpt lat="46.5509324" lon="12.4783254"><ele>1217.0</ele><time>2026-03-29T09:36:11.948Z</time></trkpt><trkpt lat="46.5508473" lon="12.4780915"><ele>1217.0</ele><time>2026-03-29T09:36:12.946Z</time></trkpt><trkpt lat="46.5507815" lon="12.4778743"><ele>1217.0</ele><time>2026-03-29T09:36:13.979Z</time></trkpt><trkpt lat="46.5507311" lon="12.4776681"><ele>1220.5</ele><time>2026-03-29T09:36:14.942Z</time></trkpt><trkpt lat="46.5506903" lon="12.4774767"><ele>1224.0</ele><time>2026-03-29T09:36:15.95Z</time></trkpt><trkpt lat="46.5506718" lon="12.4772654"><ele>1227.5</ele><time>2026-03-29T09:36:16.948Z</time></trkpt><trkpt lat="46.5506921" lon="12.4770475"><ele>1231.0</ele><time>2026-03-29T09:36:17.947Z</time></trkpt><trkpt lat="46.5507139" lon="12.4768286"><ele>1233.25</ele><time>2026-03-29T09:36:18.931Z</time></trkpt><trkpt lat="46.5507268" lon="12.4766023"><ele>1235.5</ele><time>2026-03-29T09:36:19.963Z</time></trkpt><trkpt lat="46.5507385" lon="12.4763834"><ele>1237.75</ele><time>2026-03-29T09:36:20.953Z</time></trkpt><trkpt lat="46.5507524" lon="12.4761868"><ele>1240.0</ele><time>2026-03-29T09:36:21.957Z</time></trkpt><trkpt lat="46.550746" lon="12.4760027"><ele>1241.6</ele><time>2026-03-29T09:36:22.929Z</time></trkpt><trkpt lat="46.550731" lon="12.4758262"><ele>1243.2</ele><time>2026-03-29T09:36:23.957Z</time></trkpt><trkpt lat="46.5507166" lon="12.4756735"><ele>1244.8</ele><time>2026-03-29T09:36:24.938Z</time></trkpt><trkpt lat="46.5507045" lon="12.4755549"><ele>1246.4</ele><time>2026-03-29T09:36:25.946Z</time></trkpt><trkpt lat="46.5506694" lon="12.4754136"><ele>1248.0</ele><time>2026-03-29T09:36:27.931Z</time></trkpt><trkpt lat="46.5506573" lon="12.4752824"><ele>1248.0</ele><time>2026-03-29T09:36:30.952Z</time></trkpt><trkpt lat="46.5507528" lon="12.4753847"><ele>1248.0</ele><time>2026-03-29T09:36:32.935Z</time></trkpt><trkpt lat="46.550781" lon="12.4754897"><ele>1248.0</ele><time>2026-03-29T09:36:33.944Z</time></trkpt><trkpt lat="46.5508215" lon="12.4756309"><ele>1248.0</ele><time>2026-03-29T09:36:34.941Z</time></trkpt><trkpt lat="46.5508955" lon="12.4757854"><ele>1248.0</ele><time>2026-03-29T09:36:35.956Z</time></trkpt><trkpt lat="46.5509619" lon="12.4759519"><ele>1248.0</ele><time>2026-03-29T09:36:36.942Z</time></trkpt><trkpt lat="46.551011" lon="12.476099"><ele>1248.0</ele><time>2026-03-29T09:36:37.945Z</time></trkpt><trkpt lat="46.551031" lon="12.4762131"><ele>1248.0</ele><time>2026-03-29T09:36:38.929Z</time></trkpt><trkpt lat="46.5510256" lon="12.4763272"><ele>1248.0</ele><time>2026-03-29T09:36:39.935Z</time></trkpt><trkpt lat="46.5510198" lon="12.4764215"><ele>1248.0</ele><time>2026-03-29T09:36:40.93Z</time></trkpt><trkpt lat="46.5510666" lon="12.4765604"><ele>1248.0</ele><time>2026-03-29T09:36:42.944Z</time></trkpt><trkpt lat="46.5511632" lon="12.4765199"><ele>1248.0</ele><time>2026-03-29T09:36:44.928Z</time></trkpt><trkpt lat="46.5511894" lon="12.4763403"><ele>1248.0</ele><time>2026-03-29T09:36:46.934Z</time></trkpt><trkpt lat="46.5511829" lon="12.4761799"><ele>1248.0</ele><time>2026-03-29T09:36:47.928Z</time></trkpt><trkpt lat="46.5511574" lon="12.4759695"><ele>1248.0</ele><time>2026-03-29T09:36:48.924Z</time></trkpt><trkpt lat="46.5511084" lon="12.4757213"><ele>1248.0</ele><time>2026-03-29T09:36:49.929Z</time></trkpt><trkpt lat="46.5510764" lon="12.4754866"><ele>1248.0</ele><time>2026-03-29T09:36:50.938Z</time></trkpt><trkpt lat="46.5510658" lon="12.4752949"><ele>1248.0</ele><time>2026-03-29T09:36:51.949Z</time></trkpt><trkpt lat="46.5510436" lon="12.4751362"><ele>1248.0</ele><time>2026-03-29T09:36:52.919Z</time></trkpt><trkpt lat="46.5510116" lon="12.4750015"><ele>1249.6</ele><time>2026-03-29T09:36:53.94Z</time></trkpt><trkpt lat="46.5509796" lon="12.4749095"><ele>1251.1999999999998</ele><time>2026-03-29T09:36:54.927Z</time></trkpt><trkpt lat="46.5509545" lon="12.4747719"><ele>1252.8</ele><time>2026-03-29T09:36:56.928Z</time></trkpt><trkpt lat="46.5510427" lon="12.4747245"><ele>1254.3999999999999</ele><time>2026-03-29T09:36:59.948Z</time></trkpt><trkpt lat="46.5510848" lon="12.4749187"><ele>1256.0</ele><time>2026-03-29T09:37:01.931Z</time></trkpt><trkpt lat="46.5511139" lon="12.4750686"><ele>1256.0</ele><time>2026-03-29T09:37:02.954Z</time></trkpt><trkpt lat="46.5511601" lon="12.475246"><ele>1256.0</ele><time>2026-03-29T09:37:03.936Z</time></trkpt><trkpt lat="46.5512244" lon="12.4754377"><ele>1256.0</ele><time>2026-03-29T09:37:04.922Z</time></trkpt><trkpt lat="46.5512871" lon="12.4756389"><ele>1256.0</ele><time>2026-03-29T09:37:05.935Z</time></trkpt><trkpt lat="46.5513747" lon="12.4758181"><ele>1265.5</ele><time>2026-03-29T09:37:06.951Z</time></trkpt><trkpt lat="46.551427" lon="12.4760068"><ele>1275.0</ele><time>2026-03-29T09:37:07.954Z</time></trkpt><trkpt lat="46.5514635" lon="12.4761962"><ele>1284.5</ele><time>2026-03-29T09:37:08.932Z</time></trkpt><trkpt lat="46.5514723" lon="12.4763964"><ele>1294.0</ele><time>2026-03-29T09:37:09.93Z</time></trkpt><trkpt lat="46.5514824" lon="12.4766029"><ele>1294.0</ele><time>2026-03-29T09:37:10.939Z</time></trkpt><trkpt lat="46.5515084" lon="12.4768243"><ele>1294.0</ele><time>2026-03-29T09:37:11.951Z</time></trkpt><trkpt lat="46.5515564" lon="12.4770619"><ele>1294.0</ele><time>2026-03-29T09:37:12.943Z</time></trkpt><trkpt lat="46.5516123" lon="12.4773008"><ele>1293.0</ele><time>2026-03-29T09:37:13.941Z</time></trkpt><trkpt lat="46.5516996" lon="12.4775115"><ele>1292.0</ele><time>2026-03-29T09:37:14.924Z</time></trkpt><trkpt lat="46.551799" lon="12.4777168"><ele>1291.0</ele><time>2026-03-29T09:37:15.936Z</time></trkpt><trkpt lat="46.5518981" lon="12.4779293"><ele>1285.3333333333333</ele><time>2026-03-29T09:37:16.929Z</time></trkpt><trkpt lat="46.5520015" lon="12.4781421"><ele>1279.6666666666667</ele><time>2026-03-29T09:37:17.962Z</time></trkpt><trkpt lat="46.5521034" lon="12.4783479"><ele>1274.0</ele><time>2026-03-29T09:37:18.932Z</time></trkpt><trkpt lat="46.5522009" lon="12.4785646"><ele>1287.6666666666667</ele><time>2026-03-29T09:37:19.944Z</time></trkpt><trkpt lat="46.5523045" lon="12.4787839"><ele>1301.3333333333333</ele><time>2026-03-29T09:37:20.928Z</time></trkpt><trkpt lat="46.5523902" lon="12.4790163"><ele>1315.0</ele><time>2026-03-29T09:37:21.939Z</time></trkpt><trkpt lat="46.5525169" lon="12.4792113"><ele>1315.0</ele><time>2026-03-29T09:37:22.931Z</time></trkpt><trkpt lat="46.5526099" lon="12.479421"><ele>1315.0</ele><time>2026-03-29T09:37:23.951Z</time></trkpt><trkpt lat="46.5526814" lon="12.4796265"><ele>1315.0</ele><time>2026-03-29T09:37:24.96Z</time></trkpt><trkpt lat="46.5527597" lon="12.4798042"><ele>1307.3333333333333</ele><time>2026-03-29T09:37:25.952Z</time></trkpt><trkpt lat="46.5528534" lon="12.4799729"><ele>1299.6666666666667</ele><time>2026-03-29T09:37:26.932Z</time></trkpt><trkpt lat="46.5529287" lon="12.480173"><ele>1292.0</ele><time>2026-03-29T09:37:27.951Z</time></trkpt><trkpt lat="46.5530037" lon="12.4803797"><ele>1306.3333333333335</ele><time>2026-03-29T09:37:28.948Z</time></trkpt><trkpt lat="46.5530919" lon="12.4805825"><ele>1320.6666666666667</ele><time>2026-03-29T09:37:29.952Z</time></trkpt><trkpt lat="46.5531664" lon="12.4807909"><ele>1335.0</ele><time>2026-03-29T09:37:30.942Z</time></trkpt><trkpt lat="46.5532351" lon="12.4810126"><ele>1335.0</ele><time>2026-03-29T09:37:31.929Z</time></trkpt><trkpt lat="46.5533163" lon="12.4812367"><ele>1335.0</ele><time>2026-03-29T09:37:32.939Z</time></trkpt><trkpt lat="46.5534059" lon="12.4814728"><ele>1335.0</ele><time>2026-03-29T09:37:33.935Z</time></trkpt><trkpt lat="46.5534909" lon="12.4817278"><ele>1329.3333333333333</ele><time>2026-03-29T09:37:34.931Z</time></trkpt><trkpt lat="46.5535669" lon="12.4819942"><ele>1323.6666666666665</ele><time>2026-03-29T09:37:35.954Z</time></trkpt><trkpt lat="46.5536592" lon="12.4822385"><ele>1318.0</ele><time>2026-03-29T09:37:36.94Z</time></trkpt><trkpt lat="46.5537399" lon="12.4824926"><ele>1328.3333333333333</ele><time>2026-03-29T09:37:37.937Z</time></trkpt><trkpt lat="46.5538266" lon="12.4827357"><ele>1338.6666666666667</ele><time>2026-03-29T09:37:38.937Z</time></trkpt><trkpt lat="46.5539011" lon="12.4829711"><ele>1349.0</ele><time>2026-03-29T09:37:39.926Z</time></trkpt><trkpt lat="46.5539701" lon="12.4831954"><ele>1349.0</ele><time>2026-03-29T09:37:40.926Z</time></trkpt><trkpt lat="46.5540258" lon="12.4834281"><ele>1349.0</ele><time>2026-03-29T09:37:41.915Z</time></trkpt><trkpt lat="46.5540858" lon="12.4836556"><ele>1349.0</ele><time>2026-03-29T09:37:42.941Z</time></trkpt><trkpt lat="46.5541483" lon="12.4838749"><ele>1347.0</ele><time>2026-03-29T09:37:43.954Z</time></trkpt><trkpt lat="46.554207" lon="12.4840999"><ele>1345.0</ele><time>2026-03-29T09:37:44.942Z</time></trkpt><trkpt lat="46.5542935" lon="12.4843125"><ele>1343.0</ele><time>2026-03-29T09:37:45.939Z</time></trkpt><trkpt lat="46.5543613" lon="12.4845313"><ele>1340.6666666666667</ele><time>2026-03-29T09:37:46.944Z</time></trkpt><trkpt lat="46.5544598" lon="12.4847229"><ele>1338.3333333333333</ele><time>2026-03-29T09:37:47.941Z</time></trkpt><trkpt lat="46.5545418" lon="12.4849285"><ele>1336.0</ele><time>2026-03-29T09:37:48.93Z</time></trkpt><trkpt lat="46.554636" lon="12.485117"><ele>1341.6666666666665</ele><time>2026-03-29T09:37:49.944Z</time></trkpt><trkpt lat="46.554728" lon="12.4853014"><ele>1347.3333333333333</ele><time>2026-03-29T09:37:50.938Z</time></trkpt><trkpt lat="46.554834" lon="12.4854661"><ele>1353.0</ele><time>2026-03-29T09:37:51.926Z</time></trkpt><trkpt lat="46.5549494" lon="12.4856165"><ele>1353.0</ele><time>2026-03-29T09:37:52.93Z</time></trkpt><trkpt lat="46.5550866" lon="12.4857317"><ele>1353.0</ele><time>2026-03-29T09:37:53.934Z</time></trkpt><trkpt lat="46.5552387" lon="12.485798"><ele>1353.0</ele><time>2026-03-29T09:37:54.93Z</time></trkpt><trkpt lat="46.555387" lon="12.4858867"><ele>1361.3333333333333</ele><time>2026-03-29T09:37:55.928Z</time></trkpt><trkpt lat="46.5555367" lon="12.4859504"><ele>1369.6666666666665</ele><time>2026-03-29T09:37:56.927Z</time></trkpt><trkpt lat="46.5556907" lon="12.4859742"><ele>1378.0</ele><time>2026-03-29T09:37:57.928Z</time></trkpt><trkpt lat="46.5558261" lon="12.4860333"><ele>1378.0</ele><time>2026-03-29T09:37:58.924Z</time></trkpt><trkpt lat="46.5559441" lon="12.4860786"><ele>1378.0</ele><time>2026-03-29T09:37:59.94Z</time></trkpt><trkpt lat="46.5560441" lon="12.4861677"><ele>1378.0</ele><time>2026-03-29T09:38:00.92Z</time></trkpt><trkpt lat="46.5561448" lon="12.4863065"><ele>1378.0</ele><time>2026-03-29T09:38:01.941Z</time></trkpt><trkpt lat="46.5562412" lon="12.4864373"><ele>1378.4</ele><time>2026-03-29T09:38:02.94Z</time></trkpt><trkpt lat="46.5563385" lon="12.4865839"><ele>1378.8000000000002</ele><time>2026-03-29T09:38:03.923Z</time></trkpt><trkpt lat="46.5564228" lon="12.4867038"><ele>1379.2</ele><time>2026-03-29T09:38:04.922Z</time></trkpt><trkpt lat="46.5564876" lon="12.4868108"><ele>1379.6</ele><time>2026-03-29T09:38:05.941Z</time></trkpt><trkpt lat="46.556567" lon="12.4868531"><ele>1380.0</ele><time>2026-03-29T09:38:06.928Z</time></trkpt><trkpt lat="46.5566531" lon="12.4868534"><ele>1380.0</ele><time>2026-03-29T09:38:07.942Z</time></trkpt><trkpt lat="46.5567373" lon="12.486817"><ele>1380.0</ele><time>2026-03-29T09:38:08.939Z</time></trkpt><trkpt lat="46.5568166" lon="12.4867657"><ele>1380.0</ele><time>2026-03-29T09:38:09.945Z</time></trkpt><trkpt lat="46.5568912" lon="12.4867146"><ele>1380.0</ele><time>2026-03-29T09:38:10.935Z</time></trkpt><trkpt lat="46.5569582" lon="12.4866586"><ele>1380.0</ele><time>2026-03-29T09:38:11.927Z</time></trkpt><trkpt lat="46.5570156" lon="12.486586"><ele>1380.0</ele><time>2026-03-29T09:38:12.931Z</time></trkpt><trkpt lat="46.5570663" lon="12.4864918"><ele>1380.4</ele><time>2026-03-29T09:38:13.927Z</time></trkpt><trkpt lat="46.5571061" lon="12.4863739"><ele>1380.8</ele><time>2026-03-29T09:38:14.922Z</time></trkpt><trkpt lat="46.5571351" lon="12.4862481"><ele>1381.1999999999998</ele><time>2026-03-29T09:38:15.93Z</time></trkpt><trkpt lat="46.5571687" lon="12.4861283"><ele>1381.6</ele><time>2026-03-29T09:38:16.929Z</time></trkpt><trkpt lat="46.557208" lon="12.4860118"><ele>1382.0</ele><time>2026-03-29T09:38:17.957Z</time></trkpt><trkpt lat="46.5572481" lon="12.4858947"><ele>1382.0</ele><time>2026-03-29T09:38:18.926Z</time></trkpt><trkpt lat="46.557286" lon="12.4857748"><ele>1382.0</ele><time>2026-03-29T09:38:19.944Z</time></trkpt><trkpt lat="46.5573261" lon="12.4856533"><ele>1382.0</ele><time>2026-03-29T09:38:20.927Z</time></trkpt><trkpt lat="46.5573365" lon="12.4855019"><ele>1382.0</ele><time>2026-03-29T09:38:21.918Z</time></trkpt><trkpt lat="46.5573962" lon="12.4853894"><ele>1382.0</ele><time>2026-03-29T09:38:22.944Z</time></trkpt><trkpt lat="46.5574504" lon="12.48527"><ele>1383.3333333333335</ele><time>2026-03-29T09:38:23.934Z</time></trkpt><trkpt lat="46.5575113" lon="12.4851597"><ele>1384.6666666666667</ele><time>2026-03-29T09:38:24.957Z</time></trkpt><trkpt lat="46.5575803" lon="12.4850692"><ele>1386.0</ele><time>2026-03-29T09:38:25.939Z</time></trkpt><trkpt lat="46.5576502" lon="12.4850063"><ele>1387.3333333333333</ele><time>2026-03-29T09:38:26.924Z</time></trkpt><trkpt lat="46.5577049" lon="12.4849528"><ele>1388.6666666666665</ele><time>2026-03-29T09:38:27.935Z</time></trkpt><trkpt lat="46.5577848" lon="12.4848428"><ele>1390.0</ele><time>2026-03-29T09:38:29.939Z</time></trkpt><trkpt lat="46.5577746" lon="12.4846938"><ele>1390.0</ele><time>2026-03-29T09:38:31.933Z</time></trkpt><trkpt lat="46.557725" lon="12.4846019"><ele>1390.0</ele><time>2026-03-29T09:38:32.937Z</time></trkpt><trkpt lat="46.5576537" lon="12.4845878"><ele>1390.0</ele><time>2026-03-29T09:38:33.925Z</time></trkpt><trkpt lat="46.557546" lon="12.4845923"><ele>1390.0</ele><time>2026-03-29T09:38:34.928Z</time></trkpt><trkpt lat="46.5574488" lon="12.4846039"><ele>1390.0</ele><time>2026-03-29T09:38:35.943Z</time></trkpt><trkpt lat="46.5573434" lon="12.4845842"><ele>1394.5</ele><time>2026-03-29T09:38:36.921Z</time></trkpt><trkpt lat="46.5572171" lon="12.4845837"><ele>1399.0</ele><time>2026-03-29T09:38:37.944Z</time></trkpt><trkpt lat="46.5570949" lon="12.4845021"><ele>1403.5</ele><time>2026-03-29T09:38:38.922Z</time></trkpt><trkpt lat="46.5569805" lon="12.484453"><ele>1408.0</ele><time>2026-03-29T09:38:39.927Z</time></trkpt><trkpt lat="46.5568861" lon="12.4843953"><ele>1408.6000000000001</ele><time>2026-03-29T09:38:40.943Z</time></trkpt><trkpt lat="46.556808" lon="12.4843613"><ele>1409.2</ele><time>2026-03-29T09:38:41.941Z</time></trkpt><trkpt lat="46.5567618" lon="12.4842579"><ele>1409.8</ele><time>2026-03-29T09:38:42.926Z</time></trkpt><trkpt lat="46.5567465" lon="12.4841569"><ele>1410.4</ele><time>2026-03-29T09:38:43.93Z</time></trkpt><trkpt lat="46.5567926" lon="12.484007"><ele>1411.0</ele><time>2026-03-29T09:38:45.925Z</time></trkpt><trkpt lat="46.556918" lon="12.4839106"><ele>1411.0</ele><time>2026-03-29T09:38:47.944Z</time></trkpt><trkpt lat="46.557032" lon="12.4839015"><ele>1411.0</ele><time>2026-03-29T09:38:48.931Z</time></trkpt><trkpt lat="46.5571459" lon="12.4838794"><ele>1411.0</ele><time>2026-03-29T09:38:49.941Z</time></trkpt><trkpt lat="46.5572467" lon="12.4838573"><ele>1411.0</ele><time>2026-03-29T09:38:50.93Z</time></trkpt><trkpt lat="46.5573295" lon="12.483826"><ele>1411.0</ele><time>2026-03-29T09:38:51.935Z</time></trkpt><trkpt lat="46.5573956" lon="12.4837802"><ele>1414.4</ele><time>2026-03-29T09:38:52.934Z</time></trkpt><trkpt lat="46.5574454" lon="12.4837232"><ele>1417.8</ele><time>2026-03-29T09:38:53.925Z</time></trkpt><trkpt lat="46.557494" lon="12.4835833"><ele>1421.2</ele><time>2026-03-29T09:38:55.946Z</time></trkpt><trkpt lat="46.5573872" lon="12.4834837"><ele>1424.6000000000001</ele><time>2026-03-29T09:38:57.959Z</time></trkpt><trkpt lat="46.5572968" lon="12.4835088"><ele>1428.0</ele><time>2026-03-29T09:38:58.932Z</time></trkpt><trkpt lat="46.5572126" lon="12.4835222"><ele>1428.0</ele><time>2026-03-29T09:38:59.935Z</time></trkpt><trkpt lat="46.5571397" lon="12.4835319"><ele>1428.0</ele><time>2026-03-29T09:39:00.941Z</time></trkpt><trkpt lat="46.5570304" lon="12.4835213"><ele>1428.0</ele><time>2026-03-29T09:39:02.933Z</time></trkpt><trkpt lat="46.5569917" lon="12.4834275"><ele>1428.0</ele><time>2026-03-29T09:39:03.948Z</time></trkpt><trkpt lat="46.5569698" lon="12.4833362"><ele>1428.0</ele><time>2026-03-29T09:39:04.92Z</time></trkpt><trkpt lat="46.5570162" lon="12.483232"><ele>1428.0</ele><time>2026-03-29T09:39:06.923Z</time></trkpt><trkpt lat="46.5570938" lon="12.4832307"><ele>1428.0</ele><time>2026-03-29T09:39:07.925Z</time></trkpt><trkpt lat="46.5571935" lon="12.4832401"><ele>1428.0</ele><time>2026-03-29T09:39:08.923Z</time></trkpt><trkpt lat="46.5573078" lon="12.4831798"><ele>1428.0</ele><time>2026-03-29T09:39:09.924Z</time></trkpt><trkpt lat="46.5574463" lon="12.4831517"><ele>1428.0</ele><time>2026-03-29T09:39:10.938Z</time></trkpt><trkpt lat="46.5575872" lon="12.4831174"><ele>1428.0</ele><time>2026-03-29T09:39:11.942Z</time></trkpt><trkpt lat="46.5577172" lon="12.4830733"><ele>1428.0</ele><time>2026-03-29T09:39:12.944Z</time></trkpt><trkpt lat="46.5578455" lon="12.4830575"><ele>1428.0</ele><time>2026-03-29T09:39:13.941Z</time></trkpt><trkpt lat="46.5579725" lon="12.4830446"><ele>1428.0</ele><time>2026-03-29T09:39:14.932Z</time></trkpt><trkpt lat="46.5580963" lon="12.483031"><ele>1428.4</ele><time>2026-03-29T09:39:15.938Z</time></trkpt><trkpt lat="46.5582136" lon="12.4830054"><ele>1428.8000000000002</ele><time>2026-03-29T09:39:16.908Z</time></trkpt><trkpt lat="46.5583119" lon="12.4829594"><ele>1429.2</ele><time>2026-03-29T09:39:17.931Z</time></trkpt><trkpt lat="46.5583809" lon="12.4828757"><ele>1429.6</ele><time>2026-03-29T09:39:18.946Z</time></trkpt><trkpt lat="46.55844" lon="12.4827913"><ele>1430.0</ele><time>2026-03-29T09:39:19.928Z</time></trkpt><trkpt lat="46.5584965" lon="12.4827097"><ele>1432.2</ele><time>2026-03-29T09:39:20.939Z</time></trkpt><trkpt lat="46.5585735" lon="12.4826748"><ele>1434.4</ele><time>2026-03-29T09:39:21.943Z</time></trkpt><trkpt lat="46.5586625" lon="12.4826804"><ele>1436.6</ele><time>2026-03-29T09:39:22.935Z</time></trkpt><trkpt lat="46.5587556" lon="12.4827673"><ele>1438.8</ele><time>2026-03-29T09:39:23.956Z</time></trkpt><trkpt lat="46.5588515" lon="12.4828781"><ele>1441.0</ele><time>2026-03-29T09:39:24.936Z</time></trkpt><trkpt lat="46.5589669" lon="12.4829811"><ele>1441.0</ele><time>2026-03-29T09:39:25.947Z</time></trkpt><trkpt lat="46.5590973" lon="12.48308"><ele>1441.0</ele><time>2026-03-29T09:39:26.933Z</time></trkpt><trkpt lat="46.5592389" lon="12.4831713"><ele>1441.0</ele><time>2026-03-29T09:39:27.947Z</time></trkpt><trkpt lat="46.5593757" lon="12.4832567"><ele>1441.0</ele><time>2026-03-29T09:39:28.937Z</time></trkpt><trkpt lat="46.5595017" lon="12.4833519"><ele>1441.0</ele><time>2026-03-29T09:39:29.928Z</time></trkpt><trkpt lat="46.5596259" lon="12.4834289"><ele>1441.0</ele><time>2026-03-29T09:39:30.933Z</time></trkpt><trkpt lat="46.5597502" lon="12.4834931"><ele>1441.0</ele><time>2026-03-29T09:39:31.946Z</time></trkpt><trkpt lat="46.5598809" lon="12.4835411"><ele>1444.0</ele><time>2026-03-29T09:39:32.939Z</time></trkpt><trkpt lat="46.5600252" lon="12.4835153"><ele>1447.0</ele><time>2026-03-29T09:39:33.95Z</time></trkpt><trkpt lat="46.5601629" lon="12.4835208"><ele>1450.0</ele><time>2026-03-29T09:39:34.936Z</time></trkpt><trkpt lat="46.5602925" lon="12.4835206"><ele>1453.0</ele><time>2026-03-29T09:39:35.939Z</time></trkpt><trkpt lat="46.5604049" lon="12.4834945"><ele>1454.2</ele><time>2026-03-29T09:39:36.938Z</time></trkpt><trkpt lat="46.5605074" lon="12.4835124"><ele>1455.4</ele><time>2026-03-29T09:39:37.921Z</time></trkpt><trkpt lat="46.5606046" lon="12.4835153"><ele>1456.6000000000001</ele><time>2026-03-29T09:39:38.923Z</time></trkpt><trkpt lat="46.5607006" lon="12.4835091"><ele>1457.8000000000002</ele><time>2026-03-29T09:39:39.941Z</time></trkpt><trkpt lat="46.5607945" lon="12.4835007"><ele>1459.0</ele><time>2026-03-29T09:39:40.94Z</time></trkpt><trkpt lat="46.5608779" lon="12.4834872"><ele>1459.0</ele><time>2026-03-29T09:39:41.949Z</time></trkpt><trkpt lat="46.5609504" lon="12.4834797"><ele>1459.0</ele><time>2026-03-29T09:39:42.951Z</time></trkpt><trkpt lat="46.5610322" lon="12.4834589"><ele>1459.0</ele><time>2026-03-29T09:39:44.948Z</time></trkpt><trkpt lat="46.5611062" lon="12.4834453"><ele>1459.0</ele><time>2026-03-29T09:39:46.931Z</time></trkpt><trkpt lat="46.5611912" lon="12.4834335"><ele>1459.0</ele><time>2026-03-29T09:39:48.94Z</time></trkpt><trkpt lat="46.5613197" lon="12.483417"><ele>1459.0</ele><time>2026-03-29T09:39:50.948Z</time></trkpt><trkpt lat="46.5614074" lon="12.4834118"><ele>1459.75</ele><time>2026-03-29T09:39:51.963Z</time></trkpt><trkpt lat="46.5615088" lon="12.4834012"><ele>1460.5</ele><time>2026-03-29T09:39:52.943Z</time></trkpt><trkpt lat="46.5616255" lon="12.4833861"><ele>1461.25</ele><time>2026-03-29T09:39:53.944Z</time></trkpt><trkpt lat="46.5617496" lon="12.4833681"><ele>1462.0</ele><time>2026-03-29T09:39:54.94Z</time></trkpt><trkpt lat="46.5618819" lon="12.4833473"><ele>1462.0</ele><time>2026-03-29T09:39:55.957Z</time></trkpt><trkpt lat="46.562021" lon="12.4833196"><ele>1462.0</ele><time>2026-03-29T09:39:56.953Z</time></trkpt><trkpt lat="46.5621639" lon="12.4832929"><ele>1462.0</ele><time>2026-03-29T09:39:57.948Z</time></trkpt><trkpt lat="46.5623083" lon="12.4832711"><ele>1462.0</ele><time>2026-03-29T09:39:58.942Z</time></trkpt><trkpt lat="46.5624531" lon="12.4832248"><ele>1462.25</ele><time>2026-03-29T09:39:59.938Z</time></trkpt><trkpt lat="46.5626028" lon="12.4831945"><ele>1462.5</ele><time>2026-03-29T09:40:00.943Z</time></trkpt><trkpt lat="46.5627529" lon="12.4831847"><ele>1462.75</ele><time>2026-03-29T09:40:01.956Z</time></trkpt><trkpt lat="46.5628944" lon="12.4831734"><ele>1463.0</ele><time>2026-03-29T09:40:02.95Z</time></trkpt><trkpt lat="46.5630368" lon="12.4831622"><ele>1463.0</ele><time>2026-03-29T09:40:03.96Z</time></trkpt><trkpt lat="46.5631673" lon="12.4831486"><ele>1463.0</ele><time>2026-03-29T09:40:04.934Z</time></trkpt><trkpt lat="46.5633022" lon="12.4831277"><ele>1463.0</ele><time>2026-03-29T09:40:05.959Z</time></trkpt><trkpt lat="46.5634245" lon="12.4831161"><ele>1463.0</ele><time>2026-03-29T09:40:06.966Z</time></trkpt><trkpt lat="46.5635419" lon="12.4830939"><ele>1463.0</ele><time>2026-03-29T09:40:07.956Z</time></trkpt><trkpt lat="46.5636473" lon="12.483037"><ele>1463.0</ele><time>2026-03-29T09:40:08.945Z</time></trkpt><trkpt lat="46.5637534" lon="12.4829597"><ele>1463.0</ele><time>2026-03-29T09:40:09.946Z</time></trkpt><trkpt lat="46.563857" lon="12.4828651"><ele>1463.0</ele><time>2026-03-29T09:40:10.936Z</time></trkpt><trkpt lat="46.563968" lon="12.482756"><ele>1462.5</ele><time>2026-03-29T09:40:11.95Z</time></trkpt><trkpt lat="46.5640829" lon="12.4826281"><ele>1462.0</ele><time>2026-03-29T09:40:12.936Z</time></trkpt><trkpt lat="46.5641985" lon="12.4824942"><ele>1461.5</ele><time>2026-03-29T09:40:13.95Z</time></trkpt><trkpt lat="46.5643129" lon="12.4823604"><ele>1461.0</ele><time>2026-03-29T09:40:14.946Z</time></trkpt><trkpt lat="46.5644259" lon="12.4822279"><ele>1462.0</ele><time>2026-03-29T09:40:15.948Z</time></trkpt><trkpt lat="46.5645304" lon="12.482095"><ele>1463.0</ele><time>2026-03-29T09:40:16.941Z</time></trkpt><trkpt lat="46.5646384" lon="12.4819729"><ele>1464.0</ele><time>2026-03-29T09:40:17.948Z</time></trkpt><trkpt lat="46.5647485" lon="12.4818696"><ele>1465.0</ele><time>2026-03-29T09:40:18.933Z</time></trkpt><trkpt lat="46.5648662" lon="12.481807"><ele>1465.0</ele><time>2026-03-29T09:40:19.961Z</time></trkpt><trkpt lat="46.5649859" lon="12.481763"><ele>1465.0</ele><time>2026-03-29T09:40:20.944Z</time></trkpt><trkpt lat="46.5651108" lon="12.481765"><ele>1465.0</ele><time>2026-03-29T09:40:21.942Z</time></trkpt><trkpt lat="46.565238" lon="12.481809"><ele>1465.0</ele><time>2026-03-29T09:40:22.954Z</time></trkpt><trkpt lat="46.5653605" lon="12.4818659"><ele>1464.0</ele><time>2026-03-29T09:40:23.952Z</time></trkpt><trkpt lat="46.5654798" lon="12.4819453"><ele>1463.0</ele><time>2026-03-29T09:40:24.943Z</time></trkpt><trkpt lat="46.5656015" lon="12.4820188"><ele>1462.0</ele><time>2026-03-29T09:40:25.958Z</time></trkpt><trkpt lat="46.5657265" lon="12.4820839"><ele>1461.0</ele><time>2026-03-29T09:40:26.939Z</time></trkpt><trkpt lat="46.5658549" lon="12.4821496"><ele>1461.0</ele><time>2026-03-29T09:40:27.943Z</time></trkpt><trkpt lat="46.5659831" lon="12.4822218"><ele>1461.0</ele><time>2026-03-29T09:40:28.935Z</time></trkpt><trkpt lat="46.5661157" lon="12.4822908"><ele>1461.0</ele><time>2026-03-29T09:40:29.934Z</time></trkpt><trkpt lat="46.566248" lon="12.4823555"><ele>1461.0</ele><time>2026-03-29T09:40:30.946Z</time></trkpt><trkpt lat="46.566377" lon="12.4824174"><ele>1465.0</ele><time>2026-03-29T09:40:31.945Z</time></trkpt><trkpt lat="46.5665015" lon="12.4824782"><ele>1469.0</ele><time>2026-03-29T09:40:32.949Z</time></trkpt><trkpt lat="46.5666216" lon="12.4825396"><ele>1473.0</ele><time>2026-03-29T09:40:33.95Z</time></trkpt><trkpt lat="46.5667343" lon="12.4826122"><ele>1477.0</ele><time>2026-03-29T09:40:34.94Z</time></trkpt><trkpt lat="46.5668407" lon="12.4826967"><ele>1477.0</ele><time>2026-03-29T09:40:35.951Z</time></trkpt><trkpt lat="46.5669406" lon="12.4827957"><ele>1477.0</ele><time>2026-03-29T09:40:36.97Z</time></trkpt><trkpt lat="46.5670425" lon="12.4828969"><ele>1477.0</ele><time>2026-03-29T09:40:37.949Z</time></trkpt><trkpt lat="46.5671463" lon="12.4830095"><ele>1477.0</ele><time>2026-03-29T09:40:38.94Z</time></trkpt><trkpt lat="46.567255" lon="12.4831293"><ele>1478.5</ele><time>2026-03-29T09:40:39.928Z</time></trkpt><trkpt lat="46.5673642" lon="12.4832586"><ele>1480.0</ele><time>2026-03-29T09:40:40.941Z</time></trkpt><trkpt lat="46.567474" lon="12.4833932"><ele>1481.5</ele><time>2026-03-29T09:40:41.947Z</time></trkpt><trkpt lat="46.5675803" lon="12.4835382"><ele>1483.0</ele><time>2026-03-29T09:40:42.945Z</time></trkpt><trkpt lat="46.5676869" lon="12.4836787"><ele>1483.75</ele><time>2026-03-29T09:40:43.926Z</time></trkpt><trkpt lat="46.5677901" lon="12.4838127"><ele>1484.5</ele><time>2026-03-29T09:40:44.934Z</time></trkpt><trkpt lat="46.5678923" lon="12.4839386"><ele>1485.25</ele><time>2026-03-29T09:40:45.922Z</time></trkpt><trkpt lat="46.567992" lon="12.4840586"><ele>1486.0</ele><time>2026-03-29T09:40:46.933Z</time></trkpt><trkpt lat="46.5680907" lon="12.4841744"><ele>1486.0</ele><time>2026-03-29T09:40:47.944Z</time></trkpt><trkpt lat="46.5681829" lon="12.4842973"><ele>1486.0</ele><time>2026-03-29T09:40:48.927Z</time></trkpt><trkpt lat="46.5682858" lon="12.4844047"><ele>1486.0</ele><time>2026-03-29T09:40:49.941Z</time></trkpt><trkpt lat="46.568395" lon="12.484513"><ele>1486.0</ele><time>2026-03-29T09:40:50.929Z</time></trkpt><trkpt lat="46.5685162" lon="12.4845961"><ele>1484.0</ele><time>2026-03-29T09:40:51.939Z</time></trkpt><trkpt lat="46.568638" lon="12.4846604"><ele>1482.0</ele><time>2026-03-29T09:40:52.936Z</time></trkpt><trkpt lat="46.5687545" lon="12.4847103"><ele>1480.0</ele><time>2026-03-29T09:40:53.929Z</time></trkpt><trkpt lat="46.5688631" lon="12.4847551"><ele>1478.0</ele><time>2026-03-29T09:40:54.934Z</time></trkpt><trkpt lat="46.5689653" lon="12.4847938"><ele>1478.0</ele><time>2026-03-29T09:40:55.934Z</time></trkpt><trkpt lat="46.5690631" lon="12.4848298"><ele>1478.0</ele><time>2026-03-29T09:40:56.935Z</time></trkpt><trkpt lat="46.5691635" lon="12.4848414"><ele>1478.0</ele><time>2026-03-29T09:40:57.946Z</time></trkpt><trkpt lat="46.5692632" lon="12.4848395"><ele>1478.0</ele><time>2026-03-29T09:40:58.933Z</time></trkpt><trkpt lat="46.5693607" lon="12.4848333"><ele>1478.0</ele><time>2026-03-29T09:40:59.935Z</time></trkpt><trkpt lat="46.5694635" lon="12.4848002"><ele>1478.25</ele><time>2026-03-29T09:41:00.928Z</time></trkpt><trkpt lat="46.5695709" lon="12.4847565"><ele>1478.5</ele><time>2026-03-29T09:41:01.951Z</time></trkpt><trkpt lat="46.5696812" lon="12.4847075"><ele>1478.75</ele><time>2026-03-29T09:41:02.937Z</time></trkpt><trkpt lat="46.5697916" lon="12.4846515"><ele>1479.0</ele><time>2026-03-29T09:41:03.923Z</time></trkpt><trkpt lat="46.5699067" lon="12.4845814"><ele>1481.0</ele><time>2026-03-29T09:41:04.93Z</time></trkpt><trkpt lat="46.5700314" lon="12.4844941"><ele>1483.0</ele><time>2026-03-29T09:41:05.939Z</time></trkpt><trkpt lat="46.570165" lon="12.484377"><ele>1485.0</ele><time>2026-03-29T09:41:06.925Z</time></trkpt><trkpt lat="46.5703002" lon="12.4842583"><ele>1482.0</ele><time>2026-03-29T09:41:07.942Z</time></trkpt><trkpt lat="46.5704303" lon="12.4841376"><ele>1479.0</ele><time>2026-03-29T09:41:08.927Z</time></trkpt><trkpt lat="46.5705597" lon="12.4840279"><ele>1476.0</ele><time>2026-03-29T09:41:09.935Z</time></trkpt><trkpt lat="46.5706834" lon="12.4839127"><ele>1476.0</ele><time>2026-03-29T09:41:10.93Z</time></trkpt><trkpt lat="46.5708079" lon="12.4837985"><ele>1476.0</ele><time>2026-03-29T09:41:11.93Z</time></trkpt><trkpt lat="46.5709371" lon="12.4836927"><ele>1476.0</ele><time>2026-03-29T09:41:12.947Z</time></trkpt><trkpt lat="46.5710633" lon="12.4835816"><ele>1476.0</ele><time>2026-03-29T09:41:13.925Z</time></trkpt><trkpt lat="46.5711887" lon="12.4834821"><ele>1477.75</ele><time>2026-03-29T09:41:14.935Z</time></trkpt><trkpt lat="46.5713124" lon="12.4833866"><ele>1479.5</ele><time>2026-03-29T09:41:15.925Z</time></trkpt><trkpt lat="46.5714279" lon="12.4832884"><ele>1481.25</ele><time>2026-03-29T09:41:16.941Z</time></trkpt><trkpt lat="46.5715359" lon="12.4831951"><ele>1483.0</ele><time>2026-03-29T09:41:17.924Z</time></trkpt><trkpt lat="46.5716348" lon="12.4831007"><ele>1483.0</ele><time>2026-03-29T09:41:18.935Z</time></trkpt><trkpt lat="46.5717011" lon="12.4829676"><ele>1483.0</ele><time>2026-03-29T09:41:19.932Z</time></trkpt><trkpt lat="46.5717785" lon="12.4828957"><ele>1483.0</ele><time>2026-03-29T09:41:20.933Z</time></trkpt><trkpt lat="46.5718303" lon="12.4828083"><ele>1483.0</ele><time>2026-03-29T09:41:21.932Z</time></trkpt><trkpt lat="46.5719011" lon="12.4827242"><ele>1483.0</ele><time>2026-03-29T09:41:23.928Z</time></trkpt><trkpt lat="46.5719534" lon="12.4826561"><ele>1483.0</ele><time>2026-03-29T09:41:25.931Z</time></trkpt><trkpt lat="46.5720183" lon="12.4825692"><ele>1482.2</ele><time>2026-03-29T09:41:27.933Z</time></trkpt><trkpt lat="46.5720677" lon="12.4824363"><ele>1481.4</ele><time>2026-03-29T09:41:29.954Z</time></trkpt><trkpt lat="46.5721337" lon="12.4822801"><ele>1480.6000000000001</ele><time>2026-03-29T09:41:31.935Z</time></trkpt><trkpt lat="46.5721649" lon="12.4821983"><ele>1479.8000000000002</ele><time>2026-03-29T09:41:32.937Z</time></trkpt><trkpt lat="46.572225" lon="12.4820761"><ele>1479.0</ele><time>2026-03-29T09:41:34.935Z</time></trkpt><trkpt lat="46.5722596" lon="12.4819656"><ele>1478.8333333333333</ele><time>2026-03-29T09:41:36.944Z</time></trkpt><trkpt lat="46.5723127" lon="12.4818757"><ele>1478.6666666666667</ele><time>2026-03-29T09:41:38.933Z</time></trkpt><trkpt lat="46.5723677" lon="12.4817449"><ele>1478.5</ele><time>2026-03-29T09:41:40.944Z</time></trkpt><trkpt lat="46.5724054" lon="12.4816619"><ele>1478.3333333333335</ele><time>2026-03-29T09:41:41.947Z</time></trkpt><trkpt lat="46.5724466" lon="12.481566"><ele>1478.1666666666667</ele><time>2026-03-29T09:41:42.933Z</time></trkpt><trkpt lat="46.5724917" lon="12.4814644"><ele>1478.0</ele><time>2026-03-29T09:41:43.945Z</time></trkpt><trkpt lat="46.5725329" lon="12.4813584"><ele>1478.8333333333335</ele><time>2026-03-29T09:41:44.939Z</time></trkpt><trkpt lat="46.5725803" lon="12.4812564"><ele>1479.6666666666667</ele><time>2026-03-29T09:41:45.936Z</time></trkpt><trkpt lat="46.5726245" lon="12.4811462"><ele>1480.5</ele><time>2026-03-29T09:41:46.94Z</time></trkpt><trkpt lat="46.5726788" lon="12.4810407"><ele>1481.3333333333333</ele><time>2026-03-29T09:41:47.94Z</time></trkpt><trkpt lat="46.5727479" lon="12.4809504"><ele>1482.1666666666665</ele><time>2026-03-29T09:41:48.953Z</time></trkpt><trkpt lat="46.5728206" lon="12.4808721"><ele>1483.0</ele><time>2026-03-29T09:41:49.945Z</time></trkpt><trkpt lat="46.5728995" lon="12.480811"><ele>1481.3333333333333</ele><time>2026-03-29T09:41:50.938Z</time></trkpt><trkpt lat="46.5729856" lon="12.4807698"><ele>1479.6666666666665</ele><time>2026-03-29T09:41:51.953Z</time></trkpt><trkpt lat="46.5730691" lon="12.480726"><ele>1478.0</ele><time>2026-03-29T09:41:52.938Z</time></trkpt><trkpt lat="46.5731542" lon="12.480703"><ele>1476.3333333333333</ele><time>2026-03-29T09:41:53.948Z</time></trkpt><trkpt lat="46.573241" lon="12.4806667"><ele>1474.6666666666667</ele><time>2026-03-29T09:41:54.939Z</time></trkpt><trkpt lat="46.5733339" lon="12.4806585"><ele>1473.0</ele><time>2026-03-29T09:41:55.944Z</time></trkpt><trkpt lat="46.5734301" lon="12.4806485"><ele>1473.0</ele><time>2026-03-29T09:41:56.939Z</time></trkpt><trkpt lat="46.5735316" lon="12.4806374"><ele>1473.0</ele><time>2026-03-29T09:41:57.945Z</time></trkpt><trkpt lat="46.5736377" lon="12.4806228"><ele>1473.0</ele><time>2026-03-29T09:41:58.951Z</time></trkpt><trkpt lat="46.5737414" lon="12.4806109"><ele>1473.0</ele><time>2026-03-29T09:41:59.959Z</time></trkpt><trkpt lat="46.573851" lon="12.4805915"><ele>1473.0</ele><time>2026-03-29T09:42:00.949Z</time></trkpt><trkpt lat="46.5739599" lon="12.4805466"><ele>1472.0</ele><time>2026-03-29T09:42:01.952Z</time></trkpt><trkpt lat="46.5740775" lon="12.4804625"><ele>1471.0</ele><time>2026-03-29T09:42:02.942Z</time></trkpt><trkpt lat="46.5741834" lon="12.4803589"><ele>1470.0</ele><time>2026-03-29T09:42:03.954Z</time></trkpt><trkpt lat="46.5742465" lon="12.4802142"><ele>1469.0</ele><time>2026-03-29T09:42:04.936Z</time></trkpt><trkpt lat="46.5742921" lon="12.4800834"><ele>1469.0</ele><time>2026-03-29T09:42:05.955Z</time></trkpt><trkpt lat="46.5743199" lon="12.4799221"><ele>1469.0</ele><time>2026-03-29T09:42:06.944Z</time></trkpt><trkpt lat="46.5743415" lon="12.4797788"><ele>1469.0</ele><time>2026-03-29T09:42:07.94Z</time></trkpt><trkpt lat="46.5743438" lon="12.4796299"><ele>1469.0</ele><time>2026-03-29T09:42:08.945Z</time></trkpt><trkpt lat="46.5743821" lon="12.4795136"><ele>1469.0</ele><time>2026-03-29T09:42:09.929Z</time></trkpt><trkpt lat="46.5744353" lon="12.4794138"><ele>1469.4</ele><time>2026-03-29T09:42:10.948Z</time></trkpt><trkpt lat="46.5744843" lon="12.4793212"><ele>1469.8000000000002</ele><time>2026-03-29T09:42:11.945Z</time></trkpt><trkpt lat="46.5745674" lon="12.4792759"><ele>1470.1999999999998</ele><time>2026-03-29T09:42:12.934Z</time></trkpt><trkpt lat="46.5746477" lon="12.479241"><ele>1470.6</ele><time>2026-03-29T09:42:13.936Z</time></trkpt><trkpt lat="46.5747416" lon="12.4792301"><ele>1471.0</ele><time>2026-03-29T09:42:14.942Z</time></trkpt><trkpt lat="46.5748506" lon="12.4792363"><ele>1467.5</ele><time>2026-03-29T09:42:15.949Z</time></trkpt><trkpt lat="46.5749646" lon="12.4792358"><ele>1464.0</ele><time>2026-03-29T09:42:16.939Z</time></trkpt><trkpt lat="46.5750901" lon="12.4792337"><ele>1460.5</ele><time>2026-03-29T09:42:17.947Z</time></trkpt><trkpt lat="46.5752176" lon="12.4792453"><ele>1457.0</ele><time>2026-03-29T09:42:18.962Z</time></trkpt><trkpt lat="46.5753448" lon="12.4792748"><ele>1457.75</ele><time>2026-03-29T09:42:19.967Z</time></trkpt><trkpt lat="46.5754707" lon="12.4793256"><ele>1458.5</ele><time>2026-03-29T09:42:20.945Z</time></trkpt><trkpt lat="46.5755971" lon="12.4793914"><ele>1459.25</ele><time>2026-03-29T09:42:21.94Z</time></trkpt><trkpt lat="46.5757142" lon="12.479492"><ele>1460.0</ele><time>2026-03-29T09:42:22.944Z</time></trkpt><trkpt lat="46.5758229" lon="12.479612"><ele>1455.5</ele><time>2026-03-29T09:42:23.935Z</time></trkpt><trkpt lat="46.575932" lon="12.479721"><ele>1451.0</ele><time>2026-03-29T09:42:24.937Z</time></trkpt><trkpt lat="46.576045" lon="12.4798217"><ele>1446.5</ele><time>2026-03-29T09:42:25.954Z</time></trkpt><trkpt lat="46.5761709" lon="12.4799031"><ele>1442.0</ele><time>2026-03-29T09:42:26.941Z</time></trkpt><trkpt lat="46.5763069" lon="12.4799455"><ele>1441.25</ele><time>2026-03-29T09:42:27.941Z</time></trkpt><trkpt lat="46.5764499" lon="12.4799653"><ele>1440.5</ele><time>2026-03-29T09:42:28.939Z</time></trkpt><trkpt lat="46.5765934" lon="12.4799752"><ele>1439.75</ele><time>2026-03-29T09:42:29.946Z</time></trkpt><trkpt lat="46.5767362" lon="12.4799961"><ele>1439.0</ele><time>2026-03-29T09:42:30.938Z</time></trkpt><trkpt lat="46.5768775" lon="12.4800149"><ele>1438.25</ele><time>2026-03-29T09:42:31.966Z</time></trkpt><trkpt lat="46.5770195" lon="12.4800302"><ele>1437.5</ele><time>2026-03-29T09:42:32.952Z</time></trkpt><trkpt lat="46.5771598" lon="12.4800403"><ele>1436.75</ele><time>2026-03-29T09:42:33.953Z</time></trkpt><trkpt lat="46.5772987" lon="12.4800593"><ele>1436.0</ele><time>2026-03-29T09:42:34.954Z</time></trkpt><trkpt lat="46.577439" lon="12.4800684"><ele>1436.0</ele><time>2026-03-29T09:42:35.939Z</time></trkpt><trkpt lat="46.5775847" lon="12.4800495"><ele>1436.0</ele><time>2026-03-29T09:42:36.953Z</time></trkpt><trkpt lat="46.5777297" lon="12.4800066"><ele>1436.0</ele><time>2026-03-29T09:42:37.967Z</time></trkpt><trkpt lat="46.5778703" lon="12.4799509"><ele>1436.0</ele><time>2026-03-29T09:42:38.947Z</time></trkpt><trkpt lat="46.5780149" lon="12.479902"><ele>1431.0</ele><time>2026-03-29T09:42:39.948Z</time></trkpt><trkpt lat="46.578162" lon="12.4798532"><ele>1426.0</ele><time>2026-03-29T09:42:40.959Z</time></trkpt><trkpt lat="46.5783034" lon="12.4797865"><ele>1421.0</ele><time>2026-03-29T09:42:41.954Z</time></trkpt><trkpt lat="46.5784519" lon="12.4797468"><ele>1421.0</ele><time>2026-03-29T09:42:42.942Z</time></trkpt><trkpt lat="46.578594" lon="12.479688"><ele>1421.0</ele><time>2026-03-29T09:42:43.949Z</time></trkpt><trkpt lat="46.5787362" lon="12.47964"><ele>1421.0</ele><time>2026-03-29T09:42:44.948Z</time></trkpt><trkpt lat="46.5788872" lon="12.4796381"><ele>1421.0</ele><time>2026-03-29T09:42:45.946Z</time></trkpt><trkpt lat="46.5790429" lon="12.4796295"><ele>1420.3333333333335</ele><time>2026-03-29T09:42:46.951Z</time></trkpt><trkpt lat="46.5792043" lon="12.4796581"><ele>1419.6666666666667</ele><time>2026-03-29T09:42:47.951Z</time></trkpt><trkpt lat="46.5793692" lon="12.4796974"><ele>1419.0</ele><time>2026-03-29T09:42:48.952Z</time></trkpt><trkpt lat="46.5795346" lon="12.4797332"><ele>1419.0</ele><time>2026-03-29T09:42:49.959Z</time></trkpt><trkpt lat="46.5796955" lon="12.4797628"><ele>1419.0</ele><time>2026-03-29T09:42:50.948Z</time></trkpt><trkpt lat="46.5798528" lon="12.4797608"><ele>1419.0</ele><time>2026-03-29T09:42:51.959Z</time></trkpt><trkpt lat="46.58" lon="12.4797396"><ele>1419.0</ele><time>2026-03-29T09:42:52.945Z</time></trkpt><trkpt lat="46.5801482" lon="12.4797213"><ele>1419.0</ele><time>2026-03-29T09:42:53.943Z</time></trkpt><trkpt lat="46.5802932" lon="12.479678"><ele>1419.0</ele><time>2026-03-29T09:42:54.942Z</time></trkpt><trkpt lat="46.5804401" lon="12.479635"><ele>1419.0</ele><time>2026-03-29T09:42:55.963Z</time></trkpt><trkpt lat="46.5805882" lon="12.4795858"><ele>1425.3333333333333</ele><time>2026-03-29T09:42:56.946Z</time></trkpt><trkpt lat="46.5807385" lon="12.4795542"><ele>1431.6666666666665</ele><time>2026-03-29T09:42:57.964Z</time></trkpt><trkpt lat="46.5808906" lon="12.4795265"><ele>1438.0</ele><time>2026-03-29T09:42:58.941Z</time></trkpt><trkpt lat="46.5810417" lon="12.4795168"><ele>1436.6666666666665</ele><time>2026-03-29T09:42:59.948Z</time></trkpt><trkpt lat="46.5811922" lon="12.4795919"><ele>1435.3333333333333</ele><time>2026-03-29T09:43:00.944Z</time></trkpt><trkpt lat="46.5813464" lon="12.4796317"><ele>1434.0</ele><time>2026-03-29T09:43:01.95Z</time></trkpt><trkpt lat="46.5814989" lon="12.4796754"><ele>1425.0</ele><time>2026-03-29T09:43:02.957Z</time></trkpt><trkpt lat="46.5816571" lon="12.4797047"><ele>1416.0</ele><time>2026-03-29T09:43:03.952Z</time></trkpt><trkpt lat="46.5818268" lon="12.4796923"><ele>1407.0</ele><time>2026-03-29T09:43:04.948Z</time></trkpt><trkpt lat="46.5819879" lon="12.4796842"><ele>1404.0</ele><time>2026-03-29T09:43:05.958Z</time></trkpt><trkpt lat="46.5821592" lon="12.4796457"><ele>1401.0</ele><time>2026-03-29T09:43:06.94Z</time></trkpt><trkpt lat="46.5823245" lon="12.4795964"><ele>1398.0</ele><time>2026-03-29T09:43:07.951Z</time></trkpt><trkpt lat="46.5824804" lon="12.4795598"><ele>1401.6666666666667</ele><time>2026-03-29T09:43:08.95Z</time></trkpt><trkpt lat="46.5826303" lon="12.4795571"><ele>1405.3333333333335</ele><time>2026-03-29T09:43:09.944Z</time></trkpt><trkpt lat="46.5827813" lon="12.4795611"><ele>1409.0</ele><time>2026-03-29T09:43:10.94Z</time></trkpt><trkpt lat="46.5829433" lon="12.4795954"><ele>1409.0</ele><time>2026-03-29T09:43:11.943Z</time></trkpt><trkpt lat="46.5831049" lon="12.4795894"><ele>1409.0</ele><time>2026-03-29T09:43:12.937Z</time></trkpt><trkpt lat="46.5832656" lon="12.4795413"><ele>1409.0</ele><time>2026-03-29T09:43:13.95Z</time></trkpt><trkpt lat="46.5834179" lon="12.4794795"><ele>1409.0</ele><time>2026-03-29T09:43:14.938Z</time></trkpt><trkpt lat="46.5835674" lon="12.4794924"><ele>1409.0</ele><time>2026-03-29T09:43:15.941Z</time></trkpt><trkpt lat="46.5837202" lon="12.4794827"><ele>1409.0</ele><time>2026-03-29T09:43:16.947Z</time></trkpt><trkpt lat="46.5838768" lon="12.4794706"><ele>1403.6666666666667</ele><time>2026-03-29T09:43:17.957Z</time></trkpt><trkpt lat="46.5840308" lon="12.4794754"><ele>1398.3333333333333</ele><time>2026-03-29T09:43:18.932Z</time></trkpt><trkpt lat="46.5841766" lon="12.479526"><ele>1393.0</ele><time>2026-03-29T09:43:19.951Z</time></trkpt><trkpt lat="46.584323" lon="12.4796117"><ele>1390.75</ele><time>2026-03-29T09:43:20.952Z</time></trkpt><trkpt lat="46.5844548" lon="12.4796672"><ele>1388.5</ele><time>2026-03-29T09:43:21.944Z</time></trkpt><trkpt lat="46.5845684" lon="12.4797891"><ele>1386.25</ele><time>2026-03-29T09:43:22.939Z</time></trkpt><trkpt lat="46.5846755" lon="12.4799244"><ele>1384.0</ele><time>2026-03-29T09:43:23.954Z</time></trkpt><trkpt lat="46.5847667" lon="12.4800864"><ele>1384.0</ele><time>2026-03-29T09:43:24.939Z</time></trkpt><trkpt lat="46.5848636" lon="12.4802536"><ele>1384.0</ele><time>2026-03-29T09:43:25.955Z</time></trkpt><trkpt lat="46.5849677" lon="12.4804257"><ele>1384.0</ele><time>2026-03-29T09:43:26.947Z</time></trkpt><trkpt lat="46.5850705" lon="12.4805961"><ele>1382.0</ele><time>2026-03-29T09:43:27.949Z</time></trkpt><trkpt lat="46.5851648" lon="12.4807658"><ele>1380.0</ele><time>2026-03-29T09:43:28.941Z</time></trkpt><trkpt lat="46.5852508" lon="12.4809441"><ele>1378.0</ele><time>2026-03-29T09:43:29.935Z</time></trkpt><trkpt lat="46.585329" lon="12.4811306"><ele>1377.75</ele><time>2026-03-29T09:43:30.932Z</time></trkpt><trkpt lat="46.5854011" lon="12.4813"><ele>1377.5</ele><time>2026-03-29T09:43:31.932Z</time></trkpt><trkpt lat="46.5854588" lon="12.4814617"><ele>1377.25</ele><time>2026-03-29T09:43:32.964Z</time></trkpt><trkpt lat="46.5855317" lon="12.4816019"><ele>1377.0</ele><time>2026-03-29T09:43:33.954Z</time></trkpt><trkpt lat="46.585626" lon="12.4817124"><ele>1377.0</ele><time>2026-03-29T09:43:34.929Z</time></trkpt><trkpt lat="46.5857229" lon="12.4818091"><ele>1377.0</ele><time>2026-03-29T09:43:35.927Z</time></trkpt><trkpt lat="46.5858222" lon="12.4818857"><ele>1377.0</ele><time>2026-03-29T09:43:36.928Z</time></trkpt><trkpt lat="46.5859424" lon="12.4819069"><ele>1377.0</ele><time>2026-03-29T09:43:37.936Z</time></trkpt><trkpt lat="46.5860447" lon="12.4819553"><ele>1377.0</ele><time>2026-03-29T09:43:38.936Z</time></trkpt><trkpt lat="46.5861429" lon="12.4819558"><ele>1377.0</ele><time>2026-03-29T09:43:39.934Z</time></trkpt><trkpt lat="46.58624" lon="12.4819606"><ele>1377.0</ele><time>2026-03-29T09:43:40.927Z</time></trkpt><trkpt lat="46.5863387" lon="12.4819851"><ele>1377.0</ele><time>2026-03-29T09:43:41.924Z</time></trkpt><trkpt lat="46.5864364" lon="12.4820022"><ele>1377.0</ele><time>2026-03-29T09:43:42.934Z</time></trkpt><trkpt lat="46.586524" lon="12.4820197"><ele>1376.5</ele><time>2026-03-29T09:43:43.929Z</time></trkpt><trkpt lat="46.5865989" lon="12.4820495"><ele>1376.0</ele><time>2026-03-29T09:43:44.949Z</time></trkpt><trkpt lat="46.586655" lon="12.4821074"><ele>1375.5</ele><time>2026-03-29T09:43:45.949Z</time></trkpt><trkpt lat="46.5866885" lon="12.4821977"><ele>1375.0</ele><time>2026-03-29T09:43:46.936Z</time></trkpt><trkpt lat="46.5866668" lon="12.4823172"><ele>1374.5</ele><time>2026-03-29T09:43:47.937Z</time></trkpt><trkpt lat="46.5866197" lon="12.4824162"><ele>1374.0</ele><time>2026-03-29T09:43:48.919Z</time></trkpt><trkpt lat="46.5865652" lon="12.4825106"><ele>1371.8000000000002</ele><time>2026-03-29T09:43:49.942Z</time></trkpt><trkpt lat="46.5865199" lon="12.4826429"><ele>1369.6000000000001</ele><time>2026-03-29T09:43:50.927Z</time></trkpt><trkpt lat="46.586505" lon="12.4827603"><ele>1367.4</ele><time>2026-03-29T09:43:51.928Z</time></trkpt><trkpt lat="46.5864989" lon="12.4829131"><ele>1365.2</ele><time>2026-03-29T09:43:53.931Z</time></trkpt><trkpt lat="46.5864722" lon="12.4830086"><ele>1363.0</ele><time>2026-03-29T09:43:55.932Z</time></trkpt><trkpt lat="46.5864808" lon="12.4831431"><ele>1359.1666666666665</ele><time>2026-03-29T09:43:58.934Z</time></trkpt><trkpt lat="46.5865581" lon="12.4832114"><ele>1355.3333333333333</ele><time>2026-03-29T09:44:00.933Z</time></trkpt><trkpt lat="46.5866153" lon="12.4832507"><ele>1351.5</ele><time>2026-03-29T09:44:01.933Z</time></trkpt><trkpt lat="46.5866857" lon="12.4832887"><ele>1347.6666666666667</ele><time>2026-03-29T09:44:02.926Z</time></trkpt><trkpt lat="46.5867558" lon="12.4832764"><ele>1343.8333333333335</ele><time>2026-03-29T09:44:03.939Z</time></trkpt><trkpt lat="46.5868297" lon="12.4832361"><ele>1340.0</ele><time>2026-03-29T09:44:04.938Z</time></trkpt><trkpt lat="46.5869247" lon="12.4832023"><ele>1343.0</ele><time>2026-03-29T09:44:05.941Z</time></trkpt><trkpt lat="46.5870513" lon="12.4831339"><ele>1346.0</ele><time>2026-03-29T09:44:06.947Z</time></trkpt><trkpt lat="46.5871542" lon="12.4830783"><ele>1349.0</ele><time>2026-03-29T09:44:07.934Z</time></trkpt><trkpt lat="46.5872832" lon="12.4830223"><ele>1352.0</ele><time>2026-03-29T09:44:08.953Z</time></trkpt><trkpt lat="46.5874479" lon="12.4829239"><ele>1352.0</ele><time>2026-03-29T09:44:09.965Z</time></trkpt><trkpt lat="46.5875831" lon="12.4828513"><ele>1352.0</ele><time>2026-03-29T09:44:10.952Z</time></trkpt><trkpt lat="46.5877463" lon="12.4827635"><ele>1352.0</ele><time>2026-03-29T09:44:11.93Z</time></trkpt><trkpt lat="46.5879199" lon="12.4827099"><ele>1346.75</ele><time>2026-03-29T09:44:12.949Z</time></trkpt><trkpt lat="46.5880542" lon="12.4826238"><ele>1341.5</ele><time>2026-03-29T09:44:13.942Z</time></trkpt><trkpt lat="46.5881958" lon="12.4826124"><ele>1336.25</ele><time>2026-03-29T09:44:14.929Z</time></trkpt><trkpt lat="46.5883334" lon="12.4825798"><ele>1331.0</ele><time>2026-03-29T09:44:15.938Z</time></trkpt><trkpt lat="46.5884778" lon="12.4825348"><ele>1331.0</ele><time>2026-03-29T09:44:16.933Z</time></trkpt><trkpt lat="46.5886283" lon="12.4824923"><ele>1331.0</ele><time>2026-03-29T09:44:17.944Z</time></trkpt><trkpt lat="46.5887675" lon="12.4824626"><ele>1331.0</ele><time>2026-03-29T09:44:18.951Z</time></trkpt><trkpt lat="46.5888962" lon="12.48243"><ele>1331.0</ele><time>2026-03-29T09:44:19.944Z</time></trkpt><trkpt lat="46.5890117" lon="12.4823944"><ele>1328.0</ele><time>2026-03-29T09:44:20.951Z</time></trkpt><trkpt lat="46.589121" lon="12.4823583"><ele>1325.0</ele><time>2026-03-29T09:44:21.94Z</time></trkpt><trkpt lat="46.5892269" lon="12.4823254"><ele>1322.0</ele><time>2026-03-29T09:44:22.945Z</time></trkpt><trkpt lat="46.5893317" lon="12.4822835"><ele>1319.0</ele><time>2026-03-29T09:44:23.933Z</time></trkpt><trkpt lat="46.5894343" lon="12.4822478"><ele>1316.0</ele><time>2026-03-29T09:44:24.921Z</time></trkpt><trkpt lat="46.5895401" lon="12.4822073"><ele>1315.1999999999998</ele><time>2026-03-29T09:44:25.95Z</time></trkpt><trkpt lat="46.5896512" lon="12.4821841"><ele>1314.3999999999999</ele><time>2026-03-29T09:44:26.93Z</time></trkpt><trkpt lat="46.5897555" lon="12.4822153"><ele>1313.6</ele><time>2026-03-29T09:44:27.954Z</time></trkpt><trkpt lat="46.589846" lon="12.4822951"><ele>1312.8</ele><time>2026-03-29T09:44:28.938Z</time></trkpt><trkpt lat="46.5899354" lon="12.4823671"><ele>1312.0</ele><time>2026-03-29T09:44:29.93Z</time></trkpt><trkpt lat="46.5900291" lon="12.4824256"><ele>1312.0</ele><time>2026-03-29T09:44:30.927Z</time></trkpt><trkpt lat="46.5901157" lon="12.4824906"><ele>1312.0</ele><time>2026-03-29T09:44:31.93Z</time></trkpt><trkpt lat="46.590206" lon="12.4825275"><ele>1312.0</ele><time>2026-03-29T09:44:32.927Z</time></trkpt><trkpt lat="46.5903043" lon="12.4825191"><ele>1312.0</ele><time>2026-03-29T09:44:33.942Z</time></trkpt><trkpt lat="46.5904002" lon="12.4824952"><ele>1312.0</ele><time>2026-03-29T09:44:34.934Z</time></trkpt><trkpt lat="46.5904976" lon="12.482458"><ele>1311.8</ele><time>2026-03-29T09:44:35.935Z</time></trkpt><trkpt lat="46.5905956" lon="12.4824235"><ele>1311.6</ele><time>2026-03-29T09:44:36.947Z</time></trkpt><trkpt lat="46.5906948" lon="12.4823808"><ele>1311.3999999999999</ele><time>2026-03-29T09:44:37.925Z</time></trkpt><trkpt lat="46.5907989" lon="12.4823405"><ele>1311.1999999999998</ele><time>2026-03-29T09:44:38.931Z</time></trkpt><trkpt lat="46.5909047" lon="12.4822867"><ele>1311.0</ele><time>2026-03-29T09:44:39.943Z</time></trkpt><trkpt lat="46.5910047" lon="12.4822073"><ele>1311.0</ele><time>2026-03-29T09:44:40.929Z</time></trkpt><trkpt lat="46.5911041" lon="12.4821388"><ele>1311.0</ele><time>2026-03-29T09:44:41.934Z</time></trkpt><trkpt lat="46.5912172" lon="12.4820752"><ele>1311.0</ele><time>2026-03-29T09:44:42.933Z</time></trkpt><trkpt lat="46.591332" lon="12.482044"><ele>1311.0</ele><time>2026-03-29T09:44:43.958Z</time></trkpt><trkpt lat="46.5914506" lon="12.4820321"><ele>1310.25</ele><time>2026-03-29T09:44:44.951Z</time></trkpt><trkpt lat="46.5915566" lon="12.4820726"><ele>1309.5</ele><time>2026-03-29T09:44:45.947Z</time></trkpt><trkpt lat="46.5916677" lon="12.4821178"><ele>1308.75</ele><time>2026-03-29T09:44:46.926Z</time></trkpt><trkpt lat="46.5917805" lon="12.4821506"><ele>1308.0</ele><time>2026-03-29T09:44:47.935Z</time></trkpt><trkpt lat="46.591895" lon="12.4821647"><ele>1308.0</ele><time>2026-03-29T09:44:48.927Z</time></trkpt><trkpt lat="46.5920084" lon="12.4821664"><ele>1308.0</ele><time>2026-03-29T09:44:49.933Z</time></trkpt><trkpt lat="46.5921173" lon="12.4821308"><ele>1308.0</ele><time>2026-03-29T09:44:50.928Z</time></trkpt><trkpt lat="46.5922279" lon="12.482084"><ele>1308.0</ele><time>2026-03-29T09:44:51.95Z</time></trkpt><trkpt lat="46.5923371" lon="12.4820239"><ele>1308.0</ele><time>2026-03-29T09:44:52.953Z</time></trkpt><trkpt lat="46.5924479" lon="12.4819589"><ele>1308.0</ele><time>2026-03-29T09:44:53.952Z</time></trkpt><trkpt lat="46.5925507" lon="12.4818816"><ele>1308.0</ele><time>2026-03-29T09:44:54.927Z</time></trkpt><trkpt lat="46.5926475" lon="12.4817713"><ele>1308.0</ele><time>2026-03-29T09:44:55.955Z</time></trkpt><trkpt lat="46.5927492" lon="12.4816374"><ele>1306.25</ele><time>2026-03-29T09:44:56.933Z</time></trkpt><trkpt lat="46.5928561" lon="12.481512"><ele>1304.5</ele><time>2026-03-29T09:44:57.96Z</time></trkpt><trkpt lat="46.592976" lon="12.481381"><ele>1302.75</ele><time>2026-03-29T09:44:58.929Z</time></trkpt><trkpt lat="46.5930906" lon="12.4812542"><ele>1301.0</ele><time>2026-03-29T09:44:59.927Z</time></trkpt><trkpt lat="46.5932114" lon="12.4811238"><ele>1301.0</ele><time>2026-03-29T09:45:00.92Z</time></trkpt><trkpt lat="46.5933392" lon="12.4810085"><ele>1301.0</ele><time>2026-03-29T09:45:01.937Z</time></trkpt><trkpt lat="46.593488" lon="12.4809396"><ele>1301.0</ele><time>2026-03-29T09:45:02.929Z</time></trkpt><trkpt lat="46.5936373" lon="12.4809015"><ele>1298.0</ele><time>2026-03-29T09:45:03.953Z</time></trkpt><trkpt lat="46.5937838" lon="12.4808875"><ele>1295.0</ele><time>2026-03-29T09:45:04.937Z</time></trkpt><trkpt lat="46.5939318" lon="12.4808943"><ele>1292.0</ele><time>2026-03-29T09:45:05.927Z</time></trkpt><trkpt lat="46.5940817" lon="12.4809036"><ele>1289.0</ele><time>2026-03-29T09:45:06.922Z</time></trkpt><trkpt lat="46.5942309" lon="12.4809094"><ele>1289.0</ele><time>2026-03-29T09:45:07.93Z</time></trkpt><trkpt lat="46.5943764" lon="12.4808997"><ele>1289.0</ele><time>2026-03-29T09:45:08.931Z</time></trkpt><trkpt lat="46.5945122" lon="12.480873"><ele>1289.0</ele><time>2026-03-29T09:45:09.97Z</time></trkpt><trkpt lat="46.5946407" lon="12.4808272"><ele>1289.0</ele><time>2026-03-29T09:45:10.958Z</time></trkpt><trkpt lat="46.5947667" lon="12.480777"><ele>1286.0</ele><time>2026-03-29T09:45:11.948Z</time></trkpt><trkpt lat="46.59489" lon="12.4807288"><ele>1283.0</ele><time>2026-03-29T09:45:12.95Z</time></trkpt><trkpt lat="46.5950048" lon="12.4806669"><ele>1280.0</ele><time>2026-03-29T09:45:13.943Z</time></trkpt><trkpt lat="46.5951156" lon="12.4806029"><ele>1277.0</ele><time>2026-03-29T09:45:14.935Z</time></trkpt><trkpt lat="46.5952214" lon="12.4805221"><ele>1277.0</ele><time>2026-03-29T09:45:15.96Z</time></trkpt><trkpt lat="46.5953286" lon="12.480444"><ele>1277.0</ele><time>2026-03-29T09:45:16.951Z</time></trkpt><trkpt lat="46.5954468" lon="12.4803763"><ele>1277.0</ele><time>2026-03-29T09:45:17.945Z</time></trkpt><trkpt lat="46.5955703" lon="12.4803065"><ele>1277.0</ele><time>2026-03-29T09:45:18.936Z</time></trkpt><trkpt lat="46.5956908" lon="12.4802098"><ele>1276.5</ele><time>2026-03-29T09:45:19.933Z</time></trkpt><trkpt lat="46.5958062" lon="12.4801224"><ele>1276.0</ele><time>2026-03-29T09:45:20.945Z</time></trkpt><trkpt lat="46.5959277" lon="12.4800522"><ele>1275.5</ele><time>2026-03-29T09:45:21.935Z</time></trkpt><trkpt lat="46.5960478" lon="12.4799925"><ele>1275.0</ele><time>2026-03-29T09:45:22.938Z</time></trkpt><trkpt lat="46.5961711" lon="12.4799314"><ele>1273.75</ele><time>2026-03-29T09:45:23.954Z</time></trkpt><trkpt lat="46.5962954" lon="12.4798469"><ele>1272.5</ele><time>2026-03-29T09:45:24.941Z</time></trkpt><trkpt lat="46.5964209" lon="12.4797743"><ele>1271.25</ele><time>2026-03-29T09:45:25.948Z</time></trkpt><trkpt lat="46.5965289" lon="12.4796637"><ele>1270.0</ele><time>2026-03-29T09:45:26.942Z</time></trkpt><trkpt lat="46.5966344" lon="12.479558"><ele>1270.0</ele><time>2026-03-29T09:45:27.951Z</time></trkpt><trkpt lat="46.5967415" lon="12.4794593"><ele>1270.0</ele><time>2026-03-29T09:45:28.964Z</time></trkpt><trkpt lat="46.5968595" lon="12.4793725"><ele>1270.0</ele><time>2026-03-29T09:45:29.949Z</time></trkpt><trkpt lat="46.5969821" lon="12.4793077"><ele>1270.0</ele><time>2026-03-29T09:45:30.95Z</time></trkpt><trkpt lat="46.5971057" lon="12.4792404"><ele>1264.5</ele><time>2026-03-29T09:45:31.958Z</time></trkpt><trkpt lat="46.5972206" lon="12.4791449"><ele>1259.0</ele><time>2026-03-29T09:45:32.942Z</time></trkpt><trkpt lat="46.5973361" lon="12.4790718"><ele>1253.5</ele><time>2026-03-29T09:45:33.964Z</time></trkpt><trkpt lat="46.5974425" lon="12.4789968"><ele>1248.0</ele><time>2026-03-29T09:45:34.95Z</time></trkpt><trkpt lat="46.5975399" lon="12.4789225"><ele>1248.0</ele><time>2026-03-29T09:45:35.948Z</time></trkpt><trkpt lat="46.5976226" lon="12.4788269"><ele>1248.0</ele><time>2026-03-29T09:45:36.944Z</time></trkpt><trkpt lat="46.5976909" lon="12.478703"><ele>1248.0</ele><time>2026-03-29T09:45:37.944Z</time></trkpt><trkpt lat="46.5977569" lon="12.4785651"><ele>1248.0</ele><time>2026-03-29T09:45:38.934Z</time></trkpt><trkpt lat="46.5978304" lon="12.4784205"><ele>1245.75</ele><time>2026-03-29T09:45:39.944Z</time></trkpt><trkpt lat="46.5978973" lon="12.4782648"><ele>1243.5</ele><time>2026-03-29T09:45:40.945Z</time></trkpt><trkpt lat="46.5979612" lon="12.4781037"><ele>1241.25</ele><time>2026-03-29T09:45:41.942Z</time></trkpt><trkpt lat="46.5980173" lon="12.4779414"><ele>1239.0</ele><time>2026-03-29T09:45:42.936Z</time></trkpt><trkpt lat="46.5980831" lon="12.4777881"><ele>1239.0</ele><time>2026-03-29T09:45:43.954Z</time></trkpt><trkpt lat="46.5981729" lon="12.4776622"><ele>1239.0</ele><time>2026-03-29T09:45:44.939Z</time></trkpt><trkpt lat="46.5982645" lon="12.4775562"><ele>1239.0</ele><time>2026-03-29T09:45:45.955Z</time></trkpt><trkpt lat="46.598357" lon="12.4774671"><ele>1239.0</ele><time>2026-03-29T09:45:46.965Z</time></trkpt><trkpt lat="46.5984646" lon="12.4774522"><ele>1239.0</ele><time>2026-03-29T09:45:47.951Z</time></trkpt><trkpt lat="46.5985756" lon="12.477486"><ele>1239.0</ele><time>2026-03-29T09:45:48.952Z</time></trkpt><trkpt lat="46.5986821" lon="12.4775293"><ele>1239.0</ele><time>2026-03-29T09:45:49.952Z</time></trkpt><trkpt lat="46.5987868" lon="12.4775584"><ele>1239.0</ele><time>2026-03-29T09:45:50.968Z</time></trkpt><trkpt lat="46.5988886" lon="12.47758"><ele>1239.0</ele><time>2026-03-29T09:45:51.947Z</time></trkpt><trkpt lat="46.5989928" lon="12.4775901"><ele>1238.6000000000001</ele><time>2026-03-29T09:45:52.946Z</time></trkpt><trkpt lat="46.5990927" lon="12.477609"><ele>1238.2</ele><time>2026-03-29T09:45:53.948Z</time></trkpt><trkpt lat="46.5991894" lon="12.4776399"><ele>1237.8000000000002</ele><time>2026-03-29T09:45:54.94Z</time></trkpt><trkpt lat="46.5992821" lon="12.4776768"><ele>1237.4</ele><time>2026-03-29T09:45:55.951Z</time></trkpt><trkpt lat="46.5993759" lon="12.4776926"><ele>1237.0</ele><time>2026-03-29T09:45:56.942Z</time></trkpt><trkpt lat="46.5994661" lon="12.4777302"><ele>1236.8</ele><time>2026-03-29T09:45:57.966Z</time></trkpt><trkpt lat="46.5995586" lon="12.477759"><ele>1236.6</ele><time>2026-03-29T09:45:58.953Z</time></trkpt><trkpt lat="46.599649" lon="12.4777809"><ele>1236.3999999999999</ele><time>2026-03-29T09:45:59.945Z</time></trkpt><trkpt lat="46.5997316" lon="12.4778245"><ele>1236.2</ele><time>2026-03-29T09:46:00.941Z</time></trkpt><trkpt lat="46.5998152" lon="12.4778696"><ele>1236.0</ele><time>2026-03-29T09:46:01.94Z</time></trkpt><trkpt lat="46.5999033" lon="12.4779139"><ele>1235.2</ele><time>2026-03-29T09:46:02.939Z</time></trkpt><trkpt lat="46.5999872" lon="12.4779817"><ele>1234.3999999999999</ele><time>2026-03-29T09:46:03.933Z</time></trkpt><trkpt lat="46.6000687" lon="12.4780443"><ele>1233.6</ele><time>2026-03-29T09:46:04.94Z</time></trkpt><trkpt lat="46.6001465" lon="12.4781083"><ele>1232.8</ele><time>2026-03-29T09:46:05.959Z</time></trkpt><trkpt lat="46.6002276" lon="12.4781661"><ele>1232.0</ele><time>2026-03-29T09:46:06.924Z</time></trkpt><trkpt lat="46.6003096" lon="12.4782204"><ele>1231.0</ele><time>2026-03-29T09:46:07.916Z</time></trkpt><trkpt lat="46.600391" lon="12.4782742"><ele>1230.0</ele><time>2026-03-29T09:46:08.925Z</time></trkpt><trkpt lat="46.6004708" lon="12.478334"><ele>1229.0</ele><time>2026-03-29T09:46:09.931Z</time></trkpt><trkpt lat="46.6005586" lon="12.4783755"><ele>1228.0</ele><time>2026-03-29T09:46:10.93Z</time></trkpt><trkpt lat="46.6006391" lon="12.4784398"><ele>1227.0</ele><time>2026-03-29T09:46:11.93Z</time></trkpt><trkpt lat="46.6007229" lon="12.478494"><ele>1227.0</ele><time>2026-03-29T09:46:12.938Z</time></trkpt><trkpt lat="46.6008016" lon="12.4785502"><ele>1227.0</ele><time>2026-03-29T09:46:13.921Z</time></trkpt><trkpt lat="46.6008819" lon="12.4786068"><ele>1227.0</ele><time>2026-03-29T09:46:14.931Z</time></trkpt><trkpt lat="46.6009628" lon="12.4786667"><ele>1227.0</ele><time>2026-03-29T09:46:15.931Z</time></trkpt><trkpt lat="46.6010465" lon="12.4787242"><ele>1227.0</ele><time>2026-03-29T09:46:16.936Z</time></trkpt><trkpt lat="46.6011261" lon="12.4787866"><ele>1225.6666666666667</ele><time>2026-03-29T09:46:17.94Z</time></trkpt><trkpt lat="46.6012059" lon="12.4788478"><ele>1224.3333333333333</ele><time>2026-03-29T09:46:18.931Z</time></trkpt><trkpt lat="46.6012847" lon="12.478905"><ele>1223.0</ele><time>2026-03-29T09:46:19.934Z</time></trkpt><trkpt lat="46.6013673" lon="12.4789545"><ele>1221.6666666666665</ele><time>2026-03-29T09:46:20.927Z</time></trkpt><trkpt lat="46.6014452" lon="12.4790073"><ele>1220.3333333333333</ele><time>2026-03-29T09:46:21.923Z</time></trkpt><trkpt lat="46.6015271" lon="12.4790491"><ele>1219.0</ele><time>2026-03-29T09:46:22.939Z</time></trkpt><trkpt lat="46.6016016" lon="12.4791057"><ele>1219.0</ele><time>2026-03-29T09:46:23.927Z</time></trkpt><trkpt lat="46.6016757" lon="12.4791625"><ele>1219.0</ele><time>2026-03-29T09:46:24.924Z</time></trkpt><trkpt lat="46.601752" lon="12.4792148"><ele>1219.0</ele><time>2026-03-29T09:46:25.934Z</time></trkpt><trkpt lat="46.6018308" lon="12.4792596"><ele>1219.0</ele><time>2026-03-29T09:46:26.926Z</time></trkpt><trkpt lat="46.6019084" lon="12.4793034"><ele>1219.0</ele><time>2026-03-29T09:46:27.939Z</time></trkpt><trkpt lat="46.601994" lon="12.4793192"><ele>1219.0</ele><time>2026-03-29T09:46:28.943Z</time></trkpt><trkpt lat="46.6020736" lon="12.4793461"><ele>1218.1666666666665</ele><time>2026-03-29T09:46:29.944Z</time></trkpt><trkpt lat="46.6021505" lon="12.479378"><ele>1217.3333333333333</ele><time>2026-03-29T09:46:30.927Z</time></trkpt><trkpt lat="46.6022259" lon="12.4794054"><ele>1216.5</ele><time>2026-03-29T09:46:31.929Z</time></trkpt><trkpt lat="46.6022991" lon="12.4794481"><ele>1215.6666666666667</ele><time>2026-03-29T09:46:32.946Z</time></trkpt><trkpt lat="46.6023749" lon="12.4794937"><ele>1214.8333333333335</ele><time>2026-03-29T09:46:33.943Z</time></trkpt><trkpt lat="46.6024539" lon="12.4795217"><ele>1214.0</ele><time>2026-03-29T09:46:34.935Z</time></trkpt><trkpt lat="46.6025239" lon="12.4795716"><ele>1214.0</ele><time>2026-03-29T09:46:35.935Z</time></trkpt><trkpt lat="46.6025919" lon="12.4796225"><ele>1214.0</ele><time>2026-03-29T09:46:36.955Z</time></trkpt><trkpt lat="46.6026626" lon="12.4796651"><ele>1214.0</ele><time>2026-03-29T09:46:37.959Z</time></trkpt><trkpt lat="46.6027378" lon="12.4796956"><ele>1214.0</ele><time>2026-03-29T09:46:38.929Z</time></trkpt><trkpt lat="46.602808" lon="12.4797395"><ele>1214.0</ele><time>2026-03-29T09:46:39.931Z</time></trkpt><trkpt lat="46.6028796" lon="12.4797796"><ele>1214.0</ele><time>2026-03-29T09:46:40.93Z</time></trkpt><trkpt lat="46.6029521" lon="12.4798193"><ele>1212.5</ele><time>2026-03-29T09:46:41.942Z</time></trkpt><trkpt lat="46.6030229" lon="12.4798629"><ele>1211.0</ele><time>2026-03-29T09:46:42.943Z</time></trkpt><trkpt lat="46.6030934" lon="12.4799115"><ele>1209.5</ele><time>2026-03-29T09:46:43.927Z</time></trkpt><trkpt lat="46.6031633" lon="12.4799557"><ele>1208.0</ele><time>2026-03-29T09:46:44.943Z</time></trkpt><trkpt lat="46.603233" lon="12.4799999"><ele>1206.5</ele><time>2026-03-29T09:46:45.933Z</time></trkpt><trkpt lat="46.6033018" lon="12.4800434"><ele>1205.0</ele><time>2026-03-29T09:46:46.927Z</time></trkpt><trkpt lat="46.6033692" lon="12.4800887"><ele>1205.0</ele><time>2026-03-29T09:46:47.947Z</time></trkpt><trkpt lat="46.6034376" lon="12.4801275"><ele>1205.0</ele><time>2026-03-29T09:46:48.935Z</time></trkpt><trkpt lat="46.6035075" lon="12.4801611"><ele>1205.0</ele><time>2026-03-29T09:46:49.939Z</time></trkpt><trkpt lat="46.6035768" lon="12.4801949"><ele>1205.0</ele><time>2026-03-29T09:46:50.926Z</time></trkpt><trkpt lat="46.6036517" lon="12.4802211"><ele>1205.0</ele><time>2026-03-29T09:46:51.925Z</time></trkpt><trkpt lat="46.6037339" lon="12.4802355"><ele>1205.0</ele><time>2026-03-29T09:46:52.941Z</time></trkpt><trkpt lat="46.6038221" lon="12.4802322"><ele>1205.0</ele><time>2026-03-29T09:46:53.931Z</time></trkpt><trkpt lat="46.603913" lon="12.4802256"><ele>1205.0</ele><time>2026-03-29T09:46:54.957Z</time></trkpt><trkpt lat="46.6040054" lon="12.4802077"><ele>1205.0</ele><time>2026-03-29T09:46:55.934Z</time></trkpt><trkpt lat="46.6040961" lon="12.480189"><ele>1205.0</ele><time>2026-03-29T09:46:56.915Z</time></trkpt><trkpt lat="46.6041861" lon="12.4801745"><ele>1205.0</ele><time>2026-03-29T09:46:57.934Z</time></trkpt><trkpt lat="46.604272" lon="12.4801636"><ele>1205.0</ele><time>2026-03-29T09:46:58.943Z</time></trkpt><trkpt lat="46.6043528" lon="12.4801453"><ele>1205.0</ele><time>2026-03-29T09:46:59.944Z</time></trkpt><trkpt lat="46.6044288" lon="12.4801163"><ele>1205.0</ele><time>2026-03-29T09:47:00.926Z</time></trkpt><trkpt lat="46.6044991" lon="12.4800871"><ele>1205.0</ele><time>2026-03-29T09:47:01.941Z</time></trkpt><trkpt lat="46.6045664" lon="12.4800673"><ele>1205.0</ele><time>2026-03-29T09:47:02.941Z</time></trkpt><trkpt lat="46.604633" lon="12.480062"><ele>1205.0</ele><time>2026-03-29T09:47:03.942Z</time></trkpt><trkpt lat="46.6046979" lon="12.4800481"><ele>1205.0</ele><time>2026-03-29T09:47:04.945Z</time></trkpt><trkpt lat="46.6047671" lon="12.4800369"><ele>1204.7142857142858</ele><time>2026-03-29T09:47:05.934Z</time></trkpt><trkpt lat="46.6048414" lon="12.4800194"><ele>1204.4285714285713</ele><time>2026-03-29T09:47:06.933Z</time></trkpt><trkpt lat="46.6049188" lon="12.4799985"><ele>1204.142857142857</ele><time>2026-03-29T09:47:07.931Z</time></trkpt><trkpt lat="46.6049924" lon="12.4799759"><ele>1203.857142857143</ele><time>2026-03-29T09:47:08.926Z</time></trkpt><trkpt lat="46.6050646" lon="12.4799594"><ele>1203.5714285714287</ele><time>2026-03-29T09:47:09.929Z</time></trkpt><trkpt lat="46.6051345" lon="12.4799396"><ele>1203.2857142857142</ele><time>2026-03-29T09:47:10.933Z</time></trkpt><trkpt lat="46.6052013" lon="12.4799128"><ele>1203.0</ele><time>2026-03-29T09:47:11.947Z</time></trkpt><trkpt lat="46.6052685" lon="12.479899"><ele>1202.857142857143</ele><time>2026-03-29T09:47:12.942Z</time></trkpt><trkpt lat="46.6053337" lon="12.4798855"><ele>1202.7142857142858</ele><time>2026-03-29T09:47:13.931Z</time></trkpt><trkpt lat="46.6053975" lon="12.4798691"><ele>1202.5714285714284</ele><time>2026-03-29T09:47:14.931Z</time></trkpt><trkpt lat="46.6054634" lon="12.4798474"><ele>1202.4285714285716</ele><time>2026-03-29T09:47:15.927Z</time></trkpt><trkpt lat="46.6055311" lon="12.4798222"><ele>1202.2857142857144</ele><time>2026-03-29T09:47:16.941Z</time></trkpt><trkpt lat="46.6055989" lon="12.4797886"><ele>1202.142857142857</ele><time>2026-03-29T09:47:17.943Z</time></trkpt><trkpt lat="46.6056742" lon="12.4797761"><ele>1202.0</ele><time>2026-03-29T09:47:18.932Z</time></trkpt><trkpt lat="46.6057513" lon="12.4797612"><ele>1202.0</ele><time>2026-03-29T09:47:19.954Z</time></trkpt><trkpt lat="46.6058283" lon="12.4797492"><ele>1202.0</ele><time>2026-03-29T09:47:20.939Z</time></trkpt><trkpt lat="46.6059057" lon="12.479749"><ele>1202.0</ele><time>2026-03-29T09:47:21.93Z</time></trkpt><trkpt lat="46.605981" lon="12.4797511"><ele>1202.0</ele><time>2026-03-29T09:47:22.938Z</time></trkpt><trkpt lat="46.606054" lon="12.4797756"><ele>1202.0</ele><time>2026-03-29T09:47:23.958Z</time></trkpt><trkpt lat="46.606124" lon="12.4798128"><ele>1202.0</ele><time>2026-03-29T09:47:24.934Z</time></trkpt><trkpt lat="46.6061882" lon="12.4798659"><ele>1201.1666666666667</ele><time>2026-03-29T09:47:25.939Z</time></trkpt><trkpt lat="46.6062472" lon="12.4799355"><ele>1200.3333333333335</ele><time>2026-03-29T09:47:26.935Z</time></trkpt><trkpt lat="46.6062961" lon="12.4800246"><ele>1199.5</ele><time>2026-03-29T09:47:27.944Z</time></trkpt><trkpt lat="46.6063418" lon="12.4801224"><ele>1198.6666666666667</ele><time>2026-03-29T09:47:28.926Z</time></trkpt><trkpt lat="46.6063894" lon="12.4802189"><ele>1197.8333333333333</ele><time>2026-03-29T09:47:29.927Z</time></trkpt><trkpt lat="46.6064379" lon="12.480315"><ele>1197.0</ele><time>2026-03-29T09:47:30.927Z</time></trkpt><trkpt lat="46.6064843" lon="12.4804098"><ele>1197.4285714285713</ele><time>2026-03-29T09:47:31.943Z</time></trkpt><trkpt lat="46.6065296" lon="12.4805003"><ele>1197.857142857143</ele><time>2026-03-29T09:47:32.93Z</time></trkpt><trkpt lat="46.6065741" lon="12.4805855"><ele>1198.2857142857142</ele><time>2026-03-29T09:47:33.939Z</time></trkpt><trkpt lat="46.606618" lon="12.4806647"><ele>1198.7142857142858</ele><time>2026-03-29T09:47:34.931Z</time></trkpt><trkpt lat="46.6066469" lon="12.4807526"><ele>1199.142857142857</ele><time>2026-03-29T09:47:35.935Z</time></trkpt><trkpt lat="46.6066679" lon="12.4808496"><ele>1199.5714285714284</ele><time>2026-03-29T09:47:36.942Z</time></trkpt><trkpt lat="46.6066753" lon="12.4809633"><ele>1200.0</ele><time>2026-03-29T09:47:37.926Z</time></trkpt><trkpt lat="46.6066554" lon="12.4810789"><ele>1200.0</ele><time>2026-03-29T09:47:38.936Z</time></trkpt><trkpt lat="46.606603" lon="12.4811803"><ele>1200.0</ele><time>2026-03-29T09:47:39.94Z</time></trkpt><trkpt lat="46.6065281" lon="12.4812695"><ele>1200.0</ele><time>2026-03-29T09:47:40.927Z</time></trkpt><trkpt lat="46.60645" lon="12.4813494"><ele>1200.0</ele><time>2026-03-29T09:47:41.939Z</time></trkpt><trkpt lat="46.6063659" lon="12.4814196"><ele>1200.0</ele><time>2026-03-29T09:47:42.917Z</time></trkpt><trkpt lat="46.6062818" lon="12.4814969"><ele>1201.2</ele><time>2026-03-29T09:47:43.929Z</time></trkpt><trkpt lat="46.6061941" lon="12.4815743"><ele>1202.4</ele><time>2026-03-29T09:47:44.94Z</time></trkpt><trkpt lat="46.6061073" lon="12.4816542"><ele>1203.6</ele><time>2026-03-29T09:47:45.927Z</time></trkpt><trkpt lat="46.606024" lon="12.4817344"><ele>1204.8</ele><time>2026-03-29T09:47:46.926Z</time></trkpt><trkpt lat="46.6059428" lon="12.4818027"><ele>1206.0</ele><time>2026-03-29T09:47:47.915Z</time></trkpt><trkpt lat="46.6058645" lon="12.4818718"><ele>1206.0</ele><time>2026-03-29T09:47:48.916Z</time></trkpt><trkpt lat="46.6057873" lon="12.4819471"><ele>1206.0</ele><time>2026-03-29T09:47:49.914Z</time></trkpt><trkpt lat="46.6057102" lon="12.4820259"><ele>1206.0</ele><time>2026-03-29T09:47:50.931Z</time></trkpt><trkpt lat="46.6056349" lon="12.4821192"><ele>1206.0</ele><time>2026-03-29T09:47:51.934Z</time></trkpt><trkpt lat="46.6055597" lon="12.4822221"><ele>1206.0</ele><time>2026-03-29T09:47:52.915Z</time></trkpt><trkpt lat="46.6054875" lon="12.4823358"><ele>1206.2</ele><time>2026-03-29T09:47:53.918Z</time></trkpt><trkpt lat="46.6054192" lon="12.4824607"><ele>1206.3999999999999</ele><time>2026-03-29T09:47:54.919Z</time></trkpt><trkpt lat="46.6053509" lon="12.4825867"><ele>1206.6</ele><time>2026-03-29T09:47:55.922Z</time></trkpt><trkpt lat="46.6052846" lon="12.4827117"><ele>1206.8</ele><time>2026-03-29T09:47:56.924Z</time></trkpt><trkpt lat="46.6052245" lon="12.4828352"><ele>1207.0</ele><time>2026-03-29T09:47:57.93Z</time></trkpt><trkpt lat="46.6051655" lon="12.4829481"><ele>1209.3333333333333</ele><time>2026-03-29T09:47:58.919Z</time></trkpt><trkpt lat="46.6051121" lon="12.483056"><ele>1211.6666666666665</ele><time>2026-03-29T09:47:59.926Z</time></trkpt><trkpt lat="46.6050616" lon="12.483161"><ele>1214.0</ele><time>2026-03-29T09:48:00.924Z</time></trkpt><trkpt lat="46.6050074" lon="12.4832605"><ele>1216.3333333333333</ele><time>2026-03-29T09:48:01.914Z</time></trkpt><trkpt lat="46.6049495" lon="12.4833581"><ele>1218.6666666666667</ele><time>2026-03-29T09:48:02.936Z</time></trkpt><trkpt lat="46.6048873" lon="12.4834587"><ele>1221.0</ele><time>2026-03-29T09:48:03.915Z</time></trkpt><trkpt lat="46.6048184" lon="12.4835607"><ele>1221.0</ele><time>2026-03-29T09:48:04.922Z</time></trkpt><trkpt lat="46.6047455" lon="12.4836606"><ele>1221.0</ele><time>2026-03-29T09:48:05.932Z</time></trkpt><trkpt lat="46.6046689" lon="12.4837549"><ele>1221.0</ele><time>2026-03-29T09:48:06.919Z</time></trkpt><trkpt lat="46.604588" lon="12.4838415"><ele>1221.0</ele><time>2026-03-29T09:48:07.94Z</time></trkpt><trkpt lat="46.6045042" lon="12.4839192"><ele>1221.0</ele><time>2026-03-29T09:48:08.94Z</time></trkpt><trkpt lat="46.6044241" lon="12.4839937"><ele>1221.6666666666667</ele><time>2026-03-29T09:48:09.924Z</time></trkpt><trkpt lat="46.6043512" lon="12.484066"><ele>1222.3333333333333</ele><time>2026-03-29T09:48:10.916Z</time></trkpt><trkpt lat="46.6042808" lon="12.4841262"><ele>1223.0</ele><time>2026-03-29T09:48:11.92Z</time></trkpt><trkpt lat="46.604215" lon="12.4841842"><ele>1223.6666666666665</ele><time>2026-03-29T09:48:12.914Z</time></trkpt><trkpt lat="46.604158" lon="12.484232"><ele>1224.3333333333333</ele><time>2026-03-29T09:48:13.917Z</time></trkpt><trkpt lat="46.6040766" lon="12.4842995"><ele>1225.0</ele><time>2026-03-29T09:48:15.922Z</time></trkpt><trkpt lat="46.6040217" lon="12.4843806"><ele>1225.0</ele><time>2026-03-29T09:48:18.934Z</time></trkpt><trkpt lat="46.6039356" lon="12.4844818"><ele>1225.0</ele><time>2026-03-29T09:51:24.931Z</time></trkpt><trkpt lat="46.6038202" lon="12.4844721"><ele>1225.0</ele><time>2026-03-29T09:53:25.915Z</time></trkpt><trkpt lat="46.6037702" lon="12.4846088"><ele>1225.0</ele><time>2026-03-29T09:53:28.952Z</time></trkpt><trkpt lat="46.6036985" lon="12.4847573"><ele>1224.8</ele><time>2026-03-29T09:53:30.954Z</time></trkpt><trkpt lat="46.6036561" lon="12.4848631"><ele>1224.6</ele><time>2026-03-29T09:53:31.956Z</time></trkpt><trkpt lat="46.603595" lon="12.4849714"><ele>1224.4</ele><time>2026-03-29T09:53:32.954Z</time></trkpt><trkpt lat="46.6035219" lon="12.4850893"><ele>1224.2</ele><time>2026-03-29T09:53:33.944Z</time></trkpt><trkpt lat="46.6034624" lon="12.4851998"><ele>1224.0</ele><time>2026-03-29T09:53:34.934Z</time></trkpt><trkpt lat="46.6034017" lon="12.4853083"><ele>1224.0</ele><time>2026-03-29T09:53:35.952Z</time></trkpt><trkpt lat="46.60334" lon="12.4854185"><ele>1224.0</ele><time>2026-03-29T09:53:36.94Z</time></trkpt><trkpt lat="46.6032801" lon="12.4855303"><ele>1224.0</ele><time>2026-03-29T09:53:37.962Z</time></trkpt><trkpt lat="46.6032163" lon="12.485642"><ele>1224.0</ele><time>2026-03-29T09:53:38.954Z</time></trkpt><trkpt lat="46.6031345" lon="12.4857446"><ele>1224.0</ele><time>2026-03-29T09:53:39.952Z</time></trkpt><trkpt lat="46.6030417" lon="12.4858477"><ele>1219.25</ele><time>2026-03-29T09:53:40.941Z</time></trkpt><trkpt lat="46.6029303" lon="12.4859446"><ele>1214.5</ele><time>2026-03-29T09:53:41.953Z</time></trkpt><trkpt lat="46.6028252" lon="12.486051"><ele>1209.75</ele><time>2026-03-29T09:53:42.947Z</time></trkpt><trkpt lat="46.6027263" lon="12.4861584"><ele>1205.0</ele><time>2026-03-29T09:53:43.958Z</time></trkpt><trkpt lat="46.6026294" lon="12.4862502"><ele>1210.0</ele><time>2026-03-29T09:53:44.934Z</time></trkpt><trkpt lat="46.6025394" lon="12.4863435"><ele>1215.0</ele><time>2026-03-29T09:53:45.958Z</time></trkpt><trkpt lat="46.6024613" lon="12.486447"><ele>1220.0</ele><time>2026-03-29T09:53:46.943Z</time></trkpt><trkpt lat="46.602396" lon="12.4865684"><ele>1225.0</ele><time>2026-03-29T09:53:47.929Z</time></trkpt><trkpt lat="46.6023553" lon="12.4867175"><ele>1230.0</ele><time>2026-03-29T09:53:48.944Z</time></trkpt><trkpt lat="46.6023151" lon="12.4868766"><ele>1230.0</ele><time>2026-03-29T09:53:49.943Z</time></trkpt><trkpt lat="46.6022726" lon="12.4870408"><ele>1230.0</ele><time>2026-03-29T09:53:50.95Z</time></trkpt><trkpt lat="46.602223" lon="12.4872035"><ele>1230.0</ele><time>2026-03-29T09:53:51.956Z</time></trkpt><trkpt lat="46.6021651" lon="12.4873574"><ele>1230.0</ele><time>2026-03-29T09:53:52.945Z</time></trkpt><trkpt lat="46.6021235" lon="12.4875133"><ele>1230.2</ele><time>2026-03-29T09:53:53.944Z</time></trkpt><trkpt lat="46.6020725" lon="12.4876573"><ele>1230.4</ele><time>2026-03-29T09:53:54.942Z</time></trkpt><trkpt lat="46.6020257" lon="12.4877976"><ele>1230.6</ele><time>2026-03-29T09:53:55.943Z</time></trkpt><trkpt lat="46.6019787" lon="12.4879343"><ele>1230.8</ele><time>2026-03-29T09:53:56.939Z</time></trkpt><trkpt lat="46.6019255" lon="12.4880695"><ele>1231.0</ele><time>2026-03-29T09:53:57.944Z</time></trkpt><trkpt lat="46.601871" lon="12.4882068"><ele>1231.0</ele><time>2026-03-29T09:53:58.938Z</time></trkpt><trkpt lat="46.6018033" lon="12.4883393"><ele>1231.0</ele><time>2026-03-29T09:53:59.951Z</time></trkpt><trkpt lat="46.6017333" lon="12.4884756"><ele>1231.0</ele><time>2026-03-29T09:54:00.941Z</time></trkpt><trkpt lat="46.6016587" lon="12.4886156"><ele>1231.0</ele><time>2026-03-29T09:54:01.949Z</time></trkpt><trkpt lat="46.6015772" lon="12.4887517"><ele>1234.0</ele><time>2026-03-29T09:54:02.955Z</time></trkpt><trkpt lat="46.6014932" lon="12.4888853"><ele>1237.0</ele><time>2026-03-29T09:54:03.948Z</time></trkpt><trkpt lat="46.6014156" lon="12.4890278"><ele>1240.0</ele><time>2026-03-29T09:54:04.937Z</time></trkpt><trkpt lat="46.6013309" lon="12.4891663"><ele>1243.0</ele><time>2026-03-29T09:54:05.937Z</time></trkpt><trkpt lat="46.6012603" lon="12.4893232"><ele>1243.0</ele><time>2026-03-29T09:54:06.921Z</time></trkpt><trkpt lat="46.6011848" lon="12.4894784"><ele>1243.0</ele><time>2026-03-29T09:54:07.945Z</time></trkpt><trkpt lat="46.6011096" lon="12.489633"><ele>1243.0</ele><time>2026-03-29T09:54:08.938Z</time></trkpt><trkpt lat="46.6010398" lon="12.4897977"><ele>1243.0</ele><time>2026-03-29T09:54:09.941Z</time></trkpt><trkpt lat="46.6009568" lon="12.4899555"><ele>1242.75</ele><time>2026-03-29T09:54:10.94Z</time></trkpt><trkpt lat="46.6008778" lon="12.4901148"><ele>1242.5</ele><time>2026-03-29T09:54:11.964Z</time></trkpt><trkpt lat="46.6008028" lon="12.4902716"><ele>1242.25</ele><time>2026-03-29T09:54:12.949Z</time></trkpt><trkpt lat="46.6007276" lon="12.4904144"><ele>1242.0</ele><time>2026-03-29T09:54:13.947Z</time></trkpt><trkpt lat="46.6006637" lon="12.4905485"><ele>1242.0</ele><time>2026-03-29T09:54:14.947Z</time></trkpt><trkpt lat="46.6005961" lon="12.4906658"><ele>1242.0</ele><time>2026-03-29T09:54:15.955Z</time></trkpt><trkpt lat="46.6005339" lon="12.4907715"><ele>1242.0</ele><time>2026-03-29T09:54:16.945Z</time></trkpt><trkpt lat="46.6004765" lon="12.4908547"><ele>1242.0</ele><time>2026-03-29T09:54:17.953Z</time></trkpt><trkpt lat="46.6004014" lon="12.4908773"><ele>1242.0</ele><time>2026-03-29T09:54:18.947Z</time></trkpt><trkpt lat="46.6003329" lon="12.4908757"><ele>1242.0</ele><time>2026-03-29T09:54:19.948Z</time></trkpt><trkpt lat="46.6002696" lon="12.4908659"><ele>1240.6</ele><time>2026-03-29T09:54:20.959Z</time></trkpt><trkpt lat="46.6002052" lon="12.4908707"><ele>1239.2</ele><time>2026-03-29T09:54:21.951Z</time></trkpt><trkpt lat="46.6000917" lon="12.4909099"><ele>1237.8</ele><time>2026-03-29T09:54:23.954Z</time></trkpt><trkpt lat="46.5999853" lon="12.4910233"><ele>1236.4</ele><time>2026-03-29T09:54:25.949Z</time></trkpt><trkpt lat="46.5999405" lon="12.4910983"><ele>1235.0</ele><time>2026-03-29T09:54:26.943Z</time></trkpt><trkpt lat="46.5998973" lon="12.4911763"><ele>1235.0</ele><time>2026-03-29T09:54:27.954Z</time></trkpt><trkpt lat="46.5998538" lon="12.4912506"><ele>1235.0</ele><time>2026-03-29T09:54:28.945Z</time></trkpt><trkpt lat="46.5998439" lon="12.4913466"><ele>1235.0</ele><time>2026-03-29T09:54:29.942Z</time></trkpt><trkpt lat="46.5998022" lon="12.4915121"><ele>1235.0</ele><time>2026-03-29T09:54:31.943Z</time></trkpt><trkpt lat="46.5997423" lon="12.4916421"><ele>1235.0</ele><time>2026-03-29T09:54:33.949Z</time></trkpt><trkpt lat="46.5996996" lon="12.4918018"><ele>1235.9999999999998</ele><time>2026-03-29T09:54:35.967Z</time></trkpt><trkpt lat="46.5996802" lon="12.4918908"><ele>1237.0</ele><time>2026-03-29T09:54:36.943Z</time></trkpt><trkpt lat="46.5996449" lon="12.4919732"><ele>1238.0</ele><time>2026-03-29T09:54:37.961Z</time></trkpt><trkpt lat="46.5996088" lon="12.492054"><ele>1239.0</ele><time>2026-03-29T09:54:38.93Z</time></trkpt><trkpt lat="46.5995884" lon="12.4921497"><ele>1240.0</ele><time>2026-03-29T09:54:39.954Z</time></trkpt><trkpt lat="46.5995655" lon="12.4922543"><ele>1240.9999999999998</ele><time>2026-03-29T09:54:40.959Z</time></trkpt><trkpt lat="46.5995473" lon="12.4923631"><ele>1242.0</ele><time>2026-03-29T09:54:41.935Z</time></trkpt><trkpt lat="46.5995135" lon="12.4924726"><ele>1240.0</ele><time>2026-03-29T09:54:42.94Z</time></trkpt><trkpt lat="46.59949" lon="12.4925993"><ele>1238.0</ele><time>2026-03-29T09:54:43.953Z</time></trkpt><trkpt lat="46.5994681" lon="12.4927343"><ele>1236.0</ele><time>2026-03-29T09:54:44.969Z</time></trkpt><trkpt lat="46.5994445" lon="12.4928794"><ele>1234.0</ele><time>2026-03-29T09:54:45.961Z</time></trkpt><trkpt lat="46.5994258" lon="12.493029"><ele>1232.0</ele><time>2026-03-29T09:54:46.95Z</time></trkpt><trkpt lat="46.5993987" lon="12.493174"><ele>1231.4</ele><time>2026-03-29T09:54:47.964Z</time></trkpt><trkpt lat="46.5993711" lon="12.4933207"><ele>1230.8000000000002</ele><time>2026-03-29T09:54:48.938Z</time></trkpt><trkpt lat="46.5993508" lon="12.4934772"><ele>1230.2</ele><time>2026-03-29T09:54:49.95Z</time></trkpt><trkpt lat="46.5993285" lon="12.4936334"><ele>1229.6000000000001</ele><time>2026-03-29T09:54:50.942Z</time></trkpt><trkpt lat="46.5992955" lon="12.4937865"><ele>1229.0</ele><time>2026-03-29T09:54:51.944Z</time></trkpt><trkpt lat="46.5992653" lon="12.4939367"><ele>1229.0</ele><time>2026-03-29T09:54:52.94Z</time></trkpt><trkpt lat="46.5992364" lon="12.4940905"><ele>1229.0</ele><time>2026-03-29T09:54:53.954Z</time></trkpt><trkpt lat="46.5992017" lon="12.4942405"><ele>1229.0</ele><time>2026-03-29T09:54:54.949Z</time></trkpt><trkpt lat="46.5991638" lon="12.4943857"><ele>1229.0</ele><time>2026-03-29T09:54:55.934Z</time></trkpt><trkpt lat="46.5991212" lon="12.4945257"><ele>1229.0</ele><time>2026-03-29T09:54:56.94Z</time></trkpt><trkpt lat="46.5990712" lon="12.4946572"><ele>1230.8</ele><time>2026-03-29T09:54:57.936Z</time></trkpt><trkpt lat="46.5989986" lon="12.4947657"><ele>1232.6000000000001</ele><time>2026-03-29T09:54:58.944Z</time></trkpt><trkpt lat="46.5989123" lon="12.4948641"><ele>1234.4</ele><time>2026-03-29T09:54:59.951Z</time></trkpt><trkpt lat="46.5988312" lon="12.4949716"><ele>1236.2</ele><time>2026-03-29T09:55:00.945Z</time></trkpt><trkpt lat="46.5987592" lon="12.4951002"><ele>1238.0</ele><time>2026-03-29T09:55:01.941Z</time></trkpt><trkpt lat="46.5986988" lon="12.4952416"><ele>1234.0</ele><time>2026-03-29T09:55:02.945Z</time></trkpt><trkpt lat="46.598624" lon="12.4953788"><ele>1230.0</ele><time>2026-03-29T09:55:03.945Z</time></trkpt><trkpt lat="46.5985548" lon="12.4955177"><ele>1226.0</ele><time>2026-03-29T09:55:04.934Z</time></trkpt><trkpt lat="46.5984907" lon="12.4956635"><ele>1222.0</ele><time>2026-03-29T09:55:05.953Z</time></trkpt><trkpt lat="46.5984207" lon="12.4957971"><ele>1222.0</ele><time>2026-03-29T09:55:06.947Z</time></trkpt><trkpt lat="46.5983581" lon="12.4959301"><ele>1222.0</ele><time>2026-03-29T09:55:07.942Z</time></trkpt><trkpt lat="46.5982931" lon="12.4960543"><ele>1222.0</ele><time>2026-03-29T09:55:08.927Z</time></trkpt><trkpt lat="46.5982164" lon="12.4961556"><ele>1222.0</ele><time>2026-03-29T09:55:09.951Z</time></trkpt><trkpt lat="46.5981286" lon="12.4962261"><ele>1222.0</ele><time>2026-03-29T09:55:10.965Z</time></trkpt><trkpt lat="46.5980301" lon="12.4962757"><ele>1220.0</ele><time>2026-03-29T09:55:11.937Z</time></trkpt><trkpt lat="46.5979248" lon="12.4963199"><ele>1218.0</ele><time>2026-03-29T09:55:12.956Z</time></trkpt><trkpt lat="46.5978249" lon="12.4963811"><ele>1216.0</ele><time>2026-03-29T09:55:13.954Z</time></trkpt><trkpt lat="46.5977254" lon="12.4964662"><ele>1214.0</ele><time>2026-03-29T09:55:14.949Z</time></trkpt><trkpt lat="46.5976282" lon="12.4965687"><ele>1214.0</ele><time>2026-03-29T09:55:15.945Z</time></trkpt><trkpt lat="46.5975403" lon="12.4966976"><ele>1214.0</ele><time>2026-03-29T09:55:16.955Z</time></trkpt><trkpt lat="46.5974626" lon="12.4968441"><ele>1214.0</ele><time>2026-03-29T09:55:17.964Z</time></trkpt><trkpt lat="46.5974015" lon="12.4969984"><ele>1214.0</ele><time>2026-03-29T09:55:18.944Z</time></trkpt><trkpt lat="46.5973561" lon="12.4971629"><ele>1216.25</ele><time>2026-03-29T09:55:19.945Z</time></trkpt><trkpt lat="46.5973202" lon="12.4973238"><ele>1218.5</ele><time>2026-03-29T09:55:20.947Z</time></trkpt><trkpt lat="46.5972829" lon="12.4974787"><ele>1220.75</ele><time>2026-03-29T09:55:21.944Z</time></trkpt><trkpt lat="46.5972437" lon="12.4976305"><ele>1223.0</ele><time>2026-03-29T09:55:22.944Z</time></trkpt><trkpt lat="46.5972017" lon="12.4977782"><ele>1221.6</ele><time>2026-03-29T09:55:23.945Z</time></trkpt><trkpt lat="46.5971567" lon="12.4979211"><ele>1220.1999999999998</ele><time>2026-03-29T09:55:24.959Z</time></trkpt><trkpt lat="46.597096" lon="12.4980501"><ele>1218.8</ele><time>2026-03-29T09:55:25.938Z</time></trkpt><trkpt lat="46.597018" lon="12.4981671"><ele>1217.3999999999999</ele><time>2026-03-29T09:55:26.956Z</time></trkpt><trkpt lat="46.596936" lon="12.4982887"><ele>1216.0</ele><time>2026-03-29T09:55:27.942Z</time></trkpt><trkpt lat="46.5968546" lon="12.4984224"><ele>1216.0</ele><time>2026-03-29T09:55:28.955Z</time></trkpt><trkpt lat="46.5967674" lon="12.4985584"><ele>1216.0</ele><time>2026-03-29T09:55:29.945Z</time></trkpt><trkpt lat="46.5966816" lon="12.4986979"><ele>1216.0</ele><time>2026-03-29T09:55:30.944Z</time></trkpt><trkpt lat="46.5965974" lon="12.498843"><ele>1216.0</ele><time>2026-03-29T09:55:31.938Z</time></trkpt><trkpt lat="46.5965037" lon="12.4989818"><ele>1218.5</ele><time>2026-03-29T09:55:32.945Z</time></trkpt><trkpt lat="46.5964039" lon="12.4991172"><ele>1221.0</ele><time>2026-03-29T09:55:33.967Z</time></trkpt><trkpt lat="46.5963086" lon="12.4992667"><ele>1223.5</ele><time>2026-03-29T09:55:34.948Z</time></trkpt><trkpt lat="46.59621" lon="12.4994136"><ele>1226.0</ele><time>2026-03-29T09:55:35.949Z</time></trkpt><trkpt lat="46.5961138" lon="12.4995635"><ele>1223.5</ele><time>2026-03-29T09:55:36.938Z</time></trkpt><trkpt lat="46.5960103" lon="12.4997029"><ele>1221.0</ele><time>2026-03-29T09:55:37.949Z</time></trkpt><trkpt lat="46.5959087" lon="12.4998436"><ele>1218.5</ele><time>2026-03-29T09:55:38.946Z</time></trkpt><trkpt lat="46.5958038" lon="12.499981"><ele>1216.0</ele><time>2026-03-29T09:55:39.938Z</time></trkpt><trkpt lat="46.5957045" lon="12.5001211"><ele>1216.0</ele><time>2026-03-29T09:55:40.935Z</time></trkpt><trkpt lat="46.5956082" lon="12.5002585"><ele>1216.0</ele><time>2026-03-29T09:55:41.955Z</time></trkpt><trkpt lat="46.595512" lon="12.5003886"><ele>1216.0</ele><time>2026-03-29T09:55:42.946Z</time></trkpt><trkpt lat="46.5954094" lon="12.5005025"><ele>1216.0</ele><time>2026-03-29T09:55:43.948Z</time></trkpt><trkpt lat="46.5953084" lon="12.5006154"><ele>1215.25</ele><time>2026-03-29T09:55:44.933Z</time></trkpt><trkpt lat="46.5951924" lon="12.500698"><ele>1214.5</ele><time>2026-03-29T09:55:45.965Z</time></trkpt><trkpt lat="46.5950714" lon="12.5007807"><ele>1213.75</ele><time>2026-03-29T09:55:46.935Z</time></trkpt><trkpt lat="46.5949415" lon="12.5008568"><ele>1213.0</ele><time>2026-03-29T09:55:47.976Z</time></trkpt><trkpt lat="46.5948195" lon="12.5009634"><ele>1213.0</ele><time>2026-03-29T09:55:48.937Z</time></trkpt><trkpt lat="46.5947061" lon="12.5010914"><ele>1213.0</ele><time>2026-03-29T09:55:49.96Z</time></trkpt><trkpt lat="46.5945982" lon="12.5012291"><ele>1213.0</ele><time>2026-03-29T09:55:50.929Z</time></trkpt><trkpt lat="46.5944879" lon="12.5013598"><ele>1213.0</ele><time>2026-03-29T09:55:51.958Z</time></trkpt><trkpt lat="46.5943728" lon="12.5014786"><ele>1212.5</ele><time>2026-03-29T09:55:52.949Z</time></trkpt><trkpt lat="46.5942589" lon="12.5015979"><ele>1212.0</ele><time>2026-03-29T09:55:53.957Z</time></trkpt><trkpt lat="46.5941474" lon="12.5017239"><ele>1211.5</ele><time>2026-03-29T09:55:54.944Z</time></trkpt><trkpt lat="46.5940344" lon="12.5018495"><ele>1211.0</ele><time>2026-03-29T09:55:55.934Z</time></trkpt><trkpt lat="46.5939337" lon="12.5019935"><ele>1208.0</ele><time>2026-03-29T09:55:56.931Z</time></trkpt><trkpt lat="46.5938297" lon="12.5021373"><ele>1205.0</ele><time>2026-03-29T09:55:57.952Z</time></trkpt><trkpt lat="46.5937317" lon="12.5022957"><ele>1202.0</ele><time>2026-03-29T09:55:58.931Z</time></trkpt><trkpt lat="46.5936338" lon="12.5024546"><ele>1199.0</ele><time>2026-03-29T09:55:59.963Z</time></trkpt><trkpt lat="46.5935389" lon="12.5026183"><ele>1199.0</ele><time>2026-03-29T09:56:00.942Z</time></trkpt><trkpt lat="46.5934484" lon="12.5027872"><ele>1199.0</ele><time>2026-03-29T09:56:01.943Z</time></trkpt><trkpt lat="46.5933758" lon="12.5029748"><ele>1199.0</ele><time>2026-03-29T09:56:02.932Z</time></trkpt><trkpt lat="46.5933031" lon="12.5031615"><ele>1199.0</ele><time>2026-03-29T09:56:03.944Z</time></trkpt><trkpt lat="46.5932382" lon="12.5033548"><ele>1201.75</ele><time>2026-03-29T09:56:04.953Z</time></trkpt><trkpt lat="46.5931748" lon="12.5035488"><ele>1204.5</ele><time>2026-03-29T09:56:05.962Z</time></trkpt><trkpt lat="46.5931107" lon="12.503739"><ele>1207.25</ele><time>2026-03-29T09:56:06.949Z</time></trkpt><trkpt lat="46.5930559" lon="12.5039324"><ele>1210.0</ele><time>2026-03-29T09:56:07.95Z</time></trkpt><trkpt lat="46.5929909" lon="12.504117"><ele>1208.0</ele><time>2026-03-29T09:56:08.963Z</time></trkpt><trkpt lat="46.5929157" lon="12.5042922"><ele>1206.0</ele><time>2026-03-29T09:56:09.963Z</time></trkpt><trkpt lat="46.5928379" lon="12.5044648"><ele>1204.0</ele><time>2026-03-29T09:56:10.966Z</time></trkpt><trkpt lat="46.5927637" lon="12.5046388"><ele>1202.0</ele><time>2026-03-29T09:56:11.954Z</time></trkpt><trkpt lat="46.5926926" lon="12.5048119"><ele>1202.0</ele><time>2026-03-29T09:56:12.95Z</time></trkpt><trkpt lat="46.5926229" lon="12.50498"><ele>1202.0</ele><time>2026-03-29T09:56:13.957Z</time></trkpt><trkpt lat="46.5925612" lon="12.5051481"><ele>1202.0</ele><time>2026-03-29T09:56:14.949Z</time></trkpt><trkpt lat="46.5925078" lon="12.5053197"><ele>1202.0</ele><time>2026-03-29T09:56:15.962Z</time></trkpt><trkpt lat="46.5924654" lon="12.5054973"><ele>1205.5</ele><time>2026-03-29T09:56:16.964Z</time></trkpt><trkpt lat="46.5924265" lon="12.5056746"><ele>1209.0</ele><time>2026-03-29T09:56:17.958Z</time></trkpt><trkpt lat="46.5923878" lon="12.5058472"><ele>1212.5</ele><time>2026-03-29T09:56:18.95Z</time></trkpt><trkpt lat="46.5923442" lon="12.5060116"><ele>1216.0</ele><time>2026-03-29T09:56:19.936Z</time></trkpt><trkpt lat="46.5923088" lon="12.5061741"><ele>1218.6</ele><time>2026-03-29T09:56:20.94Z</time></trkpt><trkpt lat="46.5922649" lon="12.5063268"><ele>1221.1999999999998</ele><time>2026-03-29T09:56:21.951Z</time></trkpt><trkpt lat="46.5922175" lon="12.5064731"><ele>1223.8000000000002</ele><time>2026-03-29T09:56:22.97Z</time></trkpt><trkpt lat="46.592164" lon="12.506611"><ele>1226.4</ele><time>2026-03-29T09:56:23.943Z</time></trkpt><trkpt lat="46.5921097" lon="12.5067489"><ele>1229.0</ele><time>2026-03-29T09:56:24.944Z</time></trkpt><trkpt lat="46.5920587" lon="12.5068957"><ele>1223.75</ele><time>2026-03-29T09:56:25.943Z</time></trkpt><trkpt lat="46.591993" lon="12.5070333"><ele>1218.5</ele><time>2026-03-29T09:56:26.938Z</time></trkpt><trkpt lat="46.5919218" lon="12.5071696"><ele>1213.25</ele><time>2026-03-29T09:56:27.947Z</time></trkpt><trkpt lat="46.5918426" lon="12.5073059"><ele>1208.0</ele><time>2026-03-29T09:56:28.945Z</time></trkpt><trkpt lat="46.591748" lon="12.5074312"><ele>1208.0</ele><time>2026-03-29T09:56:29.951Z</time></trkpt><trkpt lat="46.5916593" lon="12.5075724"><ele>1208.0</ele><time>2026-03-29T09:56:30.956Z</time></trkpt><trkpt lat="46.5915688" lon="12.5077367"><ele>1208.0</ele><time>2026-03-29T09:56:31.937Z</time></trkpt><trkpt lat="46.5914922" lon="12.5079299"><ele>1208.0</ele><time>2026-03-29T09:56:32.943Z</time></trkpt><trkpt lat="46.591419" lon="12.5081217"><ele>1207.5</ele><time>2026-03-29T09:56:33.944Z</time></trkpt><trkpt lat="46.5913537" lon="12.5083016"><ele>1207.0</ele><time>2026-03-29T09:56:34.956Z</time></trkpt><trkpt lat="46.5912765" lon="12.508477"><ele>1206.5</ele><time>2026-03-29T09:56:35.956Z</time></trkpt><trkpt lat="46.5911797" lon="12.5086317"><ele>1206.0</ele><time>2026-03-29T09:56:36.965Z</time></trkpt><trkpt lat="46.5910779" lon="12.5087836"><ele>1206.0</ele><time>2026-03-29T09:56:37.937Z</time></trkpt><trkpt lat="46.5909708" lon="12.5089337"><ele>1206.0</ele><time>2026-03-29T09:56:38.948Z</time></trkpt><trkpt lat="46.5908753" lon="12.5090774"><ele>1206.0</ele><time>2026-03-29T09:56:39.942Z</time></trkpt><trkpt lat="46.5907723" lon="12.5092083"><ele>1206.0</ele><time>2026-03-29T09:56:40.944Z</time></trkpt><trkpt lat="46.5906669" lon="12.50932"><ele>1206.0</ele><time>2026-03-29T09:56:41.949Z</time></trkpt><trkpt lat="46.5905684" lon="12.509432"><ele>1206.0</ele><time>2026-03-29T09:56:42.948Z</time></trkpt><trkpt lat="46.5904707" lon="12.509552"><ele>1206.0</ele><time>2026-03-29T09:56:43.938Z</time></trkpt><trkpt lat="46.5903751" lon="12.5096753"><ele>1206.0</ele><time>2026-03-29T09:56:44.942Z</time></trkpt><trkpt lat="46.5902879" lon="12.5098099"><ele>1206.75</ele><time>2026-03-29T09:56:45.946Z</time></trkpt><trkpt lat="46.5902107" lon="12.5099569"><ele>1207.5</ele><time>2026-03-29T09:56:46.936Z</time></trkpt><trkpt lat="46.5901377" lon="12.5101138"><ele>1208.25</ele><time>2026-03-29T09:56:47.966Z</time></trkpt><trkpt lat="46.5900768" lon="12.5102852"><ele>1209.0</ele><time>2026-03-29T09:56:48.974Z</time></trkpt><trkpt lat="46.5900264" lon="12.5104669"><ele>1209.0</ele><time>2026-03-29T09:56:49.921Z</time></trkpt><trkpt lat="46.5899947" lon="12.5106621"><ele>1209.0</ele><time>2026-03-29T09:56:50.942Z</time></trkpt><trkpt lat="46.5899672" lon="12.5108552"><ele>1209.0</ele><time>2026-03-29T09:56:51.943Z</time></trkpt><trkpt lat="46.5899399" lon="12.5110439"><ele>1209.0</ele><time>2026-03-29T09:56:52.93Z</time></trkpt><trkpt lat="46.5899135" lon="12.5112273"><ele>1210.0</ele><time>2026-03-29T09:56:53.954Z</time></trkpt><trkpt lat="46.5898869" lon="12.5114067"><ele>1211.0</ele><time>2026-03-29T09:56:54.94Z</time></trkpt><trkpt lat="46.5898551" lon="12.5115816"><ele>1212.0</ele><time>2026-03-29T09:56:55.939Z</time></trkpt><trkpt lat="46.589826" lon="12.5117497"><ele>1213.0</ele><time>2026-03-29T09:56:56.93Z</time></trkpt><trkpt lat="46.5898021" lon="12.5119126"><ele>1213.0</ele><time>2026-03-29T09:56:57.951Z</time></trkpt><trkpt lat="46.5897755" lon="12.512071"><ele>1213.0</ele><time>2026-03-29T09:56:58.936Z</time></trkpt><trkpt lat="46.5897483" lon="12.5122281"><ele>1213.0</ele><time>2026-03-29T09:56:59.953Z</time></trkpt><trkpt lat="46.5897211" lon="12.5123826"><ele>1213.0</ele><time>2026-03-29T09:57:00.959Z</time></trkpt><trkpt lat="46.5896865" lon="12.5125412"><ele>1213.0</ele><time>2026-03-29T09:57:01.949Z</time></trkpt><trkpt lat="46.5896346" lon="12.5126966"><ele>1214.6</ele><time>2026-03-29T09:57:02.941Z</time></trkpt><trkpt lat="46.5895848" lon="12.5128504"><ele>1216.1999999999998</ele><time>2026-03-29T09:57:03.942Z</time></trkpt><trkpt lat="46.5895345" lon="12.5129939"><ele>1217.8</ele><time>2026-03-29T09:57:04.937Z</time></trkpt><trkpt lat="46.5894926" lon="12.5131382"><ele>1219.3999999999999</ele><time>2026-03-29T09:57:05.959Z</time></trkpt><trkpt lat="46.5894478" lon="12.5132779"><ele>1221.0</ele><time>2026-03-29T09:57:06.949Z</time></trkpt><trkpt lat="46.5893987" lon="12.5134117"><ele>1218.3999999999999</ele><time>2026-03-29T09:57:07.95Z</time></trkpt><trkpt lat="46.5893526" lon="12.5135442"><ele>1215.8</ele><time>2026-03-29T09:57:08.944Z</time></trkpt><trkpt lat="46.5893103" lon="12.5136752"><ele>1213.1999999999998</ele><time>2026-03-29T09:57:09.944Z</time></trkpt><trkpt lat="46.5892645" lon="12.5137946"><ele>1210.6</ele><time>2026-03-29T09:57:10.938Z</time></trkpt><trkpt lat="46.589218" lon="12.5139058"><ele>1208.0</ele><time>2026-03-29T09:57:11.952Z</time></trkpt><trkpt lat="46.5891619" lon="12.514005"><ele>1208.0</ele><time>2026-03-29T09:57:12.946Z</time></trkpt><trkpt lat="46.5891151" lon="12.5141143"><ele>1208.0</ele><time>2026-03-29T09:57:13.945Z</time></trkpt><trkpt lat="46.5890551" lon="12.5142154"><ele>1208.0</ele><time>2026-03-29T09:57:14.952Z</time></trkpt><trkpt lat="46.589005" lon="12.5143361"><ele>1208.0</ele><time>2026-03-29T09:57:15.938Z</time></trkpt><trkpt lat="46.5889928" lon="12.5144964"><ele>1208.0</ele><time>2026-03-29T09:57:16.959Z</time></trkpt><trkpt lat="46.5889842" lon="12.514667"><ele>1209.4</ele><time>2026-03-29T09:57:17.954Z</time></trkpt><trkpt lat="46.5889749" lon="12.5148329"><ele>1210.8</ele><time>2026-03-29T09:57:18.948Z</time></trkpt><trkpt lat="46.5889713" lon="12.5149893"><ele>1212.2</ele><time>2026-03-29T09:57:19.974Z</time></trkpt><trkpt lat="46.5889495" lon="12.5151402"><ele>1213.6</ele><time>2026-03-29T09:57:20.952Z</time></trkpt><trkpt lat="46.5889332" lon="12.5152921"><ele>1215.0</ele><time>2026-03-29T09:57:21.961Z</time></trkpt><trkpt lat="46.5889085" lon="12.5154359"><ele>1215.6</ele><time>2026-03-29T09:57:22.954Z</time></trkpt><trkpt lat="46.5889039" lon="12.5155883"><ele>1216.2</ele><time>2026-03-29T09:57:23.961Z</time></trkpt><trkpt lat="46.5888828" lon="12.5157379"><ele>1216.8</ele><time>2026-03-29T09:57:24.939Z</time></trkpt><trkpt lat="46.5888652" lon="12.5158858"><ele>1217.4</ele><time>2026-03-29T09:57:25.937Z</time></trkpt><trkpt lat="46.5888451" lon="12.5160231"><ele>1218.0</ele><time>2026-03-29T09:57:26.935Z</time></trkpt><trkpt lat="46.5888394" lon="12.5161611"><ele>1218.6</ele><time>2026-03-29T09:57:27.969Z</time></trkpt><trkpt lat="46.5888327" lon="12.5162951"><ele>1219.1999999999998</ele><time>2026-03-29T09:57:28.948Z</time></trkpt><trkpt lat="46.588799" lon="12.5164227"><ele>1219.8</ele><time>2026-03-29T09:57:29.941Z</time></trkpt><trkpt lat="46.5887584" lon="12.5165489"><ele>1220.3999999999999</ele><time>2026-03-29T09:57:30.948Z</time></trkpt><trkpt lat="46.5887351" lon="12.5166808"><ele>1221.0</ele><time>2026-03-29T09:57:31.948Z</time></trkpt><trkpt lat="46.5887121" lon="12.5168103"><ele>1221.0</ele><time>2026-03-29T09:57:32.947Z</time></trkpt><trkpt lat="46.5886932" lon="12.5169369"><ele>1221.0</ele><time>2026-03-29T09:57:33.95Z</time></trkpt><trkpt lat="46.5886582" lon="12.5170406"><ele>1221.0</ele><time>2026-03-29T09:57:34.928Z</time></trkpt><trkpt lat="46.5886479" lon="12.5171514"><ele>1221.0</ele><time>2026-03-29T09:57:35.934Z</time></trkpt><trkpt lat="46.5886649" lon="12.5172547"><ele>1221.0</ele><time>2026-03-29T09:57:36.934Z</time></trkpt><trkpt lat="46.5887024" lon="12.5173373"><ele>1221.0</ele><time>2026-03-29T09:57:37.959Z</time></trkpt><trkpt lat="46.5887893" lon="12.5174028"><ele>1217.5</ele><time>2026-03-29T09:57:38.941Z</time></trkpt><trkpt lat="46.5888995" lon="12.5174283"><ele>1214.0</ele><time>2026-03-29T09:57:39.94Z</time></trkpt><trkpt lat="46.589028" lon="12.5174631"><ele>1210.5</ele><time>2026-03-29T09:57:40.94Z</time></trkpt><trkpt lat="46.5891439" lon="12.517513"><ele>1207.0</ele><time>2026-03-29T09:57:41.941Z</time></trkpt><trkpt lat="46.5892541" lon="12.5175635"><ele>1207.0</ele><time>2026-03-29T09:57:42.94Z</time></trkpt><trkpt lat="46.5893532" lon="12.5176239"><ele>1207.0</ele><time>2026-03-29T09:57:43.927Z</time></trkpt><trkpt lat="46.5894471" lon="12.5176948"><ele>1207.0</ele><time>2026-03-29T09:57:44.933Z</time></trkpt><trkpt lat="46.5895412" lon="12.5177653"><ele>1207.0</ele><time>2026-03-29T09:57:45.926Z</time></trkpt><trkpt lat="46.589626" lon="12.5178419"><ele>1207.0</ele><time>2026-03-29T09:57:46.954Z</time></trkpt><trkpt lat="46.5897018" lon="12.5179219"><ele>1204.6666666666665</ele><time>2026-03-29T09:57:47.942Z</time></trkpt><trkpt lat="46.5897752" lon="12.5179974"><ele>1202.3333333333333</ele><time>2026-03-29T09:57:48.941Z</time></trkpt><trkpt lat="46.5898466" lon="12.5180705"><ele>1200.0</ele><time>2026-03-29T09:57:49.948Z</time></trkpt><trkpt lat="46.5899111" lon="12.5181506"><ele>1197.6666666666667</ele><time>2026-03-29T09:57:50.948Z</time></trkpt><trkpt lat="46.5899848" lon="12.5182118"><ele>1195.3333333333335</ele><time>2026-03-29T09:57:51.944Z</time></trkpt><trkpt lat="46.5900485" lon="12.5182878"><ele>1193.0</ele><time>2026-03-29T09:57:52.961Z</time></trkpt><trkpt lat="46.5901115" lon="12.5183642"><ele>1193.0</ele><time>2026-03-29T09:57:53.939Z</time></trkpt><trkpt lat="46.5901851" lon="12.5184277"><ele>1193.0</ele><time>2026-03-29T09:57:54.947Z</time></trkpt><trkpt lat="46.5902727" lon="12.5184724"><ele>1193.0</ele><time>2026-03-29T09:57:55.94Z</time></trkpt><trkpt lat="46.5903578" lon="12.5185267"><ele>1193.0</ele><time>2026-03-29T09:57:56.956Z</time></trkpt><trkpt lat="46.5904332" lon="12.5186017"><ele>1193.0</ele><time>2026-03-29T09:57:57.954Z</time></trkpt><trkpt lat="46.5905156" lon="12.5186715"><ele>1190.6</ele><time>2026-03-29T09:57:58.933Z</time></trkpt><trkpt lat="46.5905965" lon="12.5187417"><ele>1188.1999999999998</ele><time>2026-03-29T09:57:59.949Z</time></trkpt><trkpt lat="46.5906828" lon="12.5187985"><ele>1185.8</ele><time>2026-03-29T09:58:00.943Z</time></trkpt><trkpt lat="46.5907737" lon="12.5188312"><ele>1183.3999999999999</ele><time>2026-03-29T09:58:01.962Z</time></trkpt><trkpt lat="46.5908566" lon="12.5188878"><ele>1181.0</ele><time>2026-03-29T09:58:02.951Z</time></trkpt><trkpt lat="46.5909479" lon="12.5189274"><ele>1181.0</ele><time>2026-03-29T09:58:03.937Z</time></trkpt><trkpt lat="46.5910416" lon="12.5189769"><ele>1181.0</ele><time>2026-03-29T09:58:04.948Z</time></trkpt><trkpt lat="46.5911383" lon="12.5190168"><ele>1181.0</ele><time>2026-03-29T09:58:05.951Z</time></trkpt><trkpt lat="46.5912416" lon="12.5190464"><ele>1181.0</ele><time>2026-03-29T09:58:06.951Z</time></trkpt><trkpt lat="46.5913463" lon="12.519083"><ele>1181.0</ele><time>2026-03-29T09:58:07.951Z</time></trkpt><trkpt lat="46.5914545" lon="12.5191164"><ele>1182.0</ele><time>2026-03-29T09:58:08.95Z</time></trkpt><trkpt lat="46.5915615" lon="12.5191565"><ele>1183.0</ele><time>2026-03-29T09:58:09.955Z</time></trkpt><trkpt lat="46.5916691" lon="12.5191959"><ele>1184.0</ele><time>2026-03-29T09:58:10.946Z</time></trkpt><trkpt lat="46.5917779" lon="12.519227"><ele>1185.0</ele><time>2026-03-29T09:58:11.943Z</time></trkpt><trkpt lat="46.5918865" lon="12.5192482"><ele>1186.0</ele><time>2026-03-29T09:58:12.931Z</time></trkpt><trkpt lat="46.5919976" lon="12.5192672"><ele>1186.75</ele><time>2026-03-29T09:58:13.959Z</time></trkpt><trkpt lat="46.5921125" lon="12.519269"><ele>1187.5</ele><time>2026-03-29T09:58:14.947Z</time></trkpt><trkpt lat="46.5922288" lon="12.5192572"><ele>1188.25</ele><time>2026-03-29T09:58:15.955Z</time></trkpt><trkpt lat="46.59234" lon="12.5192435"><ele>1189.0</ele><time>2026-03-29T09:58:16.95Z</time></trkpt><trkpt lat="46.5924476" lon="12.5192364"><ele>1189.0</ele><time>2026-03-29T09:58:17.951Z</time></trkpt><trkpt lat="46.5925533" lon="12.5192575"><ele>1189.0</ele><time>2026-03-29T09:58:18.961Z</time></trkpt><trkpt lat="46.5926566" lon="12.5193034"><ele>1189.0</ele><time>2026-03-29T09:58:19.953Z</time></trkpt><trkpt lat="46.5927491" lon="12.5193901"><ele>1189.0</ele><time>2026-03-29T09:58:20.966Z</time></trkpt><trkpt lat="46.5928425" lon="12.5194798"><ele>1189.0</ele><time>2026-03-29T09:58:21.934Z</time></trkpt><trkpt lat="46.5929387" lon="12.5195665"><ele>1184.5</ele><time>2026-03-29T09:58:22.964Z</time></trkpt><trkpt lat="46.5930399" lon="12.5196489"><ele>1180.0</ele><time>2026-03-29T09:58:23.96Z</time></trkpt><trkpt lat="46.5931441" lon="12.5197289"><ele>1175.5</ele><time>2026-03-29T09:58:24.952Z</time></trkpt><trkpt lat="46.5932652" lon="12.5197711"><ele>1171.0</ele><time>2026-03-29T09:58:25.965Z</time></trkpt><trkpt lat="46.5933942" lon="12.5197956"><ele>1171.0</ele><time>2026-03-29T09:58:26.935Z</time></trkpt><trkpt lat="46.5935235" lon="12.5198352"><ele>1171.0</ele><time>2026-03-29T09:58:27.946Z</time></trkpt><trkpt lat="46.5936508" lon="12.51989"><ele>1171.0</ele><time>2026-03-29T09:58:28.947Z</time></trkpt><trkpt lat="46.5937724" lon="12.5199634"><ele>1171.0</ele><time>2026-03-29T09:58:29.943Z</time></trkpt><trkpt lat="46.5938916" lon="12.5200387"><ele>1173.25</ele><time>2026-03-29T09:58:30.95Z</time></trkpt><trkpt lat="46.5940081" lon="12.5201144"><ele>1175.5</ele><time>2026-03-29T09:58:31.953Z</time></trkpt><trkpt lat="46.594128" lon="12.5201755"><ele>1177.75</ele><time>2026-03-29T09:58:32.939Z</time></trkpt><trkpt lat="46.5942504" lon="12.5202255"><ele>1180.0</ele><time>2026-03-29T09:58:33.939Z</time></trkpt><trkpt lat="46.5943744" lon="12.5202558"><ele>1180.0</ele><time>2026-03-29T09:58:34.943Z</time></trkpt><trkpt lat="46.5945015" lon="12.5202695"><ele>1180.0</ele><time>2026-03-29T09:58:35.961Z</time></trkpt><trkpt lat="46.5946261" lon="12.5202904"><ele>1180.0</ele><time>2026-03-29T09:58:36.95Z</time></trkpt><trkpt lat="46.5947522" lon="12.5203226"><ele>1180.0</ele><time>2026-03-29T09:58:37.949Z</time></trkpt><trkpt lat="46.5948825" lon="12.5203697"><ele>1178.0</ele><time>2026-03-29T09:58:38.952Z</time></trkpt><trkpt lat="46.5950075" lon="12.5204438"><ele>1176.0</ele><time>2026-03-29T09:58:39.969Z</time></trkpt><trkpt lat="46.5951349" lon="12.5205294"><ele>1174.0</ele><time>2026-03-29T09:58:40.948Z</time></trkpt><trkpt lat="46.5952656" lon="12.5206013"><ele>1172.0</ele><time>2026-03-29T09:58:41.945Z</time></trkpt><trkpt lat="46.5953956" lon="12.5206708"><ele>1172.0</ele><time>2026-03-29T09:58:42.946Z</time></trkpt><trkpt lat="46.5955208" lon="12.5207328"><ele>1172.0</ele><time>2026-03-29T09:58:43.954Z</time></trkpt><trkpt lat="46.5956381" lon="12.5207964"><ele>1172.0</ele><time>2026-03-29T09:58:44.938Z</time></trkpt><trkpt lat="46.5957516" lon="12.5208611"><ele>1172.0</ele><time>2026-03-29T09:58:45.95Z</time></trkpt><trkpt lat="46.5958576" lon="12.5209405"><ele>1172.0</ele><time>2026-03-29T09:58:46.942Z</time></trkpt><trkpt lat="46.5959529" lon="12.5210394"><ele>1172.0</ele><time>2026-03-29T09:58:47.939Z</time></trkpt><trkpt lat="46.5960333" lon="12.5211584"><ele>1172.0</ele><time>2026-03-29T09:58:48.944Z</time></trkpt><trkpt lat="46.5961191" lon="12.5212655"><ele>1172.0</ele><time>2026-03-29T09:58:49.94Z</time></trkpt><trkpt lat="46.5962158" lon="12.5213468"><ele>1169.4</ele><time>2026-03-29T09:58:50.934Z</time></trkpt><trkpt lat="46.5963248" lon="12.5213861"><ele>1166.8000000000002</ele><time>2026-03-29T09:58:51.935Z</time></trkpt><trkpt lat="46.5964304" lon="12.5214248"><ele>1164.2</ele><time>2026-03-29T09:58:52.945Z</time></trkpt><trkpt lat="46.5965377" lon="12.521475"><ele>1161.6000000000001</ele><time>2026-03-29T09:58:53.939Z</time></trkpt><trkpt lat="46.5966512" lon="12.5214982"><ele>1159.0</ele><time>2026-03-29T09:58:54.941Z</time></trkpt><trkpt lat="46.5967637" lon="12.5215248"><ele>1159.0</ele><time>2026-03-29T09:58:55.967Z</time></trkpt><trkpt lat="46.596873" lon="12.5215471"><ele>1159.0</ele><time>2026-03-29T09:58:56.935Z</time></trkpt><trkpt lat="46.5969832" lon="12.5215667"><ele>1159.0</ele><time>2026-03-29T09:58:57.956Z</time></trkpt><trkpt lat="46.5970927" lon="12.5215751"><ele>1159.0</ele><time>2026-03-29T09:58:58.936Z</time></trkpt><trkpt lat="46.597204" lon="12.5215823"><ele>1159.0</ele><time>2026-03-29T09:58:59.94Z</time></trkpt><trkpt lat="46.5973183" lon="12.5216102"><ele>1161.0</ele><time>2026-03-29T09:59:00.951Z</time></trkpt><trkpt lat="46.5974337" lon="12.5216466"><ele>1163.0</ele><time>2026-03-29T09:59:01.953Z</time></trkpt><trkpt lat="46.5975471" lon="12.5217055"><ele>1165.0</ele><time>2026-03-29T09:59:02.94Z</time></trkpt><trkpt lat="46.5976622" lon="12.5217549"><ele>1167.0</ele><time>2026-03-29T09:59:03.944Z</time></trkpt><trkpt lat="46.5977852" lon="12.5217726"><ele>1169.25</ele><time>2026-03-29T09:59:04.935Z</time></trkpt><trkpt lat="46.5979083" lon="12.5217768"><ele>1171.5</ele><time>2026-03-29T09:59:05.945Z</time></trkpt><trkpt lat="46.5980294" lon="12.5218118"><ele>1173.75</ele><time>2026-03-29T09:59:06.954Z</time></trkpt><trkpt lat="46.598147" lon="12.5218882"><ele>1176.0</ele><time>2026-03-29T09:59:07.948Z</time></trkpt><trkpt lat="46.5982616" lon="12.521995"><ele>1170.75</ele><time>2026-03-29T09:59:08.94Z</time></trkpt><trkpt lat="46.5983771" lon="12.5221065"><ele>1165.5</ele><time>2026-03-29T09:59:09.948Z</time></trkpt><trkpt lat="46.5984969" lon="12.5221943"><ele>1160.25</ele><time>2026-03-29T09:59:10.924Z</time></trkpt><trkpt lat="46.598617" lon="12.522286"><ele>1155.0</ele><time>2026-03-29T09:59:11.953Z</time></trkpt><trkpt lat="46.5987345" lon="12.5223819"><ele>1155.0</ele><time>2026-03-29T09:59:12.954Z</time></trkpt><trkpt lat="46.5988473" lon="12.5224848"><ele>1155.0</ele><time>2026-03-29T09:59:13.94Z</time></trkpt><trkpt lat="46.5989642" lon="12.5225756"><ele>1155.0</ele><time>2026-03-29T09:59:14.921Z</time></trkpt><trkpt lat="46.5990809" lon="12.5226641"><ele>1155.0</ele><time>2026-03-29T09:59:15.941Z</time></trkpt><trkpt lat="46.5991983" lon="12.5227381"><ele>1155.0</ele><time>2026-03-29T09:59:16.942Z</time></trkpt><trkpt lat="46.5993155" lon="12.5227811"><ele>1155.0</ele><time>2026-03-29T09:59:17.947Z</time></trkpt><trkpt lat="46.5994316" lon="12.5227766"><ele>1155.0</ele><time>2026-03-29T09:59:18.929Z</time></trkpt><trkpt lat="46.5995452" lon="12.5227539"><ele>1155.0</ele><time>2026-03-29T09:59:19.945Z</time></trkpt><trkpt lat="46.5996581" lon="12.5227257"><ele>1156.0</ele><time>2026-03-29T09:59:20.932Z</time></trkpt><trkpt lat="46.5997742" lon="12.5226927"><ele>1157.0</ele><time>2026-03-29T09:59:21.957Z</time></trkpt><trkpt lat="46.599893" lon="12.5226631"><ele>1158.0</ele><time>2026-03-29T09:59:22.937Z</time></trkpt><trkpt lat="46.6000156" lon="12.5226437"><ele>1159.0</ele><time>2026-03-29T09:59:23.944Z</time></trkpt><trkpt lat="46.6001385" lon="12.5226296"><ele>1159.0</ele><time>2026-03-29T09:59:24.944Z</time></trkpt><trkpt lat="46.6002639" lon="12.5226351"><ele>1159.0</ele><time>2026-03-29T09:59:25.95Z</time></trkpt><trkpt lat="46.6003912" lon="12.5226432"><ele>1159.0</ele><time>2026-03-29T09:59:26.931Z</time></trkpt><trkpt lat="46.6005211" lon="12.5226765"><ele>1159.0</ele><time>2026-03-29T09:59:27.955Z</time></trkpt><trkpt lat="46.6006432" lon="12.5227167"><ele>1161.0</ele><time>2026-03-29T09:59:28.944Z</time></trkpt><trkpt lat="46.6007447" lon="12.5228195"><ele>1163.0</ele><time>2026-03-29T09:59:29.934Z</time></trkpt><trkpt lat="46.600838" lon="12.5229342"><ele>1165.0</ele><time>2026-03-29T09:59:30.93Z</time></trkpt><trkpt lat="46.6009351" lon="12.5230342"><ele>1167.0</ele><time>2026-03-29T09:59:31.953Z</time></trkpt><trkpt lat="46.6010413" lon="12.5231047"><ele>1159.4</ele><time>2026-03-29T09:59:32.928Z</time></trkpt><trkpt lat="46.6011523" lon="12.5231459"><ele>1151.8000000000002</ele><time>2026-03-29T09:59:33.955Z</time></trkpt><trkpt lat="46.6012635" lon="12.5231561"><ele>1144.2</ele><time>2026-03-29T09:59:34.944Z</time></trkpt><trkpt lat="46.601366" lon="12.5231899"><ele>1136.6000000000001</ele><time>2026-03-29T09:59:35.951Z</time></trkpt><trkpt lat="46.6014725" lon="12.5231976"><ele>1129.0</ele><time>2026-03-29T09:59:36.938Z</time></trkpt><trkpt lat="46.601583" lon="12.5232086"><ele>1129.0</ele><time>2026-03-29T09:59:37.943Z</time></trkpt><trkpt lat="46.6016957" lon="12.5232304"><ele>1129.0</ele><time>2026-03-29T09:59:38.941Z</time></trkpt><trkpt lat="46.6018026" lon="12.523277"><ele>1129.0</ele><time>2026-03-29T09:59:39.951Z</time></trkpt><trkpt lat="46.6019039" lon="12.5233627"><ele>1129.0</ele><time>2026-03-29T09:59:40.954Z</time></trkpt><trkpt lat="46.6020008" lon="12.523455"><ele>1131.0</ele><time>2026-03-29T09:59:41.944Z</time></trkpt><trkpt lat="46.6020962" lon="12.5235418"><ele>1133.0</ele><time>2026-03-29T09:59:42.952Z</time></trkpt><trkpt lat="46.6021987" lon="12.5236109"><ele>1135.0</ele><time>2026-03-29T09:59:43.941Z</time></trkpt><trkpt lat="46.6023081" lon="12.5236585"><ele>1137.0</ele><time>2026-03-29T09:59:44.931Z</time></trkpt><trkpt lat="46.6024152" lon="12.5236942"><ele>1137.0</ele><time>2026-03-29T09:59:45.941Z</time></trkpt><trkpt lat="46.6025103" lon="12.5237254"><ele>1137.0</ele><time>2026-03-29T09:59:46.937Z</time></trkpt><trkpt lat="46.6025837" lon="12.5237696"><ele>1137.0</ele><time>2026-03-29T09:59:47.946Z</time></trkpt><trkpt lat="46.6026423" lon="12.5238282"><ele>1137.0</ele><time>2026-03-29T09:59:48.938Z</time></trkpt><trkpt lat="46.6026787" lon="12.5239135"><ele>1137.0</ele><time>2026-03-29T09:59:49.939Z</time></trkpt><trkpt lat="46.6026847" lon="12.5240095"><ele>1137.0</ele><time>2026-03-29T09:59:50.929Z</time></trkpt><trkpt lat="46.6026262" lon="12.5241589"><ele>1133.4</ele><time>2026-03-29T09:59:52.949Z</time></trkpt><trkpt lat="46.6025226" lon="12.5242237"><ele>1129.8000000000002</ele><time>2026-03-29T09:59:54.927Z</time></trkpt><trkpt lat="46.6024541" lon="12.5241952"><ele>1126.2</ele><time>2026-03-29T09:59:55.95Z</time></trkpt><trkpt lat="46.6023799" lon="12.5241241"><ele>1122.6000000000001</ele><time>2026-03-29T09:59:56.952Z</time></trkpt><trkpt lat="46.6022984" lon="12.5240557"><ele>1119.0</ele><time>2026-03-29T09:59:57.958Z</time></trkpt><trkpt lat="46.6022052" lon="12.5239798"><ele>1119.0</ele><time>2026-03-29T09:59:58.955Z</time></trkpt><trkpt lat="46.6021088" lon="12.5238971"><ele>1119.0</ele><time>2026-03-29T09:59:59.941Z</time></trkpt><trkpt lat="46.6020122" lon="12.5237943"><ele>1119.0</ele><time>2026-03-29T10:00:00.94Z</time></trkpt><trkpt lat="46.6019125" lon="12.5237072"><ele>1119.0</ele><time>2026-03-29T10:00:01.941Z</time></trkpt><trkpt lat="46.6018098" lon="12.523639"><ele>1121.0</ele><time>2026-03-29T10:00:02.927Z</time></trkpt><trkpt lat="46.6017072" lon="12.5235928"><ele>1123.0</ele><time>2026-03-29T10:00:03.936Z</time></trkpt><trkpt lat="46.6016025" lon="12.5235521"><ele>1125.0</ele><time>2026-03-29T10:00:04.93Z</time></trkpt><trkpt lat="46.6014925" lon="12.5235335"><ele>1127.0</ele><time>2026-03-29T10:00:05.941Z</time></trkpt><trkpt lat="46.6013795" lon="12.5235232"><ele>1129.0</ele><time>2026-03-29T10:00:06.943Z</time></trkpt><trkpt lat="46.6012671" lon="12.5235125"><ele>1127.6000000000001</ele><time>2026-03-29T10:00:07.954Z</time></trkpt><trkpt lat="46.6011581" lon="12.5234963"><ele>1126.2</ele><time>2026-03-29T10:00:08.947Z</time></trkpt><trkpt lat="46.601052" lon="12.5234776"><ele>1124.8000000000002</ele><time>2026-03-29T10:00:09.938Z</time></trkpt><trkpt lat="46.6009449" lon="12.5234587"><ele>1123.4</ele><time>2026-03-29T10:00:10.946Z</time></trkpt><trkpt lat="46.6008284" lon="12.5234344"><ele>1122.0</ele><time>2026-03-29T10:00:11.939Z</time></trkpt><trkpt lat="46.6007087" lon="12.5234002"><ele>1122.0</ele><time>2026-03-29T10:00:12.935Z</time></trkpt><trkpt lat="46.6005871" lon="12.5233788"><ele>1122.0</ele><time>2026-03-29T10:00:13.945Z</time></trkpt><trkpt lat="46.6004574" lon="12.5233965"><ele>1122.0</ele><time>2026-03-29T10:00:14.957Z</time></trkpt><trkpt lat="46.6003273" lon="12.5234361"><ele>1122.0</ele><time>2026-03-29T10:00:15.931Z</time></trkpt><trkpt lat="46.6001983" lon="12.5234691"><ele>1121.0</ele><time>2026-03-29T10:00:16.952Z</time></trkpt><trkpt lat="46.6000662" lon="12.5234992"><ele>1120.0</ele><time>2026-03-29T10:00:17.936Z</time></trkpt><trkpt lat="46.5999343" lon="12.5235413"><ele>1119.0</ele><time>2026-03-29T10:00:18.952Z</time></trkpt><trkpt lat="46.5998017" lon="12.5236068"><ele>1118.0</ele><time>2026-03-29T10:00:19.949Z</time></trkpt><trkpt lat="46.599678" lon="12.5236978"><ele>1117.75</ele><time>2026-03-29T10:00:20.951Z</time></trkpt><trkpt lat="46.5995598" lon="12.5237961"><ele>1117.5</ele><time>2026-03-29T10:00:21.94Z</time></trkpt><trkpt lat="46.5994501" lon="12.5239116"><ele>1117.25</ele><time>2026-03-29T10:00:22.947Z</time></trkpt><trkpt lat="46.5993481" lon="12.524022"><ele>1117.0</ele><time>2026-03-29T10:00:23.935Z</time></trkpt><trkpt lat="46.5992538" lon="12.5241261"><ele>1117.0</ele><time>2026-03-29T10:00:24.94Z</time></trkpt><trkpt lat="46.59916" lon="12.5242332"><ele>1117.0</ele><time>2026-03-29T10:00:25.96Z</time></trkpt><trkpt lat="46.5990504" lon="12.5243244"><ele>1117.0</ele><time>2026-03-29T10:00:26.941Z</time></trkpt><trkpt lat="46.5989281" lon="12.5243753"><ele>1117.0</ele><time>2026-03-29T10:00:27.936Z</time></trkpt><trkpt lat="46.5988008" lon="12.52436"><ele>1114.0</ele><time>2026-03-29T10:00:28.95Z</time></trkpt><trkpt lat="46.5986636" lon="12.5243108"><ele>1111.0</ele><time>2026-03-29T10:00:29.958Z</time></trkpt><trkpt lat="46.5985315" lon="12.5242555"><ele>1108.0</ele><time>2026-03-29T10:00:30.929Z</time></trkpt><trkpt lat="46.5984075" lon="12.5241607"><ele>1105.0</ele><time>2026-03-29T10:00:31.933Z</time></trkpt><trkpt lat="46.5982939" lon="12.5240417"><ele>1105.0</ele><time>2026-03-29T10:00:32.948Z</time></trkpt><trkpt lat="46.5981924" lon="12.5238999"><ele>1105.0</ele><time>2026-03-29T10:00:33.947Z</time></trkpt><trkpt lat="46.5981019" lon="12.5237531"><ele>1105.0</ele><time>2026-03-29T10:00:34.931Z</time></trkpt><trkpt lat="46.5980195" lon="12.5235999"><ele>1105.0</ele><time>2026-03-29T10:00:35.948Z</time></trkpt><trkpt lat="46.5979346" lon="12.5234657"><ele>1106.75</ele><time>2026-03-29T10:00:36.938Z</time></trkpt><trkpt lat="46.5978403" lon="12.5233547"><ele>1108.5</ele><time>2026-03-29T10:00:37.958Z</time></trkpt><trkpt lat="46.597734" lon="12.5232754"><ele>1110.25</ele><time>2026-03-29T10:00:38.931Z</time></trkpt><trkpt lat="46.5976082" lon="12.5232367"><ele>1112.0</ele><time>2026-03-29T10:00:39.952Z</time></trkpt><trkpt lat="46.5974717" lon="12.5232115"><ele>1112.0</ele><time>2026-03-29T10:00:40.959Z</time></trkpt><trkpt lat="46.5973286" lon="12.5231853"><ele>1112.0</ele><time>2026-03-29T10:00:41.939Z</time></trkpt><trkpt lat="46.5971852" lon="12.5231554"><ele>1112.0</ele><time>2026-03-29T10:00:42.953Z</time></trkpt><trkpt lat="46.5970415" lon="12.5231397"><ele>1112.0</ele><time>2026-03-29T10:00:43.955Z</time></trkpt><trkpt lat="46.5968951" lon="12.5231504"><ele>1110.75</ele><time>2026-03-29T10:00:44.932Z</time></trkpt><trkpt lat="46.5967488" lon="12.5231894"><ele>1109.5</ele><time>2026-03-29T10:00:45.943Z</time></trkpt><trkpt lat="46.5966048" lon="12.5232255"><ele>1108.25</ele><time>2026-03-29T10:00:46.953Z</time></trkpt><trkpt lat="46.5964618" lon="12.5232534"><ele>1107.0</ele><time>2026-03-29T10:00:47.948Z</time></trkpt><trkpt lat="46.596325" lon="12.5232816"><ele>1107.0</ele><time>2026-03-29T10:00:48.934Z</time></trkpt><trkpt lat="46.5961843" lon="12.5232799"><ele>1107.0</ele><time>2026-03-29T10:00:49.929Z</time></trkpt><trkpt lat="46.5960425" lon="12.5232741"><ele>1107.0</ele><time>2026-03-29T10:00:50.945Z</time></trkpt><trkpt lat="46.5959026" lon="12.5232551"><ele>1107.0</ele><time>2026-03-29T10:00:51.963Z</time></trkpt><trkpt lat="46.5957662" lon="12.5232159"><ele>1104.75</ele><time>2026-03-29T10:00:52.944Z</time></trkpt><trkpt lat="46.5956312" lon="12.5231737"><ele>1102.5</ele><time>2026-03-29T10:00:53.961Z</time></trkpt><trkpt lat="46.5954941" lon="12.5231202"><ele>1100.25</ele><time>2026-03-29T10:00:54.944Z</time></trkpt><trkpt lat="46.595352" lon="12.5230433"><ele>1098.0</ele><time>2026-03-29T10:00:55.948Z</time></trkpt><trkpt lat="46.5952024" lon="12.5229893"><ele>1101.3333333333333</ele><time>2026-03-29T10:00:56.95Z</time></trkpt><trkpt lat="46.5950462" lon="12.5229313"><ele>1104.6666666666665</ele><time>2026-03-29T10:00:57.965Z</time></trkpt><trkpt lat="46.5948911" lon="12.522882"><ele>1108.0</ele><time>2026-03-29T10:00:58.938Z</time></trkpt><trkpt lat="46.5947394" lon="12.5228364"><ele>1108.0</ele><time>2026-03-29T10:00:59.964Z</time></trkpt><trkpt lat="46.5945924" lon="12.5227871"><ele>1108.0</ele><time>2026-03-29T10:01:00.939Z</time></trkpt><trkpt lat="46.5944492" lon="12.5227417"><ele>1108.0</ele><time>2026-03-29T10:01:01.945Z</time></trkpt><trkpt lat="46.5943065" lon="12.52272"><ele>1108.0</ele><time>2026-03-29T10:01:02.939Z</time></trkpt><trkpt lat="46.5941654" lon="12.5226968"><ele>1105.5</ele><time>2026-03-29T10:01:03.931Z</time></trkpt><trkpt lat="46.5940245" lon="12.5227146"><ele>1103.0</ele><time>2026-03-29T10:01:04.939Z</time></trkpt><trkpt lat="46.5938911" lon="12.5227632"><ele>1100.5</ele><time>2026-03-29T10:01:05.951Z</time></trkpt><trkpt lat="46.5937665" lon="12.5227984"><ele>1098.0</ele><time>2026-03-29T10:01:06.928Z</time></trkpt><trkpt lat="46.5936562" lon="12.5228012"><ele>1095.8</ele><time>2026-03-29T10:01:07.944Z</time></trkpt><trkpt lat="46.5935469" lon="12.5227791"><ele>1093.6</ele><time>2026-03-29T10:01:08.938Z</time></trkpt><trkpt lat="46.5934505" lon="12.5227163"><ele>1091.4</ele><time>2026-03-29T10:01:09.945Z</time></trkpt><trkpt lat="46.5933619" lon="12.5226219"><ele>1089.2</ele><time>2026-03-29T10:01:10.944Z</time></trkpt><trkpt lat="46.5932789" lon="12.5225202"><ele>1087.0</ele><time>2026-03-29T10:01:11.961Z</time></trkpt><trkpt lat="46.593193" lon="12.5224471"><ele>1087.0</ele><time>2026-03-29T10:01:12.934Z</time></trkpt><trkpt lat="46.5930795" lon="12.5224478"><ele>1087.0</ele><time>2026-03-29T10:01:13.937Z</time></trkpt><trkpt lat="46.5929645" lon="12.5224678"><ele>1087.0</ele><time>2026-03-29T10:01:14.934Z</time></trkpt><trkpt lat="46.5928515" lon="12.5224771"><ele>1087.0</ele><time>2026-03-29T10:01:15.945Z</time></trkpt><trkpt lat="46.5927349" lon="12.5224738"><ele>1083.0</ele><time>2026-03-29T10:01:16.938Z</time></trkpt><trkpt lat="46.5926145" lon="12.5224112"><ele>1079.0</ele><time>2026-03-29T10:01:17.953Z</time></trkpt><trkpt lat="46.5924859" lon="12.5223592"><ele>1075.0</ele><time>2026-03-29T10:01:18.93Z</time></trkpt><trkpt lat="46.5923522" lon="12.5223271"><ele>1071.0</ele><time>2026-03-29T10:01:19.949Z</time></trkpt><trkpt lat="46.5922204" lon="12.5222972"><ele>1071.0</ele><time>2026-03-29T10:01:20.935Z</time></trkpt><trkpt lat="46.5920788" lon="12.5223235"><ele>1071.0</ele><time>2026-03-29T10:01:21.953Z</time></trkpt><trkpt lat="46.5919374" lon="12.5223518"><ele>1071.0</ele><time>2026-03-29T10:01:22.953Z</time></trkpt><trkpt lat="46.5918064" lon="12.5224277"><ele>1071.0</ele><time>2026-03-29T10:01:23.947Z</time></trkpt><trkpt lat="46.5916738" lon="12.5224803"><ele>1069.5</ele><time>2026-03-29T10:01:24.949Z</time></trkpt><trkpt lat="46.591536" lon="12.522527"><ele>1068.0</ele><time>2026-03-29T10:01:25.944Z</time></trkpt><trkpt lat="46.5913931" lon="12.5225205"><ele>1066.5</ele><time>2026-03-29T10:01:26.969Z</time></trkpt><trkpt lat="46.5912513" lon="12.5224618"><ele>1065.0</ele><time>2026-03-29T10:01:27.954Z</time></trkpt><trkpt lat="46.5911087" lon="12.5224599"><ele>1062.5</ele><time>2026-03-29T10:01:28.929Z</time></trkpt><trkpt lat="46.5909649" lon="12.5224144"><ele>1060.0</ele><time>2026-03-29T10:01:29.952Z</time></trkpt><trkpt lat="46.5908213" lon="12.5223852"><ele>1057.5</ele><time>2026-03-29T10:01:30.933Z</time></trkpt><trkpt lat="46.5906783" lon="12.522353"><ele>1055.0</ele><time>2026-03-29T10:01:31.942Z</time></trkpt><trkpt lat="46.5905325" lon="12.5223644"><ele>1055.0</ele><time>2026-03-29T10:01:32.944Z</time></trkpt><trkpt lat="46.590386" lon="12.5223693"><ele>1055.0</ele><time>2026-03-29T10:01:33.959Z</time></trkpt><trkpt lat="46.5902422" lon="12.5223707"><ele>1055.0</ele><time>2026-03-29T10:01:34.956Z</time></trkpt><trkpt lat="46.5901021" lon="12.5223791"><ele>1055.0</ele><time>2026-03-29T10:01:35.979Z</time></trkpt><trkpt lat="46.5899636" lon="12.5224061"><ele>1054.0</ele><time>2026-03-29T10:01:36.955Z</time></trkpt><trkpt lat="46.5898254" lon="12.5224411"><ele>1053.0</ele><time>2026-03-29T10:01:37.95Z</time></trkpt><trkpt lat="46.589689" lon="12.5224817"><ele>1052.0</ele><time>2026-03-29T10:01:38.954Z</time></trkpt><trkpt lat="46.5895536" lon="12.5225144"><ele>1051.0</ele><time>2026-03-29T10:01:39.955Z</time></trkpt><trkpt lat="46.5894209" lon="12.5225203"><ele>1049.5</ele><time>2026-03-29T10:01:40.962Z</time></trkpt><trkpt lat="46.5892942" lon="12.5224815"><ele>1048.0</ele><time>2026-03-29T10:01:41.975Z</time></trkpt><trkpt lat="46.5891838" lon="12.522417"><ele>1046.5</ele><time>2026-03-29T10:01:42.948Z</time></trkpt><trkpt lat="46.5890817" lon="12.5223607"><ele>1045.0</ele><time>2026-03-29T10:01:43.971Z</time></trkpt><trkpt lat="46.588983" lon="12.5223384"><ele>1045.0</ele><time>2026-03-29T10:01:44.955Z</time></trkpt><trkpt lat="46.5888861" lon="12.5223721"><ele>1045.0</ele><time>2026-03-29T10:01:45.942Z</time></trkpt><trkpt lat="46.5888026" lon="12.5224446"><ele>1045.0</ele><time>2026-03-29T10:01:46.951Z</time></trkpt><trkpt lat="46.588742" lon="12.5225432"><ele>1045.0</ele><time>2026-03-29T10:01:47.95Z</time></trkpt><trkpt lat="46.5887061" lon="12.5226676"><ele>1045.0</ele><time>2026-03-29T10:01:48.943Z</time></trkpt><trkpt lat="46.5886906" lon="12.522804"><ele>1042.8333333333333</ele><time>2026-03-29T10:01:49.946Z</time></trkpt><trkpt lat="46.5886845" lon="12.5229324"><ele>1040.6666666666665</ele><time>2026-03-29T10:01:50.948Z</time></trkpt><trkpt lat="46.5886993" lon="12.5230593"><ele>1038.5</ele><time>2026-03-29T10:01:51.934Z</time></trkpt><trkpt lat="46.5886945" lon="12.5231744"><ele>1036.3333333333333</ele><time>2026-03-29T10:01:52.941Z</time></trkpt><trkpt lat="46.5886709" lon="12.5232785"><ele>1034.1666666666667</ele><time>2026-03-29T10:01:53.947Z</time></trkpt><trkpt lat="46.5886274" lon="12.523365"><ele>1032.0</ele><time>2026-03-29T10:01:54.934Z</time></trkpt><trkpt lat="46.5885761" lon="12.5234332"><ele>1031.5</ele><time>2026-03-29T10:01:55.936Z</time></trkpt><trkpt lat="46.588517" lon="12.523485"><ele>1031.0</ele><time>2026-03-29T10:01:56.939Z</time></trkpt><trkpt lat="46.5884522" lon="12.5235273"><ele>1030.5</ele><time>2026-03-29T10:01:57.932Z</time></trkpt><trkpt lat="46.5883643" lon="12.523536"><ele>1030.0</ele><time>2026-03-29T10:01:58.94Z</time></trkpt><trkpt lat="46.5882627" lon="12.5235492"><ele>1029.5</ele><time>2026-03-29T10:01:59.94Z</time></trkpt><trkpt lat="46.5881449" lon="12.5235524"><ele>1029.0</ele><time>2026-03-29T10:02:00.943Z</time></trkpt><trkpt lat="46.5880156" lon="12.5235728"><ele>1029.0</ele><time>2026-03-29T10:02:01.953Z</time></trkpt><trkpt lat="46.5878824" lon="12.523635"><ele>1029.0</ele><time>2026-03-29T10:02:02.957Z</time></trkpt><trkpt lat="46.5877528" lon="12.5237219"><ele>1029.0</ele><time>2026-03-29T10:02:03.967Z</time></trkpt><trkpt lat="46.5876181" lon="12.5237762"><ele>1029.0</ele><time>2026-03-29T10:02:04.936Z</time></trkpt><trkpt lat="46.587481" lon="12.523802"><ele>1027.25</ele><time>2026-03-29T10:02:05.949Z</time></trkpt><trkpt lat="46.5873451" lon="12.5237919"><ele>1025.5</ele><time>2026-03-29T10:02:06.951Z</time></trkpt><trkpt lat="46.5872045" lon="12.5237471"><ele>1023.75</ele><time>2026-03-29T10:02:07.946Z</time></trkpt><trkpt lat="46.5870569" lon="12.5237048"><ele>1022.0</ele><time>2026-03-29T10:02:08.946Z</time></trkpt><trkpt lat="46.5869023" lon="12.5236681"><ele>1020.3333333333334</ele><time>2026-03-29T10:02:09.951Z</time></trkpt><trkpt lat="46.5867434" lon="12.5236339"><ele>1018.6666666666667</ele><time>2026-03-29T10:02:10.944Z</time></trkpt><trkpt lat="46.5865815" lon="12.5235898"><ele>1017.0</ele><time>2026-03-29T10:02:11.934Z</time></trkpt><trkpt lat="46.5864233" lon="12.5235282"><ele>1017.0</ele><time>2026-03-29T10:02:12.942Z</time></trkpt><trkpt lat="46.5862691" lon="12.5234508"><ele>1017.0</ele><time>2026-03-29T10:02:13.954Z</time></trkpt><trkpt lat="46.5861141" lon="12.5233853"><ele>1017.0</ele><time>2026-03-29T10:02:14.938Z</time></trkpt><trkpt lat="46.585954" lon="12.5233227"><ele>1017.3333333333333</ele><time>2026-03-29T10:02:15.948Z</time></trkpt><trkpt lat="46.5857894" lon="12.5232905"><ele>1017.6666666666666</ele><time>2026-03-29T10:02:16.938Z</time></trkpt><trkpt lat="46.5856264" lon="12.5232563"><ele>1018.0</ele><time>2026-03-29T10:02:17.959Z</time></trkpt><trkpt lat="46.5854646" lon="12.5232149"><ele>1020.6666666666666</ele><time>2026-03-29T10:02:18.952Z</time></trkpt><trkpt lat="46.5853111" lon="12.5231545"><ele>1023.3333333333333</ele><time>2026-03-29T10:02:19.95Z</time></trkpt><trkpt lat="46.5851627" lon="12.5231"><ele>1026.0</ele><time>2026-03-29T10:02:20.938Z</time></trkpt><trkpt lat="46.585024" lon="12.5230085"><ele>1026.0</ele><time>2026-03-29T10:02:21.964Z</time></trkpt><trkpt lat="46.5848925" lon="12.5229143"><ele>1026.0</ele><time>2026-03-29T10:02:22.935Z</time></trkpt><trkpt lat="46.5847634" lon="12.522824"><ele>1026.0</ele><time>2026-03-29T10:02:23.951Z</time></trkpt><trkpt lat="46.5846272" lon="12.5227618"><ele>1026.0</ele><time>2026-03-29T10:02:24.933Z</time></trkpt><trkpt lat="46.5844861" lon="12.522719"><ele>1020.25</ele><time>2026-03-29T10:02:25.945Z</time></trkpt><trkpt lat="46.584343" lon="12.5226943"><ele>1014.5</ele><time>2026-03-29T10:02:26.942Z</time></trkpt><trkpt lat="46.5842009" lon="12.5226793"><ele>1008.75</ele><time>2026-03-29T10:02:27.97Z</time></trkpt><trkpt lat="46.5840635" lon="12.5226759"><ele>1003.0</ele><time>2026-03-29T10:02:28.938Z</time></trkpt><trkpt lat="46.583928" lon="12.5226626"><ele>1003.0</ele><time>2026-03-29T10:02:29.952Z</time></trkpt><trkpt lat="46.5837889" lon="12.5226627"><ele>1003.0</ele><time>2026-03-29T10:02:30.945Z</time></trkpt><trkpt lat="46.5836472" lon="12.5226958"><ele>1003.0</ele><time>2026-03-29T10:02:31.955Z</time></trkpt><trkpt lat="46.5835097" lon="12.5227423"><ele>1003.0</ele><time>2026-03-29T10:02:32.944Z</time></trkpt><trkpt lat="46.5833891" lon="12.5228289"><ele>1003.75</ele><time>2026-03-29T10:02:33.958Z</time></trkpt><trkpt lat="46.5832837" lon="12.5229458"><ele>1004.5</ele><time>2026-03-29T10:02:34.943Z</time></trkpt><trkpt lat="46.5831802" lon="12.5230657"><ele>1005.25</ele><time>2026-03-29T10:02:35.942Z</time></trkpt><trkpt lat="46.5830779" lon="12.5232011"><ele>1006.0</ele><time>2026-03-29T10:02:36.94Z</time></trkpt><trkpt lat="46.5830022" lon="12.5233803"><ele>1006.0</ele><time>2026-03-29T10:02:37.939Z</time></trkpt><trkpt lat="46.5828882" lon="12.5234965"><ele>1006.0</ele><time>2026-03-29T10:02:38.949Z</time></trkpt><trkpt lat="46.5827933" lon="12.5236392"><ele>1006.0</ele><time>2026-03-29T10:02:39.948Z</time></trkpt><trkpt lat="46.582702" lon="12.5237882"><ele>1006.0</ele><time>2026-03-29T10:02:40.931Z</time></trkpt><trkpt lat="46.5826133" lon="12.5239408"><ele>1002.5</ele><time>2026-03-29T10:02:41.966Z</time></trkpt><trkpt lat="46.5825059" lon="12.5240618"><ele>999.0</ele><time>2026-03-29T10:02:42.94Z</time></trkpt><trkpt lat="46.5824038" lon="12.5241874"><ele>995.5</ele><time>2026-03-29T10:02:43.955Z</time></trkpt><trkpt lat="46.5823194" lon="12.524331"><ele>992.0</ele><time>2026-03-29T10:02:44.945Z</time></trkpt><trkpt lat="46.5822298" lon="12.5244474"><ele>992.0</ele><time>2026-03-29T10:02:45.951Z</time></trkpt><trkpt lat="46.5821326" lon="12.5245341"><ele>992.0</ele><time>2026-03-29T10:02:46.938Z</time></trkpt><trkpt lat="46.5820458" lon="12.5246239"><ele>992.0</ele><time>2026-03-29T10:02:47.934Z</time></trkpt><trkpt lat="46.5819662" lon="12.5247156"><ele>992.0</ele><time>2026-03-29T10:02:48.935Z</time></trkpt><trkpt lat="46.5818851" lon="12.5248013"><ele>992.0</ele><time>2026-03-29T10:02:49.956Z</time></trkpt><trkpt lat="46.5818104" lon="12.524901"><ele>992.5</ele><time>2026-03-29T10:02:50.935Z</time></trkpt><trkpt lat="46.5817216" lon="12.524996"><ele>993.0</ele><time>2026-03-29T10:02:51.941Z</time></trkpt><trkpt lat="46.5816278" lon="12.525107"><ele>993.5</ele><time>2026-03-29T10:02:52.941Z</time></trkpt><trkpt lat="46.5815278" lon="12.5252183"><ele>994.0</ele><time>2026-03-29T10:02:53.939Z</time></trkpt><trkpt lat="46.5814275" lon="12.5253364"><ele>996.75</ele><time>2026-03-29T10:02:54.939Z</time></trkpt><trkpt lat="46.5813302" lon="12.525468"><ele>999.5</ele><time>2026-03-29T10:02:55.941Z</time></trkpt><trkpt lat="46.5812285" lon="12.5255969"><ele>1002.25</ele><time>2026-03-29T10:02:56.945Z</time></trkpt><trkpt lat="46.5811207" lon="12.5257235"><ele>1005.0</ele><time>2026-03-29T10:02:57.964Z</time></trkpt><trkpt lat="46.5810216" lon="12.5258585"><ele>1002.25</ele><time>2026-03-29T10:02:58.932Z</time></trkpt><trkpt lat="46.5809435" lon="12.5260065"><ele>999.5</ele><time>2026-03-29T10:02:59.942Z</time></trkpt><trkpt lat="46.5808546" lon="12.5261342"><ele>996.75</ele><time>2026-03-29T10:03:00.944Z</time></trkpt><trkpt lat="46.5807876" lon="12.5262701"><ele>994.0</ele><time>2026-03-29T10:03:01.954Z</time></trkpt><trkpt lat="46.5807224" lon="12.5264002"><ele>994.0</ele><time>2026-03-29T10:03:02.962Z</time></trkpt><trkpt lat="46.5806554" lon="12.52652"><ele>994.0000000000001</ele><time>2026-03-29T10:03:03.954Z</time></trkpt><trkpt lat="46.5805865" lon="12.5266327"><ele>994.0000000000001</ele><time>2026-03-29T10:03:04.937Z</time></trkpt><trkpt lat="46.5805152" lon="12.5267406"><ele>994.0</ele><time>2026-03-29T10:03:05.934Z</time></trkpt><trkpt lat="46.5804392" lon="12.5268506"><ele>994.0</ele><time>2026-03-29T10:03:06.937Z</time></trkpt><trkpt lat="46.5803559" lon="12.5269631"><ele>992.0</ele><time>2026-03-29T10:03:07.956Z</time></trkpt><trkpt lat="46.5802752" lon="12.5270886"><ele>990.0</ele><time>2026-03-29T10:03:08.95Z</time></trkpt><trkpt lat="46.5801926" lon="12.5272205"><ele>988.0</ele><time>2026-03-29T10:03:09.945Z</time></trkpt><trkpt lat="46.5801054" lon="12.5273551"><ele>986.0</ele><time>2026-03-29T10:03:10.936Z</time></trkpt><trkpt lat="46.5800041" lon="12.5274786"><ele>986.0</ele><time>2026-03-29T10:03:11.958Z</time></trkpt><trkpt lat="46.5798949" lon="12.5275932"><ele>986.0</ele><time>2026-03-29T10:03:12.938Z</time></trkpt><trkpt lat="46.5798023" lon="12.5277418"><ele>986.0</ele><time>2026-03-29T10:03:13.971Z</time></trkpt><trkpt lat="46.5796939" lon="12.5278711"><ele>986.0</ele><time>2026-03-29T10:03:14.944Z</time></trkpt><trkpt lat="46.5795952" lon="12.5280201"><ele>985.0</ele><time>2026-03-29T10:03:15.937Z</time></trkpt><trkpt lat="46.5794949" lon="12.5281783"><ele>984.0</ele><time>2026-03-29T10:03:16.942Z</time></trkpt><trkpt lat="46.5793847" lon="12.5283233"><ele>983.0</ele><time>2026-03-29T10:03:17.944Z</time></trkpt><trkpt lat="46.5792638" lon="12.5284591"><ele>982.0</ele><time>2026-03-29T10:03:18.945Z</time></trkpt><trkpt lat="46.5791576" lon="12.5286211"><ele>986.5</ele><time>2026-03-29T10:03:19.943Z</time></trkpt><trkpt lat="46.5790481" lon="12.5287726"><ele>991.0</ele><time>2026-03-29T10:03:20.941Z</time></trkpt><trkpt lat="46.5789407" lon="12.5289183"><ele>995.5</ele><time>2026-03-29T10:03:21.943Z</time></trkpt><trkpt lat="46.5788392" lon="12.5290646"><ele>1000.0</ele><time>2026-03-29T10:03:22.947Z</time></trkpt><trkpt lat="46.5787329" lon="12.5292005"><ele>996.75</ele><time>2026-03-29T10:03:23.962Z</time></trkpt><trkpt lat="46.578635" lon="12.5293381"><ele>993.5</ele><time>2026-03-29T10:03:24.943Z</time></trkpt><trkpt lat="46.578537" lon="12.5294679"><ele>990.25</ele><time>2026-03-29T10:03:25.963Z</time></trkpt><trkpt lat="46.5784408" lon="12.5295921"><ele>987.0</ele><time>2026-03-29T10:03:26.946Z</time></trkpt><trkpt lat="46.5783262" lon="12.5296779"><ele>987.0</ele><time>2026-03-29T10:03:27.963Z</time></trkpt><trkpt lat="46.5782285" lon="12.5297852"><ele>987.0</ele><time>2026-03-29T10:03:28.953Z</time></trkpt><trkpt lat="46.5781415" lon="12.5299069"><ele>987.0</ele><time>2026-03-29T10:03:29.96Z</time></trkpt><trkpt lat="46.5780485" lon="12.5300148"><ele>987.0</ele><time>2026-03-29T10:03:30.941Z</time></trkpt><trkpt lat="46.5779568" lon="12.5301224"><ele>987.0</ele><time>2026-03-29T10:03:31.952Z</time></trkpt><trkpt lat="46.577873" lon="12.5302395"><ele>987.0</ele><time>2026-03-29T10:03:32.953Z</time></trkpt><trkpt lat="46.5777947" lon="12.530365"><ele>987.0</ele><time>2026-03-29T10:03:33.953Z</time></trkpt><trkpt lat="46.5777161" lon="12.5304949"><ele>987.0</ele><time>2026-03-29T10:03:34.948Z</time></trkpt><trkpt lat="46.5776346" lon="12.5306158"><ele>985.25</ele><time>2026-03-29T10:03:35.947Z</time></trkpt><trkpt lat="46.5775346" lon="12.5307161"><ele>983.5</ele><time>2026-03-29T10:03:36.946Z</time></trkpt><trkpt lat="46.5774489" lon="12.5308347"><ele>981.75</ele><time>2026-03-29T10:03:37.949Z</time></trkpt><trkpt lat="46.5773691" lon="12.5309593"><ele>980.0</ele><time>2026-03-29T10:03:38.962Z</time></trkpt><trkpt lat="46.5772861" lon="12.5310802"><ele>980.0</ele><time>2026-03-29T10:03:39.946Z</time></trkpt><trkpt lat="46.577216" lon="12.5312224"><ele>980.0</ele><time>2026-03-29T10:03:40.951Z</time></trkpt><trkpt lat="46.5771426" lon="12.5313614"><ele>980.0</ele><time>2026-03-29T10:03:41.952Z</time></trkpt><trkpt lat="46.5770679" lon="12.5314942"><ele>980.0</ele><time>2026-03-29T10:03:42.952Z</time></trkpt><trkpt lat="46.5769917" lon="12.5316243"><ele>980.25</ele><time>2026-03-29T10:03:43.951Z</time></trkpt><trkpt lat="46.5769119" lon="12.5317482"><ele>980.5</ele><time>2026-03-29T10:03:44.944Z</time></trkpt><trkpt lat="46.576829" lon="12.5318681"><ele>980.75</ele><time>2026-03-29T10:03:45.949Z</time></trkpt><trkpt lat="46.5767416" lon="12.5319792"><ele>981.0</ele><time>2026-03-29T10:03:46.949Z</time></trkpt><trkpt lat="46.5766481" lon="12.5320852"><ele>981.0</ele><time>2026-03-29T10:03:47.951Z</time></trkpt><trkpt lat="46.5765505" lon="12.5321897"><ele>981.0</ele><time>2026-03-29T10:03:48.971Z</time></trkpt><trkpt lat="46.5764573" lon="12.5322994"><ele>981.0</ele><time>2026-03-29T10:03:49.966Z</time></trkpt><trkpt lat="46.5763533" lon="12.5323883"><ele>981.0</ele><time>2026-03-29T10:03:50.964Z</time></trkpt><trkpt lat="46.5762611" lon="12.5324886"><ele>979.5999999999999</ele><time>2026-03-29T10:03:51.961Z</time></trkpt><trkpt lat="46.5761819" lon="12.5325952"><ele>978.1999999999999</ele><time>2026-03-29T10:03:52.949Z</time></trkpt><trkpt lat="46.5760945" lon="12.5326787"><ele>976.8000000000001</ele><time>2026-03-29T10:03:53.963Z</time></trkpt><trkpt lat="46.5760047" lon="12.5327314"><ele>975.4000000000001</ele><time>2026-03-29T10:03:54.94Z</time></trkpt><trkpt lat="46.575927" lon="12.5327897"><ele>974.0</ele><time>2026-03-29T10:03:55.944Z</time></trkpt><trkpt lat="46.5758182" lon="12.5327733"><ele>974.0</ele><time>2026-03-29T10:03:56.943Z</time></trkpt><trkpt lat="46.5757147" lon="12.5327751"><ele>974.0000000000001</ele><time>2026-03-29T10:03:57.947Z</time></trkpt><trkpt lat="46.5756088" lon="12.5328014"><ele>974.0000000000001</ele><time>2026-03-29T10:03:58.959Z</time></trkpt><trkpt lat="46.5755023" lon="12.5328581"><ele>974.0</ele><time>2026-03-29T10:03:59.959Z</time></trkpt><trkpt lat="46.5753991" lon="12.5329314"><ele>974.0</ele><time>2026-03-29T10:04:00.949Z</time></trkpt><trkpt lat="46.5753007" lon="12.5330147"><ele>974.0</ele><time>2026-03-29T10:04:01.946Z</time></trkpt><trkpt lat="46.5752044" lon="12.5331076"><ele>974.0</ele><time>2026-03-29T10:04:02.932Z</time></trkpt><trkpt lat="46.57512" lon="12.5332324"><ele>974.0</ele><time>2026-03-29T10:04:03.943Z</time></trkpt><trkpt lat="46.5750349" lon="12.5333604"><ele>974.0</ele><time>2026-03-29T10:04:04.945Z</time></trkpt><trkpt lat="46.5749683" lon="12.5335127"><ele>974.0</ele><time>2026-03-29T10:04:05.951Z</time></trkpt><trkpt lat="46.5748991" lon="12.5336535"><ele>974.0</ele><time>2026-03-29T10:04:06.953Z</time></trkpt><trkpt lat="46.5748205" lon="12.5337786"><ele>974.0</ele><time>2026-03-29T10:04:07.96Z</time></trkpt><trkpt lat="46.5747289" lon="12.5338896"><ele>974.0</ele><time>2026-03-29T10:04:08.953Z</time></trkpt><trkpt lat="46.5746083" lon="12.5339497"><ele>973.25</ele><time>2026-03-29T10:04:09.939Z</time></trkpt><trkpt lat="46.5744809" lon="12.5340025"><ele>972.5</ele><time>2026-03-29T10:04:10.942Z</time></trkpt><trkpt lat="46.5743555" lon="12.5340666"><ele>971.75</ele><time>2026-03-29T10:04:11.944Z</time></trkpt><trkpt lat="46.5742276" lon="12.5341364"><ele>971.0</ele><time>2026-03-29T10:04:12.943Z</time></trkpt><trkpt lat="46.5740987" lon="12.534212"><ele>971.0</ele><time>2026-03-29T10:04:13.947Z</time></trkpt><trkpt lat="46.5739705" lon="12.5342944"><ele>971.0</ele><time>2026-03-29T10:04:14.937Z</time></trkpt><trkpt lat="46.5738449" lon="12.5343871"><ele>971.0</ele><time>2026-03-29T10:04:15.937Z</time></trkpt><trkpt lat="46.5737211" lon="12.5344844"><ele>971.0</ele><time>2026-03-29T10:04:16.942Z</time></trkpt><trkpt lat="46.5735989" lon="12.534584"><ele>972.25</ele><time>2026-03-29T10:04:17.941Z</time></trkpt><trkpt lat="46.5734757" lon="12.5346794"><ele>973.5</ele><time>2026-03-29T10:04:18.948Z</time></trkpt><trkpt lat="46.5733594" lon="12.5347847"><ele>974.75</ele><time>2026-03-29T10:04:19.952Z</time></trkpt><trkpt lat="46.5732433" lon="12.534886"><ele>976.0</ele><time>2026-03-29T10:04:20.939Z</time></trkpt><trkpt lat="46.5731292" lon="12.534986"><ele>976.0</ele><time>2026-03-29T10:04:21.953Z</time></trkpt><trkpt lat="46.5730068" lon="12.5350698"><ele>976.0</ele><time>2026-03-29T10:04:22.954Z</time></trkpt><trkpt lat="46.5728796" lon="12.535144"><ele>976.0</ele><time>2026-03-29T10:04:23.979Z</time></trkpt><trkpt lat="46.572745" lon="12.5351822"><ele>976.0</ele><time>2026-03-29T10:04:24.941Z</time></trkpt><trkpt lat="46.5726116" lon="12.5351834"><ele>975.5</ele><time>2026-03-29T10:04:25.945Z</time></trkpt><trkpt lat="46.572477" lon="12.5351666"><ele>975.0</ele><time>2026-03-29T10:04:26.941Z</time></trkpt><trkpt lat="46.5723345" lon="12.5351545"><ele>974.5</ele><time>2026-03-29T10:04:27.931Z</time></trkpt><trkpt lat="46.5721825" lon="12.5351868"><ele>974.0</ele><time>2026-03-29T10:04:28.941Z</time></trkpt><trkpt lat="46.572032" lon="12.5352122"><ele>972.0</ele><time>2026-03-29T10:04:29.945Z</time></trkpt><trkpt lat="46.571882" lon="12.535264"><ele>970.0</ele><time>2026-03-29T10:04:30.941Z</time></trkpt><trkpt lat="46.5717346" lon="12.535341"><ele>968.0</ele><time>2026-03-29T10:04:31.948Z</time></trkpt><trkpt lat="46.5715911" lon="12.5354272"><ele>966.5</ele><time>2026-03-29T10:04:32.948Z</time></trkpt><trkpt lat="46.5714507" lon="12.5355071"><ele>965.0</ele><time>2026-03-29T10:04:33.936Z</time></trkpt><trkpt lat="46.5713149" lon="12.5356037"><ele>963.5</ele><time>2026-03-29T10:04:34.958Z</time></trkpt><trkpt lat="46.5711998" lon="12.5357131"><ele>962.0</ele><time>2026-03-29T10:04:35.935Z</time></trkpt><trkpt lat="46.5710981" lon="12.535854"><ele>962.0</ele><time>2026-03-29T10:04:36.946Z</time></trkpt><trkpt lat="46.5709993" lon="12.5360211"><ele>962.0</ele><time>2026-03-29T10:04:37.958Z</time></trkpt><trkpt lat="46.5708981" lon="12.5361963"><ele>962.0</ele><time>2026-03-29T10:04:38.937Z</time></trkpt><trkpt lat="46.5707972" lon="12.5363838"><ele>968.6666666666667</ele><time>2026-03-29T10:04:39.958Z</time></trkpt><trkpt lat="46.570682" lon="12.5365601"><ele>975.3333333333333</ele><time>2026-03-29T10:04:40.941Z</time></trkpt><trkpt lat="46.5705458" lon="12.5366965"><ele>982.0</ele><time>2026-03-29T10:04:41.954Z</time></trkpt><trkpt lat="46.5703952" lon="12.5368022"><ele>979.0</ele><time>2026-03-29T10:04:42.949Z</time></trkpt><trkpt lat="46.5702581" lon="12.5369261"><ele>976.0</ele><time>2026-03-29T10:04:43.953Z</time></trkpt><trkpt lat="46.5701273" lon="12.5370541"><ele>973.0</ele><time>2026-03-29T10:04:44.946Z</time></trkpt><trkpt lat="46.569993" lon="12.5371655"><ele>973.0</ele><time>2026-03-29T10:04:45.948Z</time></trkpt><trkpt lat="46.5698534" lon="12.5372413"><ele>973.0</ele><time>2026-03-29T10:04:46.945Z</time></trkpt><trkpt lat="46.5697113" lon="12.5372808"><ele>973.0</ele><time>2026-03-29T10:04:47.946Z</time></trkpt><trkpt lat="46.5695774" lon="12.5373013"><ele>973.0</ele><time>2026-03-29T10:04:48.946Z</time></trkpt><trkpt lat="46.5694412" lon="12.53732"><ele>968.0</ele><time>2026-03-29T10:04:49.945Z</time></trkpt><trkpt lat="46.5693095" lon="12.5373812"><ele>963.0</ele><time>2026-03-29T10:04:50.967Z</time></trkpt><trkpt lat="46.5691833" lon="12.5374566"><ele>958.0</ele><time>2026-03-29T10:04:51.95Z</time></trkpt><trkpt lat="46.569065" lon="12.5375644"><ele>953.0</ele><time>2026-03-29T10:04:52.942Z</time></trkpt><trkpt lat="46.568949" lon="12.5376809"><ele>953.0</ele><time>2026-03-29T10:04:53.943Z</time></trkpt><trkpt lat="46.5688332" lon="12.5378095"><ele>953.0</ele><time>2026-03-29T10:04:54.922Z</time></trkpt><trkpt lat="46.5687166" lon="12.5379511"><ele>953.0</ele><time>2026-03-29T10:04:55.963Z</time></trkpt><trkpt lat="46.5685969" lon="12.538098"><ele>950.0</ele><time>2026-03-29T10:04:56.932Z</time></trkpt><trkpt lat="46.5684918" lon="12.5382803"><ele>947.0</ele><time>2026-03-29T10:04:57.943Z</time></trkpt><trkpt lat="46.5683808" lon="12.5384584"><ele>944.0</ele><time>2026-03-29T10:04:58.94Z</time></trkpt><trkpt lat="46.5682615" lon="12.5386267"><ele>949.0</ele><time>2026-03-29T10:04:59.942Z</time></trkpt><trkpt lat="46.5681464" lon="12.5388062"><ele>954.0</ele><time>2026-03-29T10:05:00.947Z</time></trkpt><trkpt lat="46.568034" lon="12.5389906"><ele>959.0</ele><time>2026-03-29T10:05:01.944Z</time></trkpt><trkpt lat="46.5679078" lon="12.5391584"><ele>955.0</ele><time>2026-03-29T10:05:02.948Z</time></trkpt><trkpt lat="46.5678045" lon="12.5393527"><ele>951.0</ele><time>2026-03-29T10:05:03.957Z</time></trkpt><trkpt lat="46.5677149" lon="12.5395583"><ele>947.0</ele><time>2026-03-29T10:05:04.939Z</time></trkpt><trkpt lat="46.5676308" lon="12.5397622"><ele>946.6666666666667</ele><time>2026-03-29T10:05:05.955Z</time></trkpt><trkpt lat="46.5675558" lon="12.5399701"><ele>946.3333333333333</ele><time>2026-03-29T10:05:06.948Z</time></trkpt><trkpt lat="46.5674922" lon="12.540183"><ele>946.0</ele><time>2026-03-29T10:05:07.945Z</time></trkpt><trkpt lat="46.5674322" lon="12.5403911"><ele>946.0</ele><time>2026-03-29T10:05:08.965Z</time></trkpt><trkpt lat="46.5673897" lon="12.5406052"><ele>946.0</ele><time>2026-03-29T10:05:09.956Z</time></trkpt><trkpt lat="46.5673704" lon="12.5408302"><ele>946.0</ele><time>2026-03-29T10:05:10.96Z</time></trkpt><trkpt lat="46.5673444" lon="12.5410503"><ele>951.0</ele><time>2026-03-29T10:05:11.975Z</time></trkpt><trkpt lat="46.5673161" lon="12.5412657"><ele>956.0</ele><time>2026-03-29T10:05:12.947Z</time></trkpt><trkpt lat="46.5672763" lon="12.5414755"><ele>961.0</ele><time>2026-03-29T10:05:13.961Z</time></trkpt><trkpt lat="46.5672024" lon="12.5416651"><ele>961.0</ele><time>2026-03-29T10:05:14.955Z</time></trkpt><trkpt lat="46.5671004" lon="12.5418266"><ele>961.0</ele><time>2026-03-29T10:05:15.966Z</time></trkpt><trkpt lat="46.566997" lon="12.5419753"><ele>961.0</ele><time>2026-03-29T10:05:16.958Z</time></trkpt><trkpt lat="46.5669005" lon="12.5421314"><ele>961.0</ele><time>2026-03-29T10:05:17.973Z</time></trkpt><trkpt lat="46.5668129" lon="12.5422979"><ele>957.0</ele><time>2026-03-29T10:05:18.95Z</time></trkpt><trkpt lat="46.5667239" lon="12.5424561"><ele>953.0</ele><time>2026-03-29T10:05:19.952Z</time></trkpt><trkpt lat="46.5666143" lon="12.5426025"><ele>949.0</ele><time>2026-03-29T10:05:20.937Z</time></trkpt><trkpt lat="46.5664905" lon="12.5427358"><ele>945.0</ele><time>2026-03-29T10:05:21.944Z</time></trkpt><trkpt lat="46.5663598" lon="12.5428622"><ele>943.0</ele><time>2026-03-29T10:05:22.935Z</time></trkpt><trkpt lat="46.5662102" lon="12.5429612"><ele>941.0</ele><time>2026-03-29T10:05:23.947Z</time></trkpt><trkpt lat="46.5660642" lon="12.5430713"><ele>939.0</ele><time>2026-03-29T10:05:24.949Z</time></trkpt><trkpt lat="46.565927" lon="12.5431844"><ele>939.0</ele><time>2026-03-29T10:05:25.945Z</time></trkpt><trkpt lat="46.565788" lon="12.5432854"><ele>939.0</ele><time>2026-03-29T10:05:26.945Z</time></trkpt><trkpt lat="46.5656489" lon="12.5433885"><ele>939.0</ele><time>2026-03-29T10:05:27.946Z</time></trkpt><trkpt lat="46.5655142" lon="12.543491"><ele>939.0</ele><time>2026-03-29T10:05:28.949Z</time></trkpt><trkpt lat="46.5653876" lon="12.5436021"><ele>939.0</ele><time>2026-03-29T10:05:29.948Z</time></trkpt><trkpt lat="46.565271" lon="12.543721"><ele>939.0</ele><time>2026-03-29T10:05:30.942Z</time></trkpt><trkpt lat="46.5651555" lon="12.5438377"><ele>939.0</ele><time>2026-03-29T10:05:31.944Z</time></trkpt><trkpt lat="46.5650443" lon="12.5439615"><ele>940.25</ele><time>2026-03-29T10:05:32.95Z</time></trkpt><trkpt lat="46.5649261" lon="12.544069"><ele>941.5</ele><time>2026-03-29T10:05:33.941Z</time></trkpt><trkpt lat="46.564803" lon="12.5441677"><ele>942.75</ele><time>2026-03-29T10:05:34.943Z</time></trkpt><trkpt lat="46.5646674" lon="12.5442381"><ele>944.0</ele><time>2026-03-29T10:05:35.957Z</time></trkpt><trkpt lat="46.5645332" lon="12.5443047"><ele>945.0</ele><time>2026-03-29T10:05:36.955Z</time></trkpt><trkpt lat="46.5644013" lon="12.5443809"><ele>946.0</ele><time>2026-03-29T10:05:37.946Z</time></trkpt><trkpt lat="46.5642781" lon="12.5444731"><ele>947.0</ele><time>2026-03-29T10:05:38.941Z</time></trkpt><trkpt lat="46.5641562" lon="12.5445811"><ele>948.0</ele><time>2026-03-29T10:05:39.949Z</time></trkpt><trkpt lat="46.5640404" lon="12.5447032"><ele>948.0</ele><time>2026-03-29T10:05:40.953Z</time></trkpt><trkpt lat="46.5639294" lon="12.5448344"><ele>948.0</ele><time>2026-03-29T10:05:41.943Z</time></trkpt><trkpt lat="46.5638065" lon="12.544947"><ele>948.0</ele><time>2026-03-29T10:05:42.962Z</time></trkpt><trkpt lat="46.5636769" lon="12.5450444"><ele>948.0</ele><time>2026-03-29T10:05:43.944Z</time></trkpt><trkpt lat="46.5635382" lon="12.5451145"><ele>942.5</ele><time>2026-03-29T10:05:44.951Z</time></trkpt><trkpt lat="46.5633921" lon="12.5451535"><ele>937.0</ele><time>2026-03-29T10:05:45.952Z</time></trkpt><trkpt lat="46.5632485" lon="12.5451811"><ele>931.5</ele><time>2026-03-29T10:05:46.95Z</time></trkpt><trkpt lat="46.5631086" lon="12.5452176"><ele>926.0</ele><time>2026-03-29T10:05:47.94Z</time></trkpt><trkpt lat="46.5629754" lon="12.5452752"><ele>925.5</ele><time>2026-03-29T10:05:48.948Z</time></trkpt><trkpt lat="46.5628575" lon="12.5453678"><ele>925.0</ele><time>2026-03-29T10:05:49.938Z</time></trkpt><trkpt lat="46.5627471" lon="12.5454757"><ele>924.5</ele><time>2026-03-29T10:05:50.953Z</time></trkpt><trkpt lat="46.56267" lon="12.5456431"><ele>924.0</ele><time>2026-03-29T10:05:51.944Z</time></trkpt><trkpt lat="46.5625662" lon="12.5457695"><ele>924.0</ele><time>2026-03-29T10:05:52.943Z</time></trkpt><trkpt lat="46.5624596" lon="12.5458901"><ele>924.0</ele><time>2026-03-29T10:05:53.958Z</time></trkpt><trkpt lat="46.5623475" lon="12.5459876"><ele>924.0</ele><time>2026-03-29T10:05:54.941Z</time></trkpt><trkpt lat="46.5622361" lon="12.5460901"><ele>924.0</ele><time>2026-03-29T10:05:55.937Z</time></trkpt><trkpt lat="46.5621306" lon="12.5462004"><ele>923.5</ele><time>2026-03-29T10:05:56.941Z</time></trkpt><trkpt lat="46.5620292" lon="12.5463168"><ele>923.0</ele><time>2026-03-29T10:05:57.947Z</time></trkpt><trkpt lat="46.5619268" lon="12.5464356"><ele>922.5</ele><time>2026-03-29T10:05:58.947Z</time></trkpt><trkpt lat="46.5618315" lon="12.5465681"><ele>922.0</ele><time>2026-03-29T10:05:59.94Z</time></trkpt><trkpt lat="46.5617452" lon="12.5467023"><ele>922.0</ele><time>2026-03-29T10:06:00.942Z</time></trkpt><trkpt lat="46.5616586" lon="12.5468253"><ele>922.0</ele><time>2026-03-29T10:06:01.94Z</time></trkpt><trkpt lat="46.5615764" lon="12.546947"><ele>922.0</ele><time>2026-03-29T10:06:02.947Z</time></trkpt><trkpt lat="46.561501" lon="12.5470755"><ele>922.0</ele><time>2026-03-29T10:06:03.95Z</time></trkpt><trkpt lat="46.561426" lon="12.5471822"><ele>920.75</ele><time>2026-03-29T10:06:04.93Z</time></trkpt><trkpt lat="46.5613311" lon="12.5472602"><ele>919.5</ele><time>2026-03-29T10:06:05.944Z</time></trkpt><trkpt lat="46.5612253" lon="12.5473298"><ele>918.25</ele><time>2026-03-29T10:06:06.938Z</time></trkpt><trkpt lat="46.5611215" lon="12.5474277"><ele>917.0</ele><time>2026-03-29T10:06:07.929Z</time></trkpt><trkpt lat="46.5610166" lon="12.5475385"><ele>917.0</ele><time>2026-03-29T10:06:08.943Z</time></trkpt><trkpt lat="46.5609012" lon="12.5476258"><ele>917.0</ele><time>2026-03-29T10:06:09.942Z</time></trkpt><trkpt lat="46.5607915" lon="12.5477205"><ele>917.0</ele><time>2026-03-29T10:06:10.949Z</time></trkpt><trkpt lat="46.5606841" lon="12.5478201"><ele>917.0</ele><time>2026-03-29T10:06:11.948Z</time></trkpt><trkpt lat="46.5605633" lon="12.5478973"><ele>917.0</ele><time>2026-03-29T10:06:12.94Z</time></trkpt><trkpt lat="46.5604508" lon="12.5479953"><ele>917.0</ele><time>2026-03-29T10:06:13.942Z</time></trkpt><trkpt lat="46.560334" lon="12.5480723"><ele>917.0</ele><time>2026-03-29T10:06:14.938Z</time></trkpt><trkpt lat="46.5602222" lon="12.5481567"><ele>917.0</ele><time>2026-03-29T10:06:15.945Z</time></trkpt><trkpt lat="46.5601123" lon="12.5482446"><ele>917.0</ele><time>2026-03-29T10:06:16.944Z</time></trkpt><trkpt lat="46.5600009" lon="12.5483331"><ele>917.0</ele><time>2026-03-29T10:06:17.948Z</time></trkpt><trkpt lat="46.5598752" lon="12.5483902"><ele>917.0</ele><time>2026-03-29T10:06:18.929Z</time></trkpt><trkpt lat="46.5597557" lon="12.5484577"><ele>917.0</ele><time>2026-03-29T10:06:19.951Z</time></trkpt><trkpt lat="46.5596355" lon="12.5484929"><ele>916.0</ele><time>2026-03-29T10:06:20.954Z</time></trkpt><trkpt lat="46.559514" lon="12.5485265"><ele>915.0</ele><time>2026-03-29T10:06:21.948Z</time></trkpt><trkpt lat="46.5593958" lon="12.5485666"><ele>914.0</ele><time>2026-03-29T10:06:22.937Z</time></trkpt><trkpt lat="46.5592807" lon="12.5486017"><ele>913.0</ele><time>2026-03-29T10:06:23.949Z</time></trkpt><trkpt lat="46.5591681" lon="12.5486519"><ele>913.0</ele><time>2026-03-29T10:06:24.956Z</time></trkpt><trkpt lat="46.5590556" lon="12.5487058"><ele>913.0</ele><time>2026-03-29T10:06:25.948Z</time></trkpt><trkpt lat="46.5589465" lon="12.5487381"><ele>913.0</ele><time>2026-03-29T10:06:26.944Z</time></trkpt><trkpt lat="46.5588453" lon="12.5487876"><ele>913.0</ele><time>2026-03-29T10:06:27.946Z</time></trkpt><trkpt lat="46.5587416" lon="12.5488287"><ele>913.0</ele><time>2026-03-29T10:06:28.948Z</time></trkpt><trkpt lat="46.5586384" lon="12.5488738"><ele>913.0</ele><time>2026-03-29T10:06:29.941Z</time></trkpt><trkpt lat="46.5585386" lon="12.5489231"><ele>913.0</ele><time>2026-03-29T10:06:30.935Z</time></trkpt><trkpt lat="46.5584368" lon="12.5489088"><ele>913.0</ele><time>2026-03-29T10:06:31.933Z</time></trkpt><trkpt lat="46.5583515" lon="12.5489259"><ele>913.0</ele><time>2026-03-29T10:06:32.941Z</time></trkpt><trkpt lat="46.5582723" lon="12.5489459"><ele>913.0</ele><time>2026-03-29T10:06:33.943Z</time></trkpt><trkpt lat="46.5581964" lon="12.5489643"><ele>912.9999999999999</ele><time>2026-03-29T10:06:34.947Z</time></trkpt><trkpt lat="46.5581268" lon="12.5489843"><ele>913.0</ele><time>2026-03-29T10:06:35.944Z</time></trkpt><trkpt lat="46.5580696" lon="12.54903"><ele>913.0</ele><time>2026-03-29T10:06:36.943Z</time></trkpt><trkpt lat="46.5579943" lon="12.5490834"><ele>913.0</ele><time>2026-03-29T10:06:38.934Z</time></trkpt><trkpt lat="46.5579894" lon="12.5492133"><ele>912.9999999999999</ele><time>2026-03-29T10:06:40.938Z</time></trkpt><trkpt lat="46.5579951" lon="12.5493662"><ele>913.0</ele><time>2026-03-29T10:06:42.939Z</time></trkpt><trkpt lat="46.5580146" lon="12.5494617"><ele>913.1666666666666</ele><time>2026-03-29T10:06:43.943Z</time></trkpt><trkpt lat="46.5580296" lon="12.5495669"><ele>913.3333333333333</ele><time>2026-03-29T10:06:44.941Z</time></trkpt><trkpt lat="46.5580527" lon="12.5496808"><ele>913.5</ele><time>2026-03-29T10:06:45.939Z</time></trkpt><trkpt lat="46.5580655" lon="12.5498109"><ele>913.6666666666667</ele><time>2026-03-29T10:06:46.936Z</time></trkpt><trkpt lat="46.5580728" lon="12.5499544"><ele>913.8333333333334</ele><time>2026-03-29T10:06:47.931Z</time></trkpt><trkpt lat="46.558077" lon="12.5501019"><ele>914.0</ele><time>2026-03-29T10:06:48.947Z</time></trkpt><trkpt lat="46.5580748" lon="12.550245"><ele>913.4000000000001</ele><time>2026-03-29T10:06:49.967Z</time></trkpt><trkpt lat="46.5580857" lon="12.5503866"><ele>912.8000000000001</ele><time>2026-03-29T10:06:50.948Z</time></trkpt><trkpt lat="46.5580802" lon="12.5505265"><ele>912.1999999999999</ele><time>2026-03-29T10:06:51.961Z</time></trkpt><trkpt lat="46.5580969" lon="12.5506656"><ele>911.5999999999999</ele><time>2026-03-29T10:06:52.944Z</time></trkpt><trkpt lat="46.5581146" lon="12.5507999"><ele>911.0</ele><time>2026-03-29T10:06:53.942Z</time></trkpt><trkpt lat="46.5581419" lon="12.5509417"><ele>911.0</ele><time>2026-03-29T10:06:54.949Z</time></trkpt><trkpt lat="46.5581774" lon="12.5510884"><ele>910.9999999999999</ele><time>2026-03-29T10:06:55.93Z</time></trkpt><trkpt lat="46.5582113" lon="12.5512445"><ele>910.9999999999999</ele><time>2026-03-29T10:06:56.944Z</time></trkpt><trkpt lat="46.558255" lon="12.5513976"><ele>911.0</ele><time>2026-03-29T10:06:57.943Z</time></trkpt><trkpt lat="46.5583143" lon="12.5515413"><ele>911.0</ele><time>2026-03-29T10:06:58.954Z</time></trkpt><trkpt lat="46.5583547" lon="12.5516883"><ele>910.8</ele><time>2026-03-29T10:06:59.943Z</time></trkpt><trkpt lat="46.5583797" lon="12.5518395"><ele>910.5999999999999</ele><time>2026-03-29T10:07:00.94Z</time></trkpt><trkpt lat="46.5583961" lon="12.5519931"><ele>910.4</ele><time>2026-03-29T10:07:01.935Z</time></trkpt><trkpt lat="46.5584164" lon="12.5521455"><ele>910.2</ele><time>2026-03-29T10:07:02.94Z</time></trkpt><trkpt lat="46.5584471" lon="12.5522948"><ele>910.0</ele><time>2026-03-29T10:07:03.946Z</time></trkpt><trkpt lat="46.558467" lon="12.5524536"><ele>910.0</ele><time>2026-03-29T10:07:04.96Z</time></trkpt><trkpt lat="46.5584982" lon="12.5526156"><ele>910.0</ele><time>2026-03-29T10:07:05.93Z</time></trkpt><trkpt lat="46.558532" lon="12.5527835"><ele>910.0</ele><time>2026-03-29T10:07:06.948Z</time></trkpt><trkpt lat="46.5585593" lon="12.5529547"><ele>910.0</ele><time>2026-03-29T10:07:07.936Z</time></trkpt><trkpt lat="46.5585766" lon="12.5531267"><ele>909.5</ele><time>2026-03-29T10:07:08.958Z</time></trkpt><trkpt lat="46.5585945" lon="12.5532926"><ele>909.0</ele><time>2026-03-29T10:07:09.949Z</time></trkpt><trkpt lat="46.5586214" lon="12.5534482"><ele>908.5</ele><time>2026-03-29T10:07:10.959Z</time></trkpt><trkpt lat="46.5586285" lon="12.5536127"><ele>908.0</ele><time>2026-03-29T10:07:11.952Z</time></trkpt><trkpt lat="46.5586907" lon="12.553761"><ele>909.75</ele><time>2026-03-29T10:07:12.947Z</time></trkpt><trkpt lat="46.5587334" lon="12.5539202"><ele>911.5</ele><time>2026-03-29T10:07:13.941Z</time></trkpt><trkpt lat="46.5587602" lon="12.554087"><ele>913.25</ele><time>2026-03-29T10:07:14.939Z</time></trkpt><trkpt lat="46.5587925" lon="12.5542541"><ele>915.0</ele><time>2026-03-29T10:07:15.947Z</time></trkpt><trkpt lat="46.558794" lon="12.5544377"><ele>914.75</ele><time>2026-03-29T10:07:16.945Z</time></trkpt><trkpt lat="46.5588101" lon="12.5546213"><ele>914.5</ele><time>2026-03-29T10:07:17.948Z</time></trkpt><trkpt lat="46.5588302" lon="12.554802"><ele>914.25</ele><time>2026-03-29T10:07:18.937Z</time></trkpt><trkpt lat="46.5588444" lon="12.5549695"><ele>914.0</ele><time>2026-03-29T10:07:19.928Z</time></trkpt><trkpt lat="46.5588431" lon="12.555141"><ele>914.0</ele><time>2026-03-29T10:07:20.957Z</time></trkpt><trkpt lat="46.558867" lon="12.5553012"><ele>914.0000000000001</ele><time>2026-03-29T10:07:21.977Z</time></trkpt><trkpt lat="46.5588955" lon="12.5554541"><ele>914.0000000000001</ele><time>2026-03-29T10:07:22.924Z</time></trkpt><trkpt lat="46.55893" lon="12.5555968"><ele>914.0</ele><time>2026-03-29T10:07:23.949Z</time></trkpt><trkpt lat="46.5589475" lon="12.555732"><ele>914.0</ele><time>2026-03-29T10:07:24.95Z</time></trkpt><trkpt lat="46.5589811" lon="12.5558406"><ele>913.857142857143</ele><time>2026-03-29T10:07:25.948Z</time></trkpt><trkpt lat="46.5590198" lon="12.5559332"><ele>913.7142857142858</ele><time>2026-03-29T10:07:26.967Z</time></trkpt><trkpt lat="46.559037" lon="12.5560279"><ele>913.5714285714286</ele><time>2026-03-29T10:07:27.963Z</time></trkpt><trkpt lat="46.5590532" lon="12.5561216"><ele>913.4285714285714</ele><time>2026-03-29T10:07:28.939Z</time></trkpt><trkpt lat="46.5590766" lon="12.5562158"><ele>913.2857142857142</ele><time>2026-03-29T10:07:29.952Z</time></trkpt><trkpt lat="46.5590962" lon="12.5563153"><ele>913.142857142857</ele><time>2026-03-29T10:07:30.945Z</time></trkpt><trkpt lat="46.559118" lon="12.5564246"><ele>912.9999999999999</ele><time>2026-03-29T10:07:31.951Z</time></trkpt><trkpt lat="46.559147" lon="12.5565501"><ele>912.4</ele><time>2026-03-29T10:07:32.935Z</time></trkpt><trkpt lat="46.559171" lon="12.5566906"><ele>911.8</ele><time>2026-03-29T10:07:33.954Z</time></trkpt><trkpt lat="46.5592005" lon="12.5568393"><ele>911.2</ele><time>2026-03-29T10:07:34.96Z</time></trkpt><trkpt lat="46.5592166" lon="12.5570054"><ele>910.6</ele><time>2026-03-29T10:07:35.941Z</time></trkpt><trkpt lat="46.559231" lon="12.557182"><ele>910.0</ele><time>2026-03-29T10:07:36.959Z</time></trkpt><trkpt lat="46.5592438" lon="12.5573641"><ele>909.5</ele><time>2026-03-29T10:07:37.951Z</time></trkpt><trkpt lat="46.559268" lon="12.5575489"><ele>909.0</ele><time>2026-03-29T10:07:38.956Z</time></trkpt><trkpt lat="46.5592959" lon="12.5577417"><ele>908.5</ele><time>2026-03-29T10:07:39.941Z</time></trkpt><trkpt lat="46.5593336" lon="12.5579348"><ele>908.0</ele><time>2026-03-29T10:07:40.941Z</time></trkpt><trkpt lat="46.5593715" lon="12.5581296"><ele>909.0</ele><time>2026-03-29T10:07:41.963Z</time></trkpt><trkpt lat="46.5594103" lon="12.5583286"><ele>910.0</ele><time>2026-03-29T10:07:42.947Z</time></trkpt><trkpt lat="46.5594549" lon="12.5585307"><ele>911.0</ele><time>2026-03-29T10:07:43.951Z</time></trkpt><trkpt lat="46.5595015" lon="12.5587352"><ele>912.0</ele><time>2026-03-29T10:07:44.95Z</time></trkpt><trkpt lat="46.5595431" lon="12.5589446"><ele>913.6666666666667</ele><time>2026-03-29T10:07:45.94Z</time></trkpt><trkpt lat="46.5595857" lon="12.5591544"><ele>915.3333333333334</ele><time>2026-03-29T10:07:46.949Z</time></trkpt><trkpt lat="46.559632" lon="12.559363"><ele>917.0</ele><time>2026-03-29T10:07:47.957Z</time></trkpt><trkpt lat="46.5596776" lon="12.5595699"><ele>917.0</ele><time>2026-03-29T10:07:48.943Z</time></trkpt><trkpt lat="46.559723" lon="12.5597772"><ele>917.0</ele><time>2026-03-29T10:07:49.958Z</time></trkpt><trkpt lat="46.5597719" lon="12.5599835"><ele>917.0</ele><time>2026-03-29T10:07:50.969Z</time></trkpt><trkpt lat="46.559823" lon="12.5601902"><ele>915.3333333333334</ele><time>2026-03-29T10:07:51.964Z</time></trkpt><trkpt lat="46.5598745" lon="12.5603981"><ele>913.6666666666667</ele><time>2026-03-29T10:07:52.954Z</time></trkpt><trkpt lat="46.5599275" lon="12.5606106"><ele>912.0</ele><time>2026-03-29T10:07:53.954Z</time></trkpt><trkpt lat="46.559986" lon="12.5608279"><ele>912.0</ele><time>2026-03-29T10:07:54.938Z</time></trkpt><trkpt lat="46.5600355" lon="12.5610548"><ele>912.0</ele><time>2026-03-29T10:07:55.94Z</time></trkpt><trkpt lat="46.5600897" lon="12.5612839"><ele>912.0</ele><time>2026-03-29T10:07:56.969Z</time></trkpt><trkpt lat="46.5601484" lon="12.5615145"><ele>912.6666666666667</ele><time>2026-03-29T10:07:57.954Z</time></trkpt><trkpt lat="46.5602019" lon="12.5617527"><ele>913.3333333333334</ele><time>2026-03-29T10:07:58.947Z</time></trkpt><trkpt lat="46.560257" lon="12.5619926"><ele>914.0</ele><time>2026-03-29T10:07:59.959Z</time></trkpt><trkpt lat="46.5603152" lon="12.5622332"><ele>919.6666666666667</ele><time>2026-03-29T10:08:00.951Z</time></trkpt><trkpt lat="46.5603682" lon="12.5624798"><ele>925.3333333333333</ele><time>2026-03-29T10:08:01.962Z</time></trkpt><trkpt lat="46.5604235" lon="12.562728"><ele>931.0</ele><time>2026-03-29T10:08:02.964Z</time></trkpt><trkpt lat="46.5604792" lon="12.5629809"><ele>931.0</ele><time>2026-03-29T10:08:03.947Z</time></trkpt><trkpt lat="46.5605349" lon="12.5632388"><ele>931.0</ele><time>2026-03-29T10:08:04.961Z</time></trkpt><trkpt lat="46.5605922" lon="12.5634987"><ele>931.0</ele><time>2026-03-29T10:08:05.944Z</time></trkpt><trkpt lat="46.5606545" lon="12.56375"><ele>929.0</ele><time>2026-03-29T10:08:06.937Z</time></trkpt><trkpt lat="46.560719" lon="12.5639918"><ele>927.0</ele><time>2026-03-29T10:08:07.946Z</time></trkpt><trkpt lat="46.5607816" lon="12.5642309"><ele>925.0</ele><time>2026-03-29T10:08:08.944Z</time></trkpt><trkpt lat="46.5608615" lon="12.5644562"><ele>922.6666666666666</ele><time>2026-03-29T10:08:09.944Z</time></trkpt><trkpt lat="46.5609347" lon="12.5646817"><ele>920.3333333333333</ele><time>2026-03-29T10:08:10.944Z</time></trkpt><trkpt lat="46.5610118" lon="12.5649011"><ele>918.0</ele><time>2026-03-29T10:08:11.953Z</time></trkpt><trkpt lat="46.5610904" lon="12.5651242"><ele>918.0</ele><time>2026-03-29T10:08:12.959Z</time></trkpt><trkpt lat="46.5611662" lon="12.5653513"><ele>918.0</ele><time>2026-03-29T10:08:13.95Z</time></trkpt><trkpt lat="46.5612476" lon="12.5655797"><ele>918.0</ele><time>2026-03-29T10:08:14.935Z</time></trkpt><trkpt lat="46.5613322" lon="12.5658132"><ele>918.6666666666667</ele><time>2026-03-29T10:08:15.948Z</time></trkpt><trkpt lat="46.5614181" lon="12.5660476"><ele>919.3333333333334</ele><time>2026-03-29T10:08:16.947Z</time></trkpt><trkpt lat="46.5615174" lon="12.5662734"><ele>920.0</ele><time>2026-03-29T10:08:17.958Z</time></trkpt><trkpt lat="46.5615909" lon="12.5665226"><ele>920.0</ele><time>2026-03-29T10:08:18.942Z</time></trkpt><trkpt lat="46.5616692" lon="12.5667706"><ele>920.0</ele><time>2026-03-29T10:08:19.948Z</time></trkpt><trkpt lat="46.561759" lon="12.5670152"><ele>920.0</ele><time>2026-03-29T10:08:20.952Z</time></trkpt><trkpt lat="46.5618497" lon="12.5672613"><ele>918.6666666666667</ele><time>2026-03-29T10:08:21.947Z</time></trkpt><trkpt lat="46.5619329" lon="12.5675152"><ele>917.3333333333333</ele><time>2026-03-29T10:08:22.949Z</time></trkpt><trkpt lat="46.5620164" lon="12.567769"><ele>916.0</ele><time>2026-03-29T10:08:23.949Z</time></trkpt><trkpt lat="46.5621073" lon="12.5680177"><ele>918.3333333333333</ele><time>2026-03-29T10:08:24.952Z</time></trkpt><trkpt lat="46.5621956" lon="12.5682705"><ele>920.6666666666667</ele><time>2026-03-29T10:08:25.95Z</time></trkpt><trkpt lat="46.5622827" lon="12.5685255"><ele>923.0</ele><time>2026-03-29T10:08:26.955Z</time></trkpt><trkpt lat="46.5623708" lon="12.5687812"><ele>923.0</ele><time>2026-03-29T10:08:27.951Z</time></trkpt><trkpt lat="46.5624565" lon="12.5690398"><ele>923.0</ele><time>2026-03-29T10:08:28.938Z</time></trkpt><trkpt lat="46.562544" lon="12.5692947"><ele>923.0</ele><time>2026-03-29T10:08:29.945Z</time></trkpt><trkpt lat="46.5626359" lon="12.5695436"><ele>922.0</ele><time>2026-03-29T10:08:30.949Z</time></trkpt><trkpt lat="46.5627284" lon="12.5697851"><ele>921.0</ele><time>2026-03-29T10:08:31.94Z</time></trkpt><trkpt lat="46.5628204" lon="12.5700183"><ele>920.0</ele><time>2026-03-29T10:08:32.941Z</time></trkpt><trkpt lat="46.5629055" lon="12.5702487"><ele>925.0</ele><time>2026-03-29T10:08:33.942Z</time></trkpt><trkpt lat="46.5629805" lon="12.5704816"><ele>930.0</ele><time>2026-03-29T10:08:34.962Z</time></trkpt><trkpt lat="46.5630611" lon="12.5707068"><ele>935.0</ele><time>2026-03-29T10:08:35.952Z</time></trkpt><trkpt lat="46.563133" lon="12.5709346"><ele>935.0</ele><time>2026-03-29T10:08:36.951Z</time></trkpt><trkpt lat="46.5632246" lon="12.5711447"><ele>935.0</ele><time>2026-03-29T10:08:37.959Z</time></trkpt><trkpt lat="46.5633316" lon="12.5713411"><ele>935.0</ele><time>2026-03-29T10:08:38.942Z</time></trkpt><trkpt lat="46.563458" lon="12.5715099"><ele>933.6666666666667</ele><time>2026-03-29T10:08:39.955Z</time></trkpt><trkpt lat="46.5635892" lon="12.5716785"><ele>932.3333333333333</ele><time>2026-03-29T10:08:40.943Z</time></trkpt><trkpt lat="46.5636863" lon="12.571889"><ele>931.0</ele><time>2026-03-29T10:08:41.949Z</time></trkpt><trkpt lat="46.5637935" lon="12.5720927"><ele>931.0</ele><time>2026-03-29T10:08:42.959Z</time></trkpt><trkpt lat="46.5639132" lon="12.572282"><ele>931.0</ele><time>2026-03-29T10:08:43.96Z</time></trkpt><trkpt lat="46.5640386" lon="12.5724588"><ele>931.0</ele><time>2026-03-29T10:08:44.946Z</time></trkpt><trkpt lat="46.5641609" lon="12.5726417"><ele>931.0</ele><time>2026-03-29T10:08:45.953Z</time></trkpt><trkpt lat="46.5642712" lon="12.5728407"><ele>931.0</ele><time>2026-03-29T10:08:46.944Z</time></trkpt><trkpt lat="46.5643951" lon="12.5730308"><ele>931.0</ele><time>2026-03-29T10:08:47.943Z</time></trkpt><trkpt lat="46.564506" lon="12.5732303"><ele>934.75</ele><time>2026-03-29T10:08:48.951Z</time></trkpt><trkpt lat="46.5646008" lon="12.5734294"><ele>938.5</ele><time>2026-03-29T10:08:49.942Z</time></trkpt><trkpt lat="46.5646782" lon="12.5736021"><ele>942.25</ele><time>2026-03-29T10:08:50.955Z</time></trkpt><trkpt lat="46.5647294" lon="12.5737486"><ele>946.0</ele><time>2026-03-29T10:08:51.952Z</time></trkpt><trkpt lat="46.5647586" lon="12.573872"><ele>945.9999999999999</ele><time>2026-03-29T10:08:52.936Z</time></trkpt><trkpt lat="46.5647909" lon="12.5739643"><ele>946.0</ele><time>2026-03-29T10:08:53.945Z</time></trkpt><trkpt lat="46.5648322" lon="12.5741081"><ele>946.0</ele><time>2026-03-29T10:08:55.953Z</time></trkpt><trkpt lat="46.5648669" lon="12.5742072"><ele>946.0</ele><time>2026-03-29T10:08:57.937Z</time></trkpt><trkpt lat="46.5649032" lon="12.5743262"><ele>945.9999999999999</ele><time>2026-03-29T10:10:15.944Z</time></trkpt><trkpt lat="46.5649427" lon="12.5744433"><ele>946.0</ele><time>2026-03-29T10:10:17.949Z</time></trkpt><trkpt lat="46.5649771" lon="12.5745339"><ele>944.1999999999999</ele><time>2026-03-29T10:10:18.941Z</time></trkpt><trkpt lat="46.5650151" lon="12.574647"><ele>942.3999999999999</ele><time>2026-03-29T10:10:19.969Z</time></trkpt><trkpt lat="46.5650686" lon="12.5747579"><ele>940.6</ele><time>2026-03-29T10:10:20.95Z</time></trkpt><trkpt lat="46.5651229" lon="12.5748704"><ele>938.8</ele><time>2026-03-29T10:10:21.947Z</time></trkpt><trkpt lat="46.5651888" lon="12.5749844"><ele>937.0</ele><time>2026-03-29T10:10:22.961Z</time></trkpt><trkpt lat="46.5652487" lon="12.5751112"><ele>937.0</ele><time>2026-03-29T10:10:23.944Z</time></trkpt><trkpt lat="46.5652841" lon="12.5752576"><ele>937.0</ele><time>2026-03-29T10:10:24.956Z</time></trkpt><trkpt lat="46.5652865" lon="12.5754272"><ele>937.0</ele><time>2026-03-29T10:10:25.953Z</time></trkpt><trkpt lat="46.5652778" lon="12.5755962"><ele>937.0</ele><time>2026-03-29T10:10:26.959Z</time></trkpt><trkpt lat="46.5652627" lon="12.5757623"><ele>937.0</ele><time>2026-03-29T10:10:27.946Z</time></trkpt><trkpt lat="46.5652438" lon="12.5759289"><ele>937.0</ele><time>2026-03-29T10:10:28.945Z</time></trkpt><trkpt lat="46.5652389" lon="12.5760923"><ele>937.0</ele><time>2026-03-29T10:10:29.95Z</time></trkpt><trkpt lat="46.5652255" lon="12.5762546"><ele>937.0</ele><time>2026-03-29T10:10:30.95Z</time></trkpt><trkpt lat="46.5651893" lon="12.5764199"><ele>937.0</ele><time>2026-03-29T10:10:31.953Z</time></trkpt><trkpt lat="46.5651825" lon="12.5765955"><ele>937.0</ele><time>2026-03-29T10:10:32.948Z</time></trkpt><trkpt lat="46.565138" lon="12.5767738"><ele>937.0</ele><time>2026-03-29T10:10:33.951Z</time></trkpt><trkpt lat="46.5651308" lon="12.5769666"><ele>937.0</ele><time>2026-03-29T10:10:34.953Z</time></trkpt><trkpt lat="46.5651034" lon="12.5771571"><ele>937.75</ele><time>2026-03-29T10:10:35.955Z</time></trkpt><trkpt lat="46.5650723" lon="12.5773501"><ele>938.5</ele><time>2026-03-29T10:10:36.951Z</time></trkpt><trkpt lat="46.5650505" lon="12.5775457"><ele>939.25</ele><time>2026-03-29T10:10:37.962Z</time></trkpt><trkpt lat="46.5650405" lon="12.5777443"><ele>940.0</ele><time>2026-03-29T10:10:38.95Z</time></trkpt><trkpt lat="46.5650285" lon="12.5779412"><ele>940.5</ele><time>2026-03-29T10:10:39.945Z</time></trkpt><trkpt lat="46.5650376" lon="12.5781472"><ele>941.0</ele><time>2026-03-29T10:10:40.949Z</time></trkpt><trkpt lat="46.5650561" lon="12.5783558"><ele>941.5</ele><time>2026-03-29T10:10:41.962Z</time></trkpt><trkpt lat="46.565101" lon="12.5785496"><ele>942.0</ele><time>2026-03-29T10:10:42.957Z</time></trkpt><trkpt lat="46.5651498" lon="12.5787355"><ele>942.25</ele><time>2026-03-29T10:10:43.969Z</time></trkpt><trkpt lat="46.5651954" lon="12.5789236"><ele>942.5</ele><time>2026-03-29T10:10:44.946Z</time></trkpt><trkpt lat="46.5652348" lon="12.579108"><ele>942.75</ele><time>2026-03-29T10:10:45.944Z</time></trkpt><trkpt lat="46.5652709" lon="12.5792916"><ele>943.0</ele><time>2026-03-29T10:10:46.959Z</time></trkpt><trkpt lat="46.5653005" lon="12.5794741"><ele>943.25</ele><time>2026-03-29T10:10:47.948Z</time></trkpt><trkpt lat="46.5653055" lon="12.5796675"><ele>943.5</ele><time>2026-03-29T10:10:48.946Z</time></trkpt><trkpt lat="46.5653295" lon="12.5798569"><ele>943.75</ele><time>2026-03-29T10:10:49.947Z</time></trkpt><trkpt lat="46.5653448" lon="12.5800546"><ele>944.0</ele><time>2026-03-29T10:10:51.009Z</time></trkpt><trkpt lat="46.5653672" lon="12.5802468"><ele>946.0</ele><time>2026-03-29T10:10:51.934Z</time></trkpt><trkpt lat="46.5653811" lon="12.5804472"><ele>948.0</ele><time>2026-03-29T10:10:52.942Z</time></trkpt><trkpt lat="46.5653972" lon="12.5806512"><ele>950.0</ele><time>2026-03-29T10:10:53.952Z</time></trkpt><trkpt lat="46.5654177" lon="12.580856"><ele>952.0</ele><time>2026-03-29T10:10:54.96Z</time></trkpt><trkpt lat="46.5654461" lon="12.5810536"><ele>952.25</ele><time>2026-03-29T10:10:55.949Z</time></trkpt><trkpt lat="46.5654778" lon="12.5812458"><ele>952.5</ele><time>2026-03-29T10:10:56.962Z</time></trkpt><trkpt lat="46.5654892" lon="12.5814453"><ele>952.75</ele><time>2026-03-29T10:10:57.954Z</time></trkpt><trkpt lat="46.5654931" lon="12.5816498"><ele>953.0</ele><time>2026-03-29T10:10:59.011Z</time></trkpt><trkpt lat="46.5654965" lon="12.581853"><ele>952.75</ele><time>2026-03-29T10:10:59.952Z</time></trkpt><trkpt lat="46.5655127" lon="12.5820532"><ele>952.5</ele><time>2026-03-29T10:11:00.952Z</time></trkpt><trkpt lat="46.5655294" lon="12.5822483"><ele>952.25</ele><time>2026-03-29T10:11:01.956Z</time></trkpt><trkpt lat="46.5655789" lon="12.5824332"><ele>952.0</ele><time>2026-03-29T10:11:02.937Z</time></trkpt><trkpt lat="46.5656287" lon="12.5826258"><ele>952.0</ele><time>2026-03-29T10:11:03.958Z</time></trkpt><trkpt lat="46.5657035" lon="12.582816"><ele>952.0</ele><time>2026-03-29T10:11:04.949Z</time></trkpt><trkpt lat="46.5657716" lon="12.5830169"><ele>952.0</ele><time>2026-03-29T10:11:05.969Z</time></trkpt><trkpt lat="46.5658325" lon="12.5832223"><ele>950.6666666666666</ele><time>2026-03-29T10:11:06.964Z</time></trkpt><trkpt lat="46.5658759" lon="12.5834484"><ele>949.3333333333333</ele><time>2026-03-29T10:11:07.957Z</time></trkpt><trkpt lat="46.5659169" lon="12.5836799"><ele>948.0</ele><time>2026-03-29T10:11:08.959Z</time></trkpt><trkpt lat="46.5659518" lon="12.5839161"><ele>946.6666666666667</ele><time>2026-03-29T10:11:09.962Z</time></trkpt><trkpt lat="46.5659723" lon="12.5841577"><ele>945.3333333333334</ele><time>2026-03-29T10:11:10.969Z</time></trkpt><trkpt lat="46.5660043" lon="12.5843958"><ele>944.0</ele><time>2026-03-29T10:11:11.954Z</time></trkpt><trkpt lat="46.5660608" lon="12.5846223"><ele>942.6666666666667</ele><time>2026-03-29T10:11:12.947Z</time></trkpt><trkpt lat="46.5661388" lon="12.5848404"><ele>941.3333333333333</ele><time>2026-03-29T10:11:13.951Z</time></trkpt><trkpt lat="46.5662392" lon="12.5850426"><ele>940.0</ele><time>2026-03-29T10:11:14.953Z</time></trkpt><trkpt lat="46.5663441" lon="12.5852336"><ele>945.0</ele><time>2026-03-29T10:11:15.96Z</time></trkpt><trkpt lat="46.5664422" lon="12.5854292"><ele>950.0</ele><time>2026-03-29T10:11:16.952Z</time></trkpt><trkpt lat="46.5665452" lon="12.585622"><ele>955.0</ele><time>2026-03-29T10:11:17.957Z</time></trkpt><trkpt lat="46.5666481" lon="12.5858179"><ele>955.0</ele><time>2026-03-29T10:11:18.956Z</time></trkpt><trkpt lat="46.5667562" lon="12.5860023"><ele>955.0</ele><time>2026-03-29T10:11:19.952Z</time></trkpt><trkpt lat="46.5668676" lon="12.5861735"><ele>955.0</ele><time>2026-03-29T10:11:20.947Z</time></trkpt><trkpt lat="46.5669711" lon="12.5863492"><ele>956.3333333333333</ele><time>2026-03-29T10:11:21.962Z</time></trkpt><trkpt lat="46.5670885" lon="12.5865023"><ele>957.6666666666667</ele><time>2026-03-29T10:11:22.968Z</time></trkpt><trkpt lat="46.5671982" lon="12.5866606"><ele>959.0</ele><time>2026-03-29T10:11:23.959Z</time></trkpt><trkpt lat="46.5673126" lon="12.5868147"><ele>959.0</ele><time>2026-03-29T10:11:24.945Z</time></trkpt><trkpt lat="46.5674252" lon="12.586977"><ele>959.0</ele><time>2026-03-29T10:11:25.956Z</time></trkpt><trkpt lat="46.5675472" lon="12.5871249"><ele>959.0</ele><time>2026-03-29T10:11:26.957Z</time></trkpt><trkpt lat="46.5676794" lon="12.5872593"><ele>958.6666666666667</ele><time>2026-03-29T10:11:27.957Z</time></trkpt><trkpt lat="46.567812" lon="12.5873938"><ele>958.3333333333333</ele><time>2026-03-29T10:11:28.945Z</time></trkpt><trkpt lat="46.5679443" lon="12.5875284"><ele>958.0</ele><time>2026-03-29T10:11:29.96Z</time></trkpt><trkpt lat="46.5680795" lon="12.5876625"><ele>957.0</ele><time>2026-03-29T10:11:30.963Z</time></trkpt><trkpt lat="46.5681683" lon="12.5878749"><ele>956.0</ele><time>2026-03-29T10:11:31.96Z</time></trkpt><trkpt lat="46.568309" lon="12.5880034"><ele>955.0</ele><time>2026-03-29T10:11:32.948Z</time></trkpt><trkpt lat="46.5684519" lon="12.5881363"><ele>955.0</ele><time>2026-03-29T10:11:33.951Z</time></trkpt><trkpt lat="46.5685972" lon="12.5882681"><ele>955.0</ele><time>2026-03-29T10:11:34.936Z</time></trkpt><trkpt lat="46.5687354" lon="12.5884188"><ele>955.0</ele><time>2026-03-29T10:11:35.951Z</time></trkpt><trkpt lat="46.5688741" lon="12.5885665"><ele>955.0</ele><time>2026-03-29T10:11:36.956Z</time></trkpt><trkpt lat="46.5690067" lon="12.5887232"><ele>955.0</ele><time>2026-03-29T10:11:37.958Z</time></trkpt><trkpt lat="46.5691342" lon="12.588884"><ele>955.0</ele><time>2026-03-29T10:11:38.947Z</time></trkpt><trkpt lat="46.5692716" lon="12.5890295"><ele>955.0</ele><time>2026-03-29T10:11:39.97Z</time></trkpt><trkpt lat="46.5694091" lon="12.5891771"><ele>955.0</ele><time>2026-03-29T10:11:40.964Z</time></trkpt><trkpt lat="46.569544" lon="12.5893279"><ele>955.0</ele><time>2026-03-29T10:11:41.958Z</time></trkpt><trkpt lat="46.5696756" lon="12.5894845"><ele>955.6666666666666</ele><time>2026-03-29T10:11:42.961Z</time></trkpt><trkpt lat="46.5698086" lon="12.5896303"><ele>956.3333333333333</ele><time>2026-03-29T10:11:43.967Z</time></trkpt><trkpt lat="46.5699374" lon="12.5897772"><ele>957.0</ele><time>2026-03-29T10:11:44.953Z</time></trkpt><trkpt lat="46.5700738" lon="12.589912"><ele>957.0</ele><time>2026-03-29T10:11:45.955Z</time></trkpt><trkpt lat="46.5702012" lon="12.590064"><ele>957.0</ele><time>2026-03-29T10:11:46.959Z</time></trkpt><trkpt lat="46.570326" lon="12.5902222"><ele>957.0</ele><time>2026-03-29T10:11:47.954Z</time></trkpt><trkpt lat="46.5704491" lon="12.590386"><ele>957.6666666666667</ele><time>2026-03-29T10:11:48.95Z</time></trkpt><trkpt lat="46.5705561" lon="12.5905729"><ele>958.3333333333334</ele><time>2026-03-29T10:11:49.97Z</time></trkpt><trkpt lat="46.5706603" lon="12.5907683"><ele>959.0</ele><time>2026-03-29T10:11:50.949Z</time></trkpt><trkpt lat="46.5707614" lon="12.5909697"><ele>959.0</ele><time>2026-03-29T10:11:51.952Z</time></trkpt><trkpt lat="46.5708626" lon="12.5911727"><ele>959.0</ele><time>2026-03-29T10:11:52.947Z</time></trkpt><trkpt lat="46.5709642" lon="12.5913762"><ele>959.0</ele><time>2026-03-29T10:11:53.96Z</time></trkpt><trkpt lat="46.5710633" lon="12.5915801"><ele>959.0</ele><time>2026-03-29T10:11:54.948Z</time></trkpt><trkpt lat="46.5711626" lon="12.5917837"><ele>959.0</ele><time>2026-03-29T10:11:55.967Z</time></trkpt><trkpt lat="46.5712669" lon="12.5919801"><ele>959.0</ele><time>2026-03-29T10:11:56.98Z</time></trkpt><trkpt lat="46.5713661" lon="12.5921799"><ele>960.0</ele><time>2026-03-29T10:11:57.933Z</time></trkpt><trkpt lat="46.5714813" lon="12.5923615"><ele>961.0</ele><time>2026-03-29T10:11:58.961Z</time></trkpt><trkpt lat="46.5715809" lon="12.5925601"><ele>962.0</ele><time>2026-03-29T10:11:59.966Z</time></trkpt><trkpt lat="46.5716793" lon="12.5927568"><ele>961.3333333333334</ele><time>2026-03-29T10:12:00.953Z</time></trkpt><trkpt lat="46.5717769" lon="12.5929531"><ele>960.6666666666667</ele><time>2026-03-29T10:12:01.952Z</time></trkpt><trkpt lat="46.5718795" lon="12.5931421"><ele>960.0</ele><time>2026-03-29T10:12:02.954Z</time></trkpt><trkpt lat="46.5719745" lon="12.5933392"><ele>962.3333333333333</ele><time>2026-03-29T10:12:03.951Z</time></trkpt><trkpt lat="46.5720794" lon="12.5935254"><ele>964.6666666666666</ele><time>2026-03-29T10:12:04.95Z</time></trkpt><trkpt lat="46.5721866" lon="12.5937078"><ele>967.0</ele><time>2026-03-29T10:12:05.941Z</time></trkpt><trkpt lat="46.5722816" lon="12.5939065"><ele>967.0</ele><time>2026-03-29T10:12:06.959Z</time></trkpt><trkpt lat="46.5723741" lon="12.5941107"><ele>967.0</ele><time>2026-03-29T10:12:07.962Z</time></trkpt><trkpt lat="46.5724609" lon="12.5943205"><ele>967.0</ele><time>2026-03-29T10:12:08.955Z</time></trkpt><trkpt lat="46.57255" lon="12.5945292"><ele>966.3333333333333</ele><time>2026-03-29T10:12:09.949Z</time></trkpt><trkpt lat="46.5726132" lon="12.5947607"><ele>965.6666666666667</ele><time>2026-03-29T10:12:10.955Z</time></trkpt><trkpt lat="46.5726777" lon="12.5949937"><ele>965.0</ele><time>2026-03-29T10:12:11.959Z</time></trkpt><trkpt lat="46.5727496" lon="12.5952198"><ele>964.6666666666667</ele><time>2026-03-29T10:12:12.942Z</time></trkpt><trkpt lat="46.5728151" lon="12.5954497"><ele>964.3333333333333</ele><time>2026-03-29T10:12:13.958Z</time></trkpt><trkpt lat="46.572905" lon="12.5956605"><ele>964.0</ele><time>2026-03-29T10:12:14.943Z</time></trkpt><trkpt lat="46.5730026" lon="12.5958642"><ele>964.6666666666666</ele><time>2026-03-29T10:12:15.952Z</time></trkpt><trkpt lat="46.5731094" lon="12.5960576"><ele>965.3333333333333</ele><time>2026-03-29T10:12:16.945Z</time></trkpt><trkpt lat="46.5732377" lon="12.5962235"><ele>966.0</ele><time>2026-03-29T10:12:17.944Z</time></trkpt><trkpt lat="46.5733658" lon="12.5963887"><ele>966.0</ele><time>2026-03-29T10:12:18.95Z</time></trkpt><trkpt lat="46.5734962" lon="12.5965456"><ele>966.0</ele><time>2026-03-29T10:12:19.951Z</time></trkpt><trkpt lat="46.5736086" lon="12.5967266"><ele>966.0</ele><time>2026-03-29T10:12:20.953Z</time></trkpt><trkpt lat="46.5737142" lon="12.596913"><ele>971.3333333333333</ele><time>2026-03-29T10:12:21.961Z</time></trkpt><trkpt lat="46.5738181" lon="12.597098"><ele>976.6666666666666</ele><time>2026-03-29T10:12:22.955Z</time></trkpt><trkpt lat="46.5739152" lon="12.5972892"><ele>982.0</ele><time>2026-03-29T10:12:23.962Z</time></trkpt><trkpt lat="46.5740102" lon="12.5974841"><ele>982.0</ele><time>2026-03-29T10:12:24.948Z</time></trkpt><trkpt lat="46.5740978" lon="12.5976816"><ele>982.0</ele><time>2026-03-29T10:12:25.949Z</time></trkpt><trkpt lat="46.5741869" lon="12.5978633"><ele>982.0</ele><time>2026-03-29T10:12:26.954Z</time></trkpt><trkpt lat="46.5742754" lon="12.5980306"><ele>980.75</ele><time>2026-03-29T10:12:27.959Z</time></trkpt><trkpt lat="46.5743503" lon="12.5982007"><ele>979.5</ele><time>2026-03-29T10:12:28.954Z</time></trkpt><trkpt lat="46.5744147" lon="12.5983712"><ele>978.25</ele><time>2026-03-29T10:12:29.97Z</time></trkpt><trkpt lat="46.5744617" lon="12.5985579"><ele>977.0</ele><time>2026-03-29T10:12:30.949Z</time></trkpt><trkpt lat="46.5744958" lon="12.5987596"><ele>977.0</ele><time>2026-03-29T10:12:31.949Z</time></trkpt><trkpt lat="46.5745314" lon="12.5989565"><ele>977.0</ele><time>2026-03-29T10:12:32.945Z</time></trkpt><trkpt lat="46.5745573" lon="12.5991547"><ele>977.0</ele><time>2026-03-29T10:12:33.941Z</time></trkpt><trkpt lat="46.5746148" lon="12.5993361"><ele>977.0</ele><time>2026-03-29T10:12:34.956Z</time></trkpt><trkpt lat="46.5746713" lon="12.5995152"><ele>977.0</ele><time>2026-03-29T10:12:35.955Z</time></trkpt><trkpt lat="46.5747321" lon="12.5996902"><ele>977.0</ele><time>2026-03-29T10:12:36.948Z</time></trkpt><trkpt lat="46.5747937" lon="12.599865"><ele>977.0</ele><time>2026-03-29T10:12:37.95Z</time></trkpt><trkpt lat="46.5749076" lon="12.600005"><ele>977.0</ele><time>2026-03-29T10:12:38.943Z</time></trkpt><trkpt lat="46.5750038" lon="12.6001559"><ele>977.0</ele><time>2026-03-29T10:12:39.944Z</time></trkpt><trkpt lat="46.5751075" lon="12.6003068"><ele>977.0</ele><time>2026-03-29T10:12:40.944Z</time></trkpt><trkpt lat="46.5752146" lon="12.6004685"><ele>977.0</ele><time>2026-03-29T10:12:41.95Z</time></trkpt><trkpt lat="46.5753302" lon="12.6006352"><ele>976.3333333333334</ele><time>2026-03-29T10:12:42.953Z</time></trkpt><trkpt lat="46.5754528" lon="12.6008014"><ele>975.6666666666667</ele><time>2026-03-29T10:12:43.952Z</time></trkpt><trkpt lat="46.5755665" lon="12.6009852"><ele>975.0</ele><time>2026-03-29T10:12:44.943Z</time></trkpt><trkpt lat="46.5756829" lon="12.6011686"><ele>975.0</ele><time>2026-03-29T10:12:45.945Z</time></trkpt><trkpt lat="46.575807" lon="12.6013413"><ele>975.0</ele><time>2026-03-29T10:12:46.932Z</time></trkpt><trkpt lat="46.5759261" lon="12.6015104"><ele>975.0</ele><time>2026-03-29T10:12:47.949Z</time></trkpt><trkpt lat="46.5760403" lon="12.6016693"><ele>975.0</ele><time>2026-03-29T10:12:48.955Z</time></trkpt><trkpt lat="46.5761514" lon="12.6018317"><ele>975.0</ele><time>2026-03-29T10:12:49.944Z</time></trkpt><trkpt lat="46.5762632" lon="12.6019979"><ele>975.0</ele><time>2026-03-29T10:12:50.955Z</time></trkpt><trkpt lat="46.576356" lon="12.6021908"><ele>980.6666666666667</ele><time>2026-03-29T10:12:51.951Z</time></trkpt><trkpt lat="46.5764532" lon="12.6023796"><ele>986.3333333333334</ele><time>2026-03-29T10:12:52.954Z</time></trkpt><trkpt lat="46.5765466" lon="12.602573"><ele>992.0</ele><time>2026-03-29T10:12:53.966Z</time></trkpt><trkpt lat="46.5766385" lon="12.6027597"><ele>988.75</ele><time>2026-03-29T10:12:54.956Z</time></trkpt><trkpt lat="46.5767275" lon="12.6029396"><ele>985.5</ele><time>2026-03-29T10:12:55.975Z</time></trkpt><trkpt lat="46.5768023" lon="12.6031223"><ele>982.25</ele><time>2026-03-29T10:12:56.965Z</time></trkpt><trkpt lat="46.576876" lon="12.6032771"><ele>979.0</ele><time>2026-03-29T10:12:57.966Z</time></trkpt><trkpt lat="46.5769422" lon="12.6033997"><ele>979.0</ele><time>2026-03-29T10:12:58.951Z</time></trkpt><trkpt lat="46.5769978" lon="12.6035116"><ele>979.0000000000001</ele><time>2026-03-29T10:12:59.947Z</time></trkpt><trkpt lat="46.5770331" lon="12.6036312"><ele>979.0000000000001</ele><time>2026-03-29T10:13:00.951Z</time></trkpt><trkpt lat="46.5770449" lon="12.6037577"><ele>979.0</ele><time>2026-03-29T10:13:01.966Z</time></trkpt><trkpt lat="46.5770293" lon="12.6038854"><ele>979.0</ele><time>2026-03-29T10:13:02.946Z</time></trkpt><trkpt lat="46.5770169" lon="12.6040128"><ele>980.25</ele><time>2026-03-29T10:13:03.94Z</time></trkpt><trkpt lat="46.5770206" lon="12.6041486"><ele>981.5</ele><time>2026-03-29T10:13:04.944Z</time></trkpt><trkpt lat="46.5770546" lon="12.6043023"><ele>982.75</ele><time>2026-03-29T10:13:05.948Z</time></trkpt><trkpt lat="46.5771238" lon="12.6044569"><ele>984.0</ele><time>2026-03-29T10:13:06.946Z</time></trkpt><trkpt lat="46.5772063" lon="12.6046184"><ele>984.0</ele><time>2026-03-29T10:13:07.955Z</time></trkpt><trkpt lat="46.5772792" lon="12.6048053"><ele>984.0</ele><time>2026-03-29T10:13:08.934Z</time></trkpt><trkpt lat="46.5773635" lon="12.6049851"><ele>984.0</ele><time>2026-03-29T10:13:09.95Z</time></trkpt><trkpt lat="46.5774451" lon="12.6051547"><ele>984.0</ele><time>2026-03-29T10:13:10.948Z</time></trkpt><trkpt lat="46.5775166" lon="12.6053176"><ele>985.25</ele><time>2026-03-29T10:13:11.955Z</time></trkpt><trkpt lat="46.5775875" lon="12.6054652"><ele>986.5</ele><time>2026-03-29T10:13:12.961Z</time></trkpt><trkpt lat="46.5776771" lon="12.6055845"><ele>987.75</ele><time>2026-03-29T10:13:13.957Z</time></trkpt><trkpt lat="46.5777476" lon="12.6057056"><ele>989.0</ele><time>2026-03-29T10:13:14.953Z</time></trkpt><trkpt lat="46.5777963" lon="12.6058393"><ele>989.0</ele><time>2026-03-29T10:13:15.967Z</time></trkpt><trkpt lat="46.5778312" lon="12.6059836"><ele>989.0</ele><time>2026-03-29T10:13:16.943Z</time></trkpt><trkpt lat="46.5778181" lon="12.6061566"><ele>989.0</ele><time>2026-03-29T10:13:17.953Z</time></trkpt><trkpt lat="46.5777933" lon="12.6063369"><ele>989.0</ele><time>2026-03-29T10:13:18.951Z</time></trkpt><trkpt lat="46.5777793" lon="12.6065248"><ele>990.0</ele><time>2026-03-29T10:13:19.949Z</time></trkpt><trkpt lat="46.5777627" lon="12.6067214"><ele>991.0</ele><time>2026-03-29T10:13:20.948Z</time></trkpt><trkpt lat="46.5777517" lon="12.6069295"><ele>992.0</ele><time>2026-03-29T10:13:21.953Z</time></trkpt><trkpt lat="46.5777407" lon="12.6071507"><ele>993.0</ele><time>2026-03-29T10:13:22.944Z</time></trkpt><trkpt lat="46.5777324" lon="12.6073861"><ele>995.0</ele><time>2026-03-29T10:13:23.948Z</time></trkpt><trkpt lat="46.5777111" lon="12.6076283"><ele>997.0</ele><time>2026-03-29T10:13:24.954Z</time></trkpt><trkpt lat="46.5776805" lon="12.6078705"><ele>999.0</ele><time>2026-03-29T10:13:25.963Z</time></trkpt><trkpt lat="46.5776695" lon="12.6081148"><ele>998.3333333333333</ele><time>2026-03-29T10:13:26.951Z</time></trkpt><trkpt lat="46.5776574" lon="12.6083598"><ele>997.6666666666666</ele><time>2026-03-29T10:13:27.95Z</time></trkpt><trkpt lat="46.5776626" lon="12.6086047"><ele>997.0</ele><time>2026-03-29T10:13:28.944Z</time></trkpt><trkpt lat="46.5776665" lon="12.6088534"><ele>997.0</ele><time>2026-03-29T10:13:29.943Z</time></trkpt><trkpt lat="46.5776643" lon="12.6091112"><ele>997.0</ele><time>2026-03-29T10:13:30.943Z</time></trkpt><trkpt lat="46.5776593" lon="12.6093749"><ele>997.0</ele><time>2026-03-29T10:13:31.94Z</time></trkpt><trkpt lat="46.5776429" lon="12.6096397"><ele>995.6666666666666</ele><time>2026-03-29T10:13:32.942Z</time></trkpt><trkpt lat="46.57764" lon="12.6099081"><ele>994.3333333333333</ele><time>2026-03-29T10:13:33.951Z</time></trkpt><trkpt lat="46.5776471" lon="12.6101768"><ele>993.0</ele><time>2026-03-29T10:13:34.947Z</time></trkpt><trkpt lat="46.5776481" lon="12.610443"><ele>993.0</ele><time>2026-03-29T10:13:35.951Z</time></trkpt><trkpt lat="46.5776521" lon="12.6107085"><ele>993.0</ele><time>2026-03-29T10:13:36.93Z</time></trkpt><trkpt lat="46.5776562" lon="12.6109725"><ele>993.0</ele><time>2026-03-29T10:13:37.953Z</time></trkpt><trkpt lat="46.5776566" lon="12.6112354"><ele>993.6666666666667</ele><time>2026-03-29T10:13:38.953Z</time></trkpt><trkpt lat="46.57766" lon="12.611498"><ele>994.3333333333334</ele><time>2026-03-29T10:13:39.948Z</time></trkpt><trkpt lat="46.5776619" lon="12.6117587"><ele>995.0</ele><time>2026-03-29T10:13:40.946Z</time></trkpt><trkpt lat="46.5776623" lon="12.6120164"><ele>995.0</ele><time>2026-03-29T10:13:41.947Z</time></trkpt><trkpt lat="46.5776607" lon="12.6122728"><ele>995.0</ele><time>2026-03-29T10:13:42.93Z</time></trkpt><trkpt lat="46.5776604" lon="12.6125288"><ele>995.0</ele><time>2026-03-29T10:13:43.947Z</time></trkpt><trkpt lat="46.5776588" lon="12.6127837"><ele>996.3333333333334</ele><time>2026-03-29T10:13:44.94Z</time></trkpt><trkpt lat="46.577659" lon="12.61304"><ele>997.6666666666667</ele><time>2026-03-29T10:13:45.937Z</time></trkpt><trkpt lat="46.577663" lon="12.6132973"><ele>999.0</ele><time>2026-03-29T10:13:46.927Z</time></trkpt><trkpt lat="46.5776714" lon="12.6135542"><ele>1003.0</ele><time>2026-03-29T10:13:47.951Z</time></trkpt><trkpt lat="46.5776938" lon="12.6138129"><ele>1007.0</ele><time>2026-03-29T10:13:48.954Z</time></trkpt><trkpt lat="46.5777289" lon="12.614068"><ele>1011.0</ele><time>2026-03-29T10:13:49.939Z</time></trkpt><trkpt lat="46.5777706" lon="12.6143185"><ele>1019.3333333333333</ele><time>2026-03-29T10:13:50.953Z</time></trkpt><trkpt lat="46.5778188" lon="12.6145657"><ele>1027.6666666666665</ele><time>2026-03-29T10:13:51.952Z</time></trkpt><trkpt lat="46.5778754" lon="12.6148074"><ele>1036.0</ele><time>2026-03-29T10:13:52.949Z</time></trkpt><trkpt lat="46.5779411" lon="12.615043"><ele>1021.3333333333333</ele><time>2026-03-29T10:13:53.961Z</time></trkpt><trkpt lat="46.5780106" lon="12.6152768"><ele>1006.6666666666667</ele><time>2026-03-29T10:13:54.94Z</time></trkpt><trkpt lat="46.5780826" lon="12.615514"><ele>992.0</ele><time>2026-03-29T10:13:55.948Z</time></trkpt><trkpt lat="46.5781677" lon="12.615747"><ele>992.0</ele><time>2026-03-29T10:13:56.948Z</time></trkpt><trkpt lat="46.5782674" lon="12.6159711"><ele>992.0</ele><time>2026-03-29T10:13:57.942Z</time></trkpt><trkpt lat="46.5783685" lon="12.6161924"><ele>992.0</ele><time>2026-03-29T10:13:58.943Z</time></trkpt><trkpt lat="46.5784792" lon="12.6164052"><ele>992.0</ele><time>2026-03-29T10:13:59.947Z</time></trkpt><trkpt lat="46.5785887" lon="12.6166212"><ele>992.0</ele><time>2026-03-29T10:14:00.943Z</time></trkpt><trkpt lat="46.5787073" lon="12.6168293"><ele>992.0</ele><time>2026-03-29T10:14:01.973Z</time></trkpt><trkpt lat="46.5788241" lon="12.6170394"><ele>993.3333333333334</ele><time>2026-03-29T10:14:02.95Z</time></trkpt><trkpt lat="46.5789404" lon="12.6172513"><ele>994.6666666666667</ele><time>2026-03-29T10:14:03.953Z</time></trkpt><trkpt lat="46.5790538" lon="12.6174682"><ele>996.0</ele><time>2026-03-29T10:14:04.944Z</time></trkpt><trkpt lat="46.5791699" lon="12.6176832"><ele>994.6666666666667</ele><time>2026-03-29T10:14:05.962Z</time></trkpt><trkpt lat="46.5792832" lon="12.6179015"><ele>993.3333333333334</ele><time>2026-03-29T10:14:06.976Z</time></trkpt><trkpt lat="46.5794029" lon="12.6181137"><ele>992.0</ele><time>2026-03-29T10:14:07.979Z</time></trkpt><trkpt lat="46.579521" lon="12.6183312"><ele>992.0</ele><time>2026-03-29T10:14:08.945Z</time></trkpt><trkpt lat="46.579646" lon="12.6185439"><ele>992.0</ele><time>2026-03-29T10:14:09.945Z</time></trkpt><trkpt lat="46.5797707" lon="12.6187592"><ele>992.0</ele><time>2026-03-29T10:14:10.946Z</time></trkpt><trkpt lat="46.5798934" lon="12.618978"><ele>993.6666666666667</ele><time>2026-03-29T10:14:11.942Z</time></trkpt><trkpt lat="46.5800141" lon="12.6192004"><ele>995.3333333333333</ele><time>2026-03-29T10:14:12.949Z</time></trkpt><trkpt lat="46.5801331" lon="12.6194197"><ele>997.0</ele><time>2026-03-29T10:14:13.96Z</time></trkpt><trkpt lat="46.5802358" lon="12.619645"><ele>998.0</ele><time>2026-03-29T10:14:14.946Z</time></trkpt><trkpt lat="46.5803462" lon="12.6198473"><ele>999.0</ele><time>2026-03-29T10:14:15.936Z</time></trkpt><trkpt lat="46.5804562" lon="12.6200429"><ele>1000.0</ele><time>2026-03-29T10:14:16.945Z</time></trkpt><trkpt lat="46.5805579" lon="12.6202406"><ele>1000.0</ele><time>2026-03-29T10:14:17.952Z</time></trkpt><trkpt lat="46.5806493" lon="12.6204464"><ele>1000.0</ele><time>2026-03-29T10:14:18.941Z</time></trkpt><trkpt lat="46.5807297" lon="12.6206643"><ele>1000.0</ele><time>2026-03-29T10:14:19.968Z</time></trkpt><trkpt lat="46.5807851" lon="12.6209094"><ele>1001.3333333333333</ele><time>2026-03-29T10:14:20.938Z</time></trkpt><trkpt lat="46.5808311" lon="12.6211713"><ele>1002.6666666666667</ele><time>2026-03-29T10:14:21.956Z</time></trkpt><trkpt lat="46.5808634" lon="12.621449"><ele>1004.0</ele><time>2026-03-29T10:14:22.936Z</time></trkpt><trkpt lat="46.5808559" lon="12.6217466"><ele>1005.6666666666667</ele><time>2026-03-29T10:14:23.948Z</time></trkpt><trkpt lat="46.5808629" lon="12.6220332"><ele>1007.3333333333333</ele><time>2026-03-29T10:14:24.944Z</time></trkpt><trkpt lat="46.5808856" lon="12.6223084"><ele>1009.0</ele><time>2026-03-29T10:14:25.96Z</time></trkpt><trkpt lat="46.5809001" lon="12.6225812"><ele>1010.3333333333333</ele><time>2026-03-29T10:14:26.945Z</time></trkpt><trkpt lat="46.5809066" lon="12.6228465"><ele>1011.6666666666667</ele><time>2026-03-29T10:14:27.954Z</time></trkpt><trkpt lat="46.5809032" lon="12.6231051"><ele>1013.0</ele><time>2026-03-29T10:14:28.953Z</time></trkpt><trkpt lat="46.580894" lon="12.6233595"><ele>1013.0</ele><time>2026-03-29T10:14:29.957Z</time></trkpt><trkpt lat="46.5808867" lon="12.6236106"><ele>1013.0</ele><time>2026-03-29T10:14:30.948Z</time></trkpt><trkpt lat="46.5808854" lon="12.6238605"><ele>1013.0</ele><time>2026-03-29T10:14:31.943Z</time></trkpt><trkpt lat="46.5808774" lon="12.6241108"><ele>1013.0</ele><time>2026-03-29T10:14:32.94Z</time></trkpt><trkpt lat="46.5808913" lon="12.6243579"><ele>1013.0</ele><time>2026-03-29T10:14:33.95Z</time></trkpt><trkpt lat="46.5808809" lon="12.6246001"><ele>1013.0</ele><time>2026-03-29T10:14:34.951Z</time></trkpt><trkpt lat="46.5808721" lon="12.6248475"><ele>1027.5</ele><time>2026-03-29T10:14:35.953Z</time></trkpt><trkpt lat="46.5808654" lon="12.6253576"><ele>1042.0</ele><time>2026-03-29T10:14:37.943Z</time></trkpt><trkpt lat="46.5808785" lon="12.6256078"><ele>1042.0</ele><time>2026-03-29T10:14:38.929Z</time></trkpt><trkpt lat="46.5808972" lon="12.6258748"><ele>1042.0</ele><time>2026-03-29T10:14:39.946Z</time></trkpt><trkpt lat="46.5808316" lon="12.6296797"><ele>1035.5</ele><time>2026-03-29T10:14:52.89Z</time></trkpt><trkpt lat="46.5808787" lon="12.6298492"><ele>1029.0</ele><time>2026-03-29T10:14:53.928Z</time></trkpt><trkpt lat="46.5805594" lon="12.630143"><ele>1032.6666666666667</ele><time>2026-03-29T10:14:54.975Z</time></trkpt><trkpt lat="46.580635" lon="12.6303544"><ele>1036.3333333333335</ele><time>2026-03-29T10:14:55.946Z</time></trkpt><trkpt lat="46.5806765" lon="12.6305243"><ele>1040.0</ele><time>2026-03-29T10:14:56.94Z</time></trkpt><trkpt lat="46.580616" lon="12.6307513"><ele>1040.0</ele><time>2026-03-29T10:14:57.949Z</time></trkpt><trkpt lat="46.5805332" lon="12.6309879"><ele>1040.0</ele><time>2026-03-29T10:14:58.928Z</time></trkpt><trkpt lat="46.580443" lon="12.6312382"><ele>1040.0</ele><time>2026-03-29T10:14:59.935Z</time></trkpt><trkpt lat="46.5803507" lon="12.6315022"><ele>1037.6666666666667</ele><time>2026-03-29T10:15:00.947Z</time></trkpt><trkpt lat="46.5802566" lon="12.6317765"><ele>1035.3333333333333</ele><time>2026-03-29T10:15:01.979Z</time></trkpt><trkpt lat="46.5801628" lon="12.6320574"><ele>1033.0</ele><time>2026-03-29T10:15:02.937Z</time></trkpt><trkpt lat="46.5800692" lon="12.6323362"><ele>1033.0</ele><time>2026-03-29T10:15:03.933Z</time></trkpt><trkpt lat="46.5799734" lon="12.6326146"><ele>1033.0</ele><time>2026-03-29T10:15:04.932Z</time></trkpt><trkpt lat="46.579877" lon="12.6328861"><ele>1033.0</ele><time>2026-03-29T10:15:05.935Z</time></trkpt><trkpt lat="46.5797813" lon="12.6331594"><ele>1031.0</ele><time>2026-03-29T10:15:06.94Z</time></trkpt><trkpt lat="46.5796882" lon="12.6334407"><ele>1029.0</ele><time>2026-03-29T10:15:07.935Z</time></trkpt><trkpt lat="46.5795986" lon="12.6337343"><ele>1027.0</ele><time>2026-03-29T10:15:08.935Z</time></trkpt><trkpt lat="46.579512" lon="12.6340305"><ele>1027.0</ele><time>2026-03-29T10:15:09.927Z</time></trkpt><trkpt lat="46.5794268" lon="12.634325"><ele>1027.0</ele><time>2026-03-29T10:15:10.94Z</time></trkpt><trkpt lat="46.579348" lon="12.6346183"><ele>1027.0</ele><time>2026-03-29T10:15:11.945Z</time></trkpt><trkpt lat="46.5792888" lon="12.6349232"><ele>1029.6666666666665</ele><time>2026-03-29T10:15:12.953Z</time></trkpt><trkpt lat="46.5792395" lon="12.6352253"><ele>1032.3333333333333</ele><time>2026-03-29T10:15:13.956Z</time></trkpt><trkpt lat="46.5791926" lon="12.6355245"><ele>1035.0</ele><time>2026-03-29T10:15:14.932Z</time></trkpt><trkpt lat="46.5791463" lon="12.6358197"><ele>1038.6666666666667</ele><time>2026-03-29T10:15:15.934Z</time></trkpt><trkpt lat="46.5791034" lon="12.6360971"><ele>1042.3333333333335</ele><time>2026-03-29T10:15:16.927Z</time></trkpt><trkpt lat="46.5790662" lon="12.6363713"><ele>1046.0</ele><time>2026-03-29T10:15:17.933Z</time></trkpt><trkpt lat="46.5790379" lon="12.636631"><ele>1048.0</ele><time>2026-03-29T10:15:18.927Z</time></trkpt><trkpt lat="46.5790247" lon="12.6368817"><ele>1050.0</ele><time>2026-03-29T10:15:19.934Z</time></trkpt><trkpt lat="46.5790272" lon="12.6371247"><ele>1052.0</ele><time>2026-03-29T10:15:20.927Z</time></trkpt><trkpt lat="46.5790558" lon="12.6373601"><ele>1052.0</ele><time>2026-03-29T10:15:21.923Z</time></trkpt><trkpt lat="46.5790606" lon="12.6375836"><ele>1052.0</ele><time>2026-03-29T10:15:22.93Z</time></trkpt><trkpt lat="46.5790753" lon="12.6377938"><ele>1052.0</ele><time>2026-03-29T10:15:23.925Z</time></trkpt><trkpt lat="46.5790831" lon="12.6379974"><ele>1052.0</ele><time>2026-03-29T10:15:24.948Z</time></trkpt><trkpt lat="46.5790833" lon="12.6382111"><ele>1050.0</ele><time>2026-03-29T10:15:25.929Z</time></trkpt><trkpt lat="46.5790676" lon="12.6384337"><ele>1048.0</ele><time>2026-03-29T10:15:26.946Z</time></trkpt><trkpt lat="46.5790315" lon="12.6386641"><ele>1046.0</ele><time>2026-03-29T10:15:27.934Z</time></trkpt><trkpt lat="46.5789802" lon="12.6388917"><ele>1051.3333333333335</ele><time>2026-03-29T10:15:28.927Z</time></trkpt><trkpt lat="46.578904" lon="12.6391134"><ele>1056.6666666666667</ele><time>2026-03-29T10:15:29.929Z</time></trkpt><trkpt lat="46.5787981" lon="12.6393177"><ele>1062.0</ele><time>2026-03-29T10:15:30.934Z</time></trkpt><trkpt lat="46.5786819" lon="12.6395201"><ele>1062.0</ele><time>2026-03-29T10:15:31.944Z</time></trkpt><trkpt lat="46.5785472" lon="12.6397089"><ele>1062.0</ele><time>2026-03-29T10:15:32.925Z</time></trkpt><trkpt lat="46.5783946" lon="12.6398787"><ele>1062.0</ele><time>2026-03-29T10:15:33.949Z</time></trkpt><trkpt lat="46.5782479" lon="12.6400362"><ele>1062.0</ele><time>2026-03-29T10:15:34.937Z</time></trkpt><trkpt lat="46.578116" lon="12.6401907"><ele>1062.0</ele><time>2026-03-29T10:15:35.921Z</time></trkpt><trkpt lat="46.5779945" lon="12.6403451"><ele>1062.0</ele><time>2026-03-29T10:15:36.929Z</time></trkpt><trkpt lat="46.577875" lon="12.6405111"><ele>1062.0</ele><time>2026-03-29T10:15:37.942Z</time></trkpt><trkpt lat="46.5777813" lon="12.6407138"><ele>1062.0</ele><time>2026-03-29T10:15:38.937Z</time></trkpt><trkpt lat="46.5777088" lon="12.6409341"><ele>1062.0</ele><time>2026-03-29T10:15:39.949Z</time></trkpt><trkpt lat="46.5776491" lon="12.6411469"><ele>1062.0</ele><time>2026-03-29T10:15:40.937Z</time></trkpt><trkpt lat="46.5775927" lon="12.6413427"><ele>1062.0</ele><time>2026-03-29T10:15:41.954Z</time></trkpt><trkpt lat="46.5775315" lon="12.6415182"><ele>1062.0</ele><time>2026-03-29T10:15:42.933Z</time></trkpt><trkpt lat="46.5774684" lon="12.6416853"><ele>1062.0</ele><time>2026-03-29T10:15:43.924Z</time></trkpt><trkpt lat="46.5774453" lon="12.6418726"><ele>1064.5</ele><time>2026-03-29T10:15:44.937Z</time></trkpt><trkpt lat="46.5774707" lon="12.6420686"><ele>1067.0</ele><time>2026-03-29T10:15:45.931Z</time></trkpt><trkpt lat="46.5774858" lon="12.6422743"><ele>1069.5</ele><time>2026-03-29T10:15:46.945Z</time></trkpt><trkpt lat="46.5775247" lon="12.6424778"><ele>1072.0</ele><time>2026-03-29T10:15:47.954Z</time></trkpt><trkpt lat="46.57754" lon="12.6426822"><ele>1075.0</ele><time>2026-03-29T10:15:48.923Z</time></trkpt><trkpt lat="46.5775483" lon="12.6428809"><ele>1078.0</ele><time>2026-03-29T10:15:49.941Z</time></trkpt><trkpt lat="46.5775094" lon="12.643078"><ele>1081.0</ele><time>2026-03-29T10:15:50.945Z</time></trkpt><trkpt lat="46.5774333" lon="12.6432642"><ele>1084.0</ele><time>2026-03-29T10:15:51.945Z</time></trkpt><trkpt lat="46.5773499" lon="12.6434439"><ele>1084.0</ele><time>2026-03-29T10:15:52.936Z</time></trkpt><trkpt lat="46.5772691" lon="12.6436264"><ele>1084.0</ele><time>2026-03-29T10:15:53.951Z</time></trkpt><trkpt lat="46.5771975" lon="12.6438117"><ele>1084.0</ele><time>2026-03-29T10:15:54.926Z</time></trkpt><trkpt lat="46.5771733" lon="12.6440082"><ele>1084.0</ele><time>2026-03-29T10:15:55.934Z</time></trkpt><trkpt lat="46.5771773" lon="12.6442111"><ele>1085.75</ele><time>2026-03-29T10:15:56.938Z</time></trkpt><trkpt lat="46.5771527" lon="12.6443956"><ele>1087.5</ele><time>2026-03-29T10:15:57.935Z</time></trkpt><trkpt lat="46.5771015" lon="12.6445709"><ele>1089.25</ele><time>2026-03-29T10:15:58.952Z</time></trkpt><trkpt lat="46.5770285" lon="12.6447536"><ele>1091.0</ele><time>2026-03-29T10:15:59.962Z</time></trkpt><trkpt lat="46.5769404" lon="12.6449367"><ele>1090.3333333333335</ele><time>2026-03-29T10:16:00.927Z</time></trkpt><trkpt lat="46.5768573" lon="12.6451333"><ele>1089.6666666666667</ele><time>2026-03-29T10:16:01.963Z</time></trkpt><trkpt lat="46.5767665" lon="12.6453384"><ele>1089.0</ele><time>2026-03-29T10:16:02.934Z</time></trkpt><trkpt lat="46.5766622" lon="12.6455384"><ele>1089.0</ele><time>2026-03-29T10:16:03.955Z</time></trkpt><trkpt lat="46.5765726" lon="12.6457345"><ele>1089.0</ele><time>2026-03-29T10:16:04.927Z</time></trkpt><trkpt lat="46.5764596" lon="12.6459003"><ele>1089.0</ele><time>2026-03-29T10:16:05.949Z</time></trkpt><trkpt lat="46.5763828" lon="12.6460807"><ele>1090.0</ele><time>2026-03-29T10:16:06.957Z</time></trkpt><trkpt lat="46.576277" lon="12.6462263"><ele>1091.0</ele><time>2026-03-29T10:16:07.924Z</time></trkpt><trkpt lat="46.5761798" lon="12.6463971"><ele>1092.0</ele><time>2026-03-29T10:16:08.927Z</time></trkpt><trkpt lat="46.5760627" lon="12.6465628"><ele>1092.0</ele><time>2026-03-29T10:16:09.94Z</time></trkpt><trkpt lat="46.575897" lon="12.6466495"><ele>1092.0</ele><time>2026-03-29T10:16:10.931Z</time></trkpt><trkpt lat="46.5757236" lon="12.646749"><ele>1092.0</ele><time>2026-03-29T10:16:11.935Z</time></trkpt><trkpt lat="46.575564" lon="12.646906"><ele>1095.0</ele><time>2026-03-29T10:16:12.936Z</time></trkpt><trkpt lat="46.5754134" lon="12.6470968"><ele>1098.0</ele><time>2026-03-29T10:16:13.922Z</time></trkpt><trkpt lat="46.575251" lon="12.6472361"><ele>1101.0</ele><time>2026-03-29T10:16:14.936Z</time></trkpt><trkpt lat="46.5751141" lon="12.6474161"><ele>1101.0</ele><time>2026-03-29T10:16:15.951Z</time></trkpt><trkpt lat="46.5749848" lon="12.647604"><ele>1101.0</ele><time>2026-03-29T10:16:16.927Z</time></trkpt><trkpt lat="46.5748427" lon="12.6477784"><ele>1101.0</ele><time>2026-03-29T10:16:17.954Z</time></trkpt><trkpt lat="46.5747188" lon="12.6479287"><ele>1103.75</ele><time>2026-03-29T10:16:18.934Z</time></trkpt><trkpt lat="46.574626" lon="12.6480809"><ele>1106.5</ele><time>2026-03-29T10:16:19.938Z</time></trkpt><trkpt lat="46.5745547" lon="12.6482594"><ele>1109.25</ele><time>2026-03-29T10:16:20.934Z</time></trkpt><trkpt lat="46.5744445" lon="12.6484045"><ele>1112.0</ele><time>2026-03-29T10:16:21.942Z</time></trkpt><trkpt lat="46.5742909" lon="12.6484928"><ele>1112.0</ele><time>2026-03-29T10:16:22.929Z</time></trkpt><trkpt lat="46.5741488" lon="12.6485957"><ele>1112.0</ele><time>2026-03-29T10:16:23.937Z</time></trkpt><trkpt lat="46.5740117" lon="12.6486634"><ele>1112.0</ele><time>2026-03-29T10:16:24.928Z</time></trkpt><trkpt lat="46.5738801" lon="12.6487431"><ele>1112.0</ele><time>2026-03-29T10:16:25.94Z</time></trkpt><trkpt lat="46.5737569" lon="12.6488693"><ele>1113.3333333333335</ele><time>2026-03-29T10:16:26.94Z</time></trkpt><trkpt lat="46.5736271" lon="12.6490116"><ele>1114.6666666666667</ele><time>2026-03-29T10:16:27.933Z</time></trkpt><trkpt lat="46.5735058" lon="12.6491717"><ele>1116.0</ele><time>2026-03-29T10:16:28.941Z</time></trkpt><trkpt lat="46.5733816" lon="12.6493168"><ele>1116.0</ele><time>2026-03-29T10:16:29.95Z</time></trkpt><trkpt lat="46.5732546" lon="12.6494496"><ele>1116.0</ele><time>2026-03-29T10:16:30.935Z</time></trkpt><trkpt lat="46.5731324" lon="12.6495805"><ele>1116.0</ele><time>2026-03-29T10:16:31.954Z</time></trkpt><trkpt lat="46.5729851" lon="12.6496427"><ele>1122.6666666666667</ele><time>2026-03-29T10:16:32.948Z</time></trkpt><trkpt lat="46.5728364" lon="12.6497043"><ele>1129.3333333333335</ele><time>2026-03-29T10:16:33.957Z</time></trkpt><trkpt lat="46.5727033" lon="12.6498359"><ele>1136.0</ele><time>2026-03-29T10:16:34.942Z</time></trkpt><trkpt lat="46.5725695" lon="12.6499941"><ele>1136.0</ele><time>2026-03-29T10:16:35.941Z</time></trkpt><trkpt lat="46.5724384" lon="12.6501424"><ele>1136.0</ele><time>2026-03-29T10:16:36.945Z</time></trkpt><trkpt lat="46.5723155" lon="12.650278"><ele>1136.0</ele><time>2026-03-29T10:16:37.943Z</time></trkpt><trkpt lat="46.5722122" lon="12.6504444"><ele>1130.6666666666667</ele><time>2026-03-29T10:16:38.93Z</time></trkpt><trkpt lat="46.5721049" lon="12.6506196"><ele>1125.3333333333333</ele><time>2026-03-29T10:16:39.947Z</time></trkpt><trkpt lat="46.5720031" lon="12.6508255"><ele>1120.0</ele><time>2026-03-29T10:16:40.943Z</time></trkpt><trkpt lat="46.5718879" lon="12.6510389"><ele>1128.3333333333333</ele><time>2026-03-29T10:16:41.942Z</time></trkpt><trkpt lat="46.5717993" lon="12.6512526"><ele>1136.6666666666667</ele><time>2026-03-29T10:16:42.947Z</time></trkpt><trkpt lat="46.571721" lon="12.6514591"><ele>1145.0</ele><time>2026-03-29T10:16:43.942Z</time></trkpt><trkpt lat="46.5716761" lon="12.6516817"><ele>1145.0</ele><time>2026-03-29T10:16:44.943Z</time></trkpt><trkpt lat="46.5716587" lon="12.6519125"><ele>1145.0</ele><time>2026-03-29T10:16:45.94Z</time></trkpt><trkpt lat="46.5716771" lon="12.6521354"><ele>1145.0</ele><time>2026-03-29T10:16:46.952Z</time></trkpt><trkpt lat="46.5717042" lon="12.6523519"><ele>1149.0</ele><time>2026-03-29T10:16:47.938Z</time></trkpt><trkpt lat="46.5717259" lon="12.6525707"><ele>1153.0</ele><time>2026-03-29T10:16:48.937Z</time></trkpt><trkpt lat="46.5717513" lon="12.6527858"><ele>1157.0</ele><time>2026-03-29T10:16:49.936Z</time></trkpt><trkpt lat="46.5717378" lon="12.6529932"><ele>1161.0</ele><time>2026-03-29T10:16:50.93Z</time></trkpt><trkpt lat="46.5716846" lon="12.6531932"><ele>1162.3333333333333</ele><time>2026-03-29T10:16:51.943Z</time></trkpt><trkpt lat="46.571612" lon="12.6533931"><ele>1163.6666666666665</ele><time>2026-03-29T10:16:52.955Z</time></trkpt><trkpt lat="46.5715371" lon="12.653603"><ele>1165.0</ele><time>2026-03-29T10:16:53.946Z</time></trkpt><trkpt lat="46.5715" lon="12.6538148"><ele>1168.5</ele><time>2026-03-29T10:16:54.927Z</time></trkpt><trkpt lat="46.5714738" lon="12.6540194"><ele>1172.0</ele><time>2026-03-29T10:16:55.945Z</time></trkpt><trkpt lat="46.5714339" lon="12.6542073"><ele>1175.5</ele><time>2026-03-29T10:16:56.934Z</time></trkpt><trkpt lat="46.5713901" lon="12.6543801"><ele>1179.0</ele><time>2026-03-29T10:16:57.936Z</time></trkpt><trkpt lat="46.5712928" lon="12.654526"><ele>1177.0</ele><time>2026-03-29T10:16:58.936Z</time></trkpt><trkpt lat="46.5711783" lon="12.6546494"><ele>1175.0</ele><time>2026-03-29T10:16:59.935Z</time></trkpt><trkpt lat="46.5710548" lon="12.6547862"><ele>1173.0</ele><time>2026-03-29T10:17:00.948Z</time></trkpt><trkpt lat="46.5709231" lon="12.6548672"><ele>1171.0</ele><time>2026-03-29T10:17:01.931Z</time></trkpt><trkpt lat="46.5707998" lon="12.6549551"><ele>1171.0</ele><time>2026-03-29T10:17:02.929Z</time></trkpt><trkpt lat="46.5706915" lon="12.6550867"><ele>1171.0</ele><time>2026-03-29T10:17:03.925Z</time></trkpt><trkpt lat="46.5705685" lon="12.655194"><ele>1171.0</ele><time>2026-03-29T10:17:04.937Z</time></trkpt><trkpt lat="46.570466" lon="12.6553454"><ele>1171.0</ele><time>2026-03-29T10:17:05.952Z</time></trkpt><trkpt lat="46.5703519" lon="12.6555125"><ele>1173.0</ele><time>2026-03-29T10:17:06.95Z</time></trkpt><trkpt lat="46.5702397" lon="12.6556983"><ele>1175.0</ele><time>2026-03-29T10:17:07.939Z</time></trkpt><trkpt lat="46.5701219" lon="12.6558814"><ele>1177.0</ele><time>2026-03-29T10:17:08.929Z</time></trkpt><trkpt lat="46.5699981" lon="12.6560563"><ele>1185.0</ele><time>2026-03-29T10:17:09.929Z</time></trkpt><trkpt lat="46.569882" lon="12.6562396"><ele>1193.0</ele><time>2026-03-29T10:17:10.924Z</time></trkpt><trkpt lat="46.5697648" lon="12.656409"><ele>1201.0</ele><time>2026-03-29T10:17:11.929Z</time></trkpt><trkpt lat="46.5696487" lon="12.6565798"><ele>1201.0</ele><time>2026-03-29T10:17:12.939Z</time></trkpt><trkpt lat="46.5695293" lon="12.656756"><ele>1201.0</ele><time>2026-03-29T10:17:13.925Z</time></trkpt><trkpt lat="46.5694173" lon="12.6569492"><ele>1201.0</ele><time>2026-03-29T10:17:14.935Z</time></trkpt><trkpt lat="46.5693004" lon="12.6571423"><ele>1196.3333333333333</ele><time>2026-03-29T10:17:15.943Z</time></trkpt><trkpt lat="46.5692064" lon="12.6573403"><ele>1191.6666666666667</ele><time>2026-03-29T10:17:16.943Z</time></trkpt><trkpt lat="46.5691074" lon="12.6575287"><ele>1187.0</ele><time>2026-03-29T10:17:17.947Z</time></trkpt><trkpt lat="46.5690064" lon="12.6577138"><ele>1190.6666666666667</ele><time>2026-03-29T10:17:18.935Z</time></trkpt><trkpt lat="46.5689031" lon="12.6578921"><ele>1194.3333333333333</ele><time>2026-03-29T10:17:19.938Z</time></trkpt><trkpt lat="46.5688062" lon="12.6580712"><ele>1198.0</ele><time>2026-03-29T10:17:20.935Z</time></trkpt><trkpt lat="46.5687243" lon="12.6582689"><ele>1195.3333333333333</ele><time>2026-03-29T10:17:21.944Z</time></trkpt><trkpt lat="46.5686454" lon="12.6584731"><ele>1192.6666666666667</ele><time>2026-03-29T10:17:22.929Z</time></trkpt><trkpt lat="46.5685968" lon="12.6587023"><ele>1190.0</ele><time>2026-03-29T10:17:23.937Z</time></trkpt><trkpt lat="46.5685646" lon="12.6589412"><ele>1190.0</ele><time>2026-03-29T10:17:24.948Z</time></trkpt><trkpt lat="46.5684862" lon="12.6591417"><ele>1190.0</ele><time>2026-03-29T10:17:25.93Z</time></trkpt><trkpt lat="46.5683895" lon="12.6593232"><ele>1190.0</ele><time>2026-03-29T10:17:26.935Z</time></trkpt><trkpt lat="46.5682692" lon="12.6594864"><ele>1199.3333333333335</ele><time>2026-03-29T10:17:27.968Z</time></trkpt><trkpt lat="46.5681481" lon="12.6596721"><ele>1208.6666666666667</ele><time>2026-03-29T10:17:28.953Z</time></trkpt><trkpt lat="46.5680147" lon="12.6598534"><ele>1218.0</ele><time>2026-03-29T10:17:29.945Z</time></trkpt><trkpt lat="46.5678705" lon="12.6600224"><ele>1214.6666666666667</ele><time>2026-03-29T10:17:30.936Z</time></trkpt><trkpt lat="46.5677393" lon="12.6602005"><ele>1211.3333333333335</ele><time>2026-03-29T10:17:31.935Z</time></trkpt><trkpt lat="46.5675967" lon="12.6603407"><ele>1208.0</ele><time>2026-03-29T10:17:32.935Z</time></trkpt><trkpt lat="46.5674761" lon="12.6605019"><ele>1208.0</ele><time>2026-03-29T10:17:33.957Z</time></trkpt><trkpt lat="46.5673688" lon="12.6606749"><ele>1208.0</ele><time>2026-03-29T10:17:34.947Z</time></trkpt><trkpt lat="46.5672791" lon="12.6608705"><ele>1208.0</ele><time>2026-03-29T10:17:35.949Z</time></trkpt><trkpt lat="46.5671745" lon="12.66105"><ele>1205.0</ele><time>2026-03-29T10:17:36.945Z</time></trkpt><trkpt lat="46.5670519" lon="12.6612042"><ele>1202.0</ele><time>2026-03-29T10:17:37.936Z</time></trkpt><trkpt lat="46.5669206" lon="12.661321"><ele>1199.0</ele><time>2026-03-29T10:17:38.928Z</time></trkpt><trkpt lat="46.5668029" lon="12.6614211"><ele>1199.0</ele><time>2026-03-29T10:17:39.938Z</time></trkpt><trkpt lat="46.5667" lon="12.6615398"><ele>1199.0</ele><time>2026-03-29T10:17:40.94Z</time></trkpt><trkpt lat="46.5666319" lon="12.6616855"><ele>1199.0</ele><time>2026-03-29T10:17:41.946Z</time></trkpt><trkpt lat="46.5665723" lon="12.6618485"><ele>1199.0</ele><time>2026-03-29T10:17:42.942Z</time></trkpt><trkpt lat="46.5665803" lon="12.6620419"><ele>1200.5</ele><time>2026-03-29T10:17:43.934Z</time></trkpt><trkpt lat="46.5666239" lon="12.6622301"><ele>1202.0</ele><time>2026-03-29T10:17:44.949Z</time></trkpt><trkpt lat="46.5666821" lon="12.6624063"><ele>1203.5</ele><time>2026-03-29T10:17:45.952Z</time></trkpt><trkpt lat="46.5667422" lon="12.6625872"><ele>1205.0</ele><time>2026-03-29T10:17:46.929Z</time></trkpt><trkpt lat="46.5667951" lon="12.6627703"><ele>1206.0</ele><time>2026-03-29T10:17:47.92Z</time></trkpt><trkpt lat="46.5668501" lon="12.6629479"><ele>1207.0</ele><time>2026-03-29T10:17:48.944Z</time></trkpt><trkpt lat="46.5668935" lon="12.6631252"><ele>1208.0</ele><time>2026-03-29T10:17:49.95Z</time></trkpt><trkpt lat="46.5669294" lon="12.6632976"><ele>1209.0</ele><time>2026-03-29T10:17:50.938Z</time></trkpt><trkpt lat="46.5669546" lon="12.6634641"><ele>1210.25</ele><time>2026-03-29T10:17:51.943Z</time></trkpt><trkpt lat="46.5669481" lon="12.6636305"><ele>1211.5</ele><time>2026-03-29T10:17:52.951Z</time></trkpt><trkpt lat="46.5669051" lon="12.6638015"><ele>1212.75</ele><time>2026-03-29T10:17:53.961Z</time></trkpt><trkpt lat="46.5668381" lon="12.6639761"><ele>1214.0</ele><time>2026-03-29T10:17:54.947Z</time></trkpt><trkpt lat="46.566764" lon="12.6641516"><ele>1214.0</ele><time>2026-03-29T10:17:55.943Z</time></trkpt><trkpt lat="46.5666883" lon="12.6643308"><ele>1214.0</ele><time>2026-03-29T10:17:56.931Z</time></trkpt><trkpt lat="46.5666121" lon="12.6645165"><ele>1214.0</ele><time>2026-03-29T10:17:57.925Z</time></trkpt><trkpt lat="46.5665322" lon="12.6647091"><ele>1214.0</ele><time>2026-03-29T10:17:58.931Z</time></trkpt><trkpt lat="46.5664501" lon="12.6649101"><ele>1214.6666666666667</ele><time>2026-03-29T10:17:59.929Z</time></trkpt><trkpt lat="46.5663761" lon="12.6651248"><ele>1215.3333333333333</ele><time>2026-03-29T10:18:00.931Z</time></trkpt><trkpt lat="46.566309" lon="12.6653458"><ele>1216.0</ele><time>2026-03-29T10:18:01.935Z</time></trkpt><trkpt lat="46.5662483" lon="12.66557"><ele>1215.0</ele><time>2026-03-29T10:18:02.941Z</time></trkpt><trkpt lat="46.5661919" lon="12.6657952"><ele>1214.0</ele><time>2026-03-29T10:18:03.936Z</time></trkpt><trkpt lat="46.5661363" lon="12.6660171"><ele>1213.0</ele><time>2026-03-29T10:18:04.935Z</time></trkpt><trkpt lat="46.5660806" lon="12.6662375"><ele>1215.3333333333333</ele><time>2026-03-29T10:18:05.952Z</time></trkpt><trkpt lat="46.5660239" lon="12.6664539"><ele>1217.6666666666667</ele><time>2026-03-29T10:18:06.956Z</time></trkpt><trkpt lat="46.5659686" lon="12.6666654"><ele>1220.0</ele><time>2026-03-29T10:18:07.954Z</time></trkpt><trkpt lat="46.5659151" lon="12.6668766"><ele>1221.3333333333335</ele><time>2026-03-29T10:18:08.941Z</time></trkpt><trkpt lat="46.5658702" lon="12.6670939"><ele>1222.6666666666667</ele><time>2026-03-29T10:18:09.946Z</time></trkpt><trkpt lat="46.5658188" lon="12.6673091"><ele>1224.0</ele><time>2026-03-29T10:18:10.919Z</time></trkpt><trkpt lat="46.5657663" lon="12.667526"><ele>1224.0</ele><time>2026-03-29T10:18:11.933Z</time></trkpt><trkpt lat="46.5657137" lon="12.6677452"><ele>1224.0</ele><time>2026-03-29T10:18:12.94Z</time></trkpt><trkpt lat="46.5656454" lon="12.667958"><ele>1224.0</ele><time>2026-03-29T10:18:13.936Z</time></trkpt><trkpt lat="46.5655886" lon="12.6681759"><ele>1225.0</ele><time>2026-03-29T10:18:14.942Z</time></trkpt><trkpt lat="46.5655418" lon="12.6684245"><ele>1226.0</ele><time>2026-03-29T10:18:15.94Z</time></trkpt><trkpt lat="46.5654492" lon="12.6686368"><ele>1227.0</ele><time>2026-03-29T10:18:16.928Z</time></trkpt><trkpt lat="46.565388" lon="12.6688616"><ele>1225.3333333333333</ele><time>2026-03-29T10:18:17.93Z</time></trkpt><trkpt lat="46.5653247" lon="12.6690787"><ele>1223.6666666666665</ele><time>2026-03-29T10:18:18.935Z</time></trkpt><trkpt lat="46.5652681" lon="12.6692988"><ele>1222.0</ele><time>2026-03-29T10:18:19.959Z</time></trkpt><trkpt lat="46.5652212" lon="12.6695152"><ele>1222.0</ele><time>2026-03-29T10:18:20.953Z</time></trkpt><trkpt lat="46.565168" lon="12.6697171"><ele>1222.0</ele><time>2026-03-29T10:18:21.944Z</time></trkpt><trkpt lat="46.565117" lon="12.6699137"><ele>1222.0</ele><time>2026-03-29T10:18:22.955Z</time></trkpt><trkpt lat="46.5650623" lon="12.6701073"><ele>1222.0</ele><time>2026-03-29T10:18:23.949Z</time></trkpt><trkpt lat="46.5650022" lon="12.6702937"><ele>1223.0</ele><time>2026-03-29T10:18:24.95Z</time></trkpt><trkpt lat="46.5649451" lon="12.6704775"><ele>1224.0</ele><time>2026-03-29T10:18:25.953Z</time></trkpt><trkpt lat="46.564905" lon="12.6706654"><ele>1225.0</ele><time>2026-03-29T10:18:26.974Z</time></trkpt><trkpt lat="46.5648537" lon="12.6708569"><ele>1226.0</ele><time>2026-03-29T10:18:27.954Z</time></trkpt><trkpt lat="46.5648028" lon="12.671046"><ele>1227.0</ele><time>2026-03-29T10:18:28.945Z</time></trkpt><trkpt lat="46.5647522" lon="12.6712288"><ele>1228.0</ele><time>2026-03-29T10:18:29.943Z</time></trkpt><trkpt lat="46.5647069" lon="12.6714104"><ele>1229.0</ele><time>2026-03-29T10:18:30.943Z</time></trkpt><trkpt lat="46.56466" lon="12.6715867"><ele>1230.0</ele><time>2026-03-29T10:18:31.93Z</time></trkpt><trkpt lat="46.5646143" lon="12.6717581"><ele>1230.0</ele><time>2026-03-29T10:18:32.939Z</time></trkpt><trkpt lat="46.5645667" lon="12.6719201"><ele>1230.0</ele><time>2026-03-29T10:18:33.94Z</time></trkpt><trkpt lat="46.5645241" lon="12.6720799"><ele>1230.0</ele><time>2026-03-29T10:18:34.935Z</time></trkpt><trkpt lat="46.5644864" lon="12.6722418"><ele>1230.0</ele><time>2026-03-29T10:18:35.952Z</time></trkpt><trkpt lat="46.5644564" lon="12.6724093"><ele>1228.5</ele><time>2026-03-29T10:18:36.941Z</time></trkpt><trkpt lat="46.5644449" lon="12.6725865"><ele>1227.0</ele><time>2026-03-29T10:18:37.949Z</time></trkpt><trkpt lat="46.5644371" lon="12.6727658"><ele>1225.5</ele><time>2026-03-29T10:18:38.939Z</time></trkpt><trkpt lat="46.5644404" lon="12.6729523"><ele>1224.0</ele><time>2026-03-29T10:18:39.948Z</time></trkpt><trkpt lat="46.5644472" lon="12.6731469"><ele>1224.0</ele><time>2026-03-29T10:18:40.948Z</time></trkpt><trkpt lat="46.5644675" lon="12.6733448"><ele>1224.0</ele><time>2026-03-29T10:18:41.94Z</time></trkpt><trkpt lat="46.5644874" lon="12.6735392"><ele>1224.0</ele><time>2026-03-29T10:18:42.956Z</time></trkpt><trkpt lat="46.5645171" lon="12.6737239"><ele>1224.0</ele><time>2026-03-29T10:18:43.967Z</time></trkpt><trkpt lat="46.5645468" lon="12.6739039"><ele>1226.25</ele><time>2026-03-29T10:18:44.943Z</time></trkpt><trkpt lat="46.5645721" lon="12.6740812"><ele>1228.5</ele><time>2026-03-29T10:18:45.948Z</time></trkpt><trkpt lat="46.5645966" lon="12.6742554"><ele>1230.75</ele><time>2026-03-29T10:18:46.946Z</time></trkpt><trkpt lat="46.5646081" lon="12.6744296"><ele>1233.0</ele><time>2026-03-29T10:18:47.953Z</time></trkpt><trkpt lat="46.5646307" lon="12.6745997"><ele>1233.25</ele><time>2026-03-29T10:18:48.95Z</time></trkpt><trkpt lat="46.5646447" lon="12.6747729"><ele>1233.5</ele><time>2026-03-29T10:18:49.941Z</time></trkpt><trkpt lat="46.5646595" lon="12.6749497"><ele>1233.75</ele><time>2026-03-29T10:18:50.942Z</time></trkpt><trkpt lat="46.5646365" lon="12.6751331"><ele>1234.0</ele><time>2026-03-29T10:18:51.94Z</time></trkpt><trkpt lat="46.5646365" lon="12.6753081"><ele>1234.0</ele><time>2026-03-29T10:18:52.952Z</time></trkpt><trkpt lat="46.5646442" lon="12.6754797"><ele>1234.0</ele><time>2026-03-29T10:18:53.93Z</time></trkpt><trkpt lat="46.5646954" lon="12.6756419"><ele>1234.0</ele><time>2026-03-29T10:18:54.931Z</time></trkpt><trkpt lat="46.5647281" lon="12.6758038"><ele>1234.0</ele><time>2026-03-29T10:18:55.959Z</time></trkpt><trkpt lat="46.5647501" lon="12.675962"><ele>1233.4</ele><time>2026-03-29T10:18:56.945Z</time></trkpt><trkpt lat="46.5647603" lon="12.676116"><ele>1232.8000000000002</ele><time>2026-03-29T10:18:57.938Z</time></trkpt><trkpt lat="46.5647751" lon="12.6762689"><ele>1232.1999999999998</ele><time>2026-03-29T10:18:58.935Z</time></trkpt><trkpt lat="46.5647911" lon="12.6764183"><ele>1231.6</ele><time>2026-03-29T10:18:59.939Z</time></trkpt><trkpt lat="46.5648158" lon="12.6765658"><ele>1231.0</ele><time>2026-03-29T10:19:00.936Z</time></trkpt><trkpt lat="46.5648208" lon="12.6767118"><ele>1231.0</ele><time>2026-03-29T10:19:01.943Z</time></trkpt><trkpt lat="46.5648326" lon="12.6768552"><ele>1231.0</ele><time>2026-03-29T10:19:02.947Z</time></trkpt><trkpt lat="46.5648419" lon="12.676997"><ele>1231.0</ele><time>2026-03-29T10:19:03.951Z</time></trkpt><trkpt lat="46.5648535" lon="12.6771409"><ele>1231.0</ele><time>2026-03-29T10:19:04.93Z</time></trkpt><trkpt lat="46.5648783" lon="12.6772936"><ele>1231.0</ele><time>2026-03-29T10:19:05.938Z</time></trkpt><trkpt lat="46.5648977" lon="12.6774529"><ele>1230.25</ele><time>2026-03-29T10:19:06.935Z</time></trkpt><trkpt lat="46.5649155" lon="12.6776153"><ele>1229.5</ele><time>2026-03-29T10:19:07.953Z</time></trkpt><trkpt lat="46.5649311" lon="12.6777756"><ele>1228.75</ele><time>2026-03-29T10:19:08.955Z</time></trkpt><trkpt lat="46.5649532" lon="12.6779345"><ele>1228.0</ele><time>2026-03-29T10:19:09.951Z</time></trkpt><trkpt lat="46.5649884" lon="12.6780968"><ele>1226.5</ele><time>2026-03-29T10:19:10.938Z</time></trkpt><trkpt lat="46.5650359" lon="12.6782604"><ele>1225.0</ele><time>2026-03-29T10:19:11.938Z</time></trkpt><trkpt lat="46.5650792" lon="12.6784258"><ele>1223.5</ele><time>2026-03-29T10:19:12.92Z</time></trkpt><trkpt lat="46.5651215" lon="12.6785846"><ele>1222.0</ele><time>2026-03-29T10:19:13.925Z</time></trkpt><trkpt lat="46.5651649" lon="12.6787372"><ele>1222.0</ele><time>2026-03-29T10:19:14.937Z</time></trkpt><trkpt lat="46.565208" lon="12.6788882"><ele>1222.0</ele><time>2026-03-29T10:19:15.942Z</time></trkpt><trkpt lat="46.5652529" lon="12.6790374"><ele>1222.0</ele><time>2026-03-29T10:19:16.932Z</time></trkpt><trkpt lat="46.5653068" lon="12.6791802"><ele>1222.0</ele><time>2026-03-29T10:19:17.954Z</time></trkpt><trkpt lat="46.5653548" lon="12.6793226"><ele>1222.0</ele><time>2026-03-29T10:19:18.94Z</time></trkpt><trkpt lat="46.5654062" lon="12.6794598"><ele>1222.0</ele><time>2026-03-29T10:19:19.934Z</time></trkpt><trkpt lat="46.5654652" lon="12.6795872"><ele>1222.0</ele><time>2026-03-29T10:19:20.941Z</time></trkpt><trkpt lat="46.5655296" lon="12.6797119"><ele>1222.0</ele><time>2026-03-29T10:19:21.94Z</time></trkpt><trkpt lat="46.5655695" lon="12.6798442"><ele>1222.0</ele><time>2026-03-29T10:19:22.942Z</time></trkpt><trkpt lat="46.5656153" lon="12.6799734"><ele>1222.0</ele><time>2026-03-29T10:19:23.949Z</time></trkpt><trkpt lat="46.5656405" lon="12.6801042"><ele>1222.0</ele><time>2026-03-29T10:19:24.946Z</time></trkpt><trkpt lat="46.5656295" lon="12.6802373"><ele>1222.0</ele><time>2026-03-29T10:19:25.956Z</time></trkpt><trkpt lat="46.5656226" lon="12.6803733"><ele>1222.0</ele><time>2026-03-29T10:19:26.938Z</time></trkpt><trkpt lat="46.5656244" lon="12.6805228"><ele>1222.0</ele><time>2026-03-29T10:19:27.932Z</time></trkpt><trkpt lat="46.5656362" lon="12.6806759"><ele>1222.0</ele><time>2026-03-29T10:19:28.937Z</time></trkpt><trkpt lat="46.5656335" lon="12.6808297"><ele>1222.8</ele><time>2026-03-29T10:19:29.943Z</time></trkpt><trkpt lat="46.5656352" lon="12.6809841"><ele>1223.6</ele><time>2026-03-29T10:19:30.944Z</time></trkpt><trkpt lat="46.5656583" lon="12.6811404"><ele>1224.3999999999999</ele><time>2026-03-29T10:19:31.95Z</time></trkpt><trkpt lat="46.565684" lon="12.681305"><ele>1225.2</ele><time>2026-03-29T10:19:32.947Z</time></trkpt><trkpt lat="46.5656889" lon="12.6814733"><ele>1226.0</ele><time>2026-03-29T10:19:33.939Z</time></trkpt><trkpt lat="46.5657024" lon="12.6816445"><ele>1226.5</ele><time>2026-03-29T10:19:34.925Z</time></trkpt><trkpt lat="46.5657126" lon="12.6818179"><ele>1227.0</ele><time>2026-03-29T10:19:35.936Z</time></trkpt><trkpt lat="46.565727" lon="12.6819909"><ele>1227.5</ele><time>2026-03-29T10:19:36.942Z</time></trkpt><trkpt lat="46.5657407" lon="12.6821602"><ele>1228.0</ele><time>2026-03-29T10:19:37.946Z</time></trkpt><trkpt lat="46.5657628" lon="12.6823192"><ele>1229.0</ele><time>2026-03-29T10:19:38.939Z</time></trkpt><trkpt lat="46.565774" lon="12.6824731"><ele>1230.0</ele><time>2026-03-29T10:19:39.937Z</time></trkpt><trkpt lat="46.5657848" lon="12.6826227"><ele>1231.0</ele><time>2026-03-29T10:19:40.948Z</time></trkpt><trkpt lat="46.5657986" lon="12.6827699"><ele>1232.0</ele><time>2026-03-29T10:19:41.944Z</time></trkpt><trkpt lat="46.5658082" lon="12.6829168"><ele>1233.0</ele><time>2026-03-29T10:19:42.934Z</time></trkpt><trkpt lat="46.5658142" lon="12.6830614"><ele>1233.6</ele><time>2026-03-29T10:19:43.951Z</time></trkpt><trkpt lat="46.5658276" lon="12.6832032"><ele>1234.1999999999998</ele><time>2026-03-29T10:19:44.941Z</time></trkpt><trkpt lat="46.5658394" lon="12.6833484"><ele>1234.8</ele><time>2026-03-29T10:19:45.934Z</time></trkpt><trkpt lat="46.5658464" lon="12.6834977"><ele>1235.3999999999999</ele><time>2026-03-29T10:19:46.937Z</time></trkpt><trkpt lat="46.5658564" lon="12.6836518"><ele>1236.0</ele><time>2026-03-29T10:19:47.943Z</time></trkpt><trkpt lat="46.5658427" lon="12.6838167"><ele>1236.3999999999999</ele><time>2026-03-29T10:19:48.927Z</time></trkpt><trkpt lat="46.5658636" lon="12.6839737"><ele>1236.8</ele><time>2026-03-29T10:19:49.945Z</time></trkpt><trkpt lat="46.5658744" lon="12.6841298"><ele>1237.1999999999998</ele><time>2026-03-29T10:19:50.935Z</time></trkpt><trkpt lat="46.565882" lon="12.6842808"><ele>1237.6</ele><time>2026-03-29T10:19:51.939Z</time></trkpt><trkpt lat="46.5659057" lon="12.6844174"><ele>1238.0</ele><time>2026-03-29T10:19:52.944Z</time></trkpt><trkpt lat="46.5659142" lon="12.6845454"><ele>1238.8</ele><time>2026-03-29T10:19:53.947Z</time></trkpt><trkpt lat="46.5659213" lon="12.6846713"><ele>1239.6</ele><time>2026-03-29T10:19:54.944Z</time></trkpt><trkpt lat="46.5659314" lon="12.6848044"><ele>1240.4</ele><time>2026-03-29T10:19:55.942Z</time></trkpt><trkpt lat="46.5659364" lon="12.6849509"><ele>1241.2</ele><time>2026-03-29T10:19:56.938Z</time></trkpt><trkpt lat="46.5659443" lon="12.6851103"><ele>1242.0</ele><time>2026-03-29T10:19:57.939Z</time></trkpt><trkpt lat="46.5659545" lon="12.6852767"><ele>1243.5</ele><time>2026-03-29T10:19:58.931Z</time></trkpt><trkpt lat="46.5659677" lon="12.6854464"><ele>1245.0</ele><time>2026-03-29T10:19:59.962Z</time></trkpt><trkpt lat="46.5659767" lon="12.685617"><ele>1246.5</ele><time>2026-03-29T10:20:00.937Z</time></trkpt><trkpt lat="46.5659906" lon="12.6857834"><ele>1248.0</ele><time>2026-03-29T10:20:01.939Z</time></trkpt><trkpt lat="46.5660111" lon="12.6859481"><ele>1248.2</ele><time>2026-03-29T10:20:02.936Z</time></trkpt><trkpt lat="46.5660286" lon="12.6861097"><ele>1248.4</ele><time>2026-03-29T10:20:03.927Z</time></trkpt><trkpt lat="46.5660382" lon="12.6862655"><ele>1248.6000000000001</ele><time>2026-03-29T10:20:04.936Z</time></trkpt><trkpt lat="46.5660529" lon="12.6864096"><ele>1248.8</ele><time>2026-03-29T10:20:05.95Z</time></trkpt><trkpt lat="46.5660684" lon="12.6865465"><ele>1249.0</ele><time>2026-03-29T10:20:06.948Z</time></trkpt><trkpt lat="46.566081" lon="12.6866783"><ele>1249.0</ele><time>2026-03-29T10:20:07.943Z</time></trkpt><trkpt lat="46.5660887" lon="12.6868048"><ele>1249.0</ele><time>2026-03-29T10:20:08.944Z</time></trkpt><trkpt lat="46.5660919" lon="12.6869287"><ele>1249.0</ele><time>2026-03-29T10:20:09.949Z</time></trkpt><trkpt lat="46.5660919" lon="12.6870509"><ele>1249.0</ele><time>2026-03-29T10:20:10.949Z</time></trkpt><trkpt lat="46.566099" lon="12.6871703"><ele>1249.0</ele><time>2026-03-29T10:20:11.926Z</time></trkpt><trkpt lat="46.5661114" lon="12.6872835"><ele>1249.0</ele><time>2026-03-29T10:20:12.939Z</time></trkpt><trkpt lat="46.5661407" lon="12.68739"><ele>1248.4</ele><time>2026-03-29T10:20:13.941Z</time></trkpt><trkpt lat="46.5661811" lon="12.687482"><ele>1247.8000000000002</ele><time>2026-03-29T10:20:14.928Z</time></trkpt><trkpt lat="46.5662528" lon="12.6875413"><ele>1247.1999999999998</ele><time>2026-03-29T10:20:15.947Z</time></trkpt><trkpt lat="46.5663398" lon="12.6875724"><ele>1246.6</ele><time>2026-03-29T10:20:16.93Z</time></trkpt><trkpt lat="46.5664478" lon="12.6875675"><ele>1246.0</ele><time>2026-03-29T10:20:17.954Z</time></trkpt><trkpt lat="46.5665587" lon="12.6875402"><ele>1246.0</ele><time>2026-03-29T10:20:18.942Z</time></trkpt><trkpt lat="46.5666786" lon="12.6875259"><ele>1246.0</ele><time>2026-03-29T10:20:19.958Z</time></trkpt><trkpt lat="46.5667917" lon="12.6875004"><ele>1246.0</ele><time>2026-03-29T10:20:20.959Z</time></trkpt><trkpt lat="46.5668979" lon="12.6875051"><ele>1246.0</ele><time>2026-03-29T10:20:21.957Z</time></trkpt><trkpt lat="46.5669912" lon="12.6875054"><ele>1246.0</ele><time>2026-03-29T10:20:22.923Z</time></trkpt><trkpt lat="46.5670699" lon="12.687539"><ele>1245.6</ele><time>2026-03-29T10:20:23.932Z</time></trkpt><trkpt lat="46.567136" lon="12.687608"><ele>1245.1999999999998</ele><time>2026-03-29T10:20:24.928Z</time></trkpt><trkpt lat="46.5671985" lon="12.6877039"><ele>1244.8000000000002</ele><time>2026-03-29T10:20:25.932Z</time></trkpt><trkpt lat="46.5672329" lon="12.6878417"><ele>1244.4</ele><time>2026-03-29T10:20:26.937Z</time></trkpt><trkpt lat="46.5672646" lon="12.6879805"><ele>1244.0</ele><time>2026-03-29T10:20:27.949Z</time></trkpt><trkpt lat="46.567293" lon="12.6881107"><ele>1244.0</ele><time>2026-03-29T10:20:28.947Z</time></trkpt><trkpt lat="46.5673217" lon="12.6882306"><ele>1244.0</ele><time>2026-03-29T10:20:29.952Z</time></trkpt><trkpt lat="46.5673354" lon="12.688344"><ele>1244.0</ele><time>2026-03-29T10:20:30.939Z</time></trkpt><trkpt lat="46.5673418" lon="12.6884566"><ele>1244.0</ele><time>2026-03-29T10:20:31.952Z</time></trkpt><trkpt lat="46.5673516" lon="12.6885639"><ele>1244.0</ele><time>2026-03-29T10:20:32.941Z</time></trkpt><trkpt lat="46.5673262" lon="12.6886745"><ele>1244.0</ele><time>2026-03-29T10:20:33.936Z</time></trkpt><trkpt lat="46.5672706" lon="12.6887852"><ele>1244.4</ele><time>2026-03-29T10:20:34.939Z</time></trkpt><trkpt lat="46.5671878" lon="12.6888531"><ele>1244.8000000000002</ele><time>2026-03-29T10:20:35.944Z</time></trkpt><trkpt lat="46.5671005" lon="12.6889251"><ele>1245.1999999999998</ele><time>2026-03-29T10:20:36.94Z</time></trkpt><trkpt lat="46.5669988" lon="12.6889865"><ele>1245.6</ele><time>2026-03-29T10:20:37.962Z</time></trkpt><trkpt lat="46.5668852" lon="12.689034"><ele>1246.0</ele><time>2026-03-29T10:20:38.944Z</time></trkpt><trkpt lat="46.5667746" lon="12.689101"><ele>1246.0</ele><time>2026-03-29T10:20:39.934Z</time></trkpt><trkpt lat="46.5666672" lon="12.6891833"><ele>1246.0</ele><time>2026-03-29T10:20:40.943Z</time></trkpt><trkpt lat="46.5665609" lon="12.6892682"><ele>1246.0</ele><time>2026-03-29T10:20:41.937Z</time></trkpt><trkpt lat="46.5664614" lon="12.689354"><ele>1246.0</ele><time>2026-03-29T10:20:42.942Z</time></trkpt><trkpt lat="46.5663751" lon="12.6894445"><ele>1246.6</ele><time>2026-03-29T10:20:43.942Z</time></trkpt><trkpt lat="46.5663069" lon="12.6895488"><ele>1247.1999999999998</ele><time>2026-03-29T10:20:44.945Z</time></trkpt><trkpt lat="46.5662665" lon="12.6896734"><ele>1247.8000000000002</ele><time>2026-03-29T10:20:45.956Z</time></trkpt><trkpt lat="46.5662501" lon="12.6898156"><ele>1248.4</ele><time>2026-03-29T10:20:46.931Z</time></trkpt><trkpt lat="46.5662585" lon="12.6899629"><ele>1249.0</ele><time>2026-03-29T10:20:47.94Z</time></trkpt><trkpt lat="46.566308" lon="12.6901091"><ele>1249.0</ele><time>2026-03-29T10:20:48.932Z</time></trkpt><trkpt lat="46.5663766" lon="12.6902555"><ele>1249.0</ele><time>2026-03-29T10:20:49.945Z</time></trkpt><trkpt lat="46.5664549" lon="12.690407"><ele>1249.0</ele><time>2026-03-29T10:20:50.945Z</time></trkpt><trkpt lat="46.5665441" lon="12.6905562"><ele>1249.0</ele><time>2026-03-29T10:20:51.947Z</time></trkpt><trkpt lat="46.5666344" lon="12.6907098"><ele>1246.5</ele><time>2026-03-29T10:20:52.946Z</time></trkpt><trkpt lat="46.5667233" lon="12.6908643"><ele>1244.0</ele><time>2026-03-29T10:20:53.934Z</time></trkpt><trkpt lat="46.5668034" lon="12.6910224"><ele>1241.5</ele><time>2026-03-29T10:20:54.951Z</time></trkpt><trkpt lat="46.5668791" lon="12.6911781"><ele>1239.0</ele><time>2026-03-29T10:20:55.956Z</time></trkpt><trkpt lat="46.5669478" lon="12.6913322"><ele>1237.75</ele><time>2026-03-29T10:20:56.944Z</time></trkpt><trkpt lat="46.5670089" lon="12.6914848"><ele>1236.5</ele><time>2026-03-29T10:20:57.957Z</time></trkpt><trkpt lat="46.5670622" lon="12.6916376"><ele>1235.25</ele><time>2026-03-29T10:20:58.942Z</time></trkpt><trkpt lat="46.5671089" lon="12.6917924"><ele>1234.0</ele><time>2026-03-29T10:20:59.949Z</time></trkpt><trkpt lat="46.567147" lon="12.6919523"><ele>1238.0</ele><time>2026-03-29T10:21:00.933Z</time></trkpt><trkpt lat="46.5671916" lon="12.6921148"><ele>1242.0</ele><time>2026-03-29T10:21:01.95Z</time></trkpt><trkpt lat="46.5672288" lon="12.6922911"><ele>1246.0</ele><time>2026-03-29T10:21:02.949Z</time></trkpt><trkpt lat="46.5672649" lon="12.6924788"><ele>1250.0</ele><time>2026-03-29T10:21:03.944Z</time></trkpt><trkpt lat="46.5673047" lon="12.6926733"><ele>1247.5</ele><time>2026-03-29T10:21:04.94Z</time></trkpt><trkpt lat="46.5673342" lon="12.6928741"><ele>1245.0</ele><time>2026-03-29T10:21:05.944Z</time></trkpt><trkpt lat="46.5673687" lon="12.6930702"><ele>1242.5</ele><time>2026-03-29T10:21:06.94Z</time></trkpt><trkpt lat="46.5674015" lon="12.6932594"><ele>1240.0</ele><time>2026-03-29T10:21:07.948Z</time></trkpt><trkpt lat="46.5674365" lon="12.6934433"><ele>1239.25</ele><time>2026-03-29T10:21:08.935Z</time></trkpt><trkpt lat="46.5674735" lon="12.6936203"><ele>1238.5</ele><time>2026-03-29T10:21:09.941Z</time></trkpt><trkpt lat="46.5675091" lon="12.6937919"><ele>1237.75</ele><time>2026-03-29T10:21:10.941Z</time></trkpt><trkpt lat="46.5675421" lon="12.6939603"><ele>1237.0</ele><time>2026-03-29T10:21:11.937Z</time></trkpt><trkpt lat="46.567576" lon="12.6941239"><ele>1237.0</ele><time>2026-03-29T10:21:12.947Z</time></trkpt><trkpt lat="46.567606" lon="12.6942836"><ele>1237.0</ele><time>2026-03-29T10:21:13.955Z</time></trkpt><trkpt lat="46.567633" lon="12.6944433"><ele>1237.0</ele><time>2026-03-29T10:21:14.941Z</time></trkpt><trkpt lat="46.5676625" lon="12.6946043"><ele>1237.0</ele><time>2026-03-29T10:21:15.97Z</time></trkpt><trkpt lat="46.5676924" lon="12.6947693"><ele>1234.0</ele><time>2026-03-29T10:21:16.94Z</time></trkpt><trkpt lat="46.5677244" lon="12.6949368"><ele>1231.0</ele><time>2026-03-29T10:21:17.948Z</time></trkpt><trkpt lat="46.5677568" lon="12.6951069"><ele>1228.0</ele><time>2026-03-29T10:21:18.936Z</time></trkpt><trkpt lat="46.5677874" lon="12.6952782"><ele>1225.0</ele><time>2026-03-29T10:21:19.948Z</time></trkpt><trkpt lat="46.567826" lon="12.6954436"><ele>1225.0</ele><time>2026-03-29T10:21:20.925Z</time></trkpt><trkpt lat="46.5678518" lon="12.6956118"><ele>1225.0</ele><time>2026-03-29T10:21:21.958Z</time></trkpt><trkpt lat="46.5678841" lon="12.6957742"><ele>1225.0</ele><time>2026-03-29T10:21:22.947Z</time></trkpt><trkpt lat="46.5679198" lon="12.6959339"><ele>1225.0</ele><time>2026-03-29T10:21:23.943Z</time></trkpt><trkpt lat="46.5679475" lon="12.6960995"><ele>1228.5</ele><time>2026-03-29T10:21:24.944Z</time></trkpt><trkpt lat="46.5679812" lon="12.6962687"><ele>1232.0</ele><time>2026-03-29T10:21:25.948Z</time></trkpt><trkpt lat="46.5680163" lon="12.6964469"><ele>1235.5</ele><time>2026-03-29T10:21:26.929Z</time></trkpt><trkpt lat="46.5680549" lon="12.6966327"><ele>1239.0</ele><time>2026-03-29T10:21:27.943Z</time></trkpt><trkpt lat="46.5680898" lon="12.6968195"><ele>1238.8</ele><time>2026-03-29T10:21:28.964Z</time></trkpt><trkpt lat="46.5681195" lon="12.6970007"><ele>1238.6000000000001</ele><time>2026-03-29T10:21:29.928Z</time></trkpt><trkpt lat="46.5681562" lon="12.6971673"><ele>1238.4</ele><time>2026-03-29T10:21:30.946Z</time></trkpt><trkpt lat="46.5681796" lon="12.6973173"><ele>1238.2</ele><time>2026-03-29T10:21:31.93Z</time></trkpt><trkpt lat="46.5681931" lon="12.6974484"><ele>1238.0</ele><time>2026-03-29T10:21:32.942Z</time></trkpt><trkpt lat="46.5682056" lon="12.6975668"><ele>1238.0</ele><time>2026-03-29T10:21:33.925Z</time></trkpt><trkpt lat="46.5682229" lon="12.6976753"><ele>1238.0</ele><time>2026-03-29T10:21:34.922Z</time></trkpt><trkpt lat="46.5682396" lon="12.6977832"><ele>1238.0</ele><time>2026-03-29T10:21:35.924Z</time></trkpt><trkpt lat="46.5682577" lon="12.6978939"><ele>1238.0</ele><time>2026-03-29T10:21:36.934Z</time></trkpt><trkpt lat="46.5682823" lon="12.6980168"><ele>1238.0</ele><time>2026-03-29T10:21:37.939Z</time></trkpt><trkpt lat="46.5683118" lon="12.6981593"><ele>1238.0</ele><time>2026-03-29T10:21:38.937Z</time></trkpt><trkpt lat="46.5683383" lon="12.6983221"><ele>1238.25</ele><time>2026-03-29T10:21:39.938Z</time></trkpt><trkpt lat="46.5683711" lon="12.698499"><ele>1238.5</ele><time>2026-03-29T10:21:40.927Z</time></trkpt><trkpt lat="46.5684052" lon="12.6986884"><ele>1238.75</ele><time>2026-03-29T10:21:41.948Z</time></trkpt><trkpt lat="46.5684457" lon="12.6988834"><ele>1239.0</ele><time>2026-03-29T10:21:42.937Z</time></trkpt><trkpt lat="46.5684843" lon="12.699081"><ele>1238.5</ele><time>2026-03-29T10:21:43.933Z</time></trkpt><trkpt lat="46.5685184" lon="12.6992758"><ele>1238.0</ele><time>2026-03-29T10:21:44.929Z</time></trkpt><trkpt lat="46.5685525" lon="12.6994641"><ele>1237.5</ele><time>2026-03-29T10:21:45.945Z</time></trkpt><trkpt lat="46.5685884" lon="12.6996449"><ele>1237.0</ele><time>2026-03-29T10:21:46.932Z</time></trkpt><trkpt lat="46.5686241" lon="12.6998236"><ele>1236.25</ele><time>2026-03-29T10:21:47.95Z</time></trkpt><trkpt lat="46.5686529" lon="12.7000077"><ele>1235.5</ele><time>2026-03-29T10:21:48.928Z</time></trkpt><trkpt lat="46.5686715" lon="12.7001969"><ele>1234.75</ele><time>2026-03-29T10:21:49.934Z</time></trkpt><trkpt lat="46.5686798" lon="12.7003905"><ele>1234.0</ele><time>2026-03-29T10:21:50.945Z</time></trkpt><trkpt lat="46.5686821" lon="12.7005886"><ele>1233.75</ele><time>2026-03-29T10:21:51.942Z</time></trkpt><trkpt lat="46.5686783" lon="12.7007941"><ele>1233.5</ele><time>2026-03-29T10:21:52.946Z</time></trkpt><trkpt lat="46.568676" lon="12.7010051"><ele>1233.25</ele><time>2026-03-29T10:21:53.948Z</time></trkpt><trkpt lat="46.5686753" lon="12.7012163"><ele>1233.0</ele><time>2026-03-29T10:21:54.935Z</time></trkpt><trkpt lat="46.5686754" lon="12.701427"><ele>1233.5</ele><time>2026-03-29T10:21:55.948Z</time></trkpt><trkpt lat="46.5686762" lon="12.7016391"><ele>1234.0</ele><time>2026-03-29T10:21:56.937Z</time></trkpt><trkpt lat="46.5686791" lon="12.7018515"><ele>1234.5</ele><time>2026-03-29T10:21:57.956Z</time></trkpt><trkpt lat="46.568678" lon="12.7020554"><ele>1235.0</ele><time>2026-03-29T10:21:58.941Z</time></trkpt><trkpt lat="46.5686799" lon="12.7022507"><ele>1235.25</ele><time>2026-03-29T10:21:59.946Z</time></trkpt><trkpt lat="46.5686735" lon="12.7024453"><ele>1235.5</ele><time>2026-03-29T10:22:00.944Z</time></trkpt><trkpt lat="46.5686685" lon="12.7026423"><ele>1235.75</ele><time>2026-03-29T10:22:01.925Z</time></trkpt><trkpt lat="46.5686622" lon="12.7028418"><ele>1236.0</ele><time>2026-03-29T10:22:02.942Z</time></trkpt><trkpt lat="46.5686569" lon="12.703044"><ele>1235.0</ele><time>2026-03-29T10:22:03.931Z</time></trkpt><trkpt lat="46.5686552" lon="12.7032514"><ele>1234.0</ele><time>2026-03-29T10:22:04.947Z</time></trkpt><trkpt lat="46.5686549" lon="12.703464"><ele>1233.0</ele><time>2026-03-29T10:22:05.943Z</time></trkpt><trkpt lat="46.5686527" lon="12.7036739"><ele>1232.0</ele><time>2026-03-29T10:22:06.949Z</time></trkpt><trkpt lat="46.5686489" lon="12.7038783"><ele>1230.75</ele><time>2026-03-29T10:22:07.938Z</time></trkpt><trkpt lat="46.5686469" lon="12.7040832"><ele>1229.5</ele><time>2026-03-29T10:22:08.936Z</time></trkpt><trkpt lat="46.5686623" lon="12.7042919"><ele>1228.25</ele><time>2026-03-29T10:22:09.941Z</time></trkpt><trkpt lat="46.5686846" lon="12.7045049"><ele>1227.0</ele><time>2026-03-29T10:22:10.934Z</time></trkpt><trkpt lat="46.5687187" lon="12.7047199"><ele>1232.3333333333333</ele><time>2026-03-29T10:22:11.946Z</time></trkpt><trkpt lat="46.5687619" lon="12.7049348"><ele>1237.6666666666665</ele><time>2026-03-29T10:22:12.948Z</time></trkpt><trkpt lat="46.5688032" lon="12.7051522"><ele>1243.0</ele><time>2026-03-29T10:22:13.96Z</time></trkpt><trkpt lat="46.568863" lon="12.7053652"><ele>1244.0</ele><time>2026-03-29T10:22:14.937Z</time></trkpt><trkpt lat="46.5689159" lon="12.7055791"><ele>1245.0</ele><time>2026-03-29T10:22:15.945Z</time></trkpt><trkpt lat="46.5689638" lon="12.7057966"><ele>1246.0</ele><time>2026-03-29T10:22:16.937Z</time></trkpt><trkpt lat="46.5690155" lon="12.7060165"><ele>1244.6666666666665</ele><time>2026-03-29T10:22:17.943Z</time></trkpt><trkpt lat="46.5690688" lon="12.7062415"><ele>1243.3333333333333</ele><time>2026-03-29T10:22:18.937Z</time></trkpt><trkpt lat="46.5691231" lon="12.7064709"><ele>1242.0</ele><time>2026-03-29T10:22:19.923Z</time></trkpt><trkpt lat="46.5691757" lon="12.7067018"><ele>1241.0</ele><time>2026-03-29T10:22:20.927Z</time></trkpt><trkpt lat="46.5692287" lon="12.7069293"><ele>1240.0</ele><time>2026-03-29T10:22:21.936Z</time></trkpt><trkpt lat="46.5692854" lon="12.7071465"><ele>1239.0</ele><time>2026-03-29T10:22:22.938Z</time></trkpt><trkpt lat="46.5693424" lon="12.7073539"><ele>1239.0</ele><time>2026-03-29T10:22:23.955Z</time></trkpt><trkpt lat="46.5694162" lon="12.7075542"><ele>1239.0</ele><time>2026-03-29T10:22:24.944Z</time></trkpt><trkpt lat="46.5694689" lon="12.7077694"><ele>1239.0</ele><time>2026-03-29T10:22:25.941Z</time></trkpt><trkpt lat="46.569573" lon="12.7079434"><ele>1240.3333333333333</ele><time>2026-03-29T10:22:26.956Z</time></trkpt><trkpt lat="46.569649" lon="12.7081403"><ele>1241.6666666666665</ele><time>2026-03-29T10:22:27.942Z</time></trkpt><trkpt lat="46.5697382" lon="12.7083204"><ele>1243.0</ele><time>2026-03-29T10:22:28.947Z</time></trkpt><trkpt lat="46.5698268" lon="12.7084948"><ele>1242.5</ele><time>2026-03-29T10:22:29.96Z</time></trkpt><trkpt lat="46.5699275" lon="12.7086434"><ele>1242.0</ele><time>2026-03-29T10:22:30.943Z</time></trkpt><trkpt lat="46.5700134" lon="12.7088013"><ele>1241.5</ele><time>2026-03-29T10:22:31.94Z</time></trkpt><trkpt lat="46.5700846" lon="12.7089719"><ele>1241.0</ele><time>2026-03-29T10:22:32.94Z</time></trkpt><trkpt lat="46.5701499" lon="12.7091509"><ele>1241.0</ele><time>2026-03-29T10:22:33.944Z</time></trkpt><trkpt lat="46.5701759" lon="12.7093568"><ele>1241.0</ele><time>2026-03-29T10:22:34.931Z</time></trkpt><trkpt lat="46.570197" lon="12.7095721"><ele>1241.0</ele><time>2026-03-29T10:22:35.953Z</time></trkpt><trkpt lat="46.5702049" lon="12.7097994"><ele>1241.0</ele><time>2026-03-29T10:22:36.931Z</time></trkpt><trkpt lat="46.5702153" lon="12.7100302"><ele>1241.0</ele><time>2026-03-29T10:22:37.95Z</time></trkpt><trkpt lat="46.5702227" lon="12.7102572"><ele>1241.0</ele><time>2026-03-29T10:22:38.948Z</time></trkpt><trkpt lat="46.570222" lon="12.7104752"><ele>1240.75</ele><time>2026-03-29T10:22:39.94Z</time></trkpt><trkpt lat="46.5702257" lon="12.7106897"><ele>1240.5</ele><time>2026-03-29T10:22:40.941Z</time></trkpt><trkpt lat="46.5702296" lon="12.7109013"><ele>1240.25</ele><time>2026-03-29T10:22:41.938Z</time></trkpt><trkpt lat="46.5702321" lon="12.7111106"><ele>1240.0</ele><time>2026-03-29T10:22:42.943Z</time></trkpt><trkpt lat="46.5702385" lon="12.7113184"><ele>1241.75</ele><time>2026-03-29T10:22:43.955Z</time></trkpt><trkpt lat="46.5702484" lon="12.7115231"><ele>1243.5</ele><time>2026-03-29T10:22:44.953Z</time></trkpt><trkpt lat="46.5702622" lon="12.7117256"><ele>1245.25</ele><time>2026-03-29T10:22:45.945Z</time></trkpt><trkpt lat="46.570287" lon="12.7119285"><ele>1247.0</ele><time>2026-03-29T10:22:46.942Z</time></trkpt><trkpt lat="46.5703325" lon="12.7121297"><ele>1249.0</ele><time>2026-03-29T10:22:47.935Z</time></trkpt><trkpt lat="46.5703795" lon="12.7123355"><ele>1251.0</ele><time>2026-03-29T10:22:48.937Z</time></trkpt><trkpt lat="46.5704373" lon="12.7125447"><ele>1253.0</ele><time>2026-03-29T10:22:49.941Z</time></trkpt><trkpt lat="46.570493" lon="12.7127603"><ele>1253.0</ele><time>2026-03-29T10:22:50.944Z</time></trkpt><trkpt lat="46.5705492" lon="12.7129767"><ele>1253.0</ele><time>2026-03-29T10:22:51.945Z</time></trkpt><trkpt lat="46.570601" lon="12.7131894"><ele>1253.0</ele><time>2026-03-29T10:22:52.946Z</time></trkpt><trkpt lat="46.5706466" lon="12.7133977"><ele>1252.5</ele><time>2026-03-29T10:22:53.93Z</time></trkpt><trkpt lat="46.5706962" lon="12.7136012"><ele>1252.0</ele><time>2026-03-29T10:22:54.935Z</time></trkpt><trkpt lat="46.5707463" lon="12.7138021"><ele>1251.5</ele><time>2026-03-29T10:22:55.935Z</time></trkpt><trkpt lat="46.5707949" lon="12.7140036"><ele>1251.0</ele><time>2026-03-29T10:22:56.943Z</time></trkpt><trkpt lat="46.5708468" lon="12.7142027"><ele>1251.3333333333333</ele><time>2026-03-29T10:22:57.939Z</time></trkpt><trkpt lat="46.5708942" lon="12.7144067"><ele>1251.6666666666665</ele><time>2026-03-29T10:22:58.929Z</time></trkpt><trkpt lat="46.5709382" lon="12.714618"><ele>1252.0</ele><time>2026-03-29T10:22:59.941Z</time></trkpt><trkpt lat="46.5709844" lon="12.7148343"><ele>1252.0</ele><time>2026-03-29T10:23:00.934Z</time></trkpt><trkpt lat="46.5710333" lon="12.7150498"><ele>1252.0</ele><time>2026-03-29T10:23:01.933Z</time></trkpt><trkpt lat="46.5710881" lon="12.7152637"><ele>1252.0</ele><time>2026-03-29T10:23:02.935Z</time></trkpt><trkpt lat="46.5711393" lon="12.7154812"><ele>1251.3333333333333</ele><time>2026-03-29T10:23:03.94Z</time></trkpt><trkpt lat="46.5711892" lon="12.7157031"><ele>1250.6666666666667</ele><time>2026-03-29T10:23:04.935Z</time></trkpt><trkpt lat="46.5712445" lon="12.7159271"><ele>1250.0</ele><time>2026-03-29T10:23:05.964Z</time></trkpt><trkpt lat="46.5712966" lon="12.7161553"><ele>1257.0</ele><time>2026-03-29T10:23:06.934Z</time></trkpt><trkpt lat="46.5713481" lon="12.7163865"><ele>1264.0</ele><time>2026-03-29T10:23:07.925Z</time></trkpt><trkpt lat="46.5713989" lon="12.7166214"><ele>1271.0</ele><time>2026-03-29T10:23:08.935Z</time></trkpt><trkpt lat="46.5714503" lon="12.7168606"><ele>1269.6666666666667</ele><time>2026-03-29T10:23:09.928Z</time></trkpt><trkpt lat="46.5714934" lon="12.7171095"><ele>1268.3333333333333</ele><time>2026-03-29T10:23:10.937Z</time></trkpt><trkpt lat="46.5715243" lon="12.7173604"><ele>1267.0</ele><time>2026-03-29T10:23:11.954Z</time></trkpt><trkpt lat="46.5715507" lon="12.7176027"><ele>1265.3333333333333</ele><time>2026-03-29T10:23:12.943Z</time></trkpt><trkpt lat="46.5715723" lon="12.7178341"><ele>1263.6666666666667</ele><time>2026-03-29T10:23:13.948Z</time></trkpt><trkpt lat="46.5715936" lon="12.7180553"><ele>1262.0</ele><time>2026-03-29T10:23:14.942Z</time></trkpt><trkpt lat="46.5716062" lon="12.7182663"><ele>1262.0</ele><time>2026-03-29T10:23:15.946Z</time></trkpt><trkpt lat="46.5716034" lon="12.7184674"><ele>1262.0</ele><time>2026-03-29T10:23:16.94Z</time></trkpt><trkpt lat="46.5715791" lon="12.7186572"><ele>1262.0</ele><time>2026-03-29T10:23:17.936Z</time></trkpt><trkpt lat="46.5715538" lon="12.7188415"><ele>1262.0</ele><time>2026-03-29T10:23:18.929Z</time></trkpt><trkpt lat="46.5715192" lon="12.7190233"><ele>1262.0</ele><time>2026-03-29T10:23:19.928Z</time></trkpt><trkpt lat="46.5714801" lon="12.7192069"><ele>1262.0</ele><time>2026-03-29T10:23:20.954Z</time></trkpt><trkpt lat="46.5714529" lon="12.719397"><ele>1262.0</ele><time>2026-03-29T10:23:21.944Z</time></trkpt><trkpt lat="46.5714166" lon="12.7195882"><ele>1262.0</ele><time>2026-03-29T10:23:22.951Z</time></trkpt><trkpt lat="46.5714259" lon="12.7197941"><ele>1262.6666666666667</ele><time>2026-03-29T10:23:23.93Z</time></trkpt><trkpt lat="46.5714978" lon="12.7200087"><ele>1263.3333333333333</ele><time>2026-03-29T10:23:24.94Z</time></trkpt><trkpt lat="46.5715674" lon="12.7202213"><ele>1264.0</ele><time>2026-03-29T10:23:25.934Z</time></trkpt><trkpt lat="46.571638" lon="12.7204316"><ele>1265.6666666666665</ele><time>2026-03-29T10:23:26.943Z</time></trkpt><trkpt lat="46.5717306" lon="12.7206352"><ele>1267.3333333333333</ele><time>2026-03-29T10:23:27.948Z</time></trkpt><trkpt lat="46.5718139" lon="12.7208546"><ele>1269.0</ele><time>2026-03-29T10:23:28.941Z</time></trkpt><trkpt lat="46.5718961" lon="12.7210822"><ele>1271.6666666666667</ele><time>2026-03-29T10:23:29.954Z</time></trkpt><trkpt lat="46.5719847" lon="12.7213155"><ele>1274.3333333333335</ele><time>2026-03-29T10:23:30.943Z</time></trkpt><trkpt lat="46.5720687" lon="12.7215489"><ele>1277.0</ele><time>2026-03-29T10:23:31.922Z</time></trkpt><trkpt lat="46.5721546" lon="12.7217668"><ele>1278.0</ele><time>2026-03-29T10:23:32.932Z</time></trkpt><trkpt lat="46.5722398" lon="12.7219629"><ele>1279.0</ele><time>2026-03-29T10:23:33.941Z</time></trkpt><trkpt lat="46.5723003" lon="12.7221395"><ele>1280.0</ele><time>2026-03-29T10:23:34.932Z</time></trkpt><trkpt lat="46.5723387" lon="12.7222706"><ele>1281.0</ele><time>2026-03-29T10:23:35.935Z</time></trkpt><trkpt lat="46.5723581" lon="12.7223635"><ele>1281.0</ele><time>2026-03-29T10:23:36.932Z</time></trkpt><trkpt lat="46.5723262" lon="12.7224983"><ele>1281.0</ele><time>2026-03-29T10:23:38.934Z</time></trkpt><trkpt lat="46.5722424" lon="12.7224924"><ele>1281.0</ele><time>2026-03-29T10:23:40.933Z</time></trkpt><trkpt lat="46.5721957" lon="12.7224292"><ele>1281.0</ele><time>2026-03-29T10:23:41.924Z</time></trkpt><trkpt lat="46.5721536" lon="12.7223337"><ele>1281.0</ele><time>2026-03-29T10:23:42.922Z</time></trkpt><trkpt lat="46.5720999" lon="12.7222027"><ele>1281.0</ele><time>2026-03-29T10:23:43.935Z</time></trkpt><trkpt lat="46.5720209" lon="12.7220606"><ele>1281.5</ele><time>2026-03-29T10:23:44.93Z</time></trkpt><trkpt lat="46.5719236" lon="12.7219283"><ele>1282.0</ele><time>2026-03-29T10:23:45.931Z</time></trkpt><trkpt lat="46.5717974" lon="12.7218378"><ele>1282.5</ele><time>2026-03-29T10:23:46.936Z</time></trkpt><trkpt lat="46.5716696" lon="12.7217617"><ele>1283.0</ele><time>2026-03-29T10:23:47.924Z</time></trkpt><trkpt lat="46.5715305" lon="12.7217178"><ele>1283.0</ele><time>2026-03-29T10:23:48.935Z</time></trkpt><trkpt lat="46.5713839" lon="12.7217113"><ele>1283.0</ele><time>2026-03-29T10:23:49.939Z</time></trkpt><trkpt lat="46.5712407" lon="12.7217005"><ele>1283.0</ele><time>2026-03-29T10:23:50.936Z</time></trkpt><trkpt lat="46.5711015" lon="12.7216702"><ele>1283.0</ele><time>2026-03-29T10:23:51.934Z</time></trkpt><trkpt lat="46.5709652" lon="12.7216126"><ele>1285.25</ele><time>2026-03-29T10:23:52.944Z</time></trkpt><trkpt lat="46.5708563" lon="12.7215037"><ele>1287.5</ele><time>2026-03-29T10:23:53.957Z</time></trkpt><trkpt lat="46.5707365" lon="12.7214314"><ele>1289.75</ele><time>2026-03-29T10:23:54.948Z</time></trkpt><trkpt lat="46.5706464" lon="12.7213225"><ele>1292.0</ele><time>2026-03-29T10:23:55.943Z</time></trkpt><trkpt lat="46.5705526" lon="12.7212461"><ele>1292.0</ele><time>2026-03-29T10:23:56.95Z</time></trkpt><trkpt lat="46.5704613" lon="12.7211796"><ele>1292.0</ele><time>2026-03-29T10:23:57.942Z</time></trkpt><trkpt lat="46.5703652" lon="12.7211692"><ele>1292.0</ele><time>2026-03-29T10:23:58.962Z</time></trkpt><trkpt lat="46.5702712" lon="12.7211807"><ele>1292.0</ele><time>2026-03-29T10:23:59.951Z</time></trkpt><trkpt lat="46.5701822" lon="12.7211991"><ele>1292.0</ele><time>2026-03-29T10:24:00.952Z</time></trkpt><trkpt lat="46.5700958" lon="12.721198"><ele>1292.3333333333335</ele><time>2026-03-29T10:24:01.963Z</time></trkpt><trkpt lat="46.5700113" lon="12.7212078"><ele>1292.6666666666667</ele><time>2026-03-29T10:24:02.95Z</time></trkpt><trkpt lat="46.5699287" lon="12.7211962"><ele>1293.0</ele><time>2026-03-29T10:24:03.98Z</time></trkpt><trkpt lat="46.5698446" lon="12.7212095"><ele>1293.3333333333333</ele><time>2026-03-29T10:24:04.96Z</time></trkpt><trkpt lat="46.5697668" lon="12.7212181"><ele>1293.6666666666665</ele><time>2026-03-29T10:24:05.959Z</time></trkpt><trkpt lat="46.5696934" lon="12.7212255"><ele>1294.0</ele><time>2026-03-29T10:24:06.956Z</time></trkpt><trkpt lat="46.5696279" lon="12.7212233"><ele>1293.5</ele><time>2026-03-29T10:24:07.967Z</time></trkpt><trkpt lat="46.5695092" lon="12.7212074"><ele>1293.0</ele><time>2026-03-29T10:24:09.97Z</time></trkpt><trkpt lat="46.5694387" lon="12.7212017"><ele>1292.5</ele><time>2026-03-29T10:24:11.959Z</time></trkpt><trkpt lat="46.5693603" lon="12.7212079"><ele>1292.0</ele><time>2026-03-29T10:24:14.97Z</time></trkpt><trkpt lat="46.569284" lon="12.7212018"><ele>1291.5</ele><time>2026-03-29T10:24:17.972Z</time></trkpt><trkpt lat="46.5692038" lon="12.7211986"><ele>1291.0</ele><time>2026-03-29T10:24:20.966Z</time></trkpt><trkpt lat="46.5691326" lon="12.7212398"><ele>1291.0</ele><time>2026-03-29T10:24:23.958Z</time></trkpt><trkpt lat="46.5691566" lon="12.7213578"><ele>1291.0</ele><time>2026-03-29T10:24:26.972Z</time></trkpt><trkpt lat="46.5691935" lon="12.7214535"><ele>1291.0</ele><time>2026-03-29T10:24:29.965Z</time></trkpt><trkpt lat="46.5692451" lon="12.7215302"><ele>1291.0</ele><time>2026-03-29T10:24:32.951Z</time></trkpt><trkpt lat="46.5692737" lon="12.7216191"><ele>1291.0</ele><time>2026-03-29T10:24:34.95Z</time></trkpt><trkpt lat="46.5693499" lon="12.7216995"><ele>1291.0</ele><time>2026-03-29T10:24:36.938Z</time></trkpt><trkpt lat="46.5693521" lon="12.7218058"><ele>1290.9999999999998</ele><time>2026-03-29T10:24:37.943Z</time></trkpt><trkpt lat="46.569385" lon="12.7218865"><ele>1291.0</ele><time>2026-03-29T10:24:38.951Z</time></trkpt><trkpt lat="46.569444" lon="12.7219397"><ele>1291.0</ele><time>2026-03-29T10:24:39.955Z</time></trkpt><trkpt lat="46.5695011" lon="12.7220102"><ele>1291.0</ele><time>2026-03-29T10:24:40.942Z</time></trkpt><trkpt lat="46.5695672" lon="12.7220746"><ele>1291.0</ele><time>2026-03-29T10:24:41.946Z</time></trkpt><trkpt lat="46.5696198" lon="12.7221512"><ele>1290.9999999999998</ele><time>2026-03-29T10:24:42.937Z</time></trkpt><trkpt lat="46.5696852" lon="12.7222117"><ele>1291.0</ele><time>2026-03-29T10:24:43.946Z</time></trkpt><trkpt lat="46.5697201" lon="12.7223139"><ele>1291.5714285714284</ele><time>2026-03-29T10:24:44.936Z</time></trkpt><trkpt lat="46.5697559" lon="12.722408"><ele>1292.142857142857</ele><time>2026-03-29T10:24:45.959Z</time></trkpt><trkpt lat="46.5698086" lon="12.7224702"><ele>1292.7142857142858</ele><time>2026-03-29T10:24:46.963Z</time></trkpt><trkpt lat="46.5698606" lon="12.722537"><ele>1293.2857142857142</ele><time>2026-03-29T10:24:47.944Z</time></trkpt><trkpt lat="46.5699177" lon="12.722592"><ele>1293.857142857143</ele><time>2026-03-29T10:24:48.951Z</time></trkpt><trkpt lat="46.5699671" lon="12.7226535"><ele>1294.4285714285713</ele><time>2026-03-29T10:24:49.942Z</time></trkpt><trkpt lat="46.5700131" lon="12.7227197"><ele>1295.0</ele><time>2026-03-29T10:24:50.931Z</time></trkpt><trkpt lat="46.5700519" lon="12.722792"><ele>1296.2</ele><time>2026-03-29T10:24:51.944Z</time></trkpt><trkpt lat="46.5701054" lon="12.7229413"><ele>1297.4</ele><time>2026-03-29T10:24:53.958Z</time></trkpt><trkpt lat="46.5701342" lon="12.7230931"><ele>1298.6</ele><time>2026-03-29T10:24:55.945Z</time></trkpt><trkpt lat="46.5702344" lon="12.7231897"><ele>1299.8</ele><time>2026-03-29T10:24:57.949Z</time></trkpt><trkpt lat="46.5703129" lon="12.7231923"><ele>1301.0</ele><time>2026-03-29T10:24:58.932Z</time></trkpt><trkpt lat="46.570408" lon="12.7231275"><ele>1301.2857142857142</ele><time>2026-03-29T10:24:59.969Z</time></trkpt><trkpt lat="46.570476" lon="12.7231165"><ele>1301.5714285714287</ele><time>2026-03-29T10:25:00.948Z</time></trkpt><trkpt lat="46.5705374" lon="12.7230806"><ele>1301.857142857143</ele><time>2026-03-29T10:25:01.965Z</time></trkpt><trkpt lat="46.5706041" lon="12.7230599"><ele>1302.142857142857</ele><time>2026-03-29T10:25:02.961Z</time></trkpt><trkpt lat="46.5706694" lon="12.7230444"><ele>1302.4285714285713</ele><time>2026-03-29T10:25:03.95Z</time></trkpt><trkpt lat="46.5707369" lon="12.7230161"><ele>1302.7142857142858</ele><time>2026-03-29T10:25:04.963Z</time></trkpt><trkpt lat="46.570805" lon="12.7230388"><ele>1303.0</ele><time>2026-03-29T10:25:05.962Z</time></trkpt><trkpt lat="46.5709169" lon="12.7230109"><ele>1303.0</ele><time>2026-03-29T10:25:07.973Z</time></trkpt><trkpt lat="46.571004" lon="12.722986"><ele>1303.0</ele><time>2026-03-29T10:25:09.947Z</time></trkpt><trkpt lat="46.5710858" lon="12.7230668"><ele>1303.0</ele><time>2026-03-29T10:25:11.968Z</time></trkpt><trkpt lat="46.5711543" lon="12.7232037"><ele>1303.0</ele><time>2026-03-29T10:25:13.944Z</time></trkpt><trkpt lat="46.5712375" lon="12.7231783"><ele>1303.0</ele><time>2026-03-29T10:25:14.934Z</time></trkpt><trkpt lat="46.5713501" lon="12.723213"><ele>1302.7142857142858</ele><time>2026-03-29T10:25:16.949Z</time></trkpt><trkpt lat="46.5714127" lon="12.7232293"><ele>1302.4285714285713</ele><time>2026-03-29T10:25:17.959Z</time></trkpt><trkpt lat="46.5714724" lon="12.7232637"><ele>1302.142857142857</ele><time>2026-03-29T10:25:18.945Z</time></trkpt><trkpt lat="46.571522" lon="12.7233265"><ele>1301.857142857143</ele><time>2026-03-29T10:25:19.949Z</time></trkpt><trkpt lat="46.571576" lon="12.7234113"><ele>1301.5714285714287</ele><time>2026-03-29T10:25:20.942Z</time></trkpt><trkpt lat="46.5716393" lon="12.7234885"><ele>1301.2857142857142</ele><time>2026-03-29T10:25:21.934Z</time></trkpt><trkpt lat="46.5717035" lon="12.7235705"><ele>1301.0</ele><time>2026-03-29T10:25:22.941Z</time></trkpt><trkpt lat="46.5717805" lon="12.7236132"><ele>1302.1666666666667</ele><time>2026-03-29T10:25:23.946Z</time></trkpt><trkpt lat="46.5718369" lon="12.7236858"><ele>1303.3333333333335</ele><time>2026-03-29T10:25:24.945Z</time></trkpt><trkpt lat="46.5718822" lon="12.7237789"><ele>1304.5</ele><time>2026-03-29T10:25:25.947Z</time></trkpt><trkpt lat="46.5719099" lon="12.7238885"><ele>1305.6666666666667</ele><time>2026-03-29T10:25:26.949Z</time></trkpt><trkpt lat="46.5719479" lon="12.7239982"><ele>1306.8333333333333</ele><time>2026-03-29T10:25:27.967Z</time></trkpt><trkpt lat="46.5719561" lon="12.7241254"><ele>1308.0</ele><time>2026-03-29T10:25:28.943Z</time></trkpt><trkpt lat="46.5719636" lon="12.7242531"><ele>1308.0</ele><time>2026-03-29T10:25:29.944Z</time></trkpt><trkpt lat="46.5719764" lon="12.7243831"><ele>1308.0</ele><time>2026-03-29T10:25:30.933Z</time></trkpt><trkpt lat="46.5719796" lon="12.7245169"><ele>1308.0</ele><time>2026-03-29T10:25:31.939Z</time></trkpt><trkpt lat="46.571987" lon="12.7246548"><ele>1308.0</ele><time>2026-03-29T10:25:32.935Z</time></trkpt><trkpt lat="46.572022" lon="12.7247859"><ele>1308.0</ele><time>2026-03-29T10:25:33.955Z</time></trkpt><trkpt lat="46.5720476" lon="12.7249242"><ele>1307.8000000000002</ele><time>2026-03-29T10:25:34.955Z</time></trkpt><trkpt lat="46.5720693" lon="12.7250643"><ele>1307.6</ele><time>2026-03-29T10:25:35.952Z</time></trkpt><trkpt lat="46.5720926" lon="12.7252058"><ele>1307.4</ele><time>2026-03-29T10:25:36.953Z</time></trkpt><trkpt lat="46.5721187" lon="12.7253486"><ele>1307.1999999999998</ele><time>2026-03-29T10:25:37.945Z</time></trkpt><trkpt lat="46.5721466" lon="12.7254896"><ele>1307.0</ele><time>2026-03-29T10:25:38.935Z</time></trkpt><trkpt lat="46.5721732" lon="12.725629"><ele>1307.0</ele><time>2026-03-29T10:25:39.942Z</time></trkpt><trkpt lat="46.5722018" lon="12.7257672"><ele>1307.0</ele><time>2026-03-29T10:25:40.943Z</time></trkpt><trkpt lat="46.5722311" lon="12.7259026"><ele>1307.0</ele><time>2026-03-29T10:25:41.941Z</time></trkpt><trkpt lat="46.5722365" lon="12.7260418"><ele>1307.0</ele><time>2026-03-29T10:25:42.941Z</time></trkpt><trkpt lat="46.5722567" lon="12.7261701"><ele>1307.0</ele><time>2026-03-29T10:25:43.948Z</time></trkpt><trkpt lat="46.5722856" lon="12.7262972"><ele>1309.6</ele><time>2026-03-29T10:25:44.939Z</time></trkpt><trkpt lat="46.5723196" lon="12.7264259"><ele>1312.1999999999998</ele><time>2026-03-29T10:25:45.951Z</time></trkpt><trkpt lat="46.5723513" lon="12.7265657"><ele>1314.8</ele><time>2026-03-29T10:25:46.939Z</time></trkpt><trkpt lat="46.5723864" lon="12.7267138"><ele>1317.4</ele><time>2026-03-29T10:25:47.943Z</time></trkpt><trkpt lat="46.5724205" lon="12.7268593"><ele>1320.0</ele><time>2026-03-29T10:25:48.948Z</time></trkpt><trkpt lat="46.5724534" lon="12.7269955"><ele>1323.0</ele><time>2026-03-29T10:25:49.944Z</time></trkpt><trkpt lat="46.5724848" lon="12.7271243"><ele>1326.0</ele><time>2026-03-29T10:25:50.945Z</time></trkpt><trkpt lat="46.5725227" lon="12.7272418"><ele>1329.0</ele><time>2026-03-29T10:25:51.962Z</time></trkpt><trkpt lat="46.5725735" lon="12.7273391"><ele>1332.0</ele><time>2026-03-29T10:25:52.949Z</time></trkpt><trkpt lat="46.5726305" lon="12.7274215"><ele>1335.0</ele><time>2026-03-29T10:25:53.959Z</time></trkpt><trkpt lat="46.5726896" lon="12.7274922"><ele>1338.0</ele><time>2026-03-29T10:25:54.937Z</time></trkpt><trkpt lat="46.5727442" lon="12.7275565"><ele>1338.0</ele><time>2026-03-29T10:25:55.961Z</time></trkpt><trkpt lat="46.5727868" lon="12.7276347"><ele>1338.0</ele><time>2026-03-29T10:25:56.944Z</time></trkpt><trkpt lat="46.572818" lon="12.7277214"><ele>1338.0</ele><time>2026-03-29T10:25:57.951Z</time></trkpt><trkpt lat="46.5728356" lon="12.7278123"><ele>1338.0</ele><time>2026-03-29T10:25:58.948Z</time></trkpt><trkpt lat="46.5728933" lon="12.7279688"><ele>1338.0</ele><time>2026-03-29T10:26:00.956Z</time></trkpt><trkpt lat="46.572958" lon="12.7281071"><ele>1338.0</ele><time>2026-03-29T10:26:02.939Z</time></trkpt><trkpt lat="46.5730331" lon="12.7282154"><ele>1338.3333333333333</ele><time>2026-03-29T10:26:04.941Z</time></trkpt><trkpt lat="46.5731096" lon="12.7282942"><ele>1338.6666666666667</ele><time>2026-03-29T10:26:06.954Z</time></trkpt><trkpt lat="46.5731772" lon="12.7283603"><ele>1339.0</ele><time>2026-03-29T10:26:08.935Z</time></trkpt><trkpt lat="46.5732546" lon="12.7284351"><ele>1339.3333333333335</ele><time>2026-03-29T10:26:11.956Z</time></trkpt><trkpt lat="46.5733133" lon="12.7284932"><ele>1339.6666666666667</ele><time>2026-03-29T10:26:13.946Z</time></trkpt><trkpt lat="46.5733854" lon="12.7285577"><ele>1340.0</ele><time>2026-03-29T10:26:15.95Z</time></trkpt><trkpt lat="46.5734706" lon="12.7286552"><ele>1340.0</ele><time>2026-03-29T10:26:17.944Z</time></trkpt><trkpt lat="46.5735795" lon="12.7287417"><ele>1340.0</ele><time>2026-03-29T10:26:19.938Z</time></trkpt><trkpt lat="46.5736459" lon="12.7287429"><ele>1340.0</ele><time>2026-03-29T10:26:20.932Z</time></trkpt><trkpt lat="46.5737195" lon="12.7287389"><ele>1340.0</ele><time>2026-03-29T10:26:21.938Z</time></trkpt><trkpt lat="46.5737934" lon="12.7287037"><ele>1340.0</ele><time>2026-03-29T10:26:22.951Z</time></trkpt><trkpt lat="46.573866" lon="12.7286475"><ele>1340.0</ele><time>2026-03-29T10:26:23.949Z</time></trkpt><trkpt lat="46.5739417" lon="12.7286041"><ele>1333.2</ele><time>2026-03-29T10:26:24.951Z</time></trkpt><trkpt lat="46.5740089" lon="12.7285304"><ele>1326.4</ele><time>2026-03-29T10:26:25.967Z</time></trkpt><trkpt lat="46.5740644" lon="12.7284249"><ele>1319.6</ele><time>2026-03-29T10:26:26.953Z</time></trkpt><trkpt lat="46.5741159" lon="12.7283109"><ele>1312.8</ele><time>2026-03-29T10:26:27.944Z</time></trkpt><trkpt lat="46.574156" lon="12.7281772"><ele>1306.0</ele><time>2026-03-29T10:26:28.934Z</time></trkpt><trkpt lat="46.574194" lon="12.7280448"><ele>1306.0</ele><time>2026-03-29T10:26:29.959Z</time></trkpt><trkpt lat="46.5742269" lon="12.7279133"><ele>1306.0</ele><time>2026-03-29T10:26:30.943Z</time></trkpt><trkpt lat="46.5742429" lon="12.7277769"><ele>1306.0</ele><time>2026-03-29T10:26:31.958Z</time></trkpt><trkpt lat="46.5742617" lon="12.7276451"><ele>1306.0</ele><time>2026-03-29T10:26:32.942Z</time></trkpt><trkpt lat="46.5742594" lon="12.7275075"><ele>1306.0</ele><time>2026-03-29T10:26:33.945Z</time></trkpt><trkpt lat="46.5742437" lon="12.7273662"><ele>1307.0</ele><time>2026-03-29T10:26:34.956Z</time></trkpt><trkpt lat="46.5742277" lon="12.7272215"><ele>1308.0</ele><time>2026-03-29T10:26:35.939Z</time></trkpt><trkpt lat="46.5742082" lon="12.7270772"><ele>1309.0</ele><time>2026-03-29T10:26:36.949Z</time></trkpt><trkpt lat="46.5741806" lon="12.7269335"><ele>1310.0</ele><time>2026-03-29T10:26:37.968Z</time></trkpt><trkpt lat="46.5741554" lon="12.7267868"><ele>1311.0</ele><time>2026-03-29T10:26:38.944Z</time></trkpt><trkpt lat="46.5741309" lon="12.7266376"><ele>1312.1999999999998</ele><time>2026-03-29T10:26:39.944Z</time></trkpt><trkpt lat="46.5741032" lon="12.7264862"><ele>1313.3999999999999</ele><time>2026-03-29T10:26:40.941Z</time></trkpt><trkpt lat="46.5740773" lon="12.7263325"><ele>1314.6</ele><time>2026-03-29T10:26:41.948Z</time></trkpt><trkpt lat="46.5740675" lon="12.7261723"><ele>1315.8</ele><time>2026-03-29T10:26:42.946Z</time></trkpt><trkpt lat="46.5740632" lon="12.726011"><ele>1317.0</ele><time>2026-03-29T10:26:43.952Z</time></trkpt><trkpt lat="46.574066" lon="12.7258524"><ele>1317.0</ele><time>2026-03-29T10:26:44.935Z</time></trkpt><trkpt lat="46.5740751" lon="12.7257037"><ele>1317.0</ele><time>2026-03-29T10:26:45.944Z</time></trkpt><trkpt lat="46.5740881" lon="12.7255623"><ele>1317.0</ele><time>2026-03-29T10:26:46.958Z</time></trkpt><trkpt lat="46.5741047" lon="12.7254261"><ele>1317.0</ele><time>2026-03-29T10:26:47.952Z</time></trkpt><trkpt lat="46.5741258" lon="12.7252964"><ele>1317.0</ele><time>2026-03-29T10:26:48.931Z</time></trkpt><trkpt lat="46.5741511" lon="12.7251748"><ele>1316.3333333333333</ele><time>2026-03-29T10:26:49.947Z</time></trkpt><trkpt lat="46.5741829" lon="12.7250629"><ele>1315.6666666666667</ele><time>2026-03-29T10:26:50.948Z</time></trkpt><trkpt lat="46.5742187" lon="12.7249629"><ele>1315.0</ele><time>2026-03-29T10:26:51.941Z</time></trkpt><trkpt lat="46.574266" lon="12.724876"><ele>1314.3333333333335</ele><time>2026-03-29T10:26:52.937Z</time></trkpt><trkpt lat="46.5743217" lon="12.7248023"><ele>1313.6666666666667</ele><time>2026-03-29T10:26:53.931Z</time></trkpt><trkpt lat="46.5743805" lon="12.7247415"><ele>1313.0</ele><time>2026-03-29T10:26:54.935Z</time></trkpt><trkpt lat="46.5744457" lon="12.7246899"><ele>1313.0</ele><time>2026-03-29T10:26:55.951Z</time></trkpt><trkpt lat="46.574518" lon="12.7246492"><ele>1313.0</ele><time>2026-03-29T10:26:56.941Z</time></trkpt><trkpt lat="46.5745967" lon="12.72462"><ele>1313.0</ele><time>2026-03-29T10:26:57.946Z</time></trkpt><trkpt lat="46.5746739" lon="12.7245898"><ele>1313.0</ele><time>2026-03-29T10:26:58.941Z</time></trkpt><trkpt lat="46.5747514" lon="12.7245605"><ele>1313.0</ele><time>2026-03-29T10:26:59.94Z</time></trkpt><trkpt lat="46.5748349" lon="12.7245417"><ele>1313.0</ele><time>2026-03-29T10:27:00.94Z</time></trkpt><trkpt lat="46.5749202" lon="12.7245439"><ele>1315.6666666666667</ele><time>2026-03-29T10:27:01.929Z</time></trkpt><trkpt lat="46.5750089" lon="12.7245385"><ele>1318.3333333333335</ele><time>2026-03-29T10:27:02.944Z</time></trkpt><trkpt lat="46.5751002" lon="12.7245281"><ele>1321.0</ele><time>2026-03-29T10:27:03.951Z</time></trkpt><trkpt lat="46.5751894" lon="12.7245227"><ele>1323.6666666666667</ele><time>2026-03-29T10:27:04.95Z</time></trkpt><trkpt lat="46.5752714" lon="12.7245296"><ele>1326.3333333333333</ele><time>2026-03-29T10:27:05.96Z</time></trkpt><trkpt lat="46.5753463" lon="12.7245536"><ele>1329.0</ele><time>2026-03-29T10:27:06.938Z</time></trkpt><trkpt lat="46.5754148" lon="12.724581"><ele>1331.6666666666667</ele><time>2026-03-29T10:27:07.931Z</time></trkpt><trkpt lat="46.5754787" lon="12.7246004"><ele>1334.3333333333333</ele><time>2026-03-29T10:27:08.942Z</time></trkpt><trkpt lat="46.5755974" lon="12.7246694"><ele>1337.0</ele><time>2026-03-29T10:27:10.947Z</time></trkpt><trkpt lat="46.5756665" lon="12.7246811"><ele>1339.6666666666665</ele><time>2026-03-29T10:27:11.945Z</time></trkpt><trkpt lat="46.5757403" lon="12.7247012"><ele>1342.3333333333333</ele><time>2026-03-29T10:27:12.941Z</time></trkpt><trkpt lat="46.5758189" lon="12.7246881"><ele>1345.0</ele><time>2026-03-29T10:27:13.942Z</time></trkpt><trkpt lat="46.5758988" lon="12.7246805"><ele>1345.0</ele><time>2026-03-29T10:27:14.939Z</time></trkpt><trkpt lat="46.5759759" lon="12.7246708"><ele>1345.0</ele><time>2026-03-29T10:27:15.947Z</time></trkpt><trkpt lat="46.5760436" lon="12.7246345"><ele>1345.0</ele><time>2026-03-29T10:27:16.948Z</time></trkpt><trkpt lat="46.5761467" lon="12.7245726"><ele>1345.0</ele><time>2026-03-29T10:27:18.935Z</time></trkpt><trkpt lat="46.5762197" lon="12.7245436"><ele>1345.0</ele><time>2026-03-29T10:27:20.944Z</time></trkpt><trkpt lat="46.5762816" lon="12.7244552"><ele>1345.0</ele><time>2026-03-29T10:27:23.942Z</time></trkpt><trkpt lat="46.5762206" lon="12.724538"><ele>1345.0</ele><time>2026-03-29T10:28:39.94Z</time></trkpt><trkpt lat="46.5761599" lon="12.7245683"><ele>1345.0</ele><time>2026-03-29T10:28:41.945Z</time></trkpt><trkpt lat="46.5760722" lon="12.7246524"><ele>1345.0</ele><time>2026-03-29T10:28:43.952Z</time></trkpt><trkpt lat="46.5759779" lon="12.724718"><ele>1345.0</ele><time>2026-03-29T10:28:45.949Z</time></trkpt><trkpt lat="46.57588" lon="12.7247462"><ele>1345.0</ele><time>2026-03-29T10:28:47.941Z</time></trkpt><trkpt lat="46.5757742" lon="12.7247081"><ele>1345.0</ele><time>2026-03-29T10:28:49.954Z</time></trkpt><trkpt lat="46.5756627" lon="12.7246483"><ele>1345.0</ele><time>2026-03-29T10:28:51.945Z</time></trkpt><trkpt lat="46.5755627" lon="12.7245969"><ele>1345.0</ele><time>2026-03-29T10:28:53.93Z</time></trkpt><trkpt lat="46.5754915" lon="12.7245469"><ele>1345.0</ele><time>2026-03-29T10:28:54.938Z</time></trkpt><trkpt lat="46.5754251" lon="12.7245047"><ele>1345.0</ele><time>2026-03-29T10:28:55.94Z</time></trkpt><trkpt lat="46.5753616" lon="12.7244572"><ele>1345.0</ele><time>2026-03-29T10:28:56.946Z</time></trkpt><trkpt lat="46.5752926" lon="12.7243989"><ele>1341.4285714285716</ele><time>2026-03-29T10:28:57.935Z</time></trkpt><trkpt lat="46.5752375" lon="12.7243393"><ele>1337.857142857143</ele><time>2026-03-29T10:28:58.933Z</time></trkpt><trkpt lat="46.5751883" lon="12.7242802"><ele>1334.2857142857142</ele><time>2026-03-29T10:28:59.94Z</time></trkpt><trkpt lat="46.575138" lon="12.7242247"><ele>1330.7142857142858</ele><time>2026-03-29T10:29:00.933Z</time></trkpt><trkpt lat="46.5750906" lon="12.7241636"><ele>1327.142857142857</ele><time>2026-03-29T10:29:01.934Z</time></trkpt><trkpt lat="46.574982" lon="12.7240748"><ele>1323.5714285714287</ele><time>2026-03-29T10:29:03.946Z</time></trkpt><trkpt lat="46.5749203" lon="12.7240472"><ele>1320.0</ele><time>2026-03-29T10:29:04.936Z</time></trkpt><trkpt lat="46.574855" lon="12.7240374"><ele>1320.0</ele><time>2026-03-29T10:29:05.949Z</time></trkpt><trkpt lat="46.5747923" lon="12.7240553"><ele>1320.0</ele><time>2026-03-29T10:29:06.941Z</time></trkpt><trkpt lat="46.5746691" lon="12.7241155"><ele>1320.0</ele><time>2026-03-29T10:29:08.939Z</time></trkpt><trkpt lat="46.5745987" lon="12.7241436"><ele>1320.0</ele><time>2026-03-29T10:29:09.94Z</time></trkpt><trkpt lat="46.5745233" lon="12.7241693"><ele>1320.0</ele><time>2026-03-29T10:29:10.94Z</time></trkpt><trkpt lat="46.5744462" lon="12.7241966"><ele>1320.0</ele><time>2026-03-29T10:29:11.938Z</time></trkpt><trkpt lat="46.5743698" lon="12.7242235"><ele>1316.6666666666667</ele><time>2026-03-29T10:29:12.943Z</time></trkpt><trkpt lat="46.5742912" lon="12.7242287"><ele>1313.3333333333333</ele><time>2026-03-29T10:29:13.943Z</time></trkpt><trkpt lat="46.5742082" lon="12.724218"><ele>1310.0</ele><time>2026-03-29T10:29:14.937Z</time></trkpt><trkpt lat="46.5741263" lon="12.7241786"><ele>1306.6666666666665</ele><time>2026-03-29T10:29:15.941Z</time></trkpt><trkpt lat="46.574051" lon="12.7241213"><ele>1303.3333333333333</ele><time>2026-03-29T10:29:16.946Z</time></trkpt><trkpt lat="46.5739837" lon="12.7240649"><ele>1300.0</ele><time>2026-03-29T10:29:17.935Z</time></trkpt><trkpt lat="46.5739245" lon="12.7239989"><ele>1300.0</ele><time>2026-03-29T10:29:18.933Z</time></trkpt><trkpt lat="46.5738722" lon="12.7239295"><ele>1300.0</ele><time>2026-03-29T10:29:19.941Z</time></trkpt><trkpt lat="46.5738245" lon="12.7238675"><ele>1300.0</ele><time>2026-03-29T10:29:20.94Z</time></trkpt><trkpt lat="46.5737307" lon="12.7237607"><ele>1300.0</ele><time>2026-03-29T10:29:22.948Z</time></trkpt><trkpt lat="46.5736415" lon="12.7236531"><ele>1300.0</ele><time>2026-03-29T10:29:24.93Z</time></trkpt><trkpt lat="46.5735848" lon="12.7236124"><ele>1300.0</ele><time>2026-03-29T10:29:25.95Z</time></trkpt><trkpt lat="46.5734651" lon="12.7236213"><ele>1298.2</ele><time>2026-03-29T10:29:27.957Z</time></trkpt><trkpt lat="46.5734036" lon="12.7236492"><ele>1296.4</ele><time>2026-03-29T10:29:28.941Z</time></trkpt><trkpt lat="46.5732976" lon="12.7236699"><ele>1294.6</ele><time>2026-03-29T10:29:30.95Z</time></trkpt><trkpt lat="46.5732049" lon="12.7236918"><ele>1292.8</ele><time>2026-03-29T10:29:32.94Z</time></trkpt><trkpt lat="46.5730678" lon="12.7237145"><ele>1291.0</ele><time>2026-03-29T10:29:34.948Z</time></trkpt><trkpt lat="46.5729902" lon="12.7237169"><ele>1291.0</ele><time>2026-03-29T10:29:35.934Z</time></trkpt><trkpt lat="46.5729044" lon="12.7237226"><ele>1291.0</ele><time>2026-03-29T10:29:36.951Z</time></trkpt><trkpt lat="46.5728249" lon="12.7237023"><ele>1291.0</ele><time>2026-03-29T10:29:37.96Z</time></trkpt><trkpt lat="46.5727536" lon="12.7236734"><ele>1291.0</ele><time>2026-03-29T10:29:38.956Z</time></trkpt><trkpt lat="46.5726915" lon="12.723639"><ele>1291.0</ele><time>2026-03-29T10:29:39.957Z</time></trkpt><trkpt lat="46.5726427" lon="12.7235796"><ele>1291.0</ele><time>2026-03-29T10:29:40.954Z</time></trkpt><trkpt lat="46.5725858" lon="12.7234401"><ele>1290.2857142857142</ele><time>2026-03-29T10:29:42.929Z</time></trkpt><trkpt lat="46.5725805" lon="12.7233481"><ele>1289.5714285714284</ele><time>2026-03-29T10:29:43.938Z</time></trkpt><trkpt lat="46.5725805" lon="12.7232559"><ele>1288.8571428571427</ele><time>2026-03-29T10:29:44.942Z</time></trkpt><trkpt lat="46.5725655" lon="12.7231591"><ele>1288.142857142857</ele><time>2026-03-29T10:29:45.941Z</time></trkpt><trkpt lat="46.5725573" lon="12.7230483"><ele>1287.4285714285716</ele><time>2026-03-29T10:29:46.94Z</time></trkpt><trkpt lat="46.5725521" lon="12.7229365"><ele>1286.7142857142856</ele><time>2026-03-29T10:29:47.944Z</time></trkpt><trkpt lat="46.572554" lon="12.7228269"><ele>1286.0</ele><time>2026-03-29T10:29:48.94Z</time></trkpt><trkpt lat="46.5725607" lon="12.7227174"><ele>1285.2857142857142</ele><time>2026-03-29T10:29:49.949Z</time></trkpt><trkpt lat="46.572565" lon="12.7226118"><ele>1284.5714285714287</ele><time>2026-03-29T10:29:50.959Z</time></trkpt><trkpt lat="46.5725709" lon="12.7225113"><ele>1283.857142857143</ele><time>2026-03-29T10:29:51.942Z</time></trkpt><trkpt lat="46.5725782" lon="12.7224152"><ele>1283.142857142857</ele><time>2026-03-29T10:29:52.948Z</time></trkpt><trkpt lat="46.5725905" lon="12.7223251"><ele>1282.4285714285716</ele><time>2026-03-29T10:29:53.959Z</time></trkpt><trkpt lat="46.5725883" lon="12.7222289"><ele>1281.7142857142858</ele><time>2026-03-29T10:29:54.927Z</time></trkpt><trkpt lat="46.5725777" lon="12.7221295"><ele>1281.0</ele><time>2026-03-29T10:29:55.955Z</time></trkpt><trkpt lat="46.5725575" lon="12.7220313"><ele>1281.0</ele><time>2026-03-29T10:29:56.944Z</time></trkpt><trkpt lat="46.5725234" lon="12.721923"><ele>1281.0</ele><time>2026-03-29T10:29:57.941Z</time></trkpt><trkpt lat="46.5724865" lon="12.7218042"><ele>1281.0</ele><time>2026-03-29T10:29:58.931Z</time></trkpt><trkpt lat="46.5724424" lon="12.7216861"><ele>1281.0</ele><time>2026-03-29T10:29:59.946Z</time></trkpt><trkpt lat="46.5723962" lon="12.7215675"><ele>1281.0</ele><time>2026-03-29T10:30:00.941Z</time></trkpt><trkpt lat="46.5723466" lon="12.7214486"><ele>1280.2</ele><time>2026-03-29T10:30:01.944Z</time></trkpt><trkpt lat="46.572295" lon="12.7213332"><ele>1279.3999999999999</ele><time>2026-03-29T10:30:02.934Z</time></trkpt><trkpt lat="46.5722407" lon="12.7212128"><ele>1278.6</ele><time>2026-03-29T10:30:03.957Z</time></trkpt><trkpt lat="46.5721864" lon="12.7210968"><ele>1277.8</ele><time>2026-03-29T10:30:04.931Z</time></trkpt><trkpt lat="46.5721353" lon="12.7209831"><ele>1277.0</ele><time>2026-03-29T10:30:05.942Z</time></trkpt><trkpt lat="46.5720861" lon="12.7208747"><ele>1276.5</ele><time>2026-03-29T10:30:06.945Z</time></trkpt><trkpt lat="46.5720437" lon="12.7207666"><ele>1276.0</ele><time>2026-03-29T10:30:07.96Z</time></trkpt><trkpt lat="46.5720053" lon="12.7206559"><ele>1275.5</ele><time>2026-03-29T10:30:08.94Z</time></trkpt><trkpt lat="46.5719673" lon="12.7205487"><ele>1275.0</ele><time>2026-03-29T10:30:09.951Z</time></trkpt><trkpt lat="46.5719228" lon="12.7204453"><ele>1274.5</ele><time>2026-03-29T10:30:10.941Z</time></trkpt><trkpt lat="46.5718696" lon="12.7203483"><ele>1274.0</ele><time>2026-03-29T10:30:11.938Z</time></trkpt><trkpt lat="46.5718286" lon="12.7202424"><ele>1272.3333333333335</ele><time>2026-03-29T10:30:12.932Z</time></trkpt><trkpt lat="46.5717893" lon="12.7201459"><ele>1270.6666666666667</ele><time>2026-03-29T10:30:13.939Z</time></trkpt><trkpt lat="46.5717556" lon="12.7200653"><ele>1269.0</ele><time>2026-03-29T10:30:14.943Z</time></trkpt><trkpt lat="46.5716908" lon="12.7199455"><ele>1267.3333333333333</ele><time>2026-03-29T10:30:16.946Z</time></trkpt><trkpt lat="46.571636" lon="12.7198615"><ele>1265.6666666666665</ele><time>2026-03-29T10:30:18.939Z</time></trkpt><trkpt lat="46.5715794" lon="12.7197691"><ele>1264.0</ele><time>2026-03-29T10:30:21.948Z</time></trkpt><trkpt lat="46.5715088" lon="12.7197761"><ele>1264.0</ele><time>2026-03-29T10:30:28.933Z</time></trkpt><trkpt lat="46.5714613" lon="12.7198796"><ele>1264.0</ele><time>2026-03-29T10:30:30.953Z</time></trkpt><trkpt lat="46.5714923" lon="12.7200781"><ele>1264.0</ele><time>2026-03-29T10:30:32.954Z</time></trkpt><trkpt lat="46.5715297" lon="12.720216"><ele>1264.0</ele><time>2026-03-29T10:30:33.943Z</time></trkpt><trkpt lat="46.5715872" lon="12.7203633"><ele>1264.0</ele><time>2026-03-29T10:30:34.946Z</time></trkpt><trkpt lat="46.57165" lon="12.7205156"><ele>1265.25</ele><time>2026-03-29T10:30:35.939Z</time></trkpt><trkpt lat="46.5717166" lon="12.720669"><ele>1266.5</ele><time>2026-03-29T10:30:36.937Z</time></trkpt><trkpt lat="46.5717745" lon="12.7208169"><ele>1267.75</ele><time>2026-03-29T10:30:37.936Z</time></trkpt><trkpt lat="46.5718259" lon="12.7209652"><ele>1269.0</ele><time>2026-03-29T10:30:38.945Z</time></trkpt><trkpt lat="46.5718757" lon="12.7211083"><ele>1270.6000000000001</ele><time>2026-03-29T10:30:39.938Z</time></trkpt><trkpt lat="46.5719374" lon="12.7212393"><ele>1272.2</ele><time>2026-03-29T10:30:40.943Z</time></trkpt><trkpt lat="46.5719971" lon="12.721371"><ele>1273.8000000000002</ele><time>2026-03-29T10:30:41.941Z</time></trkpt><trkpt lat="46.5720554" lon="12.7215066"><ele>1275.4</ele><time>2026-03-29T10:30:42.936Z</time></trkpt><trkpt lat="46.572113" lon="12.7216452"><ele>1277.0</ele><time>2026-03-29T10:30:43.944Z</time></trkpt><trkpt lat="46.5721688" lon="12.7217863"><ele>1277.8</ele><time>2026-03-29T10:30:44.949Z</time></trkpt><trkpt lat="46.5722223" lon="12.721932"><ele>1278.6</ele><time>2026-03-29T10:30:45.936Z</time></trkpt><trkpt lat="46.5722749" lon="12.7220733"><ele>1279.3999999999999</ele><time>2026-03-29T10:30:46.937Z</time></trkpt><trkpt lat="46.5723241" lon="12.7222018"><ele>1280.2</ele><time>2026-03-29T10:30:47.937Z</time></trkpt><trkpt lat="46.5723643" lon="12.7223132"><ele>1281.0</ele><time>2026-03-29T10:30:48.94Z</time></trkpt><trkpt lat="46.5723862" lon="12.7224006"><ele>1281.0</ele><time>2026-03-29T10:30:49.937Z</time></trkpt><trkpt lat="46.5723519" lon="12.7225256"><ele>1281.0</ele><time>2026-03-29T10:30:51.963Z</time></trkpt><trkpt lat="46.5722504" lon="12.7225182"><ele>1281.0</ele><time>2026-03-29T10:30:53.952Z</time></trkpt><trkpt lat="46.5722118" lon="12.7224395"><ele>1281.0</ele><time>2026-03-29T10:30:54.934Z</time></trkpt><trkpt lat="46.5721934" lon="12.7223188"><ele>1281.0</ele><time>2026-03-29T10:30:55.952Z</time></trkpt><trkpt lat="46.5721387" lon="12.7221901"><ele>1281.0</ele><time>2026-03-29T10:30:56.934Z</time></trkpt><trkpt lat="46.5720606" lon="12.7220525"><ele>1281.0</ele><time>2026-03-29T10:30:57.943Z</time></trkpt><trkpt lat="46.5719711" lon="12.7219066"><ele>1281.0</ele><time>2026-03-29T10:30:58.943Z</time></trkpt><trkpt lat="46.5718694" lon="12.7217726"><ele>1281.0</ele><time>2026-03-29T10:30:59.94Z</time></trkpt><trkpt lat="46.5717421" lon="12.7216765"><ele>1281.6666666666667</ele><time>2026-03-29T10:31:00.935Z</time></trkpt><trkpt lat="46.5715912" lon="12.7216334"><ele>1282.3333333333335</ele><time>2026-03-29T10:31:01.938Z</time></trkpt><trkpt lat="46.5714337" lon="12.7216365"><ele>1283.0</ele><time>2026-03-29T10:31:02.938Z</time></trkpt><trkpt lat="46.5712828" lon="12.7216394"><ele>1285.25</ele><time>2026-03-29T10:31:03.938Z</time></trkpt><trkpt lat="46.5711445" lon="12.7216699"><ele>1287.5</ele><time>2026-03-29T10:31:04.942Z</time></trkpt><trkpt lat="46.571004" lon="12.7216725"><ele>1289.75</ele><time>2026-03-29T10:31:05.931Z</time></trkpt><trkpt lat="46.5708737" lon="12.7215955"><ele>1292.0</ele><time>2026-03-29T10:31:06.943Z</time></trkpt><trkpt lat="46.5707626" lon="12.721476"><ele>1292.0</ele><time>2026-03-29T10:31:07.938Z</time></trkpt><trkpt lat="46.5706579" lon="12.7213706"><ele>1292.0</ele><time>2026-03-29T10:31:08.949Z</time></trkpt><trkpt lat="46.5705526" lon="12.7212888"><ele>1292.0</ele><time>2026-03-29T10:31:09.937Z</time></trkpt><trkpt lat="46.5704541" lon="12.7212329"><ele>1292.0</ele><time>2026-03-29T10:31:10.942Z</time></trkpt><trkpt lat="46.5703473" lon="12.7211938"><ele>1292.5</ele><time>2026-03-29T10:31:11.957Z</time></trkpt><trkpt lat="46.5702254" lon="12.7211703"><ele>1293.0</ele><time>2026-03-29T10:31:12.945Z</time></trkpt><trkpt lat="46.5701008" lon="12.7211779"><ele>1293.5</ele><time>2026-03-29T10:31:13.957Z</time></trkpt><trkpt lat="46.5699838" lon="12.7211889"><ele>1294.0</ele><time>2026-03-29T10:31:14.941Z</time></trkpt><trkpt lat="46.5698701" lon="12.721195"><ele>1294.0</ele><time>2026-03-29T10:31:15.945Z</time></trkpt><trkpt lat="46.5697572" lon="12.7212008"><ele>1294.0</ele><time>2026-03-29T10:31:16.94Z</time></trkpt><trkpt lat="46.5696476" lon="12.7212062"><ele>1294.0</ele><time>2026-03-29T10:31:17.934Z</time></trkpt><trkpt lat="46.5695415" lon="12.7212108"><ele>1294.0</ele><time>2026-03-29T10:31:18.955Z</time></trkpt><trkpt lat="46.5694452" lon="12.7212312"><ele>1294.0</ele><time>2026-03-29T10:31:19.939Z</time></trkpt><trkpt lat="46.5693696" lon="12.7212299"><ele>1293.5</ele><time>2026-03-29T10:31:20.948Z</time></trkpt><trkpt lat="46.5692527" lon="12.7212385"><ele>1293.0</ele><time>2026-03-29T10:31:22.971Z</time></trkpt><trkpt lat="46.569166" lon="12.7212451"><ele>1292.5</ele><time>2026-03-29T10:31:24.963Z</time></trkpt><trkpt lat="46.5691085" lon="12.721318"><ele>1292.0</ele><time>2026-03-29T10:31:26.953Z</time></trkpt><trkpt lat="46.569103" lon="12.7214255"><ele>1291.5</ele><time>2026-03-29T10:31:28.948Z</time></trkpt><trkpt lat="46.5691288" lon="12.7215196"><ele>1291.0</ele><time>2026-03-29T10:31:30.962Z</time></trkpt><trkpt lat="46.5691741" lon="12.7216081"><ele>1291.0</ele><time>2026-03-29T10:31:33.966Z</time></trkpt><trkpt lat="46.5692405" lon="12.7216141"><ele>1291.0</ele><time>2026-03-29T10:31:37.944Z</time></trkpt><trkpt lat="46.5693317" lon="12.7215941"><ele>1291.0</ele><time>2026-03-29T10:34:40.921Z</time></trkpt><trkpt lat="46.5693015" lon="12.7216747"><ele>1291.0</ele><time>2026-03-29T10:34:48.946Z</time></trkpt><trkpt lat="46.5692679" lon="12.7217592"><ele>1291.0</ele><time>2026-03-29T10:34:57.946Z</time></trkpt><trkpt lat="46.5692516" lon="12.7218566"><ele>1291.0</ele><time>2026-03-29T10:35:05.95Z</time></trkpt><trkpt lat="46.5696233" lon="12.721977"><ele>1295.0</ele><time>2026-03-29T10:43:41.888Z</time></trkpt></trkseg><trkseg><trkpt lat="46.5692241" lon="12.7216476"><ele>1291.0</ele><time>2026-03-29T12:00:05.681Z</time></trkpt><trkpt lat="46.5692404" lon="12.7215251"><ele>1291.0</ele><time>2026-03-29T12:00:09.717Z</time></trkpt><trkpt lat="46.5692515" lon="12.7214129"><ele>1291.0</ele><time>2026-03-29T12:00:13.701Z</time></trkpt><trkpt lat="46.5691912" lon="12.7213385"><ele>1291.0</ele><time>2026-03-29T12:00:15.7Z</time></trkpt><trkpt lat="46.5690853" lon="12.7213099"><ele>1291.0</ele><time>2026-03-29T12:00:17.685Z</time></trkpt><trkpt lat="46.568995" lon="12.7213092"><ele>1291.0</ele><time>2026-03-29T12:00:19.69Z</time></trkpt><trkpt lat="46.5688962" lon="12.7213077"><ele>1291.0</ele><time>2026-03-29T12:00:21.703Z</time></trkpt><trkpt lat="46.568826" lon="12.7212984"><ele>1291.0</ele><time>2026-03-29T12:00:23.705Z</time></trkpt><trkpt lat="46.568718" lon="12.721251"><ele>1291.0</ele><time>2026-03-29T12:00:25.702Z</time></trkpt><trkpt lat="46.5686456" lon="12.7212167"><ele>1291.0</ele><time>2026-03-29T12:00:26.701Z</time></trkpt><trkpt lat="46.5685648" lon="12.7211813"><ele>1291.0</ele><time>2026-03-29T12:00:27.689Z</time></trkpt><trkpt lat="46.5684989" lon="12.7211391"><ele>1291.0</ele><time>2026-03-29T12:00:28.708Z</time></trkpt><trkpt lat="46.5684305" lon="12.7210878"><ele>1290.1666666666665</ele><time>2026-03-29T12:00:29.7Z</time></trkpt><trkpt lat="46.5683603" lon="12.7210325"><ele>1289.3333333333333</ele><time>2026-03-29T12:00:30.712Z</time></trkpt><trkpt lat="46.5682873" lon="12.7209781"><ele>1288.5</ele><time>2026-03-29T12:00:31.695Z</time></trkpt><trkpt lat="46.5682063" lon="12.7209134"><ele>1287.6666666666667</ele><time>2026-03-29T12:00:32.7Z</time></trkpt><trkpt lat="46.5681244" lon="12.7208518"><ele>1286.8333333333335</ele><time>2026-03-29T12:00:33.692Z</time></trkpt><trkpt lat="46.5680379" lon="12.7207761"><ele>1286.0</ele><time>2026-03-29T12:00:34.696Z</time></trkpt><trkpt lat="46.5679465" lon="12.7206988"><ele>1286.5</ele><time>2026-03-29T12:00:35.697Z</time></trkpt><trkpt lat="46.5678503" lon="12.7206204"><ele>1287.0</ele><time>2026-03-29T12:00:36.699Z</time></trkpt><trkpt lat="46.5677473" lon="12.7205436"><ele>1287.5</ele><time>2026-03-29T12:00:37.707Z</time></trkpt><trkpt lat="46.5676403" lon="12.7204603"><ele>1288.0</ele><time>2026-03-29T12:00:38.713Z</time></trkpt><trkpt lat="46.567531" lon="12.7203737"><ele>1288.0</ele><time>2026-03-29T12:00:39.696Z</time></trkpt><trkpt lat="46.5674216" lon="12.7202878"><ele>1288.0</ele><time>2026-03-29T12:00:40.705Z</time></trkpt><trkpt lat="46.5673114" lon="12.7202023"><ele>1288.0</ele><time>2026-03-29T12:00:41.698Z</time></trkpt><trkpt lat="46.5671981" lon="12.7201293"><ele>1288.0</ele><time>2026-03-29T12:00:42.717Z</time></trkpt><trkpt lat="46.5670908" lon="12.720041"><ele>1286.5</ele><time>2026-03-29T12:00:43.739Z</time></trkpt><trkpt lat="46.5669837" lon="12.7199565"><ele>1285.0</ele><time>2026-03-29T12:00:44.694Z</time></trkpt><trkpt lat="46.5668747" lon="12.7198871"><ele>1283.5</ele><time>2026-03-29T12:00:45.702Z</time></trkpt><trkpt lat="46.5667724" lon="12.7198175"><ele>1282.0</ele><time>2026-03-29T12:00:46.693Z</time></trkpt><trkpt lat="46.5666817" lon="12.7197534"><ele>1282.0</ele><time>2026-03-29T12:00:47.706Z</time></trkpt><trkpt lat="46.5666023" lon="12.7196988"><ele>1282.0</ele><time>2026-03-29T12:00:48.709Z</time></trkpt><trkpt lat="46.5665264" lon="12.7196638"><ele>1282.0</ele><time>2026-03-29T12:00:49.702Z</time></trkpt><trkpt lat="46.5664503" lon="12.7196566"><ele>1282.0</ele><time>2026-03-29T12:00:50.699Z</time></trkpt><trkpt lat="46.5663758" lon="12.7196785"><ele>1282.0</ele><time>2026-03-29T12:00:51.709Z</time></trkpt><trkpt lat="46.5663077" lon="12.7197293"><ele>1282.0</ele><time>2026-03-29T12:00:52.692Z</time></trkpt><trkpt lat="46.5662474" lon="12.7198032"><ele>1284.6</ele><time>2026-03-29T12:00:53.688Z</time></trkpt><trkpt lat="46.5661938" lon="12.7199036"><ele>1287.1999999999998</ele><time>2026-03-29T12:00:54.705Z</time></trkpt><trkpt lat="46.5661432" lon="12.7200221"><ele>1289.8</ele><time>2026-03-29T12:00:55.706Z</time></trkpt><trkpt lat="46.5661032" lon="12.7201634"><ele>1292.4</ele><time>2026-03-29T12:00:56.688Z</time></trkpt><trkpt lat="46.5660637" lon="12.7203136"><ele>1295.0</ele><time>2026-03-29T12:00:57.695Z</time></trkpt><trkpt lat="46.5660122" lon="12.7204595"><ele>1295.0</ele><time>2026-03-29T12:00:58.703Z</time></trkpt><trkpt lat="46.5659636" lon="12.7206131"><ele>1295.0</ele><time>2026-03-29T12:00:59.699Z</time></trkpt><trkpt lat="46.5659076" lon="12.7207729"><ele>1295.0</ele><time>2026-03-29T12:01:00.692Z</time></trkpt><trkpt lat="46.5658463" lon="12.7209372"><ele>1295.0</ele><time>2026-03-29T12:01:01.698Z</time></trkpt><trkpt lat="46.565785" lon="12.7211077"><ele>1295.0</ele><time>2026-03-29T12:01:02.701Z</time></trkpt><trkpt lat="46.5657207" lon="12.7212686"><ele>1295.0</ele><time>2026-03-29T12:01:03.711Z</time></trkpt><trkpt lat="46.5656519" lon="12.7214123"><ele>1295.0</ele><time>2026-03-29T12:01:04.725Z</time></trkpt><trkpt lat="46.5655777" lon="12.7215423"><ele>1295.0</ele><time>2026-03-29T12:01:05.714Z</time></trkpt><trkpt lat="46.5654965" lon="12.7216642"><ele>1295.0</ele><time>2026-03-29T12:01:06.691Z</time></trkpt><trkpt lat="46.5654112" lon="12.7217689"><ele>1295.0</ele><time>2026-03-29T12:01:07.689Z</time></trkpt><trkpt lat="46.5653363" lon="12.7218704"><ele>1295.0</ele><time>2026-03-29T12:01:08.692Z</time></trkpt><trkpt lat="46.5652721" lon="12.7219687"><ele>1295.0</ele><time>2026-03-29T12:01:09.719Z</time></trkpt><trkpt lat="46.5652319" lon="12.7220788"><ele>1295.0</ele><time>2026-03-29T12:01:10.689Z</time></trkpt><trkpt lat="46.5652142" lon="12.7222077"><ele>1291.4</ele><time>2026-03-29T12:01:11.692Z</time></trkpt><trkpt lat="46.565219" lon="12.7223569"><ele>1287.8</ele><time>2026-03-29T12:01:12.706Z</time></trkpt><trkpt lat="46.5652292" lon="12.7225145"><ele>1284.2</ele><time>2026-03-29T12:01:13.694Z</time></trkpt><trkpt lat="46.5652391" lon="12.7226749"><ele>1280.6</ele><time>2026-03-29T12:01:14.686Z</time></trkpt><trkpt lat="46.5652616" lon="12.7228366"><ele>1277.0</ele><time>2026-03-29T12:01:15.711Z</time></trkpt><trkpt lat="46.5652787" lon="12.7230022"><ele>1274.75</ele><time>2026-03-29T12:01:16.707Z</time></trkpt><trkpt lat="46.5653011" lon="12.7231718"><ele>1272.5</ele><time>2026-03-29T12:01:17.693Z</time></trkpt><trkpt lat="46.5653502" lon="12.7233429"><ele>1270.25</ele><time>2026-03-29T12:01:18.704Z</time></trkpt><trkpt lat="46.565412" lon="12.7235019"><ele>1268.0</ele><time>2026-03-29T12:01:19.687Z</time></trkpt><trkpt lat="46.5654891" lon="12.7236611"><ele>1263.0</ele><time>2026-03-29T12:01:20.711Z</time></trkpt><trkpt lat="46.5655674" lon="12.7238256"><ele>1258.0</ele><time>2026-03-29T12:01:21.707Z</time></trkpt><trkpt lat="46.5656517" lon="12.7239825"><ele>1253.0</ele><time>2026-03-29T12:01:22.713Z</time></trkpt><trkpt lat="46.5657393" lon="12.7241453"><ele>1248.0</ele><time>2026-03-29T12:01:23.698Z</time></trkpt><trkpt lat="46.5658298" lon="12.7243051"><ele>1244.0</ele><time>2026-03-29T12:01:24.687Z</time></trkpt><trkpt lat="46.5659224" lon="12.7244608"><ele>1240.0</ele><time>2026-03-29T12:01:25.684Z</time></trkpt><trkpt lat="46.5663007" lon="12.7250789"><ele>1238.3333333333333</ele><time>2026-03-29T12:01:29.691Z</time></trkpt><trkpt lat="46.5664034" lon="12.7252354"><ele>1236.6666666666667</ele><time>2026-03-29T12:01:30.69Z</time></trkpt><trkpt lat="46.5665426" lon="12.7254033"><ele>1235.0</ele><time>2026-03-29T12:01:31.687Z</time></trkpt><trkpt lat="46.5669892" lon="12.7257297"><ele>1244.75</ele><time>2026-03-29T12:01:35.684Z</time></trkpt><trkpt lat="46.567062" lon="12.7258064"><ele>1254.5</ele><time>2026-03-29T12:01:36.686Z</time></trkpt><trkpt lat="46.5671137" lon="12.7260898"><ele>1264.25</ele><time>2026-03-29T12:01:37.712Z</time></trkpt><trkpt lat="46.5671619" lon="12.7262745"><ele>1274.0</ele><time>2026-03-29T12:01:38.689Z</time></trkpt><trkpt lat="46.5671501" lon="12.7264595"><ele>1274.0</ele><time>2026-03-29T12:01:39.692Z</time></trkpt><trkpt lat="46.5671186" lon="12.7266502"><ele>1274.0</ele><time>2026-03-29T12:01:40.683Z</time></trkpt><trkpt lat="46.5670593" lon="12.7268211"><ele>1274.0</ele><time>2026-03-29T12:01:41.682Z</time></trkpt><trkpt lat="46.5670067" lon="12.7269985"><ele>1274.0</ele><time>2026-03-29T12:01:42.69Z</time></trkpt><trkpt lat="46.5669464" lon="12.72718"><ele>1264.25</ele><time>2026-03-29T12:01:43.694Z</time></trkpt><trkpt lat="46.5668887" lon="12.7273722"><ele>1254.5</ele><time>2026-03-29T12:01:44.702Z</time></trkpt><trkpt lat="46.5668291" lon="12.7275696"><ele>1244.75</ele><time>2026-03-29T12:01:45.702Z</time></trkpt><trkpt lat="46.5667688" lon="12.7277668"><ele>1235.0</ele><time>2026-03-29T12:01:46.694Z</time></trkpt><trkpt lat="46.5667109" lon="12.7279659"><ele>1235.0</ele><time>2026-03-29T12:01:47.695Z</time></trkpt><trkpt lat="46.5666558" lon="12.7281663"><ele>1235.0</ele><time>2026-03-29T12:01:48.69Z</time></trkpt><trkpt lat="46.5666013" lon="12.7283582"><ele>1235.0</ele><time>2026-03-29T12:01:49.714Z</time></trkpt><trkpt lat="46.5665543" lon="12.7285357"><ele>1235.0</ele><time>2026-03-29T12:01:50.683Z</time></trkpt><trkpt lat="46.5665138" lon="12.7286932"><ele>1237.1666666666667</ele><time>2026-03-29T12:01:51.688Z</time></trkpt><trkpt lat="46.5664769" lon="12.7288356"><ele>1239.3333333333335</ele><time>2026-03-29T12:01:52.678Z</time></trkpt><trkpt lat="46.5664407" lon="12.7289566"><ele>1241.5</ele><time>2026-03-29T12:01:53.683Z</time></trkpt><trkpt lat="46.5664103" lon="12.7290557"><ele>1243.6666666666667</ele><time>2026-03-29T12:01:54.684Z</time></trkpt><trkpt lat="46.5663749" lon="12.7291376"><ele>1245.8333333333333</ele><time>2026-03-29T12:01:55.692Z</time></trkpt><trkpt lat="46.5663122" lon="12.7291855"><ele>1248.0</ele><time>2026-03-29T12:01:56.694Z</time></trkpt><trkpt lat="46.5662454" lon="12.7292173"><ele>1248.0</ele><time>2026-03-29T12:01:57.69Z</time></trkpt><trkpt lat="46.5661763" lon="12.7292006"><ele>1248.0</ele><time>2026-03-29T12:01:58.703Z</time></trkpt><trkpt lat="46.5661193" lon="12.7291451"><ele>1248.0</ele><time>2026-03-29T12:01:59.697Z</time></trkpt><trkpt lat="46.5660931" lon="12.729051"><ele>1248.0</ele><time>2026-03-29T12:02:00.69Z</time></trkpt><trkpt lat="46.5660973" lon="12.7289152"><ele>1248.0</ele><time>2026-03-29T12:02:01.679Z</time></trkpt><trkpt lat="46.5661525" lon="12.7287859"><ele>1248.0</ele><time>2026-03-29T12:02:02.691Z</time></trkpt><trkpt lat="46.5662137" lon="12.7286583"><ele>1245.4</ele><time>2026-03-29T12:02:03.689Z</time></trkpt><trkpt lat="46.5662732" lon="12.7285261"><ele>1242.8</ele><time>2026-03-29T12:02:04.678Z</time></trkpt><trkpt lat="46.5663275" lon="12.7284002"><ele>1240.2</ele><time>2026-03-29T12:02:05.69Z</time></trkpt><trkpt lat="46.5663698" lon="12.7282723"><ele>1237.6</ele><time>2026-03-29T12:02:06.695Z</time></trkpt><trkpt lat="46.5663954" lon="12.7281567"><ele>1235.0</ele><time>2026-03-29T12:02:07.704Z</time></trkpt><trkpt lat="46.5663944" lon="12.7280558"><ele>1235.0</ele><time>2026-03-29T12:02:08.686Z</time></trkpt><trkpt lat="46.5663477" lon="12.7279805"><ele>1235.0</ele><time>2026-03-29T12:02:09.694Z</time></trkpt><trkpt lat="46.5662812" lon="12.7279541"><ele>1235.0</ele><time>2026-03-29T12:02:10.683Z</time></trkpt><trkpt lat="46.5662155" lon="12.727968"><ele>1235.0</ele><time>2026-03-29T12:02:11.689Z</time></trkpt><trkpt lat="46.5661586" lon="12.7280367"><ele>1235.0</ele><time>2026-03-29T12:02:12.69Z</time></trkpt><trkpt lat="46.5661172" lon="12.7281554"><ele>1235.0</ele><time>2026-03-29T12:02:13.693Z</time></trkpt><trkpt lat="46.5660639" lon="12.7282964"><ele>1228.75</ele><time>2026-03-29T12:02:14.695Z</time></trkpt><trkpt lat="46.5659991" lon="12.7284311"><ele>1222.5</ele><time>2026-03-29T12:02:15.699Z</time></trkpt><trkpt lat="46.5659227" lon="12.7285572"><ele>1216.25</ele><time>2026-03-29T12:02:16.689Z</time></trkpt><trkpt lat="46.5658427" lon="12.7286777"><ele>1210.0</ele><time>2026-03-29T12:02:17.712Z</time></trkpt><trkpt lat="46.5657698" lon="12.7288119"><ele>1209.75</ele><time>2026-03-29T12:02:18.692Z</time></trkpt><trkpt lat="46.5657188" lon="12.72899"><ele>1209.5</ele><time>2026-03-29T12:02:19.711Z</time></trkpt><trkpt lat="46.5656798" lon="12.7291957"><ele>1209.25</ele><time>2026-03-29T12:02:20.693Z</time></trkpt><trkpt lat="46.5656655" lon="12.7294225"><ele>1209.0</ele><time>2026-03-29T12:02:21.694Z</time></trkpt><trkpt lat="46.5656788" lon="12.7296681"><ele>1206.6666666666667</ele><time>2026-03-29T12:02:22.718Z</time></trkpt><trkpt lat="46.565713" lon="12.7299018"><ele>1204.3333333333335</ele><time>2026-03-29T12:02:23.699Z</time></trkpt><trkpt lat="46.5657573" lon="12.7301202"><ele>1202.0</ele><time>2026-03-29T12:02:24.692Z</time></trkpt><trkpt lat="46.5657903" lon="12.7303377"><ele>1198.3333333333335</ele><time>2026-03-29T12:02:25.69Z</time></trkpt><trkpt lat="46.565818" lon="12.7305617"><ele>1194.6666666666667</ele><time>2026-03-29T12:02:26.706Z</time></trkpt><trkpt lat="46.56582" lon="12.730791"><ele>1191.0</ele><time>2026-03-29T12:02:27.687Z</time></trkpt><trkpt lat="46.5658213" lon="12.7310259"><ele>1189.6666666666667</ele><time>2026-03-29T12:02:28.682Z</time></trkpt><trkpt lat="46.5658385" lon="12.7312686"><ele>1188.3333333333335</ele><time>2026-03-29T12:02:29.685Z</time></trkpt><trkpt lat="46.5658474" lon="12.7315108"><ele>1187.0</ele><time>2026-03-29T12:02:30.698Z</time></trkpt><trkpt lat="46.5658339" lon="12.7317454"><ele>1185.3333333333335</ele><time>2026-03-29T12:02:31.688Z</time></trkpt><trkpt lat="46.5658402" lon="12.7319812"><ele>1183.6666666666667</ele><time>2026-03-29T12:02:32.695Z</time></trkpt><trkpt lat="46.5658312" lon="12.732206"><ele>1182.0</ele><time>2026-03-29T12:02:33.709Z</time></trkpt><trkpt lat="46.5658209" lon="12.7324212"><ele>1182.0</ele><time>2026-03-29T12:02:34.697Z</time></trkpt><trkpt lat="46.5658394" lon="12.7326157"><ele>1182.0</ele><time>2026-03-29T12:02:35.684Z</time></trkpt><trkpt lat="46.5658665" lon="12.7327958"><ele>1182.0</ele><time>2026-03-29T12:02:36.693Z</time></trkpt><trkpt lat="46.5659141" lon="12.7329679"><ele>1182.0</ele><time>2026-03-29T12:02:37.691Z</time></trkpt><trkpt lat="46.5659957" lon="12.7331095"><ele>1183.5</ele><time>2026-03-29T12:02:38.711Z</time></trkpt><trkpt lat="46.5660898" lon="12.7332448"><ele>1185.0</ele><time>2026-03-29T12:02:39.694Z</time></trkpt><trkpt lat="46.5661889" lon="12.7333716"><ele>1186.5</ele><time>2026-03-29T12:02:40.697Z</time></trkpt><trkpt lat="46.5662855" lon="12.7334914"><ele>1188.0</ele><time>2026-03-29T12:02:41.692Z</time></trkpt><trkpt lat="46.5663748" lon="12.7336109"><ele>1185.6</ele><time>2026-03-29T12:02:42.693Z</time></trkpt><trkpt lat="46.5664685" lon="12.7337082"><ele>1183.1999999999998</ele><time>2026-03-29T12:02:43.691Z</time></trkpt><trkpt lat="46.566558" lon="12.7337917"><ele>1180.8</ele><time>2026-03-29T12:02:44.704Z</time></trkpt><trkpt lat="46.5666294" lon="12.733867"><ele>1178.3999999999999</ele><time>2026-03-29T12:02:45.699Z</time></trkpt><trkpt lat="46.5666843" lon="12.7339237"><ele>1176.0</ele><time>2026-03-29T12:02:46.709Z</time></trkpt><trkpt lat="46.5667213" lon="12.7340537"><ele>1176.0</ele><time>2026-03-29T12:02:48.698Z</time></trkpt><trkpt lat="46.5666748" lon="12.734142"><ele>1176.0</ele><time>2026-03-29T12:02:50.676Z</time></trkpt><trkpt lat="46.5665593" lon="12.7340466"><ele>1176.0</ele><time>2026-03-29T12:02:52.703Z</time></trkpt><trkpt lat="46.5664754" lon="12.7339648"><ele>1176.0</ele><time>2026-03-29T12:02:53.697Z</time></trkpt><trkpt lat="46.5663691" lon="12.7338997"><ele>1176.0</ele><time>2026-03-29T12:02:54.71Z</time></trkpt><trkpt lat="46.5662548" lon="12.7338415"><ele>1172.6</ele><time>2026-03-29T12:02:55.709Z</time></trkpt><trkpt lat="46.5661385" lon="12.7337963"><ele>1169.1999999999998</ele><time>2026-03-29T12:02:56.694Z</time></trkpt><trkpt lat="46.5660258" lon="12.7337652"><ele>1165.8000000000002</ele><time>2026-03-29T12:02:57.722Z</time></trkpt><trkpt lat="46.5659253" lon="12.733765"><ele>1162.4</ele><time>2026-03-29T12:02:58.702Z</time></trkpt><trkpt lat="46.5658415" lon="12.7337558"><ele>1159.0</ele><time>2026-03-29T12:02:59.703Z</time></trkpt><trkpt lat="46.5657668" lon="12.733751"><ele>1159.0</ele><time>2026-03-29T12:03:00.69Z</time></trkpt><trkpt lat="46.5657005" lon="12.7337777"><ele>1159.0</ele><time>2026-03-29T12:03:01.705Z</time></trkpt><trkpt lat="46.5656523" lon="12.7338374"><ele>1159.0</ele><time>2026-03-29T12:03:02.727Z</time></trkpt><trkpt lat="46.5656434" lon="12.7339346"><ele>1159.0</ele><time>2026-03-29T12:03:03.703Z</time></trkpt><trkpt lat="46.5656764" lon="12.734037"><ele>1159.0</ele><time>2026-03-29T12:03:04.715Z</time></trkpt><trkpt lat="46.5657465" lon="12.7341344"><ele>1159.0</ele><time>2026-03-29T12:03:05.69Z</time></trkpt><trkpt lat="46.565829" lon="12.7342468"><ele>1159.0</ele><time>2026-03-29T12:03:06.697Z</time></trkpt><trkpt lat="46.5659207" lon="12.7343795"><ele>1159.0</ele><time>2026-03-29T12:03:07.698Z</time></trkpt><trkpt lat="46.5660246" lon="12.7345239"><ele>1159.0</ele><time>2026-03-29T12:03:08.7Z</time></trkpt><trkpt lat="46.5661315" lon="12.7346814"><ele>1159.0</ele><time>2026-03-29T12:03:09.707Z</time></trkpt><trkpt lat="46.5662419" lon="12.734833"><ele>1159.0</ele><time>2026-03-29T12:03:10.695Z</time></trkpt><trkpt lat="46.5663289" lon="12.7350211"><ele>1159.0</ele><time>2026-03-29T12:03:11.712Z</time></trkpt><trkpt lat="46.5664308" lon="12.7351856"><ele>1159.0</ele><time>2026-03-29T12:03:12.71Z</time></trkpt><trkpt lat="46.5665398" lon="12.7353328"><ele>1154.25</ele><time>2026-03-29T12:03:13.714Z</time></trkpt><trkpt lat="46.5666542" lon="12.7354697"><ele>1149.5</ele><time>2026-03-29T12:03:14.704Z</time></trkpt><trkpt lat="46.5667628" lon="12.7355969"><ele>1144.75</ele><time>2026-03-29T12:03:15.711Z</time></trkpt><trkpt lat="46.5668639" lon="12.7357099"><ele>1140.0</ele><time>2026-03-29T12:03:16.706Z</time></trkpt><trkpt lat="46.5669501" lon="12.7358302"><ele>1140.0</ele><time>2026-03-29T12:03:17.696Z</time></trkpt><trkpt lat="46.5670259" lon="12.7359552"><ele>1140.0</ele><time>2026-03-29T12:03:18.717Z</time></trkpt><trkpt lat="46.5670829" lon="12.7360941"><ele>1140.0</ele><time>2026-03-29T12:03:19.709Z</time></trkpt><trkpt lat="46.567132" lon="12.7362225"><ele>1140.0</ele><time>2026-03-29T12:03:20.708Z</time></trkpt><trkpt lat="46.5672081" lon="12.7363374"><ele>1140.0</ele><time>2026-03-29T12:03:21.69Z</time></trkpt><trkpt lat="46.5673116" lon="12.7364517"><ele>1136.6666666666667</ele><time>2026-03-29T12:03:22.699Z</time></trkpt><trkpt lat="46.5674476" lon="12.7365397"><ele>1133.3333333333335</ele><time>2026-03-29T12:03:23.686Z</time></trkpt><trkpt lat="46.5675875" lon="12.7366408"><ele>1130.0</ele><time>2026-03-29T12:03:24.689Z</time></trkpt><trkpt lat="46.5677168" lon="12.736769"><ele>1130.0</ele><time>2026-03-29T12:03:25.716Z</time></trkpt><trkpt lat="46.5678554" lon="12.7368564"><ele>1130.0</ele><time>2026-03-29T12:03:26.713Z</time></trkpt><trkpt lat="46.56799" lon="12.7369348"><ele>1130.0</ele><time>2026-03-29T12:03:27.718Z</time></trkpt><trkpt lat="46.5681271" lon="12.7370074"><ele>1130.0</ele><time>2026-03-29T12:03:28.704Z</time></trkpt><trkpt lat="46.5682541" lon="12.7370986"><ele>1126.0</ele><time>2026-03-29T12:03:29.726Z</time></trkpt><trkpt lat="46.5683545" lon="12.737234"><ele>1122.0</ele><time>2026-03-29T12:03:30.713Z</time></trkpt><trkpt lat="46.5684309" lon="12.7373973"><ele>1118.0</ele><time>2026-03-29T12:03:31.718Z</time></trkpt><trkpt lat="46.5685061" lon="12.7375601"><ele>1114.0</ele><time>2026-03-29T12:03:32.71Z</time></trkpt><trkpt lat="46.5686054" lon="12.7377015"><ele>1112.5</ele><time>2026-03-29T12:03:33.714Z</time></trkpt><trkpt lat="46.568697" lon="12.7378684"><ele>1111.0</ele><time>2026-03-29T12:03:34.699Z</time></trkpt><trkpt lat="46.5687999" lon="12.7380289"><ele>1109.5</ele><time>2026-03-29T12:03:35.713Z</time></trkpt><trkpt lat="46.5689116" lon="12.7381776"><ele>1108.0</ele><time>2026-03-29T12:03:36.719Z</time></trkpt><trkpt lat="46.5690253" lon="12.7383167"><ele>1108.0</ele><time>2026-03-29T12:03:37.693Z</time></trkpt><trkpt lat="46.5691359" lon="12.7384664"><ele>1108.0</ele><time>2026-03-29T12:03:38.7Z</time></trkpt><trkpt lat="46.5692487" lon="12.7386121"><ele>1108.0</ele><time>2026-03-29T12:03:39.687Z</time></trkpt><trkpt lat="46.5693499" lon="12.7387786"><ele>1103.6666666666665</ele><time>2026-03-29T12:03:40.692Z</time></trkpt><trkpt lat="46.5694351" lon="12.7389677"><ele>1099.3333333333333</ele><time>2026-03-29T12:03:41.693Z</time></trkpt><trkpt lat="46.5694973" lon="12.7391846"><ele>1095.0</ele><time>2026-03-29T12:03:42.688Z</time></trkpt><trkpt lat="46.5695647" lon="12.7393985"><ele>1092.6666666666667</ele><time>2026-03-29T12:03:43.699Z</time></trkpt><trkpt lat="46.5696544" lon="12.739593"><ele>1090.3333333333335</ele><time>2026-03-29T12:03:44.695Z</time></trkpt><trkpt lat="46.5697339" lon="12.7397983"><ele>1088.0</ele><time>2026-03-29T12:03:45.694Z</time></trkpt><trkpt lat="46.5698119" lon="12.7400126"><ele>1086.3333333333335</ele><time>2026-03-29T12:03:46.712Z</time></trkpt><trkpt lat="46.5698955" lon="12.7402167"><ele>1084.6666666666667</ele><time>2026-03-29T12:03:47.711Z</time></trkpt><trkpt lat="46.5699866" lon="12.7404054"><ele>1083.0</ele><time>2026-03-29T12:03:48.696Z</time></trkpt><trkpt lat="46.5700786" lon="12.7405841"><ele>1083.0</ele><time>2026-03-29T12:03:49.695Z</time></trkpt><trkpt lat="46.5701759" lon="12.7407552"><ele>1083.0</ele><time>2026-03-29T12:03:50.682Z</time></trkpt><trkpt lat="46.5702842" lon="12.7409217"><ele>1083.0</ele><time>2026-03-29T12:03:51.686Z</time></trkpt><trkpt lat="46.5704026" lon="12.7410954"><ele>1076.0</ele><time>2026-03-29T12:03:52.694Z</time></trkpt><trkpt lat="46.5705164" lon="12.741283"><ele>1069.0</ele><time>2026-03-29T12:03:53.689Z</time></trkpt><trkpt lat="46.5706389" lon="12.7414643"><ele>1062.0</ele><time>2026-03-29T12:03:54.689Z</time></trkpt><trkpt lat="46.5707464" lon="12.7416676"><ele>1062.0</ele><time>2026-03-29T12:03:55.709Z</time></trkpt><trkpt lat="46.5708501" lon="12.7418718"><ele>1062.0</ele><time>2026-03-29T12:03:56.677Z</time></trkpt><trkpt lat="46.5709498" lon="12.7420736"><ele>1062.0</ele><time>2026-03-29T12:03:57.712Z</time></trkpt><trkpt lat="46.5710663" lon="12.7422529"><ele>1059.6666666666667</ele><time>2026-03-29T12:03:58.676Z</time></trkpt><trkpt lat="46.5711719" lon="12.7424382"><ele>1057.3333333333335</ele><time>2026-03-29T12:03:59.693Z</time></trkpt><trkpt lat="46.5712744" lon="12.7426208"><ele>1055.0</ele><time>2026-03-29T12:04:00.705Z</time></trkpt><trkpt lat="46.57138" lon="12.7427952"><ele>1051.6666666666667</ele><time>2026-03-29T12:04:01.71Z</time></trkpt><trkpt lat="46.571482" lon="12.7429731"><ele>1048.3333333333333</ele><time>2026-03-29T12:04:02.709Z</time></trkpt><trkpt lat="46.5715872" lon="12.7431487"><ele>1045.0</ele><time>2026-03-29T12:04:03.69Z</time></trkpt><trkpt lat="46.5716929" lon="12.743324"><ele>1045.0</ele><time>2026-03-29T12:04:04.692Z</time></trkpt><trkpt lat="46.5717996" lon="12.7434949"><ele>1045.0</ele><time>2026-03-29T12:04:05.724Z</time></trkpt><trkpt lat="46.5719073" lon="12.7436602"><ele>1045.0</ele><time>2026-03-29T12:04:06.69Z</time></trkpt><trkpt lat="46.5720134" lon="12.7438237"><ele>1049.0</ele><time>2026-03-29T12:04:07.702Z</time></trkpt><trkpt lat="46.572117" lon="12.7439903"><ele>1053.0</ele><time>2026-03-29T12:04:08.709Z</time></trkpt><trkpt lat="46.572214" lon="12.7441702"><ele>1057.0</ele><time>2026-03-29T12:04:09.699Z</time></trkpt><trkpt lat="46.5723035" lon="12.7443571"><ele>1054.3333333333333</ele><time>2026-03-29T12:04:10.692Z</time></trkpt><trkpt lat="46.5723848" lon="12.7445484"><ele>1051.6666666666667</ele><time>2026-03-29T12:04:11.699Z</time></trkpt><trkpt lat="46.5724588" lon="12.7447443"><ele>1049.0</ele><time>2026-03-29T12:04:12.691Z</time></trkpt><trkpt lat="46.5725236" lon="12.7449448"><ele>1049.0</ele><time>2026-03-29T12:04:13.693Z</time></trkpt><trkpt lat="46.5725792" lon="12.7451467"><ele>1049.0</ele><time>2026-03-29T12:04:14.712Z</time></trkpt><trkpt lat="46.5726283" lon="12.7453486"><ele>1049.0</ele><time>2026-03-29T12:04:15.719Z</time></trkpt><trkpt lat="46.5726656" lon="12.7455539"><ele>1049.0</ele><time>2026-03-29T12:04:16.688Z</time></trkpt><trkpt lat="46.5726955" lon="12.7457584"><ele>1047.0</ele><time>2026-03-29T12:04:17.679Z</time></trkpt><trkpt lat="46.5727239" lon="12.7459619"><ele>1045.0</ele><time>2026-03-29T12:04:18.701Z</time></trkpt><trkpt lat="46.5727495" lon="12.7461681"><ele>1043.0</ele><time>2026-03-29T12:04:19.71Z</time></trkpt><trkpt lat="46.5727694" lon="12.7463747"><ele>1041.0</ele><time>2026-03-29T12:04:20.7Z</time></trkpt><trkpt lat="46.5728009" lon="12.7465796"><ele>1041.0</ele><time>2026-03-29T12:04:21.688Z</time></trkpt><trkpt lat="46.5728345" lon="12.7467877"><ele>1041.0</ele><time>2026-03-29T12:04:22.686Z</time></trkpt><trkpt lat="46.5728895" lon="12.7469903"><ele>1041.0</ele><time>2026-03-29T12:04:23.682Z</time></trkpt><trkpt lat="46.5729283" lon="12.747197"><ele>1041.0</ele><time>2026-03-29T12:04:24.705Z</time></trkpt><trkpt lat="46.5729768" lon="12.7474005"><ele>1041.75</ele><time>2026-03-29T12:04:25.699Z</time></trkpt><trkpt lat="46.5730163" lon="12.7476027"><ele>1042.5</ele><time>2026-03-29T12:04:26.711Z</time></trkpt><trkpt lat="46.5730459" lon="12.7478012"><ele>1043.25</ele><time>2026-03-29T12:04:27.694Z</time></trkpt><trkpt lat="46.5730782" lon="12.7479975"><ele>1044.0</ele><time>2026-03-29T12:04:28.711Z</time></trkpt><trkpt lat="46.5730982" lon="12.7481942"><ele>1044.0</ele><time>2026-03-29T12:04:29.693Z</time></trkpt><trkpt lat="46.5731209" lon="12.7483942"><ele>1044.0</ele><time>2026-03-29T12:04:30.686Z</time></trkpt><trkpt lat="46.5731576" lon="12.7485984"><ele>1044.0</ele><time>2026-03-29T12:04:31.707Z</time></trkpt><trkpt lat="46.573201" lon="12.748802"><ele>1044.0</ele><time>2026-03-29T12:04:32.707Z</time></trkpt><trkpt lat="46.5732495" lon="12.749001"><ele>1044.0</ele><time>2026-03-29T12:04:33.709Z</time></trkpt><trkpt lat="46.5733048" lon="12.749191"><ele>1044.0</ele><time>2026-03-29T12:04:34.694Z</time></trkpt><trkpt lat="46.5733576" lon="12.7493771"><ele>1044.0</ele><time>2026-03-29T12:04:35.699Z</time></trkpt><trkpt lat="46.5734109" lon="12.7495596"><ele>1044.0</ele><time>2026-03-29T12:04:36.718Z</time></trkpt><trkpt lat="46.5734599" lon="12.7497387"><ele>1044.0</ele><time>2026-03-29T12:04:37.759Z</time></trkpt><trkpt lat="46.573516" lon="12.7499085"><ele>1044.0</ele><time>2026-03-29T12:04:38.693Z</time></trkpt><trkpt lat="46.5735774" lon="12.7500765"><ele>1044.0</ele><time>2026-03-29T12:04:39.709Z</time></trkpt><trkpt lat="46.5736465" lon="12.7502407"><ele>1044.0</ele><time>2026-03-29T12:04:40.68Z</time></trkpt><trkpt lat="46.5737277" lon="12.7503978"><ele>1041.75</ele><time>2026-03-29T12:04:41.687Z</time></trkpt><trkpt lat="46.573837" lon="12.7505185"><ele>1039.5</ele><time>2026-03-29T12:04:42.687Z</time></trkpt><trkpt lat="46.5739633" lon="12.7506098"><ele>1037.25</ele><time>2026-03-29T12:04:43.696Z</time></trkpt><trkpt lat="46.5740984" lon="12.7506875"><ele>1035.0</ele><time>2026-03-29T12:04:44.7Z</time></trkpt><trkpt lat="46.5742452" lon="12.7507354"><ele>1035.0</ele><time>2026-03-29T12:04:45.691Z</time></trkpt><trkpt lat="46.5743955" lon="12.7507813"><ele>1035.0</ele><time>2026-03-29T12:04:46.68Z</time></trkpt><trkpt lat="46.5745479" lon="12.7508207"><ele>1035.0</ele><time>2026-03-29T12:04:47.69Z</time></trkpt><trkpt lat="46.5747028" lon="12.7508632"><ele>1035.0</ele><time>2026-03-29T12:04:48.692Z</time></trkpt><trkpt lat="46.5748613" lon="12.7509112"><ele>1035.0</ele><time>2026-03-29T12:04:49.705Z</time></trkpt><trkpt lat="46.575016" lon="12.7509871"><ele>1035.0</ele><time>2026-03-29T12:04:50.691Z</time></trkpt><trkpt lat="46.5751648" lon="12.7510657"><ele>1033.6666666666667</ele><time>2026-03-29T12:04:51.706Z</time></trkpt><trkpt lat="46.5753082" lon="12.7511454"><ele>1032.3333333333335</ele><time>2026-03-29T12:04:52.687Z</time></trkpt><trkpt lat="46.5754493" lon="12.7512264"><ele>1031.0</ele><time>2026-03-29T12:04:53.688Z</time></trkpt><trkpt lat="46.5755923" lon="12.7513018"><ele>1034.0</ele><time>2026-03-29T12:04:54.722Z</time></trkpt><trkpt lat="46.5757357" lon="12.7513779"><ele>1037.0</ele><time>2026-03-29T12:04:55.711Z</time></trkpt><trkpt lat="46.5758799" lon="12.751452"><ele>1040.0</ele><time>2026-03-29T12:04:56.701Z</time></trkpt><trkpt lat="46.5760238" lon="12.751525"><ele>1040.0</ele><time>2026-03-29T12:04:57.694Z</time></trkpt><trkpt lat="46.5761711" lon="12.7515829"><ele>1040.0</ele><time>2026-03-29T12:04:58.706Z</time></trkpt><trkpt lat="46.5763201" lon="12.7516207"><ele>1040.0</ele><time>2026-03-29T12:04:59.696Z</time></trkpt><trkpt lat="46.5764571" lon="12.7516895"><ele>1040.0</ele><time>2026-03-29T12:05:00.711Z</time></trkpt><trkpt lat="46.576579" lon="12.751788"><ele>1038.25</ele><time>2026-03-29T12:05:01.698Z</time></trkpt><trkpt lat="46.5766933" lon="12.7518964"><ele>1036.5</ele><time>2026-03-29T12:05:02.701Z</time></trkpt><trkpt lat="46.5767871" lon="12.7520353"><ele>1034.75</ele><time>2026-03-29T12:05:03.708Z</time></trkpt><trkpt lat="46.5768648" lon="12.7521888"><ele>1033.0</ele><time>2026-03-29T12:05:04.697Z</time></trkpt><trkpt lat="46.5769301" lon="12.7523584"><ele>1033.0</ele><time>2026-03-29T12:05:05.715Z</time></trkpt><trkpt lat="46.5769601" lon="12.7525589"><ele>1033.0</ele><time>2026-03-29T12:05:06.708Z</time></trkpt><trkpt lat="46.5769791" lon="12.7527672"><ele>1033.0</ele><time>2026-03-29T12:05:07.701Z</time></trkpt><trkpt lat="46.5770026" lon="12.7529756"><ele>1033.0</ele><time>2026-03-29T12:05:08.696Z</time></trkpt><trkpt lat="46.5770251" lon="12.7531856"><ele>1034.5</ele><time>2026-03-29T12:05:09.693Z</time></trkpt><trkpt lat="46.5770531" lon="12.7533939"><ele>1036.0</ele><time>2026-03-29T12:05:10.699Z</time></trkpt><trkpt lat="46.5770888" lon="12.7536015"><ele>1037.5</ele><time>2026-03-29T12:05:11.688Z</time></trkpt><trkpt lat="46.5771364" lon="12.7538094"><ele>1039.0</ele><time>2026-03-29T12:05:12.707Z</time></trkpt><trkpt lat="46.577191" lon="12.7540204"><ele>1039.0</ele><time>2026-03-29T12:05:13.69Z</time></trkpt><trkpt lat="46.5772549" lon="12.7542221"><ele>1039.0</ele><time>2026-03-29T12:05:14.707Z</time></trkpt><trkpt lat="46.5773119" lon="12.7544144"><ele>1039.0</ele><time>2026-03-29T12:05:15.71Z</time></trkpt><trkpt lat="46.5773636" lon="12.7545994"><ele>1039.0</ele><time>2026-03-29T12:05:16.689Z</time></trkpt><trkpt lat="46.5774175" lon="12.7547802"><ele>1038.5</ele><time>2026-03-29T12:05:17.707Z</time></trkpt><trkpt lat="46.5774741" lon="12.7549563"><ele>1038.0</ele><time>2026-03-29T12:05:18.706Z</time></trkpt><trkpt lat="46.5775272" lon="12.7551293"><ele>1037.5</ele><time>2026-03-29T12:05:19.708Z</time></trkpt><trkpt lat="46.5775887" lon="12.7552897"><ele>1037.0</ele><time>2026-03-29T12:05:20.697Z</time></trkpt><trkpt lat="46.57765" lon="12.7554415"><ele>1036.8</ele><time>2026-03-29T12:05:21.693Z</time></trkpt><trkpt lat="46.5777033" lon="12.7555888"><ele>1036.6</ele><time>2026-03-29T12:05:22.704Z</time></trkpt><trkpt lat="46.5777484" lon="12.7557295"><ele>1036.3999999999999</ele><time>2026-03-29T12:05:23.727Z</time></trkpt><trkpt lat="46.5777803" lon="12.7558699"><ele>1036.2</ele><time>2026-03-29T12:05:24.695Z</time></trkpt><trkpt lat="46.5777938" lon="12.7560173"><ele>1036.0</ele><time>2026-03-29T12:05:25.709Z</time></trkpt><trkpt lat="46.5777724" lon="12.7561822"><ele>1035.0</ele><time>2026-03-29T12:05:26.696Z</time></trkpt><trkpt lat="46.5777355" lon="12.7563632"><ele>1034.0</ele><time>2026-03-29T12:05:27.705Z</time></trkpt><trkpt lat="46.5776917" lon="12.7565626"><ele>1033.0</ele><time>2026-03-29T12:05:28.71Z</time></trkpt><trkpt lat="46.5776502" lon="12.7567669"><ele>1032.0</ele><time>2026-03-29T12:05:29.713Z</time></trkpt><trkpt lat="46.5776129" lon="12.7569699"><ele>1031.0</ele><time>2026-03-29T12:05:30.704Z</time></trkpt><trkpt lat="46.5775862" lon="12.7571751"><ele>1030.0</ele><time>2026-03-29T12:05:31.708Z</time></trkpt><trkpt lat="46.5775604" lon="12.7573774"><ele>1029.0</ele><time>2026-03-29T12:05:32.69Z</time></trkpt><trkpt lat="46.5775484" lon="12.7575797"><ele>1028.0</ele><time>2026-03-29T12:05:33.692Z</time></trkpt><trkpt lat="46.577567" lon="12.757782"><ele>1028.0</ele><time>2026-03-29T12:05:34.697Z</time></trkpt><trkpt lat="46.5776157" lon="12.7579716"><ele>1028.0</ele><time>2026-03-29T12:05:35.701Z</time></trkpt><trkpt lat="46.5776809" lon="12.7581524"><ele>1028.0</ele><time>2026-03-29T12:05:36.697Z</time></trkpt><trkpt lat="46.577747" lon="12.7583401"><ele>1028.0</ele><time>2026-03-29T12:05:37.7Z</time></trkpt><trkpt lat="46.5778109" lon="12.7585375"><ele>1027.3333333333335</ele><time>2026-03-29T12:05:38.703Z</time></trkpt><trkpt lat="46.5778772" lon="12.7587383"><ele>1026.6666666666667</ele><time>2026-03-29T12:05:39.714Z</time></trkpt><trkpt lat="46.5779439" lon="12.7589452"><ele>1026.0</ele><time>2026-03-29T12:05:40.713Z</time></trkpt><trkpt lat="46.5780339" lon="12.7591408"><ele>1026.0</ele><time>2026-03-29T12:05:41.711Z</time></trkpt><trkpt lat="46.5781282" lon="12.7593392"><ele>1026.0</ele><time>2026-03-29T12:05:42.711Z</time></trkpt><trkpt lat="46.5782479" lon="12.7595186"><ele>1026.0</ele><time>2026-03-29T12:05:43.703Z</time></trkpt><trkpt lat="46.578371" lon="12.7596934"><ele>1026.6666666666667</ele><time>2026-03-29T12:05:44.692Z</time></trkpt><trkpt lat="46.5784885" lon="12.7598686"><ele>1027.3333333333335</ele><time>2026-03-29T12:05:45.71Z</time></trkpt><trkpt lat="46.5786013" lon="12.7600368"><ele>1028.0</ele><time>2026-03-29T12:05:46.72Z</time></trkpt><trkpt lat="46.5787199" lon="12.760186"><ele>1026.25</ele><time>2026-03-29T12:05:47.698Z</time></trkpt><trkpt lat="46.5788277" lon="12.7603423"><ele>1024.5</ele><time>2026-03-29T12:05:48.7Z</time></trkpt><trkpt lat="46.5789297" lon="12.7605019"><ele>1022.75</ele><time>2026-03-29T12:05:49.703Z</time></trkpt><trkpt lat="46.5790242" lon="12.7606649"><ele>1021.0</ele><time>2026-03-29T12:05:50.697Z</time></trkpt><trkpt lat="46.5791105" lon="12.7608244"><ele>1021.0</ele><time>2026-03-29T12:05:51.694Z</time></trkpt><trkpt lat="46.5791973" lon="12.7609623"><ele>1021.0</ele><time>2026-03-29T12:05:52.701Z</time></trkpt><trkpt lat="46.5792803" lon="12.76108"><ele>1021.0</ele><time>2026-03-29T12:05:53.713Z</time></trkpt><trkpt lat="46.5793742" lon="12.761161"><ele>1021.0</ele><time>2026-03-29T12:05:54.694Z</time></trkpt><trkpt lat="46.5794782" lon="12.7611847"><ele>1019.1999999999999</ele><time>2026-03-29T12:05:55.713Z</time></trkpt><trkpt lat="46.5795749" lon="12.7611544"><ele>1017.3999999999999</ele><time>2026-03-29T12:05:56.704Z</time></trkpt><trkpt lat="46.5796624" lon="12.7611081"><ele>1015.6</ele><time>2026-03-29T12:05:57.722Z</time></trkpt><trkpt lat="46.5797469" lon="12.7610567"><ele>1013.8</ele><time>2026-03-29T12:05:58.7Z</time></trkpt><trkpt lat="46.5798421" lon="12.7610393"><ele>1012.0</ele><time>2026-03-29T12:05:59.694Z</time></trkpt><trkpt lat="46.5799417" lon="12.7610749"><ele>1012.0</ele><time>2026-03-29T12:06:00.701Z</time></trkpt><trkpt lat="46.5800327" lon="12.7611538"><ele>1012.0</ele><time>2026-03-29T12:06:01.72Z</time></trkpt><trkpt lat="46.5801196" lon="12.761242"><ele>1012.0</ele><time>2026-03-29T12:06:02.714Z</time></trkpt><trkpt lat="46.5802114" lon="12.761343"><ele>1012.0</ele><time>2026-03-29T12:06:03.693Z</time></trkpt><trkpt lat="46.5803163" lon="12.7614413"><ele>1012.0</ele><time>2026-03-29T12:06:04.729Z</time></trkpt><trkpt lat="46.5804132" lon="12.761548"><ele>1012.0</ele><time>2026-03-29T12:06:05.721Z</time></trkpt><trkpt lat="46.5805035" lon="12.7616645"><ele>1012.0</ele><time>2026-03-29T12:06:06.703Z</time></trkpt><trkpt lat="46.5805791" lon="12.7617916"><ele>1012.0</ele><time>2026-03-29T12:06:07.717Z</time></trkpt><trkpt lat="46.5806302" lon="12.761936"><ele>1012.0</ele><time>2026-03-29T12:06:08.693Z</time></trkpt><trkpt lat="46.5806751" lon="12.7620923"><ele>1012.0</ele><time>2026-03-29T12:06:09.706Z</time></trkpt><trkpt lat="46.5807322" lon="12.7622362"><ele>1012.0</ele><time>2026-03-29T12:06:10.691Z</time></trkpt><trkpt lat="46.5808034" lon="12.7623775"><ele>1012.0</ele><time>2026-03-29T12:06:11.713Z</time></trkpt><trkpt lat="46.5809055" lon="12.7624928"><ele>1012.0</ele><time>2026-03-29T12:06:12.713Z</time></trkpt><trkpt lat="46.5810261" lon="12.7625926"><ele>1012.0</ele><time>2026-03-29T12:06:13.733Z</time></trkpt><trkpt lat="46.5811477" lon="12.7626919"><ele>1012.0</ele><time>2026-03-29T12:06:14.702Z</time></trkpt><trkpt lat="46.5812692" lon="12.7627852"><ele>1012.0</ele><time>2026-03-29T12:06:15.727Z</time></trkpt><trkpt lat="46.5813847" lon="12.7628806"><ele>1009.25</ele><time>2026-03-29T12:06:16.711Z</time></trkpt><trkpt lat="46.5814926" lon="12.7629791"><ele>1006.5</ele><time>2026-03-29T12:06:17.719Z</time></trkpt><trkpt lat="46.5815873" lon="12.7630935"><ele>1003.75</ele><time>2026-03-29T12:06:18.713Z</time></trkpt><trkpt lat="46.5816767" lon="12.7632106"><ele>1001.0</ele><time>2026-03-29T12:06:19.709Z</time></trkpt><trkpt lat="46.5817432" lon="12.7633537"><ele>1001.0</ele><time>2026-03-29T12:06:20.713Z</time></trkpt><trkpt lat="46.5818014" lon="12.7635118"><ele>1001.0</ele><time>2026-03-29T12:06:21.693Z</time></trkpt><trkpt lat="46.5818569" lon="12.7636733"><ele>1001.0</ele><time>2026-03-29T12:06:22.709Z</time></trkpt><trkpt lat="46.5819132" lon="12.763835"><ele>1001.0</ele><time>2026-03-29T12:06:23.722Z</time></trkpt><trkpt lat="46.581968" lon="12.7639926"><ele>998.5</ele><time>2026-03-29T12:06:24.71Z</time></trkpt><trkpt lat="46.5820418" lon="12.7641246"><ele>996.0</ele><time>2026-03-29T12:06:25.72Z</time></trkpt><trkpt lat="46.5821321" lon="12.7642541"><ele>993.5</ele><time>2026-03-29T12:06:26.71Z</time></trkpt><trkpt lat="46.5822503" lon="12.7643448"><ele>991.0</ele><time>2026-03-29T12:06:27.704Z</time></trkpt><trkpt lat="46.5823769" lon="12.7644381"><ele>986.6666666666666</ele><time>2026-03-29T12:06:28.698Z</time></trkpt><trkpt lat="46.5825215" lon="12.764502"><ele>982.3333333333333</ele><time>2026-03-29T12:06:29.688Z</time></trkpt><trkpt lat="46.5826771" lon="12.7645291"><ele>978.0</ele><time>2026-03-29T12:06:30.739Z</time></trkpt><trkpt lat="46.5828342" lon="12.7645499"><ele>978.6666666666667</ele><time>2026-03-29T12:06:31.707Z</time></trkpt><trkpt lat="46.5829866" lon="12.7646047"><ele>979.3333333333334</ele><time>2026-03-29T12:06:32.719Z</time></trkpt><trkpt lat="46.5831387" lon="12.7646508"><ele>980.0</ele><time>2026-03-29T12:06:33.696Z</time></trkpt><trkpt lat="46.5832885" lon="12.7646942"><ele>980.0</ele><time>2026-03-29T12:06:34.702Z</time></trkpt><trkpt lat="46.5834353" lon="12.7647488"><ele>980.0</ele><time>2026-03-29T12:06:35.699Z</time></trkpt><trkpt lat="46.5835821" lon="12.7647945"><ele>980.0</ele><time>2026-03-29T12:06:36.705Z</time></trkpt><trkpt lat="46.5837271" lon="12.7648609"><ele>980.3333333333334</ele><time>2026-03-29T12:06:37.691Z</time></trkpt><trkpt lat="46.5838776" lon="12.7648928"><ele>980.6666666666667</ele><time>2026-03-29T12:06:38.697Z</time></trkpt><trkpt lat="46.5840284" lon="12.7649446"><ele>981.0</ele><time>2026-03-29T12:06:39.702Z</time></trkpt><trkpt lat="46.5841816" lon="12.764992"><ele>981.0</ele><time>2026-03-29T12:06:40.69Z</time></trkpt><trkpt lat="46.584339" lon="12.7650175"><ele>981.0</ele><time>2026-03-29T12:06:41.706Z</time></trkpt><trkpt lat="46.5844891" lon="12.7650741"><ele>981.0</ele><time>2026-03-29T12:06:42.703Z</time></trkpt><trkpt lat="46.5846331" lon="12.7651358"><ele>977.75</ele><time>2026-03-29T12:06:43.714Z</time></trkpt><trkpt lat="46.5847704" lon="12.7652037"><ele>974.5</ele><time>2026-03-29T12:06:44.713Z</time></trkpt><trkpt lat="46.5848911" lon="12.7653115"><ele>971.25</ele><time>2026-03-29T12:06:45.711Z</time></trkpt><trkpt lat="46.5849945" lon="12.7654582"><ele>968.0</ele><time>2026-03-29T12:06:46.709Z</time></trkpt><trkpt lat="46.5850837" lon="12.7656364"><ele>968.0</ele><time>2026-03-29T12:06:47.689Z</time></trkpt><trkpt lat="46.5851654" lon="12.7658311"><ele>968.0</ele><time>2026-03-29T12:06:48.707Z</time></trkpt><trkpt lat="46.5852531" lon="12.7660174"><ele>968.0</ele><time>2026-03-29T12:06:49.702Z</time></trkpt><trkpt lat="46.5853428" lon="12.7662013"><ele>969.0</ele><time>2026-03-29T12:06:50.721Z</time></trkpt><trkpt lat="46.5854411" lon="12.7663812"><ele>970.0</ele><time>2026-03-29T12:06:51.704Z</time></trkpt><trkpt lat="46.5855376" lon="12.7665427"><ele>971.0</ele><time>2026-03-29T12:06:52.706Z</time></trkpt><trkpt lat="46.5856167" lon="12.7667271"><ele>969.0</ele><time>2026-03-29T12:06:53.714Z</time></trkpt><trkpt lat="46.5856943" lon="12.7669113"><ele>967.0</ele><time>2026-03-29T12:06:54.721Z</time></trkpt><trkpt lat="46.5857545" lon="12.7671162"><ele>965.0</ele><time>2026-03-29T12:06:55.702Z</time></trkpt><trkpt lat="46.5858051" lon="12.7673306"><ele>965.0</ele><time>2026-03-29T12:06:56.7Z</time></trkpt><trkpt lat="46.5858493" lon="12.7675559"><ele>965.0</ele><time>2026-03-29T12:06:57.721Z</time></trkpt><trkpt lat="46.5858695" lon="12.7677825"><ele>965.0</ele><time>2026-03-29T12:06:58.699Z</time></trkpt><trkpt lat="46.5859162" lon="12.7679905"><ele>957.0</ele><time>2026-03-29T12:06:59.704Z</time></trkpt><trkpt lat="46.586" lon="12.7684045"><ele>949.0</ele><time>2026-03-29T12:07:01.692Z</time></trkpt><trkpt lat="46.5860592" lon="12.7686147"><ele>950.3333333333333</ele><time>2026-03-29T12:07:02.698Z</time></trkpt><trkpt lat="46.5861915" lon="12.7688101"><ele>951.6666666666667</ele><time>2026-03-29T12:07:03.686Z</time></trkpt><trkpt lat="46.5862649" lon="12.7690453"><ele>953.0</ele><time>2026-03-29T12:07:04.709Z</time></trkpt><trkpt lat="46.5863394" lon="12.7692719"><ele>948.3333333333334</ele><time>2026-03-29T12:07:05.698Z</time></trkpt><trkpt lat="46.5864181" lon="12.7695033"><ele>943.6666666666667</ele><time>2026-03-29T12:07:06.687Z</time></trkpt><trkpt lat="46.5865163" lon="12.7697265"><ele>939.0</ele><time>2026-03-29T12:07:07.692Z</time></trkpt><trkpt lat="46.586718" lon="12.7699288"><ele>939.0</ele><time>2026-03-29T12:07:08.696Z</time></trkpt><trkpt lat="46.5868628" lon="12.7701244"><ele>939.0</ele><time>2026-03-29T12:07:09.693Z</time></trkpt><trkpt lat="46.586968" lon="12.7703029"><ele>939.0</ele><time>2026-03-29T12:07:10.695Z</time></trkpt><trkpt lat="46.5870837" lon="12.7704818"><ele>937.3333333333333</ele><time>2026-03-29T12:07:11.69Z</time></trkpt><trkpt lat="46.5871747" lon="12.7706746"><ele>935.6666666666666</ele><time>2026-03-29T12:07:12.702Z</time></trkpt><trkpt lat="46.5872623" lon="12.7708983"><ele>934.0</ele><time>2026-03-29T12:07:13.693Z</time></trkpt><trkpt lat="46.5873566" lon="12.7710733"><ele>934.0</ele><time>2026-03-29T12:07:14.711Z</time></trkpt><trkpt lat="46.5874505" lon="12.7712425"><ele>934.0</ele><time>2026-03-29T12:07:15.696Z</time></trkpt><trkpt lat="46.5875449" lon="12.7714111"><ele>934.0</ele><time>2026-03-29T12:07:16.705Z</time></trkpt><trkpt lat="46.5876481" lon="12.7715905"><ele>934.0</ele><time>2026-03-29T12:07:17.715Z</time></trkpt><trkpt lat="46.5877757" lon="12.771746"><ele>934.0</ele><time>2026-03-29T12:07:18.703Z</time></trkpt><trkpt lat="46.5878835" lon="12.7719269"><ele>934.0</ele><time>2026-03-29T12:07:19.717Z</time></trkpt><trkpt lat="46.5879985" lon="12.7721026"><ele>934.6666666666666</ele><time>2026-03-29T12:07:20.702Z</time></trkpt><trkpt lat="46.5881089" lon="12.7722696"><ele>935.3333333333333</ele><time>2026-03-29T12:07:21.691Z</time></trkpt><trkpt lat="46.5882106" lon="12.7724474"><ele>936.0</ele><time>2026-03-29T12:07:22.703Z</time></trkpt><trkpt lat="46.5883042" lon="12.7726318"><ele>930.75</ele><time>2026-03-29T12:07:23.715Z</time></trkpt><trkpt lat="46.588401" lon="12.7728032"><ele>925.5</ele><time>2026-03-29T12:07:24.714Z</time></trkpt><trkpt lat="46.5884909" lon="12.7729639"><ele>920.25</ele><time>2026-03-29T12:07:25.745Z</time></trkpt><trkpt lat="46.5885725" lon="12.7731098"><ele>915.0</ele><time>2026-03-29T12:07:26.689Z</time></trkpt><trkpt lat="46.5886535" lon="12.7732321"><ele>916.5</ele><time>2026-03-29T12:07:27.695Z</time></trkpt><trkpt lat="46.5887579" lon="12.7732976"><ele>918.0</ele><time>2026-03-29T12:07:28.714Z</time></trkpt><trkpt lat="46.5888705" lon="12.7733359"><ele>919.5</ele><time>2026-03-29T12:07:29.678Z</time></trkpt><trkpt lat="46.5889993" lon="12.7733277"><ele>921.0</ele><time>2026-03-29T12:07:30.695Z</time></trkpt><trkpt lat="46.5891312" lon="12.773327"><ele>921.0</ele><time>2026-03-29T12:07:31.716Z</time></trkpt><trkpt lat="46.5892652" lon="12.7732894"><ele>921.0</ele><time>2026-03-29T12:07:32.69Z</time></trkpt><trkpt lat="46.5893999" lon="12.7732729"><ele>921.0</ele><time>2026-03-29T12:07:33.701Z</time></trkpt><trkpt lat="46.589534" lon="12.7732409"><ele>921.0</ele><time>2026-03-29T12:07:34.693Z</time></trkpt><trkpt lat="46.5896759" lon="12.7732204"><ele>920.6666666666667</ele><time>2026-03-29T12:07:35.702Z</time></trkpt><trkpt lat="46.589828" lon="12.7732138"><ele>920.3333333333334</ele><time>2026-03-29T12:07:36.702Z</time></trkpt><trkpt lat="46.589986" lon="12.7732526"><ele>920.0</ele><time>2026-03-29T12:07:37.692Z</time></trkpt><trkpt lat="46.5901442" lon="12.7732938"><ele>920.0</ele><time>2026-03-29T12:07:38.71Z</time></trkpt><trkpt lat="46.5902984" lon="12.7733553"><ele>920.0</ele><time>2026-03-29T12:07:39.691Z</time></trkpt><trkpt lat="46.5904496" lon="12.7734247"><ele>920.0</ele><time>2026-03-29T12:07:40.718Z</time></trkpt><trkpt lat="46.5905985" lon="12.7734982"><ele>916.75</ele><time>2026-03-29T12:07:41.691Z</time></trkpt><trkpt lat="46.5907381" lon="12.7735894"><ele>913.5</ele><time>2026-03-29T12:07:42.693Z</time></trkpt><trkpt lat="46.5908619" lon="12.7736537"><ele>910.25</ele><time>2026-03-29T12:07:43.705Z</time></trkpt><trkpt lat="46.5909505" lon="12.7737387"><ele>907.0</ele><time>2026-03-29T12:07:44.712Z</time></trkpt><trkpt lat="46.5910307" lon="12.7738037"><ele>907.0</ele><time>2026-03-29T12:07:45.713Z</time></trkpt><trkpt lat="46.5910987" lon="12.7738865"><ele>907.0</ele><time>2026-03-29T12:07:46.7Z</time></trkpt><trkpt lat="46.5911437" lon="12.7740089"><ele>907.0</ele><time>2026-03-29T12:07:47.716Z</time></trkpt><trkpt lat="46.5911724" lon="12.7741389"><ele>907.0</ele><time>2026-03-29T12:07:48.701Z</time></trkpt><trkpt lat="46.5911657" lon="12.77428"><ele>907.0</ele><time>2026-03-29T12:07:49.704Z</time></trkpt><trkpt lat="46.5911447" lon="12.7744262"><ele>906.2</ele><time>2026-03-29T12:07:50.677Z</time></trkpt><trkpt lat="46.5911048" lon="12.7745749"><ele>905.4000000000001</ele><time>2026-03-29T12:07:51.713Z</time></trkpt><trkpt lat="46.5910638" lon="12.7747288"><ele>904.5999999999999</ele><time>2026-03-29T12:07:52.708Z</time></trkpt><trkpt lat="46.5910303" lon="12.7748867"><ele>903.8</ele><time>2026-03-29T12:07:53.688Z</time></trkpt><trkpt lat="46.5910001" lon="12.7750431"><ele>903.0</ele><time>2026-03-29T12:07:54.698Z</time></trkpt><trkpt lat="46.5909768" lon="12.7751902"><ele>908.0</ele><time>2026-03-29T12:07:55.694Z</time></trkpt><trkpt lat="46.590954" lon="12.7753223"><ele>913.0</ele><time>2026-03-29T12:07:56.697Z</time></trkpt><trkpt lat="46.5908985" lon="12.7754228"><ele>918.0</ele><time>2026-03-29T12:07:57.698Z</time></trkpt><trkpt lat="46.590818" lon="12.7754744"><ele>923.0</ele><time>2026-03-29T12:07:58.706Z</time></trkpt><trkpt lat="46.5907276" lon="12.775492"><ele>928.0</ele><time>2026-03-29T12:07:59.694Z</time></trkpt><trkpt lat="46.5906252" lon="12.775473"><ele>928.0</ele><time>2026-03-29T12:08:00.691Z</time></trkpt><trkpt lat="46.5905071" lon="12.7754211"><ele>928.0</ele><time>2026-03-29T12:08:01.695Z</time></trkpt><trkpt lat="46.5903672" lon="12.7753472"><ele>928.0</ele><time>2026-03-29T12:08:02.701Z</time></trkpt><trkpt lat="46.5902171" lon="12.7752746"><ele>928.0</ele><time>2026-03-29T12:08:03.696Z</time></trkpt><trkpt lat="46.5900697" lon="12.7752157"><ele>922.75</ele><time>2026-03-29T12:08:04.686Z</time></trkpt><trkpt lat="46.5899336" lon="12.7751494"><ele>917.5</ele><time>2026-03-29T12:08:05.687Z</time></trkpt><trkpt lat="46.5898022" lon="12.7750959"><ele>912.25</ele><time>2026-03-29T12:08:06.689Z</time></trkpt><trkpt lat="46.5896772" lon="12.775056"><ele>907.0</ele><time>2026-03-29T12:08:07.695Z</time></trkpt><trkpt lat="46.5895472" lon="12.7750733"><ele>909.0</ele><time>2026-03-29T12:08:08.691Z</time></trkpt><trkpt lat="46.5894123" lon="12.7751387"><ele>911.0</ele><time>2026-03-29T12:08:09.69Z</time></trkpt><trkpt lat="46.5892769" lon="12.7752337"><ele>913.0</ele><time>2026-03-29T12:08:10.693Z</time></trkpt><trkpt lat="46.5891323" lon="12.7753176"><ele>915.0</ele><time>2026-03-29T12:08:11.696Z</time></trkpt><trkpt lat="46.5889759" lon="12.7753829"><ele>915.0</ele><time>2026-03-29T12:08:12.724Z</time></trkpt><trkpt lat="46.5888045" lon="12.7754057"><ele>915.0</ele><time>2026-03-29T12:08:13.688Z</time></trkpt><trkpt lat="46.5886279" lon="12.7754162"><ele>915.0</ele><time>2026-03-29T12:08:14.682Z</time></trkpt><trkpt lat="46.5884555" lon="12.7754263"><ele>912.6666666666667</ele><time>2026-03-29T12:08:15.688Z</time></trkpt><trkpt lat="46.5882904" lon="12.7754378"><ele>910.3333333333334</ele><time>2026-03-29T12:08:16.691Z</time></trkpt><trkpt lat="46.5881317" lon="12.7754483"><ele>908.0</ele><time>2026-03-29T12:08:17.68Z</time></trkpt><trkpt lat="46.5879785" lon="12.7754573"><ele>904.5</ele><time>2026-03-29T12:08:18.677Z</time></trkpt><trkpt lat="46.5878314" lon="12.775458"><ele>901.0</ele><time>2026-03-29T12:08:19.694Z</time></trkpt><trkpt lat="46.5876886" lon="12.7754887"><ele>897.5</ele><time>2026-03-29T12:08:20.684Z</time></trkpt><trkpt lat="46.5875554" lon="12.7755641"><ele>894.0</ele><time>2026-03-29T12:08:21.693Z</time></trkpt><trkpt lat="46.5874285" lon="12.7756487"><ele>894.0</ele><time>2026-03-29T12:08:22.691Z</time></trkpt><trkpt lat="46.5873076" lon="12.7757515"><ele>894.0</ele><time>2026-03-29T12:08:23.695Z</time></trkpt><trkpt lat="46.5871897" lon="12.7758563"><ele>894.0</ele><time>2026-03-29T12:08:24.703Z</time></trkpt><trkpt lat="46.5870754" lon="12.7759706"><ele>894.0</ele><time>2026-03-29T12:08:25.716Z</time></trkpt><trkpt lat="46.586954" lon="12.776067"><ele>893.25</ele><time>2026-03-29T12:08:26.699Z</time></trkpt><trkpt lat="46.5868275" lon="12.7761462"><ele>892.5</ele><time>2026-03-29T12:08:27.694Z</time></trkpt><trkpt lat="46.5866973" lon="12.7762091"><ele>891.75</ele><time>2026-03-29T12:08:28.701Z</time></trkpt><trkpt lat="46.5865668" lon="12.7762578"><ele>891.0</ele><time>2026-03-29T12:08:29.689Z</time></trkpt><trkpt lat="46.5864489" lon="12.7763338"><ele>891.0</ele><time>2026-03-29T12:08:30.711Z</time></trkpt><trkpt lat="46.5863317" lon="12.7763794"><ele>891.0</ele><time>2026-03-29T12:08:31.691Z</time></trkpt><trkpt lat="46.5862106" lon="12.7764082"><ele>891.0</ele><time>2026-03-29T12:08:32.687Z</time></trkpt><trkpt lat="46.5860869" lon="12.7764311"><ele>891.0</ele><time>2026-03-29T12:08:33.69Z</time></trkpt><trkpt lat="46.5859578" lon="12.7764153"><ele>889.25</ele><time>2026-03-29T12:08:34.681Z</time></trkpt><trkpt lat="46.5858342" lon="12.7764345"><ele>887.5</ele><time>2026-03-29T12:08:35.689Z</time></trkpt><trkpt lat="46.5857138" lon="12.7764526"><ele>885.75</ele><time>2026-03-29T12:08:36.688Z</time></trkpt><trkpt lat="46.585602" lon="12.776518"><ele>884.0</ele><time>2026-03-29T12:08:37.695Z</time></trkpt><trkpt lat="46.5854981" lon="12.776571"><ele>884.0000000000001</ele><time>2026-03-29T12:08:38.695Z</time></trkpt><trkpt lat="46.5854044" lon="12.7766146"><ele>884.0</ele><time>2026-03-29T12:08:39.697Z</time></trkpt><trkpt lat="46.5853252" lon="12.7766563"><ele>884.0</ele><time>2026-03-29T12:08:40.704Z</time></trkpt><trkpt lat="46.5852483" lon="12.776674"><ele>884.0</ele><time>2026-03-29T12:08:41.702Z</time></trkpt><trkpt lat="46.5851901" lon="12.7767276"><ele>884.0000000000001</ele><time>2026-03-29T12:08:42.686Z</time></trkpt><trkpt lat="46.5851533" lon="12.776812"><ele>884.0</ele><time>2026-03-29T12:08:43.704Z</time></trkpt><trkpt lat="46.5851243" lon="12.7769106"><ele>884.2</ele><time>2026-03-29T12:08:44.678Z</time></trkpt><trkpt lat="46.5851053" lon="12.7770176"><ele>884.4000000000001</ele><time>2026-03-29T12:08:45.689Z</time></trkpt><trkpt lat="46.5850936" lon="12.7771389"><ele>884.6</ele><time>2026-03-29T12:08:46.697Z</time></trkpt><trkpt lat="46.5850744" lon="12.7772595"><ele>884.8</ele><time>2026-03-29T12:08:47.696Z</time></trkpt><trkpt lat="46.5850471" lon="12.7774046"><ele>885.0</ele><time>2026-03-29T12:08:48.699Z</time></trkpt><trkpt lat="46.5850086" lon="12.777569"><ele>884.0</ele><time>2026-03-29T12:08:49.687Z</time></trkpt><trkpt lat="46.5849865" lon="12.7777455"><ele>883.0</ele><time>2026-03-29T12:08:50.687Z</time></trkpt><trkpt lat="46.5849519" lon="12.7779016"><ele>882.0</ele><time>2026-03-29T12:08:51.689Z</time></trkpt><trkpt lat="46.5849097" lon="12.7780442"><ele>881.0</ele><time>2026-03-29T12:08:52.695Z</time></trkpt><trkpt lat="46.5848542" lon="12.7781767"><ele>880.0</ele><time>2026-03-29T12:08:53.7Z</time></trkpt><trkpt lat="46.5848066" lon="12.7783104"><ele>880.0</ele><time>2026-03-29T12:08:54.707Z</time></trkpt><trkpt lat="46.5847781" lon="12.7784629"><ele>880.0</ele><time>2026-03-29T12:08:55.684Z</time></trkpt><trkpt lat="46.5847424" lon="12.778627"><ele>880.0</ele><time>2026-03-29T12:08:56.689Z</time></trkpt><trkpt lat="46.5847113" lon="12.7787975"><ele>880.0</ele><time>2026-03-29T12:08:57.689Z</time></trkpt><trkpt lat="46.5846802" lon="12.7789595"><ele>879.5</ele><time>2026-03-29T12:08:58.717Z</time></trkpt><trkpt lat="46.5846788" lon="12.779131"><ele>879.0</ele><time>2026-03-29T12:08:59.692Z</time></trkpt><trkpt lat="46.5846763" lon="12.7793015"><ele>878.5</ele><time>2026-03-29T12:09:00.687Z</time></trkpt><trkpt lat="46.584685" lon="12.7794758"><ele>878.0</ele><time>2026-03-29T12:09:01.693Z</time></trkpt><trkpt lat="46.5846979" lon="12.7796497"><ele>877.8</ele><time>2026-03-29T12:09:02.708Z</time></trkpt><trkpt lat="46.584703" lon="12.779811"><ele>877.5999999999999</ele><time>2026-03-29T12:09:03.698Z</time></trkpt><trkpt lat="46.5846955" lon="12.779958"><ele>877.4000000000001</ele><time>2026-03-29T12:09:04.703Z</time></trkpt><trkpt lat="46.5846737" lon="12.7800904"><ele>877.2</ele><time>2026-03-29T12:09:05.72Z</time></trkpt><trkpt lat="46.5846284" lon="12.7802128"><ele>877.0</ele><time>2026-03-29T12:09:06.699Z</time></trkpt><trkpt lat="46.5845612" lon="12.7803409"><ele>874.5</ele><time>2026-03-29T12:09:07.708Z</time></trkpt><trkpt lat="46.5844814" lon="12.7805007"><ele>872.0</ele><time>2026-03-29T12:09:08.697Z</time></trkpt><trkpt lat="46.5844118" lon="12.7806724"><ele>869.5</ele><time>2026-03-29T12:09:09.703Z</time></trkpt><trkpt lat="46.5843244" lon="12.7808187"><ele>867.0</ele><time>2026-03-29T12:09:10.691Z</time></trkpt><trkpt lat="46.5842388" lon="12.7809472"><ele>868.0</ele><time>2026-03-29T12:09:11.682Z</time></trkpt><trkpt lat="46.5841591" lon="12.7810983"><ele>869.0</ele><time>2026-03-29T12:09:12.685Z</time></trkpt><trkpt lat="46.5840674" lon="12.7812381"><ele>870.0</ele><time>2026-03-29T12:09:13.688Z</time></trkpt><trkpt lat="46.5839683" lon="12.781368"><ele>871.0</ele><time>2026-03-29T12:09:14.691Z</time></trkpt><trkpt lat="46.5838668" lon="12.7814984"><ele>871.0</ele><time>2026-03-29T12:09:15.686Z</time></trkpt><trkpt lat="46.5837596" lon="12.7816295"><ele>871.0</ele><time>2026-03-29T12:09:16.687Z</time></trkpt><trkpt lat="46.5836467" lon="12.7817641"><ele>871.0</ele><time>2026-03-29T12:09:17.691Z</time></trkpt><trkpt lat="46.5835291" lon="12.7819046"><ele>871.0</ele><time>2026-03-29T12:09:18.69Z</time></trkpt><trkpt lat="46.5834054" lon="12.7820547"><ele>869.6666666666666</ele><time>2026-03-29T12:09:19.709Z</time></trkpt><trkpt lat="46.5832786" lon="12.7822068"><ele>868.3333333333333</ele><time>2026-03-29T12:09:20.687Z</time></trkpt><trkpt lat="46.5831531" lon="12.7823537"><ele>867.0</ele><time>2026-03-29T12:09:21.686Z</time></trkpt><trkpt lat="46.583031" lon="12.7825019"><ele>867.0</ele><time>2026-03-29T12:09:22.683Z</time></trkpt><trkpt lat="46.5829073" lon="12.7826436"><ele>867.0</ele><time>2026-03-29T12:09:23.677Z</time></trkpt><trkpt lat="46.5827725" lon="12.7827565"><ele>867.0</ele><time>2026-03-29T12:09:24.698Z</time></trkpt><trkpt lat="46.5826297" lon="12.7828319"><ele>867.5</ele><time>2026-03-29T12:09:25.7Z</time></trkpt><trkpt lat="46.5824889" lon="12.7828887"><ele>868.0</ele><time>2026-03-29T12:09:26.699Z</time></trkpt><trkpt lat="46.5823544" lon="12.7829453"><ele>868.5</ele><time>2026-03-29T12:09:27.683Z</time></trkpt><trkpt lat="46.5822276" lon="12.7830189"><ele>869.0</ele><time>2026-03-29T12:09:28.695Z</time></trkpt><trkpt lat="46.5821118" lon="12.7831295"><ele>866.3333333333334</ele><time>2026-03-29T12:09:29.706Z</time></trkpt><trkpt lat="46.582005" lon="12.7832731"><ele>863.6666666666667</ele><time>2026-03-29T12:09:30.717Z</time></trkpt><trkpt lat="46.5819018" lon="12.7834372"><ele>861.0</ele><time>2026-03-29T12:09:31.691Z</time></trkpt><trkpt lat="46.5818008" lon="12.7836161"><ele>861.0</ele><time>2026-03-29T12:09:32.691Z</time></trkpt><trkpt lat="46.581695" lon="12.7837959"><ele>861.0</ele><time>2026-03-29T12:09:33.714Z</time></trkpt><trkpt lat="46.5815847" lon="12.783972"><ele>861.0</ele><time>2026-03-29T12:09:34.69Z</time></trkpt><trkpt lat="46.5814749" lon="12.7841487"><ele>862.6666666666667</ele><time>2026-03-29T12:09:35.681Z</time></trkpt><trkpt lat="46.5813901" lon="12.7843519"><ele>864.3333333333334</ele><time>2026-03-29T12:09:36.683Z</time></trkpt><trkpt lat="46.581328" lon="12.7845698"><ele>866.0</ele><time>2026-03-29T12:09:37.689Z</time></trkpt><trkpt lat="46.5812775" lon="12.784796"><ele>866.0</ele><time>2026-03-29T12:09:38.679Z</time></trkpt><trkpt lat="46.581227" lon="12.7850291"><ele>866.0</ele><time>2026-03-29T12:09:39.696Z</time></trkpt><trkpt lat="46.5811813" lon="12.7852706"><ele>866.0</ele><time>2026-03-29T12:09:40.684Z</time></trkpt><trkpt lat="46.581136" lon="12.7855125"><ele>859.6666666666667</ele><time>2026-03-29T12:09:41.691Z</time></trkpt><trkpt lat="46.5810643" lon="12.7857352"><ele>853.3333333333333</ele><time>2026-03-29T12:09:42.704Z</time></trkpt><trkpt lat="46.5809619" lon="12.785943"><ele>847.0</ele><time>2026-03-29T12:09:43.69Z</time></trkpt><trkpt lat="46.5808464" lon="12.7861455"><ele>847.0</ele><time>2026-03-29T12:09:44.694Z</time></trkpt><trkpt lat="46.5807213" lon="12.786347"><ele>847.0</ele><time>2026-03-29T12:09:45.709Z</time></trkpt><trkpt lat="46.5805971" lon="12.7865481"><ele>847.0</ele><time>2026-03-29T12:09:46.703Z</time></trkpt><trkpt lat="46.5804749" lon="12.786745"><ele>845.3333333333333</ele><time>2026-03-29T12:09:47.698Z</time></trkpt><trkpt lat="46.5803563" lon="12.7869367"><ele>843.6666666666667</ele><time>2026-03-29T12:09:48.699Z</time></trkpt><trkpt lat="46.5802473" lon="12.787131"><ele>842.0</ele><time>2026-03-29T12:09:49.703Z</time></trkpt><trkpt lat="46.5801349" lon="12.7873182"><ele>842.0</ele><time>2026-03-29T12:09:50.684Z</time></trkpt><trkpt lat="46.5800427" lon="12.7875252"><ele>842.0</ele><time>2026-03-29T12:09:51.691Z</time></trkpt><trkpt lat="46.5799599" lon="12.787745"><ele>842.0</ele><time>2026-03-29T12:09:52.689Z</time></trkpt><trkpt lat="46.579881" lon="12.7879536"><ele>846.0</ele><time>2026-03-29T12:09:53.692Z</time></trkpt><trkpt lat="46.5798039" lon="12.7881596"><ele>850.0</ele><time>2026-03-29T12:09:54.696Z</time></trkpt><trkpt lat="46.5797315" lon="12.7883677"><ele>854.0</ele><time>2026-03-29T12:09:55.697Z</time></trkpt><trkpt lat="46.5796649" lon="12.7885708"><ele>857.6666666666667</ele><time>2026-03-29T12:09:56.716Z</time></trkpt><trkpt lat="46.579638" lon="12.7887892"><ele>861.3333333333333</ele><time>2026-03-29T12:09:57.713Z</time></trkpt><trkpt lat="46.5796239" lon="12.7890052"><ele>865.0</ele><time>2026-03-29T12:09:58.688Z</time></trkpt><trkpt lat="46.5796021" lon="12.7892213"><ele>858.0</ele><time>2026-03-29T12:09:59.694Z</time></trkpt><trkpt lat="46.5795695" lon="12.7894352"><ele>851.0</ele><time>2026-03-29T12:10:00.706Z</time></trkpt><trkpt lat="46.5794697" lon="12.7896161"><ele>844.0</ele><time>2026-03-29T12:10:01.709Z</time></trkpt><trkpt lat="46.5793677" lon="12.7897983"><ele>844.0</ele><time>2026-03-29T12:10:02.708Z</time></trkpt><trkpt lat="46.5792574" lon="12.789973"><ele>844.0</ele><time>2026-03-29T12:10:03.709Z</time></trkpt><trkpt lat="46.5791352" lon="12.7901334"><ele>844.0</ele><time>2026-03-29T12:10:04.699Z</time></trkpt><trkpt lat="46.5790188" lon="12.7902936"><ele>842.0</ele><time>2026-03-29T12:10:05.695Z</time></trkpt><trkpt lat="46.5788773" lon="12.7903986"><ele>840.0</ele><time>2026-03-29T12:10:06.702Z</time></trkpt><trkpt lat="46.5787314" lon="12.7904637"><ele>838.0</ele><time>2026-03-29T12:10:07.7Z</time></trkpt><trkpt lat="46.5785823" lon="12.7904889"><ele>838.0</ele><time>2026-03-29T12:10:08.706Z</time></trkpt><trkpt lat="46.5784375" lon="12.790511"><ele>838.0</ele><time>2026-03-29T12:10:09.711Z</time></trkpt><trkpt lat="46.5782979" lon="12.7905361"><ele>838.0</ele><time>2026-03-29T12:10:10.712Z</time></trkpt><trkpt lat="46.5781722" lon="12.7906121"><ele>838.0</ele><time>2026-03-29T12:10:11.714Z</time></trkpt><trkpt lat="46.5780597" lon="12.7907164"><ele>838.0</ele><time>2026-03-29T12:10:12.701Z</time></trkpt><trkpt lat="46.5779625" lon="12.7908554"><ele>838.0</ele><time>2026-03-29T12:10:13.703Z</time></trkpt><trkpt lat="46.5778772" lon="12.7910262"><ele>838.0</ele><time>2026-03-29T12:10:14.696Z</time></trkpt><trkpt lat="46.5777885" lon="12.7911989"><ele>838.0</ele><time>2026-03-29T12:10:15.704Z</time></trkpt><trkpt lat="46.5777284" lon="12.7914075"><ele>839.6666666666666</ele><time>2026-03-29T12:10:16.7Z</time></trkpt><trkpt lat="46.5776827" lon="12.791627"><ele>841.3333333333333</ele><time>2026-03-29T12:10:17.696Z</time></trkpt><trkpt lat="46.5776487" lon="12.791848"><ele>843.0</ele><time>2026-03-29T12:10:18.703Z</time></trkpt><trkpt lat="46.5776045" lon="12.7920671"><ele>843.0</ele><time>2026-03-29T12:10:19.692Z</time></trkpt><trkpt lat="46.5775282" lon="12.7922734"><ele>843.0</ele><time>2026-03-29T12:10:20.695Z</time></trkpt><trkpt lat="46.5774089" lon="12.7924513"><ele>843.0</ele><time>2026-03-29T12:10:21.69Z</time></trkpt><trkpt lat="46.5772823" lon="12.7926362"><ele>838.0</ele><time>2026-03-29T12:10:22.698Z</time></trkpt><trkpt lat="46.5771518" lon="12.7928301"><ele>833.0</ele><time>2026-03-29T12:10:23.7Z</time></trkpt><trkpt lat="46.577012" lon="12.7930144"><ele>828.0</ele><time>2026-03-29T12:10:24.707Z</time></trkpt><trkpt lat="46.5768729" lon="12.793192"><ele>828.0</ele><time>2026-03-29T12:10:25.701Z</time></trkpt><trkpt lat="46.5767501" lon="12.7933854"><ele>828.0</ele><time>2026-03-29T12:10:26.714Z</time></trkpt><trkpt lat="46.5766263" lon="12.7935696"><ele>828.0</ele><time>2026-03-29T12:10:27.686Z</time></trkpt><trkpt lat="46.5764994" lon="12.7937462"><ele>824.0</ele><time>2026-03-29T12:10:28.692Z</time></trkpt><trkpt lat="46.5763601" lon="12.7939028"><ele>820.0</ele><time>2026-03-29T12:10:29.694Z</time></trkpt><trkpt lat="46.5762283" lon="12.7940691"><ele>816.0</ele><time>2026-03-29T12:10:30.704Z</time></trkpt><trkpt lat="46.5761119" lon="12.7942594"><ele>820.6666666666667</ele><time>2026-03-29T12:10:31.69Z</time></trkpt><trkpt lat="46.5759969" lon="12.7944506"><ele>825.3333333333334</ele><time>2026-03-29T12:10:32.702Z</time></trkpt><trkpt lat="46.5758899" lon="12.7946502"><ele>830.0</ele><time>2026-03-29T12:10:33.693Z</time></trkpt><trkpt lat="46.5757803" lon="12.7948388"><ele>830.0</ele><time>2026-03-29T12:10:34.702Z</time></trkpt><trkpt lat="46.5757161" lon="12.7950867"><ele>830.0</ele><time>2026-03-29T12:10:35.707Z</time></trkpt><trkpt lat="46.5756628" lon="12.7953611"><ele>830.0</ele><time>2026-03-29T12:10:36.714Z</time></trkpt><trkpt lat="46.5755999" lon="12.7956428"><ele>827.3333333333334</ele><time>2026-03-29T12:10:37.716Z</time></trkpt><trkpt lat="46.5755131" lon="12.7959216"><ele>824.6666666666667</ele><time>2026-03-29T12:10:38.712Z</time></trkpt><trkpt lat="46.5754106" lon="12.79619"><ele>822.0</ele><time>2026-03-29T12:10:39.711Z</time></trkpt><trkpt lat="46.575313" lon="12.7964515"><ele>822.0</ele><time>2026-03-29T12:10:40.717Z</time></trkpt><trkpt lat="46.5752069" lon="12.796697"><ele>822.0</ele><time>2026-03-29T12:10:41.712Z</time></trkpt><trkpt lat="46.5751" lon="12.7969273"><ele>822.0</ele><time>2026-03-29T12:10:42.703Z</time></trkpt><trkpt lat="46.5749999" lon="12.7971561"><ele>827.3333333333333</ele><time>2026-03-29T12:10:43.708Z</time></trkpt><trkpt lat="46.5749007" lon="12.7973757"><ele>832.6666666666666</ele><time>2026-03-29T12:10:44.708Z</time></trkpt><trkpt lat="46.574804" lon="12.7975847"><ele>838.0</ele><time>2026-03-29T12:10:45.701Z</time></trkpt><trkpt lat="46.5747142" lon="12.7977975"><ele>844.0</ele><time>2026-03-29T12:10:46.718Z</time></trkpt><trkpt lat="46.5746267" lon="12.7980158"><ele>850.0</ele><time>2026-03-29T12:10:47.724Z</time></trkpt><trkpt lat="46.5745367" lon="12.7982353"><ele>856.0</ele><time>2026-03-29T12:10:48.722Z</time></trkpt><trkpt lat="46.5744384" lon="12.7984512"><ele>844.0</ele><time>2026-03-29T12:10:49.712Z</time></trkpt><trkpt lat="46.5743245" lon="12.798661"><ele>832.0</ele><time>2026-03-29T12:10:50.715Z</time></trkpt><trkpt lat="46.5741984" lon="12.798866"><ele>820.0</ele><time>2026-03-29T12:10:51.721Z</time></trkpt><trkpt lat="46.5740797" lon="12.7990916"><ele>820.0</ele><time>2026-03-29T12:10:52.715Z</time></trkpt><trkpt lat="46.5739404" lon="12.7992982"><ele>820.0</ele><time>2026-03-29T12:10:53.721Z</time></trkpt><trkpt lat="46.5737995" lon="12.7995037"><ele>820.0</ele><time>2026-03-29T12:10:54.707Z</time></trkpt><trkpt lat="46.5736606" lon="12.7996982"><ele>816.6666666666666</ele><time>2026-03-29T12:10:55.707Z</time></trkpt><trkpt lat="46.5735294" lon="12.7998885"><ele>813.3333333333333</ele><time>2026-03-29T12:10:56.717Z</time></trkpt><trkpt lat="46.573406" lon="12.8000819"><ele>810.0</ele><time>2026-03-29T12:10:57.717Z</time></trkpt><trkpt lat="46.5732825" lon="12.8002672"><ele>810.0</ele><time>2026-03-29T12:10:58.729Z</time></trkpt><trkpt lat="46.5731623" lon="12.8004476"><ele>810.0</ele><time>2026-03-29T12:10:59.69Z</time></trkpt><trkpt lat="46.5730461" lon="12.80063"><ele>810.0</ele><time>2026-03-29T12:11:00.712Z</time></trkpt><trkpt lat="46.5729355" lon="12.8008266"><ele>806.3333333333333</ele><time>2026-03-29T12:11:01.695Z</time></trkpt><trkpt lat="46.5728358" lon="12.8010524"><ele>802.6666666666666</ele><time>2026-03-29T12:11:02.721Z</time></trkpt><trkpt lat="46.5727612" lon="12.8013112"><ele>799.0</ele><time>2026-03-29T12:11:03.72Z</time></trkpt><trkpt lat="46.5727064" lon="12.8015789"><ele>803.0</ele><time>2026-03-29T12:11:04.712Z</time></trkpt><trkpt lat="46.5726569" lon="12.8018385"><ele>807.0</ele><time>2026-03-29T12:11:05.72Z</time></trkpt><trkpt lat="46.5725934" lon="12.8020795"><ele>811.0</ele><time>2026-03-29T12:11:06.713Z</time></trkpt><trkpt lat="46.5725528" lon="12.8023282"><ele>811.0</ele><time>2026-03-29T12:11:07.714Z</time></trkpt><trkpt lat="46.572507" lon="12.8025665"><ele>811.0</ele><time>2026-03-29T12:11:08.74Z</time></trkpt><trkpt lat="46.5724774" lon="12.8028147"><ele>811.0</ele><time>2026-03-29T12:11:09.705Z</time></trkpt><trkpt lat="46.5724746" lon="12.8030868"><ele>811.0</ele><time>2026-03-29T12:11:10.713Z</time></trkpt><trkpt lat="46.572515" lon="12.8033702"><ele>811.0</ele><time>2026-03-29T12:11:11.721Z</time></trkpt><trkpt lat="46.5725442" lon="12.8036476"><ele>811.0</ele><time>2026-03-29T12:11:12.705Z</time></trkpt><trkpt lat="46.5725589" lon="12.803931"><ele>810.0</ele><time>2026-03-29T12:11:13.706Z</time></trkpt><trkpt lat="46.5725283" lon="12.8041975"><ele>809.0</ele><time>2026-03-29T12:11:14.711Z</time></trkpt><trkpt lat="46.572474" lon="12.8044473"><ele>808.0</ele><time>2026-03-29T12:11:15.722Z</time></trkpt><trkpt lat="46.5724218" lon="12.8046901"><ele>811.3333333333333</ele><time>2026-03-29T12:11:16.716Z</time></trkpt><trkpt lat="46.5723466" lon="12.8049245"><ele>814.6666666666667</ele><time>2026-03-29T12:11:17.714Z</time></trkpt><trkpt lat="46.572264" lon="12.8051555"><ele>818.0</ele><time>2026-03-29T12:11:18.715Z</time></trkpt><trkpt lat="46.5721811" lon="12.8053756"><ele>814.6666666666667</ele><time>2026-03-29T12:11:19.721Z</time></trkpt><trkpt lat="46.5720991" lon="12.8056001"><ele>811.3333333333333</ele><time>2026-03-29T12:11:20.714Z</time></trkpt><trkpt lat="46.5720318" lon="12.8058417"><ele>808.0</ele><time>2026-03-29T12:11:21.73Z</time></trkpt><trkpt lat="46.5719679" lon="12.8060854"><ele>808.0</ele><time>2026-03-29T12:11:22.708Z</time></trkpt><trkpt lat="46.5719021" lon="12.8063372"><ele>808.0</ele><time>2026-03-29T12:11:23.71Z</time></trkpt><trkpt lat="46.5718399" lon="12.8065898"><ele>808.0</ele><time>2026-03-29T12:11:24.717Z</time></trkpt><trkpt lat="46.5717897" lon="12.8068467"><ele>810.3333333333333</ele><time>2026-03-29T12:11:25.719Z</time></trkpt><trkpt lat="46.5717457" lon="12.8070958"><ele>812.6666666666667</ele><time>2026-03-29T12:11:26.73Z</time></trkpt><trkpt lat="46.5716978" lon="12.8073336"><ele>815.0</ele><time>2026-03-29T12:11:27.717Z</time></trkpt><trkpt lat="46.5716516" lon="12.8075708"><ele>818.6666666666667</ele><time>2026-03-29T12:11:28.717Z</time></trkpt><trkpt lat="46.5716096" lon="12.8078002"><ele>822.3333333333333</ele><time>2026-03-29T12:11:29.723Z</time></trkpt><trkpt lat="46.5715511" lon="12.8080099"><ele>826.0</ele><time>2026-03-29T12:11:30.695Z</time></trkpt><trkpt lat="46.5714899" lon="12.8082165"><ele>826.0</ele><time>2026-03-29T12:11:31.701Z</time></trkpt><trkpt lat="46.5714273" lon="12.8084184"><ele>826.0</ele><time>2026-03-29T12:11:32.72Z</time></trkpt><trkpt lat="46.5713476" lon="12.8085913"><ele>826.0</ele><time>2026-03-29T12:11:33.69Z</time></trkpt><trkpt lat="46.5712827" lon="12.8087708"><ele>826.0</ele><time>2026-03-29T12:11:34.699Z</time></trkpt><trkpt lat="46.5712201" lon="12.8089449"><ele>824.75</ele><time>2026-03-29T12:11:35.677Z</time></trkpt><trkpt lat="46.5711488" lon="12.8090989"><ele>823.5</ele><time>2026-03-29T12:11:36.691Z</time></trkpt><trkpt lat="46.5710551" lon="12.8092232"><ele>822.25</ele><time>2026-03-29T12:11:37.697Z</time></trkpt><trkpt lat="46.5708991" lon="12.8092785"><ele>821.0</ele><time>2026-03-29T12:11:38.698Z</time></trkpt><trkpt lat="46.5707611" lon="12.8093377"><ele>821.0</ele><time>2026-03-29T12:11:39.701Z</time></trkpt><trkpt lat="46.5706509" lon="12.8094162"><ele>821.0</ele><time>2026-03-29T12:11:40.694Z</time></trkpt><trkpt lat="46.5705566" lon="12.8094987"><ele>821.0</ele><time>2026-03-29T12:11:41.699Z</time></trkpt><trkpt lat="46.570473" lon="12.8096035"><ele>821.0</ele><time>2026-03-29T12:11:42.691Z</time></trkpt><trkpt lat="46.5704075" lon="12.8097365"><ele>821.0</ele><time>2026-03-29T12:11:43.709Z</time></trkpt><trkpt lat="46.5703668" lon="12.8098937"><ele>821.0</ele><time>2026-03-29T12:11:44.718Z</time></trkpt><trkpt lat="46.570329" lon="12.8100602"><ele>821.0</ele><time>2026-03-29T12:11:45.689Z</time></trkpt><trkpt lat="46.5703026" lon="12.8102414"><ele>821.0</ele><time>2026-03-29T12:11:46.702Z</time></trkpt><trkpt lat="46.5702851" lon="12.8104311"><ele>813.5</ele><time>2026-03-29T12:11:47.698Z</time></trkpt><trkpt lat="46.5702891" lon="12.8106238"><ele>806.0</ele><time>2026-03-29T12:11:48.691Z</time></trkpt><trkpt lat="46.570297" lon="12.8108144"><ele>798.5</ele><time>2026-03-29T12:11:49.709Z</time></trkpt><trkpt lat="46.5703008" lon="12.8110042"><ele>791.0</ele><time>2026-03-29T12:11:50.709Z</time></trkpt><trkpt lat="46.5703061" lon="12.8111952"><ele>789.75</ele><time>2026-03-29T12:11:51.7Z</time></trkpt><trkpt lat="46.5703081" lon="12.8113894"><ele>788.5</ele><time>2026-03-29T12:11:52.698Z</time></trkpt><trkpt lat="46.5703101" lon="12.8115816"><ele>787.25</ele><time>2026-03-29T12:11:53.701Z</time></trkpt><trkpt lat="46.5703148" lon="12.8117749"><ele>786.0</ele><time>2026-03-29T12:11:54.715Z</time></trkpt><trkpt lat="46.5703142" lon="12.8119737"><ele>779.6666666666666</ele><time>2026-03-29T12:11:55.714Z</time></trkpt><trkpt lat="46.5703235" lon="12.8121761"><ele>773.3333333333333</ele><time>2026-03-29T12:11:56.701Z</time></trkpt><trkpt lat="46.5703482" lon="12.8123831"><ele>767.0</ele><time>2026-03-29T12:11:57.695Z</time></trkpt><trkpt lat="46.5688578" lon="12.8279877"><ele>767.0</ele><time>2026-03-29T12:12:59.605Z</time></trkpt><trkpt lat="46.5688679" lon="12.8281751"><ele>767.0</ele><time>2026-03-29T12:13:00.665Z</time></trkpt><trkpt lat="46.5687843" lon="12.8283536"><ele>767.0</ele><time>2026-03-29T12:13:01.691Z</time></trkpt><trkpt lat="46.5686876" lon="12.8285565"><ele>767.0</ele><time>2026-03-29T12:13:02.693Z</time></trkpt><trkpt lat="46.5685852" lon="12.8287686"><ele>762.6666666666666</ele><time>2026-03-29T12:13:03.723Z</time></trkpt><trkpt lat="46.5684823" lon="12.8289864"><ele>758.3333333333334</ele><time>2026-03-29T12:13:04.708Z</time></trkpt><trkpt lat="46.5683858" lon="12.829203"><ele>754.0</ele><time>2026-03-29T12:13:05.688Z</time></trkpt><trkpt lat="46.5682925" lon="12.8294153"><ele>753.6666666666667</ele><time>2026-03-29T12:13:06.69Z</time></trkpt><trkpt lat="46.5681981" lon="12.8296278"><ele>753.3333333333334</ele><time>2026-03-29T12:13:07.694Z</time></trkpt><trkpt lat="46.5681064" lon="12.8298412"><ele>753.0</ele><time>2026-03-29T12:13:08.696Z</time></trkpt><trkpt lat="46.5680089" lon="12.830041"><ele>751.0</ele><time>2026-03-29T12:13:09.7Z</time></trkpt><trkpt lat="46.5679242" lon="12.8302435"><ele>749.0</ele><time>2026-03-29T12:13:10.714Z</time></trkpt><trkpt lat="46.5678458" lon="12.8304547"><ele>747.0</ele><time>2026-03-29T12:13:11.718Z</time></trkpt><trkpt lat="46.5677614" lon="12.8306702"><ele>750.3333333333334</ele><time>2026-03-29T12:13:12.691Z</time></trkpt><trkpt lat="46.5676749" lon="12.8308933"><ele>753.6666666666667</ele><time>2026-03-29T12:13:13.709Z</time></trkpt><trkpt lat="46.5675911" lon="12.8311224"><ele>757.0</ele><time>2026-03-29T12:13:14.711Z</time></trkpt><trkpt lat="46.5675083" lon="12.8313574"><ele>757.0</ele><time>2026-03-29T12:13:15.697Z</time></trkpt><trkpt lat="46.567423" lon="12.8315919"><ele>757.0</ele><time>2026-03-29T12:13:16.707Z</time></trkpt><trkpt lat="46.5673345" lon="12.8318226"><ele>757.0</ele><time>2026-03-29T12:13:17.722Z</time></trkpt><trkpt lat="46.5672444" lon="12.8320625"><ele>758.3333333333334</ele><time>2026-03-29T12:13:18.708Z</time></trkpt><trkpt lat="46.5671603" lon="12.8323111"><ele>759.6666666666666</ele><time>2026-03-29T12:13:19.724Z</time></trkpt><trkpt lat="46.5670872" lon="12.8325608"><ele>761.0</ele><time>2026-03-29T12:13:20.69Z</time></trkpt><trkpt lat="46.5670202" lon="12.8328089"><ele>761.0</ele><time>2026-03-29T12:13:21.709Z</time></trkpt><trkpt lat="46.5669669" lon="12.8330649"><ele>761.0</ele><time>2026-03-29T12:13:22.705Z</time></trkpt><trkpt lat="46.5669081" lon="12.8333208"><ele>761.0</ele><time>2026-03-29T12:13:23.711Z</time></trkpt><trkpt lat="46.5668536" lon="12.8335739"><ele>757.0</ele><time>2026-03-29T12:13:24.698Z</time></trkpt><trkpt lat="46.566803" lon="12.8338217"><ele>753.0</ele><time>2026-03-29T12:13:25.69Z</time></trkpt><trkpt lat="46.5667512" lon="12.8340661"><ele>749.0</ele><time>2026-03-29T12:13:26.723Z</time></trkpt><trkpt lat="46.5666975" lon="12.8343106"><ele>746.6666666666666</ele><time>2026-03-29T12:13:27.708Z</time></trkpt><trkpt lat="46.566642" lon="12.8345551"><ele>744.3333333333334</ele><time>2026-03-29T12:13:28.711Z</time></trkpt><trkpt lat="46.5665854" lon="12.8347975"><ele>742.0</ele><time>2026-03-29T12:13:29.689Z</time></trkpt><trkpt lat="46.566527" lon="12.8350357"><ele>742.3333333333334</ele><time>2026-03-29T12:13:30.708Z</time></trkpt><trkpt lat="46.5664642" lon="12.8352696"><ele>742.6666666666666</ele><time>2026-03-29T12:13:31.691Z</time></trkpt><trkpt lat="46.5663978" lon="12.8355017"><ele>743.0</ele><time>2026-03-29T12:13:32.714Z</time></trkpt><trkpt lat="46.5663185" lon="12.8357284"><ele>743.0</ele><time>2026-03-29T12:13:33.697Z</time></trkpt><trkpt lat="46.566233" lon="12.8359497"><ele>743.0</ele><time>2026-03-29T12:13:34.697Z</time></trkpt><trkpt lat="46.5661555" lon="12.836181"><ele>743.0</ele><time>2026-03-29T12:13:35.71Z</time></trkpt><trkpt lat="46.566067" lon="12.8364056"><ele>742.6666666666666</ele><time>2026-03-29T12:13:36.729Z</time></trkpt><trkpt lat="46.5659785" lon="12.8366276"><ele>742.3333333333334</ele><time>2026-03-29T12:13:37.712Z</time></trkpt><trkpt lat="46.5659068" lon="12.8368498"><ele>742.0</ele><time>2026-03-29T12:13:38.734Z</time></trkpt><trkpt lat="46.5658496" lon="12.8370845"><ele>742.0</ele><time>2026-03-29T12:13:39.698Z</time></trkpt><trkpt lat="46.5657884" lon="12.8373106"><ele>742.0</ele><time>2026-03-29T12:13:40.718Z</time></trkpt><trkpt lat="46.5657099" lon="12.8375131"><ele>742.0</ele><time>2026-03-29T12:13:41.731Z</time></trkpt><trkpt lat="46.5656266" lon="12.8377012"><ele>740.75</ele><time>2026-03-29T12:13:42.704Z</time></trkpt><trkpt lat="46.5655737" lon="12.837906"><ele>739.5</ele><time>2026-03-29T12:13:43.703Z</time></trkpt><trkpt lat="46.5654539" lon="12.8380393"><ele>738.25</ele><time>2026-03-29T12:13:44.707Z</time></trkpt><trkpt lat="46.5653444" lon="12.8381622"><ele>737.0</ele><time>2026-03-29T12:13:45.704Z</time></trkpt><trkpt lat="46.5652583" lon="12.838304"><ele>740.0</ele><time>2026-03-29T12:13:46.705Z</time></trkpt><trkpt lat="46.5651794" lon="12.8384551"><ele>743.0</ele><time>2026-03-29T12:13:47.701Z</time></trkpt><trkpt lat="46.5651255" lon="12.8386231"><ele>746.0</ele><time>2026-03-29T12:13:48.698Z</time></trkpt><trkpt lat="46.5650788" lon="12.8387872"><ele>749.0</ele><time>2026-03-29T12:13:49.704Z</time></trkpt><trkpt lat="46.5650242" lon="12.8389384"><ele>749.0</ele><time>2026-03-29T12:13:50.697Z</time></trkpt><trkpt lat="46.5649661" lon="12.839083"><ele>749.0</ele><time>2026-03-29T12:13:51.718Z</time></trkpt><trkpt lat="46.5649088" lon="12.8392293"><ele>749.0</ele><time>2026-03-29T12:13:52.688Z</time></trkpt><trkpt lat="46.5648603" lon="12.8393916"><ele>749.0</ele><time>2026-03-29T12:13:53.691Z</time></trkpt><trkpt lat="46.5648021" lon="12.8395612"><ele>741.3333333333333</ele><time>2026-03-29T12:13:54.713Z</time></trkpt><trkpt lat="46.564725" lon="12.8397392"><ele>733.6666666666666</ele><time>2026-03-29T12:13:55.713Z</time></trkpt><trkpt lat="46.5646409" lon="12.8399221"><ele>726.0</ele><time>2026-03-29T12:13:56.702Z</time></trkpt><trkpt lat="46.5645453" lon="12.8401067"><ele>737.6666666666666</ele><time>2026-03-29T12:13:57.7Z</time></trkpt><trkpt lat="46.5644523" lon="12.8403229"><ele>749.3333333333333</ele><time>2026-03-29T12:13:58.717Z</time></trkpt><trkpt lat="46.564373" lon="12.8405594"><ele>761.0</ele><time>2026-03-29T12:13:59.709Z</time></trkpt><trkpt lat="46.5643093" lon="12.8407884"><ele>756.0</ele><time>2026-03-29T12:14:00.713Z</time></trkpt><trkpt lat="46.5642392" lon="12.8409909"><ele>751.0</ele><time>2026-03-29T12:14:01.695Z</time></trkpt><trkpt lat="46.5641742" lon="12.8411778"><ele>746.0</ele><time>2026-03-29T12:14:02.695Z</time></trkpt><trkpt lat="46.5641023" lon="12.8413544"><ele>741.0</ele><time>2026-03-29T12:14:03.717Z</time></trkpt><trkpt lat="46.5640281" lon="12.8415198"><ele>741.0</ele><time>2026-03-29T12:14:04.702Z</time></trkpt><trkpt lat="46.563964" lon="12.8416779"><ele>741.0</ele><time>2026-03-29T12:14:05.706Z</time></trkpt><trkpt lat="46.5638925" lon="12.8418313"><ele>741.0</ele><time>2026-03-29T12:14:06.71Z</time></trkpt><trkpt lat="46.5638196" lon="12.8419889"><ele>741.0</ele><time>2026-03-29T12:14:07.717Z</time></trkpt><trkpt lat="46.5637467" lon="12.8421451"><ele>743.5</ele><time>2026-03-29T12:14:08.699Z</time></trkpt><trkpt lat="46.5636592" lon="12.8422943"><ele>746.0</ele><time>2026-03-29T12:14:09.71Z</time></trkpt><trkpt lat="46.5635639" lon="12.8424441"><ele>748.5</ele><time>2026-03-29T12:14:10.721Z</time></trkpt><trkpt lat="46.5634621" lon="12.8425954"><ele>751.0</ele><time>2026-03-29T12:14:11.709Z</time></trkpt><trkpt lat="46.5633485" lon="12.8427508"><ele>742.6666666666667</ele><time>2026-03-29T12:14:12.714Z</time></trkpt><trkpt lat="46.5632369" lon="12.8429455"><ele>734.3333333333334</ele><time>2026-03-29T12:14:13.721Z</time></trkpt><trkpt lat="46.5631062" lon="12.8431706"><ele>726.0</ele><time>2026-03-29T12:14:14.713Z</time></trkpt><trkpt lat="46.5629601" lon="12.8434144"><ele>724.3333333333334</ele><time>2026-03-29T12:14:15.693Z</time></trkpt><trkpt lat="46.5628391" lon="12.8436148"><ele>722.6666666666667</ele><time>2026-03-29T12:14:16.716Z</time></trkpt><trkpt lat="46.5627537" lon="12.843763"><ele>721.0</ele><time>2026-03-29T12:14:17.707Z</time></trkpt><trkpt lat="46.5626522" lon="12.8438985"><ele>721.0</ele><time>2026-03-29T12:14:18.711Z</time></trkpt><trkpt lat="46.562564" lon="12.8440452"><ele>721.0</ele><time>2026-03-29T12:14:19.721Z</time></trkpt><trkpt lat="46.5624118" lon="12.844138"><ele>721.0</ele><time>2026-03-29T12:14:20.703Z</time></trkpt><trkpt lat="46.5622567" lon="12.8441361"><ele>721.0</ele><time>2026-03-29T12:14:21.699Z</time></trkpt><trkpt lat="46.5621396" lon="12.8441163"><ele>721.0</ele><time>2026-03-29T12:14:22.716Z</time></trkpt><trkpt lat="46.5620358" lon="12.8440936"><ele>721.0</ele><time>2026-03-29T12:14:23.704Z</time></trkpt><trkpt lat="46.5619357" lon="12.8441"><ele>721.0</ele><time>2026-03-29T12:14:24.706Z</time></trkpt><trkpt lat="46.5618334" lon="12.8441696"><ele>721.0</ele><time>2026-03-29T12:14:25.714Z</time></trkpt><trkpt lat="46.5617196" lon="12.8442376"><ele>719.75</ele><time>2026-03-29T12:14:26.703Z</time></trkpt><trkpt lat="46.5616056" lon="12.8443113"><ele>718.5</ele><time>2026-03-29T12:14:27.711Z</time></trkpt><trkpt lat="46.5614872" lon="12.8443705"><ele>717.25</ele><time>2026-03-29T12:14:28.714Z</time></trkpt><trkpt lat="46.5613731" lon="12.8444333"><ele>716.0</ele><time>2026-03-29T12:14:29.708Z</time></trkpt><trkpt lat="46.5612648" lon="12.8444788"><ele>721.5</ele><time>2026-03-29T12:14:30.717Z</time></trkpt><trkpt lat="46.5611565" lon="12.8445054"><ele>727.0</ele><time>2026-03-29T12:14:31.71Z</time></trkpt><trkpt lat="46.5610442" lon="12.8445221"><ele>732.5</ele><time>2026-03-29T12:14:32.709Z</time></trkpt><trkpt lat="46.5609214" lon="12.8445484"><ele>738.0</ele><time>2026-03-29T12:14:33.712Z</time></trkpt><trkpt lat="46.5607848" lon="12.8445871"><ele>738.0</ele><time>2026-03-29T12:14:34.702Z</time></trkpt><trkpt lat="46.5606581" lon="12.8447211"><ele>738.0</ele><time>2026-03-29T12:14:35.708Z</time></trkpt><trkpt lat="46.560525" lon="12.8449031"><ele>738.0</ele><time>2026-03-29T12:14:36.703Z</time></trkpt><trkpt lat="46.5603818" lon="12.8450858"><ele>741.0</ele><time>2026-03-29T12:14:37.712Z</time></trkpt><trkpt lat="46.5602423" lon="12.8452503"><ele>744.0</ele><time>2026-03-29T12:14:38.713Z</time></trkpt><trkpt lat="46.5601195" lon="12.8454033"><ele>747.0</ele><time>2026-03-29T12:14:39.725Z</time></trkpt><trkpt lat="46.559991" lon="12.8455483"><ele>747.0</ele><time>2026-03-29T12:14:40.72Z</time></trkpt><trkpt lat="46.5598566" lon="12.8457362"><ele>747.0</ele><time>2026-03-29T12:14:41.707Z</time></trkpt><trkpt lat="46.5597322" lon="12.8459548"><ele>747.0</ele><time>2026-03-29T12:14:42.708Z</time></trkpt><trkpt lat="46.5596206" lon="12.8461539"><ele>756.3333333333333</ele><time>2026-03-29T12:14:43.719Z</time></trkpt><trkpt lat="46.5595315" lon="12.8463484"><ele>765.6666666666666</ele><time>2026-03-29T12:14:44.687Z</time></trkpt><trkpt lat="46.5594682" lon="12.8465518"><ele>775.0</ele><time>2026-03-29T12:14:45.706Z</time></trkpt><trkpt lat="46.559385" lon="12.8467137"><ele>767.5</ele><time>2026-03-29T12:14:46.703Z</time></trkpt><trkpt lat="46.5592977" lon="12.8468475"><ele>760.0</ele><time>2026-03-29T12:14:47.703Z</time></trkpt><trkpt lat="46.5592141" lon="12.84698"><ele>752.5</ele><time>2026-03-29T12:14:48.693Z</time></trkpt><trkpt lat="46.5591377" lon="12.8471285"><ele>745.0</ele><time>2026-03-29T12:14:49.703Z</time></trkpt><trkpt lat="46.5590686" lon="12.8473047"><ele>745.0</ele><time>2026-03-29T12:14:50.711Z</time></trkpt><trkpt lat="46.5589367" lon="12.8474504"><ele>745.0</ele><time>2026-03-29T12:14:51.717Z</time></trkpt><trkpt lat="46.558803" lon="12.8475892"><ele>745.0</ele><time>2026-03-29T12:14:52.713Z</time></trkpt><trkpt lat="46.5586382" lon="12.8477277"><ele>744.0</ele><time>2026-03-29T12:14:53.714Z</time></trkpt><trkpt lat="46.5584595" lon="12.8479345"><ele>743.0</ele><time>2026-03-29T12:14:54.704Z</time></trkpt><trkpt lat="46.5582643" lon="12.8481148"><ele>743.0</ele><time>2026-03-29T12:14:55.706Z</time></trkpt><trkpt lat="46.5580784" lon="12.8482651"><ele>743.0</ele><time>2026-03-29T12:14:56.72Z</time></trkpt><trkpt lat="46.5579027" lon="12.8483901"><ele>743.0</ele><time>2026-03-29T12:14:57.712Z</time></trkpt><trkpt lat="46.5577108" lon="12.8484682"><ele>741.6666666666666</ele><time>2026-03-29T12:14:58.715Z</time></trkpt><trkpt lat="46.5574981" lon="12.8485266"><ele>740.3333333333334</ele><time>2026-03-29T12:14:59.716Z</time></trkpt><trkpt lat="46.5572806" lon="12.8486218"><ele>739.0</ele><time>2026-03-29T12:15:00.699Z</time></trkpt><trkpt lat="46.5570704" lon="12.8487032"><ele>740.25</ele><time>2026-03-29T12:15:01.705Z</time></trkpt><trkpt lat="46.5569144" lon="12.8488409"><ele>741.5</ele><time>2026-03-29T12:15:02.711Z</time></trkpt><trkpt lat="46.5567936" lon="12.8489611"><ele>742.75</ele><time>2026-03-29T12:15:03.716Z</time></trkpt><trkpt lat="46.5566949" lon="12.8490426"><ele>744.0</ele><time>2026-03-29T12:15:04.701Z</time></trkpt><trkpt lat="46.5565497" lon="12.8491373"><ele>744.0</ele><time>2026-03-29T12:15:05.707Z</time></trkpt><trkpt lat="46.5564316" lon="12.8491259"><ele>744.0</ele><time>2026-03-29T12:15:06.704Z</time></trkpt><trkpt lat="46.5563148" lon="12.8490608"><ele>744.0</ele><time>2026-03-29T12:15:07.693Z</time></trkpt><trkpt lat="46.5561725" lon="12.8489651"><ele>744.0</ele><time>2026-03-29T12:15:08.718Z</time></trkpt><trkpt lat="46.5560164" lon="12.8489017"><ele>744.0</ele><time>2026-03-29T12:15:09.718Z</time></trkpt><trkpt lat="46.5558737" lon="12.848857"><ele>744.0</ele><time>2026-03-29T12:15:10.714Z</time></trkpt><trkpt lat="46.555743" lon="12.8488335"><ele>744.0</ele><time>2026-03-29T12:15:11.693Z</time></trkpt><trkpt lat="46.5556137" lon="12.8488266"><ele>744.0</ele><time>2026-03-29T12:15:12.704Z</time></trkpt><trkpt lat="46.55548" lon="12.8488728"><ele>746.75</ele><time>2026-03-29T12:15:13.707Z</time></trkpt><trkpt lat="46.5553467" lon="12.8489592"><ele>749.5</ele><time>2026-03-29T12:15:14.697Z</time></trkpt><trkpt lat="46.555224" lon="12.8490561"><ele>752.25</ele><time>2026-03-29T12:15:15.716Z</time></trkpt><trkpt lat="46.5551094" lon="12.8490961"><ele>755.0</ele><time>2026-03-29T12:15:16.702Z</time></trkpt><trkpt lat="46.5549864" lon="12.849099"><ele>755.0</ele><time>2026-03-29T12:15:17.693Z</time></trkpt><trkpt lat="46.5548611" lon="12.8491185"><ele>755.0</ele><time>2026-03-29T12:15:18.729Z</time></trkpt><trkpt lat="46.5547322" lon="12.8491367"><ele>755.0</ele><time>2026-03-29T12:15:19.713Z</time></trkpt><trkpt lat="46.5546084" lon="12.8492115"><ele>755.0</ele><time>2026-03-29T12:15:20.711Z</time></trkpt><trkpt lat="46.5544839" lon="12.8493157"><ele>753.5</ele><time>2026-03-29T12:15:21.708Z</time></trkpt><trkpt lat="46.5543618" lon="12.8494219"><ele>752.0</ele><time>2026-03-29T12:15:22.706Z</time></trkpt><trkpt lat="46.5542299" lon="12.8495061"><ele>750.5</ele><time>2026-03-29T12:15:23.706Z</time></trkpt><trkpt lat="46.5541036" lon="12.8495991"><ele>749.0</ele><time>2026-03-29T12:15:24.699Z</time></trkpt><trkpt lat="46.5539788" lon="12.8496904"><ele>749.0</ele><time>2026-03-29T12:15:25.707Z</time></trkpt><trkpt lat="46.5538678" lon="12.8497973"><ele>749.0</ele><time>2026-03-29T12:15:26.725Z</time></trkpt><trkpt lat="46.5537562" lon="12.8498872"><ele>749.0</ele><time>2026-03-29T12:15:27.699Z</time></trkpt><trkpt lat="46.5536526" lon="12.849993"><ele>749.0</ele><time>2026-03-29T12:15:28.694Z</time></trkpt><trkpt lat="46.5535615" lon="12.8500829"><ele>750.5</ele><time>2026-03-29T12:15:29.719Z</time></trkpt><trkpt lat="46.5534626" lon="12.8501993"><ele>752.0</ele><time>2026-03-29T12:15:30.701Z</time></trkpt><trkpt lat="46.5533889" lon="12.8502924"><ele>753.5</ele><time>2026-03-29T12:15:31.705Z</time></trkpt><trkpt lat="46.5533295" lon="12.8504122"><ele>755.0</ele><time>2026-03-29T12:15:32.718Z</time></trkpt><trkpt lat="46.5532613" lon="12.8505737"><ele>755.0</ele><time>2026-03-29T12:15:33.699Z</time></trkpt><trkpt lat="46.5531979" lon="12.8507111"><ele>755.0</ele><time>2026-03-29T12:15:34.71Z</time></trkpt><trkpt lat="46.5531365" lon="12.850829"><ele>755.0</ele><time>2026-03-29T12:15:35.711Z</time></trkpt><trkpt lat="46.5530923" lon="12.8509359"><ele>755.0</ele><time>2026-03-29T12:15:36.699Z</time></trkpt><trkpt lat="46.5530437" lon="12.8510293"><ele>755.0</ele><time>2026-03-29T12:15:37.711Z</time></trkpt><trkpt lat="46.5529832" lon="12.8511118"><ele>755.2</ele><time>2026-03-29T12:15:38.719Z</time></trkpt><trkpt lat="46.5529303" lon="12.8512084"><ele>755.4</ele><time>2026-03-29T12:15:39.705Z</time></trkpt><trkpt lat="46.5528678" lon="12.8512917"><ele>755.5999999999999</ele><time>2026-03-29T12:15:40.706Z</time></trkpt><trkpt lat="46.5527908" lon="12.8513734"><ele>755.8</ele><time>2026-03-29T12:15:41.712Z</time></trkpt><trkpt lat="46.5527036" lon="12.8514576"><ele>756.0</ele><time>2026-03-29T12:15:42.703Z</time></trkpt><trkpt lat="46.5525956" lon="12.8515324"><ele>755.25</ele><time>2026-03-29T12:15:43.712Z</time></trkpt><trkpt lat="46.552453" lon="12.8516013"><ele>754.5</ele><time>2026-03-29T12:15:44.71Z</time></trkpt><trkpt lat="46.552319" lon="12.8517036"><ele>753.75</ele><time>2026-03-29T12:15:45.72Z</time></trkpt><trkpt lat="46.5521864" lon="12.8517974"><ele>753.0</ele><time>2026-03-29T12:15:46.7Z</time></trkpt><trkpt lat="46.5520446" lon="12.8518811"><ele>752.75</ele><time>2026-03-29T12:15:47.694Z</time></trkpt><trkpt lat="46.5519138" lon="12.8519789"><ele>752.5</ele><time>2026-03-29T12:15:48.727Z</time></trkpt><trkpt lat="46.5517981" lon="12.8520921"><ele>752.25</ele><time>2026-03-29T12:15:49.71Z</time></trkpt><trkpt lat="46.5516736" lon="12.8521964"><ele>752.0</ele><time>2026-03-29T12:15:50.706Z</time></trkpt><trkpt lat="46.5515528" lon="12.8523192"><ele>752.0</ele><time>2026-03-29T12:15:51.709Z</time></trkpt><trkpt lat="46.5514357" lon="12.8524477"><ele>752.0</ele><time>2026-03-29T12:15:52.703Z</time></trkpt><trkpt lat="46.551319" lon="12.8525784"><ele>752.0</ele><time>2026-03-29T12:15:53.71Z</time></trkpt><trkpt lat="46.5512002" lon="12.8527037"><ele>752.0</ele><time>2026-03-29T12:15:54.709Z</time></trkpt><trkpt lat="46.5510957" lon="12.8528488"><ele>751.75</ele><time>2026-03-29T12:15:55.718Z</time></trkpt><trkpt lat="46.5510011" lon="12.8529954"><ele>751.5</ele><time>2026-03-29T12:15:56.696Z</time></trkpt><trkpt lat="46.5508984" lon="12.8531191"><ele>751.25</ele><time>2026-03-29T12:15:57.713Z</time></trkpt><trkpt lat="46.5508054" lon="12.853253"><ele>751.0</ele><time>2026-03-29T12:15:58.712Z</time></trkpt><trkpt lat="46.5507221" lon="12.8533904"><ele>751.75</ele><time>2026-03-29T12:15:59.709Z</time></trkpt><trkpt lat="46.5506318" lon="12.8535032"><ele>752.5</ele><time>2026-03-29T12:16:00.714Z</time></trkpt><trkpt lat="46.550541" lon="12.8536007"><ele>753.25</ele><time>2026-03-29T12:16:01.716Z</time></trkpt><trkpt lat="46.5504463" lon="12.8536943"><ele>754.0</ele><time>2026-03-29T12:16:02.709Z</time></trkpt><trkpt lat="46.5503398" lon="12.8537535"><ele>754.0</ele><time>2026-03-29T12:16:03.727Z</time></trkpt><trkpt lat="46.5502382" lon="12.8538115"><ele>754.0</ele><time>2026-03-29T12:16:04.713Z</time></trkpt><trkpt lat="46.5501366" lon="12.8538563"><ele>754.0</ele><time>2026-03-29T12:16:05.717Z</time></trkpt><trkpt lat="46.5500393" lon="12.8538873"><ele>754.0</ele><time>2026-03-29T12:16:06.703Z</time></trkpt><trkpt lat="46.5499431" lon="12.853927"><ele>754.0</ele><time>2026-03-29T12:16:07.702Z</time></trkpt><trkpt lat="46.549847" lon="12.853962"><ele>754.0</ele><time>2026-03-29T12:16:08.705Z</time></trkpt><trkpt lat="46.5497576" lon="12.854011"><ele>754.0</ele><time>2026-03-29T12:16:09.708Z</time></trkpt><trkpt lat="46.5496716" lon="12.8540427"><ele>754.0</ele><time>2026-03-29T12:16:10.712Z</time></trkpt><trkpt lat="46.5495874" lon="12.8540619"><ele>754.0</ele><time>2026-03-29T12:16:11.703Z</time></trkpt><trkpt lat="46.5495071" lon="12.85407"><ele>754.0</ele><time>2026-03-29T12:16:12.703Z</time></trkpt><trkpt lat="46.5494325" lon="12.8540841"><ele>754.0</ele><time>2026-03-29T12:16:13.721Z</time></trkpt><trkpt lat="46.5493607" lon="12.8541022"><ele>754.3333333333334</ele><time>2026-03-29T12:16:14.713Z</time></trkpt><trkpt lat="46.5492888" lon="12.8541301"><ele>754.6666666666667</ele><time>2026-03-29T12:16:15.691Z</time></trkpt><trkpt lat="46.5492137" lon="12.8541685"><ele>755.0</ele><time>2026-03-29T12:16:16.714Z</time></trkpt><trkpt lat="46.5491346" lon="12.8542156"><ele>755.3333333333334</ele><time>2026-03-29T12:16:17.717Z</time></trkpt><trkpt lat="46.5490505" lon="12.8542611"><ele>755.6666666666666</ele><time>2026-03-29T12:16:18.724Z</time></trkpt><trkpt lat="46.5489562" lon="12.8542782"><ele>756.0</ele><time>2026-03-29T12:16:19.714Z</time></trkpt><trkpt lat="46.5488807" lon="12.8543389"><ele>756.1666666666666</ele><time>2026-03-29T12:16:20.705Z</time></trkpt><trkpt lat="46.5488047" lon="12.8543948"><ele>756.3333333333334</ele><time>2026-03-29T12:16:21.706Z</time></trkpt><trkpt lat="46.5487295" lon="12.8544541"><ele>756.5</ele><time>2026-03-29T12:16:22.692Z</time></trkpt><trkpt lat="46.5486612" lon="12.8545218"><ele>756.6666666666667</ele><time>2026-03-29T12:16:23.72Z</time></trkpt><trkpt lat="46.5485928" lon="12.8545759"><ele>756.8333333333334</ele><time>2026-03-29T12:16:24.695Z</time></trkpt><trkpt lat="46.5485326" lon="12.8546582"><ele>757.0</ele><time>2026-03-29T12:16:25.715Z</time></trkpt><trkpt lat="46.5484585" lon="12.8547113"><ele>757.0</ele><time>2026-03-29T12:16:26.704Z</time></trkpt><trkpt lat="46.5483674" lon="12.8547306"><ele>757.0</ele><time>2026-03-29T12:16:27.697Z</time></trkpt><trkpt lat="46.5482742" lon="12.8547648"><ele>757.0</ele><time>2026-03-29T12:16:28.706Z</time></trkpt><trkpt lat="46.5481758" lon="12.8548149"><ele>757.0</ele><time>2026-03-29T12:16:29.713Z</time></trkpt><trkpt lat="46.5480737" lon="12.8548788"><ele>757.0</ele><time>2026-03-29T12:16:30.715Z</time></trkpt><trkpt lat="46.5479809" lon="12.8549722"><ele>757.0</ele><time>2026-03-29T12:16:31.714Z</time></trkpt><trkpt lat="46.5478778" lon="12.8550297"><ele>757.0</ele><time>2026-03-29T12:16:32.727Z</time></trkpt><trkpt lat="46.5477835" lon="12.855102"><ele>757.0</ele><time>2026-03-29T12:16:33.706Z</time></trkpt><trkpt lat="46.5476882" lon="12.8551657"><ele>757.0</ele><time>2026-03-29T12:16:34.702Z</time></trkpt><trkpt lat="46.5475964" lon="12.8552311"><ele>757.0</ele><time>2026-03-29T12:16:35.719Z</time></trkpt><trkpt lat="46.5475192" lon="12.8553121"><ele>758.0</ele><time>2026-03-29T12:16:36.702Z</time></trkpt><trkpt lat="46.5474548" lon="12.8553989"><ele>759.0</ele><time>2026-03-29T12:16:37.712Z</time></trkpt><trkpt lat="46.5473999" lon="12.8555011"><ele>760.0</ele><time>2026-03-29T12:16:38.717Z</time></trkpt><trkpt lat="46.5473553" lon="12.8556201"><ele>761.0</ele><time>2026-03-29T12:16:39.718Z</time></trkpt><trkpt lat="46.5473165" lon="12.8557425"><ele>762.0</ele><time>2026-03-29T12:16:40.699Z</time></trkpt><trkpt lat="46.5472621" lon="12.8558481"><ele>762.0</ele><time>2026-03-29T12:16:41.697Z</time></trkpt><trkpt lat="46.5471917" lon="12.85592"><ele>762.0</ele><time>2026-03-29T12:16:42.716Z</time></trkpt><trkpt lat="46.547112" lon="12.855995"><ele>762.0</ele><time>2026-03-29T12:16:43.714Z</time></trkpt><trkpt lat="46.5470144" lon="12.8560645"><ele>762.0</ele><time>2026-03-29T12:16:44.705Z</time></trkpt><trkpt lat="46.5469276" lon="12.8561539"><ele>762.0</ele><time>2026-03-29T12:16:45.713Z</time></trkpt><trkpt lat="46.5468545" lon="12.8562622"><ele>761.6</ele><time>2026-03-29T12:16:46.701Z</time></trkpt><trkpt lat="46.546782" lon="12.8563669"><ele>761.2</ele><time>2026-03-29T12:16:47.711Z</time></trkpt><trkpt lat="46.5467194" lon="12.856481"><ele>760.8</ele><time>2026-03-29T12:16:48.711Z</time></trkpt><trkpt lat="46.5466698" lon="12.8566102"><ele>760.4</ele><time>2026-03-29T12:16:49.704Z</time></trkpt><trkpt lat="46.5466193" lon="12.8567349"><ele>760.0</ele><time>2026-03-29T12:16:50.71Z</time></trkpt><trkpt lat="46.5465851" lon="12.8568749"><ele>760.6</ele><time>2026-03-29T12:16:51.692Z</time></trkpt><trkpt lat="46.5465545" lon="12.8570307"><ele>761.2</ele><time>2026-03-29T12:16:52.712Z</time></trkpt><trkpt lat="46.5465407" lon="12.857196"><ele>761.8</ele><time>2026-03-29T12:16:53.701Z</time></trkpt><trkpt lat="46.546528" lon="12.8573565"><ele>762.4</ele><time>2026-03-29T12:16:54.699Z</time></trkpt><trkpt lat="46.5465077" lon="12.8575094"><ele>763.0</ele><time>2026-03-29T12:16:55.713Z</time></trkpt><trkpt lat="46.5464959" lon="12.8576579"><ele>763.0</ele><time>2026-03-29T12:16:56.711Z</time></trkpt><trkpt lat="46.5464808" lon="12.8578043"><ele>763.0</ele><time>2026-03-29T12:16:57.711Z</time></trkpt><trkpt lat="46.5464636" lon="12.8579547"><ele>763.0</ele><time>2026-03-29T12:16:58.733Z</time></trkpt><trkpt lat="46.5464316" lon="12.8581058"><ele>763.0</ele><time>2026-03-29T12:16:59.745Z</time></trkpt><trkpt lat="46.5463812" lon="12.8582673"><ele>763.0</ele><time>2026-03-29T12:17:00.723Z</time></trkpt><trkpt lat="46.5463199" lon="12.8584395"><ele>765.0</ele><time>2026-03-29T12:17:01.729Z</time></trkpt><trkpt lat="46.5462491" lon="12.85862"><ele>767.0</ele><time>2026-03-29T12:17:02.705Z</time></trkpt><trkpt lat="46.5461589" lon="12.8587897"><ele>769.0</ele><time>2026-03-29T12:17:03.706Z</time></trkpt><trkpt lat="46.5460862" lon="12.8589663"><ele>771.0</ele><time>2026-03-29T12:17:04.692Z</time></trkpt><trkpt lat="46.5460092" lon="12.8591381"><ele>767.0</ele><time>2026-03-29T12:17:05.715Z</time></trkpt><trkpt lat="46.5459319" lon="12.8593061"><ele>763.0</ele><time>2026-03-29T12:17:06.708Z</time></trkpt><trkpt lat="46.5458626" lon="12.8594711"><ele>759.0</ele><time>2026-03-29T12:17:07.709Z</time></trkpt><trkpt lat="46.5457899" lon="12.8596349"><ele>755.0</ele><time>2026-03-29T12:17:08.689Z</time></trkpt><trkpt lat="46.5456792" lon="12.8597697"><ele>755.0</ele><time>2026-03-29T12:17:09.72Z</time></trkpt><trkpt lat="46.5455575" lon="12.8599017"><ele>755.0</ele><time>2026-03-29T12:17:10.712Z</time></trkpt><trkpt lat="46.5454315" lon="12.8600306"><ele>755.0</ele><time>2026-03-29T12:17:11.71Z</time></trkpt><trkpt lat="46.5452903" lon="12.8601432"><ele>754.6666666666666</ele><time>2026-03-29T12:17:12.714Z</time></trkpt><trkpt lat="46.545152" lon="12.860269"><ele>754.3333333333334</ele><time>2026-03-29T12:17:13.702Z</time></trkpt><trkpt lat="46.5450184" lon="12.8603932"><ele>754.0</ele><time>2026-03-29T12:17:14.711Z</time></trkpt><trkpt lat="46.5448841" lon="12.8605057"><ele>754.0</ele><time>2026-03-29T12:17:15.726Z</time></trkpt><trkpt lat="46.5447486" lon="12.8606158"><ele>754.0</ele><time>2026-03-29T12:17:16.71Z</time></trkpt><trkpt lat="46.5446326" lon="12.860756"><ele>754.0</ele><time>2026-03-29T12:17:17.727Z</time></trkpt><trkpt lat="46.5445352" lon="12.8609134"><ele>752.2</ele><time>2026-03-29T12:17:18.703Z</time></trkpt><trkpt lat="46.5444387" lon="12.8610599"><ele>750.4000000000001</ele><time>2026-03-29T12:17:19.715Z</time></trkpt><trkpt lat="46.5443567" lon="12.8611957"><ele>748.6</ele><time>2026-03-29T12:17:20.718Z</time></trkpt><trkpt lat="46.5442963" lon="12.8613083"><ele>746.8</ele><time>2026-03-29T12:17:21.729Z</time></trkpt><trkpt lat="46.5442257" lon="12.8613733"><ele>745.0</ele><time>2026-03-29T12:17:22.7Z</time></trkpt><trkpt lat="46.5441621" lon="12.8614396"><ele>745.0</ele><time>2026-03-29T12:17:23.705Z</time></trkpt><trkpt lat="46.5440558" lon="12.8614673"><ele>745.0</ele><time>2026-03-29T12:17:24.697Z</time></trkpt><trkpt lat="46.5439346" lon="12.8614327"><ele>745.0</ele><time>2026-03-29T12:17:25.708Z</time></trkpt><trkpt lat="46.5438138" lon="12.8613876"><ele>745.0</ele><time>2026-03-29T12:17:26.703Z</time></trkpt><trkpt lat="46.5436833" lon="12.8613534"><ele>746.6666666666667</ele><time>2026-03-29T12:17:27.701Z</time></trkpt><trkpt lat="46.5435395" lon="12.861329"><ele>748.3333333333334</ele><time>2026-03-29T12:17:28.693Z</time></trkpt><trkpt lat="46.5433887" lon="12.8613848"><ele>750.0</ele><time>2026-03-29T12:17:29.715Z</time></trkpt><trkpt lat="46.5432336" lon="12.8614602"><ele>750.0</ele><time>2026-03-29T12:17:30.717Z</time></trkpt><trkpt lat="46.543077" lon="12.8615467"><ele>750.0</ele><time>2026-03-29T12:17:31.702Z</time></trkpt><trkpt lat="46.5429145" lon="12.8616476"><ele>750.0</ele><time>2026-03-29T12:17:32.706Z</time></trkpt><trkpt lat="46.5427607" lon="12.8617624"><ele>745.3333333333334</ele><time>2026-03-29T12:17:33.692Z</time></trkpt><trkpt lat="46.542629" lon="12.8618942"><ele>740.6666666666667</ele><time>2026-03-29T12:17:34.694Z</time></trkpt><trkpt lat="46.5424986" lon="12.8620262"><ele>736.0</ele><time>2026-03-29T12:17:35.704Z</time></trkpt><trkpt lat="46.5423686" lon="12.8621614"><ele>736.0</ele><time>2026-03-29T12:17:36.706Z</time></trkpt><trkpt lat="46.5422428" lon="12.8622937"><ele>736.0</ele><time>2026-03-29T12:17:37.711Z</time></trkpt><trkpt lat="46.5421175" lon="12.8624231"><ele>736.0</ele><time>2026-03-29T12:17:38.712Z</time></trkpt><trkpt lat="46.5419923" lon="12.8625563"><ele>734.0</ele><time>2026-03-29T12:17:39.696Z</time></trkpt><trkpt lat="46.5418579" lon="12.862684"><ele>732.0</ele><time>2026-03-29T12:17:40.708Z</time></trkpt><trkpt lat="46.5417214" lon="12.8628218"><ele>730.0</ele><time>2026-03-29T12:17:41.717Z</time></trkpt><trkpt lat="46.5415759" lon="12.8629832"><ele>730.0</ele><time>2026-03-29T12:17:42.717Z</time></trkpt><trkpt lat="46.541398" lon="12.8631761"><ele>730.0</ele><time>2026-03-29T12:17:43.717Z</time></trkpt><trkpt lat="46.5412086" lon="12.863406"><ele>731.0</ele><time>2026-03-29T12:17:44.732Z</time></trkpt><trkpt lat="46.5410297" lon="12.8636414"><ele>732.0</ele><time>2026-03-29T12:17:45.711Z</time></trkpt><trkpt lat="46.5408679" lon="12.8638797"><ele>732.0</ele><time>2026-03-29T12:17:46.719Z</time></trkpt><trkpt lat="46.5407018" lon="12.8640843"><ele>732.0</ele><time>2026-03-29T12:17:47.701Z</time></trkpt><trkpt lat="46.54053" lon="12.8642539"><ele>732.0</ele><time>2026-03-29T12:17:48.704Z</time></trkpt><trkpt lat="46.5403779" lon="12.8644172"><ele>729.0</ele><time>2026-03-29T12:17:49.728Z</time></trkpt><trkpt lat="46.5402252" lon="12.8645281"><ele>726.0</ele><time>2026-03-29T12:17:50.707Z</time></trkpt><trkpt lat="46.5400728" lon="12.8646153"><ele>723.0</ele><time>2026-03-29T12:17:51.705Z</time></trkpt><trkpt lat="46.5399129" lon="12.8646649"><ele>723.0</ele><time>2026-03-29T12:17:52.703Z</time></trkpt><trkpt lat="46.5397453" lon="12.8647278"><ele>723.0</ele><time>2026-03-29T12:17:53.7Z</time></trkpt><trkpt lat="46.5395507" lon="12.8647601"><ele>723.0</ele><time>2026-03-29T12:17:54.714Z</time></trkpt><trkpt lat="46.5393389" lon="12.8648073"><ele>723.0</ele><time>2026-03-29T12:17:55.707Z</time></trkpt><trkpt lat="46.5391418" lon="12.8648486"><ele>723.0</ele><time>2026-03-29T12:17:56.702Z</time></trkpt><trkpt lat="46.5389521" lon="12.8648965"><ele>723.0</ele><time>2026-03-29T12:17:57.709Z</time></trkpt><trkpt lat="46.5387704" lon="12.8649373"><ele>722.6666666666666</ele><time>2026-03-29T12:17:58.709Z</time></trkpt><trkpt lat="46.5385882" lon="12.8649802"><ele>722.3333333333333</ele><time>2026-03-29T12:17:59.707Z</time></trkpt><trkpt lat="46.5384147" lon="12.8650241"><ele>722.0</ele><time>2026-03-29T12:18:00.716Z</time></trkpt><trkpt lat="46.5382553" lon="12.8650643"><ele>722.0</ele><time>2026-03-29T12:18:01.714Z</time></trkpt><trkpt lat="46.538117" lon="12.8650948"><ele>722.0</ele><time>2026-03-29T12:18:02.694Z</time></trkpt><trkpt lat="46.5380002" lon="12.8650986"><ele>722.0</ele><time>2026-03-29T12:18:03.703Z</time></trkpt><trkpt lat="46.5378991" lon="12.8651009"><ele>722.0</ele><time>2026-03-29T12:18:04.7Z</time></trkpt><trkpt lat="46.5378102" lon="12.8650318"><ele>717.8</ele><time>2026-03-29T12:18:05.714Z</time></trkpt><trkpt lat="46.5377407" lon="12.8649264"><ele>713.6</ele><time>2026-03-29T12:18:06.698Z</time></trkpt><trkpt lat="46.5377057" lon="12.8647858"><ele>709.4</ele><time>2026-03-29T12:18:07.706Z</time></trkpt><trkpt lat="46.5376978" lon="12.8646278"><ele>705.1999999999999</ele><time>2026-03-29T12:18:08.703Z</time></trkpt><trkpt lat="46.5377335" lon="12.8644507"><ele>701.0</ele><time>2026-03-29T12:18:09.694Z</time></trkpt><trkpt lat="46.5377689" lon="12.8642687"><ele>701.0</ele><time>2026-03-29T12:18:10.726Z</time></trkpt><trkpt lat="46.5377971" lon="12.8640878"><ele>701.0</ele><time>2026-03-29T12:18:11.717Z</time></trkpt><trkpt lat="46.5378312" lon="12.863904"><ele>701.0</ele><time>2026-03-29T12:18:12.689Z</time></trkpt><trkpt lat="46.5378297" lon="12.8636975"><ele>701.0</ele><time>2026-03-29T12:18:13.711Z</time></trkpt><trkpt lat="46.5378183" lon="12.8634834"><ele>703.0</ele><time>2026-03-29T12:18:14.702Z</time></trkpt><trkpt lat="46.5377722" lon="12.8632684"><ele>705.0</ele><time>2026-03-29T12:18:15.708Z</time></trkpt><trkpt lat="46.5377159" lon="12.8630618"><ele>707.0</ele><time>2026-03-29T12:18:16.715Z</time></trkpt><trkpt lat="46.5376382" lon="12.8628702"><ele>707.0</ele><time>2026-03-29T12:18:17.709Z</time></trkpt><trkpt lat="46.5375482" lon="12.8627033"><ele>707.0</ele><time>2026-03-29T12:18:18.708Z</time></trkpt><trkpt lat="46.5374652" lon="12.8625498"><ele>707.0</ele><time>2026-03-29T12:18:19.713Z</time></trkpt><trkpt lat="46.5373827" lon="12.862429"><ele>707.0</ele><time>2026-03-29T12:18:20.719Z</time></trkpt><trkpt lat="46.537297" lon="12.86236"><ele>707.6</ele><time>2026-03-29T12:18:21.731Z</time></trkpt><trkpt lat="46.5372087" lon="12.8623552"><ele>708.2</ele><time>2026-03-29T12:18:22.724Z</time></trkpt><trkpt lat="46.5371309" lon="12.8624245"><ele>708.8</ele><time>2026-03-29T12:18:23.719Z</time></trkpt><trkpt lat="46.5370677" lon="12.8625342"><ele>709.4</ele><time>2026-03-29T12:18:24.703Z</time></trkpt><trkpt lat="46.5370146" lon="12.8626735"><ele>710.0</ele><time>2026-03-29T12:18:25.709Z</time></trkpt><trkpt lat="46.5369679" lon="12.8628318"><ele>710.0</ele><time>2026-03-29T12:18:26.708Z</time></trkpt><trkpt lat="46.5368984" lon="12.8629842"><ele>710.0</ele><time>2026-03-29T12:18:27.716Z</time></trkpt><trkpt lat="46.5368536" lon="12.8631428"><ele>710.0</ele><time>2026-03-29T12:18:28.712Z</time></trkpt><trkpt lat="46.5368364" lon="12.8632983"><ele>710.0</ele><time>2026-03-29T12:18:29.704Z</time></trkpt><trkpt lat="46.5368125" lon="12.8634304"><ele>710.0</ele><time>2026-03-29T12:18:30.719Z</time></trkpt><trkpt lat="46.5367712" lon="12.8635468"><ele>704.5</ele><time>2026-03-29T12:18:31.714Z</time></trkpt><trkpt lat="46.5366907" lon="12.8636347"><ele>699.0</ele><time>2026-03-29T12:18:32.704Z</time></trkpt><trkpt lat="46.5365819" lon="12.8636836"><ele>693.5</ele><time>2026-03-29T12:18:33.704Z</time></trkpt><trkpt lat="46.5364568" lon="12.8636508"><ele>688.0</ele><time>2026-03-29T12:18:34.697Z</time></trkpt><trkpt lat="46.5363348" lon="12.8635585"><ele>688.25</ele><time>2026-03-29T12:18:35.701Z</time></trkpt><trkpt lat="46.5362057" lon="12.86349"><ele>688.5</ele><time>2026-03-29T12:18:36.699Z</time></trkpt><trkpt lat="46.5360989" lon="12.8634009"><ele>688.75</ele><time>2026-03-29T12:18:37.72Z</time></trkpt><trkpt lat="46.5360169" lon="12.8632862"><ele>689.0</ele><time>2026-03-29T12:18:38.703Z</time></trkpt><trkpt lat="46.535963" lon="12.8631434"><ele>692.0</ele><time>2026-03-29T12:18:39.714Z</time></trkpt><trkpt lat="46.5359452" lon="12.8629852"><ele>695.0</ele><time>2026-03-29T12:18:40.721Z</time></trkpt><trkpt lat="46.5359197" lon="12.8628376"><ele>698.0</ele><time>2026-03-29T12:18:41.704Z</time></trkpt><trkpt lat="46.5358923" lon="12.8626958"><ele>701.0</ele><time>2026-03-29T12:18:42.707Z</time></trkpt><trkpt lat="46.5358379" lon="12.8625778"><ele>704.0</ele><time>2026-03-29T12:18:43.704Z</time></trkpt><trkpt lat="46.5357253" lon="12.8625932"><ele>704.0</ele><time>2026-03-29T12:18:44.703Z</time></trkpt><trkpt lat="46.535632" lon="12.8626468"><ele>704.0</ele><time>2026-03-29T12:18:45.714Z</time></trkpt><trkpt lat="46.5355526" lon="12.8627533"><ele>704.0</ele><time>2026-03-29T12:18:46.721Z</time></trkpt><trkpt lat="46.5354991" lon="12.8629198"><ele>704.0</ele><time>2026-03-29T12:18:47.692Z</time></trkpt><trkpt lat="46.5354292" lon="12.8630871"><ele>707.0</ele><time>2026-03-29T12:18:48.713Z</time></trkpt><trkpt lat="46.5353459" lon="12.8632525"><ele>710.0</ele><time>2026-03-29T12:18:49.714Z</time></trkpt><trkpt lat="46.5352897" lon="12.8634583"><ele>713.0</ele><time>2026-03-29T12:18:50.72Z</time></trkpt><trkpt lat="46.5352675" lon="12.8636923"><ele>713.0</ele><time>2026-03-29T12:18:51.707Z</time></trkpt><trkpt lat="46.5352926" lon="12.8639413"><ele>713.0</ele><time>2026-03-29T12:18:52.698Z</time></trkpt><trkpt lat="46.5352887" lon="12.8641764"><ele>713.0</ele><time>2026-03-29T12:18:53.69Z</time></trkpt><trkpt lat="46.5352732" lon="12.8644078"><ele>709.0</ele><time>2026-03-29T12:18:54.706Z</time></trkpt><trkpt lat="46.5352245" lon="12.8646312"><ele>705.0</ele><time>2026-03-29T12:18:55.725Z</time></trkpt><trkpt lat="46.5351666" lon="12.8648559"><ele>701.0</ele><time>2026-03-29T12:18:56.712Z</time></trkpt><trkpt lat="46.535108" lon="12.8650773"><ele>697.5</ele><time>2026-03-29T12:18:57.707Z</time></trkpt><trkpt lat="46.5350384" lon="12.8652792"><ele>694.0</ele><time>2026-03-29T12:18:58.721Z</time></trkpt><trkpt lat="46.5349735" lon="12.8654673"><ele>690.5</ele><time>2026-03-29T12:18:59.711Z</time></trkpt><trkpt lat="46.5348986" lon="12.8656293"><ele>687.0</ele><time>2026-03-29T12:19:00.731Z</time></trkpt><trkpt lat="46.5348059" lon="12.8657649"><ele>687.0</ele><time>2026-03-29T12:19:01.717Z</time></trkpt><trkpt lat="46.5346728" lon="12.8658725"><ele>687.0</ele><time>2026-03-29T12:19:02.708Z</time></trkpt><trkpt lat="46.5345438" lon="12.866012"><ele>687.0</ele><time>2026-03-29T12:19:03.706Z</time></trkpt><trkpt lat="46.5344403" lon="12.8661665"><ele>684.0</ele><time>2026-03-29T12:19:04.715Z</time></trkpt><trkpt lat="46.5343362" lon="12.8662948"><ele>681.0</ele><time>2026-03-29T12:19:05.729Z</time></trkpt><trkpt lat="46.5342345" lon="12.8664004"><ele>678.0</ele><time>2026-03-29T12:19:06.702Z</time></trkpt><trkpt lat="46.5341215" lon="12.8664727"><ele>675.0</ele><time>2026-03-29T12:19:07.723Z</time></trkpt><trkpt lat="46.5340067" lon="12.8665001"><ele>675.0</ele><time>2026-03-29T12:19:08.705Z</time></trkpt><trkpt lat="46.5338967" lon="12.8664269"><ele>675.0</ele><time>2026-03-29T12:19:09.71Z</time></trkpt><trkpt lat="46.5338159" lon="12.8663471"><ele>675.0</ele><time>2026-03-29T12:19:10.707Z</time></trkpt><trkpt lat="46.5337569" lon="12.8662591"><ele>675.0</ele><time>2026-03-29T12:19:11.699Z</time></trkpt><trkpt lat="46.5336797" lon="12.8662271"><ele>675.0</ele><time>2026-03-29T12:19:12.725Z</time></trkpt><trkpt lat="46.5335938" lon="12.8662407"><ele>679.25</ele><time>2026-03-29T12:19:13.718Z</time></trkpt><trkpt lat="46.5335038" lon="12.8663017"><ele>683.5</ele><time>2026-03-29T12:19:14.697Z</time></trkpt><trkpt lat="46.5334318" lon="12.8664581"><ele>687.75</ele><time>2026-03-29T12:19:15.718Z</time></trkpt><trkpt lat="46.5333747" lon="12.866645"><ele>692.0</ele><time>2026-03-29T12:19:16.721Z</time></trkpt><trkpt lat="46.5333311" lon="12.8668138"><ele>683.0</ele><time>2026-03-29T12:19:17.713Z</time></trkpt><trkpt lat="46.5333132" lon="12.8669597"><ele>674.0</ele><time>2026-03-29T12:19:18.714Z</time></trkpt><trkpt lat="46.5332501" lon="12.8670615"><ele>665.0</ele><time>2026-03-29T12:19:19.684Z</time></trkpt><trkpt lat="46.533166" lon="12.8671792"><ele>656.0</ele><time>2026-03-29T12:19:20.709Z</time></trkpt><trkpt lat="46.5330188" lon="12.8672876"><ele>656.0</ele><time>2026-03-29T12:19:21.703Z</time></trkpt><trkpt lat="46.5329172" lon="12.8674105"><ele>656.0</ele><time>2026-03-29T12:19:22.711Z</time></trkpt><trkpt lat="46.5328405" lon="12.8675443"><ele>656.0</ele><time>2026-03-29T12:19:23.707Z</time></trkpt><trkpt lat="46.532775" lon="12.8676725"><ele>656.0</ele><time>2026-03-29T12:19:24.697Z</time></trkpt><trkpt lat="46.5326883" lon="12.8677677"><ele>652.6666666666666</ele><time>2026-03-29T12:19:25.698Z</time></trkpt><trkpt lat="46.5325595" lon="12.8678333"><ele>649.3333333333334</ele><time>2026-03-29T12:19:26.702Z</time></trkpt><trkpt lat="46.5323999" lon="12.8678889"><ele>646.0</ele><time>2026-03-29T12:19:27.71Z</time></trkpt><trkpt lat="46.5322401" lon="12.8679437"><ele>646.0</ele><time>2026-03-29T12:19:28.713Z</time></trkpt><trkpt lat="46.5320898" lon="12.8680163"><ele>646.0</ele><time>2026-03-29T12:19:29.713Z</time></trkpt><trkpt lat="46.5319403" lon="12.8680717"><ele>646.0</ele><time>2026-03-29T12:19:30.721Z</time></trkpt><trkpt lat="46.5318084" lon="12.8681789"><ele>644.3333333333334</ele><time>2026-03-29T12:19:31.722Z</time></trkpt><trkpt lat="46.5316967" lon="12.8683413"><ele>642.6666666666666</ele><time>2026-03-29T12:19:32.704Z</time></trkpt><trkpt lat="46.5316093" lon="12.868558"><ele>641.0</ele><time>2026-03-29T12:19:33.709Z</time></trkpt><trkpt lat="46.5315323" lon="12.8687347"><ele>641.0</ele><time>2026-03-29T12:19:34.705Z</time></trkpt><trkpt lat="46.5314552" lon="12.8688814"><ele>641.0</ele><time>2026-03-29T12:19:35.709Z</time></trkpt><trkpt lat="46.5313847" lon="12.869003"><ele>641.0</ele><time>2026-03-29T12:19:36.696Z</time></trkpt><trkpt lat="46.5313169" lon="12.8690867"><ele>641.0</ele><time>2026-03-29T12:19:37.696Z</time></trkpt><trkpt lat="46.5312358" lon="12.8691441"><ele>641.0</ele><time>2026-03-29T12:19:38.74Z</time></trkpt><trkpt lat="46.5311331" lon="12.8691583"><ele>640.3333333333333</ele><time>2026-03-29T12:19:39.713Z</time></trkpt><trkpt lat="46.5310056" lon="12.8691458"><ele>639.6666666666666</ele><time>2026-03-29T12:19:40.702Z</time></trkpt><trkpt lat="46.5308489" lon="12.8691099"><ele>639.0</ele><time>2026-03-29T12:19:41.717Z</time></trkpt><trkpt lat="46.5306792" lon="12.8690696"><ele>639.0</ele><time>2026-03-29T12:19:42.709Z</time></trkpt><trkpt lat="46.5305109" lon="12.8690228"><ele>639.0</ele><time>2026-03-29T12:19:43.715Z</time></trkpt><trkpt lat="46.5303517" lon="12.868957"><ele>639.0</ele><time>2026-03-29T12:19:44.714Z</time></trkpt><trkpt lat="46.5302029" lon="12.8688932"><ele>638.0</ele><time>2026-03-29T12:19:45.724Z</time></trkpt><trkpt lat="46.5300605" lon="12.8688571"><ele>637.0</ele><time>2026-03-29T12:19:46.715Z</time></trkpt><trkpt lat="46.529915" lon="12.8688816"><ele>636.0</ele><time>2026-03-29T12:19:47.728Z</time></trkpt><trkpt lat="46.529768" lon="12.8689532"><ele>635.0</ele><time>2026-03-29T12:19:48.712Z</time></trkpt><trkpt lat="46.529622" lon="12.8690232"><ele>636.6666666666666</ele><time>2026-03-29T12:19:49.694Z</time></trkpt><trkpt lat="46.5294733" lon="12.8690653"><ele>638.3333333333334</ele><time>2026-03-29T12:19:50.719Z</time></trkpt><trkpt lat="46.5293243" lon="12.8690891"><ele>640.0</ele><time>2026-03-29T12:19:51.709Z</time></trkpt><trkpt lat="46.5291757" lon="12.86911"><ele>640.0</ele><time>2026-03-29T12:19:52.712Z</time></trkpt><trkpt lat="46.529046" lon="12.8691788"><ele>640.0</ele><time>2026-03-29T12:19:53.711Z</time></trkpt><trkpt lat="46.5289376" lon="12.8692802"><ele>640.0</ele><time>2026-03-29T12:19:54.714Z</time></trkpt><trkpt lat="46.5288511" lon="12.8693915"><ele>640.0</ele><time>2026-03-29T12:19:55.718Z</time></trkpt><trkpt lat="46.5288083" lon="12.8695473"><ele>637.5</ele><time>2026-03-29T12:19:56.704Z</time></trkpt><trkpt lat="46.5287185" lon="12.869652"><ele>635.0</ele><time>2026-03-29T12:19:57.725Z</time></trkpt><trkpt lat="46.5286201" lon="12.8697317"><ele>632.5</ele><time>2026-03-29T12:19:58.704Z</time></trkpt><trkpt lat="46.5284778" lon="12.8697516"><ele>630.0</ele><time>2026-03-29T12:19:59.712Z</time></trkpt><trkpt lat="46.5283083" lon="12.8697584"><ele>630.0</ele><time>2026-03-29T12:20:00.718Z</time></trkpt><trkpt lat="46.5281302" lon="12.8697692"><ele>630.0</ele><time>2026-03-29T12:20:01.7Z</time></trkpt><trkpt lat="46.5279548" lon="12.869776"><ele>630.0</ele><time>2026-03-29T12:20:02.704Z</time></trkpt><trkpt lat="46.5277839" lon="12.8697824"><ele>627.3333333333334</ele><time>2026-03-29T12:20:03.711Z</time></trkpt><trkpt lat="46.5276119" lon="12.8697948"><ele>624.6666666666667</ele><time>2026-03-29T12:20:04.726Z</time></trkpt><trkpt lat="46.5274428" lon="12.8698064"><ele>622.0</ele><time>2026-03-29T12:20:05.711Z</time></trkpt><trkpt lat="46.527288" lon="12.8698088"><ele>622.0</ele><time>2026-03-29T12:20:06.725Z</time></trkpt><trkpt lat="46.5271518" lon="12.8697603"><ele>622.0</ele><time>2026-03-29T12:20:07.696Z</time></trkpt><trkpt lat="46.5270375" lon="12.8697028"><ele>622.0</ele><time>2026-03-29T12:20:08.722Z</time></trkpt><trkpt lat="46.5269499" lon="12.8695988"><ele>622.0</ele><time>2026-03-29T12:20:09.705Z</time></trkpt><trkpt lat="46.5268896" lon="12.8694595"><ele>617.6</ele><time>2026-03-29T12:20:10.713Z</time></trkpt><trkpt lat="46.5268023" lon="12.8693729"><ele>613.2</ele><time>2026-03-29T12:20:11.696Z</time></trkpt><trkpt lat="46.5267047" lon="12.8693299"><ele>608.8</ele><time>2026-03-29T12:20:12.711Z</time></trkpt><trkpt lat="46.5265928" lon="12.8693592"><ele>604.4</ele><time>2026-03-29T12:20:13.704Z</time></trkpt><trkpt lat="46.5264976" lon="12.8694234"><ele>600.0</ele><time>2026-03-29T12:20:14.712Z</time></trkpt><trkpt lat="46.5263974" lon="12.869461"><ele>600.0</ele><time>2026-03-29T12:20:15.721Z</time></trkpt><trkpt lat="46.5262758" lon="12.8694543"><ele>600.0</ele><time>2026-03-29T12:20:16.693Z</time></trkpt><trkpt lat="46.5261503" lon="12.8694071"><ele>600.0</ele><time>2026-03-29T12:20:17.733Z</time></trkpt><trkpt lat="46.5260369" lon="12.8693341"><ele>600.0</ele><time>2026-03-29T12:20:18.724Z</time></trkpt><trkpt lat="46.5259321" lon="12.8692485"><ele>597.4</ele><time>2026-03-29T12:20:19.705Z</time></trkpt><trkpt lat="46.5258374" lon="12.8691758"><ele>594.8</ele><time>2026-03-29T12:20:20.693Z</time></trkpt><trkpt lat="46.5257361" lon="12.8691665"><ele>592.2</ele><time>2026-03-29T12:20:21.7Z</time></trkpt><trkpt lat="46.5256292" lon="12.8691995"><ele>589.6</ele><time>2026-03-29T12:20:22.703Z</time></trkpt><trkpt lat="46.5255246" lon="12.8692846"><ele>587.0</ele><time>2026-03-29T12:20:23.708Z</time></trkpt><trkpt lat="46.5254381" lon="12.869368"><ele>587.75</ele><time>2026-03-29T12:20:24.718Z</time></trkpt><trkpt lat="46.5253646" lon="12.869498"><ele>588.5</ele><time>2026-03-29T12:20:25.713Z</time></trkpt><trkpt lat="46.5252843" lon="12.8696088"><ele>589.25</ele><time>2026-03-29T12:20:26.715Z</time></trkpt><trkpt lat="46.5251684" lon="12.869742"><ele>590.0</ele><time>2026-03-29T12:20:27.698Z</time></trkpt><trkpt lat="46.5250128" lon="12.8697688"><ele>590.0</ele><time>2026-03-29T12:20:28.702Z</time></trkpt><trkpt lat="46.5248668" lon="12.8697296"><ele>590.0</ele><time>2026-03-29T12:20:29.704Z</time></trkpt><trkpt lat="46.5247175" lon="12.8696806"><ele>590.0</ele><time>2026-03-29T12:20:30.695Z</time></trkpt><trkpt lat="46.5245649" lon="12.8696057"><ele>588.3333333333333</ele><time>2026-03-29T12:20:31.714Z</time></trkpt><trkpt lat="46.5244046" lon="12.8695052"><ele>586.6666666666666</ele><time>2026-03-29T12:20:32.708Z</time></trkpt><trkpt lat="46.5242429" lon="12.8694634"><ele>585.0</ele><time>2026-03-29T12:20:33.709Z</time></trkpt><trkpt lat="46.5240861" lon="12.8694038"><ele>585.0</ele><time>2026-03-29T12:20:34.715Z</time></trkpt><trkpt lat="46.5239348" lon="12.8693941"><ele>585.0</ele><time>2026-03-29T12:20:35.715Z</time></trkpt><trkpt lat="46.5237932" lon="12.8694618"><ele>585.0</ele><time>2026-03-29T12:20:36.696Z</time></trkpt><trkpt lat="46.5236754" lon="12.8695114"><ele>585.0</ele><time>2026-03-29T12:20:37.725Z</time></trkpt><trkpt lat="46.5235692" lon="12.8695478"><ele>583.0</ele><time>2026-03-29T12:20:38.715Z</time></trkpt><trkpt lat="46.5234397" lon="12.8695479"><ele>581.0</ele><time>2026-03-29T12:20:39.724Z</time></trkpt><trkpt lat="46.5232995" lon="12.8695357"><ele>579.0</ele><time>2026-03-29T12:20:40.714Z</time></trkpt><trkpt lat="46.5231473" lon="12.8694814"><ele>577.0</ele><time>2026-03-29T12:20:41.713Z</time></trkpt><trkpt lat="46.5230149" lon="12.8693807"><ele>574.6666666666667</ele><time>2026-03-29T12:20:42.718Z</time></trkpt><trkpt lat="46.5228795" lon="12.8692996"><ele>572.3333333333334</ele><time>2026-03-29T12:20:43.702Z</time></trkpt><trkpt lat="46.5227217" lon="12.8692622"><ele>570.0</ele><time>2026-03-29T12:20:44.704Z</time></trkpt><trkpt lat="46.5225654" lon="12.8692437"><ele>572.25</ele><time>2026-03-29T12:20:45.725Z</time></trkpt><trkpt lat="46.5224125" lon="12.8692685"><ele>574.5</ele><time>2026-03-29T12:20:46.684Z</time></trkpt><trkpt lat="46.5222668" lon="12.8692668"><ele>576.75</ele><time>2026-03-29T12:20:47.71Z</time></trkpt><trkpt lat="46.5221237" lon="12.8692714"><ele>579.0</ele><time>2026-03-29T12:20:48.71Z</time></trkpt><trkpt lat="46.5219887" lon="12.8693309"><ele>579.0</ele><time>2026-03-29T12:20:49.703Z</time></trkpt><trkpt lat="46.52187" lon="12.8694262"><ele>579.0</ele><time>2026-03-29T12:20:50.715Z</time></trkpt><trkpt lat="46.5217674" lon="12.8695604"><ele>579.0</ele><time>2026-03-29T12:20:51.715Z</time></trkpt><trkpt lat="46.5216727" lon="12.8696779"><ele>579.0</ele><time>2026-03-29T12:20:52.704Z</time></trkpt><trkpt lat="46.5215762" lon="12.8697776"><ele>579.0</ele><time>2026-03-29T12:20:53.716Z</time></trkpt><trkpt lat="46.5214693" lon="12.8698532"><ele>579.0</ele><time>2026-03-29T12:20:54.713Z</time></trkpt><trkpt lat="46.5213665" lon="12.8699599"><ele>579.0</ele><time>2026-03-29T12:20:55.73Z</time></trkpt><trkpt lat="46.5212699" lon="12.8701072"><ele>579.0</ele><time>2026-03-29T12:20:56.702Z</time></trkpt><trkpt lat="46.5211751" lon="12.8702626"><ele>574.6666666666666</ele><time>2026-03-29T12:20:57.696Z</time></trkpt><trkpt lat="46.5210657" lon="12.8704155"><ele>570.3333333333333</ele><time>2026-03-29T12:20:58.704Z</time></trkpt><trkpt lat="46.5209343" lon="12.8705448"><ele>566.0</ele><time>2026-03-29T12:20:59.697Z</time></trkpt><trkpt lat="46.5208118" lon="12.870642"><ele>566.0</ele><time>2026-03-29T12:21:00.734Z</time></trkpt><trkpt lat="46.5207018" lon="12.870721"><ele>566.0</ele><time>2026-03-29T12:21:01.709Z</time></trkpt><trkpt lat="46.5205841" lon="12.8707643"><ele>566.0</ele><time>2026-03-29T12:21:02.699Z</time></trkpt><trkpt lat="46.5204555" lon="12.8707386"><ele>566.0</ele><time>2026-03-29T12:21:03.708Z</time></trkpt><trkpt lat="46.5203236" lon="12.8706844"><ele>566.25</ele><time>2026-03-29T12:21:04.712Z</time></trkpt><trkpt lat="46.5202" lon="12.8705878"><ele>566.5</ele><time>2026-03-29T12:21:05.728Z</time></trkpt><trkpt lat="46.5200882" lon="12.8704677"><ele>566.75</ele><time>2026-03-29T12:21:06.715Z</time></trkpt><trkpt lat="46.5199869" lon="12.8703507"><ele>567.0</ele><time>2026-03-29T12:21:07.718Z</time></trkpt><trkpt lat="46.5198971" lon="12.8702304"><ele>567.75</ele><time>2026-03-29T12:21:08.706Z</time></trkpt><trkpt lat="46.5198254" lon="12.870091"><ele>568.5</ele><time>2026-03-29T12:21:09.709Z</time></trkpt><trkpt lat="46.5197708" lon="12.8699343"><ele>569.25</ele><time>2026-03-29T12:21:10.696Z</time></trkpt><trkpt lat="46.5197293" lon="12.8697609"><ele>570.0</ele><time>2026-03-29T12:21:11.73Z</time></trkpt><trkpt lat="46.5197044" lon="12.8695613"><ele>570.0</ele><time>2026-03-29T12:21:12.704Z</time></trkpt><trkpt lat="46.5196851" lon="12.8693492"><ele>570.0</ele><time>2026-03-29T12:21:13.709Z</time></trkpt><trkpt lat="46.5196541" lon="12.8691349"><ele>570.0</ele><time>2026-03-29T12:21:14.699Z</time></trkpt><trkpt lat="46.519599" lon="12.8689115"><ele>568.0</ele><time>2026-03-29T12:21:15.728Z</time></trkpt><trkpt lat="46.5195175" lon="12.8686747"><ele>566.0</ele><time>2026-03-29T12:21:16.73Z</time></trkpt><trkpt lat="46.519439" lon="12.868413"><ele>564.0</ele><time>2026-03-29T12:21:17.699Z</time></trkpt><trkpt lat="46.5193422" lon="12.8681655"><ele>564.0</ele><time>2026-03-29T12:21:18.71Z</time></trkpt><trkpt lat="46.5192573" lon="12.8679102"><ele>564.0</ele><time>2026-03-29T12:21:19.713Z</time></trkpt><trkpt lat="46.5191548" lon="12.867669"><ele>564.0</ele><time>2026-03-29T12:21:20.702Z</time></trkpt><trkpt lat="46.5190215" lon="12.8674479"><ele>563.6666666666666</ele><time>2026-03-29T12:21:21.71Z</time></trkpt><trkpt lat="46.5188446" lon="12.8672896"><ele>563.3333333333333</ele><time>2026-03-29T12:21:22.717Z</time></trkpt><trkpt lat="46.5186647" lon="12.8671504"><ele>563.0</ele><time>2026-03-29T12:21:23.7Z</time></trkpt><trkpt lat="46.518495" lon="12.8670099"><ele>563.0</ele><time>2026-03-29T12:21:24.712Z</time></trkpt><trkpt lat="46.5183364" lon="12.8668473"><ele>563.0</ele><time>2026-03-29T12:21:25.708Z</time></trkpt><trkpt lat="46.5181912" lon="12.8666516"><ele>563.0</ele><time>2026-03-29T12:21:26.709Z</time></trkpt><trkpt lat="46.5180769" lon="12.8664192"><ele>560.0</ele><time>2026-03-29T12:21:27.692Z</time></trkpt><trkpt lat="46.5179958" lon="12.8661643"><ele>557.0</ele><time>2026-03-29T12:21:28.7Z</time></trkpt><trkpt lat="46.5179094" lon="12.8659204"><ele>554.0</ele><time>2026-03-29T12:21:29.712Z</time></trkpt><trkpt lat="46.5178277" lon="12.865685"><ele>554.0</ele><time>2026-03-29T12:21:30.706Z</time></trkpt><trkpt lat="46.5177314" lon="12.8655234"><ele>554.0</ele><time>2026-03-29T12:21:31.704Z</time></trkpt><trkpt lat="46.5176148" lon="12.8654237"><ele>554.0</ele><time>2026-03-29T12:21:32.716Z</time></trkpt><trkpt lat="46.5174724" lon="12.8653835"><ele>554.0</ele><time>2026-03-29T12:21:33.699Z</time></trkpt><trkpt lat="46.5173158" lon="12.865346"><ele>554.0</ele><time>2026-03-29T12:21:34.723Z</time></trkpt><trkpt lat="46.517154" lon="12.8653051"><ele>554.0</ele><time>2026-03-29T12:21:35.721Z</time></trkpt><trkpt lat="46.5169914" lon="12.8652606"><ele>554.0</ele><time>2026-03-29T12:21:36.702Z</time></trkpt><trkpt lat="46.5168326" lon="12.8652225"><ele>554.3333333333333</ele><time>2026-03-29T12:21:37.723Z</time></trkpt><trkpt lat="46.5166734" lon="12.8651956"><ele>554.6666666666666</ele><time>2026-03-29T12:21:38.699Z</time></trkpt><trkpt lat="46.5165096" lon="12.8651854"><ele>555.0</ele><time>2026-03-29T12:21:39.702Z</time></trkpt><trkpt lat="46.5163362" lon="12.8651955"><ele>550.0</ele><time>2026-03-29T12:21:40.701Z</time></trkpt><trkpt lat="46.5161534" lon="12.8652198"><ele>545.0</ele><time>2026-03-29T12:21:41.709Z</time></trkpt><trkpt lat="46.5159681" lon="12.8652454"><ele>540.0</ele><time>2026-03-29T12:21:42.704Z</time></trkpt><trkpt lat="46.5157852" lon="12.8653047"><ele>540.0</ele><time>2026-03-29T12:21:43.715Z</time></trkpt><trkpt lat="46.5156022" lon="12.8653721"><ele>540.0</ele><time>2026-03-29T12:21:44.718Z</time></trkpt><trkpt lat="46.5154227" lon="12.8654499"><ele>540.0</ele><time>2026-03-29T12:21:45.703Z</time></trkpt><trkpt lat="46.5152413" lon="12.8655169"><ele>538.3333333333334</ele><time>2026-03-29T12:21:46.709Z</time></trkpt><trkpt lat="46.5150598" lon="12.8655874"><ele>536.6666666666667</ele><time>2026-03-29T12:21:47.716Z</time></trkpt><trkpt lat="46.5148771" lon="12.8656578"><ele>535.0</ele><time>2026-03-29T12:21:48.719Z</time></trkpt><trkpt lat="46.5146931" lon="12.8657299"><ele>534.0</ele><time>2026-03-29T12:21:49.712Z</time></trkpt><trkpt lat="46.5145084" lon="12.8658021"><ele>533.0</ele><time>2026-03-29T12:21:50.714Z</time></trkpt><trkpt lat="46.5143237" lon="12.8658754"><ele>532.0</ele><time>2026-03-29T12:21:51.714Z</time></trkpt><trkpt lat="46.5141378" lon="12.8659531"><ele>532.3333333333334</ele><time>2026-03-29T12:21:52.713Z</time></trkpt><trkpt lat="46.5139505" lon="12.8660329"><ele>532.6666666666666</ele><time>2026-03-29T12:21:53.731Z</time></trkpt><trkpt lat="46.5137596" lon="12.866113"><ele>533.0</ele><time>2026-03-29T12:21:54.703Z</time></trkpt><trkpt lat="46.5135651" lon="12.8661933"><ele>533.0</ele><time>2026-03-29T12:21:55.697Z</time></trkpt><trkpt lat="46.5133767" lon="12.8662926"><ele>533.0</ele><time>2026-03-29T12:21:56.718Z</time></trkpt><trkpt lat="46.51319" lon="12.8663732"><ele>533.0</ele><time>2026-03-29T12:21:57.723Z</time></trkpt><trkpt lat="46.513008" lon="12.8664492"><ele>532.0</ele><time>2026-03-29T12:21:58.722Z</time></trkpt><trkpt lat="46.5128258" lon="12.8664975"><ele>531.0</ele><time>2026-03-29T12:21:59.729Z</time></trkpt><trkpt lat="46.5126525" lon="12.8665723"><ele>530.0</ele><time>2026-03-29T12:22:00.709Z</time></trkpt><trkpt lat="46.5124794" lon="12.8666386"><ele>530.0</ele><time>2026-03-29T12:22:01.699Z</time></trkpt><trkpt lat="46.5123107" lon="12.8667027"><ele>530.0</ele><time>2026-03-29T12:22:02.731Z</time></trkpt><trkpt lat="46.5121384" lon="12.866741"><ele>530.0</ele><time>2026-03-29T12:22:03.706Z</time></trkpt><trkpt lat="46.511974" lon="12.8668107"><ele>542.3333333333333</ele><time>2026-03-29T12:22:04.727Z</time></trkpt><trkpt lat="46.511808" lon="12.8668712"><ele>554.6666666666666</ele><time>2026-03-29T12:22:05.732Z</time></trkpt><trkpt lat="46.5116398" lon="12.8669163"><ele>567.0</ele><time>2026-03-29T12:22:06.721Z</time></trkpt><trkpt lat="46.5114728" lon="12.8669377"><ele>567.0</ele><time>2026-03-29T12:22:07.719Z</time></trkpt><trkpt lat="46.5113054" lon="12.8669082"><ele>567.0</ele><time>2026-03-29T12:22:08.734Z</time></trkpt><trkpt lat="46.5111366" lon="12.8668828"><ele>567.0</ele><time>2026-03-29T12:22:09.72Z</time></trkpt><trkpt lat="46.5109663" lon="12.8668442"><ele>561.3333333333334</ele><time>2026-03-29T12:22:10.712Z</time></trkpt><trkpt lat="46.5107999" lon="12.8667859"><ele>555.6666666666667</ele><time>2026-03-29T12:22:11.722Z</time></trkpt><trkpt lat="46.5106392" lon="12.8667238"><ele>550.0</ele><time>2026-03-29T12:22:12.711Z</time></trkpt><trkpt lat="46.5104809" lon="12.8666789"><ele>553.0</ele><time>2026-03-29T12:22:13.73Z</time></trkpt><trkpt lat="46.5103275" lon="12.8666286"><ele>556.0</ele><time>2026-03-29T12:22:14.716Z</time></trkpt><trkpt lat="46.5101779" lon="12.8665718"><ele>559.0</ele><time>2026-03-29T12:22:15.708Z</time></trkpt><trkpt lat="46.5100257" lon="12.8665026"><ele>559.0</ele><time>2026-03-29T12:22:16.711Z</time></trkpt><trkpt lat="46.5098697" lon="12.8664189"><ele>559.0</ele><time>2026-03-29T12:22:17.713Z</time></trkpt><trkpt lat="46.5097152" lon="12.8663171"><ele>559.0</ele><time>2026-03-29T12:22:18.712Z</time></trkpt><trkpt lat="46.5095629" lon="12.8662176"><ele>554.0</ele><time>2026-03-29T12:22:19.733Z</time></trkpt><trkpt lat="46.5094159" lon="12.8661182"><ele>549.0</ele><time>2026-03-29T12:22:20.702Z</time></trkpt><trkpt lat="46.5092743" lon="12.8660172"><ele>544.0</ele><time>2026-03-29T12:22:21.702Z</time></trkpt><trkpt lat="46.5091255" lon="12.8659348"><ele>544.0</ele><time>2026-03-29T12:22:22.711Z</time></trkpt><trkpt lat="46.5089663" lon="12.86586"><ele>544.0</ele><time>2026-03-29T12:22:23.718Z</time></trkpt><trkpt lat="46.508793" lon="12.8658216"><ele>544.0</ele><time>2026-03-29T12:22:24.702Z</time></trkpt><trkpt lat="46.5086129" lon="12.8658258"><ele>546.6666666666667</ele><time>2026-03-29T12:22:25.699Z</time></trkpt><trkpt lat="46.5084319" lon="12.8657826"><ele>549.3333333333334</ele><time>2026-03-29T12:22:26.705Z</time></trkpt><trkpt lat="46.5082459" lon="12.8657678"><ele>552.0</ele><time>2026-03-29T12:22:27.695Z</time></trkpt><trkpt lat="46.5080568" lon="12.8658004"><ele>549.6666666666666</ele><time>2026-03-29T12:22:28.712Z</time></trkpt><trkpt lat="46.5078662" lon="12.8658169"><ele>547.3333333333333</ele><time>2026-03-29T12:22:29.706Z</time></trkpt><trkpt lat="46.5076692" lon="12.8658074"><ele>545.0</ele><time>2026-03-29T12:22:30.706Z</time></trkpt><trkpt lat="46.5074731" lon="12.8657702"><ele>545.0</ele><time>2026-03-29T12:22:31.705Z</time></trkpt><trkpt lat="46.5072819" lon="12.8657267"><ele>545.0</ele><time>2026-03-29T12:22:32.713Z</time></trkpt><trkpt lat="46.5070913" lon="12.8656983"><ele>545.0</ele><time>2026-03-29T12:22:33.714Z</time></trkpt><trkpt lat="46.5069038" lon="12.865661"><ele>551.6666666666666</ele><time>2026-03-29T12:22:34.7Z</time></trkpt><trkpt lat="46.5067281" lon="12.865599"><ele>558.3333333333334</ele><time>2026-03-29T12:22:35.699Z</time></trkpt><trkpt lat="46.5065634" lon="12.8655353"><ele>565.0</ele><time>2026-03-29T12:22:36.695Z</time></trkpt><trkpt lat="46.5064099" lon="12.8654303"><ele>565.0</ele><time>2026-03-29T12:22:37.712Z</time></trkpt><trkpt lat="46.5062691" lon="12.8653216"><ele>565.0</ele><time>2026-03-29T12:22:38.717Z</time></trkpt><trkpt lat="46.5061355" lon="12.8652233"><ele>565.0</ele><time>2026-03-29T12:22:39.73Z</time></trkpt><trkpt lat="46.5060075" lon="12.8651317"><ele>557.75</ele><time>2026-03-29T12:22:40.702Z</time></trkpt><trkpt lat="46.5058774" lon="12.8650462"><ele>550.5</ele><time>2026-03-29T12:22:41.693Z</time></trkpt><trkpt lat="46.5057341" lon="12.865"><ele>543.25</ele><time>2026-03-29T12:22:42.703Z</time></trkpt><trkpt lat="46.5055898" lon="12.86497"><ele>536.0</ele><time>2026-03-29T12:22:43.718Z</time></trkpt><trkpt lat="46.5054393" lon="12.864968"><ele>533.0</ele><time>2026-03-29T12:22:44.707Z</time></trkpt><trkpt lat="46.5052852" lon="12.8649848"><ele>530.0</ele><time>2026-03-29T12:22:45.706Z</time></trkpt><trkpt lat="46.5051281" lon="12.8650167"><ele>527.0</ele><time>2026-03-29T12:22:46.711Z</time></trkpt><trkpt lat="46.5049657" lon="12.8650693"><ele>533.0</ele><time>2026-03-29T12:22:47.711Z</time></trkpt><trkpt lat="46.5047995" lon="12.8651446"><ele>539.0</ele><time>2026-03-29T12:22:48.715Z</time></trkpt><trkpt lat="46.5046322" lon="12.865226"><ele>545.0</ele><time>2026-03-29T12:22:49.7Z</time></trkpt><trkpt lat="46.5044617" lon="12.865322"><ele>545.0</ele><time>2026-03-29T12:22:50.708Z</time></trkpt><trkpt lat="46.5042835" lon="12.8654179"><ele>545.0</ele><time>2026-03-29T12:22:51.713Z</time></trkpt><trkpt lat="46.5040974" lon="12.865509"><ele>545.0</ele><time>2026-03-29T12:22:52.717Z</time></trkpt><trkpt lat="46.5039068" lon="12.8655869"><ele>541.3333333333333</ele><time>2026-03-29T12:22:53.709Z</time></trkpt><trkpt lat="46.5037091" lon="12.8656194"><ele>537.6666666666666</ele><time>2026-03-29T12:22:54.715Z</time></trkpt><trkpt lat="46.5035087" lon="12.8656393"><ele>534.0</ele><time>2026-03-29T12:22:55.711Z</time></trkpt><trkpt lat="46.5033052" lon="12.8656542"><ele>534.0</ele><time>2026-03-29T12:22:56.731Z</time></trkpt><trkpt lat="46.5031007" lon="12.8656599"><ele>534.0</ele><time>2026-03-29T12:22:57.728Z</time></trkpt><trkpt lat="46.5028989" lon="12.8656555"><ele>534.0</ele><time>2026-03-29T12:22:58.721Z</time></trkpt><trkpt lat="46.5027043" lon="12.8656438"><ele>531.0</ele><time>2026-03-29T12:22:59.737Z</time></trkpt><trkpt lat="46.5025174" lon="12.8656332"><ele>528.0</ele><time>2026-03-29T12:23:00.71Z</time></trkpt><trkpt lat="46.5023362" lon="12.8656337"><ele>525.0</ele><time>2026-03-29T12:23:01.706Z</time></trkpt><trkpt lat="46.5021634" lon="12.8656338"><ele>527.0</ele><time>2026-03-29T12:23:02.701Z</time></trkpt><trkpt lat="46.5019995" lon="12.8656196"><ele>529.0</ele><time>2026-03-29T12:23:03.708Z</time></trkpt><trkpt lat="46.5018435" lon="12.8655905"><ele>531.0</ele><time>2026-03-29T12:23:04.693Z</time></trkpt><trkpt lat="46.5016963" lon="12.8655485"><ele>531.0</ele><time>2026-03-29T12:23:05.699Z</time></trkpt><trkpt lat="46.5015493" lon="12.8655225"><ele>531.0</ele><time>2026-03-29T12:23:06.711Z</time></trkpt><trkpt lat="46.5013996" lon="12.865497"><ele>531.0</ele><time>2026-03-29T12:23:07.7Z</time></trkpt><trkpt lat="46.5012435" lon="12.8654776"><ele>529.3333333333334</ele><time>2026-03-29T12:23:08.716Z</time></trkpt><trkpt lat="46.5010824" lon="12.8654713"><ele>527.6666666666667</ele><time>2026-03-29T12:23:09.718Z</time></trkpt><trkpt lat="46.5009191" lon="12.8654901"><ele>526.0</ele><time>2026-03-29T12:23:10.703Z</time></trkpt><trkpt lat="46.5007539" lon="12.8654961"><ele>526.0</ele><time>2026-03-29T12:23:11.701Z</time></trkpt><trkpt lat="46.5005894" lon="12.8654942"><ele>526.0</ele><time>2026-03-29T12:23:12.711Z</time></trkpt><trkpt lat="46.5004276" lon="12.8654855"><ele>526.0</ele><time>2026-03-29T12:23:13.687Z</time></trkpt><trkpt lat="46.5002685" lon="12.8654498"><ele>525.5</ele><time>2026-03-29T12:23:14.706Z</time></trkpt><trkpt lat="46.5001136" lon="12.8654214"><ele>525.0</ele><time>2026-03-29T12:23:15.691Z</time></trkpt><trkpt lat="46.4999665" lon="12.8654023"><ele>524.5</ele><time>2026-03-29T12:23:16.723Z</time></trkpt><trkpt lat="46.499832" lon="12.865422"><ele>524.0</ele><time>2026-03-29T12:23:17.702Z</time></trkpt><trkpt lat="46.4997094" lon="12.8654952"><ele>524.0</ele><time>2026-03-29T12:23:18.701Z</time></trkpt><trkpt lat="46.4995951" lon="12.8655966"><ele>524.0</ele><time>2026-03-29T12:23:19.693Z</time></trkpt><trkpt lat="46.4994855" lon="12.8657185"><ele>524.0</ele><time>2026-03-29T12:23:20.697Z</time></trkpt><trkpt lat="46.4993818" lon="12.8658574"><ele>524.0</ele><time>2026-03-29T12:23:21.73Z</time></trkpt><trkpt lat="46.4992637" lon="12.8659939"><ele>530.0</ele><time>2026-03-29T12:23:22.707Z</time></trkpt><trkpt lat="46.499124" lon="12.8661067"><ele>536.0</ele><time>2026-03-29T12:23:23.708Z</time></trkpt><trkpt lat="46.4989845" lon="12.8662273"><ele>542.0</ele><time>2026-03-29T12:23:24.704Z</time></trkpt><trkpt lat="46.4988315" lon="12.8663195"><ele>534.6666666666666</ele><time>2026-03-29T12:23:25.703Z</time></trkpt><trkpt lat="46.4986684" lon="12.866391"><ele>527.3333333333334</ele><time>2026-03-29T12:23:26.708Z</time></trkpt><trkpt lat="46.4984892" lon="12.8664198"><ele>520.0</ele><time>2026-03-29T12:23:27.693Z</time></trkpt><trkpt lat="46.4983042" lon="12.8664292"><ele>520.0</ele><time>2026-03-29T12:23:28.699Z</time></trkpt><trkpt lat="46.4981263" lon="12.8664409"><ele>520.0</ele><time>2026-03-29T12:23:29.702Z</time></trkpt><trkpt lat="46.4979536" lon="12.866464"><ele>520.0</ele><time>2026-03-29T12:23:30.696Z</time></trkpt><trkpt lat="46.4977858" lon="12.8664931"><ele>518.6666666666667</ele><time>2026-03-29T12:23:31.712Z</time></trkpt><trkpt lat="46.4976213" lon="12.866521"><ele>517.3333333333334</ele><time>2026-03-29T12:23:32.699Z</time></trkpt><trkpt lat="46.4974596" lon="12.8665581"><ele>516.0</ele><time>2026-03-29T12:23:33.7Z</time></trkpt><trkpt lat="46.4972991" lon="12.8666082"><ele>516.0</ele><time>2026-03-29T12:23:34.705Z</time></trkpt><trkpt lat="46.4971404" lon="12.8666746"><ele>516.0</ele><time>2026-03-29T12:23:35.698Z</time></trkpt><trkpt lat="46.496988" lon="12.8667541"><ele>516.0</ele><time>2026-03-29T12:23:36.712Z</time></trkpt><trkpt lat="46.4968346" lon="12.8668362"><ele>529.6666666666666</ele><time>2026-03-29T12:23:37.689Z</time></trkpt><trkpt lat="46.496676" lon="12.8668843"><ele>543.3333333333333</ele><time>2026-03-29T12:23:38.709Z</time></trkpt><trkpt lat="46.4965085" lon="12.8668882"><ele>557.0</ele><time>2026-03-29T12:23:39.73Z</time></trkpt><trkpt lat="46.4963376" lon="12.8668609"><ele>558.6666666666666</ele><time>2026-03-29T12:23:40.719Z</time></trkpt><trkpt lat="46.4961702" lon="12.8668098"><ele>560.3333333333334</ele><time>2026-03-29T12:23:41.71Z</time></trkpt><trkpt lat="46.4960102" lon="12.8667198"><ele>562.0</ele><time>2026-03-29T12:23:42.695Z</time></trkpt><trkpt lat="46.4958552" lon="12.8666364"><ele>549.6666666666667</ele><time>2026-03-29T12:23:43.709Z</time></trkpt><trkpt lat="46.4956938" lon="12.8665766"><ele>537.3333333333334</ele><time>2026-03-29T12:23:44.718Z</time></trkpt><trkpt lat="46.4955215" lon="12.8665443"><ele>525.0</ele><time>2026-03-29T12:23:45.702Z</time></trkpt><trkpt lat="46.4953431" lon="12.8665141"><ele>525.0</ele><time>2026-03-29T12:23:46.723Z</time></trkpt><trkpt lat="46.4951594" lon="12.8664915"><ele>525.0</ele><time>2026-03-29T12:23:47.73Z</time></trkpt><trkpt lat="46.4949736" lon="12.8664836"><ele>525.0</ele><time>2026-03-29T12:23:48.736Z</time></trkpt><trkpt lat="46.494792" lon="12.8664716"><ele>525.0</ele><time>2026-03-29T12:23:49.719Z</time></trkpt><trkpt lat="46.494616" lon="12.86646"><ele>525.0</ele><time>2026-03-29T12:23:50.718Z</time></trkpt><trkpt lat="46.4944481" lon="12.866424"><ele>525.0</ele><time>2026-03-29T12:23:51.729Z</time></trkpt><trkpt lat="46.4942856" lon="12.8663923"><ele>528.3333333333334</ele><time>2026-03-29T12:23:52.718Z</time></trkpt><trkpt lat="46.4941257" lon="12.8663521"><ele>531.6666666666667</ele><time>2026-03-29T12:23:53.708Z</time></trkpt><trkpt lat="46.4939692" lon="12.866305"><ele>535.0</ele><time>2026-03-29T12:23:54.709Z</time></trkpt><trkpt lat="46.4938195" lon="12.8662773"><ele>534.0</ele><time>2026-03-29T12:23:55.711Z</time></trkpt><trkpt lat="46.4936794" lon="12.8662423"><ele>533.0</ele><time>2026-03-29T12:23:56.723Z</time></trkpt><trkpt lat="46.4935467" lon="12.8662031"><ele>532.0</ele><time>2026-03-29T12:23:57.711Z</time></trkpt><trkpt lat="46.4934185" lon="12.866144"><ele>531.0</ele><time>2026-03-29T12:23:58.719Z</time></trkpt><trkpt lat="46.4932854" lon="12.8660979"><ele>531.0</ele><time>2026-03-29T12:23:59.702Z</time></trkpt><trkpt lat="46.4931477" lon="12.8660576"><ele>531.0</ele><time>2026-03-29T12:24:00.716Z</time></trkpt><trkpt lat="46.4930077" lon="12.866014"><ele>531.0</ele><time>2026-03-29T12:24:01.715Z</time></trkpt><trkpt lat="46.4928589" lon="12.8659781"><ele>531.0</ele><time>2026-03-29T12:24:02.697Z</time></trkpt><trkpt lat="46.4926983" lon="12.865949"><ele>527.0</ele><time>2026-03-29T12:24:03.722Z</time></trkpt><trkpt lat="46.4925252" lon="12.8659019"><ele>523.0</ele><time>2026-03-29T12:24:04.733Z</time></trkpt><trkpt lat="46.4923379" lon="12.8658651"><ele>519.0</ele><time>2026-03-29T12:24:05.706Z</time></trkpt><trkpt lat="46.4921434" lon="12.8658263"><ele>520.0</ele><time>2026-03-29T12:24:06.716Z</time></trkpt><trkpt lat="46.4919459" lon="12.865797"><ele>521.0</ele><time>2026-03-29T12:24:07.711Z</time></trkpt><trkpt lat="46.4917464" lon="12.8657826"><ele>522.0</ele><time>2026-03-29T12:24:08.704Z</time></trkpt><trkpt lat="46.4915443" lon="12.8657577"><ele>522.0</ele><time>2026-03-29T12:24:09.717Z</time></trkpt><trkpt lat="46.4913341" lon="12.8657239"><ele>522.0</ele><time>2026-03-29T12:24:10.696Z</time></trkpt><trkpt lat="46.4911138" lon="12.8656733"><ele>522.0</ele><time>2026-03-29T12:24:11.704Z</time></trkpt><trkpt lat="46.4908901" lon="12.8655964"><ele>525.0</ele><time>2026-03-29T12:24:12.715Z</time></trkpt><trkpt lat="46.4906757" lon="12.8655265"><ele>528.0</ele><time>2026-03-29T12:24:13.705Z</time></trkpt><trkpt lat="46.4904779" lon="12.8654725"><ele>531.0</ele><time>2026-03-29T12:24:14.697Z</time></trkpt><trkpt lat="46.4902917" lon="12.8654262"><ele>532.0</ele><time>2026-03-29T12:24:15.722Z</time></trkpt><trkpt lat="46.4901112" lon="12.8653851"><ele>533.0</ele><time>2026-03-29T12:24:16.719Z</time></trkpt><trkpt lat="46.4899369" lon="12.8653475"><ele>534.0</ele><time>2026-03-29T12:24:17.704Z</time></trkpt><trkpt lat="46.4897672" lon="12.8653164"><ele>534.0</ele><time>2026-03-29T12:24:18.714Z</time></trkpt><trkpt lat="46.4896017" lon="12.8652858"><ele>534.0</ele><time>2026-03-29T12:24:19.719Z</time></trkpt><trkpt lat="46.489439" lon="12.8652574"><ele>534.0</ele><time>2026-03-29T12:24:20.728Z</time></trkpt><trkpt lat="46.4892795" lon="12.8652311"><ele>536.0</ele><time>2026-03-29T12:24:21.704Z</time></trkpt><trkpt lat="46.4891191" lon="12.8652108"><ele>538.0</ele><time>2026-03-29T12:24:22.72Z</time></trkpt><trkpt lat="46.4889597" lon="12.8651892"><ele>540.0</ele><time>2026-03-29T12:24:23.724Z</time></trkpt><trkpt lat="46.4887979" lon="12.8651681"><ele>540.0</ele><time>2026-03-29T12:24:24.72Z</time></trkpt><trkpt lat="46.4886339" lon="12.8651524"><ele>540.0</ele><time>2026-03-29T12:24:25.719Z</time></trkpt><trkpt lat="46.4884683" lon="12.8651252"><ele>540.0</ele><time>2026-03-29T12:24:26.717Z</time></trkpt><trkpt lat="46.4882988" lon="12.8651019"><ele>540.0</ele><time>2026-03-29T12:24:27.715Z</time></trkpt><trkpt lat="46.4881262" lon="12.8650795"><ele>540.0</ele><time>2026-03-29T12:24:28.696Z</time></trkpt><trkpt lat="46.4879529" lon="12.8650585"><ele>540.0</ele><time>2026-03-29T12:24:29.726Z</time></trkpt><trkpt lat="46.4877804" lon="12.8650374"><ele>540.0</ele><time>2026-03-29T12:24:30.702Z</time></trkpt><trkpt lat="46.4876133" lon="12.8650157"><ele>540.0</ele><time>2026-03-29T12:24:31.705Z</time></trkpt><trkpt lat="46.4874519" lon="12.8649881"><ele>540.0</ele><time>2026-03-29T12:24:32.695Z</time></trkpt><trkpt lat="46.4872927" lon="12.8649655"><ele>540.0</ele><time>2026-03-29T12:24:33.704Z</time></trkpt><trkpt lat="46.4871334" lon="12.8649373"><ele>540.0</ele><time>2026-03-29T12:24:34.707Z</time></trkpt><trkpt lat="46.4869715" lon="12.8649102"><ele>540.0</ele><time>2026-03-29T12:24:35.724Z</time></trkpt><trkpt lat="46.4868054" lon="12.8648857"><ele>539.3333333333334</ele><time>2026-03-29T12:24:36.706Z</time></trkpt><trkpt lat="46.486636" lon="12.8648777"><ele>538.6666666666667</ele><time>2026-03-29T12:24:37.709Z</time></trkpt><trkpt lat="46.4864617" lon="12.8648715"><ele>538.0</ele><time>2026-03-29T12:24:38.711Z</time></trkpt><trkpt lat="46.4862787" lon="12.8648997"><ele>536.0</ele><time>2026-03-29T12:24:39.715Z</time></trkpt><trkpt lat="46.4860923" lon="12.864922"><ele>534.0</ele><time>2026-03-29T12:24:40.712Z</time></trkpt><trkpt lat="46.4859064" lon="12.8649452"><ele>532.0</ele><time>2026-03-29T12:24:41.71Z</time></trkpt><trkpt lat="46.4857257" lon="12.8649654"><ele>532.0</ele><time>2026-03-29T12:24:42.712Z</time></trkpt><trkpt lat="46.485551" lon="12.8649895"><ele>532.0</ele><time>2026-03-29T12:24:43.71Z</time></trkpt><trkpt lat="46.4853816" lon="12.8650139"><ele>532.0</ele><time>2026-03-29T12:24:44.7Z</time></trkpt><trkpt lat="46.4852188" lon="12.8650382"><ele>531.5</ele><time>2026-03-29T12:24:45.705Z</time></trkpt><trkpt lat="46.485066" lon="12.8650622"><ele>531.0</ele><time>2026-03-29T12:24:46.713Z</time></trkpt><trkpt lat="46.4849206" lon="12.8650943"><ele>530.5</ele><time>2026-03-29T12:24:47.706Z</time></trkpt><trkpt lat="46.4847765" lon="12.8651213"><ele>530.0</ele><time>2026-03-29T12:24:48.722Z</time></trkpt><trkpt lat="46.4846354" lon="12.8651418"><ele>532.0</ele><time>2026-03-29T12:24:49.707Z</time></trkpt><trkpt lat="46.4844983" lon="12.8651682"><ele>534.0</ele><time>2026-03-29T12:24:50.717Z</time></trkpt><trkpt lat="46.4843573" lon="12.8651507"><ele>536.0</ele><time>2026-03-29T12:24:51.722Z</time></trkpt><trkpt lat="46.4842142" lon="12.8651756"><ele>538.0</ele><time>2026-03-29T12:24:52.709Z</time></trkpt><trkpt lat="46.4840687" lon="12.8651946"><ele>538.0</ele><time>2026-03-29T12:24:53.711Z</time></trkpt><trkpt lat="46.4839209" lon="12.8652127"><ele>538.0</ele><time>2026-03-29T12:24:54.697Z</time></trkpt><trkpt lat="46.483772" lon="12.865248"><ele>538.0</ele><time>2026-03-29T12:24:55.703Z</time></trkpt><trkpt lat="46.4836212" lon="12.8652679"><ele>536.6666666666667</ele><time>2026-03-29T12:24:56.707Z</time></trkpt><trkpt lat="46.4834689" lon="12.8652902"><ele>535.3333333333334</ele><time>2026-03-29T12:24:57.712Z</time></trkpt><trkpt lat="46.4833164" lon="12.8653105"><ele>534.0</ele><time>2026-03-29T12:24:58.708Z</time></trkpt><trkpt lat="46.4831633" lon="12.8653352"><ele>534.0</ele><time>2026-03-29T12:24:59.707Z</time></trkpt><trkpt lat="46.4830089" lon="12.8653592"><ele>534.0</ele><time>2026-03-29T12:25:00.714Z</time></trkpt><trkpt lat="46.4828574" lon="12.865403"><ele>534.0</ele><time>2026-03-29T12:25:01.714Z</time></trkpt><trkpt lat="46.4827161" lon="12.8655056"><ele>533.0</ele><time>2026-03-29T12:25:02.715Z</time></trkpt><trkpt lat="46.4825766" lon="12.8655671"><ele>532.0</ele><time>2026-03-29T12:25:03.716Z</time></trkpt><trkpt lat="46.4824507" lon="12.8656342"><ele>531.0</ele><time>2026-03-29T12:25:04.711Z</time></trkpt><trkpt lat="46.4823376" lon="12.8657394"><ele>530.0</ele><time>2026-03-29T12:25:05.706Z</time></trkpt><trkpt lat="46.4822199" lon="12.8658383"><ele>530.5</ele><time>2026-03-29T12:25:06.712Z</time></trkpt><trkpt lat="46.4821323" lon="12.8660061"><ele>531.0</ele><time>2026-03-29T12:25:07.69Z</time></trkpt><trkpt lat="46.4820378" lon="12.8661416"><ele>531.5</ele><time>2026-03-29T12:25:08.704Z</time></trkpt><trkpt lat="46.481929" lon="12.8662467"><ele>532.0</ele><time>2026-03-29T12:25:09.719Z</time></trkpt><trkpt lat="46.4818272" lon="12.8663864"><ele>531.75</ele><time>2026-03-29T12:25:10.696Z</time></trkpt><trkpt lat="46.4817309" lon="12.8665181"><ele>531.5</ele><time>2026-03-29T12:25:11.711Z</time></trkpt><trkpt lat="46.4816431" lon="12.8666717"><ele>531.25</ele><time>2026-03-29T12:25:12.705Z</time></trkpt><trkpt lat="46.4815554" lon="12.8668131"><ele>531.0</ele><time>2026-03-29T12:25:13.712Z</time></trkpt><trkpt lat="46.4814505" lon="12.8669238"><ele>531.0</ele><time>2026-03-29T12:25:14.706Z</time></trkpt><trkpt lat="46.4813436" lon="12.8670289"><ele>531.0</ele><time>2026-03-29T12:25:15.728Z</time></trkpt><trkpt lat="46.4812062" lon="12.8670612"><ele>531.0</ele><time>2026-03-29T12:25:16.708Z</time></trkpt><trkpt lat="46.4811001" lon="12.86713"><ele>531.0</ele><time>2026-03-29T12:25:17.708Z</time></trkpt><trkpt lat="46.4809933" lon="12.8671842"><ele>530.5</ele><time>2026-03-29T12:25:18.693Z</time></trkpt><trkpt lat="46.480884" lon="12.8672384"><ele>530.0</ele><time>2026-03-29T12:25:19.733Z</time></trkpt><trkpt lat="46.4807582" lon="12.8672347"><ele>529.5</ele><time>2026-03-29T12:25:20.726Z</time></trkpt><trkpt lat="46.4806321" lon="12.8672272"><ele>529.0</ele><time>2026-03-29T12:25:21.692Z</time></trkpt><trkpt lat="46.4805006" lon="12.8672403"><ele>527.0</ele><time>2026-03-29T12:25:22.69Z</time></trkpt><trkpt lat="46.4803651" lon="12.867247"><ele>525.0</ele><time>2026-03-29T12:25:23.695Z</time></trkpt><trkpt lat="46.4802249" lon="12.8672452"><ele>523.0</ele><time>2026-03-29T12:25:24.712Z</time></trkpt><trkpt lat="46.4800814" lon="12.8672579"><ele>521.0</ele><time>2026-03-29T12:25:25.703Z</time></trkpt><trkpt lat="46.4799341" lon="12.8672895"><ele>521.0</ele><time>2026-03-29T12:25:26.707Z</time></trkpt><trkpt lat="46.479786" lon="12.8673438"><ele>521.0</ele><time>2026-03-29T12:25:27.704Z</time></trkpt><trkpt lat="46.4796302" lon="12.8673777"><ele>521.0</ele><time>2026-03-29T12:25:28.694Z</time></trkpt><trkpt lat="46.4794763" lon="12.8674403"><ele>520.3333333333333</ele><time>2026-03-29T12:25:29.701Z</time></trkpt><trkpt lat="46.4793233" lon="12.8675172"><ele>519.6666666666666</ele><time>2026-03-29T12:25:30.712Z</time></trkpt><trkpt lat="46.4791732" lon="12.8676069"><ele>519.0</ele><time>2026-03-29T12:25:31.693Z</time></trkpt><trkpt lat="46.4790287" lon="12.8677168"><ele>519.0</ele><time>2026-03-29T12:25:32.714Z</time></trkpt><trkpt lat="46.4788853" lon="12.8678214"><ele>519.0</ele><time>2026-03-29T12:25:33.7Z</time></trkpt><trkpt lat="46.4787407" lon="12.8679206"><ele>519.0</ele><time>2026-03-29T12:25:34.724Z</time></trkpt><trkpt lat="46.4786007" lon="12.8680257"><ele>515.6666666666666</ele><time>2026-03-29T12:25:35.716Z</time></trkpt><trkpt lat="46.478467" lon="12.8681622"><ele>512.3333333333333</ele><time>2026-03-29T12:25:36.697Z</time></trkpt><trkpt lat="46.4783407" lon="12.8683257"><ele>509.0</ele><time>2026-03-29T12:25:37.725Z</time></trkpt><trkpt lat="46.4782271" lon="12.8685138"><ele>509.0</ele><time>2026-03-29T12:25:38.718Z</time></trkpt><trkpt lat="46.4780998" lon="12.8686831"><ele>509.0</ele><time>2026-03-29T12:25:39.711Z</time></trkpt><trkpt lat="46.4779726" lon="12.8688477"><ele>509.0</ele><time>2026-03-29T12:25:40.706Z</time></trkpt><trkpt lat="46.4778513" lon="12.8690185"><ele>508.66666666666663</ele><time>2026-03-29T12:25:41.712Z</time></trkpt><trkpt lat="46.4777327" lon="12.8691825"><ele>508.33333333333337</ele><time>2026-03-29T12:25:42.711Z</time></trkpt><trkpt lat="46.4776256" lon="12.8693551"><ele>508.0</ele><time>2026-03-29T12:25:43.717Z</time></trkpt><trkpt lat="46.4775196" lon="12.8695232"><ele>508.0</ele><time>2026-03-29T12:25:44.711Z</time></trkpt><trkpt lat="46.4774128" lon="12.8696833"><ele>508.0</ele><time>2026-03-29T12:25:45.699Z</time></trkpt><trkpt lat="46.4773068" lon="12.8698411"><ele>508.0</ele><time>2026-03-29T12:25:46.706Z</time></trkpt><trkpt lat="46.4771987" lon="12.8699939"><ele>508.0</ele><time>2026-03-29T12:25:47.715Z</time></trkpt><trkpt lat="46.4770892" lon="12.8701435"><ele>508.0</ele><time>2026-03-29T12:25:48.717Z</time></trkpt><trkpt lat="46.476977" lon="12.8702864"><ele>508.0</ele><time>2026-03-29T12:25:49.728Z</time></trkpt><trkpt lat="46.4768604" lon="12.8704069"><ele>508.0</ele><time>2026-03-29T12:25:50.716Z</time></trkpt><trkpt lat="46.4767485" lon="12.8704938"><ele>508.00000000000006</ele><time>2026-03-29T12:25:51.723Z</time></trkpt><trkpt lat="46.4766519" lon="12.8705448"><ele>508.0</ele><time>2026-03-29T12:25:52.713Z</time></trkpt><trkpt lat="46.4765622" lon="12.8705488"><ele>508.0</ele><time>2026-03-29T12:25:53.709Z</time></trkpt><trkpt lat="46.476482" lon="12.8705262"><ele>508.0</ele><time>2026-03-29T12:25:54.715Z</time></trkpt><trkpt lat="46.4764138" lon="12.8704751"><ele>508.00000000000006</ele><time>2026-03-29T12:25:55.712Z</time></trkpt><trkpt lat="46.4763611" lon="12.8704131"><ele>508.0</ele><time>2026-03-29T12:25:56.701Z</time></trkpt><trkpt lat="46.476298" lon="12.8703792"><ele>506.2</ele><time>2026-03-29T12:25:57.695Z</time></trkpt><trkpt lat="46.4762359" lon="12.870356"><ele>504.4</ele><time>2026-03-29T12:25:58.711Z</time></trkpt><trkpt lat="46.4761712" lon="12.8704201"><ele>502.59999999999997</ele><time>2026-03-29T12:25:59.731Z</time></trkpt><trkpt lat="46.4761104" lon="12.8705398"><ele>500.79999999999995</ele><time>2026-03-29T12:26:00.704Z</time></trkpt><trkpt lat="46.4760304" lon="12.8706459"><ele>499.0</ele><time>2026-03-29T12:26:01.711Z</time></trkpt><trkpt lat="46.475921" lon="12.8707218"><ele>499.0</ele><time>2026-03-29T12:26:02.715Z</time></trkpt><trkpt lat="46.4757936" lon="12.8707992"><ele>499.0</ele><time>2026-03-29T12:26:03.718Z</time></trkpt><trkpt lat="46.4756542" lon="12.8708949"><ele>499.0</ele><time>2026-03-29T12:26:04.73Z</time></trkpt><trkpt lat="46.4755076" lon="12.871016"><ele>504.6666666666667</ele><time>2026-03-29T12:26:05.734Z</time></trkpt><trkpt lat="46.4753596" lon="12.8711596"><ele>510.33333333333337</ele><time>2026-03-29T12:26:06.713Z</time></trkpt><trkpt lat="46.475207" lon="12.8713057"><ele>516.0</ele><time>2026-03-29T12:26:07.707Z</time></trkpt><trkpt lat="46.4750522" lon="12.8714457"><ele>516.0</ele><time>2026-03-29T12:26:08.718Z</time></trkpt><trkpt lat="46.4748914" lon="12.8715689"><ele>516.0</ele><time>2026-03-29T12:26:09.716Z</time></trkpt><trkpt lat="46.4747229" lon="12.8716758"><ele>516.0</ele><time>2026-03-29T12:26:10.705Z</time></trkpt><trkpt lat="46.4745529" lon="12.8717817"><ele>518.0</ele><time>2026-03-29T12:26:11.713Z</time></trkpt><trkpt lat="46.4743747" lon="12.8718803"><ele>520.0</ele><time>2026-03-29T12:26:12.696Z</time></trkpt><trkpt lat="46.4741952" lon="12.871991"><ele>522.0</ele><time>2026-03-29T12:26:13.71Z</time></trkpt><trkpt lat="46.4740141" lon="12.8721068"><ele>522.0</ele><time>2026-03-29T12:26:14.715Z</time></trkpt><trkpt lat="46.4738296" lon="12.8722253"><ele>522.0</ele><time>2026-03-29T12:26:15.711Z</time></trkpt><trkpt lat="46.4736411" lon="12.872344"><ele>522.0</ele><time>2026-03-29T12:26:16.715Z</time></trkpt><trkpt lat="46.4734505" lon="12.8724609"><ele>517.6666666666666</ele><time>2026-03-29T12:26:17.711Z</time></trkpt><trkpt lat="46.4732678" lon="12.872597"><ele>513.3333333333333</ele><time>2026-03-29T12:26:18.709Z</time></trkpt><trkpt lat="46.4731" lon="12.8727573"><ele>509.0</ele><time>2026-03-29T12:26:19.713Z</time></trkpt><trkpt lat="46.4729284" lon="12.8728905"><ele>509.0</ele><time>2026-03-29T12:26:20.72Z</time></trkpt><trkpt lat="46.4727552" lon="12.8730003"><ele>509.0</ele><time>2026-03-29T12:26:21.7Z</time></trkpt><trkpt lat="46.4725893" lon="12.8731273"><ele>509.0</ele><time>2026-03-29T12:26:22.72Z</time></trkpt><trkpt lat="46.4724207" lon="12.8732382"><ele>509.0</ele><time>2026-03-29T12:26:23.706Z</time></trkpt><trkpt lat="46.4722594" lon="12.8733541"><ele>509.0</ele><time>2026-03-29T12:26:24.703Z</time></trkpt><trkpt lat="46.4720994" lon="12.873463"><ele>509.0</ele><time>2026-03-29T12:26:25.712Z</time></trkpt><trkpt lat="46.4719402" lon="12.8735717"><ele>516.3333333333333</ele><time>2026-03-29T12:26:26.713Z</time></trkpt><trkpt lat="46.4717853" lon="12.8736785"><ele>523.6666666666666</ele><time>2026-03-29T12:26:27.709Z</time></trkpt><trkpt lat="46.4716349" lon="12.8737918"><ele>531.0</ele><time>2026-03-29T12:26:28.724Z</time></trkpt><trkpt lat="46.4714845" lon="12.8739068"><ele>531.0</ele><time>2026-03-29T12:26:29.718Z</time></trkpt><trkpt lat="46.4713386" lon="12.8740338"><ele>531.0</ele><time>2026-03-29T12:26:30.714Z</time></trkpt><trkpt lat="46.4711723" lon="12.8741176"><ele>531.0</ele><time>2026-03-29T12:26:31.724Z</time></trkpt><trkpt lat="46.4709917" lon="12.8741791"><ele>540.6666666666666</ele><time>2026-03-29T12:26:32.707Z</time></trkpt><trkpt lat="46.470814" lon="12.8742461"><ele>550.3333333333333</ele><time>2026-03-29T12:26:33.712Z</time></trkpt><trkpt lat="46.47064" lon="12.8743166"><ele>560.0</ele><time>2026-03-29T12:26:34.73Z</time></trkpt><trkpt lat="46.4704577" lon="12.874388"><ele>552.0</ele><time>2026-03-29T12:26:35.718Z</time></trkpt><trkpt lat="46.4702724" lon="12.8744623"><ele>544.0</ele><time>2026-03-29T12:26:36.712Z</time></trkpt><trkpt lat="46.4700873" lon="12.8745282"><ele>536.0</ele><time>2026-03-29T12:26:37.703Z</time></trkpt><trkpt lat="46.4699027" lon="12.8745701"><ele>536.0</ele><time>2026-03-29T12:26:38.724Z</time></trkpt><trkpt lat="46.4697283" lon="12.87463"><ele>536.0</ele><time>2026-03-29T12:26:39.713Z</time></trkpt><trkpt lat="46.4695602" lon="12.8746962"><ele>536.0</ele><time>2026-03-29T12:26:40.713Z</time></trkpt><trkpt lat="46.4693984" lon="12.8747578"><ele>527.3333333333333</ele><time>2026-03-29T12:26:41.701Z</time></trkpt><trkpt lat="46.4692296" lon="12.8747796"><ele>518.6666666666666</ele><time>2026-03-29T12:26:42.702Z</time></trkpt><trkpt lat="46.4690452" lon="12.8747226"><ele>510.0</ele><time>2026-03-29T12:26:43.69Z</time></trkpt><trkpt lat="46.4688638" lon="12.8746887"><ele>508.33333333333337</ele><time>2026-03-29T12:26:44.713Z</time></trkpt><trkpt lat="46.4686782" lon="12.8746484"><ele>506.6666666666667</ele><time>2026-03-29T12:26:45.714Z</time></trkpt><trkpt lat="46.4684877" lon="12.8746102"><ele>505.0</ele><time>2026-03-29T12:26:46.716Z</time></trkpt><trkpt lat="46.4682954" lon="12.8745715"><ele>505.0</ele><time>2026-03-29T12:26:47.714Z</time></trkpt><trkpt lat="46.4681015" lon="12.8745328"><ele>505.0</ele><time>2026-03-29T12:26:48.724Z</time></trkpt><trkpt lat="46.4679058" lon="12.8744827"><ele>505.0</ele><time>2026-03-29T12:26:49.704Z</time></trkpt><trkpt lat="46.4677142" lon="12.8744052"><ele>505.6666666666667</ele><time>2026-03-29T12:26:50.696Z</time></trkpt><trkpt lat="46.467532" lon="12.8743153"><ele>506.33333333333337</ele><time>2026-03-29T12:26:51.712Z</time></trkpt><trkpt lat="46.4673569" lon="12.8742234"><ele>507.0</ele><time>2026-03-29T12:26:52.71Z</time></trkpt><trkpt lat="46.4671876" lon="12.8741416"><ele>500.33333333333337</ele><time>2026-03-29T12:26:53.702Z</time></trkpt><trkpt lat="46.4670164" lon="12.8740853"><ele>493.6666666666667</ele><time>2026-03-29T12:26:54.689Z</time></trkpt><trkpt lat="46.4668357" lon="12.8740353"><ele>487.0</ele><time>2026-03-29T12:26:55.715Z</time></trkpt><trkpt lat="46.4666437" lon="12.8740437"><ele>487.0</ele><time>2026-03-29T12:26:56.711Z</time></trkpt><trkpt lat="46.4664541" lon="12.8740766"><ele>487.0</ele><time>2026-03-29T12:26:57.683Z</time></trkpt><trkpt lat="46.4662684" lon="12.8741228"><ele>487.0</ele><time>2026-03-29T12:26:58.7Z</time></trkpt><trkpt lat="46.4660886" lon="12.8741844"><ele>484.6666666666667</ele><time>2026-03-29T12:26:59.695Z</time></trkpt><trkpt lat="46.4659113" lon="12.8742342"><ele>482.33333333333337</ele><time>2026-03-29T12:27:00.704Z</time></trkpt><trkpt lat="46.4657307" lon="12.8742399"><ele>480.0</ele><time>2026-03-29T12:27:01.704Z</time></trkpt><trkpt lat="46.4655506" lon="12.8742183"><ele>480.0</ele><time>2026-03-29T12:27:02.702Z</time></trkpt><trkpt lat="46.4653759" lon="12.8741799"><ele>480.0</ele><time>2026-03-29T12:27:03.702Z</time></trkpt><trkpt lat="46.4652062" lon="12.8741015"><ele>480.0</ele><time>2026-03-29T12:27:04.712Z</time></trkpt><trkpt lat="46.4650416" lon="12.8739999"><ele>480.0</ele><time>2026-03-29T12:27:05.697Z</time></trkpt><trkpt lat="46.4648832" lon="12.873881"><ele>480.0</ele><time>2026-03-29T12:27:06.715Z</time></trkpt><trkpt lat="46.4647216" lon="12.8737884"><ele>480.0</ele><time>2026-03-29T12:27:07.706Z</time></trkpt><trkpt lat="46.4645781" lon="12.8736529"><ele>482.0</ele><time>2026-03-29T12:27:08.695Z</time></trkpt><trkpt lat="46.4644482" lon="12.8734935"><ele>484.0</ele><time>2026-03-29T12:27:09.691Z</time></trkpt><trkpt lat="46.4643342" lon="12.873305"><ele>486.0</ele><time>2026-03-29T12:27:10.693Z</time></trkpt><trkpt lat="46.4642478" lon="12.873082"><ele>486.0</ele><time>2026-03-29T12:27:11.709Z</time></trkpt><trkpt lat="46.4641744" lon="12.8728423"><ele>486.0</ele><time>2026-03-29T12:27:12.707Z</time></trkpt><trkpt lat="46.4640852" lon="12.8726178"><ele>486.0</ele><time>2026-03-29T12:27:13.704Z</time></trkpt><trkpt lat="46.4640013" lon="12.8723947"><ele>482.5</ele><time>2026-03-29T12:27:14.704Z</time></trkpt><trkpt lat="46.4639296" lon="12.8721739"><ele>479.0</ele><time>2026-03-29T12:27:15.709Z</time></trkpt><trkpt lat="46.4638576" lon="12.8719893"><ele>475.5</ele><time>2026-03-29T12:27:16.722Z</time></trkpt><trkpt lat="46.4637804" lon="12.8718336"><ele>472.0</ele><time>2026-03-29T12:27:17.716Z</time></trkpt><trkpt lat="46.4636847" lon="12.8717073"><ele>469.25</ele><time>2026-03-29T12:27:18.729Z</time></trkpt><trkpt lat="46.4635418" lon="12.8716573"><ele>466.5</ele><time>2026-03-29T12:27:19.705Z</time></trkpt><trkpt lat="46.4634033" lon="12.8716387"><ele>463.75</ele><time>2026-03-29T12:27:20.702Z</time></trkpt><trkpt lat="46.4632637" lon="12.8716309"><ele>461.0</ele><time>2026-03-29T12:27:21.712Z</time></trkpt><trkpt lat="46.4631214" lon="12.871717"><ele>470.66666666666663</ele><time>2026-03-29T12:27:22.714Z</time></trkpt><trkpt lat="46.462962" lon="12.8718468"><ele>480.33333333333337</ele><time>2026-03-29T12:27:23.714Z</time></trkpt><trkpt lat="46.4627844" lon="12.8719681"><ele>490.0</ele><time>2026-03-29T12:27:24.711Z</time></trkpt><trkpt lat="46.4626104" lon="12.8720882"><ele>490.0</ele><time>2026-03-29T12:27:25.701Z</time></trkpt><trkpt lat="46.462419" lon="12.8721886"><ele>490.0</ele><time>2026-03-29T12:27:26.705Z</time></trkpt><trkpt lat="46.4622422" lon="12.8722642"><ele>490.0</ele><time>2026-03-29T12:27:27.707Z</time></trkpt><trkpt lat="46.4620492" lon="12.8723235"><ele>485.0</ele><time>2026-03-29T12:27:28.714Z</time></trkpt><trkpt lat="46.4618401" lon="12.8723714"><ele>480.0</ele><time>2026-03-29T12:27:29.714Z</time></trkpt><trkpt lat="46.4616236" lon="12.8724095"><ele>475.0</ele><time>2026-03-29T12:27:30.705Z</time></trkpt><trkpt lat="46.4614125" lon="12.8724566"><ele>475.0</ele><time>2026-03-29T12:27:31.71Z</time></trkpt><trkpt lat="46.4612116" lon="12.8724963"><ele>475.0</ele><time>2026-03-29T12:27:32.709Z</time></trkpt><trkpt lat="46.4610145" lon="12.8725162"><ele>475.0</ele><time>2026-03-29T12:27:33.72Z</time></trkpt><trkpt lat="46.460845" lon="12.8725452"><ele>475.0</ele><time>2026-03-29T12:27:34.718Z</time></trkpt><trkpt lat="46.460671" lon="12.872556"><ele>475.0</ele><time>2026-03-29T12:27:35.705Z</time></trkpt><trkpt lat="46.4605319" lon="12.8725543"><ele>475.0</ele><time>2026-03-29T12:27:36.722Z</time></trkpt><trkpt lat="46.4603183" lon="12.8725325"><ele>473.5</ele><time>2026-03-29T12:27:37.734Z</time></trkpt><trkpt lat="46.4600634" lon="12.8724661"><ele>472.0</ele><time>2026-03-29T12:27:38.712Z</time></trkpt><trkpt lat="46.4598494" lon="12.8724774"><ele>472.0</ele><time>2026-03-29T12:27:39.703Z</time></trkpt><trkpt lat="46.4597737" lon="12.8725381"><ele>472.0</ele><time>2026-03-29T12:27:40.709Z</time></trkpt><trkpt lat="46.4595455" lon="12.8725755"><ele>472.0</ele><time>2026-03-29T12:27:41.711Z</time></trkpt><trkpt lat="46.4593782" lon="12.872561"><ele>471.6666666666667</ele><time>2026-03-29T12:27:42.713Z</time></trkpt><trkpt lat="46.4591609" lon="12.8724958"><ele>471.33333333333337</ele><time>2026-03-29T12:27:43.732Z</time></trkpt><trkpt lat="46.4589618" lon="12.8724237"><ele>471.0</ele><time>2026-03-29T12:27:44.731Z</time></trkpt><trkpt lat="46.4588005" lon="12.8723844"><ele>464.66666666666663</ele><time>2026-03-29T12:27:45.717Z</time></trkpt><trkpt lat="46.458616" lon="12.8723786"><ele>458.3333333333333</ele><time>2026-03-29T12:27:46.707Z</time></trkpt><trkpt lat="46.4584369" lon="12.8723904"><ele>452.0</ele><time>2026-03-29T12:27:47.714Z</time></trkpt><trkpt lat="46.4582313" lon="12.8723753"><ele>452.0</ele><time>2026-03-29T12:27:48.722Z</time></trkpt><trkpt lat="46.4580093" lon="12.8724017"><ele>452.0</ele><time>2026-03-29T12:27:49.734Z</time></trkpt><trkpt lat="46.4577908" lon="12.8724519"><ele>452.0</ele><time>2026-03-29T12:27:50.734Z</time></trkpt><trkpt lat="46.4575894" lon="12.8725613"><ele>451.3333333333333</ele><time>2026-03-29T12:27:51.733Z</time></trkpt><trkpt lat="46.4573843" lon="12.8726849"><ele>450.66666666666663</ele><time>2026-03-29T12:27:52.722Z</time></trkpt><trkpt lat="46.4571793" lon="12.8728254"><ele>450.0</ele><time>2026-03-29T12:27:53.722Z</time></trkpt><trkpt lat="46.4569826" lon="12.8729983"><ele>448.5</ele><time>2026-03-29T12:27:54.72Z</time></trkpt><trkpt lat="46.4567837" lon="12.8731753"><ele>447.0</ele><time>2026-03-29T12:27:55.748Z</time></trkpt><trkpt lat="46.4565845" lon="12.8733542"><ele>447.5</ele><time>2026-03-29T12:27:56.711Z</time></trkpt><trkpt lat="46.4563854" lon="12.8735332"><ele>448.0</ele><time>2026-03-29T12:27:57.736Z</time></trkpt><trkpt lat="46.456187" lon="12.8737104"><ele>448.0</ele><time>2026-03-29T12:27:58.729Z</time></trkpt><trkpt lat="46.4559906" lon="12.8738843"><ele>448.0</ele><time>2026-03-29T12:27:59.733Z</time></trkpt><trkpt lat="46.4557971" lon="12.874057"><ele>448.0</ele><time>2026-03-29T12:28:00.738Z</time></trkpt><trkpt lat="46.4556061" lon="12.8742277"><ele>448.0</ele><time>2026-03-29T12:28:01.707Z</time></trkpt><trkpt lat="46.4554194" lon="12.8744001"><ele>448.0</ele><time>2026-03-29T12:28:02.73Z</time></trkpt><trkpt lat="46.4552344" lon="12.8745679"><ele>447.6666666666667</ele><time>2026-03-29T12:28:03.703Z</time></trkpt><trkpt lat="46.4550492" lon="12.8747304"><ele>447.33333333333337</ele><time>2026-03-29T12:28:04.709Z</time></trkpt><trkpt lat="46.4548675" lon="12.874892"><ele>447.0</ele><time>2026-03-29T12:28:05.717Z</time></trkpt><trkpt lat="46.4546865" lon="12.8750527"><ele>447.0</ele><time>2026-03-29T12:28:06.734Z</time></trkpt><trkpt lat="46.4545072" lon="12.8752144"><ele>447.0</ele><time>2026-03-29T12:28:07.713Z</time></trkpt><trkpt lat="46.4543304" lon="12.8753739"><ele>447.0</ele><time>2026-03-29T12:28:08.717Z</time></trkpt><trkpt lat="46.4541546" lon="12.8755309"><ele>447.0</ele><time>2026-03-29T12:28:09.705Z</time></trkpt><trkpt lat="46.4539805" lon="12.8756857"><ele>447.0</ele><time>2026-03-29T12:28:10.708Z</time></trkpt><trkpt lat="46.4538077" lon="12.8758391"><ele>447.0</ele><time>2026-03-29T12:28:11.712Z</time></trkpt><trkpt lat="46.4536353" lon="12.8759936"><ele>447.33333333333337</ele><time>2026-03-29T12:28:12.698Z</time></trkpt><trkpt lat="46.4534631" lon="12.876149"><ele>447.6666666666667</ele><time>2026-03-29T12:28:13.699Z</time></trkpt><trkpt lat="46.4532916" lon="12.8763065"><ele>448.0</ele><time>2026-03-29T12:28:14.7Z</time></trkpt><trkpt lat="46.4531192" lon="12.8764639"><ele>445.6666666666667</ele><time>2026-03-29T12:28:15.727Z</time></trkpt><trkpt lat="46.4529475" lon="12.8766242"><ele>443.33333333333337</ele><time>2026-03-29T12:28:16.712Z</time></trkpt><trkpt lat="46.4527732" lon="12.8767768"><ele>441.0</ele><time>2026-03-29T12:28:17.713Z</time></trkpt><trkpt lat="46.4526011" lon="12.8769283"><ele>443.66666666666663</ele><time>2026-03-29T12:28:18.723Z</time></trkpt><trkpt lat="46.4524295" lon="12.8770751"><ele>446.3333333333333</ele><time>2026-03-29T12:28:19.697Z</time></trkpt><trkpt lat="46.4522615" lon="12.8772276"><ele>449.0</ele><time>2026-03-29T12:28:20.718Z</time></trkpt><trkpt lat="46.4520913" lon="12.8773689"><ele>449.0</ele><time>2026-03-29T12:28:21.715Z</time></trkpt><trkpt lat="46.451918" lon="12.8774916"><ele>449.0</ele><time>2026-03-29T12:28:22.713Z</time></trkpt><trkpt lat="46.4517362" lon="12.8775897"><ele>449.0</ele><time>2026-03-29T12:28:23.704Z</time></trkpt><trkpt lat="46.4515621" lon="12.8776895"><ele>462.0</ele><time>2026-03-29T12:28:24.702Z</time></trkpt><trkpt lat="46.4513766" lon="12.8777495"><ele>475.0</ele><time>2026-03-29T12:28:25.706Z</time></trkpt><trkpt lat="46.4511872" lon="12.8777783"><ele>488.0</ele><time>2026-03-29T12:28:26.725Z</time></trkpt><trkpt lat="46.4509972" lon="12.8778096"><ele>488.0</ele><time>2026-03-29T12:28:27.709Z</time></trkpt><trkpt lat="46.450804" lon="12.8778558"><ele>488.0</ele><time>2026-03-29T12:28:28.717Z</time></trkpt><trkpt lat="46.4506092" lon="12.8779013"><ele>488.0</ele><time>2026-03-29T12:28:29.705Z</time></trkpt><trkpt lat="46.4504074" lon="12.8778917"><ele>479.3333333333333</ele><time>2026-03-29T12:28:30.712Z</time></trkpt><trkpt lat="46.4502116" lon="12.877872"><ele>470.66666666666663</ele><time>2026-03-29T12:28:31.705Z</time></trkpt><trkpt lat="46.4500283" lon="12.8778562"><ele>462.0</ele><time>2026-03-29T12:28:32.702Z</time></trkpt><trkpt lat="46.4498585" lon="12.877873"><ele>462.0</ele><time>2026-03-29T12:28:33.709Z</time></trkpt><trkpt lat="46.4497016" lon="12.8779253"><ele>462.0</ele><time>2026-03-29T12:28:34.709Z</time></trkpt><trkpt lat="46.4495533" lon="12.8780088"><ele>462.0</ele><time>2026-03-29T12:28:35.711Z</time></trkpt><trkpt lat="46.4494234" lon="12.8781448"><ele>458.33333333333337</ele><time>2026-03-29T12:28:36.709Z</time></trkpt><trkpt lat="46.4493001" lon="12.8782977"><ele>454.6666666666667</ele><time>2026-03-29T12:28:37.714Z</time></trkpt><trkpt lat="46.4491648" lon="12.8784404"><ele>451.0</ele><time>2026-03-29T12:28:38.698Z</time></trkpt><trkpt lat="46.4490228" lon="12.8785756"><ele>463.6666666666667</ele><time>2026-03-29T12:28:39.713Z</time></trkpt><trkpt lat="46.4488703" lon="12.8786847"><ele>476.33333333333337</ele><time>2026-03-29T12:28:40.732Z</time></trkpt><trkpt lat="46.4487056" lon="12.8787634"><ele>489.0</ele><time>2026-03-29T12:28:41.695Z</time></trkpt><trkpt lat="46.4485289" lon="12.8788104"><ele>489.0</ele><time>2026-03-29T12:28:42.704Z</time></trkpt><trkpt lat="46.4483466" lon="12.8788347"><ele>489.0</ele><time>2026-03-29T12:28:43.709Z</time></trkpt><trkpt lat="46.4481636" lon="12.8788721"><ele>489.0</ele><time>2026-03-29T12:28:44.703Z</time></trkpt><trkpt lat="46.4479855" lon="12.8789118"><ele>484.0</ele><time>2026-03-29T12:28:45.702Z</time></trkpt><trkpt lat="46.4478134" lon="12.8789524"><ele>479.0</ele><time>2026-03-29T12:28:46.715Z</time></trkpt><trkpt lat="46.4476451" lon="12.8789693"><ele>474.0</ele><time>2026-03-29T12:28:47.721Z</time></trkpt><trkpt lat="46.4474821" lon="12.8789854"><ele>474.0</ele><time>2026-03-29T12:28:48.714Z</time></trkpt><trkpt lat="46.4473211" lon="12.8789634"><ele>474.0</ele><time>2026-03-29T12:28:49.704Z</time></trkpt><trkpt lat="46.4471644" lon="12.8788928"><ele>474.0</ele><time>2026-03-29T12:28:50.7Z</time></trkpt><trkpt lat="46.4470131" lon="12.87882"><ele>475.33333333333337</ele><time>2026-03-29T12:28:51.705Z</time></trkpt><trkpt lat="46.4468596" lon="12.8787616"><ele>476.6666666666667</ele><time>2026-03-29T12:28:52.704Z</time></trkpt><trkpt lat="46.4467036" lon="12.878711"><ele>478.0</ele><time>2026-03-29T12:28:53.696Z</time></trkpt><trkpt lat="46.4465385" lon="12.8786858"><ele>478.0</ele><time>2026-03-29T12:28:54.713Z</time></trkpt><trkpt lat="46.4463668" lon="12.8786872"><ele>478.0</ele><time>2026-03-29T12:28:55.708Z</time></trkpt><trkpt lat="46.4461849" lon="12.8787157"><ele>478.0</ele><time>2026-03-29T12:28:56.703Z</time></trkpt><trkpt lat="46.4459941" lon="12.8787555"><ele>475.0</ele><time>2026-03-29T12:28:57.705Z</time></trkpt><trkpt lat="46.4457992" lon="12.8787981"><ele>472.0</ele><time>2026-03-29T12:28:58.702Z</time></trkpt><trkpt lat="46.4456037" lon="12.8788409"><ele>469.0</ele><time>2026-03-29T12:28:59.701Z</time></trkpt><trkpt lat="46.4454128" lon="12.8788936"><ele>466.6666666666667</ele><time>2026-03-29T12:29:00.714Z</time></trkpt><trkpt lat="46.4452257" lon="12.8789402"><ele>464.33333333333337</ele><time>2026-03-29T12:29:01.723Z</time></trkpt><trkpt lat="46.4450419" lon="12.8789893"><ele>462.0</ele><time>2026-03-29T12:29:02.714Z</time></trkpt><trkpt lat="46.4448589" lon="12.8790357"><ele>462.0</ele><time>2026-03-29T12:29:03.702Z</time></trkpt><trkpt lat="46.4446752" lon="12.8790886"><ele>462.0</ele><time>2026-03-29T12:29:04.714Z</time></trkpt><trkpt lat="46.4444898" lon="12.8791655"><ele>462.0</ele><time>2026-03-29T12:29:05.708Z</time></trkpt><trkpt lat="46.4443042" lon="12.8792715"><ele>460.33333333333337</ele><time>2026-03-29T12:29:06.711Z</time></trkpt><trkpt lat="46.4441228" lon="12.8794056"><ele>458.6666666666667</ele><time>2026-03-29T12:29:07.697Z</time></trkpt><trkpt lat="46.4439516" lon="12.8795646"><ele>457.0</ele><time>2026-03-29T12:29:08.702Z</time></trkpt><trkpt lat="46.4437853" lon="12.8797239"><ele>457.0</ele><time>2026-03-29T12:29:09.7Z</time></trkpt><trkpt lat="46.4436269" lon="12.8798843"><ele>457.0</ele><time>2026-03-29T12:29:10.723Z</time></trkpt><trkpt lat="46.4434601" lon="12.8800261"><ele>457.0</ele><time>2026-03-29T12:29:11.699Z</time></trkpt><trkpt lat="46.4432895" lon="12.8801681"><ele>457.33333333333337</ele><time>2026-03-29T12:29:12.693Z</time></trkpt><trkpt lat="46.4431231" lon="12.8803205"><ele>457.66666666666663</ele><time>2026-03-29T12:29:13.712Z</time></trkpt><trkpt lat="46.4429564" lon="12.8804738"><ele>458.0</ele><time>2026-03-29T12:29:14.703Z</time></trkpt><trkpt lat="46.442787" lon="12.8806242"><ele>458.0</ele><time>2026-03-29T12:29:15.711Z</time></trkpt><trkpt lat="46.4426172" lon="12.8807773"><ele>458.0</ele><time>2026-03-29T12:29:16.734Z</time></trkpt><trkpt lat="46.442446" lon="12.880928"><ele>458.0</ele><time>2026-03-29T12:29:17.724Z</time></trkpt><trkpt lat="46.4422752" lon="12.8810805"><ele>458.0</ele><time>2026-03-29T12:29:18.734Z</time></trkpt><trkpt lat="46.442108" lon="12.8812456"><ele>458.0</ele><time>2026-03-29T12:29:19.704Z</time></trkpt><trkpt lat="46.4419333" lon="12.8813939"><ele>458.0</ele><time>2026-03-29T12:29:20.71Z</time></trkpt><trkpt lat="46.4417698" lon="12.8815528"><ele>458.0</ele><time>2026-03-29T12:29:21.727Z</time></trkpt><trkpt lat="46.4416027" lon="12.8816842"><ele>458.0</ele><time>2026-03-29T12:29:22.704Z</time></trkpt><trkpt lat="46.4414452" lon="12.881825"><ele>458.0</ele><time>2026-03-29T12:29:23.722Z</time></trkpt><trkpt lat="46.4412951" lon="12.8819638"><ele>459.66666666666663</ele><time>2026-03-29T12:29:24.705Z</time></trkpt><trkpt lat="46.4411448" lon="12.8820886"><ele>461.33333333333337</ele><time>2026-03-29T12:29:25.71Z</time></trkpt><trkpt lat="46.4409804" lon="12.8821766"><ele>463.0</ele><time>2026-03-29T12:29:26.698Z</time></trkpt><trkpt lat="46.4407982" lon="12.8822202"><ele>463.0</ele><time>2026-03-29T12:29:27.709Z</time></trkpt><trkpt lat="46.4406129" lon="12.8822357"><ele>463.0</ele><time>2026-03-29T12:29:28.705Z</time></trkpt><trkpt lat="46.4404289" lon="12.8822515"><ele>463.0</ele><time>2026-03-29T12:29:29.71Z</time></trkpt><trkpt lat="46.4402496" lon="12.882287"><ele>458.0</ele><time>2026-03-29T12:29:30.707Z</time></trkpt><trkpt lat="46.4400756" lon="12.8823375"><ele>453.0</ele><time>2026-03-29T12:29:31.711Z</time></trkpt><trkpt lat="46.4399041" lon="12.8823978"><ele>448.0</ele><time>2026-03-29T12:29:32.716Z</time></trkpt><trkpt lat="46.4397388" lon="12.8824726"><ele>444.6666666666667</ele><time>2026-03-29T12:29:33.699Z</time></trkpt><trkpt lat="46.4395732" lon="12.8825297"><ele>441.33333333333337</ele><time>2026-03-29T12:29:34.703Z</time></trkpt><trkpt lat="46.4394055" lon="12.8825583"><ele>438.0</ele><time>2026-03-29T12:29:35.713Z</time></trkpt><trkpt lat="46.4392406" lon="12.8825681"><ele>438.0</ele><time>2026-03-29T12:29:36.708Z</time></trkpt><trkpt lat="46.4390787" lon="12.8825753"><ele>438.0</ele><time>2026-03-29T12:29:37.722Z</time></trkpt><trkpt lat="46.4389153" lon="12.8826134"><ele>438.0</ele><time>2026-03-29T12:29:38.723Z</time></trkpt><trkpt lat="46.4387501" lon="12.8826872"><ele>442.0</ele><time>2026-03-29T12:29:39.715Z</time></trkpt><trkpt lat="46.4385841" lon="12.8827928"><ele>446.0</ele><time>2026-03-29T12:29:40.713Z</time></trkpt><trkpt lat="46.4384177" lon="12.8829327"><ele>450.0</ele><time>2026-03-29T12:29:41.693Z</time></trkpt><trkpt lat="46.4382529" lon="12.8830933"><ele>450.0</ele><time>2026-03-29T12:29:42.704Z</time></trkpt><trkpt lat="46.4381006" lon="12.8832818"><ele>450.0</ele><time>2026-03-29T12:29:43.702Z</time></trkpt><trkpt lat="46.4379405" lon="12.8834405"><ele>450.0</ele><time>2026-03-29T12:29:44.69Z</time></trkpt><trkpt lat="46.4377861" lon="12.8836043"><ele>446.0</ele><time>2026-03-29T12:29:45.7Z</time></trkpt><trkpt lat="46.4376334" lon="12.8837768"><ele>442.0</ele><time>2026-03-29T12:29:46.703Z</time></trkpt><trkpt lat="46.4374837" lon="12.8839693"><ele>438.0</ele><time>2026-03-29T12:29:47.703Z</time></trkpt><trkpt lat="46.4373386" lon="12.8841771"><ele>435.66666666666663</ele><time>2026-03-29T12:29:48.703Z</time></trkpt><trkpt lat="46.4371976" lon="12.8843823"><ele>433.3333333333333</ele><time>2026-03-29T12:29:49.701Z</time></trkpt><trkpt lat="46.4370729" lon="12.8845978"><ele>431.0</ele><time>2026-03-29T12:29:50.708Z</time></trkpt><trkpt lat="46.4369467" lon="12.8848015"><ele>431.0</ele><time>2026-03-29T12:29:51.704Z</time></trkpt><trkpt lat="46.4368281" lon="12.885002"><ele>431.0</ele><time>2026-03-29T12:29:52.702Z</time></trkpt><trkpt lat="46.4367142" lon="12.885203"><ele>431.0</ele><time>2026-03-29T12:29:53.703Z</time></trkpt><trkpt lat="46.4366131" lon="12.8854234"><ele>435.3333333333333</ele><time>2026-03-29T12:29:54.699Z</time></trkpt><trkpt lat="46.4365137" lon="12.8856431"><ele>439.66666666666663</ele><time>2026-03-29T12:29:55.707Z</time></trkpt><trkpt lat="46.4364135" lon="12.8858564"><ele>444.0</ele><time>2026-03-29T12:29:56.694Z</time></trkpt><trkpt lat="46.4363102" lon="12.8860631"><ele>442.66666666666663</ele><time>2026-03-29T12:29:57.698Z</time></trkpt><trkpt lat="46.436194" lon="12.8862565"><ele>441.3333333333333</ele><time>2026-03-29T12:29:58.704Z</time></trkpt><trkpt lat="46.4360596" lon="12.886438"><ele>440.0</ele><time>2026-03-29T12:29:59.699Z</time></trkpt><trkpt lat="46.4358917" lon="12.8865715"><ele>440.0</ele><time>2026-03-29T12:30:00.693Z</time></trkpt><trkpt lat="46.435726" lon="12.8866949"><ele>440.0</ele><time>2026-03-29T12:30:01.709Z</time></trkpt><trkpt lat="46.435583" lon="12.8868613"><ele>440.0</ele><time>2026-03-29T12:30:02.712Z</time></trkpt><trkpt lat="46.4354376" lon="12.8870069"><ele>441.0</ele><time>2026-03-29T12:30:03.704Z</time></trkpt><trkpt lat="46.4353022" lon="12.8871494"><ele>442.0</ele><time>2026-03-29T12:30:04.72Z</time></trkpt><trkpt lat="46.4351667" lon="12.8872699"><ele>443.0</ele><time>2026-03-29T12:30:05.708Z</time></trkpt><trkpt lat="46.4350333" lon="12.8873708"><ele>443.0</ele><time>2026-03-29T12:30:06.717Z</time></trkpt><trkpt lat="46.4348819" lon="12.8874255"><ele>443.0</ele><time>2026-03-29T12:30:07.71Z</time></trkpt><trkpt lat="46.4347144" lon="12.887435"><ele>443.0</ele><time>2026-03-29T12:30:08.711Z</time></trkpt><trkpt lat="46.4345517" lon="12.8874129"><ele>440.66666666666663</ele><time>2026-03-29T12:30:09.712Z</time></trkpt><trkpt lat="46.4343967" lon="12.8873712"><ele>438.33333333333337</ele><time>2026-03-29T12:30:10.683Z</time></trkpt><trkpt lat="46.4342415" lon="12.8873421"><ele>436.0</ele><time>2026-03-29T12:30:11.7Z</time></trkpt><trkpt lat="46.4340855" lon="12.8873388"><ele>436.0</ele><time>2026-03-29T12:30:12.714Z</time></trkpt><trkpt lat="46.4339275" lon="12.8873937"><ele>436.0</ele><time>2026-03-29T12:30:13.725Z</time></trkpt><trkpt lat="46.4337653" lon="12.8874632"><ele>436.0</ele><time>2026-03-29T12:30:14.706Z</time></trkpt><trkpt lat="46.4336157" lon="12.8875888"><ele>435.6666666666667</ele><time>2026-03-29T12:30:15.712Z</time></trkpt><trkpt lat="46.4334685" lon="12.8877161"><ele>435.33333333333337</ele><time>2026-03-29T12:30:16.714Z</time></trkpt><trkpt lat="46.4333311" lon="12.8878525"><ele>435.0</ele><time>2026-03-29T12:30:17.714Z</time></trkpt><trkpt lat="46.4332054" lon="12.8879763"><ele>435.0</ele><time>2026-03-29T12:30:18.719Z</time></trkpt><trkpt lat="46.4331035" lon="12.8881207"><ele>435.0</ele><time>2026-03-29T12:30:19.702Z</time></trkpt><trkpt lat="46.4330533" lon="12.8883102"><ele>435.0</ele><time>2026-03-29T12:30:20.719Z</time></trkpt><trkpt lat="46.4330525" lon="12.8885069"><ele>435.0</ele><time>2026-03-29T12:30:21.698Z</time></trkpt><trkpt lat="46.4330604" lon="12.8886847"><ele>434.25</ele><time>2026-03-29T12:30:22.711Z</time></trkpt><trkpt lat="46.433107" lon="12.8888721"><ele>433.5</ele><time>2026-03-29T12:30:23.717Z</time></trkpt><trkpt lat="46.4331604" lon="12.8890754"><ele>432.75</ele><time>2026-03-29T12:30:24.711Z</time></trkpt><trkpt lat="46.4332128" lon="12.8892894"><ele>432.0</ele><time>2026-03-29T12:30:25.707Z</time></trkpt><trkpt lat="46.4332574" lon="12.8894942"><ele>431.0</ele><time>2026-03-29T12:30:26.71Z</time></trkpt><trkpt lat="46.433297" lon="12.8896959"><ele>430.0</ele><time>2026-03-29T12:30:27.72Z</time></trkpt><trkpt lat="46.4333201" lon="12.8899024"><ele>429.0</ele><time>2026-03-29T12:30:28.72Z</time></trkpt><trkpt lat="46.4333324" lon="12.8901167"><ele>428.0</ele><time>2026-03-29T12:30:29.713Z</time></trkpt><trkpt lat="46.4333327" lon="12.8903389"><ele>427.66666666666663</ele><time>2026-03-29T12:30:30.709Z</time></trkpt><trkpt lat="46.433299" lon="12.8905717"><ele>427.33333333333337</ele><time>2026-03-29T12:30:31.713Z</time></trkpt><trkpt lat="46.4332498" lon="12.890819"><ele>427.0</ele><time>2026-03-29T12:30:32.716Z</time></trkpt><trkpt lat="46.4331903" lon="12.891073"><ele>428.0</ele><time>2026-03-29T12:30:33.706Z</time></trkpt><trkpt lat="46.433125" lon="12.8913077"><ele>429.0</ele><time>2026-03-29T12:30:34.723Z</time></trkpt><trkpt lat="46.4330726" lon="12.8915377"><ele>430.0</ele><time>2026-03-29T12:30:35.72Z</time></trkpt><trkpt lat="46.4330231" lon="12.89176"><ele>430.6666666666667</ele><time>2026-03-29T12:30:36.708Z</time></trkpt><trkpt lat="46.4329739" lon="12.8919709"><ele>431.33333333333337</ele><time>2026-03-29T12:30:37.718Z</time></trkpt><trkpt lat="46.4329271" lon="12.8921808"><ele>432.0</ele><time>2026-03-29T12:30:38.706Z</time></trkpt><trkpt lat="46.4328827" lon="12.8923926"><ele>427.25</ele><time>2026-03-29T12:30:39.72Z</time></trkpt><trkpt lat="46.4328321" lon="12.892595"><ele>422.5</ele><time>2026-03-29T12:30:40.722Z</time></trkpt><trkpt lat="46.4327874" lon="12.8927953"><ele>417.75</ele><time>2026-03-29T12:30:41.706Z</time></trkpt><trkpt lat="46.4327346" lon="12.8929845"><ele>413.0</ele><time>2026-03-29T12:30:42.71Z</time></trkpt><trkpt lat="46.4326702" lon="12.8931607"><ele>413.0</ele><time>2026-03-29T12:30:43.713Z</time></trkpt><trkpt lat="46.4325941" lon="12.893319"><ele>413.0</ele><time>2026-03-29T12:30:44.735Z</time></trkpt><trkpt lat="46.4325203" lon="12.8934767"><ele>413.0</ele><time>2026-03-29T12:30:45.727Z</time></trkpt><trkpt lat="46.4324426" lon="12.8936339"><ele>413.0</ele><time>2026-03-29T12:30:46.709Z</time></trkpt><trkpt lat="46.432362" lon="12.8937896"><ele>413.0</ele><time>2026-03-29T12:30:47.691Z</time></trkpt><trkpt lat="46.432282" lon="12.8939451"><ele>413.0</ele><time>2026-03-29T12:30:48.719Z</time></trkpt><trkpt lat="46.4321964" lon="12.8940921"><ele>413.0</ele><time>2026-03-29T12:30:49.704Z</time></trkpt><trkpt lat="46.4321171" lon="12.8942546"><ele>413.0</ele><time>2026-03-29T12:30:50.691Z</time></trkpt><trkpt lat="46.432039" lon="12.894432"><ele>413.0</ele><time>2026-03-29T12:30:51.706Z</time></trkpt><trkpt lat="46.4319747" lon="12.8946329"><ele>413.0</ele><time>2026-03-29T12:30:52.695Z</time></trkpt><trkpt lat="46.4319322" lon="12.8948481"><ele>413.0</ele><time>2026-03-29T12:30:53.703Z</time></trkpt><trkpt lat="46.4319116" lon="12.8950699"><ele>416.5</ele><time>2026-03-29T12:30:54.706Z</time></trkpt><trkpt lat="46.4318908" lon="12.8952827"><ele>420.0</ele><time>2026-03-29T12:30:55.717Z</time></trkpt><trkpt lat="46.4318372" lon="12.8954707"><ele>423.5</ele><time>2026-03-29T12:30:56.733Z</time></trkpt><trkpt lat="46.4317535" lon="12.8956298"><ele>427.0</ele><time>2026-03-29T12:30:57.731Z</time></trkpt><trkpt lat="46.4316455" lon="12.8957657"><ele>427.0</ele><time>2026-03-29T12:30:58.717Z</time></trkpt><trkpt lat="46.4315174" lon="12.895878"><ele>427.0</ele><time>2026-03-29T12:30:59.704Z</time></trkpt><trkpt lat="46.4313902" lon="12.896005"><ele>427.0</ele><time>2026-03-29T12:31:00.715Z</time></trkpt><trkpt lat="46.4312762" lon="12.8961532"><ele>428.33333333333337</ele><time>2026-03-29T12:31:01.72Z</time></trkpt><trkpt lat="46.4311615" lon="12.8962954"><ele>429.66666666666663</ele><time>2026-03-29T12:31:02.704Z</time></trkpt><trkpt lat="46.4310362" lon="12.8964145"><ele>431.0</ele><time>2026-03-29T12:31:03.711Z</time></trkpt><trkpt lat="46.4309052" lon="12.8965176"><ele>431.0</ele><time>2026-03-29T12:31:04.723Z</time></trkpt><trkpt lat="46.4307686" lon="12.8965959"><ele>431.0</ele><time>2026-03-29T12:31:05.712Z</time></trkpt><trkpt lat="46.4306318" lon="12.8966516"><ele>431.0</ele><time>2026-03-29T12:31:06.734Z</time></trkpt><trkpt lat="46.4305044" lon="12.8967064"><ele>431.0</ele><time>2026-03-29T12:31:07.723Z</time></trkpt><trkpt lat="46.4303814" lon="12.896756"><ele>429.0</ele><time>2026-03-29T12:31:08.703Z</time></trkpt><trkpt lat="46.4302619" lon="12.8968317"><ele>427.0</ele><time>2026-03-29T12:31:09.72Z</time></trkpt><trkpt lat="46.4301567" lon="12.8969384"><ele>425.0</ele><time>2026-03-29T12:31:10.717Z</time></trkpt><trkpt lat="46.430067" lon="12.8970632"><ele>423.0</ele><time>2026-03-29T12:31:11.695Z</time></trkpt><trkpt lat="46.4299918" lon="12.8971997"><ele>423.0</ele><time>2026-03-29T12:31:12.712Z</time></trkpt><trkpt lat="46.4299215" lon="12.8973453"><ele>423.0</ele><time>2026-03-29T12:31:13.709Z</time></trkpt><trkpt lat="46.4298741" lon="12.8974986"><ele>423.0</ele><time>2026-03-29T12:31:14.711Z</time></trkpt><trkpt lat="46.429853" lon="12.8976612"><ele>423.0</ele><time>2026-03-29T12:31:15.709Z</time></trkpt><trkpt lat="46.4298117" lon="12.8978074"><ele>427.5</ele><time>2026-03-29T12:31:16.706Z</time></trkpt><trkpt lat="46.4297403" lon="12.8979389"><ele>432.0</ele><time>2026-03-29T12:31:17.703Z</time></trkpt><trkpt lat="46.4296586" lon="12.8980718"><ele>436.5</ele><time>2026-03-29T12:31:18.714Z</time></trkpt><trkpt lat="46.4295823" lon="12.8982105"><ele>441.0</ele><time>2026-03-29T12:31:19.706Z</time></trkpt><trkpt lat="46.4295247" lon="12.898361"><ele>432.5</ele><time>2026-03-29T12:31:20.702Z</time></trkpt><trkpt lat="46.4294847" lon="12.8985207"><ele>424.0</ele><time>2026-03-29T12:31:21.7Z</time></trkpt><trkpt lat="46.4294461" lon="12.8986753"><ele>415.5</ele><time>2026-03-29T12:31:22.696Z</time></trkpt><trkpt lat="46.4294402" lon="12.898852"><ele>407.0</ele><time>2026-03-29T12:31:23.717Z</time></trkpt><trkpt lat="46.4294628" lon="12.899026"><ele>407.0</ele><time>2026-03-29T12:31:24.701Z</time></trkpt><trkpt lat="46.4294776" lon="12.8992077"><ele>407.0</ele><time>2026-03-29T12:31:25.708Z</time></trkpt><trkpt lat="46.429458" lon="12.8994197"><ele>407.0</ele><time>2026-03-29T12:31:26.703Z</time></trkpt><trkpt lat="46.4293852" lon="12.899664"><ele>409.3333333333333</ele><time>2026-03-29T12:31:27.691Z</time></trkpt><trkpt lat="46.4293145" lon="12.8999398"><ele>411.66666666666663</ele><time>2026-03-29T12:31:28.708Z</time></trkpt><trkpt lat="46.4292303" lon="12.9002249"><ele>414.0</ele><time>2026-03-29T12:31:29.692Z</time></trkpt><trkpt lat="46.4291078" lon="12.9004761"><ele>416.0</ele><time>2026-03-29T12:31:30.716Z</time></trkpt><trkpt lat="46.4289994" lon="12.9007263"><ele>418.0</ele><time>2026-03-29T12:31:31.704Z</time></trkpt><trkpt lat="46.4288549" lon="12.9009518"><ele>420.0</ele><time>2026-03-29T12:31:32.693Z</time></trkpt><trkpt lat="46.4287206" lon="12.9011952"><ele>420.0</ele><time>2026-03-29T12:31:33.716Z</time></trkpt><trkpt lat="46.4285626" lon="12.9014284"><ele>420.0</ele><time>2026-03-29T12:31:34.699Z</time></trkpt><trkpt lat="46.4283718" lon="12.9016477"><ele>417.5</ele><time>2026-03-29T12:31:35.704Z</time></trkpt><trkpt lat="46.4281556" lon="12.9018514"><ele>415.0</ele><time>2026-03-29T12:31:36.727Z</time></trkpt><trkpt lat="46.4279587" lon="12.9020572"><ele>415.0</ele><time>2026-03-29T12:31:37.717Z</time></trkpt><trkpt lat="46.4277791" lon="12.9022532"><ele>415.0</ele><time>2026-03-29T12:31:38.713Z</time></trkpt><trkpt lat="46.4276186" lon="12.9024483"><ele>415.0</ele><time>2026-03-29T12:31:39.707Z</time></trkpt><trkpt lat="46.427476" lon="12.9026438"><ele>418.6666666666667</ele><time>2026-03-29T12:31:40.709Z</time></trkpt><trkpt lat="46.4273678" lon="12.9028636"><ele>422.33333333333337</ele><time>2026-03-29T12:31:41.698Z</time></trkpt><trkpt lat="46.4273175" lon="12.9031246"><ele>426.0</ele><time>2026-03-29T12:31:42.715Z</time></trkpt><trkpt lat="46.4272657" lon="12.903367"><ele>431.66666666666663</ele><time>2026-03-29T12:31:43.723Z</time></trkpt><trkpt lat="46.4272086" lon="12.9035951"><ele>437.3333333333333</ele><time>2026-03-29T12:31:44.721Z</time></trkpt><trkpt lat="46.4271417" lon="12.9038108"><ele>443.0</ele><time>2026-03-29T12:31:45.704Z</time></trkpt><trkpt lat="46.4270416" lon="12.9039993"><ele>447.66666666666663</ele><time>2026-03-29T12:31:46.711Z</time></trkpt><trkpt lat="46.4269055" lon="12.90415"><ele>452.33333333333337</ele><time>2026-03-29T12:31:47.717Z</time></trkpt><trkpt lat="46.4267596" lon="12.9043184"><ele>457.0</ele><time>2026-03-29T12:31:48.717Z</time></trkpt><trkpt lat="46.4265881" lon="12.9044491"><ele>457.0</ele><time>2026-03-29T12:31:49.714Z</time></trkpt><trkpt lat="46.4264246" lon="12.9045943"><ele>457.0</ele><time>2026-03-29T12:31:50.713Z</time></trkpt><trkpt lat="46.4262397" lon="12.9046498"><ele>457.0</ele><time>2026-03-29T12:31:51.735Z</time></trkpt><trkpt lat="46.4260581" lon="12.9047015"><ele>445.5</ele><time>2026-03-29T12:31:52.712Z</time></trkpt><trkpt lat="46.4258862" lon="12.9047188"><ele>434.0</ele><time>2026-03-29T12:31:53.705Z</time></trkpt><trkpt lat="46.4255416" lon="12.9047964"><ele>425.5</ele><time>2026-03-29T12:31:56.727Z</time></trkpt><trkpt lat="46.4253658" lon="12.9047953"><ele>417.0</ele><time>2026-03-29T12:31:57.695Z</time></trkpt><trkpt lat="46.4226252" lon="12.9055949"><ele>413.33333333333337</ele><time>2026-03-29T12:32:09.707Z</time></trkpt><trkpt lat="46.422509" lon="12.9058279"><ele>409.6666666666667</ele><time>2026-03-29T12:32:10.694Z</time></trkpt><trkpt lat="46.4224452" lon="12.9060417"><ele>406.0</ele><time>2026-03-29T12:32:11.704Z</time></trkpt><trkpt lat="46.4224581" lon="12.9063432"><ele>406.0</ele><time>2026-03-29T12:32:12.732Z</time></trkpt><trkpt lat="46.4223439" lon="12.9064435"><ele>406.0</ele><time>2026-03-29T12:32:13.705Z</time></trkpt><trkpt lat="46.422265" lon="12.9065874"><ele>406.0</ele><time>2026-03-29T12:32:14.717Z</time></trkpt><trkpt lat="46.4222117" lon="12.9067643"><ele>406.0</ele><time>2026-03-29T12:32:15.71Z</time></trkpt><trkpt lat="46.4221967" lon="12.9070012"><ele>408.0</ele><time>2026-03-29T12:32:16.706Z</time></trkpt><trkpt lat="46.422163" lon="12.9072554"><ele>410.0</ele><time>2026-03-29T12:32:17.731Z</time></trkpt><trkpt lat="46.4221633" lon="12.9075353"><ele>412.0</ele><time>2026-03-29T12:32:18.71Z</time></trkpt><trkpt lat="46.422163" lon="12.9077892"><ele>412.0</ele><time>2026-03-29T12:32:19.711Z</time></trkpt><trkpt lat="46.4221723" lon="12.9080242"><ele>412.0</ele><time>2026-03-29T12:32:20.703Z</time></trkpt><trkpt lat="46.4221812" lon="12.9082512"><ele>412.0</ele><time>2026-03-29T12:32:21.701Z</time></trkpt><trkpt lat="46.4221619" lon="12.908477"><ele>404.0</ele><time>2026-03-29T12:32:22.706Z</time></trkpt><trkpt lat="46.4221084" lon="12.908697"><ele>396.0</ele><time>2026-03-29T12:32:23.709Z</time></trkpt><trkpt lat="46.4220036" lon="12.9089091"><ele>388.0</ele><time>2026-03-29T12:32:24.71Z</time></trkpt><trkpt lat="46.4218916" lon="12.9091183"><ele>391.33333333333337</ele><time>2026-03-29T12:32:25.719Z</time></trkpt><trkpt lat="46.4217918" lon="12.9093394"><ele>394.66666666666663</ele><time>2026-03-29T12:32:26.711Z</time></trkpt><trkpt lat="46.4216769" lon="12.9095269"><ele>398.0</ele><time>2026-03-29T12:32:27.714Z</time></trkpt><trkpt lat="46.4215754" lon="12.9097107"><ele>398.0</ele><time>2026-03-29T12:32:28.722Z</time></trkpt><trkpt lat="46.4214425" lon="12.9098384"><ele>398.0</ele><time>2026-03-29T12:32:29.714Z</time></trkpt><trkpt lat="46.4213076" lon="12.9099569"><ele>398.0</ele><time>2026-03-29T12:32:30.719Z</time></trkpt><trkpt lat="46.4211721" lon="12.9100732"><ele>394.66666666666663</ele><time>2026-03-29T12:32:31.704Z</time></trkpt><trkpt lat="46.4210349" lon="12.9101832"><ele>391.33333333333337</ele><time>2026-03-29T12:32:32.714Z</time></trkpt><trkpt lat="46.4209038" lon="12.910292"><ele>388.0</ele><time>2026-03-29T12:32:33.719Z</time></trkpt><trkpt lat="46.4207647" lon="12.9103802"><ele>388.0</ele><time>2026-03-29T12:32:34.756Z</time></trkpt><trkpt lat="46.4206252" lon="12.9104773"><ele>388.0</ele><time>2026-03-29T12:32:35.695Z</time></trkpt><trkpt lat="46.420494" lon="12.9105994"><ele>388.0</ele><time>2026-03-29T12:32:36.714Z</time></trkpt><trkpt lat="46.4203593" lon="12.9107073"><ele>388.0</ele><time>2026-03-29T12:32:37.749Z</time></trkpt><trkpt lat="46.4202281" lon="12.910829"><ele>388.0</ele><time>2026-03-29T12:32:38.719Z</time></trkpt><trkpt lat="46.4201004" lon="12.9109589"><ele>388.0</ele><time>2026-03-29T12:32:39.706Z</time></trkpt><trkpt lat="46.4199668" lon="12.9110697"><ele>388.0</ele><time>2026-03-29T12:32:40.726Z</time></trkpt><trkpt lat="46.4198368" lon="12.9111811"><ele>388.0</ele><time>2026-03-29T12:32:41.725Z</time></trkpt><trkpt lat="46.4197166" lon="12.9112989"><ele>388.0</ele><time>2026-03-29T12:32:42.711Z</time></trkpt><trkpt lat="46.4196062" lon="12.9114271"><ele>388.0</ele><time>2026-03-29T12:32:43.718Z</time></trkpt><trkpt lat="46.4195026" lon="12.9115688"><ele>386.6666666666667</ele><time>2026-03-29T12:32:44.706Z</time></trkpt><trkpt lat="46.4194006" lon="12.9117261"><ele>385.33333333333337</ele><time>2026-03-29T12:32:45.712Z</time></trkpt><trkpt lat="46.4192952" lon="12.911896"><ele>384.0</ele><time>2026-03-29T12:32:46.734Z</time></trkpt><trkpt lat="46.4191842" lon="12.9120657"><ele>383.3333333333333</ele><time>2026-03-29T12:32:47.708Z</time></trkpt><trkpt lat="46.4190763" lon="12.9122363"><ele>382.66666666666663</ele><time>2026-03-29T12:32:48.711Z</time></trkpt><trkpt lat="46.4189712" lon="12.9124036"><ele>382.0</ele><time>2026-03-29T12:32:49.707Z</time></trkpt><trkpt lat="46.4188701" lon="12.9125652"><ele>381.0</ele><time>2026-03-29T12:32:50.711Z</time></trkpt><trkpt lat="46.4187716" lon="12.9127055"><ele>380.0</ele><time>2026-03-29T12:32:51.704Z</time></trkpt><trkpt lat="46.4186886" lon="12.9128311"><ele>379.0</ele><time>2026-03-29T12:32:52.707Z</time></trkpt><trkpt lat="46.418612" lon="12.9129411"><ele>378.0</ele><time>2026-03-29T12:32:53.696Z</time></trkpt><trkpt lat="46.4185433" lon="12.9130553"><ele>378.0</ele><time>2026-03-29T12:32:54.697Z</time></trkpt><trkpt lat="46.4184854" lon="12.9131826"><ele>378.0</ele><time>2026-03-29T12:32:55.722Z</time></trkpt><trkpt lat="46.4184368" lon="12.9133175"><ele>378.0</ele><time>2026-03-29T12:32:56.707Z</time></trkpt><trkpt lat="46.4183755" lon="12.9134373"><ele>378.0</ele><time>2026-03-29T12:32:57.712Z</time></trkpt><trkpt lat="46.4183077" lon="12.9135581"><ele>378.0</ele><time>2026-03-29T12:32:58.7Z</time></trkpt><trkpt lat="46.4182401" lon="12.9136933"><ele>377.75</ele><time>2026-03-29T12:32:59.711Z</time></trkpt><trkpt lat="46.4181937" lon="12.913863"><ele>377.5</ele><time>2026-03-29T12:33:00.71Z</time></trkpt><trkpt lat="46.4181613" lon="12.9140554"><ele>377.25</ele><time>2026-03-29T12:33:01.71Z</time></trkpt><trkpt lat="46.418136" lon="12.9142655"><ele>377.0</ele><time>2026-03-29T12:33:02.7Z</time></trkpt><trkpt lat="46.4181097" lon="12.9144752"><ele>376.75</ele><time>2026-03-29T12:33:03.719Z</time></trkpt><trkpt lat="46.4180773" lon="12.9146817"><ele>376.5</ele><time>2026-03-29T12:33:04.707Z</time></trkpt><trkpt lat="46.4180476" lon="12.9148885"><ele>376.25</ele><time>2026-03-29T12:33:05.71Z</time></trkpt><trkpt lat="46.4180172" lon="12.9150923"><ele>376.0</ele><time>2026-03-29T12:33:06.7Z</time></trkpt><trkpt lat="46.4179812" lon="12.9152885"><ele>375.5</ele><time>2026-03-29T12:33:07.703Z</time></trkpt><trkpt lat="46.4179409" lon="12.9154775"><ele>375.0</ele><time>2026-03-29T12:33:08.702Z</time></trkpt><trkpt lat="46.4179023" lon="12.9156616"><ele>374.5</ele><time>2026-03-29T12:33:09.703Z</time></trkpt><trkpt lat="46.4178655" lon="12.9158444"><ele>374.0</ele><time>2026-03-29T12:33:10.707Z</time></trkpt><trkpt lat="46.4178264" lon="12.9160254"><ele>373.5</ele><time>2026-03-29T12:33:11.699Z</time></trkpt><trkpt lat="46.4177886" lon="12.9162043"><ele>373.0</ele><time>2026-03-29T12:33:12.701Z</time></trkpt><trkpt lat="46.4177459" lon="12.9163774"><ele>372.5</ele><time>2026-03-29T12:33:13.703Z</time></trkpt><trkpt lat="46.4177103" lon="12.9165544"><ele>372.0</ele><time>2026-03-29T12:33:14.712Z</time></trkpt><trkpt lat="46.417679" lon="12.9167412"><ele>372.0</ele><time>2026-03-29T12:33:15.71Z</time></trkpt><trkpt lat="46.4176462" lon="12.9169395"><ele>372.0</ele><time>2026-03-29T12:33:16.713Z</time></trkpt><trkpt lat="46.4176072" lon="12.9171493"><ele>372.0</ele><time>2026-03-29T12:33:17.704Z</time></trkpt><trkpt lat="46.4175579" lon="12.9173635"><ele>372.0</ele><time>2026-03-29T12:33:18.718Z</time></trkpt><trkpt lat="46.4175231" lon="12.917587"><ele>372.0</ele><time>2026-03-29T12:33:19.726Z</time></trkpt><trkpt lat="46.4174848" lon="12.9178081"><ele>372.0</ele><time>2026-03-29T12:33:20.699Z</time></trkpt><trkpt lat="46.4174472" lon="12.9180305"><ele>372.0</ele><time>2026-03-29T12:33:21.704Z</time></trkpt><trkpt lat="46.417417" lon="12.9182584"><ele>372.0</ele><time>2026-03-29T12:33:22.692Z</time></trkpt><trkpt lat="46.4173744" lon="12.9184871"><ele>372.0</ele><time>2026-03-29T12:33:23.72Z</time></trkpt><trkpt lat="46.4173129" lon="12.9187126"><ele>372.0</ele><time>2026-03-29T12:33:24.7Z</time></trkpt><trkpt lat="46.4172576" lon="12.9189396"><ele>372.0</ele><time>2026-03-29T12:33:25.71Z</time></trkpt><trkpt lat="46.4171947" lon="12.9191446"><ele>372.0</ele><time>2026-03-29T12:33:26.728Z</time></trkpt><trkpt lat="46.4171307" lon="12.9193168"><ele>372.0</ele><time>2026-03-29T12:33:27.719Z</time></trkpt><trkpt lat="46.4170967" lon="12.9194684"><ele>372.0</ele><time>2026-03-29T12:33:28.722Z</time></trkpt><trkpt lat="46.4170622" lon="12.9195953"><ele>371.1666666666667</ele><time>2026-03-29T12:33:29.716Z</time></trkpt><trkpt lat="46.4170086" lon="12.9196968"><ele>370.3333333333333</ele><time>2026-03-29T12:33:30.727Z</time></trkpt><trkpt lat="46.4169486" lon="12.9197618"><ele>369.5</ele><time>2026-03-29T12:33:31.707Z</time></trkpt><trkpt lat="46.4168842" lon="12.9197991"><ele>368.66666666666663</ele><time>2026-03-29T12:33:32.704Z</time></trkpt><trkpt lat="46.416848" lon="12.9198989"><ele>367.8333333333333</ele><time>2026-03-29T12:33:33.691Z</time></trkpt><trkpt lat="46.4168182" lon="12.9200018"><ele>367.0</ele><time>2026-03-29T12:33:34.691Z</time></trkpt><trkpt lat="46.4168334" lon="12.9201473"><ele>366.75</ele><time>2026-03-29T12:33:35.722Z</time></trkpt><trkpt lat="46.4168628" lon="12.9203139"><ele>366.5</ele><time>2026-03-29T12:33:36.699Z</time></trkpt><trkpt lat="46.4169112" lon="12.9204923"><ele>366.25</ele><time>2026-03-29T12:33:37.705Z</time></trkpt><trkpt lat="46.4169089" lon="12.920703"><ele>366.0</ele><time>2026-03-29T12:33:38.699Z</time></trkpt><trkpt lat="46.4168735" lon="12.9209144"><ele>365.6666666666667</ele><time>2026-03-29T12:33:39.712Z</time></trkpt><trkpt lat="46.4168288" lon="12.9211253"><ele>365.33333333333337</ele><time>2026-03-29T12:33:40.711Z</time></trkpt><trkpt lat="46.4167773" lon="12.9213381"><ele>365.0</ele><time>2026-03-29T12:33:41.692Z</time></trkpt><trkpt lat="46.4167355" lon="12.9215617"><ele>365.33333333333337</ele><time>2026-03-29T12:33:42.707Z</time></trkpt><trkpt lat="46.4166931" lon="12.9217885"><ele>365.6666666666667</ele><time>2026-03-29T12:33:43.701Z</time></trkpt><trkpt lat="46.4166454" lon="12.9220136"><ele>366.0</ele><time>2026-03-29T12:33:44.716Z</time></trkpt><trkpt lat="46.4166075" lon="12.9222418"><ele>366.0</ele><time>2026-03-29T12:33:45.714Z</time></trkpt><trkpt lat="46.4165378" lon="12.9224566"><ele>366.0</ele><time>2026-03-29T12:33:46.712Z</time></trkpt><trkpt lat="46.416478" lon="12.922671"><ele>366.0</ele><time>2026-03-29T12:33:47.715Z</time></trkpt><trkpt lat="46.4164284" lon="12.9228842"><ele>366.25</ele><time>2026-03-29T12:33:48.72Z</time></trkpt><trkpt lat="46.4163581" lon="12.9230812"><ele>366.5</ele><time>2026-03-29T12:33:49.722Z</time></trkpt><trkpt lat="46.4163155" lon="12.9232852"><ele>366.75</ele><time>2026-03-29T12:33:50.72Z</time></trkpt><trkpt lat="46.4163218" lon="12.9234971"><ele>367.0</ele><time>2026-03-29T12:33:51.719Z</time></trkpt><trkpt lat="46.416299" lon="12.9236929"><ele>366.25</ele><time>2026-03-29T12:33:52.734Z</time></trkpt><trkpt lat="46.4162464" lon="12.9238725"><ele>365.5</ele><time>2026-03-29T12:33:53.714Z</time></trkpt><trkpt lat="46.4161936" lon="12.9240523"><ele>364.75</ele><time>2026-03-29T12:33:54.718Z</time></trkpt><trkpt lat="46.4161105" lon="12.9242086"><ele>364.0</ele><time>2026-03-29T12:33:55.714Z</time></trkpt><trkpt lat="46.4160382" lon="12.9243663"><ele>363.75</ele><time>2026-03-29T12:33:56.718Z</time></trkpt><trkpt lat="46.4159844" lon="12.9245369"><ele>363.5</ele><time>2026-03-29T12:33:57.703Z</time></trkpt><trkpt lat="46.4159411" lon="12.9247103"><ele>363.25</ele><time>2026-03-29T12:33:58.705Z</time></trkpt><trkpt lat="46.4159273" lon="12.9249033"><ele>363.0</ele><time>2026-03-29T12:33:59.702Z</time></trkpt><trkpt lat="46.4159125" lon="12.9251012"><ele>362.75</ele><time>2026-03-29T12:34:00.704Z</time></trkpt><trkpt lat="46.4158963" lon="12.9253033"><ele>362.5</ele><time>2026-03-29T12:34:01.707Z</time></trkpt><trkpt lat="46.4158524" lon="12.925498"><ele>362.25</ele><time>2026-03-29T12:34:02.707Z</time></trkpt><trkpt lat="46.4157897" lon="12.9256812"><ele>362.0</ele><time>2026-03-29T12:34:03.706Z</time></trkpt><trkpt lat="46.415753" lon="12.9258829"><ele>362.0</ele><time>2026-03-29T12:34:04.714Z</time></trkpt><trkpt lat="46.4157253" lon="12.9260981"><ele>362.0</ele><time>2026-03-29T12:34:05.705Z</time></trkpt><trkpt lat="46.4157083" lon="12.9263281"><ele>362.0</ele><time>2026-03-29T12:34:06.701Z</time></trkpt><trkpt lat="46.4156948" lon="12.9265814"><ele>362.0</ele><time>2026-03-29T12:34:07.716Z</time></trkpt><trkpt lat="46.4156818" lon="12.9268533"><ele>362.0</ele><time>2026-03-29T12:34:08.721Z</time></trkpt><trkpt lat="46.4156668" lon="12.9271221"><ele>362.0</ele><time>2026-03-29T12:34:09.711Z</time></trkpt><trkpt lat="46.4156534" lon="12.9273851"><ele>364.6666666666667</ele><time>2026-03-29T12:34:10.725Z</time></trkpt><trkpt lat="46.4156418" lon="12.9276426"><ele>367.3333333333333</ele><time>2026-03-29T12:34:11.74Z</time></trkpt><trkpt lat="46.4156212" lon="12.9278964"><ele>370.0</ele><time>2026-03-29T12:34:12.728Z</time></trkpt><trkpt lat="46.4155978" lon="12.9281504"><ele>374.0</ele><time>2026-03-29T12:34:13.704Z</time></trkpt><trkpt lat="46.4155846" lon="12.9284086"><ele>378.0</ele><time>2026-03-29T12:34:14.725Z</time></trkpt><trkpt lat="46.4155511" lon="12.9286654"><ele>382.0</ele><time>2026-03-29T12:34:15.735Z</time></trkpt><trkpt lat="46.415513" lon="12.9289222"><ele>376.3333333333333</ele><time>2026-03-29T12:34:16.72Z</time></trkpt><trkpt lat="46.4154653" lon="12.9291732"><ele>370.6666666666667</ele><time>2026-03-29T12:34:17.714Z</time></trkpt><trkpt lat="46.4154171" lon="12.9294198"><ele>365.0</ele><time>2026-03-29T12:34:18.718Z</time></trkpt><trkpt lat="46.4153685" lon="12.9296585"><ele>365.0</ele><time>2026-03-29T12:34:19.71Z</time></trkpt><trkpt lat="46.4153139" lon="12.9298848"><ele>365.0</ele><time>2026-03-29T12:34:20.734Z</time></trkpt><trkpt lat="46.4152527" lon="12.9301001"><ele>365.0</ele><time>2026-03-29T12:34:21.732Z</time></trkpt><trkpt lat="46.4151779" lon="12.9303036"><ele>365.6666666666667</ele><time>2026-03-29T12:34:22.72Z</time></trkpt><trkpt lat="46.4150842" lon="12.9304999"><ele>366.3333333333333</ele><time>2026-03-29T12:34:23.704Z</time></trkpt><trkpt lat="46.4149779" lon="12.9307058"><ele>367.0</ele><time>2026-03-29T12:34:24.703Z</time></trkpt><trkpt lat="46.414865" lon="12.9309254"><ele>369.66666666666663</ele><time>2026-03-29T12:34:25.71Z</time></trkpt><trkpt lat="46.4147475" lon="12.931159"><ele>372.3333333333333</ele><time>2026-03-29T12:34:26.694Z</time></trkpt><trkpt lat="46.4146254" lon="12.9314005"><ele>375.0</ele><time>2026-03-29T12:34:27.715Z</time></trkpt><trkpt lat="46.4145014" lon="12.9316416"><ele>369.6666666666667</ele><time>2026-03-29T12:34:28.701Z</time></trkpt><trkpt lat="46.4143773" lon="12.9318729"><ele>364.33333333333337</ele><time>2026-03-29T12:34:29.71Z</time></trkpt><trkpt lat="46.4142506" lon="12.9320876"><ele>359.0</ele><time>2026-03-29T12:34:30.709Z</time></trkpt><trkpt lat="46.4141237" lon="12.9322867"><ele>359.0</ele><time>2026-03-29T12:34:31.7Z</time></trkpt><trkpt lat="46.4140123" lon="12.9324922"><ele>359.0</ele><time>2026-03-29T12:34:32.694Z</time></trkpt><trkpt lat="46.4138966" lon="12.9326836"><ele>359.0</ele><time>2026-03-29T12:34:33.719Z</time></trkpt><trkpt lat="46.4137825" lon="12.932871"><ele>358.6666666666667</ele><time>2026-03-29T12:34:34.706Z</time></trkpt><trkpt lat="46.4136696" lon="12.9330542"><ele>358.3333333333333</ele><time>2026-03-29T12:34:35.711Z</time></trkpt><trkpt lat="46.4135627" lon="12.933246"><ele>358.0</ele><time>2026-03-29T12:34:36.713Z</time></trkpt><trkpt lat="46.4134673" lon="12.9334546"><ele>358.0</ele><time>2026-03-29T12:34:37.701Z</time></trkpt><trkpt lat="46.4133916" lon="12.9336872"><ele>358.0</ele><time>2026-03-29T12:34:38.705Z</time></trkpt><trkpt lat="46.4133218" lon="12.9339301"><ele>358.0</ele><time>2026-03-29T12:34:39.706Z</time></trkpt><trkpt lat="46.4132496" lon="12.934172"><ele>357.3333333333333</ele><time>2026-03-29T12:34:40.703Z</time></trkpt><trkpt lat="46.4131796" lon="12.9344173"><ele>356.6666666666667</ele><time>2026-03-29T12:34:41.717Z</time></trkpt><trkpt lat="46.4131099" lon="12.9346618"><ele>356.0</ele><time>2026-03-29T12:34:42.724Z</time></trkpt><trkpt lat="46.4130374" lon="12.9349032"><ele>355.6666666666667</ele><time>2026-03-29T12:34:43.73Z</time></trkpt><trkpt lat="46.4129674" lon="12.9351446"><ele>355.3333333333333</ele><time>2026-03-29T12:34:44.734Z</time></trkpt><trkpt lat="46.4128967" lon="12.935385"><ele>355.0</ele><time>2026-03-29T12:34:45.712Z</time></trkpt><trkpt lat="46.4128252" lon="12.9356248"><ele>355.0</ele><time>2026-03-29T12:34:46.709Z</time></trkpt><trkpt lat="46.4127565" lon="12.9358618"><ele>355.0</ele><time>2026-03-29T12:34:47.721Z</time></trkpt><trkpt lat="46.4126896" lon="12.9360938"><ele>355.0</ele><time>2026-03-29T12:34:48.712Z</time></trkpt><trkpt lat="46.4126218" lon="12.9363167"><ele>355.25</ele><time>2026-03-29T12:34:49.72Z</time></trkpt><trkpt lat="46.412551" lon="12.9365229"><ele>355.5</ele><time>2026-03-29T12:34:50.721Z</time></trkpt><trkpt lat="46.4124788" lon="12.9367096"><ele>355.75</ele><time>2026-03-29T12:34:51.722Z</time></trkpt><trkpt lat="46.4124049" lon="12.9368683"><ele>356.0</ele><time>2026-03-29T12:34:52.726Z</time></trkpt><trkpt lat="46.4123441" lon="12.9370112"><ele>356.6</ele><time>2026-03-29T12:34:53.71Z</time></trkpt><trkpt lat="46.4122766" lon="12.9371362"><ele>357.20000000000005</ele><time>2026-03-29T12:34:54.712Z</time></trkpt><trkpt lat="46.412196" lon="12.9372354"><ele>357.79999999999995</ele><time>2026-03-29T12:34:55.702Z</time></trkpt><trkpt lat="46.4121081" lon="12.9373012"><ele>358.4</ele><time>2026-03-29T12:34:56.714Z</time></trkpt><trkpt lat="46.4120266" lon="12.9373625"><ele>359.0</ele><time>2026-03-29T12:34:57.711Z</time></trkpt><trkpt lat="46.4119619" lon="12.9374498"><ele>357.25</ele><time>2026-03-29T12:34:58.708Z</time></trkpt><trkpt lat="46.4119137" lon="12.9375606"><ele>355.5</ele><time>2026-03-29T12:34:59.709Z</time></trkpt><trkpt lat="46.4119284" lon="12.9377262"><ele>353.75</ele><time>2026-03-29T12:35:00.703Z</time></trkpt><trkpt lat="46.4119575" lon="12.9379206"><ele>352.0</ele><time>2026-03-29T12:35:01.712Z</time></trkpt><trkpt lat="46.4120083" lon="12.9381337"><ele>352.0</ele><time>2026-03-29T12:35:02.699Z</time></trkpt><trkpt lat="46.4120431" lon="12.9383739"><ele>352.0</ele><time>2026-03-29T12:35:03.729Z</time></trkpt><trkpt lat="46.4120563" lon="12.9386326"><ele>352.0</ele><time>2026-03-29T12:35:04.724Z</time></trkpt><trkpt lat="46.4120745" lon="12.938895"><ele>351.0</ele><time>2026-03-29T12:35:05.713Z</time></trkpt><trkpt lat="46.4120957" lon="12.9391605"><ele>350.0</ele><time>2026-03-29T12:35:06.71Z</time></trkpt><trkpt lat="46.4121188" lon="12.9394291"><ele>349.0</ele><time>2026-03-29T12:35:07.717Z</time></trkpt><trkpt lat="46.4121359" lon="12.939703"><ele>348.3333333333333</ele><time>2026-03-29T12:35:08.711Z</time></trkpt><trkpt lat="46.4121565" lon="12.9399742"><ele>347.6666666666667</ele><time>2026-03-29T12:35:09.72Z</time></trkpt><trkpt lat="46.4121765" lon="12.9402461"><ele>347.0</ele><time>2026-03-29T12:35:10.708Z</time></trkpt><trkpt lat="46.4121912" lon="12.9405187"><ele>350.33333333333337</ele><time>2026-03-29T12:35:11.712Z</time></trkpt><trkpt lat="46.412207" lon="12.9407861"><ele>353.6666666666667</ele><time>2026-03-29T12:35:12.714Z</time></trkpt><trkpt lat="46.4122263" lon="12.9410476"><ele>357.0</ele><time>2026-03-29T12:35:13.711Z</time></trkpt><trkpt lat="46.4122479" lon="12.9413073"><ele>357.3333333333333</ele><time>2026-03-29T12:35:14.708Z</time></trkpt><trkpt lat="46.4122692" lon="12.9415687"><ele>357.66666666666663</ele><time>2026-03-29T12:35:15.713Z</time></trkpt><trkpt lat="46.4122833" lon="12.9418358"><ele>358.0</ele><time>2026-03-29T12:35:16.716Z</time></trkpt><trkpt lat="46.4123025" lon="12.9421012"><ele>358.3333333333333</ele><time>2026-03-29T12:35:17.706Z</time></trkpt><trkpt lat="46.412315" lon="12.9423725"><ele>358.6666666666667</ele><time>2026-03-29T12:35:18.711Z</time></trkpt><trkpt lat="46.4123176" lon="12.9426563"><ele>359.0</ele><time>2026-03-29T12:35:19.716Z</time></trkpt><trkpt lat="46.412306" lon="12.9429499"><ele>361.33333333333337</ele><time>2026-03-29T12:35:20.713Z</time></trkpt><trkpt lat="46.4122783" lon="12.9432429"><ele>363.6666666666667</ele><time>2026-03-29T12:35:21.704Z</time></trkpt><trkpt lat="46.4122274" lon="12.9435183"><ele>366.0</ele><time>2026-03-29T12:35:22.705Z</time></trkpt><trkpt lat="46.412172" lon="12.9437754"><ele>360.0</ele><time>2026-03-29T12:35:23.73Z</time></trkpt><trkpt lat="46.4121227" lon="12.9440276"><ele>354.0</ele><time>2026-03-29T12:35:24.713Z</time></trkpt><trkpt lat="46.4120592" lon="12.9442597"><ele>348.0</ele><time>2026-03-29T12:35:25.723Z</time></trkpt><trkpt lat="46.4119905" lon="12.9444709"><ele>348.0</ele><time>2026-03-29T12:35:26.708Z</time></trkpt><trkpt lat="46.4119231" lon="12.9446655"><ele>348.0</ele><time>2026-03-29T12:35:27.732Z</time></trkpt><trkpt lat="46.4118477" lon="12.944852"><ele>348.0</ele><time>2026-03-29T12:35:28.729Z</time></trkpt><trkpt lat="46.411768" lon="12.9450377"><ele>350.6666666666667</ele><time>2026-03-29T12:35:29.712Z</time></trkpt><trkpt lat="46.4116966" lon="12.9452376"><ele>353.33333333333337</ele><time>2026-03-29T12:35:30.721Z</time></trkpt><trkpt lat="46.4115963" lon="12.9454163"><ele>356.0</ele><time>2026-03-29T12:35:31.72Z</time></trkpt><trkpt lat="46.4114989" lon="12.9456085"><ele>356.0</ele><time>2026-03-29T12:35:32.718Z</time></trkpt><trkpt lat="46.4114125" lon="12.9458249"><ele>356.0</ele><time>2026-03-29T12:35:33.702Z</time></trkpt><trkpt lat="46.4113426" lon="12.946069"><ele>356.0</ele><time>2026-03-29T12:35:34.709Z</time></trkpt><trkpt lat="46.4112832" lon="12.9463194"><ele>353.6666666666667</ele><time>2026-03-29T12:35:35.711Z</time></trkpt><trkpt lat="46.4112366" lon="12.9465807"><ele>351.3333333333333</ele><time>2026-03-29T12:35:36.707Z</time></trkpt><trkpt lat="46.4111897" lon="12.9468431"><ele>349.0</ele><time>2026-03-29T12:35:37.713Z</time></trkpt><trkpt lat="46.4111315" lon="12.9471012"><ele>349.0</ele><time>2026-03-29T12:35:38.703Z</time></trkpt><trkpt lat="46.4110577" lon="12.9473558"><ele>349.0</ele><time>2026-03-29T12:35:39.711Z</time></trkpt><trkpt lat="46.4109551" lon="12.9475808"><ele>349.0</ele><time>2026-03-29T12:35:40.714Z</time></trkpt><trkpt lat="46.410838" lon="12.9477873"><ele>352.3333333333333</ele><time>2026-03-29T12:35:41.696Z</time></trkpt><trkpt lat="46.4107209" lon="12.947985"><ele>355.6666666666667</ele><time>2026-03-29T12:35:42.713Z</time></trkpt><trkpt lat="46.4106142" lon="12.9481893"><ele>359.0</ele><time>2026-03-29T12:35:43.723Z</time></trkpt><trkpt lat="46.4105204" lon="12.9484057"><ele>353.0</ele><time>2026-03-29T12:35:44.74Z</time></trkpt><trkpt lat="46.410452" lon="12.948643"><ele>347.0</ele><time>2026-03-29T12:35:45.712Z</time></trkpt><trkpt lat="46.4104055" lon="12.9489012"><ele>341.0</ele><time>2026-03-29T12:35:46.714Z</time></trkpt><trkpt lat="46.4103785" lon="12.9491698"><ele>340.6666666666667</ele><time>2026-03-29T12:35:47.686Z</time></trkpt><trkpt lat="46.4103733" lon="12.9494514"><ele>340.3333333333333</ele><time>2026-03-29T12:35:48.717Z</time></trkpt><trkpt lat="46.4103749" lon="12.9497412"><ele>340.0</ele><time>2026-03-29T12:35:49.712Z</time></trkpt><trkpt lat="46.4103762" lon="12.9500347"><ele>340.0</ele><time>2026-03-29T12:35:50.727Z</time></trkpt><trkpt lat="46.4103754" lon="12.95033"><ele>340.0</ele><time>2026-03-29T12:35:51.737Z</time></trkpt><trkpt lat="46.4103758" lon="12.9506237"><ele>340.0</ele><time>2026-03-29T12:35:52.707Z</time></trkpt><trkpt lat="46.4103829" lon="12.9509082"><ele>340.0</ele><time>2026-03-29T12:35:53.703Z</time></trkpt><trkpt lat="46.4103965" lon="12.9511815"><ele>340.0</ele><time>2026-03-29T12:35:54.717Z</time></trkpt><trkpt lat="46.4103992" lon="12.9514513"><ele>340.0</ele><time>2026-03-29T12:35:55.713Z</time></trkpt><trkpt lat="46.4104345" lon="12.951722"><ele>340.0</ele><time>2026-03-29T12:35:56.726Z</time></trkpt><trkpt lat="46.4104865" lon="12.9519982"><ele>340.0</ele><time>2026-03-29T12:35:57.72Z</time></trkpt><trkpt lat="46.4105426" lon="12.9522736"><ele>340.0</ele><time>2026-03-29T12:35:58.715Z</time></trkpt><trkpt lat="46.4106037" lon="12.9525362"><ele>342.3333333333333</ele><time>2026-03-29T12:35:59.694Z</time></trkpt><trkpt lat="46.4106441" lon="12.9528079"><ele>344.6666666666667</ele><time>2026-03-29T12:36:00.719Z</time></trkpt><trkpt lat="46.4107031" lon="12.9530695"><ele>347.0</ele><time>2026-03-29T12:36:01.709Z</time></trkpt><trkpt lat="46.4107528" lon="12.9533392"><ele>346.6666666666667</ele><time>2026-03-29T12:36:02.717Z</time></trkpt><trkpt lat="46.410784" lon="12.9536186"><ele>346.3333333333333</ele><time>2026-03-29T12:36:03.716Z</time></trkpt><trkpt lat="46.4108056" lon="12.953903"><ele>346.0</ele><time>2026-03-29T12:36:04.736Z</time></trkpt><trkpt lat="46.4108147" lon="12.9541882"><ele>346.0</ele><time>2026-03-29T12:36:05.71Z</time></trkpt><trkpt lat="46.4108143" lon="12.9544694"><ele>346.0</ele><time>2026-03-29T12:36:06.719Z</time></trkpt><trkpt lat="46.410826" lon="12.9547444"><ele>346.0</ele><time>2026-03-29T12:36:07.705Z</time></trkpt><trkpt lat="46.410825" lon="12.9550162"><ele>346.0</ele><time>2026-03-29T12:36:08.71Z</time></trkpt><trkpt lat="46.4108302" lon="12.9552856"><ele>346.0</ele><time>2026-03-29T12:36:09.713Z</time></trkpt><trkpt lat="46.4108378" lon="12.9555564"><ele>346.0</ele><time>2026-03-29T12:36:10.697Z</time></trkpt><trkpt lat="46.410844" lon="12.9558233"><ele>343.66666666666663</ele><time>2026-03-29T12:36:11.722Z</time></trkpt><trkpt lat="46.4108502" lon="12.9560853"><ele>341.3333333333333</ele><time>2026-03-29T12:36:12.721Z</time></trkpt><trkpt lat="46.4108484" lon="12.9563363"><ele>339.0</ele><time>2026-03-29T12:36:13.71Z</time></trkpt><trkpt lat="46.4108607" lon="12.9565915"><ele>338.6666666666667</ele><time>2026-03-29T12:36:14.703Z</time></trkpt><trkpt lat="46.4108804" lon="12.9568414"><ele>338.33333333333337</ele><time>2026-03-29T12:36:15.713Z</time></trkpt><trkpt lat="46.4108935" lon="12.9570862"><ele>338.0</ele><time>2026-03-29T12:36:16.707Z</time></trkpt><trkpt lat="46.4109014" lon="12.9573279"><ele>337.6666666666667</ele><time>2026-03-29T12:36:17.714Z</time></trkpt><trkpt lat="46.4109076" lon="12.9575665"><ele>337.3333333333333</ele><time>2026-03-29T12:36:18.716Z</time></trkpt><trkpt lat="46.4109149" lon="12.9578011"><ele>337.0</ele><time>2026-03-29T12:36:19.713Z</time></trkpt><trkpt lat="46.4109212" lon="12.9580322"><ele>337.0</ele><time>2026-03-29T12:36:20.707Z</time></trkpt><trkpt lat="46.4109284" lon="12.9582541"><ele>337.0</ele><time>2026-03-29T12:36:21.721Z</time></trkpt><trkpt lat="46.4109441" lon="12.958477"><ele>337.0</ele><time>2026-03-29T12:36:22.697Z</time></trkpt><trkpt lat="46.4109587" lon="12.9587061"><ele>336.66666666666663</ele><time>2026-03-29T12:36:23.707Z</time></trkpt><trkpt lat="46.410962" lon="12.9589452"><ele>336.3333333333333</ele><time>2026-03-29T12:36:24.707Z</time></trkpt><trkpt lat="46.4109345" lon="12.9591958"><ele>336.0</ele><time>2026-03-29T12:36:25.711Z</time></trkpt><trkpt lat="46.4108933" lon="12.9594496"><ele>335.6666666666667</ele><time>2026-03-29T12:36:26.705Z</time></trkpt><trkpt lat="46.4108448" lon="12.959708"><ele>335.33333333333337</ele><time>2026-03-29T12:36:27.718Z</time></trkpt><trkpt lat="46.41078" lon="12.9599668"><ele>335.0</ele><time>2026-03-29T12:36:28.711Z</time></trkpt><trkpt lat="46.4106887" lon="12.9602215"><ele>336.0</ele><time>2026-03-29T12:36:29.715Z</time></trkpt><trkpt lat="46.4105965" lon="12.9604721"><ele>337.0</ele><time>2026-03-29T12:36:30.729Z</time></trkpt><trkpt lat="46.410521" lon="12.960727"><ele>338.0</ele><time>2026-03-29T12:36:31.705Z</time></trkpt><trkpt lat="46.410449" lon="12.9609771"><ele>338.0</ele><time>2026-03-29T12:36:32.699Z</time></trkpt><trkpt lat="46.4104023" lon="12.9612449"><ele>338.0</ele><time>2026-03-29T12:36:33.731Z</time></trkpt><trkpt lat="46.4103586" lon="12.9615146"><ele>338.0</ele><time>2026-03-29T12:36:34.724Z</time></trkpt><trkpt lat="46.4103231" lon="12.9617931"><ele>338.0</ele><time>2026-03-29T12:36:35.731Z</time></trkpt><trkpt lat="46.4103074" lon="12.9620854"><ele>338.0</ele><time>2026-03-29T12:36:36.722Z</time></trkpt><trkpt lat="46.4103092" lon="12.9623849"><ele>338.0</ele><time>2026-03-29T12:36:37.719Z</time></trkpt><trkpt lat="46.4103235" lon="12.9626801"><ele>337.6666666666667</ele><time>2026-03-29T12:36:38.728Z</time></trkpt><trkpt lat="46.4103418" lon="12.962963"><ele>337.3333333333333</ele><time>2026-03-29T12:36:39.722Z</time></trkpt><trkpt lat="46.4103623" lon="12.963237"><ele>337.0</ele><time>2026-03-29T12:36:40.73Z</time></trkpt><trkpt lat="46.4103775" lon="12.9635087"><ele>337.0</ele><time>2026-03-29T12:36:41.725Z</time></trkpt><trkpt lat="46.4103784" lon="12.9637807"><ele>337.0</ele><time>2026-03-29T12:36:42.712Z</time></trkpt><trkpt lat="46.4103698" lon="12.9640547"><ele>337.0</ele><time>2026-03-29T12:36:43.715Z</time></trkpt><trkpt lat="46.4103592" lon="12.9643289"><ele>337.0</ele><time>2026-03-29T12:36:44.712Z</time></trkpt><trkpt lat="46.410345" lon="12.9646039"><ele>337.0</ele><time>2026-03-29T12:36:45.725Z</time></trkpt><trkpt lat="46.4103273" lon="12.9648808"><ele>337.0</ele><time>2026-03-29T12:36:46.697Z</time></trkpt><trkpt lat="46.4103027" lon="12.9651582"><ele>336.3333333333333</ele><time>2026-03-29T12:36:47.719Z</time></trkpt><trkpt lat="46.4102814" lon="12.9654362"><ele>335.6666666666667</ele><time>2026-03-29T12:36:48.698Z</time></trkpt><trkpt lat="46.4102501" lon="12.965711"><ele>335.0</ele><time>2026-03-29T12:36:49.699Z</time></trkpt><trkpt lat="46.4102204" lon="12.965985"><ele>335.33333333333337</ele><time>2026-03-29T12:36:50.715Z</time></trkpt><trkpt lat="46.4101909" lon="12.9662631"><ele>335.6666666666667</ele><time>2026-03-29T12:36:51.732Z</time></trkpt><trkpt lat="46.4101367" lon="12.9665331"><ele>336.0</ele><time>2026-03-29T12:36:52.718Z</time></trkpt><trkpt lat="46.4100806" lon="12.9668021"><ele>336.0</ele><time>2026-03-29T12:36:53.709Z</time></trkpt><trkpt lat="46.4100091" lon="12.9670711"><ele>336.0</ele><time>2026-03-29T12:36:54.719Z</time></trkpt><trkpt lat="46.4099332" lon="12.9673511"><ele>336.0</ele><time>2026-03-29T12:36:55.71Z</time></trkpt><trkpt lat="46.4098499" lon="12.967643"><ele>340.0</ele><time>2026-03-29T12:36:56.695Z</time></trkpt><trkpt lat="46.4097597" lon="12.9679462"><ele>344.0</ele><time>2026-03-29T12:36:57.711Z</time></trkpt><trkpt lat="46.4096651" lon="12.9682605"><ele>338.0</ele><time>2026-03-29T12:36:58.711Z</time></trkpt><trkpt lat="46.4095638" lon="12.9685805"><ele>332.0</ele><time>2026-03-29T12:36:59.717Z</time></trkpt><trkpt lat="46.4094572" lon="12.9689051"><ele>333.5</ele><time>2026-03-29T12:37:00.711Z</time></trkpt><trkpt lat="46.4093488" lon="12.9692338"><ele>335.0</ele><time>2026-03-29T12:37:01.723Z</time></trkpt><trkpt lat="46.4092444" lon="12.9695681"><ele>335.0</ele><time>2026-03-29T12:37:02.721Z</time></trkpt><trkpt lat="46.4091288" lon="12.969893"><ele>335.0</ele><time>2026-03-29T12:37:03.711Z</time></trkpt><trkpt lat="46.4090285" lon="12.9702261"><ele>339.0</ele><time>2026-03-29T12:37:04.703Z</time></trkpt><trkpt lat="46.4089323" lon="12.9705561"><ele>343.0</ele><time>2026-03-29T12:37:05.706Z</time></trkpt><trkpt lat="46.4088389" lon="12.9708757"><ele>337.0</ele><time>2026-03-29T12:37:06.699Z</time></trkpt><trkpt lat="46.4087531" lon="12.9711938"><ele>331.0</ele><time>2026-03-29T12:37:07.712Z</time></trkpt><trkpt lat="46.4086675" lon="12.9715098"><ele>331.5</ele><time>2026-03-29T12:37:08.721Z</time></trkpt><trkpt lat="46.4085737" lon="12.9718178"><ele>332.0</ele><time>2026-03-29T12:37:09.728Z</time></trkpt><trkpt lat="46.4084822" lon="12.9721248"><ele>332.0</ele><time>2026-03-29T12:37:10.738Z</time></trkpt><trkpt lat="46.4083947" lon="12.9724313"><ele>332.0</ele><time>2026-03-29T12:37:11.711Z</time></trkpt><trkpt lat="46.4082859" lon="12.9727238"><ele>334.0</ele><time>2026-03-29T12:37:12.711Z</time></trkpt><trkpt lat="46.4082028" lon="12.9730419"><ele>336.0</ele><time>2026-03-29T12:37:13.725Z</time></trkpt><trkpt lat="46.4081181" lon="12.9733637"><ele>339.5</ele><time>2026-03-29T12:37:14.703Z</time></trkpt><trkpt lat="46.4080364" lon="12.9736895"><ele>343.0</ele><time>2026-03-29T12:37:15.71Z</time></trkpt><trkpt lat="46.4079339" lon="12.9739997"><ele>335.0</ele><time>2026-03-29T12:37:16.713Z</time></trkpt><trkpt lat="46.4078659" lon="12.9743325"><ele>327.0</ele><time>2026-03-29T12:37:17.71Z</time></trkpt><trkpt lat="46.4078058" lon="12.9746676"><ele>327.0</ele><time>2026-03-29T12:37:18.709Z</time></trkpt><trkpt lat="46.4077262" lon="12.9749868"><ele>327.0</ele><time>2026-03-29T12:37:19.703Z</time></trkpt><trkpt lat="46.4076599" lon="12.9753086"><ele>327.0</ele><time>2026-03-29T12:37:20.705Z</time></trkpt><trkpt lat="46.4075953" lon="12.9756289"><ele>327.0</ele><time>2026-03-29T12:37:21.709Z</time></trkpt><trkpt lat="46.407537" lon="12.9759516"><ele>328.5</ele><time>2026-03-29T12:37:22.721Z</time></trkpt><trkpt lat="46.4074796" lon="12.9762754"><ele>330.0</ele><time>2026-03-29T12:37:23.703Z</time></trkpt><trkpt lat="46.4074217" lon="12.9765999"><ele>330.5</ele><time>2026-03-29T12:37:24.715Z</time></trkpt><trkpt lat="46.4073696" lon="12.9769268"><ele>331.0</ele><time>2026-03-29T12:37:25.716Z</time></trkpt><trkpt lat="46.4073203" lon="12.9772551"><ele>331.5</ele><time>2026-03-29T12:37:26.709Z</time></trkpt><trkpt lat="46.4072744" lon="12.9775843"><ele>332.0</ele><time>2026-03-29T12:37:27.713Z</time></trkpt><trkpt lat="46.4072315" lon="12.9779142"><ele>332.0</ele><time>2026-03-29T12:37:28.715Z</time></trkpt><trkpt lat="46.4071968" lon="12.9782461"><ele>332.0</ele><time>2026-03-29T12:37:29.722Z</time></trkpt><trkpt lat="46.4071621" lon="12.9785791"><ele>330.5</ele><time>2026-03-29T12:37:30.712Z</time></trkpt><trkpt lat="46.4071267" lon="12.9789103"><ele>329.0</ele><time>2026-03-29T12:37:31.737Z</time></trkpt><trkpt lat="46.4070968" lon="12.9792466"><ele>328.5</ele><time>2026-03-29T12:37:32.726Z</time></trkpt><trkpt lat="46.4070709" lon="12.9795832"><ele>328.0</ele><time>2026-03-29T12:37:33.701Z</time></trkpt><trkpt lat="46.4070398" lon="12.979921"><ele>327.0</ele><time>2026-03-29T12:37:34.727Z</time></trkpt><trkpt lat="46.4070146" lon="12.9802616"><ele>326.0</ele><time>2026-03-29T12:37:35.718Z</time></trkpt><trkpt lat="46.4069805" lon="12.9806012"><ele>328.0</ele><time>2026-03-29T12:37:36.718Z</time></trkpt><trkpt lat="46.4069391" lon="12.9809367"><ele>330.0</ele><time>2026-03-29T12:37:37.716Z</time></trkpt><trkpt lat="46.406904" lon="12.9812733"><ele>330.0</ele><time>2026-03-29T12:37:38.722Z</time></trkpt><trkpt lat="46.4068702" lon="12.9816056"><ele>330.0</ele><time>2026-03-29T12:37:39.714Z</time></trkpt><trkpt lat="46.4068411" lon="12.9819354"><ele>329.0</ele><time>2026-03-29T12:37:40.715Z</time></trkpt><trkpt lat="46.4068107" lon="12.9822606"><ele>328.0</ele><time>2026-03-29T12:37:41.714Z</time></trkpt><trkpt lat="46.40679" lon="12.9825882"><ele>328.0</ele><time>2026-03-29T12:37:42.708Z</time></trkpt><trkpt lat="46.4067598" lon="12.9829162"><ele>328.0</ele><time>2026-03-29T12:37:43.723Z</time></trkpt><trkpt lat="46.406737" lon="12.983247"><ele>328.0</ele><time>2026-03-29T12:37:44.723Z</time></trkpt><trkpt lat="46.4067052" lon="12.9835765"><ele>328.0</ele><time>2026-03-29T12:37:45.714Z</time></trkpt><trkpt lat="46.4066681" lon="12.9839031"><ele>329.0</ele><time>2026-03-29T12:37:46.735Z</time></trkpt><trkpt lat="46.4066313" lon="12.9842312"><ele>330.0</ele><time>2026-03-29T12:37:47.727Z</time></trkpt><trkpt lat="46.4065997" lon="12.9845637"><ele>330.0</ele><time>2026-03-29T12:37:48.74Z</time></trkpt><trkpt lat="46.4065658" lon="12.9848968"><ele>330.0</ele><time>2026-03-29T12:37:49.725Z</time></trkpt><trkpt lat="46.4065268" lon="12.9852287"><ele>332.0</ele><time>2026-03-29T12:37:50.714Z</time></trkpt><trkpt lat="46.4064881" lon="12.9855631"><ele>334.0</ele><time>2026-03-29T12:37:51.711Z</time></trkpt><trkpt lat="46.4064432" lon="12.9858922"><ele>334.0</ele><time>2026-03-29T12:37:52.71Z</time></trkpt><trkpt lat="46.4063975" lon="12.9862179"><ele>334.0</ele><time>2026-03-29T12:37:53.71Z</time></trkpt><trkpt lat="46.4063486" lon="12.986539"><ele>329.66666666666663</ele><time>2026-03-29T12:37:54.718Z</time></trkpt><trkpt lat="46.4063005" lon="12.9868572"><ele>325.3333333333333</ele><time>2026-03-29T12:37:55.722Z</time></trkpt><trkpt lat="46.4062481" lon="12.9871691"><ele>321.0</ele><time>2026-03-29T12:37:56.721Z</time></trkpt><trkpt lat="46.4062072" lon="12.9874815"><ele>321.0</ele><time>2026-03-29T12:37:57.731Z</time></trkpt><trkpt lat="46.4061439" lon="12.9877819"><ele>321.0</ele><time>2026-03-29T12:37:58.706Z</time></trkpt><trkpt lat="46.4060976" lon="12.9880909"><ele>321.0</ele><time>2026-03-29T12:37:59.708Z</time></trkpt><trkpt lat="46.4060317" lon="12.9883912"><ele>321.0</ele><time>2026-03-29T12:38:00.715Z</time></trkpt><trkpt lat="46.4059655" lon="12.9886905"><ele>321.0</ele><time>2026-03-29T12:38:01.723Z</time></trkpt><trkpt lat="46.4059083" lon="12.988992"><ele>321.0</ele><time>2026-03-29T12:38:02.715Z</time></trkpt><trkpt lat="46.4058284" lon="12.9892786"><ele>320.3333333333333</ele><time>2026-03-29T12:38:03.715Z</time></trkpt><trkpt lat="46.4057564" lon="12.9895653"><ele>319.66666666666663</ele><time>2026-03-29T12:38:04.717Z</time></trkpt><trkpt lat="46.4056771" lon="12.9898434"><ele>319.0</ele><time>2026-03-29T12:38:05.706Z</time></trkpt><trkpt lat="46.4056016" lon="12.9901228"><ele>319.0</ele><time>2026-03-29T12:38:06.713Z</time></trkpt><trkpt lat="46.4055287" lon="12.9904043"><ele>319.0</ele><time>2026-03-29T12:38:07.7Z</time></trkpt><trkpt lat="46.4054495" lon="12.9906805"><ele>319.0</ele><time>2026-03-29T12:38:08.699Z</time></trkpt><trkpt lat="46.4053684" lon="12.9909549"><ele>319.0</ele><time>2026-03-29T12:38:09.704Z</time></trkpt><trkpt lat="46.4052814" lon="12.9912266"><ele>319.0</ele><time>2026-03-29T12:38:10.711Z</time></trkpt><trkpt lat="46.4051939" lon="12.9914987"><ele>319.0</ele><time>2026-03-29T12:38:11.717Z</time></trkpt><trkpt lat="46.4051173" lon="12.9917806"><ele>318.66666666666663</ele><time>2026-03-29T12:38:12.725Z</time></trkpt><trkpt lat="46.4050302" lon="12.9920596"><ele>318.3333333333333</ele><time>2026-03-29T12:38:13.707Z</time></trkpt><trkpt lat="46.4049238" lon="12.9923296"><ele>318.0</ele><time>2026-03-29T12:38:14.721Z</time></trkpt><trkpt lat="46.4048336" lon="12.9926163"><ele>318.0</ele><time>2026-03-29T12:38:15.727Z</time></trkpt><trkpt lat="46.4047244" lon="12.9928867"><ele>318.0</ele><time>2026-03-29T12:38:16.714Z</time></trkpt><trkpt lat="46.4046199" lon="12.9931538"><ele>318.0</ele><time>2026-03-29T12:38:17.705Z</time></trkpt><trkpt lat="46.4045157" lon="12.993415"><ele>318.3333333333333</ele><time>2026-03-29T12:38:18.711Z</time></trkpt><trkpt lat="46.4044111" lon="12.9936756"><ele>318.66666666666663</ele><time>2026-03-29T12:38:19.73Z</time></trkpt><trkpt lat="46.4043054" lon="12.993936"><ele>319.0</ele><time>2026-03-29T12:38:20.715Z</time></trkpt><trkpt lat="46.4041969" lon="12.9941937"><ele>319.0</ele><time>2026-03-29T12:38:21.705Z</time></trkpt><trkpt lat="46.4040931" lon="12.994457"><ele>319.0</ele><time>2026-03-29T12:38:22.703Z</time></trkpt><trkpt lat="46.4039822" lon="12.994715"><ele>319.0</ele><time>2026-03-29T12:38:23.707Z</time></trkpt><trkpt lat="46.4038576" lon="12.9949599"><ele>319.0</ele><time>2026-03-29T12:38:24.701Z</time></trkpt><trkpt lat="46.4037393" lon="12.9952107"><ele>319.0</ele><time>2026-03-29T12:38:25.714Z</time></trkpt><trkpt lat="46.4036289" lon="12.9954694"><ele>319.0</ele><time>2026-03-29T12:38:26.716Z</time></trkpt><trkpt lat="46.4035075" lon="12.9957188"><ele>319.3333333333333</ele><time>2026-03-29T12:38:27.713Z</time></trkpt><trkpt lat="46.403387" lon="12.995968"><ele>319.6666666666667</ele><time>2026-03-29T12:38:28.717Z</time></trkpt><trkpt lat="46.4032628" lon="12.9962112"><ele>320.0</ele><time>2026-03-29T12:38:29.713Z</time></trkpt><trkpt lat="46.4031373" lon="12.9964536"><ele>319.6666666666667</ele><time>2026-03-29T12:38:30.723Z</time></trkpt><trkpt lat="46.4030115" lon="12.9966951"><ele>319.3333333333333</ele><time>2026-03-29T12:38:31.708Z</time></trkpt><trkpt lat="46.4028927" lon="12.9969463"><ele>319.0</ele><time>2026-03-29T12:38:32.714Z</time></trkpt><trkpt lat="46.4027714" lon="12.9971976"><ele>319.66666666666663</ele><time>2026-03-29T12:38:33.716Z</time></trkpt><trkpt lat="46.4026504" lon="12.9974513"><ele>320.3333333333333</ele><time>2026-03-29T12:38:34.722Z</time></trkpt><trkpt lat="46.4025387" lon="12.997714"><ele>321.0</ele><time>2026-03-29T12:38:35.704Z</time></trkpt><trkpt lat="46.4024331" lon="12.9979821"><ele>320.6666666666667</ele><time>2026-03-29T12:38:36.699Z</time></trkpt><trkpt lat="46.4023363" lon="12.9982574"><ele>320.33333333333337</ele><time>2026-03-29T12:38:37.702Z</time></trkpt><trkpt lat="46.4022456" lon="12.9985396"><ele>320.0</ele><time>2026-03-29T12:38:38.703Z</time></trkpt><trkpt lat="46.4021674" lon="12.9988315"><ele>319.6666666666667</ele><time>2026-03-29T12:38:39.696Z</time></trkpt><trkpt lat="46.4020972" lon="12.9991283"><ele>319.3333333333333</ele><time>2026-03-29T12:38:40.694Z</time></trkpt><trkpt lat="46.4020213" lon="12.9994174"><ele>319.0</ele><time>2026-03-29T12:38:41.697Z</time></trkpt><trkpt lat="46.4019592" lon="12.9997129"><ele>318.3333333333333</ele><time>2026-03-29T12:38:42.713Z</time></trkpt><trkpt lat="46.4018848" lon="12.9999957"><ele>317.6666666666667</ele><time>2026-03-29T12:38:43.698Z</time></trkpt><trkpt lat="46.4018174" lon="13.0002778"><ele>317.0</ele><time>2026-03-29T12:38:44.693Z</time></trkpt><trkpt lat="46.4017611" lon="13.0005638"><ele>317.0</ele><time>2026-03-29T12:38:45.71Z</time></trkpt><trkpt lat="46.4016914" lon="13.0008353"><ele>317.0</ele><time>2026-03-29T12:38:46.692Z</time></trkpt><trkpt lat="46.4016291" lon="13.0011053"><ele>317.0</ele><time>2026-03-29T12:38:47.713Z</time></trkpt><trkpt lat="46.4015709" lon="13.001372"><ele>317.0</ele><time>2026-03-29T12:38:48.72Z</time></trkpt><trkpt lat="46.40151" lon="13.0016287"><ele>317.0</ele><time>2026-03-29T12:38:49.704Z</time></trkpt><trkpt lat="46.4014511" lon="13.0018714"><ele>317.0</ele><time>2026-03-29T12:38:50.688Z</time></trkpt><trkpt lat="46.4013944" lon="13.0020864"><ele>317.0</ele><time>2026-03-29T12:38:51.721Z</time></trkpt><trkpt lat="46.4013361" lon="13.0022622"><ele>317.0</ele><time>2026-03-29T12:38:52.708Z</time></trkpt><trkpt lat="46.401286" lon="13.0024143"><ele>317.0</ele><time>2026-03-29T12:38:53.706Z</time></trkpt><trkpt lat="46.4012274" lon="13.0025361"><ele>317.0</ele><time>2026-03-29T12:38:54.697Z</time></trkpt><trkpt lat="46.4011644" lon="13.0026341"><ele>317.0</ele><time>2026-03-29T12:38:55.689Z</time></trkpt><trkpt lat="46.4010959" lon="13.0027109"><ele>317.4</ele><time>2026-03-29T12:38:56.702Z</time></trkpt><trkpt lat="46.4010099" lon="13.002746"><ele>317.79999999999995</ele><time>2026-03-29T12:38:57.71Z</time></trkpt><trkpt lat="46.400922" lon="13.0027513"><ele>318.2</ele><time>2026-03-29T12:38:58.714Z</time></trkpt><trkpt lat="46.4008306" lon="13.0027335"><ele>318.59999999999997</ele><time>2026-03-29T12:38:59.716Z</time></trkpt><trkpt lat="46.4007366" lon="13.0027199"><ele>319.0</ele><time>2026-03-29T12:39:00.707Z</time></trkpt><trkpt lat="46.4006355" lon="13.0027065"><ele>319.0</ele><time>2026-03-29T12:39:01.716Z</time></trkpt><trkpt lat="46.4005255" lon="13.0026995"><ele>319.0</ele><time>2026-03-29T12:39:02.706Z</time></trkpt><trkpt lat="46.4004108" lon="13.002697"><ele>319.0</ele><time>2026-03-29T12:39:03.706Z</time></trkpt><trkpt lat="46.4002935" lon="13.0026896"><ele>319.0</ele><time>2026-03-29T12:39:04.71Z</time></trkpt><trkpt lat="46.4001787" lon="13.0027184"><ele>318.5</ele><time>2026-03-29T12:39:05.712Z</time></trkpt><trkpt lat="46.4000726" lon="13.00278"><ele>318.0</ele><time>2026-03-29T12:39:06.721Z</time></trkpt><trkpt lat="46.3999792" lon="13.0028687"><ele>317.5</ele><time>2026-03-29T12:39:07.725Z</time></trkpt><trkpt lat="46.3999171" lon="13.0030132"><ele>317.0</ele><time>2026-03-29T12:39:08.711Z</time></trkpt><trkpt lat="46.3998873" lon="13.0031921"><ele>317.5</ele><time>2026-03-29T12:39:09.696Z</time></trkpt><trkpt lat="46.3998783" lon="13.0033764"><ele>318.0</ele><time>2026-03-29T12:39:10.712Z</time></trkpt><trkpt lat="46.3999098" lon="13.0035531"><ele>318.5</ele><time>2026-03-29T12:39:11.704Z</time></trkpt><trkpt lat="46.3999675" lon="13.0037087"><ele>319.0</ele><time>2026-03-29T12:39:12.722Z</time></trkpt><trkpt lat="46.4000622" lon="13.0038319"><ele>319.0</ele><time>2026-03-29T12:39:13.729Z</time></trkpt><trkpt lat="46.4001808" lon="13.0039204"><ele>319.0</ele><time>2026-03-29T12:39:14.71Z</time></trkpt><trkpt lat="46.4003187" lon="13.0039787"><ele>319.0</ele><time>2026-03-29T12:39:15.717Z</time></trkpt><trkpt lat="46.4004673" lon="13.0040275"><ele>319.0</ele><time>2026-03-29T12:39:16.719Z</time></trkpt><trkpt lat="46.4006136" lon="13.0040733"><ele>319.25</ele><time>2026-03-29T12:39:17.713Z</time></trkpt><trkpt lat="46.4007486" lon="13.0041368"><ele>319.5</ele><time>2026-03-29T12:39:18.71Z</time></trkpt><trkpt lat="46.4008775" lon="13.0041872"><ele>319.75</ele><time>2026-03-29T12:39:19.721Z</time></trkpt><trkpt lat="46.4009827" lon="13.0042547"><ele>320.0</ele><time>2026-03-29T12:39:20.706Z</time></trkpt><trkpt lat="46.4010601" lon="13.0043363"><ele>319.4</ele><time>2026-03-29T12:39:21.711Z</time></trkpt><trkpt lat="46.4011051" lon="13.0044621"><ele>318.8</ele><time>2026-03-29T12:39:22.727Z</time></trkpt><trkpt lat="46.4011279" lon="13.0045967"><ele>318.2</ele><time>2026-03-29T12:39:23.712Z</time></trkpt><trkpt lat="46.4011401" lon="13.0047405"><ele>317.6</ele><time>2026-03-29T12:39:24.712Z</time></trkpt><trkpt lat="46.401152" lon="13.0048825"><ele>317.0</ele><time>2026-03-29T12:39:25.707Z</time></trkpt><trkpt lat="46.401178" lon="13.0050197"><ele>316.5</ele><time>2026-03-29T12:39:26.698Z</time></trkpt><trkpt lat="46.4012041" lon="13.0051556"><ele>316.0</ele><time>2026-03-29T12:39:27.711Z</time></trkpt><trkpt lat="46.4012195" lon="13.0052768"><ele>315.5</ele><time>2026-03-29T12:39:28.707Z</time></trkpt><trkpt lat="46.4012349" lon="13.0053786"><ele>315.0</ele><time>2026-03-29T12:39:29.723Z</time></trkpt><trkpt lat="46.401229" lon="13.0054765"><ele>314.5</ele><time>2026-03-29T12:39:30.71Z</time></trkpt><trkpt lat="46.4011859" lon="13.0056453"><ele>314.0</ele><time>2026-03-29T12:39:32.696Z</time></trkpt><trkpt lat="46.4011103" lon="13.005705"><ele>314.0</ele><time>2026-03-29T12:39:33.702Z</time></trkpt><trkpt lat="46.4010054" lon="13.0057446"><ele>314.0</ele><time>2026-03-29T12:39:34.7Z</time></trkpt><trkpt lat="46.4008772" lon="13.0057937"><ele>314.0</ele><time>2026-03-29T12:39:35.706Z</time></trkpt><trkpt lat="46.4007391" lon="13.0058547"><ele>314.0</ele><time>2026-03-29T12:39:36.709Z</time></trkpt><trkpt lat="46.4005939" lon="13.0059621"><ele>313.6666666666667</ele><time>2026-03-29T12:39:37.694Z</time></trkpt><trkpt lat="46.4004432" lon="13.0060881"><ele>313.3333333333333</ele><time>2026-03-29T12:39:38.712Z</time></trkpt><trkpt lat="46.4002939" lon="13.0062259"><ele>313.0</ele><time>2026-03-29T12:39:39.711Z</time></trkpt><trkpt lat="46.4001499" lon="13.0063522"><ele>313.0</ele><time>2026-03-29T12:39:40.708Z</time></trkpt><trkpt lat="46.4000102" lon="13.0064712"><ele>313.0</ele><time>2026-03-29T12:39:41.71Z</time></trkpt><trkpt lat="46.3998727" lon="13.0065873"><ele>313.0</ele><time>2026-03-29T12:39:42.717Z</time></trkpt><trkpt lat="46.3997417" lon="13.0067083"><ele>313.0</ele><time>2026-03-29T12:39:43.713Z</time></trkpt><trkpt lat="46.3996127" lon="13.006822"><ele>313.0</ele><time>2026-03-29T12:39:44.704Z</time></trkpt><trkpt lat="46.3994853" lon="13.006935"><ele>313.0</ele><time>2026-03-29T12:39:45.708Z</time></trkpt><trkpt lat="46.3993603" lon="13.0070436"><ele>313.0</ele><time>2026-03-29T12:39:46.715Z</time></trkpt><trkpt lat="46.3992386" lon="13.0071503"><ele>313.0</ele><time>2026-03-29T12:39:47.707Z</time></trkpt><trkpt lat="46.3991258" lon="13.0072513"><ele>313.0</ele><time>2026-03-29T12:39:48.718Z</time></trkpt><trkpt lat="46.3990273" lon="13.0073441"><ele>313.0</ele><time>2026-03-29T12:39:49.724Z</time></trkpt><trkpt lat="46.3989425" lon="13.0074263"><ele>313.0</ele><time>2026-03-29T12:39:50.725Z</time></trkpt><trkpt lat="46.3988645" lon="13.0074911"><ele>313.0</ele><time>2026-03-29T12:39:51.715Z</time></trkpt><trkpt lat="46.3987975" lon="13.0075673"><ele>312.8333333333333</ele><time>2026-03-29T12:39:52.718Z</time></trkpt><trkpt lat="46.3987309" lon="13.0076273"><ele>312.66666666666663</ele><time>2026-03-29T12:39:53.708Z</time></trkpt><trkpt lat="46.398665" lon="13.0076872"><ele>312.5</ele><time>2026-03-29T12:39:54.707Z</time></trkpt><trkpt lat="46.3985953" lon="13.0077518"><ele>312.3333333333333</ele><time>2026-03-29T12:39:55.708Z</time></trkpt><trkpt lat="46.398518" lon="13.0078224"><ele>312.1666666666667</ele><time>2026-03-29T12:39:56.709Z</time></trkpt><trkpt lat="46.3984275" lon="13.0079015"><ele>312.0</ele><time>2026-03-29T12:39:57.709Z</time></trkpt><trkpt lat="46.39833" lon="13.00799"><ele>312.0</ele><time>2026-03-29T12:39:58.705Z</time></trkpt><trkpt lat="46.3982249" lon="13.008082"><ele>312.0</ele><time>2026-03-29T12:39:59.707Z</time></trkpt><trkpt lat="46.3981181" lon="13.0081735"><ele>312.0</ele><time>2026-03-29T12:40:00.715Z</time></trkpt><trkpt lat="46.398013" lon="13.0082633"><ele>312.0</ele><time>2026-03-29T12:40:01.705Z</time></trkpt><trkpt lat="46.3979089" lon="13.0083492"><ele>311.5</ele><time>2026-03-29T12:40:02.713Z</time></trkpt><trkpt lat="46.3978034" lon="13.0084353"><ele>311.0</ele><time>2026-03-29T12:40:03.708Z</time></trkpt><trkpt lat="46.3976947" lon="13.0085267"><ele>310.5</ele><time>2026-03-29T12:40:04.722Z</time></trkpt><trkpt lat="46.3975809" lon="13.0086235"><ele>310.0</ele><time>2026-03-29T12:40:05.703Z</time></trkpt><trkpt lat="46.3974561" lon="13.008718"><ele>310.0</ele><time>2026-03-29T12:40:06.726Z</time></trkpt><trkpt lat="46.3973271" lon="13.0088249"><ele>310.0</ele><time>2026-03-29T12:40:07.704Z</time></trkpt><trkpt lat="46.3971953" lon="13.0089447"><ele>310.0</ele><time>2026-03-29T12:40:08.708Z</time></trkpt><trkpt lat="46.3970635" lon="13.00906"><ele>309.5</ele><time>2026-03-29T12:40:09.703Z</time></trkpt><trkpt lat="46.3969347" lon="13.0091702"><ele>309.0</ele><time>2026-03-29T12:40:10.704Z</time></trkpt><trkpt lat="46.396816" lon="13.00928"><ele>308.5</ele><time>2026-03-29T12:40:11.697Z</time></trkpt><trkpt lat="46.3967067" lon="13.0093782"><ele>308.0</ele><time>2026-03-29T12:40:12.707Z</time></trkpt><trkpt lat="46.3966084" lon="13.0094719"><ele>308.0</ele><time>2026-03-29T12:40:13.715Z</time></trkpt><trkpt lat="46.3965173" lon="13.0095539"><ele>308.0</ele><time>2026-03-29T12:40:14.717Z</time></trkpt><trkpt lat="46.3964258" lon="13.0096354"><ele>308.0</ele><time>2026-03-29T12:40:15.713Z</time></trkpt><trkpt lat="46.3963381" lon="13.009722"><ele>308.0</ele><time>2026-03-29T12:40:16.724Z</time></trkpt><trkpt lat="46.3962409" lon="13.0098034"><ele>308.0</ele><time>2026-03-29T12:40:17.704Z</time></trkpt><trkpt lat="46.3961415" lon="13.0098997"><ele>308.0</ele><time>2026-03-29T12:40:18.707Z</time></trkpt><trkpt lat="46.3960349" lon="13.0100009"><ele>308.0</ele><time>2026-03-29T12:40:19.699Z</time></trkpt><trkpt lat="46.3959291" lon="13.0101186"><ele>308.0</ele><time>2026-03-29T12:40:20.705Z</time></trkpt><trkpt lat="46.3958199" lon="13.0102347"><ele>308.0</ele><time>2026-03-29T12:40:21.719Z</time></trkpt><trkpt lat="46.3957084" lon="13.0103575"><ele>308.0</ele><time>2026-03-29T12:40:22.706Z</time></trkpt><trkpt lat="46.3955984" lon="13.0105003"><ele>308.0</ele><time>2026-03-29T12:40:23.707Z</time></trkpt><trkpt lat="46.3954833" lon="13.0106406"><ele>308.0</ele><time>2026-03-29T12:40:24.702Z</time></trkpt><trkpt lat="46.395378" lon="13.010803"><ele>308.0</ele><time>2026-03-29T12:40:25.702Z</time></trkpt><trkpt lat="46.3952657" lon="13.0109676"><ele>308.0</ele><time>2026-03-29T12:40:26.719Z</time></trkpt><trkpt lat="46.3951481" lon="13.0111413"><ele>308.0</ele><time>2026-03-29T12:40:27.695Z</time></trkpt><trkpt lat="46.3950426" lon="13.0113326"><ele>308.0</ele><time>2026-03-29T12:40:28.695Z</time></trkpt><trkpt lat="46.3949404" lon="13.0115364"><ele>308.0</ele><time>2026-03-29T12:40:29.706Z</time></trkpt><trkpt lat="46.3948303" lon="13.0117401"><ele>308.0</ele><time>2026-03-29T12:40:30.712Z</time></trkpt><trkpt lat="46.3947203" lon="13.0119561"><ele>307.0</ele><time>2026-03-29T12:40:31.699Z</time></trkpt><trkpt lat="46.3946156" lon="13.0121885"><ele>306.0</ele><time>2026-03-29T12:40:32.713Z</time></trkpt><trkpt lat="46.3945053" lon="13.0124214"><ele>305.0</ele><time>2026-03-29T12:40:33.718Z</time></trkpt><trkpt lat="46.394387" lon="13.012652"><ele>305.0</ele><time>2026-03-29T12:40:34.703Z</time></trkpt><trkpt lat="46.3942714" lon="13.0128911"><ele>305.0</ele><time>2026-03-29T12:40:35.714Z</time></trkpt><trkpt lat="46.3941509" lon="13.0131257"><ele>305.0</ele><time>2026-03-29T12:40:36.708Z</time></trkpt><trkpt lat="46.3940391" lon="13.0133748"><ele>305.0</ele><time>2026-03-29T12:40:37.721Z</time></trkpt><trkpt lat="46.3939183" lon="13.0136104"><ele>305.0</ele><time>2026-03-29T12:40:38.717Z</time></trkpt><trkpt lat="46.3938032" lon="13.0138345"><ele>305.0</ele><time>2026-03-29T12:40:39.714Z</time></trkpt><trkpt lat="46.3936805" lon="13.0140276"><ele>305.6666666666667</ele><time>2026-03-29T12:40:40.693Z</time></trkpt><trkpt lat="46.3935627" lon="13.0142116"><ele>306.3333333333333</ele><time>2026-03-29T12:40:41.708Z</time></trkpt><trkpt lat="46.3934354" lon="13.0143712"><ele>307.0</ele><time>2026-03-29T12:40:42.701Z</time></trkpt><trkpt lat="46.393296" lon="13.0145109"><ele>307.0</ele><time>2026-03-29T12:40:43.706Z</time></trkpt><trkpt lat="46.3931386" lon="13.0145851"><ele>307.0</ele><time>2026-03-29T12:40:44.704Z</time></trkpt><trkpt lat="46.39298" lon="13.0146028"><ele>307.0</ele><time>2026-03-29T12:40:45.709Z</time></trkpt><trkpt lat="46.3928225" lon="13.0145834"><ele>306.0</ele><time>2026-03-29T12:40:46.711Z</time></trkpt><trkpt lat="46.3926674" lon="13.0145609"><ele>305.0</ele><time>2026-03-29T12:40:47.714Z</time></trkpt><trkpt lat="46.3925102" lon="13.0144932"><ele>304.0</ele><time>2026-03-29T12:40:48.712Z</time></trkpt><trkpt lat="46.3923521" lon="13.0144268"><ele>304.0</ele><time>2026-03-29T12:40:49.699Z</time></trkpt><trkpt lat="46.392196" lon="13.0143638"><ele>304.0</ele><time>2026-03-29T12:40:50.709Z</time></trkpt><trkpt lat="46.3920443" lon="13.0143005"><ele>304.0</ele><time>2026-03-29T12:40:51.723Z</time></trkpt><trkpt lat="46.3918976" lon="13.0142055"><ele>302.0</ele><time>2026-03-29T12:40:52.71Z</time></trkpt><trkpt lat="46.3917497" lon="13.0140884"><ele>300.0</ele><time>2026-03-29T12:40:53.717Z</time></trkpt><trkpt lat="46.3915943" lon="13.013973"><ele>298.0</ele><time>2026-03-29T12:40:54.715Z</time></trkpt><trkpt lat="46.3914389" lon="13.0138338"><ele>298.3333333333333</ele><time>2026-03-29T12:40:55.717Z</time></trkpt><trkpt lat="46.3912796" lon="13.0136854"><ele>298.6666666666667</ele><time>2026-03-29T12:40:56.712Z</time></trkpt><trkpt lat="46.3911144" lon="13.0135331"><ele>299.0</ele><time>2026-03-29T12:40:57.702Z</time></trkpt><trkpt lat="46.3909455" lon="13.0133774"><ele>298.6666666666667</ele><time>2026-03-29T12:40:58.703Z</time></trkpt><trkpt lat="46.3907741" lon="13.0132218"><ele>298.3333333333333</ele><time>2026-03-29T12:40:59.706Z</time></trkpt><trkpt lat="46.3905998" lon="13.0130705"><ele>298.0</ele><time>2026-03-29T12:41:00.73Z</time></trkpt><trkpt lat="46.390427" lon="13.0129171"><ele>299.0</ele><time>2026-03-29T12:41:01.709Z</time></trkpt><trkpt lat="46.3902546" lon="13.0127631"><ele>300.0</ele><time>2026-03-29T12:41:02.714Z</time></trkpt><trkpt lat="46.3900825" lon="13.0126064"><ele>301.0</ele><time>2026-03-29T12:41:03.704Z</time></trkpt><trkpt lat="46.3899124" lon="13.0124484"><ele>301.0</ele><time>2026-03-29T12:41:04.71Z</time></trkpt><trkpt lat="46.3897429" lon="13.012295"><ele>301.0</ele><time>2026-03-29T12:41:05.711Z</time></trkpt><trkpt lat="46.3895762" lon="13.0121445"><ele>301.0</ele><time>2026-03-29T12:41:06.704Z</time></trkpt><trkpt lat="46.3894152" lon="13.0119975"><ele>300.0</ele><time>2026-03-29T12:41:07.72Z</time></trkpt><trkpt lat="46.3892597" lon="13.0118577"><ele>299.0</ele><time>2026-03-29T12:41:08.708Z</time></trkpt><trkpt lat="46.3891103" lon="13.0117267"><ele>298.0</ele><time>2026-03-29T12:41:09.702Z</time></trkpt><trkpt lat="46.3889779" lon="13.0115986"><ele>299.2</ele><time>2026-03-29T12:41:10.715Z</time></trkpt><trkpt lat="46.388864" lon="13.0114946"><ele>300.4</ele><time>2026-03-29T12:41:11.713Z</time></trkpt><trkpt lat="46.3887807" lon="13.0114064"><ele>301.59999999999997</ele><time>2026-03-29T12:41:12.714Z</time></trkpt><trkpt lat="46.3887148" lon="13.0113543"><ele>302.8</ele><time>2026-03-29T12:41:13.706Z</time></trkpt><trkpt lat="46.3886364" lon="13.011223"><ele>304.0</ele><time>2026-03-29T12:41:15.713Z</time></trkpt><trkpt lat="46.3886284" lon="13.0111284"><ele>304.16666666666663</ele><time>2026-03-29T12:41:16.709Z</time></trkpt><trkpt lat="46.3886312" lon="13.0110331"><ele>304.3333333333333</ele><time>2026-03-29T12:41:17.706Z</time></trkpt><trkpt lat="46.388612" lon="13.0109417"><ele>304.5</ele><time>2026-03-29T12:41:18.715Z</time></trkpt><trkpt lat="46.3885558" lon="13.0108558"><ele>304.6666666666667</ele><time>2026-03-29T12:41:19.703Z</time></trkpt><trkpt lat="46.3884788" lon="13.0107944"><ele>304.83333333333337</ele><time>2026-03-29T12:41:20.711Z</time></trkpt><trkpt lat="46.388401" lon="13.0107617"><ele>305.0</ele><time>2026-03-29T12:41:21.706Z</time></trkpt><trkpt lat="46.3883308" lon="13.0108043"><ele>305.0</ele><time>2026-03-29T12:41:22.7Z</time></trkpt><trkpt lat="46.388286" lon="13.010897"><ele>305.0</ele><time>2026-03-29T12:41:23.704Z</time></trkpt><trkpt lat="46.3882547" lon="13.0109996"><ele>305.0</ele><time>2026-03-29T12:41:24.705Z</time></trkpt><trkpt lat="46.3882181" lon="13.0111015"><ele>305.0</ele><time>2026-03-29T12:41:25.711Z</time></trkpt><trkpt lat="46.388166" lon="13.0112151"><ele>305.0</ele><time>2026-03-29T12:41:26.71Z</time></trkpt><trkpt lat="46.3880707" lon="13.0113128"><ele>305.0</ele><time>2026-03-29T12:41:27.709Z</time></trkpt><trkpt lat="46.3879427" lon="13.0113822"><ele>306.0</ele><time>2026-03-29T12:41:28.709Z</time></trkpt><trkpt lat="46.3877948" lon="13.0114373"><ele>307.0</ele><time>2026-03-29T12:41:29.702Z</time></trkpt><trkpt lat="46.3876328" lon="13.0114757"><ele>308.0</ele><time>2026-03-29T12:41:30.713Z</time></trkpt><trkpt lat="46.3874641" lon="13.0115003"><ele>308.0</ele><time>2026-03-29T12:41:31.709Z</time></trkpt><trkpt lat="46.3872949" lon="13.0115415"><ele>308.0</ele><time>2026-03-29T12:41:32.715Z</time></trkpt><trkpt lat="46.3871232" lon="13.0115764"><ele>308.0</ele><time>2026-03-29T12:41:33.721Z</time></trkpt><trkpt lat="46.3869478" lon="13.0115984"><ele>311.6666666666667</ele><time>2026-03-29T12:41:34.698Z</time></trkpt><trkpt lat="46.3867708" lon="13.011605"><ele>315.3333333333333</ele><time>2026-03-29T12:41:35.701Z</time></trkpt><trkpt lat="46.3865861" lon="13.0115888"><ele>319.0</ele><time>2026-03-29T12:41:36.708Z</time></trkpt><trkpt lat="46.3863983" lon="13.0115406"><ele>315.3333333333333</ele><time>2026-03-29T12:41:37.695Z</time></trkpt><trkpt lat="46.3862138" lon="13.0114853"><ele>311.6666666666667</ele><time>2026-03-29T12:41:38.711Z</time></trkpt><trkpt lat="46.3860302" lon="13.0114514"><ele>308.0</ele><time>2026-03-29T12:41:39.706Z</time></trkpt><trkpt lat="46.3858583" lon="13.0113918"><ele>308.0</ele><time>2026-03-29T12:41:40.726Z</time></trkpt><trkpt lat="46.385696" lon="13.0113296"><ele>308.0</ele><time>2026-03-29T12:41:41.714Z</time></trkpt><trkpt lat="46.3855359" lon="13.0113032"><ele>308.0</ele><time>2026-03-29T12:41:42.704Z</time></trkpt><trkpt lat="46.3853794" lon="13.0113304"><ele>308.6666666666667</ele><time>2026-03-29T12:41:43.72Z</time></trkpt><trkpt lat="46.3852292" lon="13.0114071"><ele>309.3333333333333</ele><time>2026-03-29T12:41:44.712Z</time></trkpt><trkpt lat="46.3850892" lon="13.0115257"><ele>310.0</ele><time>2026-03-29T12:41:45.713Z</time></trkpt><trkpt lat="46.3849603" lon="13.0116809"><ele>308.3333333333333</ele><time>2026-03-29T12:41:46.703Z</time></trkpt><trkpt lat="46.3848633" lon="13.011897"><ele>306.6666666666667</ele><time>2026-03-29T12:41:47.714Z</time></trkpt><trkpt lat="46.3847842" lon="13.0121441"><ele>305.0</ele><time>2026-03-29T12:41:48.722Z</time></trkpt><trkpt lat="46.3846809" lon="13.0123632"><ele>313.0</ele><time>2026-03-29T12:41:49.704Z</time></trkpt><trkpt lat="46.3845846" lon="13.0125994"><ele>321.0</ele><time>2026-03-29T12:41:50.716Z</time></trkpt><trkpt lat="46.3844874" lon="13.0128332"><ele>329.0</ele><time>2026-03-29T12:41:51.729Z</time></trkpt><trkpt lat="46.3843992" lon="13.0130659"><ele>329.0</ele><time>2026-03-29T12:41:52.722Z</time></trkpt><trkpt lat="46.384339" lon="13.0132958"><ele>329.0</ele><time>2026-03-29T12:41:53.71Z</time></trkpt><trkpt lat="46.38431" lon="13.0135187"><ele>329.0</ele><time>2026-03-29T12:41:54.705Z</time></trkpt><trkpt lat="46.3843166" lon="13.0137595"><ele>327.6666666666667</ele><time>2026-03-29T12:41:55.704Z</time></trkpt><trkpt lat="46.3843103" lon="13.0140014"><ele>326.3333333333333</ele><time>2026-03-29T12:41:56.709Z</time></trkpt><trkpt lat="46.3842808" lon="13.0142454"><ele>325.0</ele><time>2026-03-29T12:41:57.728Z</time></trkpt><trkpt lat="46.3842456" lon="13.0144898"><ele>323.3333333333333</ele><time>2026-03-29T12:41:58.718Z</time></trkpt><trkpt lat="46.3841843" lon="13.0147402"><ele>321.6666666666667</ele><time>2026-03-29T12:41:59.719Z</time></trkpt><trkpt lat="46.3841063" lon="13.0149943"><ele>320.0</ele><time>2026-03-29T12:42:00.715Z</time></trkpt><trkpt lat="46.384023" lon="13.0152406"><ele>320.33333333333337</ele><time>2026-03-29T12:42:01.718Z</time></trkpt><trkpt lat="46.3839285" lon="13.0154741"><ele>320.6666666666667</ele><time>2026-03-29T12:42:02.714Z</time></trkpt><trkpt lat="46.3838176" lon="13.0156902"><ele>321.0</ele><time>2026-03-29T12:42:03.728Z</time></trkpt><trkpt lat="46.3837026" lon="13.0159005"><ele>321.0</ele><time>2026-03-29T12:42:04.706Z</time></trkpt><trkpt lat="46.3835797" lon="13.016106"><ele>321.0</ele><time>2026-03-29T12:42:05.703Z</time></trkpt><trkpt lat="46.3834713" lon="13.0163145"><ele>321.0</ele><time>2026-03-29T12:42:06.706Z</time></trkpt><trkpt lat="46.3833227" lon="13.0164623"><ele>321.0</ele><time>2026-03-29T12:42:07.704Z</time></trkpt><trkpt lat="46.3831859" lon="13.0166038"><ele>321.0</ele><time>2026-03-29T12:42:08.713Z</time></trkpt><trkpt lat="46.3830511" lon="13.0167378"><ele>321.0</ele><time>2026-03-29T12:42:09.716Z</time></trkpt><trkpt lat="46.382894" lon="13.0168262"><ele>316.0</ele><time>2026-03-29T12:42:10.725Z</time></trkpt><trkpt lat="46.3827354" lon="13.0169222"><ele>311.0</ele><time>2026-03-29T12:42:11.709Z</time></trkpt><trkpt lat="46.3825857" lon="13.0170413"><ele>306.0</ele><time>2026-03-29T12:42:12.728Z</time></trkpt><trkpt lat="46.3824413" lon="13.0171749"><ele>306.0</ele><time>2026-03-29T12:42:13.703Z</time></trkpt><trkpt lat="46.3823072" lon="13.0173332"><ele>306.0</ele><time>2026-03-29T12:42:14.7Z</time></trkpt><trkpt lat="46.3821641" lon="13.0174724"><ele>306.0</ele><time>2026-03-29T12:42:15.703Z</time></trkpt><trkpt lat="46.3820252" lon="13.0176244"><ele>305.6666666666667</ele><time>2026-03-29T12:42:16.711Z</time></trkpt><trkpt lat="46.3818809" lon="13.0177692"><ele>305.33333333333337</ele><time>2026-03-29T12:42:17.705Z</time></trkpt><trkpt lat="46.3817401" lon="13.0179177"><ele>305.0</ele><time>2026-03-29T12:42:18.694Z</time></trkpt><trkpt lat="46.3816021" lon="13.0180714"><ele>305.0</ele><time>2026-03-29T12:42:19.702Z</time></trkpt><trkpt lat="46.3814713" lon="13.0182276"><ele>305.0</ele><time>2026-03-29T12:42:20.704Z</time></trkpt><trkpt lat="46.3813402" lon="13.0183736"><ele>305.0</ele><time>2026-03-29T12:42:21.7Z</time></trkpt><trkpt lat="46.3812192" lon="13.0185244"><ele>309.33333333333337</ele><time>2026-03-29T12:42:22.706Z</time></trkpt><trkpt lat="46.3811014" lon="13.0186681"><ele>313.6666666666667</ele><time>2026-03-29T12:42:23.691Z</time></trkpt><trkpt lat="46.3809912" lon="13.0188293"><ele>318.0</ele><time>2026-03-29T12:42:24.714Z</time></trkpt><trkpt lat="46.3809143" lon="13.0190316"><ele>319.6666666666667</ele><time>2026-03-29T12:42:25.716Z</time></trkpt><trkpt lat="46.3808747" lon="13.0192553"><ele>321.33333333333337</ele><time>2026-03-29T12:42:26.714Z</time></trkpt><trkpt lat="46.3808215" lon="13.0194623"><ele>323.0</ele><time>2026-03-29T12:42:27.712Z</time></trkpt><trkpt lat="46.380767" lon="13.0196463"><ele>323.0</ele><time>2026-03-29T12:42:28.708Z</time></trkpt><trkpt lat="46.3807553" lon="13.0198297"><ele>323.0</ele><time>2026-03-29T12:42:29.727Z</time></trkpt><trkpt lat="46.3807741" lon="13.0199999"><ele>323.0</ele><time>2026-03-29T12:42:30.708Z</time></trkpt><trkpt lat="46.3808084" lon="13.0201613"><ele>323.0</ele><time>2026-03-29T12:42:31.708Z</time></trkpt><trkpt lat="46.3808694" lon="13.0203088"><ele>323.0</ele><time>2026-03-29T12:42:32.702Z</time></trkpt><trkpt lat="46.3809678" lon="13.0204555"><ele>323.0</ele><time>2026-03-29T12:42:33.706Z</time></trkpt><trkpt lat="46.381076" lon="13.0205753"><ele>323.0</ele><time>2026-03-29T12:42:34.711Z</time></trkpt><trkpt lat="46.3811769" lon="13.020685"><ele>323.0</ele><time>2026-03-29T12:42:35.708Z</time></trkpt><trkpt lat="46.3812596" lon="13.0207932"><ele>325.5</ele><time>2026-03-29T12:42:36.714Z</time></trkpt><trkpt lat="46.3813149" lon="13.0209469"><ele>328.0</ele><time>2026-03-29T12:42:37.727Z</time></trkpt><trkpt lat="46.3813527" lon="13.0211062"><ele>330.5</ele><time>2026-03-29T12:42:38.713Z</time></trkpt><trkpt lat="46.3813577" lon="13.0212801"><ele>333.0</ele><time>2026-03-29T12:42:39.712Z</time></trkpt><trkpt lat="46.3813309" lon="13.0214561"><ele>333.0</ele><time>2026-03-29T12:42:40.724Z</time></trkpt><trkpt lat="46.381247" lon="13.0216057"><ele>333.0</ele><time>2026-03-29T12:42:41.707Z</time></trkpt><trkpt lat="46.3811377" lon="13.0217525"><ele>333.0</ele><time>2026-03-29T12:42:42.707Z</time></trkpt><trkpt lat="46.3810055" lon="13.0218942"><ele>333.0</ele><time>2026-03-29T12:42:43.714Z</time></trkpt><trkpt lat="46.3808839" lon="13.0220625"><ele>333.6666666666667</ele><time>2026-03-29T12:42:44.71Z</time></trkpt><trkpt lat="46.3807547" lon="13.0222287"><ele>334.33333333333337</ele><time>2026-03-29T12:42:45.702Z</time></trkpt><trkpt lat="46.38062" lon="13.0223728"><ele>335.0</ele><time>2026-03-29T12:42:46.709Z</time></trkpt><trkpt lat="46.380498" lon="13.0225382"><ele>337.6666666666667</ele><time>2026-03-29T12:42:47.727Z</time></trkpt><trkpt lat="46.3803521" lon="13.0226501"><ele>340.3333333333333</ele><time>2026-03-29T12:42:48.715Z</time></trkpt><trkpt lat="46.380229" lon="13.0227659"><ele>343.0</ele><time>2026-03-29T12:42:49.712Z</time></trkpt><trkpt lat="46.3801203" lon="13.0228995"><ele>343.0</ele><time>2026-03-29T12:42:50.696Z</time></trkpt><trkpt lat="46.3800325" lon="13.0230671"><ele>343.0</ele><time>2026-03-29T12:42:51.702Z</time></trkpt><trkpt lat="46.3799573" lon="13.0232739"><ele>343.0</ele><time>2026-03-29T12:42:52.699Z</time></trkpt><trkpt lat="46.3798748" lon="13.0235054"><ele>338.3333333333333</ele><time>2026-03-29T12:42:53.717Z</time></trkpt><trkpt lat="46.3797987" lon="13.0237457"><ele>333.6666666666667</ele><time>2026-03-29T12:42:54.715Z</time></trkpt><trkpt lat="46.3797226" lon="13.0239728"><ele>329.0</ele><time>2026-03-29T12:42:55.706Z</time></trkpt><trkpt lat="46.3796878" lon="13.024211"><ele>333.33333333333337</ele><time>2026-03-29T12:42:56.682Z</time></trkpt><trkpt lat="46.3796471" lon="13.0244405"><ele>337.6666666666667</ele><time>2026-03-29T12:42:57.714Z</time></trkpt><trkpt lat="46.3796137" lon="13.0246579"><ele>342.0</ele><time>2026-03-29T12:42:58.725Z</time></trkpt><trkpt lat="46.3795967" lon="13.0248672"><ele>336.5</ele><time>2026-03-29T12:42:59.71Z</time></trkpt><trkpt lat="46.3795861" lon="13.0250778"><ele>331.0</ele><time>2026-03-29T12:43:00.728Z</time></trkpt><trkpt lat="46.3795912" lon="13.0252961"><ele>325.5</ele><time>2026-03-29T12:43:01.716Z</time></trkpt><trkpt lat="46.3795668" lon="13.0254875"><ele>320.0</ele><time>2026-03-29T12:43:02.732Z</time></trkpt><trkpt lat="46.3795535" lon="13.02567"><ele>317.4</ele><time>2026-03-29T12:43:03.725Z</time></trkpt><trkpt lat="46.379575" lon="13.0258193"><ele>314.8</ele><time>2026-03-29T12:43:04.71Z</time></trkpt><trkpt lat="46.3796063" lon="13.0259527"><ele>312.2</ele><time>2026-03-29T12:43:05.712Z</time></trkpt><trkpt lat="46.379595" lon="13.0260811"><ele>309.6</ele><time>2026-03-29T12:43:06.705Z</time></trkpt><trkpt lat="46.3795302" lon="13.0261785"><ele>307.0</ele><time>2026-03-29T12:43:07.718Z</time></trkpt><trkpt lat="46.3794644" lon="13.0262556"><ele>307.0</ele><time>2026-03-29T12:43:08.698Z</time></trkpt><trkpt lat="46.3793991" lon="13.0263082"><ele>307.0</ele><time>2026-03-29T12:43:09.71Z</time></trkpt><trkpt lat="46.379324" lon="13.0263692"><ele>307.0</ele><time>2026-03-29T12:43:10.724Z</time></trkpt><trkpt lat="46.3792532" lon="13.0264632"><ele>307.0</ele><time>2026-03-29T12:43:11.707Z</time></trkpt><trkpt lat="46.3791811" lon="13.0265925"><ele>307.0</ele><time>2026-03-29T12:43:12.707Z</time></trkpt><trkpt lat="46.3791012" lon="13.0267433"><ele>308.0</ele><time>2026-03-29T12:43:13.699Z</time></trkpt><trkpt lat="46.3789674" lon="13.0269226"><ele>309.0</ele><time>2026-03-29T12:43:14.71Z</time></trkpt><trkpt lat="46.3788694" lon="13.0270829"><ele>310.0</ele><time>2026-03-29T12:43:15.717Z</time></trkpt><trkpt lat="46.3787639" lon="13.0272206"><ele>307.75</ele><time>2026-03-29T12:43:16.699Z</time></trkpt><trkpt lat="46.3786938" lon="13.0273833"><ele>305.5</ele><time>2026-03-29T12:43:17.722Z</time></trkpt><trkpt lat="46.3786353" lon="13.0275447"><ele>303.25</ele><time>2026-03-29T12:43:18.722Z</time></trkpt><trkpt lat="46.3785933" lon="13.0277261"><ele>301.0</ele><time>2026-03-29T12:43:19.716Z</time></trkpt><trkpt lat="46.378553" lon="13.0279162"><ele>300.0</ele><time>2026-03-29T12:43:20.707Z</time></trkpt><trkpt lat="46.3785208" lon="13.0281195"><ele>299.0</ele><time>2026-03-29T12:43:21.711Z</time></trkpt><trkpt lat="46.3784981" lon="13.0283194"><ele>298.0</ele><time>2026-03-29T12:43:22.708Z</time></trkpt><trkpt lat="46.3784403" lon="13.0284991"><ele>297.0</ele><time>2026-03-29T12:43:23.713Z</time></trkpt><trkpt lat="46.378358" lon="13.0286643"><ele>297.0</ele><time>2026-03-29T12:43:24.709Z</time></trkpt><trkpt lat="46.3782615" lon="13.0288188"><ele>297.0</ele><time>2026-03-29T12:43:25.705Z</time></trkpt><trkpt lat="46.3781409" lon="13.028955"><ele>297.0</ele><time>2026-03-29T12:43:26.713Z</time></trkpt><trkpt lat="46.3780012" lon="13.029064"><ele>297.0</ele><time>2026-03-29T12:43:27.727Z</time></trkpt><trkpt lat="46.3778666" lon="13.0291829"><ele>297.0</ele><time>2026-03-29T12:43:28.701Z</time></trkpt><trkpt lat="46.3777208" lon="13.029283"><ele>297.0</ele><time>2026-03-29T12:43:29.698Z</time></trkpt><trkpt lat="46.3775698" lon="13.0293698"><ele>297.0</ele><time>2026-03-29T12:43:30.696Z</time></trkpt><trkpt lat="46.3774244" lon="13.0294667"><ele>297.0</ele><time>2026-03-29T12:43:31.687Z</time></trkpt><trkpt lat="46.3772685" lon="13.0295501"><ele>297.0</ele><time>2026-03-29T12:43:32.694Z</time></trkpt><trkpt lat="46.3771199" lon="13.0296571"><ele>294.3333333333333</ele><time>2026-03-29T12:43:33.722Z</time></trkpt><trkpt lat="46.3769537" lon="13.0297415"><ele>291.66666666666663</ele><time>2026-03-29T12:43:34.726Z</time></trkpt><trkpt lat="46.3767747" lon="13.0297839"><ele>289.0</ele><time>2026-03-29T12:43:35.704Z</time></trkpt><trkpt lat="46.3765914" lon="13.0298211"><ele>289.0</ele><time>2026-03-29T12:43:36.715Z</time></trkpt><trkpt lat="46.3763991" lon="13.0298275"><ele>289.0</ele><time>2026-03-29T12:43:37.717Z</time></trkpt><trkpt lat="46.3762062" lon="13.0298387"><ele>289.0</ele><time>2026-03-29T12:43:38.723Z</time></trkpt><trkpt lat="46.37601" lon="13.029847"><ele>290.66666666666663</ele><time>2026-03-29T12:43:39.707Z</time></trkpt><trkpt lat="46.3758155" lon="13.0298385"><ele>292.3333333333333</ele><time>2026-03-29T12:43:40.709Z</time></trkpt><trkpt lat="46.3756201" lon="13.0298291"><ele>294.0</ele><time>2026-03-29T12:43:41.728Z</time></trkpt><trkpt lat="46.3754234" lon="13.0298292"><ele>294.3333333333333</ele><time>2026-03-29T12:43:42.702Z</time></trkpt><trkpt lat="46.3752258" lon="13.0298195"><ele>294.66666666666663</ele><time>2026-03-29T12:43:43.706Z</time></trkpt><trkpt lat="46.3750284" lon="13.0298303"><ele>295.0</ele><time>2026-03-29T12:43:44.695Z</time></trkpt><trkpt lat="46.3748322" lon="13.0298716"><ele>294.0</ele><time>2026-03-29T12:43:45.702Z</time></trkpt><trkpt lat="46.3746362" lon="13.0298905"><ele>293.0</ele><time>2026-03-29T12:43:46.711Z</time></trkpt><trkpt lat="46.3744441" lon="13.029913"><ele>292.0</ele><time>2026-03-29T12:43:47.713Z</time></trkpt><trkpt lat="46.3742576" lon="13.0299715"><ele>292.0</ele><time>2026-03-29T12:43:48.707Z</time></trkpt><trkpt lat="46.3740708" lon="13.0299998"><ele>292.0</ele><time>2026-03-29T12:43:49.696Z</time></trkpt><trkpt lat="46.3738843" lon="13.0300033"><ele>292.0</ele><time>2026-03-29T12:43:50.703Z</time></trkpt><trkpt lat="46.3737025" lon="13.0300257"><ele>291.66666666666663</ele><time>2026-03-29T12:43:51.704Z</time></trkpt><trkpt lat="46.3735212" lon="13.0300877"><ele>291.3333333333333</ele><time>2026-03-29T12:43:52.707Z</time></trkpt><trkpt lat="46.3733324" lon="13.0301618"><ele>291.0</ele><time>2026-03-29T12:43:53.71Z</time></trkpt><trkpt lat="46.3731335" lon="13.0302623"><ele>289.3333333333333</ele><time>2026-03-29T12:43:54.716Z</time></trkpt><trkpt lat="46.3729274" lon="13.030373"><ele>287.66666666666663</ele><time>2026-03-29T12:43:55.693Z</time></trkpt><trkpt lat="46.3727218" lon="13.0304927"><ele>286.0</ele><time>2026-03-29T12:43:56.698Z</time></trkpt><trkpt lat="46.3725221" lon="13.0306099"><ele>286.0</ele><time>2026-03-29T12:43:57.696Z</time></trkpt><trkpt lat="46.3723313" lon="13.0307051"><ele>286.0</ele><time>2026-03-29T12:43:58.698Z</time></trkpt><trkpt lat="46.3721502" lon="13.0308185"><ele>286.0</ele><time>2026-03-29T12:43:59.706Z</time></trkpt><trkpt lat="46.371972" lon="13.0309219"><ele>285.66666666666663</ele><time>2026-03-29T12:44:00.691Z</time></trkpt><trkpt lat="46.3718044" lon="13.0310275"><ele>285.3333333333333</ele><time>2026-03-29T12:44:01.713Z</time></trkpt><trkpt lat="46.3716417" lon="13.0311225"><ele>285.0</ele><time>2026-03-29T12:44:02.72Z</time></trkpt><trkpt lat="46.3714814" lon="13.0312112"><ele>285.0</ele><time>2026-03-29T12:44:03.698Z</time></trkpt><trkpt lat="46.3713204" lon="13.0312836"><ele>285.0</ele><time>2026-03-29T12:44:04.709Z</time></trkpt><trkpt lat="46.371163" lon="13.0313542"><ele>285.0</ele><time>2026-03-29T12:44:05.711Z</time></trkpt><trkpt lat="46.3710171" lon="13.0314409"><ele>285.0</ele><time>2026-03-29T12:44:06.715Z</time></trkpt><trkpt lat="46.3708786" lon="13.0315303"><ele>285.0</ele><time>2026-03-29T12:44:07.69Z</time></trkpt><trkpt lat="46.3707485" lon="13.031613"><ele>285.0</ele><time>2026-03-29T12:44:08.698Z</time></trkpt><trkpt lat="46.3706261" lon="13.0317106"><ele>285.0</ele><time>2026-03-29T12:44:09.708Z</time></trkpt><trkpt lat="46.3705074" lon="13.0318238"><ele>286.0</ele><time>2026-03-29T12:44:10.725Z</time></trkpt><trkpt lat="46.3703967" lon="13.0319636"><ele>287.0</ele><time>2026-03-29T12:44:11.707Z</time></trkpt><trkpt lat="46.3702875" lon="13.0320967"><ele>288.0</ele><time>2026-03-29T12:44:12.708Z</time></trkpt><trkpt lat="46.3701935" lon="13.0322296"><ele>289.0</ele><time>2026-03-29T12:44:13.71Z</time></trkpt><trkpt lat="46.370121" lon="13.0323711"><ele>293.0</ele><time>2026-03-29T12:44:14.708Z</time></trkpt><trkpt lat="46.370038" lon="13.0324831"><ele>297.0</ele><time>2026-03-29T12:44:15.696Z</time></trkpt><trkpt lat="46.369952" lon="13.0325861"><ele>301.0</ele><time>2026-03-29T12:44:16.702Z</time></trkpt><trkpt lat="46.369849" lon="13.0326522"><ele>305.0</ele><time>2026-03-29T12:44:17.707Z</time></trkpt><trkpt lat="46.3697392" lon="13.0327096"><ele>300.75</ele><time>2026-03-29T12:44:18.7Z</time></trkpt><trkpt lat="46.3696181" lon="13.032764"><ele>296.5</ele><time>2026-03-29T12:44:19.709Z</time></trkpt><trkpt lat="46.3694793" lon="13.0328024"><ele>292.25</ele><time>2026-03-29T12:44:20.702Z</time></trkpt><trkpt lat="46.3693313" lon="13.0328425"><ele>288.0</ele><time>2026-03-29T12:44:21.71Z</time></trkpt><trkpt lat="46.3691759" lon="13.0328825"><ele>288.0</ele><time>2026-03-29T12:44:22.707Z</time></trkpt><trkpt lat="46.3690161" lon="13.032939"><ele>288.0</ele><time>2026-03-29T12:44:23.703Z</time></trkpt><trkpt lat="46.3688507" lon="13.0329957"><ele>288.0</ele><time>2026-03-29T12:44:24.721Z</time></trkpt><trkpt lat="46.3686747" lon="13.0330288"><ele>286.6666666666667</ele><time>2026-03-29T12:44:25.704Z</time></trkpt><trkpt lat="46.3684949" lon="13.0330806"><ele>285.33333333333337</ele><time>2026-03-29T12:44:26.712Z</time></trkpt><trkpt lat="46.3683119" lon="13.0331451"><ele>284.0</ele><time>2026-03-29T12:44:27.703Z</time></trkpt><trkpt lat="46.3681257" lon="13.0332057"><ele>284.33333333333337</ele><time>2026-03-29T12:44:28.713Z</time></trkpt><trkpt lat="46.3679408" lon="13.0332729"><ele>284.6666666666667</ele><time>2026-03-29T12:44:29.709Z</time></trkpt><trkpt lat="46.367757" lon="13.0333531"><ele>285.0</ele><time>2026-03-29T12:44:30.693Z</time></trkpt><trkpt lat="46.3675778" lon="13.0334494"><ele>285.3333333333333</ele><time>2026-03-29T12:44:31.694Z</time></trkpt><trkpt lat="46.3674033" lon="13.0335495"><ele>285.66666666666663</ele><time>2026-03-29T12:44:32.709Z</time></trkpt><trkpt lat="46.3672372" lon="13.0336657"><ele>286.0</ele><time>2026-03-29T12:44:33.707Z</time></trkpt><trkpt lat="46.3670758" lon="13.0337946"><ele>285.3333333333333</ele><time>2026-03-29T12:44:34.711Z</time></trkpt><trkpt lat="46.3669187" lon="13.0339345"><ele>284.6666666666667</ele><time>2026-03-29T12:44:35.713Z</time></trkpt><trkpt lat="46.3667673" lon="13.0340881"><ele>284.0</ele><time>2026-03-29T12:44:36.714Z</time></trkpt><trkpt lat="46.3666287" lon="13.0342617"><ele>284.0</ele><time>2026-03-29T12:44:37.725Z</time></trkpt><trkpt lat="46.3664946" lon="13.0344386"><ele>284.0</ele><time>2026-03-29T12:44:38.712Z</time></trkpt><trkpt lat="46.3663645" lon="13.0346282"><ele>284.0</ele><time>2026-03-29T12:44:39.705Z</time></trkpt><trkpt lat="46.3662415" lon="13.0348329"><ele>285.33333333333337</ele><time>2026-03-29T12:44:40.712Z</time></trkpt><trkpt lat="46.3661385" lon="13.0350682"><ele>286.6666666666667</ele><time>2026-03-29T12:44:41.708Z</time></trkpt><trkpt lat="46.3660327" lon="13.0352993"><ele>288.0</ele><time>2026-03-29T12:44:42.711Z</time></trkpt><trkpt lat="46.3659161" lon="13.0355149"><ele>288.0</ele><time>2026-03-29T12:44:43.715Z</time></trkpt><trkpt lat="46.3658068" lon="13.0357395"><ele>288.0</ele><time>2026-03-29T12:44:44.703Z</time></trkpt><trkpt lat="46.3657107" lon="13.035974"><ele>288.0</ele><time>2026-03-29T12:44:45.709Z</time></trkpt><trkpt lat="46.3656262" lon="13.0362146"><ele>288.0</ele><time>2026-03-29T12:44:46.701Z</time></trkpt><trkpt lat="46.365553" lon="13.0364631"><ele>288.0</ele><time>2026-03-29T12:44:47.7Z</time></trkpt><trkpt lat="46.3654745" lon="13.0367055"><ele>288.0</ele><time>2026-03-29T12:44:48.713Z</time></trkpt><trkpt lat="46.3653959" lon="13.0369459"><ele>288.0</ele><time>2026-03-29T12:44:49.686Z</time></trkpt><trkpt lat="46.365319" lon="13.0371922"><ele>288.0</ele><time>2026-03-29T12:44:50.701Z</time></trkpt><trkpt lat="46.3652306" lon="13.0374358"><ele>288.0</ele><time>2026-03-29T12:44:51.699Z</time></trkpt><trkpt lat="46.3651595" lon="13.0377002"><ele>287.6666666666667</ele><time>2026-03-29T12:44:52.706Z</time></trkpt><trkpt lat="46.3650802" lon="13.037961"><ele>287.33333333333337</ele><time>2026-03-29T12:44:53.714Z</time></trkpt><trkpt lat="46.3650087" lon="13.0382305"><ele>287.0</ele><time>2026-03-29T12:44:54.719Z</time></trkpt><trkpt lat="46.3649467" lon="13.0385097"><ele>286.6666666666667</ele><time>2026-03-29T12:44:55.71Z</time></trkpt><trkpt lat="46.3648638" lon="13.0387739"><ele>286.3333333333333</ele><time>2026-03-29T12:44:56.71Z</time></trkpt><trkpt lat="46.3647864" lon="13.0390443"><ele>286.0</ele><time>2026-03-29T12:44:57.698Z</time></trkpt><trkpt lat="46.3647089" lon="13.039317"><ele>290.0</ele><time>2026-03-29T12:44:58.72Z</time></trkpt><trkpt lat="46.3646329" lon="13.0395899"><ele>294.0</ele><time>2026-03-29T12:44:59.693Z</time></trkpt><trkpt lat="46.3645592" lon="13.0398627"><ele>298.0</ele><time>2026-03-29T12:45:00.694Z</time></trkpt><trkpt lat="46.3644828" lon="13.0401328"><ele>298.0</ele><time>2026-03-29T12:45:01.712Z</time></trkpt><trkpt lat="46.3644044" lon="13.0404018"><ele>298.0</ele><time>2026-03-29T12:45:02.72Z</time></trkpt><trkpt lat="46.3643216" lon="13.0406705"><ele>298.0</ele><time>2026-03-29T12:45:03.718Z</time></trkpt><trkpt lat="46.3642343" lon="13.0409413"><ele>295.66666666666663</ele><time>2026-03-29T12:45:04.712Z</time></trkpt><trkpt lat="46.3641379" lon="13.0412122"><ele>293.3333333333333</ele><time>2026-03-29T12:45:05.708Z</time></trkpt><trkpt lat="46.3640445" lon="13.0414903"><ele>291.0</ele><time>2026-03-29T12:45:06.718Z</time></trkpt><trkpt lat="46.3639416" lon="13.0417561"><ele>297.3333333333333</ele><time>2026-03-29T12:45:07.705Z</time></trkpt><trkpt lat="46.3638468" lon="13.0420258"><ele>303.66666666666663</ele><time>2026-03-29T12:45:08.714Z</time></trkpt><trkpt lat="46.3637396" lon="13.0422777"><ele>310.0</ele><time>2026-03-29T12:45:09.706Z</time></trkpt><trkpt lat="46.3636528" lon="13.0425404"><ele>310.0</ele><time>2026-03-29T12:45:10.714Z</time></trkpt><trkpt lat="46.3635518" lon="13.0427913"><ele>310.0</ele><time>2026-03-29T12:45:11.73Z</time></trkpt><trkpt lat="46.3634441" lon="13.0430406"><ele>310.0</ele><time>2026-03-29T12:45:12.705Z</time></trkpt><trkpt lat="46.3633196" lon="13.043278"><ele>311.3333333333333</ele><time>2026-03-29T12:45:13.723Z</time></trkpt><trkpt lat="46.3631811" lon="13.0435026"><ele>312.6666666666667</ele><time>2026-03-29T12:45:14.706Z</time></trkpt><trkpt lat="46.3630081" lon="13.0436929"><ele>314.0</ele><time>2026-03-29T12:45:15.733Z</time></trkpt><trkpt lat="46.3628524" lon="13.0439008"><ele>314.0</ele><time>2026-03-29T12:45:16.73Z</time></trkpt><trkpt lat="46.3626797" lon="13.0440706"><ele>314.0</ele><time>2026-03-29T12:45:17.712Z</time></trkpt><trkpt lat="46.3625266" lon="13.0442635"><ele>314.0</ele><time>2026-03-29T12:45:18.729Z</time></trkpt><trkpt lat="46.3623707" lon="13.0444292"><ele>316.0</ele><time>2026-03-29T12:45:19.728Z</time></trkpt><trkpt lat="46.3622469" lon="13.0446253"><ele>318.0</ele><time>2026-03-29T12:45:20.711Z</time></trkpt><trkpt lat="46.3621093" lon="13.0447899"><ele>320.0</ele><time>2026-03-29T12:45:21.728Z</time></trkpt><trkpt lat="46.3619713" lon="13.0449105"><ele>317.0</ele><time>2026-03-29T12:45:22.73Z</time></trkpt><trkpt lat="46.361847" lon="13.0450303"><ele>314.0</ele><time>2026-03-29T12:45:23.713Z</time></trkpt><trkpt lat="46.3617015" lon="13.0451321"><ele>311.0</ele><time>2026-03-29T12:45:24.714Z</time></trkpt><trkpt lat="46.361541" lon="13.0452278"><ele>311.0</ele><time>2026-03-29T12:45:25.709Z</time></trkpt><trkpt lat="46.3613799" lon="13.0452946"><ele>311.0</ele><time>2026-03-29T12:45:26.708Z</time></trkpt><trkpt lat="46.3612166" lon="13.0453343"><ele>311.0</ele><time>2026-03-29T12:45:27.701Z</time></trkpt><trkpt lat="46.3610651" lon="13.0454018"><ele>309.0</ele><time>2026-03-29T12:45:28.701Z</time></trkpt><trkpt lat="46.3609216" lon="13.0454609"><ele>307.0</ele><time>2026-03-29T12:45:29.727Z</time></trkpt><trkpt lat="46.36081" lon="13.0455268"><ele>305.0</ele><time>2026-03-29T12:45:30.71Z</time></trkpt><trkpt lat="46.3607231" lon="13.0456349"><ele>303.0</ele><time>2026-03-29T12:45:31.713Z</time></trkpt><trkpt lat="46.3606838" lon="13.0458489"><ele>303.0</ele><time>2026-03-29T12:45:32.714Z</time></trkpt><trkpt lat="46.360666" lon="13.0460622"><ele>303.0</ele><time>2026-03-29T12:45:33.735Z</time></trkpt><trkpt lat="46.360666" lon="13.0463116"><ele>303.0</ele><time>2026-03-29T12:45:34.728Z</time></trkpt><trkpt lat="46.3606676" lon="13.0465901"><ele>303.0</ele><time>2026-03-29T12:45:35.717Z</time></trkpt><trkpt lat="46.3606099" lon="13.0468162"><ele>303.0</ele><time>2026-03-29T12:45:36.741Z</time></trkpt><trkpt lat="46.3605523" lon="13.0470647"><ele>303.0</ele><time>2026-03-29T12:45:37.709Z</time></trkpt><trkpt lat="46.3604987" lon="13.0473211"><ele>295.6666666666667</ele><time>2026-03-29T12:45:38.722Z</time></trkpt><trkpt lat="46.3604257" lon="13.0475551"><ele>288.33333333333337</ele><time>2026-03-29T12:45:39.701Z</time></trkpt><trkpt lat="46.3603638" lon="13.0477996"><ele>281.0</ele><time>2026-03-29T12:45:40.708Z</time></trkpt><trkpt lat="46.3603066" lon="13.0480517"><ele>283.0</ele><time>2026-03-29T12:45:41.698Z</time></trkpt><trkpt lat="46.3602773" lon="13.0483225"><ele>285.0</ele><time>2026-03-29T12:45:42.696Z</time></trkpt><trkpt lat="46.3602215" lon="13.0485912"><ele>287.0</ele><time>2026-03-29T12:45:43.697Z</time></trkpt><trkpt lat="46.3601846" lon="13.0488818"><ele>287.6666666666667</ele><time>2026-03-29T12:45:44.702Z</time></trkpt><trkpt lat="46.3601518" lon="13.0491814"><ele>288.3333333333333</ele><time>2026-03-29T12:45:45.721Z</time></trkpt><trkpt lat="46.3601119" lon="13.0494694"><ele>289.0</ele><time>2026-03-29T12:45:46.713Z</time></trkpt><trkpt lat="46.3600656" lon="13.049742"><ele>291.3333333333333</ele><time>2026-03-29T12:45:47.709Z</time></trkpt><trkpt lat="46.3600278" lon="13.0500183"><ele>293.6666666666667</ele><time>2026-03-29T12:45:48.708Z</time></trkpt><trkpt lat="46.3599923" lon="13.0502938"><ele>296.0</ele><time>2026-03-29T12:45:49.707Z</time></trkpt><trkpt lat="46.3599493" lon="13.0505644"><ele>296.0</ele><time>2026-03-29T12:45:50.705Z</time></trkpt><trkpt lat="46.3598587" lon="13.0507887"><ele>296.0</ele><time>2026-03-29T12:45:51.709Z</time></trkpt><trkpt lat="46.3597922" lon="13.0510299"><ele>296.0</ele><time>2026-03-29T12:45:52.726Z</time></trkpt><trkpt lat="46.3597272" lon="13.0512882"><ele>290.33333333333337</ele><time>2026-03-29T12:45:53.71Z</time></trkpt><trkpt lat="46.3596372" lon="13.0515338"><ele>284.6666666666667</ele><time>2026-03-29T12:45:54.705Z</time></trkpt><trkpt lat="46.3595212" lon="13.0517607"><ele>279.0</ele><time>2026-03-29T12:45:55.702Z</time></trkpt><trkpt lat="46.3593936" lon="13.0519869"><ele>279.0</ele><time>2026-03-29T12:45:56.713Z</time></trkpt><trkpt lat="46.3592624" lon="13.0522183"><ele>279.0</ele><time>2026-03-29T12:45:57.713Z</time></trkpt><trkpt lat="46.3591296" lon="13.0524417"><ele>279.0</ele><time>2026-03-29T12:45:58.715Z</time></trkpt><trkpt lat="46.3589918" lon="13.0526515"><ele>278.6666666666667</ele><time>2026-03-29T12:45:59.708Z</time></trkpt><trkpt lat="46.3588483" lon="13.0528434"><ele>278.33333333333337</ele><time>2026-03-29T12:46:00.711Z</time></trkpt><trkpt lat="46.3586998" lon="13.0530149"><ele>278.0</ele><time>2026-03-29T12:46:01.729Z</time></trkpt><trkpt lat="46.3585532" lon="13.0531885"><ele>280.0</ele><time>2026-03-29T12:46:02.711Z</time></trkpt><trkpt lat="46.358392" lon="13.0533329"><ele>282.0</ele><time>2026-03-29T12:46:03.725Z</time></trkpt><trkpt lat="46.3582433" lon="13.0534863"><ele>284.0</ele><time>2026-03-29T12:46:04.704Z</time></trkpt><trkpt lat="46.3580887" lon="13.0536058"><ele>287.6666666666667</ele><time>2026-03-29T12:46:05.711Z</time></trkpt><trkpt lat="46.3579349" lon="13.0537087"><ele>291.3333333333333</ele><time>2026-03-29T12:46:06.719Z</time></trkpt><trkpt lat="46.3577866" lon="13.0537934"><ele>295.0</ele><time>2026-03-29T12:46:07.727Z</time></trkpt><trkpt lat="46.3576474" lon="13.053869"><ele>295.0</ele><time>2026-03-29T12:46:08.731Z</time></trkpt><trkpt lat="46.3575235" lon="13.0539662"><ele>295.0</ele><time>2026-03-29T12:46:09.704Z</time></trkpt><trkpt lat="46.35742" lon="13.0540943"><ele>295.0</ele><time>2026-03-29T12:46:10.714Z</time></trkpt><trkpt lat="46.357318" lon="13.0542195"><ele>295.0</ele><time>2026-03-29T12:46:11.707Z</time></trkpt><trkpt lat="46.3572514" lon="13.0543819"><ele>295.25</ele><time>2026-03-29T12:46:12.706Z</time></trkpt><trkpt lat="46.3572203" lon="13.0545797"><ele>295.5</ele><time>2026-03-29T12:46:13.715Z</time></trkpt><trkpt lat="46.3572259" lon="13.0547962"><ele>295.75</ele><time>2026-03-29T12:46:14.731Z</time></trkpt><trkpt lat="46.3572442" lon="13.0550252"><ele>296.0</ele><time>2026-03-29T12:46:15.7Z</time></trkpt><trkpt lat="46.3572769" lon="13.0552673"><ele>296.0</ele><time>2026-03-29T12:46:16.72Z</time></trkpt><trkpt lat="46.3573063" lon="13.0555243"><ele>296.0</ele><time>2026-03-29T12:46:17.721Z</time></trkpt><trkpt lat="46.357336" lon="13.0557754"><ele>296.0</ele><time>2026-03-29T12:46:18.706Z</time></trkpt><trkpt lat="46.3573499" lon="13.0560085"><ele>298.33333333333337</ele><time>2026-03-29T12:46:19.712Z</time></trkpt><trkpt lat="46.3573379" lon="13.0562489"><ele>300.6666666666667</ele><time>2026-03-29T12:46:20.714Z</time></trkpt><trkpt lat="46.3573005" lon="13.0564885"><ele>303.0</ele><time>2026-03-29T12:46:21.719Z</time></trkpt><trkpt lat="46.3572267" lon="13.0566993"><ele>314.0</ele><time>2026-03-29T12:46:22.71Z</time></trkpt><trkpt lat="46.3571823" lon="13.0569066"><ele>325.0</ele><time>2026-03-29T12:46:23.717Z</time></trkpt><trkpt lat="46.3571362" lon="13.0571099"><ele>336.0</ele><time>2026-03-29T12:46:24.701Z</time></trkpt><trkpt lat="46.3570854" lon="13.0573185"><ele>335.3333333333333</ele><time>2026-03-29T12:46:25.704Z</time></trkpt><trkpt lat="46.3570327" lon="13.0575263"><ele>334.66666666666663</ele><time>2026-03-29T12:46:26.688Z</time></trkpt><trkpt lat="46.3569836" lon="13.0577407"><ele>334.0</ele><time>2026-03-29T12:46:27.713Z</time></trkpt><trkpt lat="46.3569317" lon="13.057963"><ele>334.0</ele><time>2026-03-29T12:46:28.719Z</time></trkpt><trkpt lat="46.3568874" lon="13.0582019"><ele>334.0</ele><time>2026-03-29T12:46:29.716Z</time></trkpt><trkpt lat="46.3568361" lon="13.0584458"><ele>334.0</ele><time>2026-03-29T12:46:30.729Z</time></trkpt><trkpt lat="46.3567654" lon="13.0586919"><ele>332.66666666666663</ele><time>2026-03-29T12:46:31.714Z</time></trkpt><trkpt lat="46.3567004" lon="13.0589527"><ele>331.3333333333333</ele><time>2026-03-29T12:46:32.711Z</time></trkpt><trkpt lat="46.3566313" lon="13.0592262"><ele>330.0</ele><time>2026-03-29T12:46:33.721Z</time></trkpt><trkpt lat="46.3565506" lon="13.0595036"><ele>326.6666666666667</ele><time>2026-03-29T12:46:34.711Z</time></trkpt><trkpt lat="46.356453" lon="13.059784"><ele>323.33333333333337</ele><time>2026-03-29T12:46:35.713Z</time></trkpt><trkpt lat="46.3563709" lon="13.0600762"><ele>320.0</ele><time>2026-03-29T12:46:36.73Z</time></trkpt><trkpt lat="46.3562946" lon="13.06038"><ele>314.6666666666667</ele><time>2026-03-29T12:46:37.724Z</time></trkpt><trkpt lat="46.3562269" lon="13.0606883"><ele>309.3333333333333</ele><time>2026-03-29T12:46:38.731Z</time></trkpt><trkpt lat="46.3561615" lon="13.0609973"><ele>304.0</ele><time>2026-03-29T12:46:39.705Z</time></trkpt><trkpt lat="46.3560992" lon="13.0613009"><ele>299.0</ele><time>2026-03-29T12:46:40.708Z</time></trkpt><trkpt lat="46.3560491" lon="13.0615925"><ele>294.0</ele><time>2026-03-29T12:46:41.699Z</time></trkpt><trkpt lat="46.3559958" lon="13.0618737"><ele>289.0</ele><time>2026-03-29T12:46:42.72Z</time></trkpt><trkpt lat="46.355938" lon="13.0621428"><ele>288.3333333333333</ele><time>2026-03-29T12:46:43.731Z</time></trkpt><trkpt lat="46.3558884" lon="13.0624056"><ele>287.6666666666667</ele><time>2026-03-29T12:46:44.719Z</time></trkpt><trkpt lat="46.3558553" lon="13.0626556"><ele>287.0</ele><time>2026-03-29T12:46:45.704Z</time></trkpt><trkpt lat="46.3558426" lon="13.0628995"><ele>287.0</ele><time>2026-03-29T12:46:46.72Z</time></trkpt><trkpt lat="46.355828" lon="13.0631194"><ele>287.0</ele><time>2026-03-29T12:46:47.693Z</time></trkpt><trkpt lat="46.3558122" lon="13.0633039"><ele>287.0</ele><time>2026-03-29T12:46:48.715Z</time></trkpt><trkpt lat="46.3558013" lon="13.0634615"><ele>287.0</ele><time>2026-03-29T12:46:49.714Z</time></trkpt><trkpt lat="46.3557436" lon="13.0635698"><ele>287.0</ele><time>2026-03-29T12:46:50.723Z</time></trkpt><trkpt lat="46.3556681" lon="13.0636316"><ele>287.0</ele><time>2026-03-29T12:46:51.714Z</time></trkpt><trkpt lat="46.3555665" lon="13.0636205"><ele>287.0</ele><time>2026-03-29T12:46:52.722Z</time></trkpt><trkpt lat="46.355449" lon="13.0635922"><ele>287.0</ele><time>2026-03-29T12:46:53.714Z</time></trkpt><trkpt lat="46.355349" lon="13.0634787"><ele>287.0</ele><time>2026-03-29T12:46:54.726Z</time></trkpt><trkpt lat="46.3552863" lon="13.0633165"><ele>283.0</ele><time>2026-03-29T12:46:55.719Z</time></trkpt><trkpt lat="46.355218" lon="13.0631843"><ele>279.0</ele><time>2026-03-29T12:46:56.701Z</time></trkpt><trkpt lat="46.3551349" lon="13.0630708"><ele>275.0</ele><time>2026-03-29T12:46:57.709Z</time></trkpt><trkpt lat="46.3550329" lon="13.0629703"><ele>271.0</ele><time>2026-03-29T12:46:58.722Z</time></trkpt><trkpt lat="46.3548929" lon="13.0629233"><ele>271.0</ele><time>2026-03-29T12:46:59.706Z</time></trkpt><trkpt lat="46.3547443" lon="13.062914"><ele>271.0</ele><time>2026-03-29T12:47:00.704Z</time></trkpt><trkpt lat="46.3545886" lon="13.0628932"><ele>271.0</ele><time>2026-03-29T12:47:01.708Z</time></trkpt><trkpt lat="46.3544181" lon="13.0629342"><ele>269.3333333333333</ele><time>2026-03-29T12:47:02.713Z</time></trkpt><trkpt lat="46.3542487" lon="13.0629646"><ele>267.6666666666667</ele><time>2026-03-29T12:47:03.713Z</time></trkpt><trkpt lat="46.3540522" lon="13.063021"><ele>266.0</ele><time>2026-03-29T12:47:04.706Z</time></trkpt><trkpt lat="46.3538773" lon="13.0630447"><ele>267.33333333333337</ele><time>2026-03-29T12:47:05.705Z</time></trkpt><trkpt lat="46.3537057" lon="13.0630922"><ele>268.6666666666667</ele><time>2026-03-29T12:47:06.703Z</time></trkpt><trkpt lat="46.3535493" lon="13.0632185"><ele>270.0</ele><time>2026-03-29T12:47:07.705Z</time></trkpt><trkpt lat="46.3534018" lon="13.0633586"><ele>270.0</ele><time>2026-03-29T12:47:08.702Z</time></trkpt><trkpt lat="46.3532594" lon="13.0635058"><ele>270.0</ele><time>2026-03-29T12:47:09.695Z</time></trkpt><trkpt lat="46.3531255" lon="13.0636755"><ele>270.0</ele><time>2026-03-29T12:47:10.701Z</time></trkpt><trkpt lat="46.3529928" lon="13.0638402"><ele>270.0</ele><time>2026-03-29T12:47:11.712Z</time></trkpt><trkpt lat="46.3528637" lon="13.064012"><ele>270.0</ele><time>2026-03-29T12:47:12.725Z</time></trkpt><trkpt lat="46.3527397" lon="13.0641988"><ele>270.0</ele><time>2026-03-29T12:47:13.704Z</time></trkpt><trkpt lat="46.3526277" lon="13.0644124"><ele>269.6666666666667</ele><time>2026-03-29T12:47:14.709Z</time></trkpt><trkpt lat="46.3525119" lon="13.0646367"><ele>269.33333333333337</ele><time>2026-03-29T12:47:15.698Z</time></trkpt><trkpt lat="46.3523969" lon="13.0648552"><ele>269.0</ele><time>2026-03-29T12:47:16.711Z</time></trkpt><trkpt lat="46.3522862" lon="13.0650718"><ele>267.0</ele><time>2026-03-29T12:47:17.711Z</time></trkpt><trkpt lat="46.3521561" lon="13.06526"><ele>265.0</ele><time>2026-03-29T12:47:18.731Z</time></trkpt><trkpt lat="46.3520226" lon="13.0654359"><ele>263.0</ele><time>2026-03-29T12:47:19.709Z</time></trkpt><trkpt lat="46.3518703" lon="13.0655548"><ele>263.0</ele><time>2026-03-29T12:47:20.736Z</time></trkpt><trkpt lat="46.3517021" lon="13.065629"><ele>263.0</ele><time>2026-03-29T12:47:21.725Z</time></trkpt><trkpt lat="46.3515412" lon="13.065723"><ele>263.0</ele><time>2026-03-29T12:47:22.71Z</time></trkpt><trkpt lat="46.3513899" lon="13.0658374"><ele>264.0</ele><time>2026-03-29T12:47:23.71Z</time></trkpt><trkpt lat="46.3512465" lon="13.0659823"><ele>265.0</ele><time>2026-03-29T12:47:24.707Z</time></trkpt><trkpt lat="46.3511024" lon="13.0661325"><ele>266.0</ele><time>2026-03-29T12:47:25.71Z</time></trkpt><trkpt lat="46.3509769" lon="13.0663004"><ele>266.0</ele><time>2026-03-29T12:47:26.708Z</time></trkpt><trkpt lat="46.350838" lon="13.066448"><ele>266.0</ele><time>2026-03-29T12:47:27.699Z</time></trkpt><trkpt lat="46.3507205" lon="13.0666267"><ele>266.0</ele><time>2026-03-29T12:47:28.707Z</time></trkpt><trkpt lat="46.3506029" lon="13.0667973"><ele>260.0</ele><time>2026-03-29T12:47:29.7Z</time></trkpt><trkpt lat="46.3505079" lon="13.0669868"><ele>254.0</ele><time>2026-03-29T12:47:30.706Z</time></trkpt><trkpt lat="46.3504203" lon="13.0671745"><ele>248.0</ele><time>2026-03-29T12:47:31.71Z</time></trkpt><trkpt lat="46.3503266" lon="13.0673417"><ele>246.0</ele><time>2026-03-29T12:47:32.708Z</time></trkpt><trkpt lat="46.350221" lon="13.0674939"><ele>244.0</ele><time>2026-03-29T12:47:33.71Z</time></trkpt><trkpt lat="46.3500804" lon="13.0675876"><ele>242.0</ele><time>2026-03-29T12:47:34.713Z</time></trkpt><trkpt lat="46.3499258" lon="13.0676426"><ele>242.0</ele><time>2026-03-29T12:47:35.701Z</time></trkpt><trkpt lat="46.3497671" lon="13.0676915"><ele>242.0</ele><time>2026-03-29T12:47:36.701Z</time></trkpt><trkpt lat="46.3496098" lon="13.0677304"><ele>242.0</ele><time>2026-03-29T12:47:37.709Z</time></trkpt><trkpt lat="46.3494572" lon="13.0677749"><ele>238.8</ele><time>2026-03-29T12:47:38.707Z</time></trkpt><trkpt lat="46.3493151" lon="13.0678055"><ele>235.6</ele><time>2026-03-29T12:47:39.702Z</time></trkpt><trkpt lat="46.3491945" lon="13.0678319"><ele>232.40000000000003</ele><time>2026-03-29T12:47:40.705Z</time></trkpt><trkpt lat="46.3491049" lon="13.06786"><ele>229.20000000000002</ele><time>2026-03-29T12:47:41.703Z</time></trkpt><trkpt lat="46.3490349" lon="13.0678525"><ele>226.0</ele><time>2026-03-29T12:47:42.701Z</time></trkpt><trkpt lat="46.3489216" lon="13.0677935"><ele>226.0</ele><time>2026-03-29T12:47:44.71Z</time></trkpt><trkpt lat="46.3489065" lon="13.0676219"><ele>226.00000000000003</ele><time>2026-03-29T12:47:46.71Z</time></trkpt><trkpt lat="46.3489567" lon="13.0675366"><ele>226.00000000000003</ele><time>2026-03-29T12:47:47.71Z</time></trkpt><trkpt lat="46.3490243" lon="13.0674517"><ele>226.0</ele><time>2026-03-29T12:47:48.703Z</time></trkpt><trkpt lat="46.3490801" lon="13.0673573"><ele>226.0</ele><time>2026-03-29T12:47:49.714Z</time></trkpt><trkpt lat="46.349096" lon="13.0672188"><ele>227.25</ele><time>2026-03-29T12:47:50.709Z</time></trkpt><trkpt lat="46.3490772" lon="13.0670732"><ele>228.5</ele><time>2026-03-29T12:47:51.718Z</time></trkpt><trkpt lat="46.3490186" lon="13.0669209"><ele>229.75</ele><time>2026-03-29T12:47:52.71Z</time></trkpt><trkpt lat="46.34894" lon="13.0667687"><ele>231.0</ele><time>2026-03-29T12:47:53.715Z</time></trkpt><trkpt lat="46.3488688" lon="13.0666224"><ele>230.0</ele><time>2026-03-29T12:47:54.711Z</time></trkpt><trkpt lat="46.3487962" lon="13.0664889"><ele>229.0</ele><time>2026-03-29T12:47:55.71Z</time></trkpt><trkpt lat="46.3487213" lon="13.0663671"><ele>228.0</ele><time>2026-03-29T12:47:56.71Z</time></trkpt><trkpt lat="46.3486372" lon="13.0662628"><ele>227.0</ele><time>2026-03-29T12:47:57.723Z</time></trkpt><trkpt lat="46.3485428" lon="13.0661736"><ele>227.0</ele><time>2026-03-29T12:47:58.724Z</time></trkpt><trkpt lat="46.3484436" lon="13.0660998"><ele>227.0</ele><time>2026-03-29T12:47:59.727Z</time></trkpt><trkpt lat="46.3483214" lon="13.0660788"><ele>227.0</ele><time>2026-03-29T12:48:00.711Z</time></trkpt><trkpt lat="46.3481919" lon="13.0661043"><ele>227.0</ele><time>2026-03-29T12:48:01.717Z</time></trkpt><trkpt lat="46.3480652" lon="13.0661525"><ele>221.66666666666669</ele><time>2026-03-29T12:48:02.707Z</time></trkpt><trkpt lat="46.3479393" lon="13.0662871"><ele>216.33333333333331</ele><time>2026-03-29T12:48:03.71Z</time></trkpt><trkpt lat="46.3478072" lon="13.0664472"><ele>211.0</ele><time>2026-03-29T12:48:04.718Z</time></trkpt><trkpt lat="46.3476719" lon="13.066619"><ele>208.0</ele><time>2026-03-29T12:48:05.73Z</time></trkpt><trkpt lat="46.3475294" lon="13.0667704"><ele>205.0</ele><time>2026-03-29T12:48:06.732Z</time></trkpt><trkpt lat="46.3473876" lon="13.0669093"><ele>202.0</ele><time>2026-03-29T12:48:07.728Z</time></trkpt><trkpt lat="46.3472421" lon="13.0670243"><ele>201.75</ele><time>2026-03-29T12:48:08.708Z</time></trkpt><trkpt lat="46.3471176" lon="13.0671554"><ele>201.5</ele><time>2026-03-29T12:48:09.717Z</time></trkpt><trkpt lat="46.3470123" lon="13.0672774"><ele>201.25</ele><time>2026-03-29T12:48:10.702Z</time></trkpt><trkpt lat="46.3469342" lon="13.0674165"><ele>201.0</ele><time>2026-03-29T12:48:11.7Z</time></trkpt><trkpt lat="46.3468733" lon="13.0675719"><ele>201.25</ele><time>2026-03-29T12:48:12.709Z</time></trkpt><trkpt lat="46.3468333" lon="13.0677601"><ele>201.5</ele><time>2026-03-29T12:48:13.705Z</time></trkpt><trkpt lat="46.3467935" lon="13.0679595"><ele>201.75</ele><time>2026-03-29T12:48:14.716Z</time></trkpt><trkpt lat="46.3467583" lon="13.0681554"><ele>202.0</ele><time>2026-03-29T12:48:15.71Z</time></trkpt><trkpt lat="46.3467278" lon="13.0683421"><ele>202.0</ele><time>2026-03-29T12:48:16.73Z</time></trkpt><trkpt lat="46.346693" lon="13.0685199"><ele>202.0</ele><time>2026-03-29T12:48:17.717Z</time></trkpt><trkpt lat="46.3466675" lon="13.0686978"><ele>202.0</ele><time>2026-03-29T12:48:18.71Z</time></trkpt><trkpt lat="46.3466226" lon="13.0688734"><ele>202.0</ele><time>2026-03-29T12:48:19.716Z</time></trkpt><trkpt lat="46.3465642" lon="13.0690591"><ele>203.0</ele><time>2026-03-29T12:48:20.713Z</time></trkpt><trkpt lat="46.3464904" lon="13.0692553"><ele>204.0</ele><time>2026-03-29T12:48:21.727Z</time></trkpt><trkpt lat="46.346412" lon="13.0694682"><ele>205.0</ele><time>2026-03-29T12:48:22.711Z</time></trkpt><trkpt lat="46.3463177" lon="13.0696926"><ele>204.0</ele><time>2026-03-29T12:48:23.708Z</time></trkpt><trkpt lat="46.3462144" lon="13.0699233"><ele>203.0</ele><time>2026-03-29T12:48:24.702Z</time></trkpt><trkpt lat="46.3461009" lon="13.0701582"><ele>202.0</ele><time>2026-03-29T12:48:25.708Z</time></trkpt><trkpt lat="46.3459842" lon="13.070397"><ele>202.0</ele><time>2026-03-29T12:48:26.705Z</time></trkpt><trkpt lat="46.3458725" lon="13.0706505"><ele>202.0</ele><time>2026-03-29T12:48:27.704Z</time></trkpt><trkpt lat="46.3457541" lon="13.0708915"><ele>202.0</ele><time>2026-03-29T12:48:28.698Z</time></trkpt><trkpt lat="46.3456406" lon="13.0711482"><ele>202.33333333333331</ele><time>2026-03-29T12:48:29.703Z</time></trkpt><trkpt lat="46.3455037" lon="13.0713807"><ele>202.66666666666669</ele><time>2026-03-29T12:48:30.705Z</time></trkpt><trkpt lat="46.3453834" lon="13.0716078"><ele>203.0</ele><time>2026-03-29T12:48:31.709Z</time></trkpt><trkpt lat="46.3452798" lon="13.071823"><ele>203.0</ele><time>2026-03-29T12:48:32.712Z</time></trkpt><trkpt lat="46.3451549" lon="13.0720358"><ele>203.0</ele><time>2026-03-29T12:48:33.71Z</time></trkpt><trkpt lat="46.3450485" lon="13.0722504"><ele>203.0</ele><time>2026-03-29T12:48:34.706Z</time></trkpt><trkpt lat="46.3449581" lon="13.0724691"><ele>203.0</ele><time>2026-03-29T12:48:35.704Z</time></trkpt><trkpt lat="46.3448766" lon="13.0726871"><ele>203.0</ele><time>2026-03-29T12:48:36.704Z</time></trkpt><trkpt lat="46.3448174" lon="13.0729313"><ele>203.0</ele><time>2026-03-29T12:48:37.706Z</time></trkpt><trkpt lat="46.3447488" lon="13.0731667"><ele>201.0</ele><time>2026-03-29T12:48:38.692Z</time></trkpt><trkpt lat="46.3446912" lon="13.0734023"><ele>199.0</ele><time>2026-03-29T12:48:39.728Z</time></trkpt><trkpt lat="46.3445984" lon="13.073605"><ele>197.0</ele><time>2026-03-29T12:48:40.706Z</time></trkpt><trkpt lat="46.3444915" lon="13.0737845"><ele>197.0</ele><time>2026-03-29T12:48:41.708Z</time></trkpt><trkpt lat="46.3443441" lon="13.0739215"><ele>197.0</ele><time>2026-03-29T12:48:42.703Z</time></trkpt><trkpt lat="46.3441896" lon="13.0740676"><ele>197.0</ele><time>2026-03-29T12:48:43.698Z</time></trkpt><trkpt lat="46.3440364" lon="13.0742341"><ele>196.33333333333334</ele><time>2026-03-29T12:48:44.702Z</time></trkpt><trkpt lat="46.3438716" lon="13.0743883"><ele>195.66666666666669</ele><time>2026-03-29T12:48:45.707Z</time></trkpt><trkpt lat="46.3436961" lon="13.0745118"><ele>195.0</ele><time>2026-03-29T12:48:46.716Z</time></trkpt><trkpt lat="46.3435228" lon="13.0746323"><ele>195.0</ele><time>2026-03-29T12:48:47.693Z</time></trkpt><trkpt lat="46.3433388" lon="13.0747447"><ele>195.0</ele><time>2026-03-29T12:48:48.699Z</time></trkpt><trkpt lat="46.3431514" lon="13.074849"><ele>195.0</ele><time>2026-03-29T12:48:49.727Z</time></trkpt><trkpt lat="46.3429688" lon="13.074963"><ele>196.33333333333331</ele><time>2026-03-29T12:48:50.742Z</time></trkpt><trkpt lat="46.3427846" lon="13.0750629"><ele>197.66666666666666</ele><time>2026-03-29T12:48:51.708Z</time></trkpt><trkpt lat="46.3426031" lon="13.075148"><ele>199.0</ele><time>2026-03-29T12:48:52.721Z</time></trkpt><trkpt lat="46.3424319" lon="13.0752509"><ele>199.0</ele><time>2026-03-29T12:48:53.711Z</time></trkpt><trkpt lat="46.3422543" lon="13.0753384"><ele>199.0</ele><time>2026-03-29T12:48:54.703Z</time></trkpt><trkpt lat="46.3420815" lon="13.0754091"><ele>199.0</ele><time>2026-03-29T12:48:55.713Z</time></trkpt><trkpt lat="46.3419141" lon="13.0754754"><ele>197.66666666666666</ele><time>2026-03-29T12:48:56.721Z</time></trkpt><trkpt lat="46.3417501" lon="13.075558"><ele>196.33333333333331</ele><time>2026-03-29T12:48:57.711Z</time></trkpt><trkpt lat="46.3415841" lon="13.0756407"><ele>195.0</ele><time>2026-03-29T12:48:58.724Z</time></trkpt><trkpt lat="46.341409" lon="13.0757031"><ele>193.66666666666666</ele><time>2026-03-29T12:48:59.715Z</time></trkpt><trkpt lat="46.3412297" lon="13.0757644"><ele>192.33333333333331</ele><time>2026-03-29T12:49:00.71Z</time></trkpt><trkpt lat="46.341052" lon="13.0758298"><ele>191.0</ele><time>2026-03-29T12:49:01.727Z</time></trkpt><trkpt lat="46.3408835" lon="13.0758749"><ele>192.33333333333331</ele><time>2026-03-29T12:49:02.712Z</time></trkpt><trkpt lat="46.3407287" lon="13.0759195"><ele>193.66666666666666</ele><time>2026-03-29T12:49:03.72Z</time></trkpt><trkpt lat="46.3405811" lon="13.0759597"><ele>195.0</ele><time>2026-03-29T12:49:04.726Z</time></trkpt><trkpt lat="46.3404385" lon="13.0760112"><ele>195.0</ele><time>2026-03-29T12:49:05.741Z</time></trkpt><trkpt lat="46.3403258" lon="13.0761511"><ele>195.0</ele><time>2026-03-29T12:49:06.726Z</time></trkpt><trkpt lat="46.340222" lon="13.076337"><ele>195.0</ele><time>2026-03-29T12:49:07.71Z</time></trkpt><trkpt lat="46.3401279" lon="13.0765852"><ele>197.0</ele><time>2026-03-29T12:49:08.712Z</time></trkpt><trkpt lat="46.3400284" lon="13.0768271"><ele>199.0</ele><time>2026-03-29T12:49:09.73Z</time></trkpt><trkpt lat="46.3399211" lon="13.0770503"><ele>201.0</ele><time>2026-03-29T12:49:10.722Z</time></trkpt><trkpt lat="46.3397925" lon="13.0772335"><ele>200.33333333333331</ele><time>2026-03-29T12:49:11.723Z</time></trkpt><trkpt lat="46.339664" lon="13.0774232"><ele>199.66666666666666</ele><time>2026-03-29T12:49:12.688Z</time></trkpt><trkpt lat="46.3395186" lon="13.0775778"><ele>199.0</ele><time>2026-03-29T12:49:13.71Z</time></trkpt><trkpt lat="46.3393635" lon="13.0776926"><ele>199.0</ele><time>2026-03-29T12:49:14.711Z</time></trkpt><trkpt lat="46.3392124" lon="13.0777793"><ele>199.0</ele><time>2026-03-29T12:49:15.699Z</time></trkpt><trkpt lat="46.3390644" lon="13.0778629"><ele>199.0</ele><time>2026-03-29T12:49:16.71Z</time></trkpt><trkpt lat="46.3389104" lon="13.0779472"><ele>197.0</ele><time>2026-03-29T12:49:17.713Z</time></trkpt><trkpt lat="46.3387511" lon="13.0780275"><ele>195.0</ele><time>2026-03-29T12:49:18.717Z</time></trkpt><trkpt lat="46.3385925" lon="13.0781162"><ele>193.0</ele><time>2026-03-29T12:49:19.702Z</time></trkpt><trkpt lat="46.3384321" lon="13.0782051"><ele>195.66666666666666</ele><time>2026-03-29T12:49:20.711Z</time></trkpt><trkpt lat="46.3382733" lon="13.0782831"><ele>198.33333333333331</ele><time>2026-03-29T12:49:21.711Z</time></trkpt><trkpt lat="46.338114" lon="13.0783692"><ele>201.0</ele><time>2026-03-29T12:49:22.716Z</time></trkpt><trkpt lat="46.3379594" lon="13.0784497"><ele>201.0</ele><time>2026-03-29T12:49:23.723Z</time></trkpt><trkpt lat="46.3378044" lon="13.0785422"><ele>201.0</ele><time>2026-03-29T12:49:24.69Z</time></trkpt><trkpt lat="46.3376385" lon="13.0786246"><ele>201.0</ele><time>2026-03-29T12:49:25.739Z</time></trkpt><trkpt lat="46.3374702" lon="13.0787051"><ele>201.0</ele><time>2026-03-29T12:49:26.722Z</time></trkpt><trkpt lat="46.337284" lon="13.0788527"><ele>201.0</ele><time>2026-03-29T12:49:27.712Z</time></trkpt><trkpt lat="46.337057" lon="13.0789793"><ele>198.33333333333331</ele><time>2026-03-29T12:49:28.706Z</time></trkpt><trkpt lat="46.3368658" lon="13.0790837"><ele>195.66666666666666</ele><time>2026-03-29T12:49:29.694Z</time></trkpt><trkpt lat="46.3366658" lon="13.0791513"><ele>193.0</ele><time>2026-03-29T12:49:30.715Z</time></trkpt><trkpt lat="46.336461" lon="13.0791757"><ele>197.66666666666666</ele><time>2026-03-29T12:49:31.726Z</time></trkpt><trkpt lat="46.3362718" lon="13.0792541"><ele>202.33333333333331</ele><time>2026-03-29T12:49:32.708Z</time></trkpt><trkpt lat="46.3360815" lon="13.0793519"><ele>207.0</ele><time>2026-03-29T12:49:33.715Z</time></trkpt><trkpt lat="46.3358854" lon="13.0794373"><ele>207.0</ele><time>2026-03-29T12:49:34.718Z</time></trkpt><trkpt lat="46.3356988" lon="13.0795332"><ele>207.0</ele><time>2026-03-29T12:49:35.727Z</time></trkpt><trkpt lat="46.3355206" lon="13.0796374"><ele>207.0</ele><time>2026-03-29T12:49:36.708Z</time></trkpt><trkpt lat="46.3353379" lon="13.0797002"><ele>208.0</ele><time>2026-03-29T12:49:37.713Z</time></trkpt><trkpt lat="46.3351688" lon="13.0797786"><ele>209.0</ele><time>2026-03-29T12:49:38.703Z</time></trkpt><trkpt lat="46.3350094" lon="13.0798533"><ele>210.0</ele><time>2026-03-29T12:49:39.718Z</time></trkpt><trkpt lat="46.3348489" lon="13.0798855"><ele>212.33333333333331</ele><time>2026-03-29T12:49:40.703Z</time></trkpt><trkpt lat="46.3347027" lon="13.0799741"><ele>214.66666666666666</ele><time>2026-03-29T12:49:41.695Z</time></trkpt><trkpt lat="46.3345524" lon="13.0800471"><ele>217.0</ele><time>2026-03-29T12:49:42.72Z</time></trkpt><trkpt lat="46.3344027" lon="13.0801172"><ele>217.0</ele><time>2026-03-29T12:49:43.709Z</time></trkpt><trkpt lat="46.3342599" lon="13.080219"><ele>217.0</ele><time>2026-03-29T12:49:44.723Z</time></trkpt><trkpt lat="46.3341094" lon="13.0803023"><ele>217.0</ele><time>2026-03-29T12:49:45.717Z</time></trkpt><trkpt lat="46.3339601" lon="13.0803924"><ele>211.0</ele><time>2026-03-29T12:49:46.711Z</time></trkpt><trkpt lat="46.3338135" lon="13.0804944"><ele>205.0</ele><time>2026-03-29T12:49:47.723Z</time></trkpt><trkpt lat="46.3336711" lon="13.0806118"><ele>199.0</ele><time>2026-03-29T12:49:48.701Z</time></trkpt><trkpt lat="46.3335276" lon="13.0807343"><ele>208.0</ele><time>2026-03-29T12:49:49.707Z</time></trkpt><trkpt lat="46.333383" lon="13.0808719"><ele>217.0</ele><time>2026-03-29T12:49:50.714Z</time></trkpt><trkpt lat="46.3332321" lon="13.0810106"><ele>226.0</ele><time>2026-03-29T12:49:51.707Z</time></trkpt><trkpt lat="46.3330767" lon="13.0811495"><ele>223.33333333333331</ele><time>2026-03-29T12:49:52.711Z</time></trkpt><trkpt lat="46.3329182" lon="13.0812925"><ele>220.66666666666669</ele><time>2026-03-29T12:49:53.738Z</time></trkpt><trkpt lat="46.332786" lon="13.0814722"><ele>218.0</ele><time>2026-03-29T12:49:54.709Z</time></trkpt><trkpt lat="46.3277704" lon="13.0826629"><ele>225.0</ele><time>2026-03-29T12:50:24.651Z</time></trkpt><trkpt lat="46.3276225" lon="13.0825444"><ele>232.0</ele><time>2026-03-29T12:50:25.704Z</time></trkpt><trkpt lat="46.3274576" lon="13.0823958"><ele>239.0</ele><time>2026-03-29T12:50:26.708Z</time></trkpt><trkpt lat="46.3273477" lon="13.0822414"><ele>239.0</ele><time>2026-03-29T12:50:27.717Z</time></trkpt><trkpt lat="46.3272379" lon="13.082097"><ele>239.0</ele><time>2026-03-29T12:50:28.72Z</time></trkpt><trkpt lat="46.3271587" lon="13.0819356"><ele>239.0</ele><time>2026-03-29T12:50:29.717Z</time></trkpt><trkpt lat="46.3270854" lon="13.0817774"><ele>239.0</ele><time>2026-03-29T12:50:30.708Z</time></trkpt><trkpt lat="46.3270332" lon="13.0816156"><ele>241.25</ele><time>2026-03-29T12:50:31.699Z</time></trkpt><trkpt lat="46.3269857" lon="13.0814427"><ele>243.5</ele><time>2026-03-29T12:50:32.719Z</time></trkpt><trkpt lat="46.3269278" lon="13.0812873"><ele>245.75</ele><time>2026-03-29T12:50:33.703Z</time></trkpt><trkpt lat="46.3268647" lon="13.081131"><ele>248.0</ele><time>2026-03-29T12:50:34.691Z</time></trkpt><trkpt lat="46.3267994" lon="13.0809812"><ele>248.0</ele><time>2026-03-29T12:50:35.708Z</time></trkpt><trkpt lat="46.3267433" lon="13.0808407"><ele>248.0</ele><time>2026-03-29T12:50:36.711Z</time></trkpt><trkpt lat="46.3266916" lon="13.0807096"><ele>248.0</ele><time>2026-03-29T12:50:37.686Z</time></trkpt><trkpt lat="46.3266605" lon="13.0805699"><ele>248.0</ele><time>2026-03-29T12:50:38.708Z</time></trkpt><trkpt lat="46.3266546" lon="13.0804251"><ele>248.0</ele><time>2026-03-29T12:50:39.701Z</time></trkpt><trkpt lat="46.3266801" lon="13.080283"><ele>248.4</ele><time>2026-03-29T12:50:40.704Z</time></trkpt><trkpt lat="46.3267374" lon="13.0801608"><ele>248.8</ele><time>2026-03-29T12:50:41.704Z</time></trkpt><trkpt lat="46.3267898" lon="13.0800466"><ele>249.2</ele><time>2026-03-29T12:50:42.698Z</time></trkpt><trkpt lat="46.326835" lon="13.0799088"><ele>249.6</ele><time>2026-03-29T12:50:43.718Z</time></trkpt><trkpt lat="46.3268641" lon="13.0797508"><ele>250.0</ele><time>2026-03-29T12:50:44.705Z</time></trkpt><trkpt lat="46.3268865" lon="13.0795968"><ele>248.25</ele><time>2026-03-29T12:50:45.708Z</time></trkpt><trkpt lat="46.3268566" lon="13.0794499"><ele>246.5</ele><time>2026-03-29T12:50:46.699Z</time></trkpt><trkpt lat="46.3267921" lon="13.07929"><ele>244.75</ele><time>2026-03-29T12:50:47.722Z</time></trkpt><trkpt lat="46.326678" lon="13.0791553"><ele>243.0</ele><time>2026-03-29T12:50:48.706Z</time></trkpt><trkpt lat="46.326571" lon="13.0790148"><ele>244.33333333333331</ele><time>2026-03-29T12:50:49.706Z</time></trkpt><trkpt lat="46.3264517" lon="13.0788872"><ele>245.66666666666666</ele><time>2026-03-29T12:50:50.709Z</time></trkpt><trkpt lat="46.3263077" lon="13.0787708"><ele>247.0</ele><time>2026-03-29T12:50:51.711Z</time></trkpt><trkpt lat="46.3261316" lon="13.078654"><ele>247.0</ele><time>2026-03-29T12:50:52.704Z</time></trkpt><trkpt lat="46.3259535" lon="13.0785305"><ele>247.0</ele><time>2026-03-29T12:50:53.704Z</time></trkpt><trkpt lat="46.3257726" lon="13.0783829"><ele>247.0</ele><time>2026-03-29T12:50:54.701Z</time></trkpt><trkpt lat="46.3255936" lon="13.0781783"><ele>243.0</ele><time>2026-03-29T12:50:55.711Z</time></trkpt><trkpt lat="46.3254273" lon="13.0779248"><ele>239.0</ele><time>2026-03-29T12:50:56.703Z</time></trkpt><trkpt lat="46.325246" lon="13.077697"><ele>239.0</ele><time>2026-03-29T12:50:57.72Z</time></trkpt><trkpt lat="46.3250647" lon="13.0774723"><ele>239.0</ele><time>2026-03-29T12:50:58.707Z</time></trkpt><trkpt lat="46.3248949" lon="13.0772484"><ele>243.5</ele><time>2026-03-29T12:50:59.709Z</time></trkpt><trkpt lat="46.324734" lon="13.07702"><ele>248.0</ele><time>2026-03-29T12:51:00.719Z</time></trkpt><trkpt lat="46.3245668" lon="13.0767919"><ele>229.0</ele><time>2026-03-29T12:51:01.718Z</time></trkpt><trkpt lat="46.3243979" lon="13.0765653"><ele>210.0</ele><time>2026-03-29T12:51:02.71Z</time></trkpt><trkpt lat="46.324205" lon="13.0763708"><ele>210.0</ele><time>2026-03-29T12:51:03.709Z</time></trkpt><trkpt lat="46.3240062" lon="13.0761875"><ele>210.0</ele><time>2026-03-29T12:51:04.698Z</time></trkpt><trkpt lat="46.3238236" lon="13.0759928"><ele>210.0</ele><time>2026-03-29T12:51:05.715Z</time></trkpt><trkpt lat="46.3236615" lon="13.0757729"><ele>210.0</ele><time>2026-03-29T12:51:06.72Z</time></trkpt><trkpt lat="46.3235082" lon="13.0755375"><ele>210.0</ele><time>2026-03-29T12:51:07.724Z</time></trkpt><trkpt lat="46.323345" lon="13.075298"><ele>210.0</ele><time>2026-03-29T12:51:08.712Z</time></trkpt><trkpt lat="46.3231961" lon="13.0750331"><ele>210.0</ele><time>2026-03-29T12:51:09.703Z</time></trkpt><trkpt lat="46.3230742" lon="13.0747201"><ele>219.0</ele><time>2026-03-29T12:51:10.718Z</time></trkpt><trkpt lat="46.3229428" lon="13.0744353"><ele>228.0</ele><time>2026-03-29T12:51:11.711Z</time></trkpt><trkpt lat="46.3228048" lon="13.0741687"><ele>214.5</ele><time>2026-03-29T12:51:12.712Z</time></trkpt><trkpt lat="46.322648" lon="13.0739249"><ele>201.0</ele><time>2026-03-29T12:51:13.713Z</time></trkpt><trkpt lat="46.3225217" lon="13.073656"><ele>201.0</ele><time>2026-03-29T12:51:14.728Z</time></trkpt><trkpt lat="46.3223741" lon="13.0734134"><ele>201.0</ele><time>2026-03-29T12:51:15.721Z</time></trkpt><trkpt lat="46.3222376" lon="13.0731655"><ele>201.0</ele><time>2026-03-29T12:51:16.729Z</time></trkpt><trkpt lat="46.3221105" lon="13.0729224"><ele>201.33333333333331</ele><time>2026-03-29T12:51:17.729Z</time></trkpt><trkpt lat="46.321988" lon="13.072693"><ele>201.66666666666666</ele><time>2026-03-29T12:51:18.73Z</time></trkpt><trkpt lat="46.3218626" lon="13.0724827"><ele>202.0</ele><time>2026-03-29T12:51:19.711Z</time></trkpt><trkpt lat="46.3217377" lon="13.0722893"><ele>202.0</ele><time>2026-03-29T12:51:20.712Z</time></trkpt><trkpt lat="46.3216213" lon="13.0720998"><ele>202.0</ele><time>2026-03-29T12:51:21.711Z</time></trkpt><trkpt lat="46.3214936" lon="13.0719377"><ele>202.0</ele><time>2026-03-29T12:51:22.703Z</time></trkpt><trkpt lat="46.3213831" lon="13.0717656"><ele>201.33333333333331</ele><time>2026-03-29T12:51:23.72Z</time></trkpt><trkpt lat="46.3212753" lon="13.0715915"><ele>200.66666666666669</ele><time>2026-03-29T12:51:24.715Z</time></trkpt><trkpt lat="46.3211647" lon="13.0714282"><ele>200.0</ele><time>2026-03-29T12:51:25.716Z</time></trkpt><trkpt lat="46.3210585" lon="13.0712605"><ele>200.0</ele><time>2026-03-29T12:51:26.713Z</time></trkpt><trkpt lat="46.3209429" lon="13.0711118"><ele>200.0</ele><time>2026-03-29T12:51:27.705Z</time></trkpt><trkpt lat="46.3208392" lon="13.0709507"><ele>200.0</ele><time>2026-03-29T12:51:28.712Z</time></trkpt><trkpt lat="46.3207235" lon="13.0708102"><ele>200.4</ele><time>2026-03-29T12:51:29.715Z</time></trkpt><trkpt lat="46.3206003" lon="13.070702"><ele>200.8</ele><time>2026-03-29T12:51:30.716Z</time></trkpt><trkpt lat="46.3205114" lon="13.0705879"><ele>201.2</ele><time>2026-03-29T12:51:31.717Z</time></trkpt><trkpt lat="46.3204508" lon="13.0704995"><ele>201.6</ele><time>2026-03-29T12:51:32.722Z</time></trkpt><trkpt lat="46.3204045" lon="13.0704345"><ele>202.0</ele><time>2026-03-29T12:51:33.72Z</time></trkpt><trkpt lat="46.3203413" lon="13.0703466"><ele>201.99999999999997</ele><time>2026-03-29T12:51:35.711Z</time></trkpt><trkpt lat="46.3202555" lon="13.0702427"><ele>202.0</ele><time>2026-03-29T12:52:38.715Z</time></trkpt><trkpt lat="46.320308" lon="13.0702948"><ele>202.0</ele><time>2026-03-29T12:54:42.682Z</time></trkpt><trkpt lat="46.3203426" lon="13.0703864"><ele>202.0</ele><time>2026-03-29T12:54:56.675Z</time></trkpt><trkpt lat="46.3202708" lon="13.0703717"><ele>201.99999999999997</ele><time>2026-03-29T12:55:07.69Z</time></trkpt><trkpt lat="46.3203211" lon="13.0702945"><ele>202.0</ele><time>2026-03-29T12:55:24.71Z</time></trkpt><trkpt lat="46.3204053" lon="13.0702491"><ele>202.0</ele><time>2026-03-29T12:55:27.717Z</time></trkpt><trkpt lat="46.3202993" lon="13.0701809"><ele>202.0</ele><time>2026-03-29T12:56:02.706Z</time></trkpt><trkpt lat="46.3203785" lon="13.0701826"><ele>202.0</ele><time>2026-03-29T12:59:28.715Z</time></trkpt><trkpt lat="46.3205108" lon="13.0703101"><ele>202.0</ele><time>2026-03-29T13:00:21.71Z</time></trkpt></trkseg><trkseg><trkpt lat="46.3200066" lon="13.0698946"><ele>199.0</ele><time>2026-03-29T13:10:56.73Z</time></trkpt><trkpt lat="46.319937" lon="13.0698244"><ele>199.0</ele><time>2026-03-29T13:10:57.722Z</time></trkpt><trkpt lat="46.3198662" lon="13.0697476"><ele>199.0</ele><time>2026-03-29T13:10:58.706Z</time></trkpt><trkpt lat="46.3197909" lon="13.0696698"><ele>199.0</ele><time>2026-03-29T13:10:59.722Z</time></trkpt><trkpt lat="46.3197051" lon="13.0695969"><ele>199.0</ele><time>2026-03-29T13:11:00.709Z</time></trkpt><trkpt lat="46.3196099" lon="13.069521"><ele>200.0</ele><time>2026-03-29T13:11:01.723Z</time></trkpt><trkpt lat="46.3195087" lon="13.0694441"><ele>201.0</ele><time>2026-03-29T13:11:02.719Z</time></trkpt><trkpt lat="46.3194035" lon="13.0693681"><ele>202.0</ele><time>2026-03-29T13:11:03.734Z</time></trkpt><trkpt lat="46.3192986" lon="13.0692742"><ele>203.0</ele><time>2026-03-29T13:11:04.707Z</time></trkpt><trkpt lat="46.3191927" lon="13.0691717"><ele>202.5</ele><time>2026-03-29T13:11:05.715Z</time></trkpt><trkpt lat="46.3190833" lon="13.0690613"><ele>202.0</ele><time>2026-03-29T13:11:06.715Z</time></trkpt><trkpt lat="46.3189728" lon="13.0689443"><ele>201.5</ele><time>2026-03-29T13:11:07.715Z</time></trkpt><trkpt lat="46.3188615" lon="13.068835"><ele>201.0</ele><time>2026-03-29T13:11:08.703Z</time></trkpt><trkpt lat="46.3187526" lon="13.0687296"><ele>204.0</ele><time>2026-03-29T13:11:09.711Z</time></trkpt><trkpt lat="46.3186494" lon="13.0686248"><ele>207.0</ele><time>2026-03-29T13:11:10.72Z</time></trkpt><trkpt lat="46.3185423" lon="13.0685357"><ele>210.0</ele><time>2026-03-29T13:11:11.714Z</time></trkpt><trkpt lat="46.3184352" lon="13.0684416"><ele>213.0</ele><time>2026-03-29T13:11:12.706Z</time></trkpt><trkpt lat="46.3183251" lon="13.0683437"><ele>211.75</ele><time>2026-03-29T13:11:13.709Z</time></trkpt><trkpt lat="46.3182174" lon="13.0682469"><ele>210.5</ele><time>2026-03-29T13:11:14.714Z</time></trkpt><trkpt lat="46.3181152" lon="13.0681415"><ele>209.25</ele><time>2026-03-29T13:11:15.702Z</time></trkpt><trkpt lat="46.3180148" lon="13.0680229"><ele>208.0</ele><time>2026-03-29T13:11:16.727Z</time></trkpt><trkpt lat="46.3179144" lon="13.0678936"><ele>208.0</ele><time>2026-03-29T13:11:17.716Z</time></trkpt><trkpt lat="46.317812" lon="13.0677569"><ele>208.0</ele><time>2026-03-29T13:11:18.711Z</time></trkpt><trkpt lat="46.3177096" lon="13.0676087"><ele>208.0</ele><time>2026-03-29T13:11:19.714Z</time></trkpt><trkpt lat="46.3176062" lon="13.0674567"><ele>208.0</ele><time>2026-03-29T13:11:20.71Z</time></trkpt><trkpt lat="46.3175029" lon="13.067305"><ele>208.66666666666666</ele><time>2026-03-29T13:11:21.724Z</time></trkpt><trkpt lat="46.3173953" lon="13.0671554"><ele>209.33333333333331</ele><time>2026-03-29T13:11:22.701Z</time></trkpt><trkpt lat="46.3172859" lon="13.0670035"><ele>210.0</ele><time>2026-03-29T13:11:23.724Z</time></trkpt><trkpt lat="46.317172" lon="13.0668585"><ele>210.0</ele><time>2026-03-29T13:11:24.724Z</time></trkpt><trkpt lat="46.3170576" lon="13.0667114"><ele>210.0</ele><time>2026-03-29T13:11:25.709Z</time></trkpt><trkpt lat="46.3169445" lon="13.0665574"><ele>210.0</ele><time>2026-03-29T13:11:26.724Z</time></trkpt><trkpt lat="46.3168286" lon="13.0663993"><ele>207.0</ele><time>2026-03-29T13:11:27.704Z</time></trkpt><trkpt lat="46.3167094" lon="13.0662478"><ele>204.0</ele><time>2026-03-29T13:11:28.711Z</time></trkpt><trkpt lat="46.3165985" lon="13.0660848"><ele>201.0</ele><time>2026-03-29T13:11:29.723Z</time></trkpt><trkpt lat="46.3164939" lon="13.0659251"><ele>200.75</ele><time>2026-03-29T13:11:30.712Z</time></trkpt><trkpt lat="46.31639" lon="13.0657869"><ele>200.5</ele><time>2026-03-29T13:11:31.718Z</time></trkpt><trkpt lat="46.316292" lon="13.0656479"><ele>200.25</ele><time>2026-03-29T13:11:32.723Z</time></trkpt><trkpt lat="46.3161744" lon="13.0655246"><ele>200.0</ele><time>2026-03-29T13:11:33.721Z</time></trkpt><trkpt lat="46.3160689" lon="13.065373"><ele>200.0</ele><time>2026-03-29T13:11:34.721Z</time></trkpt><trkpt lat="46.3159638" lon="13.0652183"><ele>200.0</ele><time>2026-03-29T13:11:35.714Z</time></trkpt><trkpt lat="46.3158557" lon="13.0650585"><ele>200.0</ele><time>2026-03-29T13:11:36.73Z</time></trkpt><trkpt lat="46.3157723" lon="13.0648534"><ele>199.66666666666669</ele><time>2026-03-29T13:11:37.724Z</time></trkpt><trkpt lat="46.3156804" lon="13.0646488"><ele>199.33333333333331</ele><time>2026-03-29T13:11:38.729Z</time></trkpt><trkpt lat="46.3155908" lon="13.0644461"><ele>199.0</ele><time>2026-03-29T13:11:39.721Z</time></trkpt><trkpt lat="46.3155025" lon="13.0642341"><ele>199.66666666666666</ele><time>2026-03-29T13:11:40.707Z</time></trkpt><trkpt lat="46.3154221" lon="13.0640101"><ele>200.33333333333331</ele><time>2026-03-29T13:11:41.719Z</time></trkpt><trkpt lat="46.3153451" lon="13.0637869"><ele>201.0</ele><time>2026-03-29T13:11:42.714Z</time></trkpt><trkpt lat="46.315272" lon="13.0635601"><ele>201.0</ele><time>2026-03-29T13:11:43.719Z</time></trkpt><trkpt lat="46.3152022" lon="13.0633432"><ele>201.0</ele><time>2026-03-29T13:11:44.721Z</time></trkpt><trkpt lat="46.3151406" lon="13.0631257"><ele>201.0</ele><time>2026-03-29T13:11:45.732Z</time></trkpt><trkpt lat="46.3150583" lon="13.0629267"><ele>200.33333333333331</ele><time>2026-03-29T13:11:46.719Z</time></trkpt><trkpt lat="46.3149617" lon="13.0627432"><ele>199.66666666666666</ele><time>2026-03-29T13:11:47.712Z</time></trkpt><trkpt lat="46.314854" lon="13.062567"><ele>199.0</ele><time>2026-03-29T13:11:48.731Z</time></trkpt><trkpt lat="46.3147426" lon="13.0623989"><ele>198.33333333333331</ele><time>2026-03-29T13:11:49.736Z</time></trkpt><trkpt lat="46.3146172" lon="13.06224"><ele>197.66666666666669</ele><time>2026-03-29T13:11:50.73Z</time></trkpt><trkpt lat="46.3144894" lon="13.0620822"><ele>197.0</ele><time>2026-03-29T13:11:51.721Z</time></trkpt><trkpt lat="46.3143538" lon="13.0619273"><ele>197.0</ele><time>2026-03-29T13:11:52.714Z</time></trkpt><trkpt lat="46.3142277" lon="13.0617548"><ele>197.0</ele><time>2026-03-29T13:11:53.722Z</time></trkpt><trkpt lat="46.3140996" lon="13.0615915"><ele>197.0</ele><time>2026-03-29T13:11:54.71Z</time></trkpt><trkpt lat="46.3139713" lon="13.0614274"><ele>198.0</ele><time>2026-03-29T13:11:55.711Z</time></trkpt><trkpt lat="46.3138421" lon="13.0612653"><ele>199.0</ele><time>2026-03-29T13:11:56.703Z</time></trkpt><trkpt lat="46.3137181" lon="13.0611027"><ele>200.0</ele><time>2026-03-29T13:11:57.709Z</time></trkpt><trkpt lat="46.3135951" lon="13.0609478"><ele>200.0</ele><time>2026-03-29T13:11:58.723Z</time></trkpt><trkpt lat="46.3134717" lon="13.0607944"><ele>200.0</ele><time>2026-03-29T13:11:59.721Z</time></trkpt><trkpt lat="46.313346" lon="13.0606386"><ele>200.0</ele><time>2026-03-29T13:12:00.714Z</time></trkpt><trkpt lat="46.313218" lon="13.0604842"><ele>200.0</ele><time>2026-03-29T13:12:01.722Z</time></trkpt><trkpt lat="46.3130934" lon="13.0603233"><ele>200.0</ele><time>2026-03-29T13:12:02.708Z</time></trkpt><trkpt lat="46.3129697" lon="13.0601576"><ele>200.0</ele><time>2026-03-29T13:12:03.726Z</time></trkpt><trkpt lat="46.3128407" lon="13.0599992"><ele>199.0</ele><time>2026-03-29T13:12:04.706Z</time></trkpt><trkpt lat="46.3122684" lon="13.0591981"><ele>198.0</ele><time>2026-03-29T13:12:09.711Z</time></trkpt><trkpt lat="46.3121413" lon="13.0590417"><ele>197.0</ele><time>2026-03-29T13:12:10.723Z</time></trkpt><trkpt lat="46.3120276" lon="13.0588654"><ele>196.0</ele><time>2026-03-29T13:12:11.707Z</time></trkpt><trkpt lat="46.3118961" lon="13.0587421"><ele>196.0</ele><time>2026-03-29T13:12:12.716Z</time></trkpt><trkpt lat="46.311782" lon="13.0585944"><ele>196.0</ele><time>2026-03-29T13:12:13.709Z</time></trkpt><trkpt lat="46.3116572" lon="13.058449"><ele>196.0</ele><time>2026-03-29T13:12:14.723Z</time></trkpt><trkpt lat="46.3115274" lon="13.0583083"><ele>196.66666666666666</ele><time>2026-03-29T13:12:15.715Z</time></trkpt><trkpt lat="46.3114031" lon="13.0581405"><ele>197.33333333333331</ele><time>2026-03-29T13:12:16.719Z</time></trkpt><trkpt lat="46.3112831" lon="13.0579627"><ele>198.0</ele><time>2026-03-29T13:12:17.709Z</time></trkpt><trkpt lat="46.3111652" lon="13.057793"><ele>198.0</ele><time>2026-03-29T13:12:18.718Z</time></trkpt><trkpt lat="46.3110429" lon="13.0576257"><ele>198.0</ele><time>2026-03-29T13:12:19.714Z</time></trkpt><trkpt lat="46.3109204" lon="13.0574675"><ele>198.0</ele><time>2026-03-29T13:12:20.709Z</time></trkpt><trkpt lat="46.3108025" lon="13.0573111"><ele>198.0</ele><time>2026-03-29T13:12:21.705Z</time></trkpt><trkpt lat="46.3106855" lon="13.057164"><ele>198.0</ele><time>2026-03-29T13:12:22.707Z</time></trkpt><trkpt lat="46.3105767" lon="13.0570124"><ele>198.0</ele><time>2026-03-29T13:12:23.728Z</time></trkpt><trkpt lat="46.310471" lon="13.0568705"><ele>198.0</ele><time>2026-03-29T13:12:24.72Z</time></trkpt><trkpt lat="46.310368" lon="13.0567421"><ele>198.0</ele><time>2026-03-29T13:12:25.723Z</time></trkpt><trkpt lat="46.3102698" lon="13.0566193"><ele>198.0</ele><time>2026-03-29T13:12:26.707Z</time></trkpt><trkpt lat="46.3101551" lon="13.0565418"><ele>198.0</ele><time>2026-03-29T13:12:27.71Z</time></trkpt><trkpt lat="46.3100397" lon="13.0564934"><ele>198.25</ele><time>2026-03-29T13:12:28.704Z</time></trkpt><trkpt lat="46.3099196" lon="13.0564961"><ele>198.5</ele><time>2026-03-29T13:12:29.717Z</time></trkpt><trkpt lat="46.3097991" lon="13.0565288"><ele>198.75</ele><time>2026-03-29T13:12:30.708Z</time></trkpt><trkpt lat="46.3096773" lon="13.0565938"><ele>199.0</ele><time>2026-03-29T13:12:31.707Z</time></trkpt><trkpt lat="46.3095527" lon="13.0566849"><ele>198.33333333333331</ele><time>2026-03-29T13:12:32.714Z</time></trkpt><trkpt lat="46.309426" lon="13.0568017"><ele>197.66666666666669</ele><time>2026-03-29T13:12:33.707Z</time></trkpt><trkpt lat="46.3092992" lon="13.0569281"><ele>197.0</ele><time>2026-03-29T13:12:34.72Z</time></trkpt><trkpt lat="46.3091684" lon="13.0570545"><ele>197.0</ele><time>2026-03-29T13:12:35.709Z</time></trkpt><trkpt lat="46.3090372" lon="13.0571844"><ele>197.0</ele><time>2026-03-29T13:12:36.718Z</time></trkpt><trkpt lat="46.3089035" lon="13.0573125"><ele>197.0</ele><time>2026-03-29T13:12:37.707Z</time></trkpt><trkpt lat="46.30877" lon="13.0574454"><ele>197.66666666666669</ele><time>2026-03-29T13:12:38.71Z</time></trkpt><trkpt lat="46.3086261" lon="13.0575686"><ele>198.33333333333331</ele><time>2026-03-29T13:12:39.696Z</time></trkpt><trkpt lat="46.3084836" lon="13.0576945"><ele>199.0</ele><time>2026-03-29T13:12:40.711Z</time></trkpt><trkpt lat="46.3083433" lon="13.0578309"><ele>199.0</ele><time>2026-03-29T13:12:41.701Z</time></trkpt><trkpt lat="46.3081997" lon="13.0579658"><ele>199.0</ele><time>2026-03-29T13:12:42.719Z</time></trkpt><trkpt lat="46.3080554" lon="13.0581079"><ele>199.0</ele><time>2026-03-29T13:12:43.699Z</time></trkpt><trkpt lat="46.3078989" lon="13.0582276"><ele>198.66666666666666</ele><time>2026-03-29T13:12:44.704Z</time></trkpt><trkpt lat="46.3077532" lon="13.05837"><ele>198.33333333333331</ele><time>2026-03-29T13:12:45.724Z</time></trkpt><trkpt lat="46.3076108" lon="13.0585188"><ele>198.0</ele><time>2026-03-29T13:12:46.702Z</time></trkpt><trkpt lat="46.3074629" lon="13.058667"><ele>198.0</ele><time>2026-03-29T13:12:47.711Z</time></trkpt><trkpt lat="46.3073145" lon="13.0588134"><ele>198.0</ele><time>2026-03-29T13:12:48.716Z</time></trkpt><trkpt lat="46.3071609" lon="13.0589516"><ele>198.0</ele><time>2026-03-29T13:12:49.735Z</time></trkpt><trkpt lat="46.3070012" lon="13.0590889"><ele>198.0</ele><time>2026-03-29T13:12:50.722Z</time></trkpt><trkpt lat="46.3068439" lon="13.059242"><ele>198.0</ele><time>2026-03-29T13:12:51.714Z</time></trkpt><trkpt lat="46.3066803" lon="13.0593798"><ele>198.0</ele><time>2026-03-29T13:12:52.707Z</time></trkpt><trkpt lat="46.3065236" lon="13.0595315"><ele>197.0</ele><time>2026-03-29T13:12:53.703Z</time></trkpt><trkpt lat="46.306365" lon="13.0596756"><ele>196.0</ele><time>2026-03-29T13:12:54.709Z</time></trkpt><trkpt lat="46.3061994" lon="13.0597995"><ele>195.0</ele><time>2026-03-29T13:12:55.692Z</time></trkpt><trkpt lat="46.3060258" lon="13.0599043"><ele>195.66666666666669</ele><time>2026-03-29T13:12:56.716Z</time></trkpt><trkpt lat="46.3058489" lon="13.0599903"><ele>196.33333333333334</ele><time>2026-03-29T13:12:57.707Z</time></trkpt><trkpt lat="46.3056717" lon="13.0600657"><ele>197.0</ele><time>2026-03-29T13:12:58.706Z</time></trkpt><trkpt lat="46.3054923" lon="13.0601129"><ele>197.0</ele><time>2026-03-29T13:12:59.712Z</time></trkpt><trkpt lat="46.3053105" lon="13.0601312"><ele>197.0</ele><time>2026-03-29T13:13:00.71Z</time></trkpt><trkpt lat="46.3051326" lon="13.0601732"><ele>197.0</ele><time>2026-03-29T13:13:01.735Z</time></trkpt><trkpt lat="46.3049586" lon="13.0602395"><ele>197.0</ele><time>2026-03-29T13:13:02.715Z</time></trkpt><trkpt lat="46.3047853" lon="13.0603064"><ele>197.0</ele><time>2026-03-29T13:13:03.706Z</time></trkpt><trkpt lat="46.3046074" lon="13.0603654"><ele>197.0</ele><time>2026-03-29T13:13:04.719Z</time></trkpt><trkpt lat="46.3044275" lon="13.0604301"><ele>196.66666666666669</ele><time>2026-03-29T13:13:05.707Z</time></trkpt><trkpt lat="46.3042451" lon="13.0604858"><ele>196.33333333333331</ele><time>2026-03-29T13:13:06.716Z</time></trkpt><trkpt lat="46.304066" lon="13.0605535"><ele>196.0</ele><time>2026-03-29T13:13:07.715Z</time></trkpt><trkpt lat="46.3038889" lon="13.0606212"><ele>196.0</ele><time>2026-03-29T13:13:08.705Z</time></trkpt><trkpt lat="46.3037113" lon="13.0606853"><ele>196.0</ele><time>2026-03-29T13:13:09.703Z</time></trkpt><trkpt lat="46.303534" lon="13.0607474"><ele>196.0</ele><time>2026-03-29T13:13:10.709Z</time></trkpt><trkpt lat="46.3033569" lon="13.0608101"><ele>196.33333333333331</ele><time>2026-03-29T13:13:11.718Z</time></trkpt><trkpt lat="46.3031785" lon="13.0608721"><ele>196.66666666666669</ele><time>2026-03-29T13:13:12.723Z</time></trkpt><trkpt lat="46.3029967" lon="13.0609296"><ele>197.0</ele><time>2026-03-29T13:13:13.718Z</time></trkpt><trkpt lat="46.3028115" lon="13.0609868"><ele>195.33333333333334</ele><time>2026-03-29T13:13:14.719Z</time></trkpt><trkpt lat="46.3026256" lon="13.0610492"><ele>193.66666666666669</ele><time>2026-03-29T13:13:15.732Z</time></trkpt><trkpt lat="46.3024408" lon="13.061112"><ele>192.0</ele><time>2026-03-29T13:13:16.717Z</time></trkpt><trkpt lat="46.3022589" lon="13.0611823"><ele>192.66666666666669</ele><time>2026-03-29T13:13:17.715Z</time></trkpt><trkpt lat="46.3020781" lon="13.0612491"><ele>193.33333333333334</ele><time>2026-03-29T13:13:18.717Z</time></trkpt><trkpt lat="46.3018973" lon="13.0613079"><ele>194.0</ele><time>2026-03-29T13:13:19.71Z</time></trkpt><trkpt lat="46.3017172" lon="13.061372"><ele>194.0</ele><time>2026-03-29T13:13:20.705Z</time></trkpt><trkpt lat="46.3015362" lon="13.0614351"><ele>194.0</ele><time>2026-03-29T13:13:21.706Z</time></trkpt><trkpt lat="46.301355" lon="13.0614969"><ele>194.0</ele><time>2026-03-29T13:13:22.705Z</time></trkpt><trkpt lat="46.3011811" lon="13.0615572"><ele>194.33333333333334</ele><time>2026-03-29T13:13:23.711Z</time></trkpt><trkpt lat="46.3010051" lon="13.0615976"><ele>194.66666666666669</ele><time>2026-03-29T13:13:24.72Z</time></trkpt><trkpt lat="46.3008269" lon="13.0616569"><ele>195.0</ele><time>2026-03-29T13:13:25.711Z</time></trkpt><trkpt lat="46.3006474" lon="13.0617096"><ele>194.66666666666669</ele><time>2026-03-29T13:13:26.723Z</time></trkpt><trkpt lat="46.3004728" lon="13.0617699"><ele>194.33333333333334</ele><time>2026-03-29T13:13:27.711Z</time></trkpt><trkpt lat="46.3003007" lon="13.0618279"><ele>194.0</ele><time>2026-03-29T13:13:28.712Z</time></trkpt><trkpt lat="46.3001288" lon="13.0618759"><ele>194.0</ele><time>2026-03-29T13:13:29.707Z</time></trkpt><trkpt lat="46.2999562" lon="13.0619323"><ele>194.0</ele><time>2026-03-29T13:13:30.705Z</time></trkpt><trkpt lat="46.2997806" lon="13.0619955"><ele>194.0</ele><time>2026-03-29T13:13:31.714Z</time></trkpt><trkpt lat="46.2996041" lon="13.0620557"><ele>193.66666666666669</ele><time>2026-03-29T13:13:32.708Z</time></trkpt><trkpt lat="46.2994256" lon="13.0621102"><ele>193.33333333333331</ele><time>2026-03-29T13:13:33.711Z</time></trkpt><trkpt lat="46.2992365" lon="13.0621659"><ele>193.0</ele><time>2026-03-29T13:13:34.703Z</time></trkpt><trkpt lat="46.2990411" lon="13.0622301"><ele>192.66666666666666</ele><time>2026-03-29T13:13:35.702Z</time></trkpt><trkpt lat="46.2988409" lon="13.0622876"><ele>192.33333333333331</ele><time>2026-03-29T13:13:36.696Z</time></trkpt><trkpt lat="46.2986459" lon="13.0623362"><ele>192.0</ele><time>2026-03-29T13:13:37.706Z</time></trkpt><trkpt lat="46.2984491" lon="13.0623687"><ele>192.0</ele><time>2026-03-29T13:13:38.709Z</time></trkpt><trkpt lat="46.2982555" lon="13.062409"><ele>192.0</ele><time>2026-03-29T13:13:39.713Z</time></trkpt><trkpt lat="46.2980618" lon="13.0624477"><ele>192.0</ele><time>2026-03-29T13:13:40.72Z</time></trkpt><trkpt lat="46.2978659" lon="13.0624871"><ele>192.0</ele><time>2026-03-29T13:13:41.708Z</time></trkpt><trkpt lat="46.2976704" lon="13.0625298"><ele>192.0</ele><time>2026-03-29T13:13:42.71Z</time></trkpt><trkpt lat="46.2974782" lon="13.0625687"><ele>192.0</ele><time>2026-03-29T13:13:43.707Z</time></trkpt><trkpt lat="46.2972869" lon="13.0626003"><ele>192.33333333333331</ele><time>2026-03-29T13:13:44.728Z</time></trkpt><trkpt lat="46.2970982" lon="13.0626365"><ele>192.66666666666666</ele><time>2026-03-29T13:13:45.722Z</time></trkpt><trkpt lat="46.2969077" lon="13.0626871"><ele>193.0</ele><time>2026-03-29T13:13:46.727Z</time></trkpt><trkpt lat="46.2967181" lon="13.0627112"><ele>193.0</ele><time>2026-03-29T13:13:47.718Z</time></trkpt><trkpt lat="46.2965291" lon="13.0627621"><ele>193.0</ele><time>2026-03-29T13:13:48.71Z</time></trkpt><trkpt lat="46.296342" lon="13.0627895"><ele>193.0</ele><time>2026-03-29T13:13:49.71Z</time></trkpt><trkpt lat="46.2961569" lon="13.0628256"><ele>191.66666666666666</ele><time>2026-03-29T13:13:50.727Z</time></trkpt><trkpt lat="46.2959703" lon="13.0628763"><ele>190.33333333333331</ele><time>2026-03-29T13:13:51.702Z</time></trkpt><trkpt lat="46.2957846" lon="13.0629077"><ele>189.0</ele><time>2026-03-29T13:13:52.711Z</time></trkpt><trkpt lat="46.2956002" lon="13.0629446"><ele>188.33333333333334</ele><time>2026-03-29T13:13:53.714Z</time></trkpt><trkpt lat="46.2954173" lon="13.0629813"><ele>187.66666666666669</ele><time>2026-03-29T13:13:54.712Z</time></trkpt><trkpt lat="46.2952356" lon="13.0630181"><ele>187.0</ele><time>2026-03-29T13:13:55.716Z</time></trkpt><trkpt lat="46.2950588" lon="13.0630637"><ele>187.0</ele><time>2026-03-29T13:13:56.707Z</time></trkpt><trkpt lat="46.294886" lon="13.0631162"><ele>187.0</ele><time>2026-03-29T13:13:57.698Z</time></trkpt><trkpt lat="46.2947165" lon="13.0631622"><ele>187.0</ele><time>2026-03-29T13:13:58.722Z</time></trkpt><trkpt lat="46.2945509" lon="13.0632114"><ele>187.33333333333334</ele><time>2026-03-29T13:13:59.708Z</time></trkpt><trkpt lat="46.2943862" lon="13.0632511"><ele>187.66666666666666</ele><time>2026-03-29T13:14:00.717Z</time></trkpt><trkpt lat="46.2942232" lon="13.0633102"><ele>188.0</ele><time>2026-03-29T13:14:01.719Z</time></trkpt><trkpt lat="46.2940598" lon="13.0633728"><ele>189.0</ele><time>2026-03-29T13:14:02.721Z</time></trkpt><trkpt lat="46.2938969" lon="13.0634497"><ele>190.0</ele><time>2026-03-29T13:14:03.709Z</time></trkpt><trkpt lat="46.2937279" lon="13.0635378"><ele>191.0</ele><time>2026-03-29T13:14:04.712Z</time></trkpt><trkpt lat="46.2935551" lon="13.0636303"><ele>191.0</ele><time>2026-03-29T13:14:05.706Z</time></trkpt><trkpt lat="46.2933817" lon="13.0637372"><ele>191.0</ele><time>2026-03-29T13:14:06.71Z</time></trkpt><trkpt lat="46.2932028" lon="13.0638364"><ele>191.0</ele><time>2026-03-29T13:14:07.713Z</time></trkpt><trkpt lat="46.2930197" lon="13.0639309"><ele>191.0</ele><time>2026-03-29T13:14:08.709Z</time></trkpt><trkpt lat="46.2928319" lon="13.0640158"><ele>191.0</ele><time>2026-03-29T13:14:09.708Z</time></trkpt><trkpt lat="46.2926403" lon="13.0640885"><ele>191.0</ele><time>2026-03-29T13:14:10.722Z</time></trkpt><trkpt lat="46.292451" lon="13.0641582"><ele>191.0</ele><time>2026-03-29T13:14:11.72Z</time></trkpt><trkpt lat="46.2922672" lon="13.0642171"><ele>191.0</ele><time>2026-03-29T13:14:12.721Z</time></trkpt><trkpt lat="46.2920909" lon="13.0642737"><ele>191.0</ele><time>2026-03-29T13:14:13.727Z</time></trkpt><trkpt lat="46.2919222" lon="13.0643345"><ele>190.0</ele><time>2026-03-29T13:14:14.702Z</time></trkpt><trkpt lat="46.2917585" lon="13.0643891"><ele>189.0</ele><time>2026-03-29T13:14:15.71Z</time></trkpt><trkpt lat="46.2915974" lon="13.0644396"><ele>188.0</ele><time>2026-03-29T13:14:16.703Z</time></trkpt><trkpt lat="46.2914355" lon="13.0644832"><ele>187.66666666666666</ele><time>2026-03-29T13:14:17.73Z</time></trkpt><trkpt lat="46.2912737" lon="13.0645295"><ele>187.33333333333334</ele><time>2026-03-29T13:14:18.711Z</time></trkpt><trkpt lat="46.2911096" lon="13.0645664"><ele>187.0</ele><time>2026-03-29T13:14:19.705Z</time></trkpt><trkpt lat="46.2909438" lon="13.0645779"><ele>187.0</ele><time>2026-03-29T13:14:20.701Z</time></trkpt><trkpt lat="46.2907798" lon="13.0645551"><ele>187.0</ele><time>2026-03-29T13:14:21.712Z</time></trkpt><trkpt lat="46.2906192" lon="13.0645208"><ele>187.0</ele><time>2026-03-29T13:14:22.716Z</time></trkpt><trkpt lat="46.2904596" lon="13.0644802"><ele>187.33333333333334</ele><time>2026-03-29T13:14:23.725Z</time></trkpt><trkpt lat="46.2902996" lon="13.0644361"><ele>187.66666666666666</ele><time>2026-03-29T13:14:24.713Z</time></trkpt><trkpt lat="46.2901375" lon="13.0643928"><ele>188.0</ele><time>2026-03-29T13:14:25.721Z</time></trkpt><trkpt lat="46.2899714" lon="13.0643532"><ele>188.0</ele><time>2026-03-29T13:14:26.718Z</time></trkpt><trkpt lat="46.2898025" lon="13.0643123"><ele>188.0</ele><time>2026-03-29T13:14:27.717Z</time></trkpt><trkpt lat="46.2896314" lon="13.0642699"><ele>188.0</ele><time>2026-03-29T13:14:28.708Z</time></trkpt><trkpt lat="46.2894591" lon="13.0642291"><ele>188.0</ele><time>2026-03-29T13:14:29.708Z</time></trkpt><trkpt lat="46.2892867" lon="13.0641878"><ele>188.0</ele><time>2026-03-29T13:14:30.718Z</time></trkpt><trkpt lat="46.2891177" lon="13.0641339"><ele>188.0</ele><time>2026-03-29T13:14:31.722Z</time></trkpt><trkpt lat="46.2889422" lon="13.0641086"><ele>188.0</ele><time>2026-03-29T13:14:32.702Z</time></trkpt><trkpt lat="46.2887661" lon="13.0640741"><ele>188.0</ele><time>2026-03-29T13:14:33.723Z</time></trkpt><trkpt lat="46.2885861" lon="13.0640455"><ele>188.0</ele><time>2026-03-29T13:14:34.714Z</time></trkpt><trkpt lat="46.2884099" lon="13.0640286"><ele>188.0</ele><time>2026-03-29T13:14:35.719Z</time></trkpt><trkpt lat="46.2882306" lon="13.0640234"><ele>188.0</ele><time>2026-03-29T13:14:36.713Z</time></trkpt><trkpt lat="46.2880524" lon="13.0640338"><ele>188.0</ele><time>2026-03-29T13:14:37.721Z</time></trkpt><trkpt lat="46.2878804" lon="13.0640452"><ele>187.0</ele><time>2026-03-29T13:14:38.717Z</time></trkpt><trkpt lat="46.2877115" lon="13.0640491"><ele>186.0</ele><time>2026-03-29T13:14:39.708Z</time></trkpt><trkpt lat="46.2875468" lon="13.0640361"><ele>185.0</ele><time>2026-03-29T13:14:40.699Z</time></trkpt><trkpt lat="46.2873896" lon="13.063994"><ele>185.66666666666666</ele><time>2026-03-29T13:14:41.712Z</time></trkpt><trkpt lat="46.2872394" lon="13.0639359"><ele>186.33333333333334</ele><time>2026-03-29T13:14:42.742Z</time></trkpt><trkpt lat="46.2870964" lon="13.0638655"><ele>187.0</ele><time>2026-03-29T13:14:43.722Z</time></trkpt><trkpt lat="46.2869569" lon="13.0637876"><ele>187.0</ele><time>2026-03-29T13:14:44.719Z</time></trkpt><trkpt lat="46.2868166" lon="13.0636997"><ele>187.0</ele><time>2026-03-29T13:14:45.714Z</time></trkpt><trkpt lat="46.2866725" lon="13.0636108"><ele>187.0</ele><time>2026-03-29T13:14:46.715Z</time></trkpt><trkpt lat="46.2865263" lon="13.0635336"><ele>187.5</ele><time>2026-03-29T13:14:47.723Z</time></trkpt><trkpt lat="46.2863812" lon="13.0634785"><ele>188.0</ele><time>2026-03-29T13:14:48.735Z</time></trkpt><trkpt lat="46.2862414" lon="13.0634501"><ele>188.5</ele><time>2026-03-29T13:14:49.725Z</time></trkpt><trkpt lat="46.2861149" lon="13.0634518"><ele>189.0</ele><time>2026-03-29T13:14:50.706Z</time></trkpt><trkpt lat="46.2860064" lon="13.0634617"><ele>189.0</ele><time>2026-03-29T13:14:51.718Z</time></trkpt><trkpt lat="46.2859136" lon="13.0634741"><ele>189.0</ele><time>2026-03-29T13:14:52.717Z</time></trkpt><trkpt lat="46.2858344" lon="13.0634441"><ele>189.0</ele><time>2026-03-29T13:14:53.71Z</time></trkpt><trkpt lat="46.2857681" lon="13.063366"><ele>189.0</ele><time>2026-03-29T13:14:54.708Z</time></trkpt><trkpt lat="46.2856963" lon="13.0632561"><ele>189.0</ele><time>2026-03-29T13:14:55.709Z</time></trkpt><trkpt lat="46.2856176" lon="13.0631159"><ele>188.75</ele><time>2026-03-29T13:14:56.699Z</time></trkpt><trkpt lat="46.2855288" lon="13.0629699"><ele>188.5</ele><time>2026-03-29T13:14:57.726Z</time></trkpt><trkpt lat="46.2854496" lon="13.0628108"><ele>188.25</ele><time>2026-03-29T13:14:58.719Z</time></trkpt><trkpt lat="46.2853753" lon="13.0626552"><ele>188.0</ele><time>2026-03-29T13:14:59.719Z</time></trkpt><trkpt lat="46.2853051" lon="13.062511"><ele>187.25</ele><time>2026-03-29T13:15:00.71Z</time></trkpt><trkpt lat="46.2852614" lon="13.0623522"><ele>186.5</ele><time>2026-03-29T13:15:01.724Z</time></trkpt><trkpt lat="46.2852437" lon="13.0621869"><ele>185.75</ele><time>2026-03-29T13:15:02.71Z</time></trkpt><trkpt lat="46.2852368" lon="13.0620084"><ele>185.0</ele><time>2026-03-29T13:15:03.707Z</time></trkpt><trkpt lat="46.2852206" lon="13.061819"><ele>184.75</ele><time>2026-03-29T13:15:04.73Z</time></trkpt><trkpt lat="46.2852237" lon="13.0616153"><ele>184.5</ele><time>2026-03-29T13:15:05.72Z</time></trkpt><trkpt lat="46.2852502" lon="13.0614098"><ele>184.25</ele><time>2026-03-29T13:15:06.718Z</time></trkpt><trkpt lat="46.2852655" lon="13.0612115"><ele>184.0</ele><time>2026-03-29T13:15:07.727Z</time></trkpt><trkpt lat="46.2852928" lon="13.0610255"><ele>184.0</ele><time>2026-03-29T13:15:08.715Z</time></trkpt><trkpt lat="46.2852897" lon="13.0608462"><ele>184.0</ele><time>2026-03-29T13:15:09.728Z</time></trkpt><trkpt lat="46.2852748" lon="13.0606764"><ele>184.0</ele><time>2026-03-29T13:15:10.716Z</time></trkpt><trkpt lat="46.2852616" lon="13.060519"><ele>184.0</ele><time>2026-03-29T13:15:11.726Z</time></trkpt><trkpt lat="46.28525" lon="13.0603857"><ele>184.0</ele><time>2026-03-29T13:15:12.708Z</time></trkpt><trkpt lat="46.2852367" lon="13.0602716"><ele>184.0</ele><time>2026-03-29T13:15:13.729Z</time></trkpt><trkpt lat="46.2851959" lon="13.0601817"><ele>184.0</ele><time>2026-03-29T13:15:14.713Z</time></trkpt><trkpt lat="46.2851458" lon="13.0601123"><ele>184.0</ele><time>2026-03-29T13:15:15.714Z</time></trkpt><trkpt lat="46.2850833" lon="13.0600734"><ele>184.0</ele><time>2026-03-29T13:15:16.71Z</time></trkpt><trkpt lat="46.2850112" lon="13.0600673"><ele>184.0</ele><time>2026-03-29T13:15:17.719Z</time></trkpt><trkpt lat="46.2849245" lon="13.060097"><ele>184.0</ele><time>2026-03-29T13:15:18.723Z</time></trkpt><trkpt lat="46.2848149" lon="13.0601522"><ele>183.5</ele><time>2026-03-29T13:15:19.711Z</time></trkpt><trkpt lat="46.2846908" lon="13.0602133"><ele>183.0</ele><time>2026-03-29T13:15:20.714Z</time></trkpt><trkpt lat="46.2845651" lon="13.0602728"><ele>182.5</ele><time>2026-03-29T13:15:21.724Z</time></trkpt><trkpt lat="46.2844376" lon="13.0603016"><ele>182.0</ele><time>2026-03-29T13:15:22.714Z</time></trkpt><trkpt lat="46.284311" lon="13.0603296"><ele>182.0</ele><time>2026-03-29T13:15:23.715Z</time></trkpt><trkpt lat="46.2841825" lon="13.0603602"><ele>182.0</ele><time>2026-03-29T13:15:24.711Z</time></trkpt><trkpt lat="46.284048" lon="13.0604025"><ele>182.0</ele><time>2026-03-29T13:15:25.721Z</time></trkpt><trkpt lat="46.2839051" lon="13.060428"><ele>182.0</ele><time>2026-03-29T13:15:26.721Z</time></trkpt><trkpt lat="46.2837581" lon="13.0604538"><ele>181.66666666666666</ele><time>2026-03-29T13:15:27.71Z</time></trkpt><trkpt lat="46.2836031" lon="13.0604842"><ele>181.33333333333334</ele><time>2026-03-29T13:15:28.714Z</time></trkpt><trkpt lat="46.2834391" lon="13.0604947"><ele>181.0</ele><time>2026-03-29T13:15:29.714Z</time></trkpt><trkpt lat="46.2832696" lon="13.0604775"><ele>181.33333333333334</ele><time>2026-03-29T13:15:30.721Z</time></trkpt><trkpt lat="46.2830938" lon="13.0604523"><ele>181.66666666666666</ele><time>2026-03-29T13:15:31.723Z</time></trkpt><trkpt lat="46.2829135" lon="13.0604242"><ele>182.0</ele><time>2026-03-29T13:15:32.714Z</time></trkpt><trkpt lat="46.2827298" lon="13.0603868"><ele>182.0</ele><time>2026-03-29T13:15:33.715Z</time></trkpt><trkpt lat="46.2825405" lon="13.0603528"><ele>182.0</ele><time>2026-03-29T13:15:34.713Z</time></trkpt><trkpt lat="46.2823487" lon="13.0603157"><ele>182.0</ele><time>2026-03-29T13:15:35.719Z</time></trkpt><trkpt lat="46.2821587" lon="13.0602871"><ele>181.33333333333331</ele><time>2026-03-29T13:15:36.728Z</time></trkpt><trkpt lat="46.2819704" lon="13.0602643"><ele>180.66666666666666</ele><time>2026-03-29T13:15:37.717Z</time></trkpt><trkpt lat="46.2817831" lon="13.0602369"><ele>180.0</ele><time>2026-03-29T13:15:38.715Z</time></trkpt><trkpt lat="46.2815969" lon="13.0602105"><ele>180.0</ele><time>2026-03-29T13:15:39.715Z</time></trkpt><trkpt lat="46.2814107" lon="13.0601839"><ele>180.0</ele><time>2026-03-29T13:15:40.718Z</time></trkpt><trkpt lat="46.2812206" lon="13.0601497"><ele>180.0</ele><time>2026-03-29T13:15:41.718Z</time></trkpt><trkpt lat="46.2810283" lon="13.0601246"><ele>180.0</ele><time>2026-03-29T13:15:42.719Z</time></trkpt><trkpt lat="46.2808347" lon="13.060079"><ele>180.0</ele><time>2026-03-29T13:15:43.731Z</time></trkpt><trkpt lat="46.2806374" lon="13.0600534"><ele>180.0</ele><time>2026-03-29T13:15:44.715Z</time></trkpt><trkpt lat="46.2804388" lon="13.0600171"><ele>181.0</ele><time>2026-03-29T13:15:45.744Z</time></trkpt><trkpt lat="46.2802393" lon="13.0599856"><ele>182.0</ele><time>2026-03-29T13:15:46.735Z</time></trkpt><trkpt lat="46.2800401" lon="13.0599706"><ele>183.0</ele><time>2026-03-29T13:15:47.723Z</time></trkpt><trkpt lat="46.2798422" lon="13.059937"><ele>185.66666666666666</ele><time>2026-03-29T13:15:48.729Z</time></trkpt><trkpt lat="46.2796432" lon="13.0599137"><ele>188.33333333333331</ele><time>2026-03-29T13:15:49.712Z</time></trkpt><trkpt lat="46.2794427" lon="13.0598889"><ele>191.0</ele><time>2026-03-29T13:15:50.712Z</time></trkpt><trkpt lat="46.2792403" lon="13.0598595"><ele>191.0</ele><time>2026-03-29T13:15:51.704Z</time></trkpt><trkpt lat="46.2790338" lon="13.0598127"><ele>191.0</ele><time>2026-03-29T13:15:52.716Z</time></trkpt><trkpt lat="46.2788246" lon="13.0597861"><ele>191.0</ele><time>2026-03-29T13:15:53.714Z</time></trkpt><trkpt lat="46.2786157" lon="13.0597677"><ele>192.0</ele><time>2026-03-29T13:15:54.714Z</time></trkpt><trkpt lat="46.2784088" lon="13.059743"><ele>193.0</ele><time>2026-03-29T13:15:55.699Z</time></trkpt><trkpt lat="46.2782047" lon="13.0597219"><ele>194.0</ele><time>2026-03-29T13:15:56.708Z</time></trkpt><trkpt lat="46.2780027" lon="13.0596999"><ele>192.0</ele><time>2026-03-29T13:15:57.732Z</time></trkpt><trkpt lat="46.2778015" lon="13.0596767"><ele>190.0</ele><time>2026-03-29T13:15:58.729Z</time></trkpt><trkpt lat="46.2776017" lon="13.0596527"><ele>188.0</ele><time>2026-03-29T13:15:59.718Z</time></trkpt><trkpt lat="46.277403" lon="13.0596293"><ele>186.66666666666666</ele><time>2026-03-29T13:16:00.735Z</time></trkpt><trkpt lat="46.2772057" lon="13.059605"><ele>185.33333333333334</ele><time>2026-03-29T13:16:01.719Z</time></trkpt><trkpt lat="46.27701" lon="13.0595801"><ele>184.0</ele><time>2026-03-29T13:16:02.711Z</time></trkpt><trkpt lat="46.2768159" lon="13.0595444"><ele>184.0</ele><time>2026-03-29T13:16:03.709Z</time></trkpt><trkpt lat="46.2766225" lon="13.0594999"><ele>184.0</ele><time>2026-03-29T13:16:04.724Z</time></trkpt><trkpt lat="46.2764305" lon="13.0594422"><ele>184.0</ele><time>2026-03-29T13:16:05.729Z</time></trkpt><trkpt lat="46.2762408" lon="13.0593654"><ele>184.0</ele><time>2026-03-29T13:16:06.724Z</time></trkpt><trkpt lat="46.2760546" lon="13.059267"><ele>184.0</ele><time>2026-03-29T13:16:07.712Z</time></trkpt><trkpt lat="46.2758733" lon="13.0591526"><ele>184.0</ele><time>2026-03-29T13:16:08.744Z</time></trkpt><trkpt lat="46.2756956" lon="13.0590295"><ele>184.66666666666669</ele><time>2026-03-29T13:16:09.715Z</time></trkpt><trkpt lat="46.2755155" lon="13.0589146"><ele>185.33333333333334</ele><time>2026-03-29T13:16:10.712Z</time></trkpt><trkpt lat="46.2753354" lon="13.0587957"><ele>186.0</ele><time>2026-03-29T13:16:11.723Z</time></trkpt><trkpt lat="46.2751509" lon="13.0586857"><ele>186.0</ele><time>2026-03-29T13:16:12.711Z</time></trkpt><trkpt lat="46.2749676" lon="13.0585623"><ele>186.0</ele><time>2026-03-29T13:16:13.709Z</time></trkpt><trkpt lat="46.2747804" lon="13.0584421"><ele>186.0</ele><time>2026-03-29T13:16:14.713Z</time></trkpt><trkpt lat="46.2745876" lon="13.0583283"><ele>187.33333333333334</ele><time>2026-03-29T13:16:15.715Z</time></trkpt><trkpt lat="46.274391" lon="13.0582206"><ele>188.66666666666669</ele><time>2026-03-29T13:16:16.745Z</time></trkpt><trkpt lat="46.2741954" lon="13.0581008"><ele>190.0</ele><time>2026-03-29T13:16:17.731Z</time></trkpt><trkpt lat="46.274001" lon="13.0579731"><ele>188.33333333333334</ele><time>2026-03-29T13:16:18.732Z</time></trkpt><trkpt lat="46.273808" lon="13.0578413"><ele>186.66666666666666</ele><time>2026-03-29T13:16:19.717Z</time></trkpt><trkpt lat="46.2736161" lon="13.0577134"><ele>185.0</ele><time>2026-03-29T13:16:20.72Z</time></trkpt><trkpt lat="46.2734262" lon="13.05759"><ele>185.0</ele><time>2026-03-29T13:16:21.731Z</time></trkpt><trkpt lat="46.2732379" lon="13.0574641"><ele>185.0</ele><time>2026-03-29T13:16:22.725Z</time></trkpt><trkpt lat="46.2730481" lon="13.0573405"><ele>185.0</ele><time>2026-03-29T13:16:23.711Z</time></trkpt><trkpt lat="46.2728574" lon="13.0572195"><ele>187.0</ele><time>2026-03-29T13:16:24.725Z</time></trkpt><trkpt lat="46.2726667" lon="13.0571008"><ele>189.0</ele><time>2026-03-29T13:16:25.705Z</time></trkpt><trkpt lat="46.2724767" lon="13.0569848"><ele>191.0</ele><time>2026-03-29T13:16:26.718Z</time></trkpt><trkpt lat="46.2722874" lon="13.056874"><ele>190.33333333333331</ele><time>2026-03-29T13:16:27.715Z</time></trkpt><trkpt lat="46.2721041" lon="13.0567507"><ele>189.66666666666666</ele><time>2026-03-29T13:16:28.71Z</time></trkpt><trkpt lat="46.2719176" lon="13.0566455"><ele>189.0</ele><time>2026-03-29T13:16:29.711Z</time></trkpt><trkpt lat="46.2717335" lon="13.0565365"><ele>189.0</ele><time>2026-03-29T13:16:30.705Z</time></trkpt><trkpt lat="46.2715509" lon="13.0564253"><ele>189.0</ele><time>2026-03-29T13:16:31.71Z</time></trkpt><trkpt lat="46.2713689" lon="13.0563141"><ele>189.0</ele><time>2026-03-29T13:16:32.713Z</time></trkpt><trkpt lat="46.2711877" lon="13.0561999"><ele>189.0</ele><time>2026-03-29T13:16:33.729Z</time></trkpt><trkpt lat="46.2710069" lon="13.0560831"><ele>189.0</ele><time>2026-03-29T13:16:34.721Z</time></trkpt><trkpt lat="46.2708235" lon="13.0559731"><ele>189.0</ele><time>2026-03-29T13:16:35.705Z</time></trkpt><trkpt lat="46.2706403" lon="13.0558592"><ele>188.0</ele><time>2026-03-29T13:16:36.721Z</time></trkpt><trkpt lat="46.2704548" lon="13.0557484"><ele>187.0</ele><time>2026-03-29T13:16:37.719Z</time></trkpt><trkpt lat="46.2702737" lon="13.0556278"><ele>186.0</ele><time>2026-03-29T13:16:38.725Z</time></trkpt><trkpt lat="46.2700941" lon="13.0555062"><ele>186.0</ele><time>2026-03-29T13:16:39.71Z</time></trkpt><trkpt lat="46.2699138" lon="13.0553889"><ele>186.0</ele><time>2026-03-29T13:16:40.732Z</time></trkpt><trkpt lat="46.2697393" lon="13.0552515"><ele>186.0</ele><time>2026-03-29T13:16:41.709Z</time></trkpt><trkpt lat="46.2695704" lon="13.0550988"><ele>186.0</ele><time>2026-03-29T13:16:42.704Z</time></trkpt><trkpt lat="46.2694084" lon="13.0549283"><ele>186.0</ele><time>2026-03-29T13:16:43.703Z</time></trkpt><trkpt lat="46.2692552" lon="13.0547478"><ele>186.0</ele><time>2026-03-29T13:16:44.714Z</time></trkpt><trkpt lat="46.269111" lon="13.0545588"><ele>186.0</ele><time>2026-03-29T13:16:45.709Z</time></trkpt><trkpt lat="46.2689708" lon="13.0543654"><ele>186.0</ele><time>2026-03-29T13:16:46.712Z</time></trkpt><trkpt lat="46.2688378" lon="13.0541583"><ele>186.0</ele><time>2026-03-29T13:16:47.704Z</time></trkpt><trkpt lat="46.2687084" lon="13.053944"><ele>186.0</ele><time>2026-03-29T13:16:48.729Z</time></trkpt><trkpt lat="46.2685898" lon="13.0537117"><ele>186.0</ele><time>2026-03-29T13:16:49.714Z</time></trkpt><trkpt lat="46.268486" lon="13.0534588"><ele>186.0</ele><time>2026-03-29T13:16:50.727Z</time></trkpt><trkpt lat="46.2683853" lon="13.0532026"><ele>186.66666666666666</ele><time>2026-03-29T13:16:51.711Z</time></trkpt><trkpt lat="46.268295" lon="13.0529318"><ele>187.33333333333331</ele><time>2026-03-29T13:16:52.733Z</time></trkpt><trkpt lat="46.2682139" lon="13.0526491"><ele>188.0</ele><time>2026-03-29T13:16:53.713Z</time></trkpt><trkpt lat="46.2681356" lon="13.0523586"><ele>186.66666666666666</ele><time>2026-03-29T13:16:54.712Z</time></trkpt><trkpt lat="46.2680615" lon="13.0520626"><ele>185.33333333333334</ele><time>2026-03-29T13:16:55.707Z</time></trkpt><trkpt lat="46.2679859" lon="13.0517636"><ele>184.0</ele><time>2026-03-29T13:16:56.714Z</time></trkpt><trkpt lat="46.2679066" lon="13.0514628"><ele>184.0</ele><time>2026-03-29T13:16:57.728Z</time></trkpt><trkpt lat="46.2678242" lon="13.051165"><ele>184.0</ele><time>2026-03-29T13:16:58.706Z</time></trkpt><trkpt lat="46.2677408" lon="13.0508667"><ele>184.0</ele><time>2026-03-29T13:16:59.713Z</time></trkpt><trkpt lat="46.2676619" lon="13.0505674"><ele>184.0</ele><time>2026-03-29T13:17:00.713Z</time></trkpt><trkpt lat="46.2675759" lon="13.0502662"><ele>184.0</ele><time>2026-03-29T13:17:01.712Z</time></trkpt><trkpt lat="46.2674847" lon="13.0499672"><ele>184.0</ele><time>2026-03-29T13:17:02.734Z</time></trkpt><trkpt lat="46.267404" lon="13.0496661"><ele>184.0</ele><time>2026-03-29T13:17:03.722Z</time></trkpt><trkpt lat="46.2673269" lon="13.0493732"><ele>184.0</ele><time>2026-03-29T13:17:04.706Z</time></trkpt><trkpt lat="46.26726" lon="13.0490931"><ele>184.0</ele><time>2026-03-29T13:17:05.711Z</time></trkpt><trkpt lat="46.2671898" lon="13.0488198"><ele>184.0</ele><time>2026-03-29T13:17:06.703Z</time></trkpt><trkpt lat="46.2671141" lon="13.048555"><ele>184.0</ele><time>2026-03-29T13:17:07.721Z</time></trkpt><trkpt lat="46.2670426" lon="13.0482948"><ele>186.0</ele><time>2026-03-29T13:17:08.722Z</time></trkpt><trkpt lat="46.2669712" lon="13.0480395"><ele>188.0</ele><time>2026-03-29T13:17:09.716Z</time></trkpt><trkpt lat="46.2668933" lon="13.0477895"><ele>190.0</ele><time>2026-03-29T13:17:10.712Z</time></trkpt><trkpt lat="46.2668084" lon="13.0475414"><ele>195.0</ele><time>2026-03-29T13:17:11.722Z</time></trkpt><trkpt lat="46.2667108" lon="13.0472937"><ele>200.0</ele><time>2026-03-29T13:17:12.716Z</time></trkpt><trkpt lat="46.2665948" lon="13.0470502"><ele>205.0</ele><time>2026-03-29T13:17:13.703Z</time></trkpt><trkpt lat="46.2664691" lon="13.0468105"><ele>203.66666666666666</ele><time>2026-03-29T13:17:14.71Z</time></trkpt><trkpt lat="46.2663353" lon="13.0465813"><ele>202.33333333333331</ele><time>2026-03-29T13:17:15.708Z</time></trkpt><trkpt lat="46.266184" lon="13.0463791"><ele>201.0</ele><time>2026-03-29T13:17:16.713Z</time></trkpt><trkpt lat="46.2660379" lon="13.0461731"><ele>201.0</ele><time>2026-03-29T13:17:17.704Z</time></trkpt><trkpt lat="46.2658909" lon="13.0459677"><ele>201.0</ele><time>2026-03-29T13:17:18.708Z</time></trkpt><trkpt lat="46.2657429" lon="13.0457636"><ele>201.0</ele><time>2026-03-29T13:17:19.709Z</time></trkpt><trkpt lat="46.2655964" lon="13.0455528"><ele>200.33333333333331</ele><time>2026-03-29T13:17:20.708Z</time></trkpt><trkpt lat="46.2654638" lon="13.0453202"><ele>199.66666666666666</ele><time>2026-03-29T13:17:21.704Z</time></trkpt><trkpt lat="46.265324" lon="13.0450913"><ele>199.0</ele><time>2026-03-29T13:17:22.709Z</time></trkpt><trkpt lat="46.2651715" lon="13.0448805"><ele>196.66666666666666</ele><time>2026-03-29T13:17:23.708Z</time></trkpt><trkpt lat="46.2650447" lon="13.0446402"><ele>194.33333333333331</ele><time>2026-03-29T13:17:24.708Z</time></trkpt><trkpt lat="46.2648921" lon="13.0444514"><ele>192.0</ele><time>2026-03-29T13:17:25.708Z</time></trkpt><trkpt lat="46.264771" lon="13.0442289"><ele>198.33333333333331</ele><time>2026-03-29T13:17:26.719Z</time></trkpt><trkpt lat="46.2646401" lon="13.044028"><ele>204.66666666666666</ele><time>2026-03-29T13:17:27.712Z</time></trkpt><trkpt lat="46.2644889" lon="13.0438636"><ele>211.0</ele><time>2026-03-29T13:17:28.716Z</time></trkpt><trkpt lat="46.2643302" lon="13.0437202"><ele>211.0</ele><time>2026-03-29T13:17:29.726Z</time></trkpt><trkpt lat="46.2641679" lon="13.0435826"><ele>211.0</ele><time>2026-03-29T13:17:30.712Z</time></trkpt><trkpt lat="46.2639957" lon="13.0434573"><ele>211.0</ele><time>2026-03-29T13:17:31.714Z</time></trkpt><trkpt lat="46.263812" lon="13.043366"><ele>211.33333333333331</ele><time>2026-03-29T13:17:32.716Z</time></trkpt><trkpt lat="46.2636291" lon="13.0432793"><ele>211.66666666666669</ele><time>2026-03-29T13:17:33.71Z</time></trkpt><trkpt lat="46.2634509" lon="13.0431837"><ele>212.0</ele><time>2026-03-29T13:17:34.706Z</time></trkpt><trkpt lat="46.2632824" lon="13.0430966"><ele>212.0</ele><time>2026-03-29T13:17:35.702Z</time></trkpt><trkpt lat="46.2631316" lon="13.042996"><ele>212.0</ele><time>2026-03-29T13:17:36.704Z</time></trkpt><trkpt lat="46.2629926" lon="13.0428577"><ele>212.0</ele><time>2026-03-29T13:17:37.704Z</time></trkpt><trkpt lat="46.2628701" lon="13.0426746"><ele>209.33333333333334</ele><time>2026-03-29T13:17:38.713Z</time></trkpt><trkpt lat="46.2627441" lon="13.0424874"><ele>206.66666666666669</ele><time>2026-03-29T13:17:39.706Z</time></trkpt><trkpt lat="46.2626183" lon="13.0422807"><ele>204.0</ele><time>2026-03-29T13:17:40.716Z</time></trkpt><trkpt lat="46.2624924" lon="13.0420605"><ele>204.0</ele><time>2026-03-29T13:17:41.712Z</time></trkpt><trkpt lat="46.2623583" lon="13.0418455"><ele>204.0</ele><time>2026-03-29T13:17:42.708Z</time></trkpt><trkpt lat="46.2622346" lon="13.0416081"><ele>204.0</ele><time>2026-03-29T13:17:43.689Z</time></trkpt><trkpt lat="46.2620966" lon="13.041391"><ele>203.66666666666669</ele><time>2026-03-29T13:17:44.708Z</time></trkpt><trkpt lat="46.2619535" lon="13.041184"><ele>203.33333333333334</ele><time>2026-03-29T13:17:45.715Z</time></trkpt><trkpt lat="46.2618107" lon="13.0409807"><ele>203.0</ele><time>2026-03-29T13:17:46.712Z</time></trkpt><trkpt lat="46.2616517" lon="13.0408158"><ele>203.66666666666669</ele><time>2026-03-29T13:17:47.715Z</time></trkpt><trkpt lat="46.2614824" lon="13.0406908"><ele>204.33333333333331</ele><time>2026-03-29T13:17:48.722Z</time></trkpt><trkpt lat="46.2613" lon="13.0406058"><ele>205.0</ele><time>2026-03-29T13:17:49.705Z</time></trkpt><trkpt lat="46.2611154" lon="13.0405448"><ele>205.0</ele><time>2026-03-29T13:17:50.723Z</time></trkpt><trkpt lat="46.2609456" lon="13.0404883"><ele>205.0</ele><time>2026-03-29T13:17:51.706Z</time></trkpt><trkpt lat="46.2607973" lon="13.040442"><ele>205.0</ele><time>2026-03-29T13:17:52.703Z</time></trkpt><trkpt lat="46.2606646" lon="13.0404177"><ele>203.5</ele><time>2026-03-29T13:17:53.702Z</time></trkpt><trkpt lat="46.260533" lon="13.0404385"><ele>202.0</ele><time>2026-03-29T13:17:54.71Z</time></trkpt><trkpt lat="46.2604" lon="13.0404954"><ele>200.5</ele><time>2026-03-29T13:17:55.711Z</time></trkpt><trkpt lat="46.2602657" lon="13.0405922"><ele>199.0</ele><time>2026-03-29T13:17:56.703Z</time></trkpt><trkpt lat="46.2601357" lon="13.0407114"><ele>198.0</ele><time>2026-03-29T13:17:57.722Z</time></trkpt><trkpt lat="46.2600121" lon="13.0408329"><ele>197.0</ele><time>2026-03-29T13:17:58.726Z</time></trkpt><trkpt lat="46.2598901" lon="13.0409408"><ele>196.0</ele><time>2026-03-29T13:17:59.704Z</time></trkpt><trkpt lat="46.2597731" lon="13.0410411"><ele>195.0</ele><time>2026-03-29T13:18:00.707Z</time></trkpt><trkpt lat="46.2596563" lon="13.041112"><ele>195.0</ele><time>2026-03-29T13:18:01.714Z</time></trkpt><trkpt lat="46.2595462" lon="13.0411523"><ele>195.0</ele><time>2026-03-29T13:18:02.727Z</time></trkpt><trkpt lat="46.2594376" lon="13.0411161"><ele>195.0</ele><time>2026-03-29T13:18:03.723Z</time></trkpt><trkpt lat="46.2593409" lon="13.0410691"><ele>195.0</ele><time>2026-03-29T13:18:04.737Z</time></trkpt><trkpt lat="46.259226" lon="13.0410173"><ele>195.0</ele><time>2026-03-29T13:18:05.714Z</time></trkpt><trkpt lat="46.2590933" lon="13.0409531"><ele>195.0</ele><time>2026-03-29T13:18:06.708Z</time></trkpt><trkpt lat="46.2589547" lon="13.0408962"><ele>195.0</ele><time>2026-03-29T13:18:07.71Z</time></trkpt><trkpt lat="46.2588154" lon="13.0408272"><ele>195.0</ele><time>2026-03-29T13:18:08.702Z</time></trkpt><trkpt lat="46.2586745" lon="13.0407327"><ele>195.0</ele><time>2026-03-29T13:18:09.72Z</time></trkpt><trkpt lat="46.2585291" lon="13.040667"><ele>194.75</ele><time>2026-03-29T13:18:10.727Z</time></trkpt><trkpt lat="46.2583918" lon="13.0406022"><ele>194.5</ele><time>2026-03-29T13:18:11.705Z</time></trkpt><trkpt lat="46.2582548" lon="13.0405462"><ele>194.25</ele><time>2026-03-29T13:18:12.711Z</time></trkpt><trkpt lat="46.2581177" lon="13.0404958"><ele>194.0</ele><time>2026-03-29T13:18:13.704Z</time></trkpt><trkpt lat="46.2579851" lon="13.0404348"><ele>193.0</ele><time>2026-03-29T13:18:14.706Z</time></trkpt><trkpt lat="46.257856" lon="13.0403729"><ele>192.0</ele><time>2026-03-29T13:18:15.708Z</time></trkpt><trkpt lat="46.2577274" lon="13.0402968"><ele>191.0</ele><time>2026-03-29T13:18:16.709Z</time></trkpt><trkpt lat="46.2575939" lon="13.0402281"><ele>190.0</ele><time>2026-03-29T13:18:17.715Z</time></trkpt><trkpt lat="46.2574584" lon="13.0401648"><ele>190.0</ele><time>2026-03-29T13:18:18.714Z</time></trkpt><trkpt lat="46.2573253" lon="13.0400985"><ele>190.0</ele><time>2026-03-29T13:18:19.729Z</time></trkpt><trkpt lat="46.2571956" lon="13.0400328"><ele>190.0</ele><time>2026-03-29T13:18:20.725Z</time></trkpt><trkpt lat="46.2570673" lon="13.0399673"><ele>190.0</ele><time>2026-03-29T13:18:21.722Z</time></trkpt><trkpt lat="46.2569384" lon="13.039902"><ele>188.5</ele><time>2026-03-29T13:18:22.705Z</time></trkpt><trkpt lat="46.2568105" lon="13.0398353"><ele>187.0</ele><time>2026-03-29T13:18:23.697Z</time></trkpt><trkpt lat="46.2566822" lon="13.039773"><ele>185.5</ele><time>2026-03-29T13:18:24.702Z</time></trkpt><trkpt lat="46.2565592" lon="13.0396887"><ele>184.0</ele><time>2026-03-29T13:18:25.701Z</time></trkpt><trkpt lat="46.2564438" lon="13.0395828"><ele>183.5</ele><time>2026-03-29T13:18:26.708Z</time></trkpt><trkpt lat="46.2563213" lon="13.03952"><ele>183.0</ele><time>2026-03-29T13:18:27.724Z</time></trkpt><trkpt lat="46.2562365" lon="13.0393643"><ele>182.5</ele><time>2026-03-29T13:18:28.71Z</time></trkpt><trkpt lat="46.2561544" lon="13.0392135"><ele>182.0</ele><time>2026-03-29T13:18:29.706Z</time></trkpt><trkpt lat="46.256077" lon="13.0390478"><ele>182.0</ele><time>2026-03-29T13:18:30.719Z</time></trkpt><trkpt lat="46.2559955" lon="13.0388789"><ele>182.0</ele><time>2026-03-29T13:18:31.717Z</time></trkpt><trkpt lat="46.2559167" lon="13.0387096"><ele>182.0</ele><time>2026-03-29T13:18:32.711Z</time></trkpt><trkpt lat="46.2558384" lon="13.0385458"><ele>182.0</ele><time>2026-03-29T13:18:33.703Z</time></trkpt><trkpt lat="46.2557558" lon="13.0383866"><ele>183.75</ele><time>2026-03-29T13:18:34.716Z</time></trkpt><trkpt lat="46.2556646" lon="13.0382325"><ele>185.5</ele><time>2026-03-29T13:18:35.728Z</time></trkpt><trkpt lat="46.255556" lon="13.0380921"><ele>187.25</ele><time>2026-03-29T13:18:36.715Z</time></trkpt><trkpt lat="46.2554263" lon="13.0379727"><ele>189.0</ele><time>2026-03-29T13:18:37.712Z</time></trkpt><trkpt lat="46.255288" lon="13.0378566"><ele>189.0</ele><time>2026-03-29T13:18:38.712Z</time></trkpt><trkpt lat="46.2551328" lon="13.0377687"><ele>189.0</ele><time>2026-03-29T13:18:39.737Z</time></trkpt><trkpt lat="46.2549727" lon="13.0376741"><ele>189.0</ele><time>2026-03-29T13:18:40.718Z</time></trkpt><trkpt lat="46.2548071" lon="13.0375709"><ele>186.33333333333334</ele><time>2026-03-29T13:18:41.715Z</time></trkpt><trkpt lat="46.2546366" lon="13.03747"><ele>183.66666666666669</ele><time>2026-03-29T13:18:42.717Z</time></trkpt><trkpt lat="46.2544597" lon="13.0373906"><ele>181.0</ele><time>2026-03-29T13:18:43.734Z</time></trkpt><trkpt lat="46.2542812" lon="13.0373099"><ele>183.33333333333334</ele><time>2026-03-29T13:18:44.712Z</time></trkpt><trkpt lat="46.254093" lon="13.0372508"><ele>185.66666666666666</ele><time>2026-03-29T13:18:45.72Z</time></trkpt><trkpt lat="46.2538967" lon="13.0372182"><ele>188.0</ele><time>2026-03-29T13:18:46.714Z</time></trkpt><trkpt lat="46.2536966" lon="13.0372112"><ele>188.0</ele><time>2026-03-29T13:18:47.712Z</time></trkpt><trkpt lat="46.2535057" lon="13.0372146"><ele>188.0</ele><time>2026-03-29T13:18:48.727Z</time></trkpt><trkpt lat="46.2533184" lon="13.0371813"><ele>188.0</ele><time>2026-03-29T13:18:49.705Z</time></trkpt><trkpt lat="46.2531293" lon="13.03713"><ele>185.33333333333331</ele><time>2026-03-29T13:18:50.721Z</time></trkpt><trkpt lat="46.2529408" lon="13.0370648"><ele>182.66666666666666</ele><time>2026-03-29T13:18:51.707Z</time></trkpt><trkpt lat="46.2527535" lon="13.0369803"><ele>180.0</ele><time>2026-03-29T13:18:52.702Z</time></trkpt><trkpt lat="46.2525725" lon="13.0368722"><ele>180.0</ele><time>2026-03-29T13:18:53.696Z</time></trkpt><trkpt lat="46.2523941" lon="13.0367654"><ele>180.0</ele><time>2026-03-29T13:18:54.714Z</time></trkpt><trkpt lat="46.2522123" lon="13.0366972"><ele>180.0</ele><time>2026-03-29T13:18:55.708Z</time></trkpt><trkpt lat="46.2520328" lon="13.0366397"><ele>185.33333333333331</ele><time>2026-03-29T13:18:56.71Z</time></trkpt><trkpt lat="46.2518522" lon="13.0365971"><ele>190.66666666666666</ele><time>2026-03-29T13:18:57.713Z</time></trkpt><trkpt lat="46.2516707" lon="13.03658"><ele>196.0</ele><time>2026-03-29T13:18:58.725Z</time></trkpt><trkpt lat="46.2514899" lon="13.0365779"><ele>197.66666666666666</ele><time>2026-03-29T13:18:59.711Z</time></trkpt><trkpt lat="46.2513037" lon="13.0366233"><ele>199.33333333333331</ele><time>2026-03-29T13:19:00.734Z</time></trkpt><trkpt lat="46.2511164" lon="13.0366684"><ele>201.0</ele><time>2026-03-29T13:19:01.718Z</time></trkpt><trkpt lat="46.2509359" lon="13.0367114"><ele>194.66666666666666</ele><time>2026-03-29T13:19:02.709Z</time></trkpt><trkpt lat="46.2507611" lon="13.0367341"><ele>188.33333333333331</ele><time>2026-03-29T13:19:03.713Z</time></trkpt><trkpt lat="46.250591" lon="13.0367094"><ele>182.0</ele><time>2026-03-29T13:19:04.727Z</time></trkpt><trkpt lat="46.2504256" lon="13.0366594"><ele>183.66666666666666</ele><time>2026-03-29T13:19:05.708Z</time></trkpt><trkpt lat="46.2502654" lon="13.0366029"><ele>185.33333333333334</ele><time>2026-03-29T13:19:06.705Z</time></trkpt><trkpt lat="46.2501152" lon="13.0365014"><ele>187.0</ele><time>2026-03-29T13:19:07.72Z</time></trkpt><trkpt lat="46.249969" lon="13.0363919"><ele>187.0</ele><time>2026-03-29T13:19:08.708Z</time></trkpt><trkpt lat="46.2498492" lon="13.0362393"><ele>187.0</ele><time>2026-03-29T13:19:09.713Z</time></trkpt><trkpt lat="46.2497429" lon="13.0360882"><ele>187.0</ele><time>2026-03-29T13:19:10.713Z</time></trkpt><trkpt lat="46.2496384" lon="13.0359595"><ele>187.0</ele><time>2026-03-29T13:19:11.713Z</time></trkpt><trkpt lat="46.2495206" lon="13.0358648"><ele>186.66666666666669</ele><time>2026-03-29T13:19:12.716Z</time></trkpt><trkpt lat="46.2493847" lon="13.0358288"><ele>186.33333333333334</ele><time>2026-03-29T13:19:13.705Z</time></trkpt><trkpt lat="46.2492288" lon="13.0358982"><ele>186.0</ele><time>2026-03-29T13:19:14.706Z</time></trkpt><trkpt lat="46.2490758" lon="13.0359815"><ele>189.33333333333331</ele><time>2026-03-29T13:19:15.709Z</time></trkpt><trkpt lat="46.2489111" lon="13.0360351"><ele>192.66666666666666</ele><time>2026-03-29T13:19:16.712Z</time></trkpt><trkpt lat="46.2487267" lon="13.0360822"><ele>196.0</ele><time>2026-03-29T13:19:17.713Z</time></trkpt><trkpt lat="46.2485261" lon="13.0361226"><ele>196.0</ele><time>2026-03-29T13:19:18.713Z</time></trkpt><trkpt lat="46.2483313" lon="13.0361584"><ele>196.0</ele><time>2026-03-29T13:19:19.716Z</time></trkpt><trkpt lat="46.2481443" lon="13.0361909"><ele>196.0</ele><time>2026-03-29T13:19:20.721Z</time></trkpt><trkpt lat="46.2479664" lon="13.036228"><ele>202.25</ele><time>2026-03-29T13:19:21.718Z</time></trkpt><trkpt lat="46.2478045" lon="13.0362817"><ele>208.5</ele><time>2026-03-29T13:19:22.721Z</time></trkpt><trkpt lat="46.2476604" lon="13.0363386"><ele>214.75</ele><time>2026-03-29T13:19:23.727Z</time></trkpt><trkpt lat="46.2475413" lon="13.0364264"><ele>221.0</ele><time>2026-03-29T13:19:24.722Z</time></trkpt><trkpt lat="46.2474389" lon="13.0365259"><ele>221.0</ele><time>2026-03-29T13:19:25.715Z</time></trkpt><trkpt lat="46.2473428" lon="13.0366035"><ele>221.0</ele><time>2026-03-29T13:19:26.714Z</time></trkpt><trkpt lat="46.2472552" lon="13.0366753"><ele>221.0</ele><time>2026-03-29T13:19:27.731Z</time></trkpt><trkpt lat="46.247147" lon="13.036715"><ele>221.0</ele><time>2026-03-29T13:19:28.729Z</time></trkpt><trkpt lat="46.247" lon="13.0367008"><ele>224.66666666666669</ele><time>2026-03-29T13:19:29.724Z</time></trkpt><trkpt lat="46.2468398" lon="13.0366861"><ele>228.33333333333331</ele><time>2026-03-29T13:19:30.711Z</time></trkpt><trkpt lat="46.2466767" lon="13.0366569"><ele>232.0</ele><time>2026-03-29T13:19:31.72Z</time></trkpt><trkpt lat="46.2465252" lon="13.0366134"><ele>230.0</ele><time>2026-03-29T13:19:32.722Z</time></trkpt><trkpt lat="46.2463837" lon="13.0365767"><ele>228.0</ele><time>2026-03-29T13:19:33.704Z</time></trkpt><trkpt lat="46.2462495" lon="13.0365269"><ele>226.0</ele><time>2026-03-29T13:19:34.703Z</time></trkpt><trkpt lat="46.2461183" lon="13.0364517"><ele>224.0</ele><time>2026-03-29T13:19:35.713Z</time></trkpt><trkpt lat="46.2459857" lon="13.036367"><ele>224.0</ele><time>2026-03-29T13:19:36.72Z</time></trkpt><trkpt lat="46.2458427" lon="13.0363016"><ele>224.0</ele><time>2026-03-29T13:19:37.722Z</time></trkpt><trkpt lat="46.2456917" lon="13.0362601"><ele>224.0</ele><time>2026-03-29T13:19:38.734Z</time></trkpt><trkpt lat="46.2455435" lon="13.0362054"><ele>220.0</ele><time>2026-03-29T13:19:39.719Z</time></trkpt><trkpt lat="46.2454073" lon="13.0361627"><ele>216.0</ele><time>2026-03-29T13:19:40.723Z</time></trkpt><trkpt lat="46.2452802" lon="13.0361138"><ele>212.0</ele><time>2026-03-29T13:19:41.734Z</time></trkpt><trkpt lat="46.245154" lon="13.0360697"><ele>208.0</ele><time>2026-03-29T13:19:42.711Z</time></trkpt><trkpt lat="46.2450207" lon="13.0360437"><ele>208.0</ele><time>2026-03-29T13:19:43.737Z</time></trkpt><trkpt lat="46.2448838" lon="13.0360336"><ele>208.0</ele><time>2026-03-29T13:19:44.733Z</time></trkpt><trkpt lat="46.2447557" lon="13.036007"><ele>208.0</ele><time>2026-03-29T13:19:45.725Z</time></trkpt><trkpt lat="46.2446369" lon="13.0359552"><ele>208.0</ele><time>2026-03-29T13:19:46.719Z</time></trkpt><trkpt lat="46.2445162" lon="13.0358728"><ele>211.75</ele><time>2026-03-29T13:19:47.721Z</time></trkpt><trkpt lat="46.2443951" lon="13.0357676"><ele>215.5</ele><time>2026-03-29T13:19:48.715Z</time></trkpt><trkpt lat="46.2442823" lon="13.0356685"><ele>219.25</ele><time>2026-03-29T13:19:49.715Z</time></trkpt><trkpt lat="46.2441712" lon="13.035596"><ele>223.0</ele><time>2026-03-29T13:19:50.714Z</time></trkpt><trkpt lat="46.2440631" lon="13.0355382"><ele>214.75</ele><time>2026-03-29T13:19:51.725Z</time></trkpt><trkpt lat="46.2439558" lon="13.0354807"><ele>206.5</ele><time>2026-03-29T13:19:52.725Z</time></trkpt><trkpt lat="46.243849" lon="13.0354193"><ele>198.25</ele><time>2026-03-29T13:19:53.713Z</time></trkpt><trkpt lat="46.243739" lon="13.0353468"><ele>190.0</ele><time>2026-03-29T13:19:54.726Z</time></trkpt><trkpt lat="46.2436268" lon="13.035255"><ele>190.0</ele><time>2026-03-29T13:19:55.726Z</time></trkpt><trkpt lat="46.2435039" lon="13.0351537"><ele>190.0</ele><time>2026-03-29T13:19:56.721Z</time></trkpt><trkpt lat="46.2433732" lon="13.0350502"><ele>190.0</ele><time>2026-03-29T13:19:57.702Z</time></trkpt><trkpt lat="46.2432339" lon="13.0349514"><ele>190.0</ele><time>2026-03-29T13:19:58.714Z</time></trkpt><trkpt lat="46.2431049" lon="13.0348438"><ele>191.75</ele><time>2026-03-29T13:19:59.731Z</time></trkpt><trkpt lat="46.2429696" lon="13.0347689"><ele>193.5</ele><time>2026-03-29T13:20:00.707Z</time></trkpt><trkpt lat="46.2428308" lon="13.0347009"><ele>195.25</ele><time>2026-03-29T13:20:01.729Z</time></trkpt><trkpt lat="46.2426873" lon="13.0346252"><ele>197.0</ele><time>2026-03-29T13:20:02.732Z</time></trkpt><trkpt lat="46.2425404" lon="13.0345292"><ele>197.0</ele><time>2026-03-29T13:20:03.727Z</time></trkpt><trkpt lat="46.2423949" lon="13.0344203"><ele>197.0</ele><time>2026-03-29T13:20:04.727Z</time></trkpt><trkpt lat="46.2422552" lon="13.0343027"><ele>197.0</ele><time>2026-03-29T13:20:05.704Z</time></trkpt><trkpt lat="46.2421145" lon="13.0342021"><ele>199.25</ele><time>2026-03-29T13:20:06.715Z</time></trkpt><trkpt lat="46.2419824" lon="13.03409"><ele>201.5</ele><time>2026-03-29T13:20:07.704Z</time></trkpt><trkpt lat="46.2418476" lon="13.0339983"><ele>203.75</ele><time>2026-03-29T13:20:08.723Z</time></trkpt><trkpt lat="46.2417257" lon="13.0338964"><ele>206.0</ele><time>2026-03-29T13:20:09.71Z</time></trkpt><trkpt lat="46.2416132" lon="13.0337876"><ele>206.0</ele><time>2026-03-29T13:20:10.735Z</time></trkpt><trkpt lat="46.2414945" lon="13.0336994"><ele>206.0</ele><time>2026-03-29T13:20:11.712Z</time></trkpt><trkpt lat="46.2413738" lon="13.0336248"><ele>206.0</ele><time>2026-03-29T13:20:12.713Z</time></trkpt><trkpt lat="46.2412589" lon="13.0335394"><ele>206.0</ele><time>2026-03-29T13:20:13.726Z</time></trkpt><trkpt lat="46.2411362" lon="13.0334733"><ele>209.0</ele><time>2026-03-29T13:20:14.713Z</time></trkpt><trkpt lat="46.241008" lon="13.0333979"><ele>212.0</ele><time>2026-03-29T13:20:15.73Z</time></trkpt><trkpt lat="46.2408819" lon="13.0333041"><ele>215.0</ele><time>2026-03-29T13:20:16.713Z</time></trkpt><trkpt lat="46.2407616" lon="13.0331904"><ele>218.0</ele><time>2026-03-29T13:20:17.713Z</time></trkpt><trkpt lat="46.2406424" lon="13.0330859"><ele>212.0</ele><time>2026-03-29T13:20:18.732Z</time></trkpt><trkpt lat="46.2405308" lon="13.0329762"><ele>206.0</ele><time>2026-03-29T13:20:19.74Z</time></trkpt><trkpt lat="46.2404179" lon="13.0328804"><ele>200.0</ele><time>2026-03-29T13:20:20.722Z</time></trkpt><trkpt lat="46.2403026" lon="13.032796"><ele>194.0</ele><time>2026-03-29T13:20:21.715Z</time></trkpt><trkpt lat="46.2401825" lon="13.0327261"><ele>194.0</ele><time>2026-03-29T13:20:22.715Z</time></trkpt><trkpt lat="46.2400526" lon="13.0326806"><ele>194.0</ele><time>2026-03-29T13:20:23.711Z</time></trkpt><trkpt lat="46.2399221" lon="13.0326451"><ele>194.0</ele><time>2026-03-29T13:20:24.73Z</time></trkpt><trkpt lat="46.2397922" lon="13.0326124"><ele>194.0</ele><time>2026-03-29T13:20:25.711Z</time></trkpt><trkpt lat="46.2396614" lon="13.0325657"><ele>191.5</ele><time>2026-03-29T13:20:26.723Z</time></trkpt><trkpt lat="46.2395324" lon="13.0325322"><ele>189.0</ele><time>2026-03-29T13:20:27.721Z</time></trkpt><trkpt lat="46.2394102" lon="13.0325069"><ele>186.5</ele><time>2026-03-29T13:20:28.72Z</time></trkpt><trkpt lat="46.2392902" lon="13.032481"><ele>184.0</ele><time>2026-03-29T13:20:29.751Z</time></trkpt><trkpt lat="46.239168" lon="13.0324331"><ele>186.25</ele><time>2026-03-29T13:20:30.714Z</time></trkpt><trkpt lat="46.2390415" lon="13.0323428"><ele>188.5</ele><time>2026-03-29T13:20:31.726Z</time></trkpt><trkpt lat="46.2389049" lon="13.0322522"><ele>190.75</ele><time>2026-03-29T13:20:32.72Z</time></trkpt><trkpt lat="46.2387682" lon="13.0321638"><ele>193.0</ele><time>2026-03-29T13:20:33.728Z</time></trkpt><trkpt lat="46.2386359" lon="13.0320794"><ele>193.0</ele><time>2026-03-29T13:20:34.728Z</time></trkpt><trkpt lat="46.2385063" lon="13.0319885"><ele>193.0</ele><time>2026-03-29T13:20:35.719Z</time></trkpt><trkpt lat="46.2383801" lon="13.0318891"><ele>193.0</ele><time>2026-03-29T13:20:36.708Z</time></trkpt><trkpt lat="46.2382547" lon="13.0317846"><ele>193.0</ele><time>2026-03-29T13:20:37.717Z</time></trkpt><trkpt lat="46.2381314" lon="13.0316621"><ele>191.66666666666666</ele><time>2026-03-29T13:20:38.729Z</time></trkpt><trkpt lat="46.2380081" lon="13.0315275"><ele>190.33333333333331</ele><time>2026-03-29T13:20:39.711Z</time></trkpt><trkpt lat="46.2378578" lon="13.0314323"><ele>189.0</ele><time>2026-03-29T13:20:40.715Z</time></trkpt><trkpt lat="46.2377013" lon="13.0313228"><ele>189.0</ele><time>2026-03-29T13:20:41.722Z</time></trkpt><trkpt lat="46.2375215" lon="13.0312164"><ele>189.0</ele><time>2026-03-29T13:20:42.718Z</time></trkpt><trkpt lat="46.2373234" lon="13.0311081"><ele>189.0</ele><time>2026-03-29T13:20:43.711Z</time></trkpt><trkpt lat="46.2371201" lon="13.0309947"><ele>187.0</ele><time>2026-03-29T13:20:44.714Z</time></trkpt><trkpt lat="46.2369067" lon="13.0308761"><ele>185.0</ele><time>2026-03-29T13:20:45.729Z</time></trkpt><trkpt lat="46.2366867" lon="13.0307597"><ele>182.5</ele><time>2026-03-29T13:20:46.712Z</time></trkpt><trkpt lat="46.2364689" lon="13.0306384"><ele>180.0</ele><time>2026-03-29T13:20:47.712Z</time></trkpt><trkpt lat="46.2362539" lon="13.0305098"><ele>180.0</ele><time>2026-03-29T13:20:48.705Z</time></trkpt><trkpt lat="46.2360412" lon="13.0303749"><ele>180.0</ele><time>2026-03-29T13:20:49.708Z</time></trkpt><trkpt lat="46.2358349" lon="13.0302255"><ele>176.66666666666666</ele><time>2026-03-29T13:20:50.708Z</time></trkpt><trkpt lat="46.2356332" lon="13.0300826"><ele>173.33333333333331</ele><time>2026-03-29T13:20:51.717Z</time></trkpt><trkpt lat="46.2354416" lon="13.0299445"><ele>170.0</ele><time>2026-03-29T13:20:52.71Z</time></trkpt><trkpt lat="46.2352596" lon="13.0298156"><ele>176.66666666666666</ele><time>2026-03-29T13:20:53.726Z</time></trkpt><trkpt lat="46.2350778" lon="13.0296989"><ele>183.33333333333334</ele><time>2026-03-29T13:20:54.712Z</time></trkpt><trkpt lat="46.2348764" lon="13.029646"><ele>190.0</ele><time>2026-03-29T13:20:55.727Z</time></trkpt><trkpt lat="46.2346693" lon="13.029603"><ele>190.0</ele><time>2026-03-29T13:20:56.73Z</time></trkpt><trkpt lat="46.2344633" lon="13.0295632"><ele>190.0</ele><time>2026-03-29T13:20:57.72Z</time></trkpt><trkpt lat="46.2342687" lon="13.0295194"><ele>190.0</ele><time>2026-03-29T13:20:58.703Z</time></trkpt><trkpt lat="46.2340849" lon="13.0294799"><ele>184.33333333333334</ele><time>2026-03-29T13:20:59.731Z</time></trkpt><trkpt lat="46.2339148" lon="13.0294228"><ele>178.66666666666666</ele><time>2026-03-29T13:21:00.708Z</time></trkpt><trkpt lat="46.2337574" lon="13.0293368"><ele>173.0</ele><time>2026-03-29T13:21:01.705Z</time></trkpt><trkpt lat="46.2336031" lon="13.0292199"><ele>174.0</ele><time>2026-03-29T13:21:02.704Z</time></trkpt><trkpt lat="46.2334501" lon="13.0290488"><ele>175.0</ele><time>2026-03-29T13:21:03.729Z</time></trkpt><trkpt lat="46.2332917" lon="13.028864"><ele>176.0</ele><time>2026-03-29T13:21:04.711Z</time></trkpt><trkpt lat="46.2331313" lon="13.0286893"><ele>176.0</ele><time>2026-03-29T13:21:05.723Z</time></trkpt><trkpt lat="46.2329759" lon="13.0285236"><ele>176.0</ele><time>2026-03-29T13:21:06.722Z</time></trkpt><trkpt lat="46.2328276" lon="13.0283521"><ele>176.0</ele><time>2026-03-29T13:21:07.717Z</time></trkpt><trkpt lat="46.2326751" lon="13.0281913"><ele>174.33333333333331</ele><time>2026-03-29T13:21:08.732Z</time></trkpt><trkpt lat="46.2325234" lon="13.0280275"><ele>172.66666666666666</ele><time>2026-03-29T13:21:09.708Z</time></trkpt><trkpt lat="46.232367" lon="13.0278645"><ele>171.0</ele><time>2026-03-29T13:21:10.707Z</time></trkpt><trkpt lat="46.2322196" lon="13.0276827"><ele>171.0</ele><time>2026-03-29T13:21:11.711Z</time></trkpt><trkpt lat="46.232072" lon="13.0274953"><ele>171.0</ele><time>2026-03-29T13:21:12.699Z</time></trkpt><trkpt lat="46.2319208" lon="13.0273128"><ele>171.0</ele><time>2026-03-29T13:21:13.711Z</time></trkpt><trkpt lat="46.2317614" lon="13.0271415"><ele>168.33333333333334</ele><time>2026-03-29T13:21:14.703Z</time></trkpt><trkpt lat="46.2316053" lon="13.0269594"><ele>165.66666666666669</ele><time>2026-03-29T13:21:15.725Z</time></trkpt><trkpt lat="46.2314567" lon="13.0267754"><ele>163.0</ele><time>2026-03-29T13:21:16.723Z</time></trkpt><trkpt lat="46.2313197" lon="13.0265898"><ele>170.33333333333334</ele><time>2026-03-29T13:21:17.709Z</time></trkpt><trkpt lat="46.2311884" lon="13.0264167"><ele>177.66666666666666</ele><time>2026-03-29T13:21:18.716Z</time></trkpt><trkpt lat="46.2310618" lon="13.0262563"><ele>185.0</ele><time>2026-03-29T13:21:19.723Z</time></trkpt><trkpt lat="46.2309557" lon="13.0260885"><ele>185.0</ele><time>2026-03-29T13:21:20.718Z</time></trkpt><trkpt lat="46.2308457" lon="13.025955"><ele>185.0</ele><time>2026-03-29T13:21:21.71Z</time></trkpt><trkpt lat="46.2307332" lon="13.0258527"><ele>185.0</ele><time>2026-03-29T13:21:22.713Z</time></trkpt><trkpt lat="46.2306047" lon="13.0258041"><ele>185.0</ele><time>2026-03-29T13:21:23.712Z</time></trkpt><trkpt lat="46.2304765" lon="13.0257692"><ele>182.25</ele><time>2026-03-29T13:21:24.724Z</time></trkpt><trkpt lat="46.2303546" lon="13.0257516"><ele>179.5</ele><time>2026-03-29T13:21:25.709Z</time></trkpt><trkpt lat="46.2302346" lon="13.0257345"><ele>176.75</ele><time>2026-03-29T13:21:26.712Z</time></trkpt><trkpt lat="46.2301205" lon="13.0257175"><ele>174.0</ele><time>2026-03-29T13:21:27.72Z</time></trkpt><trkpt lat="46.2300019" lon="13.0257231"><ele>174.0</ele><time>2026-03-29T13:21:28.72Z</time></trkpt><trkpt lat="46.2298929" lon="13.0256959"><ele>174.0</ele><time>2026-03-29T13:21:29.718Z</time></trkpt><trkpt lat="46.2297885" lon="13.0257088"><ele>174.0</ele><time>2026-03-29T13:21:30.717Z</time></trkpt><trkpt lat="46.2296907" lon="13.025713"><ele>174.0</ele><time>2026-03-29T13:21:31.718Z</time></trkpt><trkpt lat="46.2296054" lon="13.0256343"><ele>174.0</ele><time>2026-03-29T13:21:32.721Z</time></trkpt><trkpt lat="46.2294708" lon="13.0255424"><ele>174.39999999999998</ele><time>2026-03-29T13:21:33.724Z</time></trkpt><trkpt lat="46.2294083" lon="13.0254547"><ele>174.8</ele><time>2026-03-29T13:21:34.721Z</time></trkpt><trkpt lat="46.2293411" lon="13.0253522"><ele>175.2</ele><time>2026-03-29T13:21:35.723Z</time></trkpt><trkpt lat="46.2292484" lon="13.0252989"><ele>175.60000000000002</ele><time>2026-03-29T13:21:36.71Z</time></trkpt><trkpt lat="46.2291596" lon="13.0252498"><ele>176.0</ele><time>2026-03-29T13:21:37.714Z</time></trkpt><trkpt lat="46.2290594" lon="13.0252047"><ele>177.8</ele><time>2026-03-29T13:21:38.732Z</time></trkpt><trkpt lat="46.2289605" lon="13.0251598"><ele>179.60000000000002</ele><time>2026-03-29T13:21:39.718Z</time></trkpt><trkpt lat="46.2288579" lon="13.0250969"><ele>181.4</ele><time>2026-03-29T13:21:40.714Z</time></trkpt><trkpt lat="46.2287531" lon="13.0250483"><ele>183.2</ele><time>2026-03-29T13:21:41.711Z</time></trkpt><trkpt lat="46.2286569" lon="13.0250091"><ele>185.0</ele><time>2026-03-29T13:21:42.72Z</time></trkpt><trkpt lat="46.2285471" lon="13.0249812"><ele>183.5</ele><time>2026-03-29T13:21:43.721Z</time></trkpt><trkpt lat="46.2284371" lon="13.0249225"><ele>182.0</ele><time>2026-03-29T13:21:44.719Z</time></trkpt><trkpt lat="46.2283182" lon="13.0248633"><ele>180.5</ele><time>2026-03-29T13:21:45.708Z</time></trkpt><trkpt lat="46.2282298" lon="13.0247657"><ele>179.0</ele><time>2026-03-29T13:21:46.717Z</time></trkpt><trkpt lat="46.2281467" lon="13.0246753"><ele>179.79999999999998</ele><time>2026-03-29T13:21:47.697Z</time></trkpt><trkpt lat="46.2280687" lon="13.0245584"><ele>180.6</ele><time>2026-03-29T13:21:48.708Z</time></trkpt><trkpt lat="46.2280029" lon="13.0244404"><ele>181.4</ele><time>2026-03-29T13:21:49.713Z</time></trkpt><trkpt lat="46.2279077" lon="13.0243541"><ele>182.2</ele><time>2026-03-29T13:21:50.706Z</time></trkpt><trkpt lat="46.2278154" lon="13.0242759"><ele>183.0</ele><time>2026-03-29T13:21:51.714Z</time></trkpt><trkpt lat="46.2277119" lon="13.0242132"><ele>183.0</ele><time>2026-03-29T13:21:52.719Z</time></trkpt><trkpt lat="46.2276006" lon="13.0241609"><ele>183.0</ele><time>2026-03-29T13:21:53.711Z</time></trkpt><trkpt lat="46.2274826" lon="13.0241274"><ele>183.0</ele><time>2026-03-29T13:21:54.711Z</time></trkpt><trkpt lat="46.2273531" lon="13.0241553"><ele>183.0</ele><time>2026-03-29T13:21:55.721Z</time></trkpt><trkpt lat="46.2272392" lon="13.0241546"><ele>181.5</ele><time>2026-03-29T13:21:56.713Z</time></trkpt><trkpt lat="46.2271304" lon="13.0241403"><ele>180.0</ele><time>2026-03-29T13:21:57.725Z</time></trkpt><trkpt lat="46.2270265" lon="13.0240248"><ele>178.5</ele><time>2026-03-29T13:21:58.707Z</time></trkpt><trkpt lat="46.2269288" lon="13.0239111"><ele>177.0</ele><time>2026-03-29T13:21:59.706Z</time></trkpt><trkpt lat="46.2268547" lon="13.0237649"><ele>177.0</ele><time>2026-03-29T13:22:00.708Z</time></trkpt><trkpt lat="46.2267966" lon="13.0235959"><ele>177.0</ele><time>2026-03-29T13:22:01.714Z</time></trkpt><trkpt lat="46.2267203" lon="13.023424"><ele>177.0</ele><time>2026-03-29T13:22:02.707Z</time></trkpt><trkpt lat="46.2266392" lon="13.0232438"><ele>177.0</ele><time>2026-03-29T13:22:03.715Z</time></trkpt><trkpt lat="46.2265562" lon="13.0230712"><ele>174.5</ele><time>2026-03-29T13:22:04.723Z</time></trkpt><trkpt lat="46.2264684" lon="13.0229055"><ele>172.0</ele><time>2026-03-29T13:22:05.716Z</time></trkpt><trkpt lat="46.2263994" lon="13.0227308"><ele>169.5</ele><time>2026-03-29T13:22:06.738Z</time></trkpt><trkpt lat="46.2263553" lon="13.0225585"><ele>167.0</ele><time>2026-03-29T13:22:07.713Z</time></trkpt><trkpt lat="46.2263239" lon="13.02237"><ele>165.75</ele><time>2026-03-29T13:22:08.721Z</time></trkpt><trkpt lat="46.2263049" lon="13.0221717"><ele>164.5</ele><time>2026-03-29T13:22:09.715Z</time></trkpt><trkpt lat="46.226289" lon="13.0219662"><ele>163.25</ele><time>2026-03-29T13:22:10.716Z</time></trkpt><trkpt lat="46.2262666" lon="13.0217652"><ele>162.0</ele><time>2026-03-29T13:22:11.71Z</time></trkpt><trkpt lat="46.2262713" lon="13.0215685"><ele>161.0</ele><time>2026-03-29T13:22:12.735Z</time></trkpt><trkpt lat="46.2262857" lon="13.0213791"><ele>160.0</ele><time>2026-03-29T13:22:13.73Z</time></trkpt><trkpt lat="46.2263216" lon="13.0211992"><ele>159.0</ele><time>2026-03-29T13:22:14.716Z</time></trkpt><trkpt lat="46.2263617" lon="13.0210207"><ele>158.0</ele><time>2026-03-29T13:22:15.702Z</time></trkpt><trkpt lat="46.2263956" lon="13.0208432"><ele>158.5</ele><time>2026-03-29T13:22:16.707Z</time></trkpt><trkpt lat="46.226421" lon="13.0206683"><ele>159.0</ele><time>2026-03-29T13:22:17.705Z</time></trkpt><trkpt lat="46.2264143" lon="13.0204904"><ele>159.5</ele><time>2026-03-29T13:22:18.719Z</time></trkpt><trkpt lat="46.2263882" lon="13.0203167"><ele>160.0</ele><time>2026-03-29T13:22:19.715Z</time></trkpt><trkpt lat="46.2263456" lon="13.0201496"><ele>160.0</ele><time>2026-03-29T13:22:20.721Z</time></trkpt><trkpt lat="46.2262968" lon="13.0199836"><ele>160.0</ele><time>2026-03-29T13:22:21.709Z</time></trkpt><trkpt lat="46.2262511" lon="13.019812"><ele>160.0</ele><time>2026-03-29T13:22:22.719Z</time></trkpt><trkpt lat="46.2262022" lon="13.0196407"><ele>160.0</ele><time>2026-03-29T13:22:23.711Z</time></trkpt><trkpt lat="46.2261563" lon="13.019469"><ele>159.0</ele><time>2026-03-29T13:22:24.712Z</time></trkpt><trkpt lat="46.2261052" lon="13.0193027"><ele>158.0</ele><time>2026-03-29T13:22:25.724Z</time></trkpt><trkpt lat="46.2260588" lon="13.0191351"><ele>157.0</ele><time>2026-03-29T13:22:26.727Z</time></trkpt><trkpt lat="46.2260115" lon="13.0189724"><ele>156.0</ele><time>2026-03-29T13:22:27.746Z</time></trkpt><trkpt lat="46.2259638" lon="13.0188064"><ele>156.0</ele><time>2026-03-29T13:22:28.718Z</time></trkpt><trkpt lat="46.225918" lon="13.0186371"><ele>156.0</ele><time>2026-03-29T13:22:29.711Z</time></trkpt><trkpt lat="46.2258695" lon="13.0184703"><ele>156.0</ele><time>2026-03-29T13:22:30.713Z</time></trkpt><trkpt lat="46.2258185" lon="13.0183026"><ele>156.0</ele><time>2026-03-29T13:22:31.722Z</time></trkpt><trkpt lat="46.2257664" lon="13.0181298"><ele>156.0</ele><time>2026-03-29T13:22:32.72Z</time></trkpt><trkpt lat="46.2257129" lon="13.0179491"><ele>156.0</ele><time>2026-03-29T13:22:33.721Z</time></trkpt><trkpt lat="46.2256653" lon="13.0177573"><ele>156.0</ele><time>2026-03-29T13:22:34.707Z</time></trkpt><trkpt lat="46.225618" lon="13.0175611"><ele>156.0</ele><time>2026-03-29T13:22:35.704Z</time></trkpt><trkpt lat="46.2255749" lon="13.0173674"><ele>156.0</ele><time>2026-03-29T13:22:36.704Z</time></trkpt><trkpt lat="46.2255144" lon="13.0171888"><ele>156.0</ele><time>2026-03-29T13:22:37.713Z</time></trkpt><trkpt lat="46.2254709" lon="13.0169986"><ele>156.0</ele><time>2026-03-29T13:22:38.71Z</time></trkpt><trkpt lat="46.2254307" lon="13.0168107"><ele>156.0</ele><time>2026-03-29T13:22:39.735Z</time></trkpt><trkpt lat="46.2253879" lon="13.0166343"><ele>155.75</ele><time>2026-03-29T13:22:40.713Z</time></trkpt><trkpt lat="46.2253663" lon="13.0164554"><ele>155.5</ele><time>2026-03-29T13:22:41.726Z</time></trkpt><trkpt lat="46.2253955" lon="13.0162794"><ele>155.25</ele><time>2026-03-29T13:22:42.708Z</time></trkpt><trkpt lat="46.2254562" lon="13.0161188"><ele>155.0</ele><time>2026-03-29T13:22:43.728Z</time></trkpt><trkpt lat="46.2255209" lon="13.0159593"><ele>156.25</ele><time>2026-03-29T13:22:44.734Z</time></trkpt><trkpt lat="46.2255869" lon="13.0157903"><ele>157.5</ele><time>2026-03-29T13:22:45.703Z</time></trkpt><trkpt lat="46.2256464" lon="13.0156239"><ele>158.75</ele><time>2026-03-29T13:22:46.711Z</time></trkpt><trkpt lat="46.2257005" lon="13.0154706"><ele>160.0</ele><time>2026-03-29T13:22:47.707Z</time></trkpt><trkpt lat="46.2257456" lon="13.0153332"><ele>159.5</ele><time>2026-03-29T13:22:48.71Z</time></trkpt><trkpt lat="46.2257248" lon="13.015181"><ele>159.0</ele><time>2026-03-29T13:22:49.713Z</time></trkpt><trkpt lat="46.2256812" lon="13.0150254"><ele>158.5</ele><time>2026-03-29T13:22:50.715Z</time></trkpt><trkpt lat="46.2256017" lon="13.0148872"><ele>158.0</ele><time>2026-03-29T13:22:51.727Z</time></trkpt><trkpt lat="46.2255052" lon="13.0147652"><ele>158.0</ele><time>2026-03-29T13:22:52.711Z</time></trkpt><trkpt lat="46.2254026" lon="13.0146396"><ele>158.0</ele><time>2026-03-29T13:22:53.72Z</time></trkpt><trkpt lat="46.2253015" lon="13.0145068"><ele>158.0</ele><time>2026-03-29T13:22:54.719Z</time></trkpt><trkpt lat="46.2252045" lon="13.0143703"><ele>158.0</ele><time>2026-03-29T13:22:55.713Z</time></trkpt><trkpt lat="46.2251086" lon="13.0142356"><ele>158.25</ele><time>2026-03-29T13:22:56.72Z</time></trkpt><trkpt lat="46.2250177" lon="13.0141036"><ele>158.5</ele><time>2026-03-29T13:22:57.71Z</time></trkpt><trkpt lat="46.2249437" lon="13.0139647"><ele>158.75</ele><time>2026-03-29T13:22:58.719Z</time></trkpt><trkpt lat="46.2248989" lon="13.0138092"><ele>159.0</ele><time>2026-03-29T13:22:59.708Z</time></trkpt><trkpt lat="46.2248745" lon="13.0136468"><ele>159.0</ele><time>2026-03-29T13:23:00.709Z</time></trkpt><trkpt lat="46.2248699" lon="13.01346"><ele>159.0</ele><time>2026-03-29T13:23:01.712Z</time></trkpt><trkpt lat="46.2248839" lon="13.0132577"><ele>159.0</ele><time>2026-03-29T13:23:02.713Z</time></trkpt><trkpt lat="46.2248852" lon="13.0130432"><ele>159.0</ele><time>2026-03-29T13:23:03.724Z</time></trkpt><trkpt lat="46.2248619" lon="13.0128157"><ele>159.0</ele><time>2026-03-29T13:23:04.714Z</time></trkpt><trkpt lat="46.22483" lon="13.0125768"><ele>159.0</ele><time>2026-03-29T13:23:05.727Z</time></trkpt><trkpt lat="46.2247888" lon="13.0123365"><ele>159.0</ele><time>2026-03-29T13:23:06.712Z</time></trkpt><trkpt lat="46.2247456" lon="13.0120998"><ele>159.0</ele><time>2026-03-29T13:23:07.715Z</time></trkpt><trkpt lat="46.2247074" lon="13.011872"><ele>159.0</ele><time>2026-03-29T13:23:08.728Z</time></trkpt><trkpt lat="46.2246863" lon="13.0116493"><ele>159.0</ele><time>2026-03-29T13:23:09.714Z</time></trkpt><trkpt lat="46.2246743" lon="13.0114322"><ele>158.75</ele><time>2026-03-29T13:23:10.725Z</time></trkpt><trkpt lat="46.2246665" lon="13.0112228"><ele>158.5</ele><time>2026-03-29T13:23:11.733Z</time></trkpt><trkpt lat="46.2246575" lon="13.0110181"><ele>158.25</ele><time>2026-03-29T13:23:12.712Z</time></trkpt><trkpt lat="46.2246422" lon="13.0108191"><ele>158.0</ele><time>2026-03-29T13:23:13.737Z</time></trkpt><trkpt lat="46.2246112" lon="13.0106222"><ele>159.0</ele><time>2026-03-29T13:23:14.72Z</time></trkpt><trkpt lat="46.2245468" lon="13.0104358"><ele>160.0</ele><time>2026-03-29T13:23:15.706Z</time></trkpt><trkpt lat="46.2244703" lon="13.0102556"><ele>161.0</ele><time>2026-03-29T13:23:16.716Z</time></trkpt><trkpt lat="46.224385" lon="13.0100826"><ele>162.0</ele><time>2026-03-29T13:23:17.72Z</time></trkpt><trkpt lat="46.2242996" lon="13.0099083"><ele>160.75</ele><time>2026-03-29T13:23:18.724Z</time></trkpt><trkpt lat="46.224216" lon="13.0097266"><ele>159.5</ele><time>2026-03-29T13:23:19.715Z</time></trkpt><trkpt lat="46.2241314" lon="13.0095462"><ele>158.25</ele><time>2026-03-29T13:23:20.72Z</time></trkpt><trkpt lat="46.2240469" lon="13.0093743"><ele>157.0</ele><time>2026-03-29T13:23:21.726Z</time></trkpt><trkpt lat="46.2239641" lon="13.0092093"><ele>159.0</ele><time>2026-03-29T13:23:22.728Z</time></trkpt><trkpt lat="46.22388" lon="13.0090594"><ele>161.0</ele><time>2026-03-29T13:23:23.725Z</time></trkpt><trkpt lat="46.2237889" lon="13.0089366"><ele>163.0</ele><time>2026-03-29T13:23:24.707Z</time></trkpt><trkpt lat="46.2236887" lon="13.0088447"><ele>165.0</ele><time>2026-03-29T13:23:25.717Z</time></trkpt><trkpt lat="46.2235889" lon="13.0087985"><ele>165.0</ele><time>2026-03-29T13:23:26.708Z</time></trkpt><trkpt lat="46.2235011" lon="13.0087748"><ele>165.0</ele><time>2026-03-29T13:23:27.706Z</time></trkpt><trkpt lat="46.2234367" lon="13.0087501"><ele>165.0</ele><time>2026-03-29T13:23:28.712Z</time></trkpt><trkpt lat="46.2233421" lon="13.0087162"><ele>165.0</ele><time>2026-03-29T13:23:30.706Z</time></trkpt><trkpt lat="46.2232786" lon="13.0086997"><ele>165.0</ele><time>2026-03-29T13:23:32.738Z</time></trkpt><trkpt lat="46.223204" lon="13.0087711"><ele>165.0</ele><time>2026-03-29T13:23:34.72Z</time></trkpt><trkpt lat="46.2231589" lon="13.0088369"><ele>162.2</ele><time>2026-03-29T13:23:35.719Z</time></trkpt><trkpt lat="46.2230909" lon="13.0089127"><ele>159.4</ele><time>2026-03-29T13:23:36.711Z</time></trkpt><trkpt lat="46.2229945" lon="13.0089715"><ele>156.6</ele><time>2026-03-29T13:23:37.717Z</time></trkpt><trkpt lat="46.2228964" lon="13.0090472"><ele>153.8</ele><time>2026-03-29T13:23:38.718Z</time></trkpt><trkpt lat="46.2227982" lon="13.0091364"><ele>151.0</ele><time>2026-03-29T13:23:39.707Z</time></trkpt><trkpt lat="46.2226967" lon="13.0092303"><ele>151.0</ele><time>2026-03-29T13:23:40.716Z</time></trkpt><trkpt lat="46.2225912" lon="13.0093283"><ele>151.0</ele><time>2026-03-29T13:23:41.705Z</time></trkpt><trkpt lat="46.2224815" lon="13.0094285"><ele>151.0</ele><time>2026-03-29T13:23:42.715Z</time></trkpt><trkpt lat="46.2223678" lon="13.0095325"><ele>151.0</ele><time>2026-03-29T13:23:43.715Z</time></trkpt><trkpt lat="46.2222469" lon="13.0096356"><ele>151.0</ele><time>2026-03-29T13:23:44.713Z</time></trkpt><trkpt lat="46.2221231" lon="13.0097435"><ele>151.0</ele><time>2026-03-29T13:23:45.702Z</time></trkpt><trkpt lat="46.2219959" lon="13.0098506"><ele>151.0</ele><time>2026-03-29T13:23:46.72Z</time></trkpt><trkpt lat="46.2218696" lon="13.0099659"><ele>151.0</ele><time>2026-03-29T13:23:47.711Z</time></trkpt><trkpt lat="46.2217465" lon="13.0100843"><ele>151.0</ele><time>2026-03-29T13:23:48.718Z</time></trkpt><trkpt lat="46.2216284" lon="13.0102025"><ele>151.0</ele><time>2026-03-29T13:23:49.732Z</time></trkpt><trkpt lat="46.2215056" lon="13.0103097"><ele>151.0</ele><time>2026-03-29T13:23:50.709Z</time></trkpt><trkpt lat="46.2213843" lon="13.0104184"><ele>151.0</ele><time>2026-03-29T13:23:51.723Z</time></trkpt><trkpt lat="46.2212699" lon="13.0105284"><ele>151.25</ele><time>2026-03-29T13:23:52.737Z</time></trkpt><trkpt lat="46.2211629" lon="13.0106355"><ele>151.5</ele><time>2026-03-29T13:23:53.735Z</time></trkpt><trkpt lat="46.2210613" lon="13.0107392"><ele>151.75</ele><time>2026-03-29T13:23:54.735Z</time></trkpt><trkpt lat="46.2209649" lon="13.0108414"><ele>152.0</ele><time>2026-03-29T13:23:55.717Z</time></trkpt><trkpt lat="46.2208719" lon="13.0109375"><ele>151.6</ele><time>2026-03-29T13:23:56.709Z</time></trkpt><trkpt lat="46.2207821" lon="13.0110282"><ele>151.2</ele><time>2026-03-29T13:23:57.711Z</time></trkpt><trkpt lat="46.2206964" lon="13.0111112"><ele>150.8</ele><time>2026-03-29T13:23:58.721Z</time></trkpt><trkpt lat="46.2206129" lon="13.0111899"><ele>150.4</ele><time>2026-03-29T13:23:59.73Z</time></trkpt><trkpt lat="46.22053" lon="13.0112709"><ele>150.0</ele><time>2026-03-29T13:24:00.712Z</time></trkpt><trkpt lat="46.2204483" lon="13.011356"><ele>150.0</ele><time>2026-03-29T13:24:01.707Z</time></trkpt><trkpt lat="46.2203788" lon="13.0114719"><ele>150.0</ele><time>2026-03-29T13:24:02.72Z</time></trkpt><trkpt lat="46.2203248" lon="13.0116074"><ele>150.0</ele><time>2026-03-29T13:24:03.713Z</time></trkpt><trkpt lat="46.2202953" lon="13.0117601"><ele>150.0</ele><time>2026-03-29T13:24:04.737Z</time></trkpt><trkpt lat="46.2202852" lon="13.0119267"><ele>150.0</ele><time>2026-03-29T13:24:05.71Z</time></trkpt><trkpt lat="46.2202865" lon="13.0121021"><ele>150.0</ele><time>2026-03-29T13:24:06.695Z</time></trkpt><trkpt lat="46.2202918" lon="13.0122816"><ele>150.0</ele><time>2026-03-29T13:24:07.715Z</time></trkpt><trkpt lat="46.2202954" lon="13.0124625"><ele>150.0</ele><time>2026-03-29T13:24:08.724Z</time></trkpt><trkpt lat="46.2202974" lon="13.0126453"><ele>150.0</ele><time>2026-03-29T13:24:09.711Z</time></trkpt><trkpt lat="46.2203027" lon="13.0128333"><ele>150.0</ele><time>2026-03-29T13:24:10.714Z</time></trkpt><trkpt lat="46.2203" lon="13.0130228"><ele>150.0</ele><time>2026-03-29T13:24:11.714Z</time></trkpt><trkpt lat="46.2202905" lon="13.0132203"><ele>150.0</ele><time>2026-03-29T13:24:12.705Z</time></trkpt><trkpt lat="46.2202766" lon="13.0134193"><ele>150.0</ele><time>2026-03-29T13:24:13.718Z</time></trkpt><trkpt lat="46.2202496" lon="13.01362"><ele>150.33333333333334</ele><time>2026-03-29T13:24:14.711Z</time></trkpt><trkpt lat="46.2202164" lon="13.0138322"><ele>150.66666666666669</ele><time>2026-03-29T13:24:15.709Z</time></trkpt><trkpt lat="46.2201656" lon="13.0140573"><ele>151.0</ele><time>2026-03-29T13:24:16.717Z</time></trkpt><trkpt lat="46.2201024" lon="13.0142923"><ele>151.33333333333334</ele><time>2026-03-29T13:24:17.717Z</time></trkpt><trkpt lat="46.2200314" lon="13.0145363"><ele>151.66666666666666</ele><time>2026-03-29T13:24:18.725Z</time></trkpt><trkpt lat="46.2199542" lon="13.0147868"><ele>152.0</ele><time>2026-03-29T13:24:19.725Z</time></trkpt><trkpt lat="46.2198725" lon="13.0150443"><ele>152.0</ele><time>2026-03-29T13:24:20.713Z</time></trkpt><trkpt lat="46.2197891" lon="13.0153101"><ele>152.0</ele><time>2026-03-29T13:24:21.719Z</time></trkpt><trkpt lat="46.2196979" lon="13.0155784"><ele>152.0</ele><time>2026-03-29T13:24:22.721Z</time></trkpt><trkpt lat="46.2196003" lon="13.0158479"><ele>152.0</ele><time>2026-03-29T13:24:23.714Z</time></trkpt><trkpt lat="46.2194969" lon="13.0161148"><ele>152.0</ele><time>2026-03-29T13:24:24.715Z</time></trkpt><trkpt lat="46.2193869" lon="13.0163745"><ele>152.0</ele><time>2026-03-29T13:24:25.712Z</time></trkpt><trkpt lat="46.2192745" lon="13.016633"><ele>152.33333333333331</ele><time>2026-03-29T13:24:26.732Z</time></trkpt><trkpt lat="46.2191569" lon="13.0168786"><ele>152.66666666666666</ele><time>2026-03-29T13:24:27.716Z</time></trkpt><trkpt lat="46.2190406" lon="13.0171212"><ele>153.0</ele><time>2026-03-29T13:24:28.738Z</time></trkpt><trkpt lat="46.218921" lon="13.0173549"><ele>153.66666666666666</ele><time>2026-03-29T13:24:29.723Z</time></trkpt><trkpt lat="46.2187993" lon="13.0175824"><ele>154.33333333333331</ele><time>2026-03-29T13:24:30.712Z</time></trkpt><trkpt lat="46.2186782" lon="13.0178041"><ele>155.0</ele><time>2026-03-29T13:24:31.715Z</time></trkpt><trkpt lat="46.2185556" lon="13.0180182"><ele>155.0</ele><time>2026-03-29T13:24:32.706Z</time></trkpt><trkpt lat="46.218429" lon="13.0182196"><ele>155.0</ele><time>2026-03-29T13:24:33.708Z</time></trkpt><trkpt lat="46.2183048" lon="13.01842"><ele>155.0</ele><time>2026-03-29T13:24:34.712Z</time></trkpt><trkpt lat="46.2181802" lon="13.0186163"><ele>154.0</ele><time>2026-03-29T13:24:35.716Z</time></trkpt><trkpt lat="46.2180561" lon="13.0188087"><ele>153.0</ele><time>2026-03-29T13:24:36.724Z</time></trkpt><trkpt lat="46.2179332" lon="13.0189978"><ele>152.0</ele><time>2026-03-29T13:24:37.711Z</time></trkpt><trkpt lat="46.2178122" lon="13.019186"><ele>152.0</ele><time>2026-03-29T13:24:38.714Z</time></trkpt><trkpt lat="46.2176886" lon="13.0193711"><ele>152.0</ele><time>2026-03-29T13:24:39.72Z</time></trkpt><trkpt lat="46.2175646" lon="13.0195539"><ele>152.0</ele><time>2026-03-29T13:24:40.718Z</time></trkpt><trkpt lat="46.2174444" lon="13.019734"><ele>152.0</ele><time>2026-03-29T13:24:41.708Z</time></trkpt><trkpt lat="46.2173284" lon="13.0199088"><ele>152.0</ele><time>2026-03-29T13:24:42.71Z</time></trkpt><trkpt lat="46.2172161" lon="13.0200796"><ele>152.0</ele><time>2026-03-29T13:24:43.715Z</time></trkpt><trkpt lat="46.2171059" lon="13.0202464"><ele>152.0</ele><time>2026-03-29T13:24:44.718Z</time></trkpt><trkpt lat="46.2169994" lon="13.0204188"><ele>152.0</ele><time>2026-03-29T13:24:45.713Z</time></trkpt><trkpt lat="46.2168865" lon="13.0205813"><ele>152.0</ele><time>2026-03-29T13:24:46.713Z</time></trkpt><trkpt lat="46.2167767" lon="13.020752"><ele>152.33333333333331</ele><time>2026-03-29T13:24:47.708Z</time></trkpt><trkpt lat="46.2166665" lon="13.0209213"><ele>152.66666666666666</ele><time>2026-03-29T13:24:48.709Z</time></trkpt><trkpt lat="46.2165549" lon="13.0210921"><ele>153.0</ele><time>2026-03-29T13:24:49.71Z</time></trkpt><trkpt lat="46.216438" lon="13.0212644"><ele>153.0</ele><time>2026-03-29T13:24:50.703Z</time></trkpt><trkpt lat="46.2163145" lon="13.0214317"><ele>153.0</ele><time>2026-03-29T13:24:51.702Z</time></trkpt><trkpt lat="46.2161921" lon="13.0216065"><ele>153.0</ele><time>2026-03-29T13:24:52.709Z</time></trkpt><trkpt lat="46.2160642" lon="13.0217815"><ele>153.66666666666666</ele><time>2026-03-29T13:24:53.713Z</time></trkpt><trkpt lat="46.2159348" lon="13.0219569"><ele>154.33333333333331</ele><time>2026-03-29T13:24:54.72Z</time></trkpt><trkpt lat="46.2157954" lon="13.0221229"><ele>155.0</ele><time>2026-03-29T13:24:55.715Z</time></trkpt><trkpt lat="46.215649" lon="13.0222829"><ele>155.0</ele><time>2026-03-29T13:24:56.712Z</time></trkpt><trkpt lat="46.2154971" lon="13.022436"><ele>155.0</ele><time>2026-03-29T13:24:57.719Z</time></trkpt><trkpt lat="46.2153416" lon="13.0225849"><ele>155.0</ele><time>2026-03-29T13:24:58.719Z</time></trkpt><trkpt lat="46.2151785" lon="13.0227219"><ele>156.0</ele><time>2026-03-29T13:24:59.711Z</time></trkpt><trkpt lat="46.2150095" lon="13.0228495"><ele>157.0</ele><time>2026-03-29T13:25:00.714Z</time></trkpt><trkpt lat="46.214836" lon="13.0229684"><ele>158.0</ele><time>2026-03-29T13:25:01.722Z</time></trkpt><trkpt lat="46.2146572" lon="13.0230739"><ele>158.0</ele><time>2026-03-29T13:25:02.71Z</time></trkpt><trkpt lat="46.2144746" lon="13.0231666"><ele>158.0</ele><time>2026-03-29T13:25:03.727Z</time></trkpt><trkpt lat="46.2142941" lon="13.0232652"><ele>158.0</ele><time>2026-03-29T13:25:04.704Z</time></trkpt><trkpt lat="46.2141121" lon="13.0233364"><ele>157.0</ele><time>2026-03-29T13:25:05.718Z</time></trkpt><trkpt lat="46.2139316" lon="13.0233841"><ele>156.0</ele><time>2026-03-29T13:25:06.719Z</time></trkpt><trkpt lat="46.2137558" lon="13.0234324"><ele>155.0</ele><time>2026-03-29T13:25:07.708Z</time></trkpt><trkpt lat="46.2135821" lon="13.0234746"><ele>155.0</ele><time>2026-03-29T13:25:08.714Z</time></trkpt><trkpt lat="46.2134112" lon="13.0235165"><ele>155.0</ele><time>2026-03-29T13:25:09.708Z</time></trkpt><trkpt lat="46.2132421" lon="13.0235574"><ele>155.0</ele><time>2026-03-29T13:25:10.716Z</time></trkpt><trkpt lat="46.2130749" lon="13.0235993"><ele>154.0</ele><time>2026-03-29T13:25:11.731Z</time></trkpt><trkpt lat="46.2129087" lon="13.0236447"><ele>153.0</ele><time>2026-03-29T13:25:12.711Z</time></trkpt><trkpt lat="46.2127449" lon="13.0237117"><ele>152.0</ele><time>2026-03-29T13:25:13.718Z</time></trkpt><trkpt lat="46.2125785" lon="13.0237543"><ele>152.0</ele><time>2026-03-29T13:25:14.709Z</time></trkpt><trkpt lat="46.2124101" lon="13.023786"><ele>152.0</ele><time>2026-03-29T13:25:15.713Z</time></trkpt><trkpt lat="46.2122408" lon="13.0238337"><ele>152.0</ele><time>2026-03-29T13:25:16.706Z</time></trkpt><trkpt lat="46.2120721" lon="13.0238867"><ele>151.66666666666666</ele><time>2026-03-29T13:25:17.712Z</time></trkpt><trkpt lat="46.2118995" lon="13.0239238"><ele>151.33333333333334</ele><time>2026-03-29T13:25:18.729Z</time></trkpt><trkpt lat="46.2117254" lon="13.0239603"><ele>151.0</ele><time>2026-03-29T13:25:19.71Z</time></trkpt><trkpt lat="46.2115487" lon="13.0240076"><ele>153.0</ele><time>2026-03-29T13:25:20.716Z</time></trkpt><trkpt lat="46.2113695" lon="13.0240484"><ele>155.0</ele><time>2026-03-29T13:25:21.725Z</time></trkpt><trkpt lat="46.211191" lon="13.024094"><ele>157.0</ele><time>2026-03-29T13:25:22.708Z</time></trkpt><trkpt lat="46.211013" lon="13.0241396"><ele>158.0</ele><time>2026-03-29T13:25:23.716Z</time></trkpt><trkpt lat="46.2108352" lon="13.0241856"><ele>159.0</ele><time>2026-03-29T13:25:24.71Z</time></trkpt><trkpt lat="46.2106601" lon="13.0242295"><ele>160.0</ele><time>2026-03-29T13:25:25.71Z</time></trkpt><trkpt lat="46.2104907" lon="13.0242831"><ele>160.0</ele><time>2026-03-29T13:25:26.727Z</time></trkpt><trkpt lat="46.2103246" lon="13.0243275"><ele>160.0</ele><time>2026-03-29T13:25:27.704Z</time></trkpt><trkpt lat="46.2101624" lon="13.0243716"><ele>160.0</ele><time>2026-03-29T13:25:28.703Z</time></trkpt><trkpt lat="46.2100062" lon="13.024423"><ele>160.0</ele><time>2026-03-29T13:25:29.71Z</time></trkpt><trkpt lat="46.2098525" lon="13.0244362"><ele>160.0</ele><time>2026-03-29T13:25:30.716Z</time></trkpt><trkpt lat="46.2097052" lon="13.0244394"><ele>160.0</ele><time>2026-03-29T13:25:31.708Z</time></trkpt><trkpt lat="46.2095611" lon="13.0244265"><ele>160.0</ele><time>2026-03-29T13:25:32.716Z</time></trkpt><trkpt lat="46.2094164" lon="13.0244053"><ele>160.0</ele><time>2026-03-29T13:25:33.709Z</time></trkpt><trkpt lat="46.2092699" lon="13.0243779"><ele>160.0</ele><time>2026-03-29T13:25:34.707Z</time></trkpt><trkpt lat="46.2091214" lon="13.0243463"><ele>160.0</ele><time>2026-03-29T13:25:35.715Z</time></trkpt><trkpt lat="46.208971" lon="13.0243341"><ele>160.0</ele><time>2026-03-29T13:25:36.717Z</time></trkpt><trkpt lat="46.2088182" lon="13.0243431"><ele>160.0</ele><time>2026-03-29T13:25:37.72Z</time></trkpt><trkpt lat="46.2086632" lon="13.0243822"><ele>160.0</ele><time>2026-03-29T13:25:38.719Z</time></trkpt><trkpt lat="46.208509" lon="13.0244454"><ele>160.0</ele><time>2026-03-29T13:25:39.709Z</time></trkpt><trkpt lat="46.2083572" lon="13.0245337"><ele>160.0</ele><time>2026-03-29T13:25:40.711Z</time></trkpt><trkpt lat="46.2082088" lon="13.0246367"><ele>160.0</ele><time>2026-03-29T13:25:41.724Z</time></trkpt><trkpt lat="46.2080625" lon="13.0247383"><ele>160.0</ele><time>2026-03-29T13:25:42.716Z</time></trkpt><trkpt lat="46.2079331" lon="13.0248663"><ele>163.0</ele><time>2026-03-29T13:25:43.727Z</time></trkpt><trkpt lat="46.2078281" lon="13.0250281"><ele>166.0</ele><time>2026-03-29T13:25:44.713Z</time></trkpt><trkpt lat="46.2077361" lon="13.0252"><ele>169.0</ele><time>2026-03-29T13:25:45.723Z</time></trkpt><trkpt lat="46.2076625" lon="13.0253868"><ele>169.0</ele><time>2026-03-29T13:25:46.715Z</time></trkpt><trkpt lat="46.2075908" lon="13.0255768"><ele>169.0</ele><time>2026-03-29T13:25:47.71Z</time></trkpt><trkpt lat="46.2075175" lon="13.025767"><ele>169.0</ele><time>2026-03-29T13:25:48.726Z</time></trkpt><trkpt lat="46.2074399" lon="13.0259549"><ele>168.0</ele><time>2026-03-29T13:25:49.713Z</time></trkpt><trkpt lat="46.207348" lon="13.0261326"><ele>167.0</ele><time>2026-03-29T13:25:50.718Z</time></trkpt><trkpt lat="46.2072519" lon="13.0263118"><ele>166.0</ele><time>2026-03-29T13:25:51.723Z</time></trkpt><trkpt lat="46.2071673" lon="13.0265078"><ele>169.0</ele><time>2026-03-29T13:25:52.712Z</time></trkpt><trkpt lat="46.2070667" lon="13.0266957"><ele>172.0</ele><time>2026-03-29T13:25:53.749Z</time></trkpt><trkpt lat="46.2069491" lon="13.0268779"><ele>175.0</ele><time>2026-03-29T13:25:54.727Z</time></trkpt><trkpt lat="46.206821" lon="13.0270498"><ele>175.0</ele><time>2026-03-29T13:25:55.707Z</time></trkpt><trkpt lat="46.2066882" lon="13.0272029"><ele>175.0</ele><time>2026-03-29T13:25:56.729Z</time></trkpt><trkpt lat="46.2065643" lon="13.0273429"><ele>175.0</ele><time>2026-03-29T13:25:57.712Z</time></trkpt><trkpt lat="46.2064578" lon="13.0274791"><ele>175.6</ele><time>2026-03-29T13:25:58.708Z</time></trkpt><trkpt lat="46.2063616" lon="13.0275989"><ele>176.2</ele><time>2026-03-29T13:25:59.706Z</time></trkpt><trkpt lat="46.2062699" lon="13.0276769"><ele>176.8</ele><time>2026-03-29T13:26:00.71Z</time></trkpt><trkpt lat="46.2061846" lon="13.02771"><ele>177.4</ele><time>2026-03-29T13:26:01.722Z</time></trkpt><trkpt lat="46.2061073" lon="13.0276804"><ele>178.0</ele><time>2026-03-29T13:26:02.715Z</time></trkpt><trkpt lat="46.2060351" lon="13.0276268"><ele>178.0</ele><time>2026-03-29T13:26:03.709Z</time></trkpt><trkpt lat="46.205965" lon="13.0275254"><ele>178.0</ele><time>2026-03-29T13:26:04.705Z</time></trkpt><trkpt lat="46.2058866" lon="13.0274133"><ele>178.0</ele><time>2026-03-29T13:26:05.713Z</time></trkpt><trkpt lat="46.2057966" lon="13.027299"><ele>178.0</ele><time>2026-03-29T13:26:06.711Z</time></trkpt><trkpt lat="46.2056951" lon="13.0271807"><ele>179.0</ele><time>2026-03-29T13:26:07.711Z</time></trkpt><trkpt lat="46.205589" lon="13.0270394"><ele>180.0</ele><time>2026-03-29T13:26:08.71Z</time></trkpt><trkpt lat="46.2054727" lon="13.0268984"><ele>181.0</ele><time>2026-03-29T13:26:09.718Z</time></trkpt><trkpt lat="46.2053494" lon="13.0267549"><ele>180.5</ele><time>2026-03-29T13:26:10.703Z</time></trkpt><trkpt lat="46.2052179" lon="13.0266409"><ele>180.0</ele><time>2026-03-29T13:26:11.707Z</time></trkpt><trkpt lat="46.205091" lon="13.0265406"><ele>179.5</ele><time>2026-03-29T13:26:12.7Z</time></trkpt><trkpt lat="46.2049605" lon="13.0264492"><ele>179.0</ele><time>2026-03-29T13:26:13.727Z</time></trkpt><trkpt lat="46.2048251" lon="13.0263664"><ele>178.33333333333331</ele><time>2026-03-29T13:26:14.693Z</time></trkpt><trkpt lat="46.2046824" lon="13.0263067"><ele>177.66666666666666</ele><time>2026-03-29T13:26:15.709Z</time></trkpt><trkpt lat="46.2045368" lon="13.0262376"><ele>177.0</ele><time>2026-03-29T13:26:16.709Z</time></trkpt><trkpt lat="46.2043937" lon="13.0261702"><ele>177.0</ele><time>2026-03-29T13:26:17.734Z</time></trkpt><trkpt lat="46.2042474" lon="13.026147"><ele>177.0</ele><time>2026-03-29T13:26:18.719Z</time></trkpt><trkpt lat="46.2041112" lon="13.0260942"><ele>177.0</ele><time>2026-03-29T13:26:19.74Z</time></trkpt><trkpt lat="46.2039751" lon="13.0260447"><ele>177.0</ele><time>2026-03-29T13:26:20.723Z</time></trkpt><trkpt lat="46.2038405" lon="13.0259946"><ele>177.5</ele><time>2026-03-29T13:26:21.722Z</time></trkpt><trkpt lat="46.2037026" lon="13.0259651"><ele>178.0</ele><time>2026-03-29T13:26:22.717Z</time></trkpt><trkpt lat="46.2035629" lon="13.0259059"><ele>178.5</ele><time>2026-03-29T13:26:23.718Z</time></trkpt><trkpt lat="46.2034167" lon="13.0258459"><ele>179.0</ele><time>2026-03-29T13:26:24.709Z</time></trkpt><trkpt lat="46.2032635" lon="13.0257863"><ele>179.66666666666666</ele><time>2026-03-29T13:26:25.714Z</time></trkpt><trkpt lat="46.2031043" lon="13.0257235"><ele>180.33333333333334</ele><time>2026-03-29T13:26:26.712Z</time></trkpt><trkpt lat="46.2029468" lon="13.0256419"><ele>181.0</ele><time>2026-03-29T13:26:27.72Z</time></trkpt><trkpt lat="46.2027939" lon="13.0255455"><ele>181.0</ele><time>2026-03-29T13:26:28.718Z</time></trkpt><trkpt lat="46.2026424" lon="13.0254471"><ele>181.0</ele><time>2026-03-29T13:26:29.723Z</time></trkpt><trkpt lat="46.2024929" lon="13.0253452"><ele>181.0</ele><time>2026-03-29T13:26:30.715Z</time></trkpt><trkpt lat="46.2023418" lon="13.0252453"><ele>181.66666666666669</ele><time>2026-03-29T13:26:31.728Z</time></trkpt><trkpt lat="46.202188" lon="13.0251459"><ele>182.33333333333334</ele><time>2026-03-29T13:26:32.729Z</time></trkpt><trkpt lat="46.2020338" lon="13.0250444"><ele>183.0</ele><time>2026-03-29T13:26:33.71Z</time></trkpt><trkpt lat="46.2018806" lon="13.0249472"><ele>183.0</ele><time>2026-03-29T13:26:34.719Z</time></trkpt><trkpt lat="46.2017301" lon="13.0248514"><ele>183.0</ele><time>2026-03-29T13:26:35.73Z</time></trkpt><trkpt lat="46.2015804" lon="13.0247564"><ele>183.0</ele><time>2026-03-29T13:26:36.735Z</time></trkpt><trkpt lat="46.2014326" lon="13.024659"><ele>183.0</ele><time>2026-03-29T13:26:37.718Z</time></trkpt><trkpt lat="46.2012857" lon="13.0245678"><ele>183.0</ele><time>2026-03-29T13:26:38.716Z</time></trkpt><trkpt lat="46.2011418" lon="13.0244708"><ele>183.0</ele><time>2026-03-29T13:26:39.699Z</time></trkpt><trkpt lat="46.2009994" lon="13.0243652"><ele>183.0</ele><time>2026-03-29T13:26:40.707Z</time></trkpt><trkpt lat="46.2008554" lon="13.0242602"><ele>183.0</ele><time>2026-03-29T13:26:41.718Z</time></trkpt><trkpt lat="46.2007069" lon="13.0241651"><ele>183.0</ele><time>2026-03-29T13:26:42.712Z</time></trkpt><trkpt lat="46.2005585" lon="13.0240636"><ele>184.0</ele><time>2026-03-29T13:26:43.727Z</time></trkpt><trkpt lat="46.200405" lon="13.0239708"><ele>185.0</ele><time>2026-03-29T13:26:44.772Z</time></trkpt><trkpt lat="46.2002509" lon="13.0238694"><ele>186.0</ele><time>2026-03-29T13:26:45.718Z</time></trkpt><trkpt lat="46.2000971" lon="13.0237641"><ele>186.0</ele><time>2026-03-29T13:26:46.712Z</time></trkpt><trkpt lat="46.1999436" lon="13.0236635"><ele>186.0</ele><time>2026-03-29T13:26:47.712Z</time></trkpt><trkpt lat="46.1997923" lon="13.0235637"><ele>186.0</ele><time>2026-03-29T13:26:48.725Z</time></trkpt><trkpt lat="46.199644" lon="13.0234659"><ele>186.33333333333334</ele><time>2026-03-29T13:26:49.713Z</time></trkpt><trkpt lat="46.1994971" lon="13.0233803"><ele>186.66666666666669</ele><time>2026-03-29T13:26:50.732Z</time></trkpt><trkpt lat="46.1993523" lon="13.0233016"><ele>187.0</ele><time>2026-03-29T13:26:51.721Z</time></trkpt><trkpt lat="46.1992077" lon="13.0232427"><ele>186.33333333333334</ele><time>2026-03-29T13:26:52.726Z</time></trkpt><trkpt lat="46.1990615" lon="13.0232164"><ele>185.66666666666666</ele><time>2026-03-29T13:26:53.712Z</time></trkpt><trkpt lat="46.1989118" lon="13.0232096"><ele>185.0</ele><time>2026-03-29T13:26:54.717Z</time></trkpt><trkpt lat="46.1987585" lon="13.0232271"><ele>185.0</ele><time>2026-03-29T13:26:55.722Z</time></trkpt><trkpt lat="46.1986014" lon="13.0232475"><ele>185.0</ele><time>2026-03-29T13:26:56.736Z</time></trkpt><trkpt lat="46.1984417" lon="13.0232695"><ele>185.0</ele><time>2026-03-29T13:26:57.715Z</time></trkpt><trkpt lat="46.1982823" lon="13.0232796"><ele>185.33333333333331</ele><time>2026-03-29T13:26:58.702Z</time></trkpt><trkpt lat="46.1981215" lon="13.0232613"><ele>185.66666666666666</ele><time>2026-03-29T13:26:59.726Z</time></trkpt><trkpt lat="46.1979595" lon="13.0232223"><ele>186.0</ele><time>2026-03-29T13:27:00.732Z</time></trkpt><trkpt lat="46.197804" lon="13.0231192"><ele>186.0</ele><time>2026-03-29T13:27:01.726Z</time></trkpt><trkpt lat="46.1976565" lon="13.0230253"><ele>186.0</ele><time>2026-03-29T13:27:02.731Z</time></trkpt><trkpt lat="46.1975396" lon="13.0228534"><ele>186.0</ele><time>2026-03-29T13:27:03.71Z</time></trkpt><trkpt lat="46.1974081" lon="13.022706"><ele>185.33333333333334</ele><time>2026-03-29T13:27:04.708Z</time></trkpt><trkpt lat="46.1972759" lon="13.0225422"><ele>184.66666666666669</ele><time>2026-03-29T13:27:05.718Z</time></trkpt><trkpt lat="46.1971467" lon="13.0223642"><ele>184.0</ele><time>2026-03-29T13:27:06.715Z</time></trkpt><trkpt lat="46.1970114" lon="13.0221996"><ele>186.33333333333334</ele><time>2026-03-29T13:27:07.707Z</time></trkpt><trkpt lat="46.1968866" lon="13.0220299"><ele>188.66666666666666</ele><time>2026-03-29T13:27:08.707Z</time></trkpt><trkpt lat="46.1967637" lon="13.0218646"><ele>191.0</ele><time>2026-03-29T13:27:09.713Z</time></trkpt><trkpt lat="46.1966377" lon="13.0217041"><ele>191.66666666666666</ele><time>2026-03-29T13:27:10.716Z</time></trkpt><trkpt lat="46.1965168" lon="13.0215298"><ele>192.33333333333331</ele><time>2026-03-29T13:27:11.715Z</time></trkpt><trkpt lat="46.1963782" lon="13.0213708"><ele>193.0</ele><time>2026-03-29T13:27:12.724Z</time></trkpt><trkpt lat="46.1962413" lon="13.0211955"><ele>193.0</ele><time>2026-03-29T13:27:13.713Z</time></trkpt><trkpt lat="46.1961139" lon="13.0209988"><ele>193.0</ele><time>2026-03-29T13:27:14.708Z</time></trkpt><trkpt lat="46.1959833" lon="13.020804"><ele>193.0</ele><time>2026-03-29T13:27:15.729Z</time></trkpt><trkpt lat="46.1958441" lon="13.0206332"><ele>193.0</ele><time>2026-03-29T13:27:16.713Z</time></trkpt><trkpt lat="46.1956895" lon="13.0205047"><ele>193.0</ele><time>2026-03-29T13:27:17.716Z</time></trkpt><trkpt lat="46.1955292" lon="13.0204133"><ele>193.0</ele><time>2026-03-29T13:27:18.711Z</time></trkpt><trkpt lat="46.1953776" lon="13.0203462"><ele>193.0</ele><time>2026-03-29T13:27:19.73Z</time></trkpt><trkpt lat="46.1952351" lon="13.0202886"><ele>193.0</ele><time>2026-03-29T13:27:20.722Z</time></trkpt><trkpt lat="46.195126" lon="13.0201763"><ele>193.0</ele><time>2026-03-29T13:27:21.715Z</time></trkpt><trkpt lat="46.1950272" lon="13.0200501"><ele>193.0</ele><time>2026-03-29T13:27:22.71Z</time></trkpt><trkpt lat="46.1949471" lon="13.0198866"><ele>193.33333333333331</ele><time>2026-03-29T13:27:23.719Z</time></trkpt><trkpt lat="46.1948934" lon="13.0196856"><ele>193.66666666666669</ele><time>2026-03-29T13:27:24.719Z</time></trkpt><trkpt lat="46.1948612" lon="13.0194557"><ele>194.0</ele><time>2026-03-29T13:27:25.713Z</time></trkpt><trkpt lat="46.1948071" lon="13.0192439"><ele>193.25</ele><time>2026-03-29T13:27:26.713Z</time></trkpt><trkpt lat="46.1947519" lon="13.0190465"><ele>192.5</ele><time>2026-03-29T13:27:27.702Z</time></trkpt><trkpt lat="46.1947156" lon="13.018847"><ele>191.75</ele><time>2026-03-29T13:27:28.713Z</time></trkpt><trkpt lat="46.1946787" lon="13.0186546"><ele>191.0</ele><time>2026-03-29T13:27:29.714Z</time></trkpt><trkpt lat="46.1946402" lon="13.0184712"><ele>191.25</ele><time>2026-03-29T13:27:30.706Z</time></trkpt><trkpt lat="46.1946112" lon="13.0182876"><ele>191.5</ele><time>2026-03-29T13:27:31.719Z</time></trkpt><trkpt lat="46.1945661" lon="13.0181163"><ele>191.75</ele><time>2026-03-29T13:27:32.702Z</time></trkpt><trkpt lat="46.194488" lon="13.0179686"><ele>192.0</ele><time>2026-03-29T13:27:33.728Z</time></trkpt><trkpt lat="46.194382" lon="13.0178652"><ele>192.0</ele><time>2026-03-29T13:27:34.71Z</time></trkpt><trkpt lat="46.1942582" lon="13.0177946"><ele>192.0</ele><time>2026-03-29T13:27:35.707Z</time></trkpt><trkpt lat="46.1941195" lon="13.0177731"><ele>192.0</ele><time>2026-03-29T13:27:36.71Z</time></trkpt><trkpt lat="46.1939692" lon="13.0177905"><ele>192.0</ele><time>2026-03-29T13:27:37.709Z</time></trkpt><trkpt lat="46.1938124" lon="13.0178252"><ele>195.66666666666669</ele><time>2026-03-29T13:27:38.744Z</time></trkpt><trkpt lat="46.1936505" lon="13.017865"><ele>199.33333333333334</ele><time>2026-03-29T13:27:39.708Z</time></trkpt><trkpt lat="46.1934838" lon="13.017901"><ele>203.0</ele><time>2026-03-29T13:27:40.728Z</time></trkpt><trkpt lat="46.1933148" lon="13.0179365"><ele>206.33333333333334</ele><time>2026-03-29T13:27:41.719Z</time></trkpt><trkpt lat="46.1931436" lon="13.0179704"><ele>209.66666666666669</ele><time>2026-03-29T13:27:42.715Z</time></trkpt><trkpt lat="46.1929718" lon="13.0180146"><ele>213.0</ele><time>2026-03-29T13:27:43.737Z</time></trkpt><trkpt lat="46.1927943" lon="13.0180476"><ele>213.0</ele><time>2026-03-29T13:27:44.705Z</time></trkpt><trkpt lat="46.1926144" lon="13.0180843"><ele>213.0</ele><time>2026-03-29T13:27:45.717Z</time></trkpt><trkpt lat="46.1924342" lon="13.0181301"><ele>213.0</ele><time>2026-03-29T13:27:46.727Z</time></trkpt><trkpt lat="46.1922518" lon="13.0181685"><ele>216.0</ele><time>2026-03-29T13:27:47.707Z</time></trkpt><trkpt lat="46.1920657" lon="13.0182018"><ele>219.0</ele><time>2026-03-29T13:27:48.73Z</time></trkpt><trkpt lat="46.1918761" lon="13.0182416"><ele>222.0</ele><time>2026-03-29T13:27:49.705Z</time></trkpt><trkpt lat="46.191684" lon="13.0182891"><ele>215.66666666666669</ele><time>2026-03-29T13:27:50.713Z</time></trkpt><trkpt lat="46.1914898" lon="13.0183465"><ele>209.33333333333334</ele><time>2026-03-29T13:27:51.723Z</time></trkpt><trkpt lat="46.1912939" lon="13.0184068"><ele>203.0</ele><time>2026-03-29T13:27:52.718Z</time></trkpt><trkpt lat="46.1911017" lon="13.0184801"><ele>203.0</ele><time>2026-03-29T13:27:53.706Z</time></trkpt><trkpt lat="46.1909085" lon="13.0185291"><ele>203.0</ele><time>2026-03-29T13:27:54.737Z</time></trkpt><trkpt lat="46.1907214" lon="13.0185895"><ele>203.0</ele><time>2026-03-29T13:27:55.728Z</time></trkpt><trkpt lat="46.1905326" lon="13.0186224"><ele>204.0</ele><time>2026-03-29T13:27:56.774Z</time></trkpt><trkpt lat="46.1903466" lon="13.018663"><ele>205.0</ele><time>2026-03-29T13:27:57.722Z</time></trkpt><trkpt lat="46.1901588" lon="13.0186854"><ele>206.0</ele><time>2026-03-29T13:27:58.717Z</time></trkpt><trkpt lat="46.1899674" lon="13.0187034"><ele>206.33333333333334</ele><time>2026-03-29T13:27:59.727Z</time></trkpt><trkpt lat="46.189779" lon="13.0186761"><ele>206.66666666666669</ele><time>2026-03-29T13:28:00.713Z</time></trkpt><trkpt lat="46.1895922" lon="13.0186549"><ele>207.0</ele><time>2026-03-29T13:28:01.712Z</time></trkpt><trkpt lat="46.1894054" lon="13.0186517"><ele>207.0</ele><time>2026-03-29T13:28:02.718Z</time></trkpt><trkpt lat="46.1892187" lon="13.0186557"><ele>207.0</ele><time>2026-03-29T13:28:03.726Z</time></trkpt><trkpt lat="46.1890351" lon="13.0186665"><ele>207.0</ele><time>2026-03-29T13:28:04.717Z</time></trkpt><trkpt lat="46.1888577" lon="13.0186784"><ele>207.0</ele><time>2026-03-29T13:28:05.718Z</time></trkpt><trkpt lat="46.1886845" lon="13.018698"><ele>207.0</ele><time>2026-03-29T13:28:06.727Z</time></trkpt><trkpt lat="46.1885129" lon="13.0187335"><ele>207.0</ele><time>2026-03-29T13:28:07.716Z</time></trkpt><trkpt lat="46.1883411" lon="13.0187413"><ele>206.66666666666669</ele><time>2026-03-29T13:28:08.712Z</time></trkpt><trkpt lat="46.1881715" lon="13.0187499"><ele>206.33333333333334</ele><time>2026-03-29T13:28:09.718Z</time></trkpt><trkpt lat="46.1880042" lon="13.0187558"><ele>206.0</ele><time>2026-03-29T13:28:10.72Z</time></trkpt><trkpt lat="46.1878396" lon="13.0187638"><ele>206.0</ele><time>2026-03-29T13:28:11.724Z</time></trkpt><trkpt lat="46.1876856" lon="13.0187347"><ele>206.0</ele><time>2026-03-29T13:28:12.711Z</time></trkpt><trkpt lat="46.1875428" lon="13.018668"><ele>206.0</ele><time>2026-03-29T13:28:13.72Z</time></trkpt><trkpt lat="46.1874045" lon="13.0185891"><ele>205.0</ele><time>2026-03-29T13:28:14.727Z</time></trkpt><trkpt lat="46.1872701" lon="13.0185151"><ele>204.0</ele><time>2026-03-29T13:28:15.732Z</time></trkpt><trkpt lat="46.187136" lon="13.0184583"><ele>203.0</ele><time>2026-03-29T13:28:16.724Z</time></trkpt><trkpt lat="46.1870027" lon="13.018401"><ele>202.0</ele><time>2026-03-29T13:28:17.712Z</time></trkpt><trkpt lat="46.1868637" lon="13.0183622"><ele>202.0</ele><time>2026-03-29T13:28:18.726Z</time></trkpt><trkpt lat="46.1867222" lon="13.0183211"><ele>202.0</ele><time>2026-03-29T13:28:19.732Z</time></trkpt><trkpt lat="46.1865811" lon="13.018286"><ele>202.0</ele><time>2026-03-29T13:28:20.718Z</time></trkpt><trkpt lat="46.1864382" lon="13.0182591"><ele>202.0</ele><time>2026-03-29T13:28:21.719Z</time></trkpt><trkpt lat="46.1862928" lon="13.0182444"><ele>205.33333333333331</ele><time>2026-03-29T13:28:22.707Z</time></trkpt><trkpt lat="46.1861427" lon="13.0182376"><ele>208.66666666666669</ele><time>2026-03-29T13:28:23.727Z</time></trkpt><trkpt lat="46.1859839" lon="13.0182579"><ele>212.0</ele><time>2026-03-29T13:28:24.729Z</time></trkpt><trkpt lat="46.1858226" lon="13.0183057"><ele>207.33333333333334</ele><time>2026-03-29T13:28:25.717Z</time></trkpt><trkpt lat="46.1856618" lon="13.0183714"><ele>202.66666666666669</ele><time>2026-03-29T13:28:26.722Z</time></trkpt><trkpt lat="46.1855027" lon="13.0184301"><ele>198.0</ele><time>2026-03-29T13:28:27.708Z</time></trkpt><trkpt lat="46.1853494" lon="13.018509"><ele>198.0</ele><time>2026-03-29T13:28:28.716Z</time></trkpt><trkpt lat="46.1851974" lon="13.0185734"><ele>198.0</ele><time>2026-03-29T13:28:29.717Z</time></trkpt><trkpt lat="46.1850485" lon="13.0186245"><ele>198.0</ele><time>2026-03-29T13:28:30.708Z</time></trkpt><trkpt lat="46.1849039" lon="13.018677"><ele>197.25</ele><time>2026-03-29T13:28:31.71Z</time></trkpt><trkpt lat="46.1847583" lon="13.0187104"><ele>196.5</ele><time>2026-03-29T13:28:32.714Z</time></trkpt><trkpt lat="46.1846142" lon="13.0186974"><ele>195.75</ele><time>2026-03-29T13:28:33.715Z</time></trkpt><trkpt lat="46.1844757" lon="13.0186268"><ele>195.0</ele><time>2026-03-29T13:28:34.71Z</time></trkpt><trkpt lat="46.1843444" lon="13.018538"><ele>195.0</ele><time>2026-03-29T13:28:35.713Z</time></trkpt><trkpt lat="46.1842126" lon="13.0184486"><ele>195.0</ele><time>2026-03-29T13:28:36.719Z</time></trkpt><trkpt lat="46.1840808" lon="13.0183531"><ele>195.0</ele><time>2026-03-29T13:28:37.718Z</time></trkpt><trkpt lat="46.1839497" lon="13.018257"><ele>195.0</ele><time>2026-03-29T13:28:38.726Z</time></trkpt><trkpt lat="46.183822" lon="13.0181699"><ele>194.5</ele><time>2026-03-29T13:28:39.726Z</time></trkpt><trkpt lat="46.1836961" lon="13.018091"><ele>194.0</ele><time>2026-03-29T13:28:40.72Z</time></trkpt><trkpt lat="46.1835725" lon="13.0180232"><ele>193.5</ele><time>2026-03-29T13:28:41.71Z</time></trkpt><trkpt lat="46.1834415" lon="13.0179788"><ele>193.0</ele><time>2026-03-29T13:28:42.712Z</time></trkpt><trkpt lat="46.1833075" lon="13.0179437"><ele>191.75</ele><time>2026-03-29T13:28:43.703Z</time></trkpt><trkpt lat="46.1831709" lon="13.0179152"><ele>190.5</ele><time>2026-03-29T13:28:44.702Z</time></trkpt><trkpt lat="46.1830411" lon="13.0178775"><ele>189.25</ele><time>2026-03-29T13:28:45.712Z</time></trkpt><trkpt lat="46.182916" lon="13.0178419"><ele>188.0</ele><time>2026-03-29T13:28:46.716Z</time></trkpt><trkpt lat="46.1827928" lon="13.017809"><ele>188.0</ele><time>2026-03-29T13:28:47.734Z</time></trkpt><trkpt lat="46.182671" lon="13.0177814"><ele>188.0</ele><time>2026-03-29T13:28:48.718Z</time></trkpt><trkpt lat="46.1825526" lon="13.0177523"><ele>188.0</ele><time>2026-03-29T13:28:49.702Z</time></trkpt><trkpt lat="46.1825526" lon="13.0177523"><ele>188.0</ele><time>2026-03-29T13:28:49.702Z</time></trkpt><trkpt lat="46.1814709" lon="13.0171881"><ele>189.33333333333331</ele><time>2026-03-29T13:28:58.719Z</time></trkpt><trkpt lat="46.1813413" lon="13.0171709"><ele>190.66666666666666</ele><time>2026-03-29T13:28:59.716Z</time></trkpt><trkpt lat="46.1812116" lon="13.0171617"><ele>192.0</ele><time>2026-03-29T13:29:00.721Z</time></trkpt><trkpt lat="46.1804165" lon="13.017367"><ele>192.0</ele><time>2026-03-29T13:29:06.701Z</time></trkpt><trkpt lat="46.1802879" lon="13.0174571"><ele>192.0</ele><time>2026-03-29T13:29:07.742Z</time></trkpt><trkpt lat="46.180161" lon="13.0175303"><ele>192.0</ele><time>2026-03-29T13:29:08.712Z</time></trkpt><trkpt lat="46.1800358" lon="13.0176133"><ele>192.0</ele><time>2026-03-29T13:29:09.699Z</time></trkpt><trkpt lat="46.1799059" lon="13.0176775"><ele>189.75</ele><time>2026-03-29T13:29:10.721Z</time></trkpt><trkpt lat="46.1797783" lon="13.0177477"><ele>187.5</ele><time>2026-03-29T13:29:11.716Z</time></trkpt><trkpt lat="46.1796473" lon="13.017802"><ele>185.25</ele><time>2026-03-29T13:29:12.713Z</time></trkpt><trkpt lat="46.1795103" lon="13.017824"><ele>183.0</ele><time>2026-03-29T13:29:13.721Z</time></trkpt><trkpt lat="46.1793686" lon="13.0178141"><ele>183.0</ele><time>2026-03-29T13:29:14.709Z</time></trkpt><trkpt lat="46.1792194" lon="13.0177897"><ele>183.0</ele><time>2026-03-29T13:29:15.721Z</time></trkpt><trkpt lat="46.1790708" lon="13.0177273"><ele>183.0</ele><time>2026-03-29T13:29:16.714Z</time></trkpt><trkpt lat="46.1789166" lon="13.0176723"><ele>182.33333333333334</ele><time>2026-03-29T13:29:17.73Z</time></trkpt><trkpt lat="46.1787673" lon="13.0175974"><ele>181.66666666666669</ele><time>2026-03-29T13:29:18.71Z</time></trkpt><trkpt lat="46.1786169" lon="13.0175395"><ele>181.0</ele><time>2026-03-29T13:29:19.711Z</time></trkpt><trkpt lat="46.1784683" lon="13.0174925"><ele>181.75</ele><time>2026-03-29T13:29:20.711Z</time></trkpt><trkpt lat="46.1783242" lon="13.0174447"><ele>182.5</ele><time>2026-03-29T13:29:21.711Z</time></trkpt><trkpt lat="46.1781883" lon="13.0173822"><ele>183.25</ele><time>2026-03-29T13:29:22.709Z</time></trkpt><trkpt lat="46.1780611" lon="13.017315"><ele>184.0</ele><time>2026-03-29T13:29:23.711Z</time></trkpt><trkpt lat="46.1779445" lon="13.0172405"><ele>184.0</ele><time>2026-03-29T13:29:24.713Z</time></trkpt><trkpt lat="46.1778444" lon="13.0171496"><ele>184.0</ele><time>2026-03-29T13:29:25.718Z</time></trkpt><trkpt lat="46.1777491" lon="13.017074"><ele>184.0</ele><time>2026-03-29T13:29:26.737Z</time></trkpt><trkpt lat="46.1776619" lon="13.0170039"><ele>184.0</ele><time>2026-03-29T13:29:27.712Z</time></trkpt><trkpt lat="46.1775866" lon="13.0169251"><ele>184.0</ele><time>2026-03-29T13:29:28.712Z</time></trkpt><trkpt lat="46.1775104" lon="13.0168522"><ele>184.0</ele><time>2026-03-29T13:29:29.702Z</time></trkpt><trkpt lat="46.1774264" lon="13.0167737"><ele>184.0</ele><time>2026-03-29T13:29:30.707Z</time></trkpt><trkpt lat="46.1773323" lon="13.0166903"><ele>184.0</ele><time>2026-03-29T13:29:31.693Z</time></trkpt><trkpt lat="46.1772299" lon="13.0166065"><ele>184.0</ele><time>2026-03-29T13:29:32.726Z</time></trkpt><trkpt lat="46.1771195" lon="13.0165308"><ele>184.5</ele><time>2026-03-29T13:29:33.716Z</time></trkpt><trkpt lat="46.1770033" lon="13.016456"><ele>185.0</ele><time>2026-03-29T13:29:34.726Z</time></trkpt><trkpt lat="46.1768851" lon="13.0163848"><ele>185.5</ele><time>2026-03-29T13:29:35.705Z</time></trkpt><trkpt lat="46.1767681" lon="13.0163133"><ele>186.0</ele><time>2026-03-29T13:29:36.701Z</time></trkpt><trkpt lat="46.1766511" lon="13.0162425"><ele>186.0</ele><time>2026-03-29T13:29:37.707Z</time></trkpt><trkpt lat="46.1765331" lon="13.0161651"><ele>186.0</ele><time>2026-03-29T13:29:38.72Z</time></trkpt><trkpt lat="46.1764087" lon="13.0160881"><ele>186.0</ele><time>2026-03-29T13:29:39.722Z</time></trkpt><trkpt lat="46.1762774" lon="13.0160079"><ele>186.0</ele><time>2026-03-29T13:29:40.728Z</time></trkpt><trkpt lat="46.1761407" lon="13.0159196"><ele>186.0</ele><time>2026-03-29T13:29:41.708Z</time></trkpt><trkpt lat="46.1759971" lon="13.0158237"><ele>186.0</ele><time>2026-03-29T13:29:42.728Z</time></trkpt><trkpt lat="46.1758544" lon="13.0157145"><ele>186.0</ele><time>2026-03-29T13:29:43.732Z</time></trkpt><trkpt lat="46.1757047" lon="13.0156192"><ele>185.66666666666666</ele><time>2026-03-29T13:29:44.694Z</time></trkpt><trkpt lat="46.1755602" lon="13.015521"><ele>185.33333333333331</ele><time>2026-03-29T13:29:45.723Z</time></trkpt><trkpt lat="46.1754216" lon="13.015422"><ele>185.0</ele><time>2026-03-29T13:29:46.713Z</time></trkpt><trkpt lat="46.1752871" lon="13.0153262"><ele>185.0</ele><time>2026-03-29T13:29:47.701Z</time></trkpt><trkpt lat="46.1751584" lon="13.0152286"><ele>185.0</ele><time>2026-03-29T13:29:48.723Z</time></trkpt><trkpt lat="46.1750326" lon="13.0151346"><ele>185.0</ele><time>2026-03-29T13:29:49.715Z</time></trkpt><trkpt lat="46.1749119" lon="13.0150407"><ele>185.0</ele><time>2026-03-29T13:29:50.724Z</time></trkpt><trkpt lat="46.1747978" lon="13.0149506"><ele>185.5</ele><time>2026-03-29T13:29:51.712Z</time></trkpt><trkpt lat="46.1746757" lon="13.0148857"><ele>186.0</ele><time>2026-03-29T13:29:52.715Z</time></trkpt><trkpt lat="46.1745454" lon="13.0148301"><ele>186.5</ele><time>2026-03-29T13:29:53.726Z</time></trkpt><trkpt lat="46.1744073" lon="13.0147937"><ele>187.0</ele><time>2026-03-29T13:29:54.711Z</time></trkpt><trkpt lat="46.1742602" lon="13.0147804"><ele>187.0</ele><time>2026-03-29T13:29:55.73Z</time></trkpt><trkpt lat="46.1741108" lon="13.0147764"><ele>187.0</ele><time>2026-03-29T13:29:56.695Z</time></trkpt><trkpt lat="46.1739655" lon="13.0147763"><ele>187.0</ele><time>2026-03-29T13:29:57.707Z</time></trkpt><trkpt lat="46.1738263" lon="13.0147713"><ele>187.0</ele><time>2026-03-29T13:29:58.712Z</time></trkpt><trkpt lat="46.1736927" lon="13.0147653"><ele>187.5</ele><time>2026-03-29T13:29:59.707Z</time></trkpt><trkpt lat="46.1735668" lon="13.0147555"><ele>188.0</ele><time>2026-03-29T13:30:00.712Z</time></trkpt><trkpt lat="46.1734432" lon="13.0147486"><ele>188.5</ele><time>2026-03-29T13:30:01.716Z</time></trkpt><trkpt lat="46.1733162" lon="13.014744"><ele>189.0</ele><time>2026-03-29T13:30:02.718Z</time></trkpt><trkpt lat="46.1731845" lon="13.0147407"><ele>189.75</ele><time>2026-03-29T13:30:03.711Z</time></trkpt><trkpt lat="46.1730483" lon="13.0147362"><ele>190.5</ele><time>2026-03-29T13:30:04.722Z</time></trkpt><trkpt lat="46.1729105" lon="13.0147289"><ele>191.25</ele><time>2026-03-29T13:30:05.718Z</time></trkpt><trkpt lat="46.1727714" lon="13.0147222"><ele>192.0</ele><time>2026-03-29T13:30:06.715Z</time></trkpt><trkpt lat="46.1726286" lon="13.0147158"><ele>192.0</ele><time>2026-03-29T13:30:07.727Z</time></trkpt><trkpt lat="46.172486" lon="13.0147193"><ele>192.0</ele><time>2026-03-29T13:30:08.704Z</time></trkpt><trkpt lat="46.1723485" lon="13.0147185"><ele>192.0</ele><time>2026-03-29T13:30:09.717Z</time></trkpt><trkpt lat="46.1722145" lon="13.0147179"><ele>192.0</ele><time>2026-03-29T13:30:10.718Z</time></trkpt><trkpt lat="46.1720828" lon="13.0147172"><ele>192.25</ele><time>2026-03-29T13:30:11.735Z</time></trkpt><trkpt lat="46.1719547" lon="13.0147085"><ele>192.5</ele><time>2026-03-29T13:30:12.732Z</time></trkpt><trkpt lat="46.1718329" lon="13.0146916"><ele>192.75</ele><time>2026-03-29T13:30:13.713Z</time></trkpt><trkpt lat="46.1717156" lon="13.0146965"><ele>193.0</ele><time>2026-03-29T13:30:14.724Z</time></trkpt><trkpt lat="46.1716015" lon="13.0146829"><ele>193.0</ele><time>2026-03-29T13:30:15.716Z</time></trkpt><trkpt lat="46.1714877" lon="13.0146438"><ele>193.0</ele><time>2026-03-29T13:30:16.73Z</time></trkpt><trkpt lat="46.1713738" lon="13.0145607"><ele>193.0</ele><time>2026-03-29T13:30:17.718Z</time></trkpt><trkpt lat="46.1712512" lon="13.0144866"><ele>193.0</ele><time>2026-03-29T13:30:18.706Z</time></trkpt><trkpt lat="46.1711346" lon="13.0144059"><ele>193.0</ele><time>2026-03-29T13:30:19.712Z</time></trkpt><trkpt lat="46.1710209" lon="13.0143346"><ele>193.0</ele><time>2026-03-29T13:30:20.729Z</time></trkpt><trkpt lat="46.1709078" lon="13.014272"><ele>193.0</ele><time>2026-03-29T13:30:21.725Z</time></trkpt><trkpt lat="46.1708011" lon="13.014206"><ele>193.0</ele><time>2026-03-29T13:30:22.732Z</time></trkpt><trkpt lat="46.1707009" lon="13.0141406"><ele>192.8</ele><time>2026-03-29T13:30:23.72Z</time></trkpt><trkpt lat="46.1706042" lon="13.0140773"><ele>192.60000000000002</ele><time>2026-03-29T13:30:24.715Z</time></trkpt><trkpt lat="46.1705135" lon="13.0140151"><ele>192.39999999999998</ele><time>2026-03-29T13:30:25.715Z</time></trkpt><trkpt lat="46.1704269" lon="13.0139653"><ele>192.2</ele><time>2026-03-29T13:30:26.743Z</time></trkpt><trkpt lat="46.1703409" lon="13.0139351"><ele>192.0</ele><time>2026-03-29T13:30:27.714Z</time></trkpt><trkpt lat="46.1702647" lon="13.0138878"><ele>192.0</ele><time>2026-03-29T13:30:28.712Z</time></trkpt><trkpt lat="46.1701863" lon="13.0138563"><ele>192.0</ele><time>2026-03-29T13:30:29.717Z</time></trkpt><trkpt lat="46.1701175" lon="13.0138048"><ele>192.0</ele><time>2026-03-29T13:30:30.706Z</time></trkpt><trkpt lat="46.1700598" lon="13.0137568"><ele>192.0</ele><time>2026-03-29T13:30:31.73Z</time></trkpt><trkpt lat="46.1699849" lon="13.0136637"><ele>192.0</ele><time>2026-03-29T13:30:33.709Z</time></trkpt><trkpt lat="46.1699202" lon="13.0136345"><ele>192.0</ele><time>2026-03-29T13:30:35.709Z</time></trkpt><trkpt lat="46.1698603" lon="13.0135933"><ele>192.2</ele><time>2026-03-29T13:30:37.715Z</time></trkpt><trkpt lat="46.1697901" lon="13.0135175"><ele>192.39999999999998</ele><time>2026-03-29T13:30:39.702Z</time></trkpt><trkpt lat="46.1696906" lon="13.0133906"><ele>192.60000000000002</ele><time>2026-03-29T13:30:41.699Z</time></trkpt><trkpt lat="46.1696367" lon="13.0132916"><ele>192.8</ele><time>2026-03-29T13:30:42.71Z</time></trkpt><trkpt lat="46.1695773" lon="13.0131676"><ele>193.0</ele><time>2026-03-29T13:30:43.705Z</time></trkpt><trkpt lat="46.1695128" lon="13.0130296"><ele>192.5</ele><time>2026-03-29T13:30:44.711Z</time></trkpt><trkpt lat="46.1694443" lon="13.0128855"><ele>192.0</ele><time>2026-03-29T13:30:45.712Z</time></trkpt><trkpt lat="46.1693711" lon="13.0127347"><ele>191.5</ele><time>2026-03-29T13:30:46.714Z</time></trkpt><trkpt lat="46.1692939" lon="13.0125799"><ele>191.0</ele><time>2026-03-29T13:30:47.72Z</time></trkpt><trkpt lat="46.1692123" lon="13.0124223"><ele>190.75</ele><time>2026-03-29T13:30:48.722Z</time></trkpt><trkpt lat="46.169123" lon="13.0122654"><ele>190.5</ele><time>2026-03-29T13:30:49.723Z</time></trkpt><trkpt lat="46.1690362" lon="13.012104"><ele>190.25</ele><time>2026-03-29T13:30:50.713Z</time></trkpt><trkpt lat="46.168939" lon="13.0119439"><ele>190.0</ele><time>2026-03-29T13:30:51.696Z</time></trkpt><trkpt lat="46.1688239" lon="13.0117918"><ele>190.66666666666669</ele><time>2026-03-29T13:30:52.714Z</time></trkpt><trkpt lat="46.1686946" lon="13.0116471"><ele>191.33333333333334</ele><time>2026-03-29T13:30:53.729Z</time></trkpt><trkpt lat="46.1685633" lon="13.0114955"><ele>192.0</ele><time>2026-03-29T13:30:54.722Z</time></trkpt><trkpt lat="46.1684196" lon="13.0113628"><ele>192.0</ele><time>2026-03-29T13:30:55.719Z</time></trkpt><trkpt lat="46.1682722" lon="13.0112371"><ele>192.0</ele><time>2026-03-29T13:30:56.719Z</time></trkpt><trkpt lat="46.1681256" lon="13.0111138"><ele>192.0</ele><time>2026-03-29T13:30:57.708Z</time></trkpt><trkpt lat="46.1679767" lon="13.0109983"><ele>192.33333333333331</ele><time>2026-03-29T13:30:58.718Z</time></trkpt><trkpt lat="46.1678315" lon="13.0108775"><ele>192.66666666666666</ele><time>2026-03-29T13:30:59.719Z</time></trkpt><trkpt lat="46.1676823" lon="13.0107689"><ele>193.0</ele><time>2026-03-29T13:31:00.713Z</time></trkpt><trkpt lat="46.1675388" lon="13.0106565"><ele>193.0</ele><time>2026-03-29T13:31:01.72Z</time></trkpt><trkpt lat="46.1674019" lon="13.0105434"><ele>193.0</ele><time>2026-03-29T13:31:02.718Z</time></trkpt><trkpt lat="46.1672694" lon="13.0104328"><ele>193.0</ele><time>2026-03-29T13:31:03.704Z</time></trkpt><trkpt lat="46.1671383" lon="13.0103276"><ele>193.5</ele><time>2026-03-29T13:31:04.728Z</time></trkpt><trkpt lat="46.1670066" lon="13.0102282"><ele>194.0</ele><time>2026-03-29T13:31:05.716Z</time></trkpt><trkpt lat="46.1668757" lon="13.0101223"><ele>194.5</ele><time>2026-03-29T13:31:06.724Z</time></trkpt><trkpt lat="46.1667444" lon="13.0100211"><ele>195.0</ele><time>2026-03-29T13:31:07.716Z</time></trkpt><trkpt lat="46.1666127" lon="13.0099231"><ele>195.66666666666669</ele><time>2026-03-29T13:31:08.712Z</time></trkpt><trkpt lat="46.1664836" lon="13.0098091"><ele>196.33333333333334</ele><time>2026-03-29T13:31:09.713Z</time></trkpt><trkpt lat="46.1663481" lon="13.0097021"><ele>197.0</ele><time>2026-03-29T13:31:10.714Z</time></trkpt><trkpt lat="46.1662113" lon="13.0095898"><ele>197.0</ele><time>2026-03-29T13:31:11.714Z</time></trkpt><trkpt lat="46.1660722" lon="13.0094774"><ele>197.0</ele><time>2026-03-29T13:31:12.725Z</time></trkpt><trkpt lat="46.1659334" lon="13.0093671"><ele>197.0</ele><time>2026-03-29T13:31:13.709Z</time></trkpt><trkpt lat="46.1657982" lon="13.0092591"><ele>197.25</ele><time>2026-03-29T13:31:14.717Z</time></trkpt><trkpt lat="46.1656678" lon="13.009155"><ele>197.5</ele><time>2026-03-29T13:31:15.723Z</time></trkpt><trkpt lat="46.1655422" lon="13.0090562"><ele>197.75</ele><time>2026-03-29T13:31:16.718Z</time></trkpt><trkpt lat="46.1654213" lon="13.0089601"><ele>198.0</ele><time>2026-03-29T13:31:17.717Z</time></trkpt><trkpt lat="46.1652997" lon="13.0088675"><ele>198.0</ele><time>2026-03-29T13:31:18.719Z</time></trkpt><trkpt lat="46.1651777" lon="13.0087726"><ele>198.0</ele><time>2026-03-29T13:31:19.712Z</time></trkpt><trkpt lat="46.1650558" lon="13.0086759"><ele>198.0</ele><time>2026-03-29T13:31:20.715Z</time></trkpt><trkpt lat="46.1649331" lon="13.0085765"><ele>198.0</ele><time>2026-03-29T13:31:21.719Z</time></trkpt><trkpt lat="46.1648081" lon="13.0084748"><ele>198.0</ele><time>2026-03-29T13:31:22.711Z</time></trkpt><trkpt lat="46.1646809" lon="13.0083741"><ele>198.0</ele><time>2026-03-29T13:31:23.729Z</time></trkpt><trkpt lat="46.1645555" lon="13.008271"><ele>198.0</ele><time>2026-03-29T13:31:24.738Z</time></trkpt><trkpt lat="46.1644308" lon="13.0081683"><ele>198.0</ele><time>2026-03-29T13:31:25.726Z</time></trkpt><trkpt lat="46.1643051" lon="13.0080627"><ele>198.66666666666669</ele><time>2026-03-29T13:31:26.716Z</time></trkpt><trkpt lat="46.1641801" lon="13.0079461"><ele>199.33333333333334</ele><time>2026-03-29T13:31:27.714Z</time></trkpt><trkpt lat="46.1640577" lon="13.0078199"><ele>200.0</ele><time>2026-03-29T13:31:28.709Z</time></trkpt><trkpt lat="46.1639397" lon="13.0076833"><ele>200.0</ele><time>2026-03-29T13:31:29.702Z</time></trkpt><trkpt lat="46.1638261" lon="13.0075342"><ele>200.0</ele><time>2026-03-29T13:31:30.714Z</time></trkpt><trkpt lat="46.1637097" lon="13.0073829"><ele>200.0</ele><time>2026-03-29T13:31:31.723Z</time></trkpt><trkpt lat="46.1636045" lon="13.0072093"><ele>200.0</ele><time>2026-03-29T13:31:32.723Z</time></trkpt><trkpt lat="46.1635076" lon="13.0070241"><ele>200.0</ele><time>2026-03-29T13:31:33.711Z</time></trkpt><trkpt lat="46.1634184" lon="13.0068347"><ele>200.0</ele><time>2026-03-29T13:31:34.72Z</time></trkpt><trkpt lat="46.1633432" lon="13.0066403"><ele>200.33333333333334</ele><time>2026-03-29T13:31:35.724Z</time></trkpt><trkpt lat="46.1632832" lon="13.0064388"><ele>200.66666666666669</ele><time>2026-03-29T13:31:36.722Z</time></trkpt><trkpt lat="46.163219" lon="13.0062421"><ele>201.0</ele><time>2026-03-29T13:31:37.733Z</time></trkpt><trkpt lat="46.1631517" lon="13.0060492"><ele>201.0</ele><time>2026-03-29T13:31:38.707Z</time></trkpt><trkpt lat="46.1630829" lon="13.0058548"><ele>201.0</ele><time>2026-03-29T13:31:39.708Z</time></trkpt><trkpt lat="46.1630129" lon="13.0056602"><ele>201.0</ele><time>2026-03-29T13:31:40.718Z</time></trkpt><trkpt lat="46.1629424" lon="13.0054681"><ele>201.0</ele><time>2026-03-29T13:31:41.711Z</time></trkpt><trkpt lat="46.1628728" lon="13.0052782"><ele>201.0</ele><time>2026-03-29T13:31:42.724Z</time></trkpt><trkpt lat="46.1628052" lon="13.0050913"><ele>201.0</ele><time>2026-03-29T13:31:43.72Z</time></trkpt><trkpt lat="46.1627418" lon="13.0049136"><ele>201.0</ele><time>2026-03-29T13:31:44.698Z</time></trkpt><trkpt lat="46.1626851" lon="13.0047478"><ele>201.20000000000002</ele><time>2026-03-29T13:31:45.715Z</time></trkpt><trkpt lat="46.1626338" lon="13.0045963"><ele>201.4</ele><time>2026-03-29T13:31:46.703Z</time></trkpt><trkpt lat="46.1625893" lon="13.004466"><ele>201.6</ele><time>2026-03-29T13:31:47.712Z</time></trkpt><trkpt lat="46.1625547" lon="13.0043519"><ele>201.8</ele><time>2026-03-29T13:31:48.724Z</time></trkpt><trkpt lat="46.1625298" lon="13.0042456"><ele>202.0</ele><time>2026-03-29T13:31:49.706Z</time></trkpt><trkpt lat="46.1625287" lon="13.0041336"><ele>202.16666666666666</ele><time>2026-03-29T13:31:50.721Z</time></trkpt><trkpt lat="46.1625419" lon="13.004018"><ele>202.33333333333331</ele><time>2026-03-29T13:31:51.7Z</time></trkpt><trkpt lat="46.1625507" lon="13.0038999"><ele>202.5</ele><time>2026-03-29T13:31:52.726Z</time></trkpt><trkpt lat="46.1625489" lon="13.0037806"><ele>202.66666666666669</ele><time>2026-03-29T13:31:53.707Z</time></trkpt><trkpt lat="46.1624992" lon="13.0036811"><ele>202.83333333333334</ele><time>2026-03-29T13:31:54.714Z</time></trkpt><trkpt lat="46.1624325" lon="13.0036048"><ele>203.0</ele><time>2026-03-29T13:31:55.713Z</time></trkpt><trkpt lat="46.1623466" lon="13.0035709"><ele>203.0</ele><time>2026-03-29T13:31:56.712Z</time></trkpt><trkpt lat="46.1622383" lon="13.0035835"><ele>203.0</ele><time>2026-03-29T13:31:57.713Z</time></trkpt><trkpt lat="46.1621279" lon="13.0035798"><ele>203.0</ele><time>2026-03-29T13:31:58.71Z</time></trkpt><trkpt lat="46.1620126" lon="13.0035385"><ele>203.0</ele><time>2026-03-29T13:31:59.717Z</time></trkpt><trkpt lat="46.1618987" lon="13.0034529"><ele>203.0</ele><time>2026-03-29T13:32:00.73Z</time></trkpt><trkpt lat="46.1617742" lon="13.0033671"><ele>203.0</ele><time>2026-03-29T13:32:01.711Z</time></trkpt><trkpt lat="46.1616373" lon="13.0032848"><ele>203.0</ele><time>2026-03-29T13:32:02.725Z</time></trkpt><trkpt lat="46.1614848" lon="13.0032249"><ele>203.0</ele><time>2026-03-29T13:32:03.709Z</time></trkpt><trkpt lat="46.1613234" lon="13.0031708"><ele>204.0</ele><time>2026-03-29T13:32:04.717Z</time></trkpt><trkpt lat="46.1611517" lon="13.0031162"><ele>205.0</ele><time>2026-03-29T13:32:05.712Z</time></trkpt><trkpt lat="46.1609784" lon="13.0030601"><ele>206.0</ele><time>2026-03-29T13:32:06.709Z</time></trkpt><trkpt lat="46.1608068" lon="13.0030079"><ele>205.33333333333334</ele><time>2026-03-29T13:32:07.712Z</time></trkpt><trkpt lat="46.1606359" lon="13.0029582"><ele>204.66666666666669</ele><time>2026-03-29T13:32:08.709Z</time></trkpt><trkpt lat="46.1604642" lon="13.0029103"><ele>204.0</ele><time>2026-03-29T13:32:09.718Z</time></trkpt><trkpt lat="46.1602935" lon="13.0028646"><ele>204.0</ele><time>2026-03-29T13:32:10.721Z</time></trkpt><trkpt lat="46.1601251" lon="13.0028174"><ele>204.0</ele><time>2026-03-29T13:32:11.729Z</time></trkpt><trkpt lat="46.1599601" lon="13.0027725"><ele>204.0</ele><time>2026-03-29T13:32:12.733Z</time></trkpt><trkpt lat="46.1597977" lon="13.0027393"><ele>202.0</ele><time>2026-03-29T13:32:13.723Z</time></trkpt><trkpt lat="46.1596416" lon="13.0026966"><ele>200.0</ele><time>2026-03-29T13:32:14.712Z</time></trkpt><trkpt lat="46.1594947" lon="13.0026239"><ele>198.0</ele><time>2026-03-29T13:32:15.711Z</time></trkpt><trkpt lat="46.1593518" lon="13.0025545"><ele>198.0</ele><time>2026-03-29T13:32:16.722Z</time></trkpt><trkpt lat="46.1592146" lon="13.0025034"><ele>198.0</ele><time>2026-03-29T13:32:17.731Z</time></trkpt><trkpt lat="46.159083" lon="13.0024234"><ele>198.0</ele><time>2026-03-29T13:32:18.72Z</time></trkpt><trkpt lat="46.1589526" lon="13.0023196"><ele>198.0</ele><time>2026-03-29T13:32:19.74Z</time></trkpt><trkpt lat="46.1588262" lon="13.0021941"><ele>198.0</ele><time>2026-03-29T13:32:20.726Z</time></trkpt><trkpt lat="46.1587063" lon="13.0020402"><ele>198.0</ele><time>2026-03-29T13:32:21.709Z</time></trkpt><trkpt lat="46.1585912" lon="13.0018645"><ele>198.0</ele><time>2026-03-29T13:32:22.706Z</time></trkpt><trkpt lat="46.1584822" lon="13.001668"><ele>198.0</ele><time>2026-03-29T13:32:23.722Z</time></trkpt><trkpt lat="46.1583816" lon="13.0014599"><ele>198.0</ele><time>2026-03-29T13:32:24.707Z</time></trkpt><trkpt lat="46.1582865" lon="13.001252"><ele>198.0</ele><time>2026-03-29T13:32:25.698Z</time></trkpt><trkpt lat="46.1581949" lon="13.0010471"><ele>196.66666666666669</ele><time>2026-03-29T13:32:26.704Z</time></trkpt><trkpt lat="46.1580917" lon="13.0008597"><ele>195.33333333333334</ele><time>2026-03-29T13:32:27.718Z</time></trkpt><trkpt lat="46.1579869" lon="13.0006787"><ele>194.0</ele><time>2026-03-29T13:32:28.705Z</time></trkpt><trkpt lat="46.1578753" lon="13.0005096"><ele>194.0</ele><time>2026-03-29T13:32:29.713Z</time></trkpt><trkpt lat="46.157755" lon="13.0003553"><ele>194.0</ele><time>2026-03-29T13:32:30.715Z</time></trkpt><trkpt lat="46.1576319" lon="13.0002068"><ele>194.0</ele><time>2026-03-29T13:32:31.717Z</time></trkpt><trkpt lat="46.157508" lon="13.0000609"><ele>194.0</ele><time>2026-03-29T13:32:32.704Z</time></trkpt><trkpt lat="46.1573798" lon="12.9999317"><ele>194.0</ele><time>2026-03-29T13:32:33.714Z</time></trkpt><trkpt lat="46.1572464" lon="12.9998203"><ele>194.0</ele><time>2026-03-29T13:32:34.718Z</time></trkpt><trkpt lat="46.1571145" lon="12.9997114"><ele>193.25</ele><time>2026-03-29T13:32:35.708Z</time></trkpt><trkpt lat="46.1569903" lon="12.999592"><ele>192.5</ele><time>2026-03-29T13:32:36.71Z</time></trkpt><trkpt lat="46.1568641" lon="12.9994764"><ele>191.75</ele><time>2026-03-29T13:32:37.725Z</time></trkpt><trkpt lat="46.1567368" lon="12.99936"><ele>191.0</ele><time>2026-03-29T13:32:38.703Z</time></trkpt><trkpt lat="46.1566089" lon="12.9992412"><ele>191.33333333333331</ele><time>2026-03-29T13:32:39.719Z</time></trkpt><trkpt lat="46.156479" lon="12.9991194"><ele>191.66666666666666</ele><time>2026-03-29T13:32:40.711Z</time></trkpt><trkpt lat="46.1563437" lon="12.9989992"><ele>192.0</ele><time>2026-03-29T13:32:41.715Z</time></trkpt><trkpt lat="46.1562067" lon="12.9988728"><ele>192.0</ele><time>2026-03-29T13:32:42.721Z</time></trkpt><trkpt lat="46.1560602" lon="12.9987488"><ele>192.0</ele><time>2026-03-29T13:32:43.719Z</time></trkpt><trkpt lat="46.1559119" lon="12.9986155"><ele>192.0</ele><time>2026-03-29T13:32:44.727Z</time></trkpt><trkpt lat="46.1557579" lon="12.9984853"><ele>192.0</ele><time>2026-03-29T13:32:45.713Z</time></trkpt><trkpt lat="46.155606" lon="12.9983514"><ele>192.0</ele><time>2026-03-29T13:32:46.713Z</time></trkpt><trkpt lat="46.1554578" lon="12.9982193"><ele>192.0</ele><time>2026-03-29T13:32:47.71Z</time></trkpt><trkpt lat="46.1553125" lon="12.9980891"><ele>192.0</ele><time>2026-03-29T13:32:48.708Z</time></trkpt><trkpt lat="46.1551635" lon="12.9979747"><ele>192.0</ele><time>2026-03-29T13:32:49.711Z</time></trkpt><trkpt lat="46.1550139" lon="12.9978675"><ele>192.0</ele><time>2026-03-29T13:32:50.723Z</time></trkpt><trkpt lat="46.1548635" lon="12.9977585"><ele>191.66666666666666</ele><time>2026-03-29T13:32:51.718Z</time></trkpt><trkpt lat="46.1547123" lon="12.9976436"><ele>191.33333333333331</ele><time>2026-03-29T13:32:52.714Z</time></trkpt><trkpt lat="46.1545572" lon="12.9975305"><ele>191.0</ele><time>2026-03-29T13:32:53.711Z</time></trkpt><trkpt lat="46.1543972" lon="12.9974204"><ele>190.33333333333331</ele><time>2026-03-29T13:32:54.715Z</time></trkpt><trkpt lat="46.1542329" lon="12.9973103"><ele>189.66666666666666</ele><time>2026-03-29T13:32:55.729Z</time></trkpt><trkpt lat="46.1540653" lon="12.997203"><ele>189.0</ele><time>2026-03-29T13:32:56.71Z</time></trkpt><trkpt lat="46.1538989" lon="12.9970962"><ele>187.66666666666666</ele><time>2026-03-29T13:32:57.711Z</time></trkpt><trkpt lat="46.1537356" lon="12.9969911"><ele>186.33333333333331</ele><time>2026-03-29T13:32:58.714Z</time></trkpt><trkpt lat="46.1535743" lon="12.9968882"><ele>185.0</ele><time>2026-03-29T13:32:59.714Z</time></trkpt><trkpt lat="46.1534138" lon="12.9967876"><ele>185.0</ele><time>2026-03-29T13:33:00.719Z</time></trkpt><trkpt lat="46.1532537" lon="12.9966868"><ele>185.0</ele><time>2026-03-29T13:33:01.718Z</time></trkpt><trkpt lat="46.1530942" lon="12.9965857"><ele>185.0</ele><time>2026-03-29T13:33:02.72Z</time></trkpt><trkpt lat="46.1529362" lon="12.9964796"><ele>184.33333333333331</ele><time>2026-03-29T13:33:03.714Z</time></trkpt><trkpt lat="46.152778" lon="12.9963741"><ele>183.66666666666666</ele><time>2026-03-29T13:33:04.713Z</time></trkpt><trkpt lat="46.1526211" lon="12.9962666"><ele>183.0</ele><time>2026-03-29T13:33:05.715Z</time></trkpt><trkpt lat="46.1524658" lon="12.9961544"><ele>182.33333333333334</ele><time>2026-03-29T13:33:06.72Z</time></trkpt><trkpt lat="46.1523189" lon="12.9960142"><ele>181.66666666666669</ele><time>2026-03-29T13:33:07.711Z</time></trkpt><trkpt lat="46.1521734" lon="12.9958768"><ele>181.0</ele><time>2026-03-29T13:33:08.717Z</time></trkpt><trkpt lat="46.1520348" lon="12.9957278"><ele>180.66666666666669</ele><time>2026-03-29T13:33:09.724Z</time></trkpt><trkpt lat="46.1518972" lon="12.9955827"><ele>180.33333333333334</ele><time>2026-03-29T13:33:10.708Z</time></trkpt><trkpt lat="46.1517601" lon="12.9954469"><ele>180.0</ele><time>2026-03-29T13:33:11.722Z</time></trkpt><trkpt lat="46.1516307" lon="12.9953134"><ele>179.75</ele><time>2026-03-29T13:33:12.709Z</time></trkpt><trkpt lat="46.1515108" lon="12.9951921"><ele>179.5</ele><time>2026-03-29T13:33:13.709Z</time></trkpt><trkpt lat="46.1514056" lon="12.9950779"><ele>179.25</ele><time>2026-03-29T13:33:14.713Z</time></trkpt><trkpt lat="46.1513117" lon="12.9949685"><ele>179.0</ele><time>2026-03-29T13:33:15.717Z</time></trkpt><trkpt lat="46.1512257" lon="12.9948607"><ele>179.0</ele><time>2026-03-29T13:33:16.719Z</time></trkpt><trkpt lat="46.1511489" lon="12.9947494"><ele>179.0</ele><time>2026-03-29T13:33:17.716Z</time></trkpt><trkpt lat="46.151075" lon="12.9946346"><ele>179.0</ele><time>2026-03-29T13:33:18.725Z</time></trkpt><trkpt lat="46.1510022" lon="12.9945083"><ele>179.0</ele><time>2026-03-29T13:33:19.709Z</time></trkpt><trkpt lat="46.150939" lon="12.9943611"><ele>179.0</ele><time>2026-03-29T13:33:20.717Z</time></trkpt><trkpt lat="46.1508812" lon="12.9942009"><ele>179.0</ele><time>2026-03-29T13:33:21.722Z</time></trkpt><trkpt lat="46.1508259" lon="12.99403"><ele>179.0</ele><time>2026-03-29T13:33:22.715Z</time></trkpt><trkpt lat="46.1507818" lon="12.9938324"><ele>179.0</ele><time>2026-03-29T13:33:23.716Z</time></trkpt><trkpt lat="46.15074" lon="12.993612"><ele>179.0</ele><time>2026-03-29T13:33:24.726Z</time></trkpt><trkpt lat="46.1507038" lon="12.9933788"><ele>179.0</ele><time>2026-03-29T13:33:25.717Z</time></trkpt><trkpt lat="46.1506678" lon="12.9931415"><ele>179.0</ele><time>2026-03-29T13:33:26.709Z</time></trkpt><trkpt lat="46.150616" lon="12.9928949"><ele>179.0</ele><time>2026-03-29T13:33:27.707Z</time></trkpt><trkpt lat="46.150544" lon="12.9926353"><ele>179.0</ele><time>2026-03-29T13:33:28.713Z</time></trkpt><trkpt lat="46.1504622" lon="12.9923636"><ele>179.0</ele><time>2026-03-29T13:33:29.708Z</time></trkpt><trkpt lat="46.1503732" lon="12.992089"><ele>178.66666666666666</ele><time>2026-03-29T13:33:30.706Z</time></trkpt><trkpt lat="46.1502773" lon="12.9918208"><ele>178.33333333333334</ele><time>2026-03-29T13:33:31.728Z</time></trkpt><trkpt lat="46.150178" lon="12.9915577"><ele>178.0</ele><time>2026-03-29T13:33:32.719Z</time></trkpt><trkpt lat="46.1500814" lon="12.9912906"><ele>178.0</ele><time>2026-03-29T13:33:33.709Z</time></trkpt><trkpt lat="46.149994" lon="12.9910128"><ele>178.0</ele><time>2026-03-29T13:33:34.712Z</time></trkpt><trkpt lat="46.1499005" lon="12.9907368"><ele>178.0</ele><time>2026-03-29T13:33:35.715Z</time></trkpt><trkpt lat="46.1498027" lon="12.9904646"><ele>177.0</ele><time>2026-03-29T13:33:36.72Z</time></trkpt><trkpt lat="46.1496905" lon="12.9902072"><ele>176.0</ele><time>2026-03-29T13:33:37.718Z</time></trkpt><trkpt lat="46.1495838" lon="12.9899513"><ele>175.0</ele><time>2026-03-29T13:33:38.711Z</time></trkpt><trkpt lat="46.1494753" lon="12.9896992"><ele>175.0</ele><time>2026-03-29T13:33:39.722Z</time></trkpt><trkpt lat="46.1493626" lon="12.9894461"><ele>175.0</ele><time>2026-03-29T13:33:40.72Z</time></trkpt><trkpt lat="46.1492457" lon="12.9891932"><ele>175.0</ele><time>2026-03-29T13:33:41.727Z</time></trkpt><trkpt lat="46.1491262" lon="12.9889407"><ele>174.0</ele><time>2026-03-29T13:33:42.725Z</time></trkpt><trkpt lat="46.1490033" lon="12.9886876"><ele>173.0</ele><time>2026-03-29T13:33:43.727Z</time></trkpt><trkpt lat="46.148875" lon="12.9884344"><ele>172.0</ele><time>2026-03-29T13:33:44.735Z</time></trkpt><trkpt lat="46.1487424" lon="12.9881828"><ele>172.0</ele><time>2026-03-29T13:33:45.713Z</time></trkpt><trkpt lat="46.1486097" lon="12.9879355"><ele>172.0</ele><time>2026-03-29T13:33:46.723Z</time></trkpt><trkpt lat="46.1484777" lon="12.9876925"><ele>172.0</ele><time>2026-03-29T13:33:47.717Z</time></trkpt><trkpt lat="46.148348" lon="12.9874554"><ele>172.0</ele><time>2026-03-29T13:33:48.737Z</time></trkpt><trkpt lat="46.1482215" lon="12.9872269"><ele>172.0</ele><time>2026-03-29T13:33:49.719Z</time></trkpt><trkpt lat="46.1480975" lon="12.9870011"><ele>172.0</ele><time>2026-03-29T13:33:50.721Z</time></trkpt><trkpt lat="46.1479826" lon="12.9867684"><ele>170.66666666666669</ele><time>2026-03-29T13:33:51.742Z</time></trkpt><trkpt lat="46.1478574" lon="12.9865561"><ele>169.33333333333334</ele><time>2026-03-29T13:33:52.715Z</time></trkpt><trkpt lat="46.147722" lon="12.9863625"><ele>168.0</ele><time>2026-03-29T13:33:53.741Z</time></trkpt><trkpt lat="46.1475698" lon="12.9861924"><ele>168.0</ele><time>2026-03-29T13:33:54.72Z</time></trkpt><trkpt lat="46.147401" lon="12.986049"><ele>168.0</ele><time>2026-03-29T13:33:55.705Z</time></trkpt><trkpt lat="46.1472274" lon="12.9859086"><ele>168.0</ele><time>2026-03-29T13:33:56.718Z</time></trkpt><trkpt lat="46.1470502" lon="12.9857682"><ele>167.0</ele><time>2026-03-29T13:33:57.716Z</time></trkpt><trkpt lat="46.1468721" lon="12.9856246"><ele>166.0</ele><time>2026-03-29T13:33:58.72Z</time></trkpt><trkpt lat="46.1466953" lon="12.985461"><ele>165.0</ele><time>2026-03-29T13:33:59.727Z</time></trkpt><trkpt lat="46.1465178" lon="12.985294"><ele>164.66666666666666</ele><time>2026-03-29T13:34:00.723Z</time></trkpt><trkpt lat="46.1463477" lon="12.9851142"><ele>164.33333333333331</ele><time>2026-03-29T13:34:01.716Z</time></trkpt><trkpt lat="46.146188" lon="12.9849117"><ele>164.0</ele><time>2026-03-29T13:34:02.726Z</time></trkpt><trkpt lat="46.1460431" lon="12.9846901"><ele>164.66666666666666</ele><time>2026-03-29T13:34:03.718Z</time></trkpt><trkpt lat="46.1459185" lon="12.9844461"><ele>165.33333333333334</ele><time>2026-03-29T13:34:04.719Z</time></trkpt><trkpt lat="46.1458127" lon="12.9841892"><ele>166.0</ele><time>2026-03-29T13:34:05.72Z</time></trkpt><trkpt lat="46.1457245" lon="12.983924"><ele>165.66666666666669</ele><time>2026-03-29T13:34:06.728Z</time></trkpt><trkpt lat="46.1456503" lon="12.9836529"><ele>165.33333333333334</ele><time>2026-03-29T13:34:07.72Z</time></trkpt><trkpt lat="46.1455804" lon="12.9833853"><ele>165.0</ele><time>2026-03-29T13:34:08.728Z</time></trkpt><trkpt lat="46.1455183" lon="12.9831193"><ele>165.0</ele><time>2026-03-29T13:34:09.709Z</time></trkpt><trkpt lat="46.1454631" lon="12.9828566"><ele>165.0</ele><time>2026-03-29T13:34:10.71Z</time></trkpt><trkpt lat="46.1454079" lon="12.9825939"><ele>165.0</ele><time>2026-03-29T13:34:11.711Z</time></trkpt><trkpt lat="46.1453491" lon="12.9823301"><ele>165.0</ele><time>2026-03-29T13:34:12.721Z</time></trkpt><trkpt lat="46.1452864" lon="12.982065"><ele>165.0</ele><time>2026-03-29T13:34:13.725Z</time></trkpt><trkpt lat="46.1452203" lon="12.9817987"><ele>165.0</ele><time>2026-03-29T13:34:14.727Z</time></trkpt><trkpt lat="46.1451479" lon="12.9815336"><ele>165.0</ele><time>2026-03-29T13:34:15.712Z</time></trkpt><trkpt lat="46.1450692" lon="12.9812728"><ele>165.0</ele><time>2026-03-29T13:34:16.718Z</time></trkpt><trkpt lat="46.1449849" lon="12.9810161"><ele>165.0</ele><time>2026-03-29T13:34:17.723Z</time></trkpt><trkpt lat="46.144892" lon="12.9807656"><ele>163.66666666666666</ele><time>2026-03-29T13:34:18.711Z</time></trkpt><trkpt lat="46.1447959" lon="12.9805181"><ele>162.33333333333331</ele><time>2026-03-29T13:34:19.722Z</time></trkpt><trkpt lat="46.144697" lon="12.9802737"><ele>161.0</ele><time>2026-03-29T13:34:20.717Z</time></trkpt><trkpt lat="46.1445977" lon="12.9800334"><ele>161.0</ele><time>2026-03-29T13:34:21.704Z</time></trkpt><trkpt lat="46.1444952" lon="12.9798014"><ele>161.0</ele><time>2026-03-29T13:34:22.732Z</time></trkpt><trkpt lat="46.1443923" lon="12.9795797"><ele>161.0</ele><time>2026-03-29T13:34:23.712Z</time></trkpt><trkpt lat="46.1442873" lon="12.9793703"><ele>160.66666666666666</ele><time>2026-03-29T13:34:24.712Z</time></trkpt><trkpt lat="46.1441831" lon="12.9791674"><ele>160.33333333333334</ele><time>2026-03-29T13:34:25.723Z</time></trkpt><trkpt lat="46.1440791" lon="12.9789666"><ele>160.0</ele><time>2026-03-29T13:34:26.709Z</time></trkpt><trkpt lat="46.1439748" lon="12.9787707"><ele>160.0</ele><time>2026-03-29T13:34:27.725Z</time></trkpt><trkpt lat="46.1438733" lon="12.9785783"><ele>160.0</ele><time>2026-03-29T13:34:28.725Z</time></trkpt><trkpt lat="46.1437561" lon="12.9784149"><ele>160.0</ele><time>2026-03-29T13:34:29.702Z</time></trkpt><trkpt lat="46.1436311" lon="12.9782616"><ele>160.0</ele><time>2026-03-29T13:34:30.716Z</time></trkpt><trkpt lat="46.1434953" lon="12.9781256"><ele>160.0</ele><time>2026-03-29T13:34:31.712Z</time></trkpt><trkpt lat="46.1433482" lon="12.9780145"><ele>160.0</ele><time>2026-03-29T13:34:32.723Z</time></trkpt><trkpt lat="46.1432062" lon="12.9779007"><ele>160.33333333333334</ele><time>2026-03-29T13:34:33.719Z</time></trkpt><trkpt lat="46.1430644" lon="12.9777857"><ele>160.66666666666666</ele><time>2026-03-29T13:34:34.703Z</time></trkpt><trkpt lat="46.1429231" lon="12.9776739"><ele>161.0</ele><time>2026-03-29T13:34:35.709Z</time></trkpt><trkpt lat="46.142776" lon="12.9775663"><ele>160.66666666666666</ele><time>2026-03-29T13:34:36.713Z</time></trkpt><trkpt lat="46.1426268" lon="12.9774524"><ele>160.33333333333334</ele><time>2026-03-29T13:34:37.748Z</time></trkpt><trkpt lat="46.1424844" lon="12.9773153"><ele>160.0</ele><time>2026-03-29T13:34:38.712Z</time></trkpt><trkpt lat="46.1423293" lon="12.9771934"><ele>159.33333333333334</ele><time>2026-03-29T13:34:39.722Z</time></trkpt><trkpt lat="46.1421775" lon="12.9770528"><ele>158.66666666666666</ele><time>2026-03-29T13:34:40.734Z</time></trkpt><trkpt lat="46.1420145" lon="12.9769247"><ele>158.0</ele><time>2026-03-29T13:34:41.721Z</time></trkpt><trkpt lat="46.141852" lon="12.9767898"><ele>158.0</ele><time>2026-03-29T13:34:42.731Z</time></trkpt><trkpt lat="46.1416882" lon="12.9766554"><ele>158.0</ele><time>2026-03-29T13:34:43.718Z</time></trkpt><trkpt lat="46.1415208" lon="12.9765246"><ele>158.0</ele><time>2026-03-29T13:34:44.716Z</time></trkpt><trkpt lat="46.1413542" lon="12.9763906"><ele>158.33333333333331</ele><time>2026-03-29T13:34:45.72Z</time></trkpt><trkpt lat="46.1411872" lon="12.9762571"><ele>158.66666666666666</ele><time>2026-03-29T13:34:46.714Z</time></trkpt><trkpt lat="46.1410192" lon="12.9761199"><ele>159.0</ele><time>2026-03-29T13:34:47.72Z</time></trkpt><trkpt lat="46.1408567" lon="12.9759672"><ele>158.0</ele><time>2026-03-29T13:34:48.737Z</time></trkpt><trkpt lat="46.1406934" lon="12.9758224"><ele>157.0</ele><time>2026-03-29T13:34:49.712Z</time></trkpt><trkpt lat="46.1405369" lon="12.9756709"><ele>156.0</ele><time>2026-03-29T13:34:50.724Z</time></trkpt><trkpt lat="46.1403845" lon="12.9755177"><ele>156.0</ele><time>2026-03-29T13:34:51.72Z</time></trkpt><trkpt lat="46.1402292" lon="12.9753718"><ele>156.0</ele><time>2026-03-29T13:34:52.726Z</time></trkpt><trkpt lat="46.1400815" lon="12.9752151"><ele>156.0</ele><time>2026-03-29T13:34:53.711Z</time></trkpt><trkpt lat="46.1399325" lon="12.9750638"><ele>156.0</ele><time>2026-03-29T13:34:54.722Z</time></trkpt><trkpt lat="46.1397809" lon="12.9749147"><ele>156.0</ele><time>2026-03-29T13:34:55.738Z</time></trkpt><trkpt lat="46.1396231" lon="12.9747707"><ele>156.0</ele><time>2026-03-29T13:34:56.713Z</time></trkpt><trkpt lat="46.1394718" lon="12.9746091"><ele>156.0</ele><time>2026-03-29T13:34:57.727Z</time></trkpt><trkpt lat="46.1393103" lon="12.9744612"><ele>156.0</ele><time>2026-03-29T13:34:58.722Z</time></trkpt><trkpt lat="46.1391497" lon="12.9743077"><ele>156.0</ele><time>2026-03-29T13:34:59.724Z</time></trkpt><trkpt lat="46.1389888" lon="12.9741534"><ele>155.0</ele><time>2026-03-29T13:35:00.731Z</time></trkpt><trkpt lat="46.1388296" lon="12.9740007"><ele>154.0</ele><time>2026-03-29T13:35:01.715Z</time></trkpt><trkpt lat="46.1386798" lon="12.9738395"><ele>153.0</ele><time>2026-03-29T13:35:02.723Z</time></trkpt><trkpt lat="46.1385287" lon="12.9736924"><ele>153.0</ele><time>2026-03-29T13:35:03.726Z</time></trkpt><trkpt lat="46.1383784" lon="12.973557"><ele>153.0</ele><time>2026-03-29T13:35:04.732Z</time></trkpt><trkpt lat="46.1382229" lon="12.9734319"><ele>153.0</ele><time>2026-03-29T13:35:05.73Z</time></trkpt><trkpt lat="46.1380635" lon="12.9733118"><ele>153.66666666666666</ele><time>2026-03-29T13:35:06.731Z</time></trkpt><trkpt lat="46.1379013" lon="12.9731958"><ele>154.33333333333331</ele><time>2026-03-29T13:35:07.713Z</time></trkpt><trkpt lat="46.1377354" lon="12.9730883"><ele>155.0</ele><time>2026-03-29T13:35:08.722Z</time></trkpt><trkpt lat="46.1375665" lon="12.9729798"><ele>155.0</ele><time>2026-03-29T13:35:09.728Z</time></trkpt><trkpt lat="46.1373954" lon="12.9728716"><ele>155.0</ele><time>2026-03-29T13:35:10.721Z</time></trkpt><trkpt lat="46.1372224" lon="12.972764"><ele>155.0</ele><time>2026-03-29T13:35:11.732Z</time></trkpt><trkpt lat="46.1370482" lon="12.9726551"><ele>155.0</ele><time>2026-03-29T13:35:12.728Z</time></trkpt><trkpt lat="46.136873" lon="12.972544"><ele>155.0</ele><time>2026-03-29T13:35:13.724Z</time></trkpt><trkpt lat="46.1366966" lon="12.9724317"><ele>155.0</ele><time>2026-03-29T13:35:14.73Z</time></trkpt><trkpt lat="46.1365182" lon="12.9723191"><ele>155.33333333333331</ele><time>2026-03-29T13:35:15.713Z</time></trkpt><trkpt lat="46.1363382" lon="12.9722058"><ele>155.66666666666666</ele><time>2026-03-29T13:35:16.712Z</time></trkpt><trkpt lat="46.1361525" lon="12.9721023"><ele>156.0</ele><time>2026-03-29T13:35:17.722Z</time></trkpt><trkpt lat="46.1359649" lon="12.9719964"><ele>156.0</ele><time>2026-03-29T13:35:18.728Z</time></trkpt><trkpt lat="46.1357789" lon="12.971895"><ele>156.0</ele><time>2026-03-29T13:35:19.71Z</time></trkpt><trkpt lat="46.1355976" lon="12.9717961"><ele>156.0</ele><time>2026-03-29T13:35:20.721Z</time></trkpt><trkpt lat="46.1354228" lon="12.9717026"><ele>155.33333333333334</ele><time>2026-03-29T13:35:21.728Z</time></trkpt><trkpt lat="46.1352552" lon="12.9716126"><ele>154.66666666666669</ele><time>2026-03-29T13:35:22.713Z</time></trkpt><trkpt lat="46.1350929" lon="12.9715219"><ele>154.0</ele><time>2026-03-29T13:35:23.727Z</time></trkpt><trkpt lat="46.1349325" lon="12.9714406"><ele>153.33333333333334</ele><time>2026-03-29T13:35:24.717Z</time></trkpt><trkpt lat="46.1347775" lon="12.9713621"><ele>152.66666666666666</ele><time>2026-03-29T13:35:25.713Z</time></trkpt><trkpt lat="46.1346272" lon="12.9712799"><ele>152.0</ele><time>2026-03-29T13:35:26.725Z</time></trkpt><trkpt lat="46.1344783" lon="12.9712184"><ele>152.0</ele><time>2026-03-29T13:35:27.724Z</time></trkpt><trkpt lat="46.1343342" lon="12.971144"><ele>152.0</ele><time>2026-03-29T13:35:28.712Z</time></trkpt><trkpt lat="46.1341928" lon="12.9710781"><ele>152.0</ele><time>2026-03-29T13:35:29.716Z</time></trkpt><trkpt lat="46.134048" lon="12.9710141"><ele>152.0</ele><time>2026-03-29T13:35:30.717Z</time></trkpt><trkpt lat="46.1339025" lon="12.9709408"><ele>152.0</ele><time>2026-03-29T13:35:31.712Z</time></trkpt><trkpt lat="46.1337517" lon="12.9708759"><ele>152.0</ele><time>2026-03-29T13:35:32.717Z</time></trkpt><trkpt lat="46.1336032" lon="12.9708042"><ele>152.25</ele><time>2026-03-29T13:35:33.722Z</time></trkpt><trkpt lat="46.1334548" lon="12.9707465"><ele>152.5</ele><time>2026-03-29T13:35:34.715Z</time></trkpt><trkpt lat="46.1333143" lon="12.9706823"><ele>152.75</ele><time>2026-03-29T13:35:35.72Z</time></trkpt><trkpt lat="46.1331762" lon="12.9706179"><ele>153.0</ele><time>2026-03-29T13:35:36.701Z</time></trkpt><trkpt lat="46.1330373" lon="12.9705502"><ele>153.0</ele><time>2026-03-29T13:35:37.701Z</time></trkpt><trkpt lat="46.1328907" lon="12.9704967"><ele>153.0</ele><time>2026-03-29T13:35:38.713Z</time></trkpt><trkpt lat="46.1327406" lon="12.9704356"><ele>153.0</ele><time>2026-03-29T13:35:39.722Z</time></trkpt><trkpt lat="46.1325836" lon="12.9703455"><ele>153.0</ele><time>2026-03-29T13:35:40.738Z</time></trkpt><trkpt lat="46.1324189" lon="12.9702493"><ele>153.0</ele><time>2026-03-29T13:35:41.724Z</time></trkpt><trkpt lat="46.1322507" lon="12.9701547"><ele>153.0</ele><time>2026-03-29T13:35:42.727Z</time></trkpt><trkpt lat="46.1320837" lon="12.9700757"><ele>153.0</ele><time>2026-03-29T13:35:43.713Z</time></trkpt><trkpt lat="46.1319285" lon="12.9699621"><ele>153.0</ele><time>2026-03-29T13:35:44.723Z</time></trkpt><trkpt lat="46.1317711" lon="12.969872"><ele>153.0</ele><time>2026-03-29T13:35:45.715Z</time></trkpt><trkpt lat="46.1316172" lon="12.9697759"><ele>151.66666666666666</ele><time>2026-03-29T13:35:46.715Z</time></trkpt><trkpt lat="46.1314663" lon="12.9696711"><ele>150.33333333333331</ele><time>2026-03-29T13:35:47.717Z</time></trkpt><trkpt lat="46.1313117" lon="12.9695799"><ele>149.0</ele><time>2026-03-29T13:35:48.725Z</time></trkpt><trkpt lat="46.1311578" lon="12.9694802"><ele>149.0</ele><time>2026-03-29T13:35:49.723Z</time></trkpt><trkpt lat="46.1310023" lon="12.9693781"><ele>149.0</ele><time>2026-03-29T13:35:50.732Z</time></trkpt><trkpt lat="46.1308449" lon="12.9692753"><ele>149.0</ele><time>2026-03-29T13:35:51.734Z</time></trkpt><trkpt lat="46.1306852" lon="12.9691705"><ele>149.66666666666666</ele><time>2026-03-29T13:35:52.721Z</time></trkpt><trkpt lat="46.1305238" lon="12.9690659"><ele>150.33333333333334</ele><time>2026-03-29T13:35:53.733Z</time></trkpt><trkpt lat="46.1303633" lon="12.9689588"><ele>151.0</ele><time>2026-03-29T13:35:54.705Z</time></trkpt><trkpt lat="46.130203" lon="12.9688547"><ele>151.0</ele><time>2026-03-29T13:35:55.725Z</time></trkpt><trkpt lat="46.1300417" lon="12.9687574"><ele>151.0</ele><time>2026-03-29T13:35:56.724Z</time></trkpt><trkpt lat="46.129882" lon="12.9686554"><ele>151.0</ele><time>2026-03-29T13:35:57.716Z</time></trkpt><trkpt lat="46.1297216" lon="12.9685569"><ele>150.66666666666669</ele><time>2026-03-29T13:35:58.733Z</time></trkpt><trkpt lat="46.1295586" lon="12.968461"><ele>150.33333333333334</ele><time>2026-03-29T13:35:59.73Z</time></trkpt><trkpt lat="46.1293956" lon="12.9683595"><ele>150.0</ele><time>2026-03-29T13:36:00.723Z</time></trkpt><trkpt lat="46.1292308" lon="12.9682634"><ele>150.0</ele><time>2026-03-29T13:36:01.721Z</time></trkpt><trkpt lat="46.1290664" lon="12.9681611"><ele>150.0</ele><time>2026-03-29T13:36:02.72Z</time></trkpt><trkpt lat="46.1289026" lon="12.9680505"><ele>150.0</ele><time>2026-03-29T13:36:03.72Z</time></trkpt><trkpt lat="46.1287352" lon="12.9679458"><ele>150.0</ele><time>2026-03-29T13:36:04.718Z</time></trkpt><trkpt lat="46.1285662" lon="12.9678438"><ele>150.0</ele><time>2026-03-29T13:36:05.714Z</time></trkpt><trkpt lat="46.1283959" lon="12.967743"><ele>150.0</ele><time>2026-03-29T13:36:06.722Z</time></trkpt><trkpt lat="46.1282281" lon="12.9676365"><ele>149.0</ele><time>2026-03-29T13:36:07.713Z</time></trkpt><trkpt lat="46.1280597" lon="12.9675373"><ele>148.0</ele><time>2026-03-29T13:36:08.725Z</time></trkpt><trkpt lat="46.1278912" lon="12.9674392"><ele>147.0</ele><time>2026-03-29T13:36:09.722Z</time></trkpt><trkpt lat="46.1277208" lon="12.9673491"><ele>147.0</ele><time>2026-03-29T13:36:10.735Z</time></trkpt><trkpt lat="46.1275474" lon="12.967265"><ele>147.0</ele><time>2026-03-29T13:36:11.728Z</time></trkpt><trkpt lat="46.1273757" lon="12.9671743"><ele>147.0</ele><time>2026-03-29T13:36:12.72Z</time></trkpt><trkpt lat="46.1272047" lon="12.9670769"><ele>147.66666666666666</ele><time>2026-03-29T13:36:13.713Z</time></trkpt><trkpt lat="46.1270329" lon="12.9669802"><ele>148.33333333333331</ele><time>2026-03-29T13:36:14.721Z</time></trkpt><trkpt lat="46.126864" lon="12.9668739"><ele>149.0</ele><time>2026-03-29T13:36:15.72Z</time></trkpt><trkpt lat="46.1266921" lon="12.9667778"><ele>148.0</ele><time>2026-03-29T13:36:16.699Z</time></trkpt><trkpt lat="46.1265202" lon="12.9666829"><ele>147.0</ele><time>2026-03-29T13:36:17.742Z</time></trkpt><trkpt lat="46.1263487" lon="12.9665865"><ele>146.0</ele><time>2026-03-29T13:36:18.732Z</time></trkpt><trkpt lat="46.126178" lon="12.9664795"><ele>146.0</ele><time>2026-03-29T13:36:19.711Z</time></trkpt><trkpt lat="46.1260055" lon="12.9663727"><ele>146.0</ele><time>2026-03-29T13:36:20.718Z</time></trkpt><trkpt lat="46.1258368" lon="12.9662501"><ele>146.0</ele><time>2026-03-29T13:36:21.725Z</time></trkpt><trkpt lat="46.1256715" lon="12.9661171"><ele>145.33333333333331</ele><time>2026-03-29T13:36:22.724Z</time></trkpt><trkpt lat="46.1255101" lon="12.9659714"><ele>144.66666666666666</ele><time>2026-03-29T13:36:23.716Z</time></trkpt><trkpt lat="46.1253551" lon="12.9658078"><ele>144.0</ele><time>2026-03-29T13:36:24.721Z</time></trkpt><trkpt lat="46.1252007" lon="12.9656385"><ele>144.0</ele><time>2026-03-29T13:36:25.734Z</time></trkpt><trkpt lat="46.1250589" lon="12.9654409"><ele>144.0</ele><time>2026-03-29T13:36:26.736Z</time></trkpt><trkpt lat="46.1249248" lon="12.965226"><ele>144.0</ele><time>2026-03-29T13:36:27.737Z</time></trkpt><trkpt lat="46.1247846" lon="12.9650159"><ele>143.66666666666666</ele><time>2026-03-29T13:36:28.719Z</time></trkpt><trkpt lat="46.124642" lon="12.9648067"><ele>143.33333333333331</ele><time>2026-03-29T13:36:29.717Z</time></trkpt><trkpt lat="46.1244999" lon="12.9646048"><ele>143.0</ele><time>2026-03-29T13:36:30.733Z</time></trkpt><trkpt lat="46.1243623" lon="12.964407"><ele>143.0</ele><time>2026-03-29T13:36:31.714Z</time></trkpt><trkpt lat="46.1242277" lon="12.9642145"><ele>143.0</ele><time>2026-03-29T13:36:32.735Z</time></trkpt><trkpt lat="46.1240945" lon="12.964032"><ele>143.0</ele><time>2026-03-29T13:36:33.733Z</time></trkpt><trkpt lat="46.1239564" lon="12.9638588"><ele>143.66666666666666</ele><time>2026-03-29T13:36:34.724Z</time></trkpt><trkpt lat="46.1238096" lon="12.9637023"><ele>144.33333333333334</ele><time>2026-03-29T13:36:35.742Z</time></trkpt><trkpt lat="46.1236578" lon="12.9635605"><ele>145.0</ele><time>2026-03-29T13:36:36.718Z</time></trkpt><trkpt lat="46.1235054" lon="12.963428"><ele>145.0</ele><time>2026-03-29T13:36:37.725Z</time></trkpt><trkpt lat="46.1233455" lon="12.9633152"><ele>145.0</ele><time>2026-03-29T13:36:38.72Z</time></trkpt><trkpt lat="46.1231826" lon="12.9632102"><ele>145.0</ele><time>2026-03-29T13:36:39.714Z</time></trkpt><trkpt lat="46.1230168" lon="12.9631108"><ele>145.0</ele><time>2026-03-29T13:36:40.732Z</time></trkpt><trkpt lat="46.1228499" lon="12.9630152"><ele>145.0</ele><time>2026-03-29T13:36:41.731Z</time></trkpt><trkpt lat="46.1226821" lon="12.9629133"><ele>145.0</ele><time>2026-03-29T13:36:42.72Z</time></trkpt><trkpt lat="46.1225135" lon="12.9628067"><ele>144.66666666666669</ele><time>2026-03-29T13:36:43.726Z</time></trkpt><trkpt lat="46.1223413" lon="12.9627147"><ele>144.33333333333334</ele><time>2026-03-29T13:36:44.728Z</time></trkpt><trkpt lat="46.1221691" lon="12.9626079"><ele>144.0</ele><time>2026-03-29T13:36:45.731Z</time></trkpt><trkpt lat="46.1219976" lon="12.9625127"><ele>144.0</ele><time>2026-03-29T13:36:46.734Z</time></trkpt><trkpt lat="46.1218322" lon="12.9624208"><ele>144.0</ele><time>2026-03-29T13:36:47.714Z</time></trkpt><trkpt lat="46.1216724" lon="12.9623318"><ele>144.0</ele><time>2026-03-29T13:36:48.707Z</time></trkpt><trkpt lat="46.1215165" lon="12.9622444"><ele>143.33333333333334</ele><time>2026-03-29T13:36:49.712Z</time></trkpt><trkpt lat="46.1213649" lon="12.962157"><ele>142.66666666666669</ele><time>2026-03-29T13:36:50.704Z</time></trkpt><trkpt lat="46.1212183" lon="12.9620698"><ele>142.0</ele><time>2026-03-29T13:36:51.717Z</time></trkpt><trkpt lat="46.121076" lon="12.9619828"><ele>142.0</ele><time>2026-03-29T13:36:52.723Z</time></trkpt><trkpt lat="46.1209341" lon="12.9619018"><ele>142.0</ele><time>2026-03-29T13:36:53.728Z</time></trkpt><trkpt lat="46.1207932" lon="12.9618191"><ele>142.0</ele><time>2026-03-29T13:36:54.716Z</time></trkpt><trkpt lat="46.1206532" lon="12.9617402"><ele>141.5</ele><time>2026-03-29T13:36:55.712Z</time></trkpt><trkpt lat="46.1205149" lon="12.96167"><ele>141.0</ele><time>2026-03-29T13:36:56.712Z</time></trkpt><trkpt lat="46.1203796" lon="12.9616029"><ele>140.5</ele><time>2026-03-29T13:36:57.739Z</time></trkpt><trkpt lat="46.1202495" lon="12.9615307"><ele>140.0</ele><time>2026-03-29T13:36:58.728Z</time></trkpt><trkpt lat="46.1201245" lon="12.9614556"><ele>140.0</ele><time>2026-03-29T13:36:59.719Z</time></trkpt><trkpt lat="46.1200029" lon="12.9613873"><ele>140.0</ele><time>2026-03-29T13:37:00.715Z</time></trkpt><trkpt lat="46.1198906" lon="12.9613193"><ele>140.0</ele><time>2026-03-29T13:37:01.723Z</time></trkpt><trkpt lat="46.1197951" lon="12.961257"><ele>140.0</ele><time>2026-03-29T13:37:02.718Z</time></trkpt><trkpt lat="46.1197158" lon="12.9612006"><ele>140.0</ele><time>2026-03-29T13:37:03.722Z</time></trkpt><trkpt lat="46.1196469" lon="12.9611406"><ele>140.0</ele><time>2026-03-29T13:37:04.717Z</time></trkpt><trkpt lat="46.1195922" lon="12.9610637"><ele>140.0</ele><time>2026-03-29T13:37:05.704Z</time></trkpt><trkpt lat="46.1195434" lon="12.9609865"><ele>140.0</ele><time>2026-03-29T13:37:06.711Z</time></trkpt><trkpt lat="46.1194868" lon="12.9609184"><ele>140.0</ele><time>2026-03-29T13:37:07.718Z</time></trkpt><trkpt lat="46.1193999" lon="12.9608855"><ele>140.0</ele><time>2026-03-29T13:37:08.715Z</time></trkpt><trkpt lat="46.1193024" lon="12.9608699"><ele>140.0</ele><time>2026-03-29T13:37:09.716Z</time></trkpt><trkpt lat="46.1191986" lon="12.9608589"><ele>140.0</ele><time>2026-03-29T13:37:10.707Z</time></trkpt><trkpt lat="46.119084" lon="12.9608071"><ele>140.0</ele><time>2026-03-29T13:37:11.722Z</time></trkpt><trkpt lat="46.1189622" lon="12.9607205"><ele>140.0</ele><time>2026-03-29T13:37:12.708Z</time></trkpt><trkpt lat="46.1188364" lon="12.9606223"><ele>140.0</ele><time>2026-03-29T13:37:13.74Z</time></trkpt><trkpt lat="46.1187089" lon="12.9605145"><ele>139.66666666666666</ele><time>2026-03-29T13:37:14.719Z</time></trkpt><trkpt lat="46.1185781" lon="12.9603989"><ele>139.33333333333334</ele><time>2026-03-29T13:37:15.704Z</time></trkpt><trkpt lat="46.1184419" lon="12.9602908"><ele>139.0</ele><time>2026-03-29T13:37:16.705Z</time></trkpt><trkpt lat="46.1183035" lon="12.9601807"><ele>138.66666666666669</ele><time>2026-03-29T13:37:17.705Z</time></trkpt><trkpt lat="46.1181623" lon="12.9600649"><ele>138.33333333333334</ele><time>2026-03-29T13:37:18.721Z</time></trkpt><trkpt lat="46.118017" lon="12.9599477"><ele>138.0</ele><time>2026-03-29T13:37:19.719Z</time></trkpt><trkpt lat="46.1178701" lon="12.9598229"><ele>138.0</ele><time>2026-03-29T13:37:20.706Z</time></trkpt><trkpt lat="46.1177153" lon="12.9596955"><ele>138.0</ele><time>2026-03-29T13:37:21.725Z</time></trkpt><trkpt lat="46.1175548" lon="12.9595652"><ele>138.0</ele><time>2026-03-29T13:37:22.716Z</time></trkpt><trkpt lat="46.1173903" lon="12.9594364"><ele>138.0</ele><time>2026-03-29T13:37:23.704Z</time></trkpt><trkpt lat="46.1172246" lon="12.959305"><ele>138.0</ele><time>2026-03-29T13:37:24.71Z</time></trkpt><trkpt lat="46.1170599" lon="12.9591709"><ele>138.0</ele><time>2026-03-29T13:37:25.723Z</time></trkpt><trkpt lat="46.1168965" lon="12.9590373"><ele>138.0</ele><time>2026-03-29T13:37:26.721Z</time></trkpt><trkpt lat="46.1167333" lon="12.9589049"><ele>138.0</ele><time>2026-03-29T13:37:27.722Z</time></trkpt><trkpt lat="46.1165693" lon="12.9587758"><ele>138.0</ele><time>2026-03-29T13:37:28.72Z</time></trkpt><trkpt lat="46.1164055" lon="12.9586467"><ele>138.0</ele><time>2026-03-29T13:37:29.711Z</time></trkpt><trkpt lat="46.1162408" lon="12.9585153"><ele>138.0</ele><time>2026-03-29T13:37:30.707Z</time></trkpt><trkpt lat="46.1160715" lon="12.9583918"><ele>138.0</ele><time>2026-03-29T13:37:31.708Z</time></trkpt><trkpt lat="46.1159058" lon="12.9582562"><ele>137.33333333333334</ele><time>2026-03-29T13:37:32.712Z</time></trkpt><trkpt lat="46.1157406" lon="12.9581176"><ele>136.66666666666669</ele><time>2026-03-29T13:37:33.715Z</time></trkpt><trkpt lat="46.1155754" lon="12.9579765"><ele>136.0</ele><time>2026-03-29T13:37:34.711Z</time></trkpt><trkpt lat="46.1154085" lon="12.9578385"><ele>136.0</ele><time>2026-03-29T13:37:35.719Z</time></trkpt><trkpt lat="46.11524" lon="12.9577047"><ele>136.0</ele><time>2026-03-29T13:37:36.708Z</time></trkpt><trkpt lat="46.1150797" lon="12.9575507"><ele>136.0</ele><time>2026-03-29T13:37:37.71Z</time></trkpt><trkpt lat="46.1149136" lon="12.95741"><ele>136.33333333333334</ele><time>2026-03-29T13:37:38.718Z</time></trkpt><trkpt lat="46.114748" lon="12.9572619"><ele>136.66666666666666</ele><time>2026-03-29T13:37:39.713Z</time></trkpt><trkpt lat="46.1145782" lon="12.9571262"><ele>137.0</ele><time>2026-03-29T13:37:40.736Z</time></trkpt><trkpt lat="46.1144093" lon="12.956993"><ele>137.0</ele><time>2026-03-29T13:37:41.724Z</time></trkpt><trkpt lat="46.1142451" lon="12.9568547"><ele>137.0</ele><time>2026-03-29T13:37:42.725Z</time></trkpt><trkpt lat="46.1140788" lon="12.9567297"><ele>137.0</ele><time>2026-03-29T13:37:43.723Z</time></trkpt><trkpt lat="46.1139078" lon="12.9566124"><ele>137.0</ele><time>2026-03-29T13:37:44.711Z</time></trkpt><trkpt lat="46.1137493" lon="12.9564691"><ele>137.0</ele><time>2026-03-29T13:37:45.716Z</time></trkpt><trkpt lat="46.1135892" lon="12.9563345"><ele>137.0</ele><time>2026-03-29T13:37:46.715Z</time></trkpt><trkpt lat="46.1134319" lon="12.9561975"><ele>136.5</ele><time>2026-03-29T13:37:47.713Z</time></trkpt><trkpt lat="46.1131136" lon="12.9559296"><ele>136.0</ele><time>2026-03-29T13:37:49.744Z</time></trkpt><trkpt lat="46.1129527" lon="12.9558033"><ele>136.0</ele><time>2026-03-29T13:37:50.727Z</time></trkpt><trkpt lat="46.1127948" lon="12.9556736"><ele>136.0</ele><time>2026-03-29T13:37:51.716Z</time></trkpt><trkpt lat="46.1126382" lon="12.9555441"><ele>136.0</ele><time>2026-03-29T13:37:52.718Z</time></trkpt><trkpt lat="46.1124815" lon="12.9554157"><ele>135.66666666666669</ele><time>2026-03-29T13:37:53.715Z</time></trkpt><trkpt lat="46.1123233" lon="12.9552894"><ele>135.33333333333334</ele><time>2026-03-29T13:37:54.722Z</time></trkpt><trkpt lat="46.1121629" lon="12.9551594"><ele>135.0</ele><time>2026-03-29T13:37:55.739Z</time></trkpt><trkpt lat="46.1119971" lon="12.9550313"><ele>134.66666666666666</ele><time>2026-03-29T13:37:56.718Z</time></trkpt><trkpt lat="46.1118261" lon="12.9549058"><ele>134.33333333333331</ele><time>2026-03-29T13:37:57.753Z</time></trkpt><trkpt lat="46.1116512" lon="12.9547811"><ele>134.0</ele><time>2026-03-29T13:37:58.719Z</time></trkpt><trkpt lat="46.1114739" lon="12.9546582"><ele>133.33333333333331</ele><time>2026-03-29T13:37:59.724Z</time></trkpt><trkpt lat="46.1112947" lon="12.954532"><ele>132.66666666666666</ele><time>2026-03-29T13:38:00.717Z</time></trkpt><trkpt lat="46.1111104" lon="12.9544199"><ele>132.0</ele><time>2026-03-29T13:38:01.711Z</time></trkpt><trkpt lat="46.1109265" lon="12.9543084"><ele>132.33333333333334</ele><time>2026-03-29T13:38:02.729Z</time></trkpt><trkpt lat="46.11074" lon="12.9542152"><ele>132.66666666666669</ele><time>2026-03-29T13:38:03.716Z</time></trkpt><trkpt lat="46.1105544" lon="12.9541176"><ele>133.0</ele><time>2026-03-29T13:38:04.719Z</time></trkpt><trkpt lat="46.1103669" lon="12.9540236"><ele>132.66666666666669</ele><time>2026-03-29T13:38:05.717Z</time></trkpt><trkpt lat="46.1101755" lon="12.9539348"><ele>132.33333333333334</ele><time>2026-03-29T13:38:06.715Z</time></trkpt><trkpt lat="46.109981" lon="12.9538437"><ele>132.0</ele><time>2026-03-29T13:38:07.732Z</time></trkpt><trkpt lat="46.1097841" lon="12.9537635"><ele>132.0</ele><time>2026-03-29T13:38:08.714Z</time></trkpt><trkpt lat="46.1095869" lon="12.9536868"><ele>132.0</ele><time>2026-03-29T13:38:09.712Z</time></trkpt><trkpt lat="46.1093899" lon="12.9536104"><ele>132.0</ele><time>2026-03-29T13:38:10.728Z</time></trkpt><trkpt lat="46.1091939" lon="12.9535315"><ele>132.0</ele><time>2026-03-29T13:38:11.731Z</time></trkpt><trkpt lat="46.1089996" lon="12.9534533"><ele>132.0</ele><time>2026-03-29T13:38:12.731Z</time></trkpt><trkpt lat="46.1088055" lon="12.9533881"><ele>132.0</ele><time>2026-03-29T13:38:13.733Z</time></trkpt><trkpt lat="46.1086143" lon="12.9533083"><ele>132.0</ele><time>2026-03-29T13:38:14.725Z</time></trkpt><trkpt lat="46.1084236" lon="12.953243"><ele>132.0</ele><time>2026-03-29T13:38:15.713Z</time></trkpt><trkpt lat="46.108234" lon="12.9531747"><ele>132.0</ele><time>2026-03-29T13:38:16.715Z</time></trkpt><trkpt lat="46.1080448" lon="12.9531008"><ele>132.33333333333334</ele><time>2026-03-29T13:38:17.729Z</time></trkpt><trkpt lat="46.1078548" lon="12.9530371"><ele>132.66666666666669</ele><time>2026-03-29T13:38:18.729Z</time></trkpt><trkpt lat="46.1076654" lon="12.9529761"><ele>133.0</ele><time>2026-03-29T13:38:19.721Z</time></trkpt><trkpt lat="46.1074767" lon="12.9529152"><ele>132.33333333333334</ele><time>2026-03-29T13:38:20.73Z</time></trkpt><trkpt lat="46.1072885" lon="12.9528548"><ele>131.66666666666666</ele><time>2026-03-29T13:38:21.711Z</time></trkpt><trkpt lat="46.1070991" lon="12.9527981"><ele>131.0</ele><time>2026-03-29T13:38:22.733Z</time></trkpt><trkpt lat="46.1069081" lon="12.9527449"><ele>131.0</ele><time>2026-03-29T13:38:23.726Z</time></trkpt><trkpt lat="46.1067168" lon="12.9526936"><ele>131.0</ele><time>2026-03-29T13:38:24.715Z</time></trkpt><trkpt lat="46.1065258" lon="12.9526442"><ele>131.0</ele><time>2026-03-29T13:38:25.72Z</time></trkpt><trkpt lat="46.1063353" lon="12.9525986"><ele>130.66666666666666</ele><time>2026-03-29T13:38:26.713Z</time></trkpt><trkpt lat="46.1061455" lon="12.9525562"><ele>130.33333333333334</ele><time>2026-03-29T13:38:27.731Z</time></trkpt><trkpt lat="46.1059553" lon="12.9525201"><ele>130.0</ele><time>2026-03-29T13:38:28.716Z</time></trkpt><trkpt lat="46.1057645" lon="12.9524885"><ele>129.33333333333334</ele><time>2026-03-29T13:38:29.714Z</time></trkpt><trkpt lat="46.105573" lon="12.9524589"><ele>128.66666666666666</ele><time>2026-03-29T13:38:30.712Z</time></trkpt><trkpt lat="46.1053804" lon="12.9524295"><ele>128.0</ele><time>2026-03-29T13:38:31.72Z</time></trkpt><trkpt lat="46.1051867" lon="12.9523974"><ele>128.0</ele><time>2026-03-29T13:38:32.714Z</time></trkpt><trkpt lat="46.1049921" lon="12.9523623"><ele>128.0</ele><time>2026-03-29T13:38:33.715Z</time></trkpt><trkpt lat="46.1047954" lon="12.9523274"><ele>128.0</ele><time>2026-03-29T13:38:34.713Z</time></trkpt><trkpt lat="46.1045966" lon="12.9522971"><ele>127.66666666666666</ele><time>2026-03-29T13:38:35.72Z</time></trkpt><trkpt lat="46.1043976" lon="12.9522666"><ele>127.33333333333334</ele><time>2026-03-29T13:38:36.729Z</time></trkpt><trkpt lat="46.1042001" lon="12.9522474"><ele>127.0</ele><time>2026-03-29T13:38:37.723Z</time></trkpt><trkpt lat="46.1040035" lon="12.9522231"><ele>127.0</ele><time>2026-03-29T13:38:38.725Z</time></trkpt><trkpt lat="46.103808" lon="12.9521894"><ele>127.0</ele><time>2026-03-29T13:38:39.714Z</time></trkpt><trkpt lat="46.1036106" lon="12.9521647"><ele>127.0</ele><time>2026-03-29T13:38:40.717Z</time></trkpt><trkpt lat="46.1034137" lon="12.9521304"><ele>127.0</ele><time>2026-03-29T13:38:41.718Z</time></trkpt><trkpt lat="46.1032161" lon="12.9520973"><ele>127.0</ele><time>2026-03-29T13:38:42.714Z</time></trkpt><trkpt lat="46.1030183" lon="12.9520654"><ele>127.0</ele><time>2026-03-29T13:38:43.711Z</time></trkpt><trkpt lat="46.1028211" lon="12.9520333"><ele>127.0</ele><time>2026-03-29T13:38:44.711Z</time></trkpt><trkpt lat="46.1026245" lon="12.9519992"><ele>127.0</ele><time>2026-03-29T13:38:45.726Z</time></trkpt><trkpt lat="46.1024276" lon="12.9519642"><ele>127.0</ele><time>2026-03-29T13:38:46.723Z</time></trkpt><trkpt lat="46.1022304" lon="12.9519294"><ele>126.66666666666667</ele><time>2026-03-29T13:38:47.724Z</time></trkpt><trkpt lat="46.1020325" lon="12.9518961"><ele>126.33333333333334</ele><time>2026-03-29T13:38:48.716Z</time></trkpt><trkpt lat="46.1018333" lon="12.951863"><ele>126.0</ele><time>2026-03-29T13:38:49.722Z</time></trkpt><trkpt lat="46.1016328" lon="12.9518305"><ele>126.33333333333334</ele><time>2026-03-29T13:38:50.72Z</time></trkpt><trkpt lat="46.1014314" lon="12.9517967"><ele>126.66666666666667</ele><time>2026-03-29T13:38:51.719Z</time></trkpt><trkpt lat="46.1012287" lon="12.9517616"><ele>127.0</ele><time>2026-03-29T13:38:52.729Z</time></trkpt><trkpt lat="46.1010244" lon="12.951728"><ele>126.66666666666667</ele><time>2026-03-29T13:38:53.715Z</time></trkpt><trkpt lat="46.1008191" lon="12.9516934"><ele>126.33333333333334</ele><time>2026-03-29T13:38:54.715Z</time></trkpt><trkpt lat="46.1006137" lon="12.9516577"><ele>126.0</ele><time>2026-03-29T13:38:55.713Z</time></trkpt><trkpt lat="46.1004059" lon="12.951632"><ele>126.0</ele><time>2026-03-29T13:38:56.723Z</time></trkpt><trkpt lat="46.1001974" lon="12.9515954"><ele>126.0</ele><time>2026-03-29T13:38:57.714Z</time></trkpt><trkpt lat="46.099987" lon="12.951559"><ele>126.0</ele><time>2026-03-29T13:38:58.713Z</time></trkpt><trkpt lat="46.0997745" lon="12.9515237"><ele>125.33333333333334</ele><time>2026-03-29T13:38:59.72Z</time></trkpt><trkpt lat="46.0995622" lon="12.9514887"><ele>124.66666666666667</ele><time>2026-03-29T13:39:00.725Z</time></trkpt><trkpt lat="46.0993505" lon="12.9514538"><ele>124.0</ele><time>2026-03-29T13:39:01.713Z</time></trkpt><trkpt lat="46.0991409" lon="12.9514065"><ele>123.66666666666667</ele><time>2026-03-29T13:39:02.745Z</time></trkpt><trkpt lat="46.0989314" lon="12.9513697"><ele>123.33333333333334</ele><time>2026-03-29T13:39:03.719Z</time></trkpt><trkpt lat="46.0987209" lon="12.9513361"><ele>123.0</ele><time>2026-03-29T13:39:04.708Z</time></trkpt><trkpt lat="46.0985086" lon="12.9513028"><ele>123.0</ele><time>2026-03-29T13:39:05.71Z</time></trkpt><trkpt lat="46.0982947" lon="12.9512678"><ele>123.0</ele><time>2026-03-29T13:39:06.724Z</time></trkpt><trkpt lat="46.0980792" lon="12.9512323"><ele>123.0</ele><time>2026-03-29T13:39:07.729Z</time></trkpt><trkpt lat="46.0978634" lon="12.9511842"><ele>123.0</ele><time>2026-03-29T13:39:08.738Z</time></trkpt><trkpt lat="46.0976471" lon="12.9511412"><ele>123.0</ele><time>2026-03-29T13:39:09.724Z</time></trkpt><trkpt lat="46.0974315" lon="12.9510994"><ele>123.0</ele><time>2026-03-29T13:39:10.724Z</time></trkpt><trkpt lat="46.0972195" lon="12.9510475"><ele>122.33333333333334</ele><time>2026-03-29T13:39:11.741Z</time></trkpt><trkpt lat="46.0970073" lon="12.9510092"><ele>121.66666666666667</ele><time>2026-03-29T13:39:12.733Z</time></trkpt><trkpt lat="46.096795" lon="12.9509829"><ele>121.0</ele><time>2026-03-29T13:39:13.734Z</time></trkpt><trkpt lat="46.0965838" lon="12.95095"><ele>121.0</ele><time>2026-03-29T13:39:14.72Z</time></trkpt><trkpt lat="46.0963726" lon="12.9509252"><ele>121.0</ele><time>2026-03-29T13:39:15.723Z</time></trkpt><trkpt lat="46.0961626" lon="12.9508895"><ele>121.0</ele><time>2026-03-29T13:39:16.728Z</time></trkpt><trkpt lat="46.0959519" lon="12.9508526"><ele>119.66666666666667</ele><time>2026-03-29T13:39:17.71Z</time></trkpt><trkpt lat="46.0957419" lon="12.9508037"><ele>118.33333333333334</ele><time>2026-03-29T13:39:18.719Z</time></trkpt><trkpt lat="46.0955297" lon="12.9507634"><ele>117.0</ele><time>2026-03-29T13:39:19.718Z</time></trkpt><trkpt lat="46.0953164" lon="12.9507287"><ele>117.0</ele><time>2026-03-29T13:39:20.725Z</time></trkpt><trkpt lat="46.0951009" lon="12.9506935"><ele>117.0</ele><time>2026-03-29T13:39:21.714Z</time></trkpt><trkpt lat="46.0948834" lon="12.9506554"><ele>117.0</ele><time>2026-03-29T13:39:22.726Z</time></trkpt><trkpt lat="46.0946649" lon="12.9506156"><ele>116.33333333333334</ele><time>2026-03-29T13:39:23.725Z</time></trkpt><trkpt lat="46.0944457" lon="12.9505773"><ele>115.66666666666667</ele><time>2026-03-29T13:39:24.713Z</time></trkpt><trkpt lat="46.0942268" lon="12.9505397"><ele>115.0</ele><time>2026-03-29T13:39:25.716Z</time></trkpt><trkpt lat="46.094009" lon="12.9505013"><ele>114.66666666666667</ele><time>2026-03-29T13:39:26.729Z</time></trkpt><trkpt lat="46.0937928" lon="12.9504648"><ele>114.33333333333334</ele><time>2026-03-29T13:39:27.738Z</time></trkpt><trkpt lat="46.093579" lon="12.9504233"><ele>114.0</ele><time>2026-03-29T13:39:28.732Z</time></trkpt><trkpt lat="46.0933686" lon="12.9503868"><ele>114.66666666666666</ele><time>2026-03-29T13:39:29.731Z</time></trkpt><trkpt lat="46.0931635" lon="12.9503529"><ele>115.33333333333333</ele><time>2026-03-29T13:39:30.737Z</time></trkpt><trkpt lat="46.092962" lon="12.9503196"><ele>116.0</ele><time>2026-03-29T13:39:31.731Z</time></trkpt><trkpt lat="46.0927627" lon="12.9502862"><ele>116.0</ele><time>2026-03-29T13:39:32.722Z</time></trkpt><trkpt lat="46.0925654" lon="12.9502511"><ele>116.0</ele><time>2026-03-29T13:39:33.721Z</time></trkpt><trkpt lat="46.0923693" lon="12.9502097"><ele>116.0</ele><time>2026-03-29T13:39:34.732Z</time></trkpt><trkpt lat="46.0921736" lon="12.9501755"><ele>115.0</ele><time>2026-03-29T13:39:35.741Z</time></trkpt><trkpt lat="46.0919778" lon="12.9501436"><ele>114.0</ele><time>2026-03-29T13:39:36.724Z</time></trkpt><trkpt lat="46.0917811" lon="12.9501104"><ele>113.0</ele><time>2026-03-29T13:39:37.722Z</time></trkpt><trkpt lat="46.0915829" lon="12.9500789"><ele>113.66666666666666</ele><time>2026-03-29T13:39:38.71Z</time></trkpt><trkpt lat="46.0913838" lon="12.9500408"><ele>114.33333333333334</ele><time>2026-03-29T13:39:39.726Z</time></trkpt><trkpt lat="46.0911837" lon="12.9500061"><ele>115.0</ele><time>2026-03-29T13:39:40.738Z</time></trkpt><trkpt lat="46.090983" lon="12.949973"><ele>115.0</ele><time>2026-03-29T13:39:41.715Z</time></trkpt><trkpt lat="46.0907821" lon="12.9499384"><ele>115.0</ele><time>2026-03-29T13:39:42.723Z</time></trkpt><trkpt lat="46.090581" lon="12.9499036"><ele>115.0</ele><time>2026-03-29T13:39:43.735Z</time></trkpt><trkpt lat="46.0903802" lon="12.9498688"><ele>114.66666666666667</ele><time>2026-03-29T13:39:44.727Z</time></trkpt><trkpt lat="46.0901795" lon="12.949834"><ele>114.33333333333334</ele><time>2026-03-29T13:39:45.721Z</time></trkpt><trkpt lat="46.0899784" lon="12.9498038"><ele>114.0</ele><time>2026-03-29T13:39:46.714Z</time></trkpt><trkpt lat="46.089778" lon="12.9497733"><ele>113.66666666666666</ele><time>2026-03-29T13:39:47.717Z</time></trkpt><trkpt lat="46.0895824" lon="12.949742"><ele>113.33333333333333</ele><time>2026-03-29T13:39:48.718Z</time></trkpt><trkpt lat="46.0893929" lon="12.9497066"><ele>113.0</ele><time>2026-03-29T13:39:49.718Z</time></trkpt><trkpt lat="46.0892079" lon="12.9496728"><ele>113.0</ele><time>2026-03-29T13:39:50.73Z</time></trkpt><trkpt lat="46.0890287" lon="12.9496416"><ele>113.0</ele><time>2026-03-29T13:39:51.717Z</time></trkpt><trkpt lat="46.0888526" lon="12.9496123"><ele>113.0</ele><time>2026-03-29T13:39:52.729Z</time></trkpt><trkpt lat="46.0886765" lon="12.9495833"><ele>113.0</ele><time>2026-03-29T13:39:53.745Z</time></trkpt><trkpt lat="46.0885005" lon="12.9495537"><ele>113.0</ele><time>2026-03-29T13:39:54.73Z</time></trkpt><trkpt lat="46.0883241" lon="12.9495257"><ele>113.0</ele><time>2026-03-29T13:39:55.742Z</time></trkpt><trkpt lat="46.0881475" lon="12.9494973"><ele>112.33333333333333</ele><time>2026-03-29T13:39:56.722Z</time></trkpt><trkpt lat="46.0879728" lon="12.94947"><ele>111.66666666666666</ele><time>2026-03-29T13:39:57.709Z</time></trkpt><trkpt lat="46.0878014" lon="12.9494441"><ele>111.0</ele><time>2026-03-29T13:39:58.722Z</time></trkpt><trkpt lat="46.0876313" lon="12.949418"><ele>111.0</ele><time>2026-03-29T13:39:59.723Z</time></trkpt><trkpt lat="46.0874608" lon="12.949392"><ele>111.0</ele><time>2026-03-29T13:40:00.736Z</time></trkpt><trkpt lat="46.087292" lon="12.9493643"><ele>111.0</ele><time>2026-03-29T13:40:01.722Z</time></trkpt><trkpt lat="46.0871272" lon="12.9493379"><ele>111.66666666666666</ele><time>2026-03-29T13:40:02.73Z</time></trkpt><trkpt lat="46.0869671" lon="12.9493117"><ele>112.33333333333333</ele><time>2026-03-29T13:40:03.723Z</time></trkpt><trkpt lat="46.0868135" lon="12.9492944"><ele>113.0</ele><time>2026-03-29T13:40:04.717Z</time></trkpt><trkpt lat="46.0866757" lon="12.9492704"><ele>112.80000000000001</ele><time>2026-03-29T13:40:05.724Z</time></trkpt><trkpt lat="46.0865572" lon="12.9492478"><ele>112.60000000000001</ele><time>2026-03-29T13:40:06.722Z</time></trkpt><trkpt lat="46.0864572" lon="12.9492145"><ele>112.39999999999999</ele><time>2026-03-29T13:40:07.724Z</time></trkpt><trkpt lat="46.0863867" lon="12.9491499"><ele>112.19999999999999</ele><time>2026-03-29T13:40:08.725Z</time></trkpt><trkpt lat="46.0862971" lon="12.9490421"><ele>112.0</ele><time>2026-03-29T13:40:10.728Z</time></trkpt><trkpt lat="46.0862128" lon="12.9488902"><ele>112.0</ele><time>2026-03-29T13:40:12.715Z</time></trkpt><trkpt lat="46.086158" lon="12.9487764"><ele>111.99999999999999</ele><time>2026-03-29T13:40:13.717Z</time></trkpt><trkpt lat="46.0860879" lon="12.9486577"><ele>111.99999999999999</ele><time>2026-03-29T13:40:14.716Z</time></trkpt><trkpt lat="46.0859902" lon="12.9485702"><ele>112.0</ele><time>2026-03-29T13:40:15.717Z</time></trkpt><trkpt lat="46.0858755" lon="12.9485242"><ele>112.0</ele><time>2026-03-29T13:40:16.73Z</time></trkpt><trkpt lat="46.0857468" lon="12.9485365"><ele>111.75</ele><time>2026-03-29T13:40:17.723Z</time></trkpt><trkpt lat="46.0856243" lon="12.948576"><ele>111.5</ele><time>2026-03-29T13:40:18.712Z</time></trkpt><trkpt lat="46.0855111" lon="12.9486583"><ele>111.25</ele><time>2026-03-29T13:40:19.731Z</time></trkpt><trkpt lat="46.0854102" lon="12.9487492"><ele>111.0</ele><time>2026-03-29T13:40:20.716Z</time></trkpt><trkpt lat="46.0853152" lon="12.94885"><ele>111.0</ele><time>2026-03-29T13:40:21.742Z</time></trkpt><trkpt lat="46.0852094" lon="12.9489394"><ele>111.0</ele><time>2026-03-29T13:40:22.718Z</time></trkpt><trkpt lat="46.0850863" lon="12.9490012"><ele>111.0</ele><time>2026-03-29T13:40:23.727Z</time></trkpt><trkpt lat="46.0849408" lon="12.949006"><ele>111.0</ele><time>2026-03-29T13:40:24.728Z</time></trkpt><trkpt lat="46.0847846" lon="12.9489843"><ele>111.0</ele><time>2026-03-29T13:40:25.713Z</time></trkpt><trkpt lat="46.0846154" lon="12.9489364"><ele>111.0</ele><time>2026-03-29T13:40:26.726Z</time></trkpt><trkpt lat="46.084445" lon="12.948891"><ele>111.0</ele><time>2026-03-29T13:40:27.717Z</time></trkpt><trkpt lat="46.0842726" lon="12.9488425"><ele>111.0</ele><time>2026-03-29T13:40:28.718Z</time></trkpt><trkpt lat="46.0840984" lon="12.9487752"><ele>111.0</ele><time>2026-03-29T13:40:29.735Z</time></trkpt><trkpt lat="46.0839213" lon="12.9487044"><ele>111.0</ele><time>2026-03-29T13:40:30.743Z</time></trkpt><trkpt lat="46.0837434" lon="12.9486199"><ele>110.0</ele><time>2026-03-29T13:40:31.738Z</time></trkpt><trkpt lat="46.0835708" lon="12.9485108"><ele>109.0</ele><time>2026-03-29T13:40:32.713Z</time></trkpt><trkpt lat="46.0834001" lon="12.9483991"><ele>108.0</ele><time>2026-03-29T13:40:33.711Z</time></trkpt><trkpt lat="46.0832316" lon="12.9482781"><ele>108.0</ele><time>2026-03-29T13:40:34.704Z</time></trkpt><trkpt lat="46.0830609" lon="12.948157"><ele>108.0</ele><time>2026-03-29T13:40:35.724Z</time></trkpt><trkpt lat="46.0828901" lon="12.9480244"><ele>108.0</ele><time>2026-03-29T13:40:36.734Z</time></trkpt><trkpt lat="46.0827177" lon="12.9478891"><ele>108.0</ele><time>2026-03-29T13:40:37.724Z</time></trkpt><trkpt lat="46.0825446" lon="12.9477512"><ele>108.0</ele><time>2026-03-29T13:40:38.718Z</time></trkpt><trkpt lat="46.08237" lon="12.9476143"><ele>108.0</ele><time>2026-03-29T13:40:39.712Z</time></trkpt><trkpt lat="46.0821951" lon="12.94748"><ele>107.66666666666666</ele><time>2026-03-29T13:40:40.734Z</time></trkpt><trkpt lat="46.082022" lon="12.9473452"><ele>107.33333333333333</ele><time>2026-03-29T13:40:41.727Z</time></trkpt><trkpt lat="46.08185" lon="12.9472099"><ele>107.0</ele><time>2026-03-29T13:40:42.731Z</time></trkpt><trkpt lat="46.0816778" lon="12.9470746"><ele>107.33333333333333</ele><time>2026-03-29T13:40:43.717Z</time></trkpt><trkpt lat="46.0815047" lon="12.9469416"><ele>107.66666666666666</ele><time>2026-03-29T13:40:44.726Z</time></trkpt><trkpt lat="46.0813316" lon="12.9468104"><ele>108.0</ele><time>2026-03-29T13:40:45.726Z</time></trkpt><trkpt lat="46.0811622" lon="12.9466678"><ele>108.0</ele><time>2026-03-29T13:40:46.715Z</time></trkpt><trkpt lat="46.0809913" lon="12.9465293"><ele>108.0</ele><time>2026-03-29T13:40:47.735Z</time></trkpt><trkpt lat="46.0808233" lon="12.9463821"><ele>108.0</ele><time>2026-03-29T13:40:48.718Z</time></trkpt><trkpt lat="46.0806485" lon="12.9462461"><ele>108.0</ele><time>2026-03-29T13:40:49.72Z</time></trkpt><trkpt lat="46.0804731" lon="12.9461044"><ele>108.0</ele><time>2026-03-29T13:40:50.715Z</time></trkpt><trkpt lat="46.080295" lon="12.9459619"><ele>108.0</ele><time>2026-03-29T13:40:51.729Z</time></trkpt><trkpt lat="46.080111" lon="12.9458157"><ele>107.66666666666666</ele><time>2026-03-29T13:40:52.709Z</time></trkpt><trkpt lat="46.0799226" lon="12.9456591"><ele>107.33333333333333</ele><time>2026-03-29T13:40:53.72Z</time></trkpt><trkpt lat="46.0797291" lon="12.9455036"><ele>107.0</ele><time>2026-03-29T13:40:54.712Z</time></trkpt><trkpt lat="46.0795318" lon="12.9453452"><ele>107.0</ele><time>2026-03-29T13:40:55.72Z</time></trkpt><trkpt lat="46.0793301" lon="12.9451859"><ele>107.0</ele><time>2026-03-29T13:40:56.73Z</time></trkpt><trkpt lat="46.0791277" lon="12.9450228"><ele>106.5</ele><time>2026-03-29T13:40:57.726Z</time></trkpt><trkpt lat="46.0789239" lon="12.9448593"><ele>106.0</ele><time>2026-03-29T13:40:58.724Z</time></trkpt><trkpt lat="46.0787172" lon="12.9446974"><ele>106.0</ele><time>2026-03-29T13:40:59.712Z</time></trkpt><trkpt lat="46.0785099" lon="12.9445322"><ele>106.0</ele><time>2026-03-29T13:41:00.731Z</time></trkpt><trkpt lat="46.0783016" lon="12.9443671"><ele>105.5</ele><time>2026-03-29T13:41:01.74Z</time></trkpt><trkpt lat="46.078094" lon="12.9442035"><ele>105.0</ele><time>2026-03-29T13:41:02.736Z</time></trkpt><trkpt lat="46.0778919" lon="12.9440431"><ele>105.0</ele><time>2026-03-29T13:41:03.719Z</time></trkpt><trkpt lat="46.0776945" lon="12.9438864"><ele>105.0</ele><time>2026-03-29T13:41:04.726Z</time></trkpt><trkpt lat="46.0774964" lon="12.9437332"><ele>105.0</ele><time>2026-03-29T13:41:05.71Z</time></trkpt><trkpt lat="46.077298" lon="12.9435824"><ele>105.0</ele><time>2026-03-29T13:41:06.733Z</time></trkpt><trkpt lat="46.077102" lon="12.9434383"><ele>105.0</ele><time>2026-03-29T13:41:07.718Z</time></trkpt><trkpt lat="46.0769161" lon="12.9432959"><ele>105.0</ele><time>2026-03-29T13:41:08.722Z</time></trkpt><trkpt lat="46.0767389" lon="12.9431562"><ele>105.0</ele><time>2026-03-29T13:41:09.732Z</time></trkpt><trkpt lat="46.0765697" lon="12.9430223"><ele>105.0</ele><time>2026-03-29T13:41:10.741Z</time></trkpt><trkpt lat="46.0764103" lon="12.9428887"><ele>105.0</ele><time>2026-03-29T13:41:11.723Z</time></trkpt><trkpt lat="46.0762572" lon="12.9427621"><ele>105.0</ele><time>2026-03-29T13:41:12.734Z</time></trkpt><trkpt lat="46.0761146" lon="12.9426444"><ele>105.0</ele><time>2026-03-29T13:41:13.727Z</time></trkpt><trkpt lat="46.0759868" lon="12.9425419"><ele>105.0</ele><time>2026-03-29T13:41:14.727Z</time></trkpt><trkpt lat="46.0758712" lon="12.942447"><ele>105.0</ele><time>2026-03-29T13:41:15.739Z</time></trkpt><trkpt lat="46.0757641" lon="12.9423561"><ele>105.0</ele><time>2026-03-29T13:41:16.718Z</time></trkpt><trkpt lat="46.075672" lon="12.9422722"><ele>105.0</ele><time>2026-03-29T13:41:17.713Z</time></trkpt><trkpt lat="46.0756165" lon="12.9422078"><ele>105.0</ele><time>2026-03-29T13:41:18.732Z</time></trkpt><trkpt lat="46.0755521" lon="12.9421272"><ele>104.83333333333333</ele><time>2026-03-29T13:41:20.727Z</time></trkpt><trkpt lat="46.0754922" lon="12.9420118"><ele>104.66666666666666</ele><time>2026-03-29T13:41:22.71Z</time></trkpt><trkpt lat="46.0754584" lon="12.9419234"><ele>104.5</ele><time>2026-03-29T13:41:23.718Z</time></trkpt><trkpt lat="46.0754118" lon="12.9418353"><ele>104.33333333333333</ele><time>2026-03-29T13:41:24.721Z</time></trkpt><trkpt lat="46.0753519" lon="12.9417633"><ele>104.16666666666666</ele><time>2026-03-29T13:41:25.726Z</time></trkpt><trkpt lat="46.0752753" lon="12.9417174"><ele>104.0</ele><time>2026-03-29T13:41:26.727Z</time></trkpt><trkpt lat="46.0751861" lon="12.941705"><ele>103.75</ele><time>2026-03-29T13:41:27.714Z</time></trkpt><trkpt lat="46.0750841" lon="12.9417128"><ele>103.5</ele><time>2026-03-29T13:41:28.725Z</time></trkpt><trkpt lat="46.0749684" lon="12.9417035"><ele>103.25</ele><time>2026-03-29T13:41:29.71Z</time></trkpt><trkpt lat="46.0748434" lon="12.9416345"><ele>103.0</ele><time>2026-03-29T13:41:30.729Z</time></trkpt><trkpt lat="46.0747084" lon="12.9415346"><ele>103.0</ele><time>2026-03-29T13:41:31.738Z</time></trkpt><trkpt lat="46.0745624" lon="12.9414295"><ele>103.0</ele><time>2026-03-29T13:41:32.719Z</time></trkpt><trkpt lat="46.0744093" lon="12.9413025"><ele>103.0</ele><time>2026-03-29T13:41:33.717Z</time></trkpt><trkpt lat="46.0742464" lon="12.9411796"><ele>103.33333333333334</ele><time>2026-03-29T13:41:34.718Z</time></trkpt><trkpt lat="46.0740795" lon="12.9410603"><ele>103.66666666666666</ele><time>2026-03-29T13:41:35.714Z</time></trkpt><trkpt lat="46.0739106" lon="12.9409336"><ele>104.0</ele><time>2026-03-29T13:41:36.736Z</time></trkpt><trkpt lat="46.073741" lon="12.9408013"><ele>104.0</ele><time>2026-03-29T13:41:37.732Z</time></trkpt><trkpt lat="46.0735707" lon="12.9406678"><ele>104.0</ele><time>2026-03-29T13:41:38.717Z</time></trkpt><trkpt lat="46.0733991" lon="12.9405324"><ele>104.0</ele><time>2026-03-29T13:41:39.708Z</time></trkpt><trkpt lat="46.0732256" lon="12.9403985"><ele>103.66666666666666</ele><time>2026-03-29T13:41:40.729Z</time></trkpt><trkpt lat="46.073051" lon="12.9402647"><ele>103.33333333333334</ele><time>2026-03-29T13:41:41.712Z</time></trkpt><trkpt lat="46.0728756" lon="12.9401288"><ele>103.0</ele><time>2026-03-29T13:41:42.733Z</time></trkpt><trkpt lat="46.0726967" lon="12.9399872"><ele>103.0</ele><time>2026-03-29T13:41:43.752Z</time></trkpt><trkpt lat="46.0725164" lon="12.939845"><ele>103.0</ele><time>2026-03-29T13:41:44.722Z</time></trkpt><trkpt lat="46.0723346" lon="12.9397021"><ele>103.0</ele><time>2026-03-29T13:41:45.715Z</time></trkpt><trkpt lat="46.0721506" lon="12.9395582"><ele>102.66666666666667</ele><time>2026-03-29T13:41:46.71Z</time></trkpt><trkpt lat="46.071968" lon="12.9394067"><ele>102.33333333333334</ele><time>2026-03-29T13:41:47.719Z</time></trkpt><trkpt lat="46.0717786" lon="12.939266"><ele>102.0</ele><time>2026-03-29T13:41:48.746Z</time></trkpt><trkpt lat="46.0715904" lon="12.9391188"><ele>101.66666666666666</ele><time>2026-03-29T13:41:49.713Z</time></trkpt><trkpt lat="46.0714001" lon="12.9389704"><ele>101.33333333333333</ele><time>2026-03-29T13:41:50.715Z</time></trkpt><trkpt lat="46.0712087" lon="12.9388207"><ele>101.0</ele><time>2026-03-29T13:41:51.739Z</time></trkpt><trkpt lat="46.0710194" lon="12.9386717"><ele>101.0</ele><time>2026-03-29T13:41:52.739Z</time></trkpt><trkpt lat="46.0708347" lon="12.9385229"><ele>101.0</ele><time>2026-03-29T13:41:53.729Z</time></trkpt><trkpt lat="46.0706521" lon="12.9383766"><ele>101.0</ele><time>2026-03-29T13:41:54.703Z</time></trkpt><trkpt lat="46.0704707" lon="12.9382323"><ele>100.66666666666666</ele><time>2026-03-29T13:41:55.707Z</time></trkpt><trkpt lat="46.0702888" lon="12.9380918"><ele>100.33333333333334</ele><time>2026-03-29T13:41:56.726Z</time></trkpt><trkpt lat="46.0701108" lon="12.9379428"><ele>100.0</ele><time>2026-03-29T13:41:57.729Z</time></trkpt><trkpt lat="46.0699275" lon="12.9378062"><ele>100.0</ele><time>2026-03-29T13:41:58.733Z</time></trkpt><trkpt lat="46.0697438" lon="12.9376673"><ele>100.0</ele><time>2026-03-29T13:41:59.736Z</time></trkpt><trkpt lat="46.0695567" lon="12.9375324"><ele>100.0</ele><time>2026-03-29T13:42:00.73Z</time></trkpt><trkpt lat="46.0693653" lon="12.9374014"><ele>100.0</ele><time>2026-03-29T13:42:01.704Z</time></trkpt><trkpt lat="46.0691679" lon="12.9372789"><ele>100.0</ele><time>2026-03-29T13:42:02.717Z</time></trkpt><trkpt lat="46.0689647" lon="12.9371606"><ele>100.0</ele><time>2026-03-29T13:42:03.717Z</time></trkpt><trkpt lat="46.0687551" lon="12.9370584"><ele>100.0</ele><time>2026-03-29T13:42:04.729Z</time></trkpt><trkpt lat="46.0685418" lon="12.9369671"><ele>100.0</ele><time>2026-03-29T13:42:05.747Z</time></trkpt><trkpt lat="46.068325" lon="12.9368802"><ele>100.0</ele><time>2026-03-29T13:42:06.727Z</time></trkpt><trkpt lat="46.0681045" lon="12.9368146"><ele>100.0</ele><time>2026-03-29T13:42:07.735Z</time></trkpt><trkpt lat="46.0678819" lon="12.9367549"><ele>100.0</ele><time>2026-03-29T13:42:08.742Z</time></trkpt><trkpt lat="46.0676549" lon="12.9367169"><ele>100.0</ele><time>2026-03-29T13:42:09.717Z</time></trkpt><trkpt lat="46.0674257" lon="12.9366876"><ele>100.0</ele><time>2026-03-29T13:42:10.72Z</time></trkpt><trkpt lat="46.0671962" lon="12.9366577"><ele>100.0</ele><time>2026-03-29T13:42:11.718Z</time></trkpt><trkpt lat="46.0669668" lon="12.9366269"><ele>100.0</ele><time>2026-03-29T13:42:12.73Z</time></trkpt><trkpt lat="46.0667374" lon="12.9365936"><ele>99.0</ele><time>2026-03-29T13:42:13.704Z</time></trkpt><trkpt lat="46.0665083" lon="12.936562"><ele>98.0</ele><time>2026-03-29T13:42:14.73Z</time></trkpt><trkpt lat="46.0662812" lon="12.9365307"><ele>98.0</ele><time>2026-03-29T13:42:15.724Z</time></trkpt><trkpt lat="46.0660573" lon="12.936507"><ele>98.0</ele><time>2026-03-29T13:42:16.721Z</time></trkpt><trkpt lat="46.0658363" lon="12.9364811"><ele>98.0</ele><time>2026-03-29T13:42:17.708Z</time></trkpt><trkpt lat="46.0656166" lon="12.9364559"><ele>98.0</ele><time>2026-03-29T13:42:18.739Z</time></trkpt><trkpt lat="46.0653973" lon="12.9364288"><ele>98.0</ele><time>2026-03-29T13:42:19.71Z</time></trkpt><trkpt lat="46.0651768" lon="12.9363976"><ele>98.0</ele><time>2026-03-29T13:42:20.745Z</time></trkpt><trkpt lat="46.0649557" lon="12.9363717"><ele>98.0</ele><time>2026-03-29T13:42:21.72Z</time></trkpt><trkpt lat="46.0647354" lon="12.9363464"><ele>98.0</ele><time>2026-03-29T13:42:22.73Z</time></trkpt><trkpt lat="46.0645156" lon="12.936317"><ele>98.0</ele><time>2026-03-29T13:42:23.731Z</time></trkpt><trkpt lat="46.0642957" lon="12.9362883"><ele>98.0</ele><time>2026-03-29T13:42:24.721Z</time></trkpt><trkpt lat="46.0640756" lon="12.9362595"><ele>98.0</ele><time>2026-03-29T13:42:25.753Z</time></trkpt><trkpt lat="46.0638551" lon="12.9362294"><ele>98.0</ele><time>2026-03-29T13:42:26.73Z</time></trkpt><trkpt lat="46.0636351" lon="12.9362012"><ele>98.0</ele><time>2026-03-29T13:42:27.729Z</time></trkpt><trkpt lat="46.0634155" lon="12.9361749"><ele>98.0</ele><time>2026-03-29T13:42:28.74Z</time></trkpt><trkpt lat="46.0631964" lon="12.9361481"><ele>98.0</ele><time>2026-03-29T13:42:29.723Z</time></trkpt><trkpt lat="46.0629781" lon="12.9361215"><ele>98.0</ele><time>2026-03-29T13:42:30.728Z</time></trkpt><trkpt lat="46.0627603" lon="12.936093"><ele>98.0</ele><time>2026-03-29T13:42:31.729Z</time></trkpt><trkpt lat="46.0625426" lon="12.9360646"><ele>98.0</ele><time>2026-03-29T13:42:32.733Z</time></trkpt><trkpt lat="46.0623246" lon="12.9360388"><ele>98.0</ele><time>2026-03-29T13:42:33.73Z</time></trkpt><trkpt lat="46.0621069" lon="12.936012"><ele>98.0</ele><time>2026-03-29T13:42:34.721Z</time></trkpt><trkpt lat="46.0618896" lon="12.9359838"><ele>98.0</ele><time>2026-03-29T13:42:35.748Z</time></trkpt><trkpt lat="46.0616723" lon="12.9359616"><ele>97.66666666666666</ele><time>2026-03-29T13:42:36.739Z</time></trkpt><trkpt lat="46.0614549" lon="12.9359215"><ele>97.33333333333334</ele><time>2026-03-29T13:42:37.714Z</time></trkpt><trkpt lat="46.0612361" lon="12.9358927"><ele>97.0</ele><time>2026-03-29T13:42:38.741Z</time></trkpt><trkpt lat="46.0610168" lon="12.9358652"><ele>97.0</ele><time>2026-03-29T13:42:39.738Z</time></trkpt><trkpt lat="46.0607977" lon="12.9358377"><ele>97.0</ele><time>2026-03-29T13:42:40.729Z</time></trkpt><trkpt lat="46.0605795" lon="12.9358082"><ele>97.0</ele><time>2026-03-29T13:42:41.747Z</time></trkpt><trkpt lat="46.0603637" lon="12.9357846"><ele>97.0</ele><time>2026-03-29T13:42:42.721Z</time></trkpt><trkpt lat="46.0601498" lon="12.9357596"><ele>97.0</ele><time>2026-03-29T13:42:43.732Z</time></trkpt><trkpt lat="46.0599348" lon="12.9357331"><ele>97.0</ele><time>2026-03-29T13:42:44.742Z</time></trkpt><trkpt lat="46.0597184" lon="12.9357139"><ele>97.0</ele><time>2026-03-29T13:42:45.74Z</time></trkpt><trkpt lat="46.0595019" lon="12.9356813"><ele>97.0</ele><time>2026-03-29T13:42:46.717Z</time></trkpt><trkpt lat="46.0592863" lon="12.9356576"><ele>97.0</ele><time>2026-03-29T13:42:47.743Z</time></trkpt><trkpt lat="46.0590723" lon="12.9356273"><ele>96.66666666666667</ele><time>2026-03-29T13:42:48.715Z</time></trkpt><trkpt lat="46.0588598" lon="12.9355968"><ele>96.33333333333334</ele><time>2026-03-29T13:42:49.736Z</time></trkpt><trkpt lat="46.0586488" lon="12.9355704"><ele>96.0</ele><time>2026-03-29T13:42:50.733Z</time></trkpt><trkpt lat="46.0584384" lon="12.9355473"><ele>95.0</ele><time>2026-03-29T13:42:51.733Z</time></trkpt><trkpt lat="46.0582287" lon="12.9355284"><ele>94.0</ele><time>2026-03-29T13:42:52.719Z</time></trkpt><trkpt lat="46.0580198" lon="12.9354952"><ele>93.0</ele><time>2026-03-29T13:42:53.734Z</time></trkpt><trkpt lat="46.0578106" lon="12.9354637"><ele>93.0</ele><time>2026-03-29T13:42:54.724Z</time></trkpt><trkpt lat="46.0576007" lon="12.9354322"><ele>93.0</ele><time>2026-03-29T13:42:55.728Z</time></trkpt><trkpt lat="46.0573887" lon="12.9354005"><ele>93.0</ele><time>2026-03-29T13:42:56.735Z</time></trkpt><trkpt lat="46.0571734" lon="12.9353721"><ele>93.0</ele><time>2026-03-29T13:42:57.735Z</time></trkpt><trkpt lat="46.0569547" lon="12.935342"><ele>93.0</ele><time>2026-03-29T13:42:58.726Z</time></trkpt><trkpt lat="46.0567323" lon="12.9353124"><ele>93.0</ele><time>2026-03-29T13:42:59.75Z</time></trkpt><trkpt lat="46.056507" lon="12.9352889"><ele>92.5</ele><time>2026-03-29T13:43:00.705Z</time></trkpt><trkpt lat="46.0562808" lon="12.935246"><ele>92.0</ele><time>2026-03-29T13:43:01.716Z</time></trkpt><trkpt lat="46.0560567" lon="12.9352129"><ele>92.0</ele><time>2026-03-29T13:43:02.734Z</time></trkpt><trkpt lat="46.0558375" lon="12.9351841"><ele>92.0</ele><time>2026-03-29T13:43:03.727Z</time></trkpt><trkpt lat="46.0556222" lon="12.9351589"><ele>92.0</ele><time>2026-03-29T13:43:04.734Z</time></trkpt><trkpt lat="46.0554094" lon="12.9351327"><ele>92.33333333333334</ele><time>2026-03-29T13:43:05.727Z</time></trkpt><trkpt lat="46.0551979" lon="12.935111"><ele>92.66666666666667</ele><time>2026-03-29T13:43:06.722Z</time></trkpt><trkpt lat="46.0549876" lon="12.9350828"><ele>93.0</ele><time>2026-03-29T13:43:07.716Z</time></trkpt><trkpt lat="46.0547785" lon="12.935064"><ele>92.33333333333333</ele><time>2026-03-29T13:43:08.723Z</time></trkpt><trkpt lat="46.0545691" lon="12.9350355"><ele>91.66666666666666</ele><time>2026-03-29T13:43:09.722Z</time></trkpt><trkpt lat="46.0543577" lon="12.9350125"><ele>91.0</ele><time>2026-03-29T13:43:10.74Z</time></trkpt><trkpt lat="46.0541438" lon="12.93498"><ele>91.66666666666666</ele><time>2026-03-29T13:43:11.738Z</time></trkpt><trkpt lat="46.0539267" lon="12.9349508"><ele>92.33333333333333</ele><time>2026-03-29T13:43:12.723Z</time></trkpt><trkpt lat="46.0537054" lon="12.9349226"><ele>93.0</ele><time>2026-03-29T13:43:13.729Z</time></trkpt><trkpt lat="46.0534802" lon="12.9348954"><ele>92.0</ele><time>2026-03-29T13:43:14.732Z</time></trkpt><trkpt lat="46.0532529" lon="12.9348668"><ele>91.0</ele><time>2026-03-29T13:43:15.734Z</time></trkpt><trkpt lat="46.0530239" lon="12.9348348"><ele>91.0</ele><time>2026-03-29T13:43:16.723Z</time></trkpt><trkpt lat="46.0527923" lon="12.934806"><ele>91.0</ele><time>2026-03-29T13:43:17.722Z</time></trkpt><trkpt lat="46.0525603" lon="12.9347791"><ele>91.5</ele><time>2026-03-29T13:43:18.741Z</time></trkpt><trkpt lat="46.0523295" lon="12.9347509"><ele>92.0</ele><time>2026-03-29T13:43:19.733Z</time></trkpt><trkpt lat="46.0521008" lon="12.9347289"><ele>92.0</ele><time>2026-03-29T13:43:20.733Z</time></trkpt><trkpt lat="46.0518753" lon="12.9346923"><ele>92.0</ele><time>2026-03-29T13:43:21.724Z</time></trkpt><trkpt lat="46.0516533" lon="12.9346622"><ele>91.66666666666667</ele><time>2026-03-29T13:43:22.714Z</time></trkpt><trkpt lat="46.0514323" lon="12.9346357"><ele>91.33333333333333</ele><time>2026-03-29T13:43:23.73Z</time></trkpt><trkpt lat="46.0512108" lon="12.9346103"><ele>91.0</ele><time>2026-03-29T13:43:24.734Z</time></trkpt><trkpt lat="46.0509896" lon="12.9345833"><ele>91.0</ele><time>2026-03-29T13:43:25.726Z</time></trkpt><trkpt lat="46.0507722" lon="12.9345573"><ele>91.0</ele><time>2026-03-29T13:43:26.726Z</time></trkpt><trkpt lat="46.050559" lon="12.9345327"><ele>91.0</ele><time>2026-03-29T13:43:27.741Z</time></trkpt><trkpt lat="46.0503504" lon="12.9345087"><ele>91.0</ele><time>2026-03-29T13:43:28.735Z</time></trkpt><trkpt lat="46.0501495" lon="12.9344868"><ele>91.0</ele><time>2026-03-29T13:43:29.738Z</time></trkpt><trkpt lat="46.0499582" lon="12.9344657"><ele>91.0</ele><time>2026-03-29T13:43:30.723Z</time></trkpt><trkpt lat="46.0497722" lon="12.9344458"><ele>90.66666666666666</ele><time>2026-03-29T13:43:31.729Z</time></trkpt><trkpt lat="46.0495955" lon="12.9344263"><ele>90.33333333333333</ele><time>2026-03-29T13:43:32.729Z</time></trkpt><trkpt lat="46.0494307" lon="12.9344058"><ele>90.0</ele><time>2026-03-29T13:43:33.718Z</time></trkpt><trkpt lat="46.0492758" lon="12.9343856"><ele>90.0</ele><time>2026-03-29T13:43:34.724Z</time></trkpt><trkpt lat="46.0491287" lon="12.934367"><ele>90.0</ele><time>2026-03-29T13:43:35.715Z</time></trkpt><trkpt lat="46.0489873" lon="12.9343478"><ele>90.0</ele><time>2026-03-29T13:43:36.734Z</time></trkpt><trkpt lat="46.0488511" lon="12.9343295"><ele>90.0</ele><time>2026-03-29T13:43:37.725Z</time></trkpt><trkpt lat="46.0487194" lon="12.9343156"><ele>90.0</ele><time>2026-03-29T13:43:38.728Z</time></trkpt><trkpt lat="46.0485914" lon="12.9342932"><ele>90.0</ele><time>2026-03-29T13:43:39.733Z</time></trkpt><trkpt lat="46.0484693" lon="12.9342613"><ele>90.0</ele><time>2026-03-29T13:43:40.717Z</time></trkpt><trkpt lat="46.0483575" lon="12.934212"><ele>90.0</ele><time>2026-03-29T13:43:41.73Z</time></trkpt><trkpt lat="46.0482584" lon="12.9341336"><ele>89.75</ele><time>2026-03-29T13:43:42.73Z</time></trkpt><trkpt lat="46.0481683" lon="12.9340426"><ele>89.5</ele><time>2026-03-29T13:43:43.724Z</time></trkpt><trkpt lat="46.0480895" lon="12.9339064"><ele>89.25</ele><time>2026-03-29T13:43:44.718Z</time></trkpt><trkpt lat="46.0480045" lon="12.9337681"><ele>89.0</ele><time>2026-03-29T13:43:45.73Z</time></trkpt><trkpt lat="46.0479273" lon="12.9336052"><ele>89.0</ele><time>2026-03-29T13:43:46.737Z</time></trkpt><trkpt lat="46.0478356" lon="12.9334603"><ele>89.0</ele><time>2026-03-29T13:43:47.732Z</time></trkpt><trkpt lat="46.0477598" lon="12.9333054"><ele>89.0</ele><time>2026-03-29T13:43:48.724Z</time></trkpt><trkpt lat="46.0476987" lon="12.9331489"><ele>89.0</ele><time>2026-03-29T13:43:49.715Z</time></trkpt><trkpt lat="46.0476406" lon="12.9330025"><ele>89.0</ele><time>2026-03-29T13:43:50.735Z</time></trkpt><trkpt lat="46.047574" lon="12.9328717"><ele>89.0</ele><time>2026-03-29T13:43:51.723Z</time></trkpt><trkpt lat="46.0475057" lon="12.9327542"><ele>89.0</ele><time>2026-03-29T13:43:52.729Z</time></trkpt><trkpt lat="46.047442" lon="12.9326374"><ele>89.0</ele><time>2026-03-29T13:43:53.731Z</time></trkpt><trkpt lat="46.0473579" lon="12.9325467"><ele>89.0</ele><time>2026-03-29T13:43:54.739Z</time></trkpt><trkpt lat="46.0472521" lon="12.9324973"><ele>88.75</ele><time>2026-03-29T13:43:55.716Z</time></trkpt><trkpt lat="46.0471363" lon="12.9324679"><ele>88.5</ele><time>2026-03-29T13:43:56.723Z</time></trkpt><trkpt lat="46.0470163" lon="12.9324739"><ele>88.25</ele><time>2026-03-29T13:43:57.717Z</time></trkpt><trkpt lat="46.0468939" lon="12.9324994"><ele>88.0</ele><time>2026-03-29T13:43:58.742Z</time></trkpt><trkpt lat="46.0467862" lon="12.932525"><ele>88.0</ele><time>2026-03-29T13:43:59.721Z</time></trkpt><trkpt lat="46.0466821" lon="12.9325467"><ele>88.0</ele><time>2026-03-29T13:44:00.718Z</time></trkpt><trkpt lat="46.0465769" lon="12.9325796"><ele>88.0</ele><time>2026-03-29T13:44:01.714Z</time></trkpt><trkpt lat="46.0464826" lon="12.9326207"><ele>88.0</ele><time>2026-03-29T13:44:02.731Z</time></trkpt><trkpt lat="46.0463751" lon="12.9326602"><ele>88.0</ele><time>2026-03-29T13:44:03.717Z</time></trkpt><trkpt lat="46.0462784" lon="12.9327474"><ele>87.75</ele><time>2026-03-29T13:44:04.72Z</time></trkpt><trkpt lat="46.0461922" lon="12.9328751"><ele>87.5</ele><time>2026-03-29T13:44:05.734Z</time></trkpt><trkpt lat="46.0461036" lon="12.9329717"><ele>87.25</ele><time>2026-03-29T13:44:06.732Z</time></trkpt><trkpt lat="46.0460118" lon="12.9330638"><ele>87.0</ele><time>2026-03-29T13:44:07.728Z</time></trkpt><trkpt lat="46.0459335" lon="12.9331843"><ele>87.0</ele><time>2026-03-29T13:44:08.721Z</time></trkpt><trkpt lat="46.0458314" lon="12.9332644"><ele>87.0</ele><time>2026-03-29T13:44:09.711Z</time></trkpt><trkpt lat="46.0457217" lon="12.9333514"><ele>87.0</ele><time>2026-03-29T13:44:10.729Z</time></trkpt><trkpt lat="46.0455947" lon="12.9334138"><ele>87.0</ele><time>2026-03-29T13:44:11.726Z</time></trkpt><trkpt lat="46.0454574" lon="12.9334687"><ele>87.33333333333333</ele><time>2026-03-29T13:44:12.72Z</time></trkpt><trkpt lat="46.0453156" lon="12.9335261"><ele>87.66666666666666</ele><time>2026-03-29T13:44:13.706Z</time></trkpt><trkpt lat="46.0451641" lon="12.9335542"><ele>88.0</ele><time>2026-03-29T13:44:14.724Z</time></trkpt><trkpt lat="46.0450097" lon="12.9335783"><ele>88.0</ele><time>2026-03-29T13:44:15.705Z</time></trkpt><trkpt lat="46.0448554" lon="12.9336287"><ele>88.0</ele><time>2026-03-29T13:44:16.741Z</time></trkpt><trkpt lat="46.0447014" lon="12.9336711"><ele>88.0</ele><time>2026-03-29T13:44:17.715Z</time></trkpt><trkpt lat="46.0445486" lon="12.9337147"><ele>88.0</ele><time>2026-03-29T13:44:18.73Z</time></trkpt><trkpt lat="46.0443855" lon="12.9337607"><ele>88.0</ele><time>2026-03-29T13:44:19.727Z</time></trkpt><trkpt lat="46.0442104" lon="12.9337973"><ele>88.0</ele><time>2026-03-29T13:44:20.712Z</time></trkpt><trkpt lat="46.0440294" lon="12.9338306"><ele>87.66666666666666</ele><time>2026-03-29T13:44:21.727Z</time></trkpt><trkpt lat="46.0438426" lon="12.9338683"><ele>87.33333333333333</ele><time>2026-03-29T13:44:22.715Z</time></trkpt><trkpt lat="46.0436519" lon="12.9339051"><ele>87.0</ele><time>2026-03-29T13:44:23.733Z</time></trkpt><trkpt lat="46.0434577" lon="12.933942"><ele>86.66666666666667</ele><time>2026-03-29T13:44:24.71Z</time></trkpt><trkpt lat="46.0432595" lon="12.9339623"><ele>86.33333333333334</ele><time>2026-03-29T13:44:25.711Z</time></trkpt><trkpt lat="46.0430596" lon="12.9339994"><ele>86.0</ele><time>2026-03-29T13:44:26.725Z</time></trkpt><trkpt lat="46.0428569" lon="12.9340415"><ele>86.0</ele><time>2026-03-29T13:44:27.713Z</time></trkpt><trkpt lat="46.04265" lon="12.9340785"><ele>86.0</ele><time>2026-03-29T13:44:28.722Z</time></trkpt><trkpt lat="46.0424426" lon="12.9341213"><ele>86.0</ele><time>2026-03-29T13:44:29.713Z</time></trkpt><trkpt lat="46.042234" lon="12.9341631"><ele>85.66666666666667</ele><time>2026-03-29T13:44:30.72Z</time></trkpt><trkpt lat="46.0420241" lon="12.9342055"><ele>85.33333333333333</ele><time>2026-03-29T13:44:31.743Z</time></trkpt><trkpt lat="46.0418136" lon="12.9342479"><ele>85.0</ele><time>2026-03-29T13:44:32.734Z</time></trkpt><trkpt lat="46.0416017" lon="12.9342887"><ele>85.0</ele><time>2026-03-29T13:44:33.711Z</time></trkpt><trkpt lat="46.0413877" lon="12.9343277"><ele>85.0</ele><time>2026-03-29T13:44:34.706Z</time></trkpt><trkpt lat="46.0411733" lon="12.9343771"><ele>85.0</ele><time>2026-03-29T13:44:35.711Z</time></trkpt><trkpt lat="46.0409574" lon="12.9344219"><ele>84.33333333333333</ele><time>2026-03-29T13:44:36.707Z</time></trkpt><trkpt lat="46.0407402" lon="12.9344678"><ele>83.66666666666667</ele><time>2026-03-29T13:44:37.729Z</time></trkpt><trkpt lat="46.0405219" lon="12.934515"><ele>83.0</ele><time>2026-03-29T13:44:38.717Z</time></trkpt><trkpt lat="46.040303" lon="12.9345667"><ele>83.0</ele><time>2026-03-29T13:44:39.733Z</time></trkpt><trkpt lat="46.0400816" lon="12.9346132"><ele>83.0</ele><time>2026-03-29T13:44:40.729Z</time></trkpt><trkpt lat="46.0398586" lon="12.9346616"><ele>83.0</ele><time>2026-03-29T13:44:41.714Z</time></trkpt><trkpt lat="46.0396339" lon="12.9347078"><ele>83.5</ele><time>2026-03-29T13:44:42.717Z</time></trkpt><trkpt lat="46.0394084" lon="12.9347547"><ele>84.0</ele><time>2026-03-29T13:44:43.735Z</time></trkpt><trkpt lat="46.0391831" lon="12.9348025"><ele>83.0</ele><time>2026-03-29T13:44:44.732Z</time></trkpt><trkpt lat="46.0389579" lon="12.9348503"><ele>82.0</ele><time>2026-03-29T13:44:45.729Z</time></trkpt><trkpt lat="46.0387329" lon="12.9348989"><ele>82.0</ele><time>2026-03-29T13:44:46.727Z</time></trkpt><trkpt lat="46.0385076" lon="12.9349451"><ele>82.0</ele><time>2026-03-29T13:44:47.71Z</time></trkpt><trkpt lat="46.0382823" lon="12.9349921"><ele>82.0</ele><time>2026-03-29T13:44:48.72Z</time></trkpt><trkpt lat="46.0380566" lon="12.9350381"><ele>82.0</ele><time>2026-03-29T13:44:49.718Z</time></trkpt><trkpt lat="46.0378299" lon="12.9350838"><ele>82.0</ele><time>2026-03-29T13:44:50.731Z</time></trkpt><trkpt lat="46.0376027" lon="12.9351316"><ele>82.0</ele><time>2026-03-29T13:44:51.705Z</time></trkpt><trkpt lat="46.0373747" lon="12.9351799"><ele>82.0</ele><time>2026-03-29T13:44:52.711Z</time></trkpt><trkpt lat="46.0371458" lon="12.9352281"><ele>82.0</ele><time>2026-03-29T13:44:53.721Z</time></trkpt><trkpt lat="46.036916" lon="12.9352755"><ele>82.0</ele><time>2026-03-29T13:44:54.721Z</time></trkpt><trkpt lat="46.0366858" lon="12.9353229"><ele>82.0</ele><time>2026-03-29T13:44:55.722Z</time></trkpt><trkpt lat="46.0364556" lon="12.9353707"><ele>82.0</ele><time>2026-03-29T13:44:56.724Z</time></trkpt><trkpt lat="46.0362254" lon="12.9354179"><ele>82.0</ele><time>2026-03-29T13:44:57.721Z</time></trkpt><trkpt lat="46.0359954" lon="12.9354647"><ele>81.0</ele><time>2026-03-29T13:44:58.743Z</time></trkpt><trkpt lat="46.0357646" lon="12.9355084"><ele>80.0</ele><time>2026-03-29T13:44:59.746Z</time></trkpt><trkpt lat="46.0355329" lon="12.9355544"><ele>80.0</ele><time>2026-03-29T13:45:00.743Z</time></trkpt><trkpt lat="46.0353003" lon="12.9356032"><ele>80.0</ele><time>2026-03-29T13:45:01.753Z</time></trkpt><trkpt lat="46.0350683" lon="12.935652"><ele>80.0</ele><time>2026-03-29T13:45:02.72Z</time></trkpt><trkpt lat="46.0348399" lon="12.9357006"><ele>80.0</ele><time>2026-03-29T13:45:03.742Z</time></trkpt><trkpt lat="46.034614" lon="12.9357411"><ele>80.0</ele><time>2026-03-29T13:45:04.742Z</time></trkpt><trkpt lat="46.0343912" lon="12.9357894"><ele>80.0</ele><time>2026-03-29T13:45:05.732Z</time></trkpt><trkpt lat="46.034171" lon="12.9358372"><ele>80.0</ele><time>2026-03-29T13:45:06.739Z</time></trkpt><trkpt lat="46.0339537" lon="12.9358842"><ele>79.66666666666667</ele><time>2026-03-29T13:45:07.736Z</time></trkpt><trkpt lat="46.0337376" lon="12.9359267"><ele>79.33333333333333</ele><time>2026-03-29T13:45:08.731Z</time></trkpt><trkpt lat="46.0335215" lon="12.9359683"><ele>79.0</ele><time>2026-03-29T13:45:09.737Z</time></trkpt><trkpt lat="46.033305" lon="12.9360097"><ele>79.0</ele><time>2026-03-29T13:45:10.724Z</time></trkpt><trkpt lat="46.0330873" lon="12.9360526"><ele>79.0</ele><time>2026-03-29T13:45:11.727Z</time></trkpt><trkpt lat="46.0328658" lon="12.9360995"><ele>79.0</ele><time>2026-03-29T13:45:12.737Z</time></trkpt><trkpt lat="46.0326399" lon="12.9361491"><ele>78.0</ele><time>2026-03-29T13:45:13.707Z</time></trkpt><trkpt lat="46.0324113" lon="12.9361977"><ele>77.0</ele><time>2026-03-29T13:45:14.726Z</time></trkpt><trkpt lat="46.0321825" lon="12.936246"><ele>77.0</ele><time>2026-03-29T13:45:15.73Z</time></trkpt><trkpt lat="46.0319542" lon="12.9362955"><ele>77.0</ele><time>2026-03-29T13:45:16.722Z</time></trkpt><trkpt lat="46.0317261" lon="12.936348"><ele>79.0</ele><time>2026-03-29T13:45:17.735Z</time></trkpt><trkpt lat="46.0314961" lon="12.9364"><ele>81.0</ele><time>2026-03-29T13:45:18.714Z</time></trkpt><trkpt lat="46.0312631" lon="12.9364425"><ele>81.0</ele><time>2026-03-29T13:45:19.729Z</time></trkpt><trkpt lat="46.0310282" lon="12.9364847"><ele>81.0</ele><time>2026-03-29T13:45:20.719Z</time></trkpt><trkpt lat="46.0307924" lon="12.936531"><ele>80.0</ele><time>2026-03-29T13:45:21.727Z</time></trkpt><trkpt lat="46.0305577" lon="12.9365804"><ele>79.0</ele><time>2026-03-29T13:45:22.726Z</time></trkpt><trkpt lat="46.0303238" lon="12.9366309"><ele>79.0</ele><time>2026-03-29T13:45:23.718Z</time></trkpt><trkpt lat="46.0300904" lon="12.9366866"><ele>79.0</ele><time>2026-03-29T13:45:24.725Z</time></trkpt><trkpt lat="46.029858" lon="12.9367472"><ele>78.5</ele><time>2026-03-29T13:45:25.727Z</time></trkpt><trkpt lat="46.029625" lon="12.9367982"><ele>78.0</ele><time>2026-03-29T13:45:26.731Z</time></trkpt><trkpt lat="46.029392" lon="12.9368383"><ele>78.0</ele><time>2026-03-29T13:45:27.724Z</time></trkpt><trkpt lat="46.029161" lon="12.9368834"><ele>78.0</ele><time>2026-03-29T13:45:28.72Z</time></trkpt><trkpt lat="46.0289324" lon="12.9369385"><ele>77.0</ele><time>2026-03-29T13:45:29.724Z</time></trkpt><trkpt lat="46.0287052" lon="12.9369894"><ele>76.0</ele><time>2026-03-29T13:45:30.733Z</time></trkpt><trkpt lat="46.02848" lon="12.9370377"><ele>76.5</ele><time>2026-03-29T13:45:31.716Z</time></trkpt><trkpt lat="46.0282567" lon="12.9370867"><ele>77.0</ele><time>2026-03-29T13:45:32.718Z</time></trkpt><trkpt lat="46.0280356" lon="12.9371406"><ele>77.0</ele><time>2026-03-29T13:45:33.726Z</time></trkpt><trkpt lat="46.0278159" lon="12.937179"><ele>77.0</ele><time>2026-03-29T13:45:34.731Z</time></trkpt><trkpt lat="46.0275979" lon="12.9372248"><ele>77.0</ele><time>2026-03-29T13:45:35.723Z</time></trkpt><trkpt lat="46.027381" lon="12.9372733"><ele>77.0</ele><time>2026-03-29T13:45:36.723Z</time></trkpt><trkpt lat="46.0271651" lon="12.9373196"><ele>77.0</ele><time>2026-03-29T13:45:37.722Z</time></trkpt><trkpt lat="46.0269499" lon="12.9373633"><ele>77.0</ele><time>2026-03-29T13:45:38.725Z</time></trkpt><trkpt lat="46.0267353" lon="12.9374028"><ele>76.66666666666667</ele><time>2026-03-29T13:45:39.718Z</time></trkpt><trkpt lat="46.0265203" lon="12.937436"><ele>76.33333333333333</ele><time>2026-03-29T13:45:40.723Z</time></trkpt><trkpt lat="46.026307" lon="12.9374784"><ele>76.0</ele><time>2026-03-29T13:45:41.745Z</time></trkpt><trkpt lat="46.0260947" lon="12.9375232"><ele>75.33333333333333</ele><time>2026-03-29T13:45:42.742Z</time></trkpt><trkpt lat="46.0258825" lon="12.9375656"><ele>74.66666666666667</ele><time>2026-03-29T13:45:43.73Z</time></trkpt><trkpt lat="46.02567" lon="12.9376079"><ele>74.0</ele><time>2026-03-29T13:45:44.716Z</time></trkpt><trkpt lat="46.0254571" lon="12.9376517"><ele>74.0</ele><time>2026-03-29T13:45:45.713Z</time></trkpt><trkpt lat="46.0252439" lon="12.9376948"><ele>74.0</ele><time>2026-03-29T13:45:46.736Z</time></trkpt><trkpt lat="46.02503" lon="12.9377383"><ele>74.0</ele><time>2026-03-29T13:45:47.72Z</time></trkpt><trkpt lat="46.0248149" lon="12.9377829"><ele>74.0</ele><time>2026-03-29T13:45:48.739Z</time></trkpt><trkpt lat="46.0246" lon="12.9378305"><ele>74.0</ele><time>2026-03-29T13:45:49.734Z</time></trkpt><trkpt lat="46.0243853" lon="12.9378808"><ele>74.0</ele><time>2026-03-29T13:45:50.719Z</time></trkpt><trkpt lat="46.0241688" lon="12.9379292"><ele>73.66666666666667</ele><time>2026-03-29T13:45:51.751Z</time></trkpt><trkpt lat="46.0239495" lon="12.9379748"><ele>73.33333333333333</ele><time>2026-03-29T13:45:52.721Z</time></trkpt><trkpt lat="46.0237265" lon="12.9380188"><ele>73.0</ele><time>2026-03-29T13:45:53.728Z</time></trkpt><trkpt lat="46.0234987" lon="12.9380648"><ele>72.5</ele><time>2026-03-29T13:45:54.718Z</time></trkpt><trkpt lat="46.0232676" lon="12.9381122"><ele>72.0</ele><time>2026-03-29T13:45:55.733Z</time></trkpt><trkpt lat="46.023034" lon="12.9381606"><ele>72.0</ele><time>2026-03-29T13:45:56.726Z</time></trkpt><trkpt lat="46.0227961" lon="12.9382104"><ele>72.0</ele><time>2026-03-29T13:45:57.714Z</time></trkpt><trkpt lat="46.0225512" lon="12.9382609"><ele>72.0</ele><time>2026-03-29T13:45:58.73Z</time></trkpt><trkpt lat="46.022298" lon="12.9383118"><ele>72.0</ele><time>2026-03-29T13:45:59.719Z</time></trkpt><trkpt lat="46.022037" lon="12.9383633"><ele>71.5</ele><time>2026-03-29T13:46:00.726Z</time></trkpt><trkpt lat="46.0217711" lon="12.9384159"><ele>71.0</ele><time>2026-03-29T13:46:01.717Z</time></trkpt><trkpt lat="46.021503" lon="12.9384706"><ele>71.0</ele><time>2026-03-29T13:46:02.724Z</time></trkpt><trkpt lat="46.0212328" lon="12.9385281"><ele>71.0</ele><time>2026-03-29T13:46:03.725Z</time></trkpt><trkpt lat="46.0209603" lon="12.9385857"><ele>71.0</ele><time>2026-03-29T13:46:04.715Z</time></trkpt><trkpt lat="46.0206847" lon="12.9386445"><ele>71.0</ele><time>2026-03-29T13:46:05.729Z</time></trkpt><trkpt lat="46.0204053" lon="12.9387041"><ele>71.0</ele><time>2026-03-29T13:46:06.732Z</time></trkpt><trkpt lat="46.0201217" lon="12.9387649"><ele>71.0</ele><time>2026-03-29T13:46:07.734Z</time></trkpt><trkpt lat="46.0198334" lon="12.9388266"><ele>70.5</ele><time>2026-03-29T13:46:08.746Z</time></trkpt><trkpt lat="46.0195396" lon="12.9388878"><ele>70.0</ele><time>2026-03-29T13:46:09.731Z</time></trkpt><trkpt lat="46.0192414" lon="12.9389487"><ele>70.0</ele><time>2026-03-29T13:46:10.744Z</time></trkpt><trkpt lat="46.0189388" lon="12.9390111"><ele>70.0</ele><time>2026-03-29T13:46:11.744Z</time></trkpt><trkpt lat="46.0186295" lon="12.9390752"><ele>69.5</ele><time>2026-03-29T13:46:12.717Z</time></trkpt><trkpt lat="46.018315" lon="12.9391388"><ele>69.0</ele><time>2026-03-29T13:46:13.725Z</time></trkpt><trkpt lat="46.0180018" lon="12.9392014"><ele>69.0</ele><time>2026-03-29T13:46:14.717Z</time></trkpt><trkpt lat="46.0176942" lon="12.9392636"><ele>69.0</ele><time>2026-03-29T13:46:15.713Z</time></trkpt><trkpt lat="46.0173918" lon="12.9393255"><ele>69.5</ele><time>2026-03-29T13:46:16.73Z</time></trkpt><trkpt lat="46.0170948" lon="12.9393879"><ele>70.0</ele><time>2026-03-29T13:46:17.714Z</time></trkpt><trkpt lat="46.0168004" lon="12.9394524"><ele>70.5</ele><time>2026-03-29T13:46:18.713Z</time></trkpt><trkpt lat="46.0165131" lon="12.9395226"><ele>71.0</ele><time>2026-03-29T13:46:19.725Z</time></trkpt><trkpt lat="46.0162329" lon="12.9395872"><ele>71.0</ele><time>2026-03-29T13:46:20.718Z</time></trkpt><trkpt lat="46.0159578" lon="12.9396366"><ele>71.0</ele><time>2026-03-29T13:46:21.725Z</time></trkpt><trkpt lat="46.0156957" lon="12.9396883"><ele>69.5</ele><time>2026-03-29T13:46:22.723Z</time></trkpt><trkpt lat="46.0154473" lon="12.9397409"><ele>68.0</ele><time>2026-03-29T13:46:23.723Z</time></trkpt><trkpt lat="46.0152088" lon="12.9397916"><ele>69.0</ele><time>2026-03-29T13:46:24.74Z</time></trkpt><trkpt lat="46.0149786" lon="12.9398419"><ele>70.0</ele><time>2026-03-29T13:46:25.718Z</time></trkpt><trkpt lat="46.0147542" lon="12.9398813"><ele>70.0</ele><time>2026-03-29T13:46:26.731Z</time></trkpt><trkpt lat="46.0145341" lon="12.9399232"><ele>70.0</ele><time>2026-03-29T13:46:27.725Z</time></trkpt><trkpt lat="46.0143231" lon="12.9399674"><ele>70.0</ele><time>2026-03-29T13:46:28.714Z</time></trkpt><trkpt lat="46.0141231" lon="12.940017"><ele>69.66666666666666</ele><time>2026-03-29T13:46:29.737Z</time></trkpt><trkpt lat="46.0139316" lon="12.9400671"><ele>69.33333333333333</ele><time>2026-03-29T13:46:30.725Z</time></trkpt><trkpt lat="46.0137476" lon="12.9401071"><ele>69.0</ele><time>2026-03-29T13:46:31.724Z</time></trkpt><trkpt lat="46.01357" lon="12.9401413"><ele>69.0</ele><time>2026-03-29T13:46:32.725Z</time></trkpt><trkpt lat="46.0134013" lon="12.9401758"><ele>69.0</ele><time>2026-03-29T13:46:33.714Z</time></trkpt><trkpt lat="46.0132402" lon="12.9402082"><ele>69.0</ele><time>2026-03-29T13:46:34.721Z</time></trkpt><trkpt lat="46.0130871" lon="12.9402347"><ele>69.0</ele><time>2026-03-29T13:46:35.723Z</time></trkpt><trkpt lat="46.0129417" lon="12.9402834"><ele>69.0</ele><time>2026-03-29T13:46:36.731Z</time></trkpt><trkpt lat="46.0127984" lon="12.9403267"><ele>69.0</ele><time>2026-03-29T13:46:37.729Z</time></trkpt><trkpt lat="46.0126592" lon="12.9403751"><ele>69.0</ele><time>2026-03-29T13:46:38.733Z</time></trkpt><trkpt lat="46.0125255" lon="12.9404386"><ele>69.25</ele><time>2026-03-29T13:46:39.75Z</time></trkpt><trkpt lat="46.0123991" lon="12.9405232"><ele>69.5</ele><time>2026-03-29T13:46:40.738Z</time></trkpt><trkpt lat="46.0122734" lon="12.9406092"><ele>69.75</ele><time>2026-03-29T13:46:41.718Z</time></trkpt><trkpt lat="46.0121512" lon="12.9406899"><ele>70.0</ele><time>2026-03-29T13:46:42.734Z</time></trkpt><trkpt lat="46.0120294" lon="12.9407636"><ele>70.0</ele><time>2026-03-29T13:46:43.752Z</time></trkpt><trkpt lat="46.0119073" lon="12.9408154"><ele>70.0</ele><time>2026-03-29T13:46:44.734Z</time></trkpt><trkpt lat="46.0117973" lon="12.9408894"><ele>70.0</ele><time>2026-03-29T13:46:45.715Z</time></trkpt><trkpt lat="46.0116891" lon="12.9409474"><ele>70.0</ele><time>2026-03-29T13:46:46.736Z</time></trkpt><trkpt lat="46.0115867" lon="12.9409999"><ele>69.75</ele><time>2026-03-29T13:46:47.73Z</time></trkpt><trkpt lat="46.0114865" lon="12.9410549"><ele>69.5</ele><time>2026-03-29T13:46:48.72Z</time></trkpt><trkpt lat="46.0113819" lon="12.9411034"><ele>69.25</ele><time>2026-03-29T13:46:49.728Z</time></trkpt><trkpt lat="46.0112731" lon="12.9411604"><ele>69.0</ele><time>2026-03-29T13:46:50.719Z</time></trkpt><trkpt lat="46.0111584" lon="12.9412117"><ele>69.0</ele><time>2026-03-29T13:46:51.721Z</time></trkpt><trkpt lat="46.0110525" lon="12.9412719"><ele>69.0</ele><time>2026-03-29T13:46:52.729Z</time></trkpt><trkpt lat="46.0109451" lon="12.9413375"><ele>69.0</ele><time>2026-03-29T13:46:53.732Z</time></trkpt><trkpt lat="46.0108356" lon="12.9414021"><ele>69.0</ele><time>2026-03-29T13:46:54.728Z</time></trkpt><trkpt lat="46.0107252" lon="12.9414702"><ele>69.0</ele><time>2026-03-29T13:46:55.729Z</time></trkpt><trkpt lat="46.0106102" lon="12.9415455"><ele>69.0</ele><time>2026-03-29T13:46:56.73Z</time></trkpt><trkpt lat="46.0104882" lon="12.9416236"><ele>69.0</ele><time>2026-03-29T13:46:57.721Z</time></trkpt><trkpt lat="46.0103625" lon="12.941707"><ele>69.0</ele><time>2026-03-29T13:46:58.763Z</time></trkpt><trkpt lat="46.0102397" lon="12.9417804"><ele>68.75</ele><time>2026-03-29T13:46:59.746Z</time></trkpt><trkpt lat="46.0101214" lon="12.9418539"><ele>68.5</ele><time>2026-03-29T13:47:00.729Z</time></trkpt><trkpt lat="46.0100049" lon="12.9419285"><ele>68.25</ele><time>2026-03-29T13:47:01.706Z</time></trkpt><trkpt lat="46.0098905" lon="12.942002"><ele>68.0</ele><time>2026-03-29T13:47:02.723Z</time></trkpt><trkpt lat="46.0097807" lon="12.9420726"><ele>68.0</ele><time>2026-03-29T13:47:03.723Z</time></trkpt><trkpt lat="46.009673" lon="12.9421342"><ele>68.0</ele><time>2026-03-29T13:47:04.722Z</time></trkpt><trkpt lat="46.0095682" lon="12.9421755"><ele>68.0</ele><time>2026-03-29T13:47:05.721Z</time></trkpt><trkpt lat="46.0094657" lon="12.9421868"><ele>68.0</ele><time>2026-03-29T13:47:06.723Z</time></trkpt><trkpt lat="46.0093716" lon="12.9421781"><ele>68.0</ele><time>2026-03-29T13:47:07.731Z</time></trkpt><trkpt lat="46.0092456" lon="12.9421304"><ele>67.0</ele><time>2026-03-29T13:47:08.712Z</time></trkpt><trkpt lat="46.0090768" lon="12.9420634"><ele>66.0</ele><time>2026-03-29T13:47:09.738Z</time></trkpt><trkpt lat="46.008897" lon="12.941983"><ele>65.0</ele><time>2026-03-29T13:47:10.732Z</time></trkpt><trkpt lat="46.0087326" lon="12.9418929"><ele>65.0</ele><time>2026-03-29T13:47:11.727Z</time></trkpt><trkpt lat="46.0085646" lon="12.9417945"><ele>65.0</ele><time>2026-03-29T13:47:12.722Z</time></trkpt><trkpt lat="46.0084114" lon="12.9416986"><ele>65.0</ele><time>2026-03-29T13:47:13.742Z</time></trkpt><trkpt lat="46.0082633" lon="12.9416048"><ele>65.66666666666667</ele><time>2026-03-29T13:47:14.712Z</time></trkpt><trkpt lat="46.0081111" lon="12.9415082"><ele>66.33333333333333</ele><time>2026-03-29T13:47:15.746Z</time></trkpt><trkpt lat="46.0079632" lon="12.9414169"><ele>67.0</ele><time>2026-03-29T13:47:16.728Z</time></trkpt><trkpt lat="46.0078106" lon="12.9413258"><ele>67.0</ele><time>2026-03-29T13:47:17.731Z</time></trkpt><trkpt lat="46.0076568" lon="12.9412339"><ele>67.0</ele><time>2026-03-29T13:47:18.711Z</time></trkpt><trkpt lat="46.0074928" lon="12.9411356"><ele>67.0</ele><time>2026-03-29T13:47:19.741Z</time></trkpt><trkpt lat="46.0073288" lon="12.9410395"><ele>66.33333333333333</ele><time>2026-03-29T13:47:20.702Z</time></trkpt><trkpt lat="46.0071588" lon="12.9409387"><ele>65.66666666666667</ele><time>2026-03-29T13:47:21.721Z</time></trkpt><trkpt lat="46.0069876" lon="12.9408364"><ele>65.0</ele><time>2026-03-29T13:47:22.724Z</time></trkpt><trkpt lat="46.0068136" lon="12.9407332"><ele>64.33333333333334</ele><time>2026-03-29T13:47:23.731Z</time></trkpt><trkpt lat="46.0066341" lon="12.9406275"><ele>63.66666666666667</ele><time>2026-03-29T13:47:24.732Z</time></trkpt><trkpt lat="46.0064528" lon="12.9405207"><ele>63.0</ele><time>2026-03-29T13:47:25.715Z</time></trkpt><trkpt lat="46.0062692" lon="12.9404142"><ele>63.0</ele><time>2026-03-29T13:47:26.728Z</time></trkpt><trkpt lat="46.0060849" lon="12.940309"><ele>63.0</ele><time>2026-03-29T13:47:27.724Z</time></trkpt><trkpt lat="46.005899" lon="12.9402029"><ele>63.0</ele><time>2026-03-29T13:47:28.713Z</time></trkpt><trkpt lat="46.0057111" lon="12.9400936"><ele>63.0</ele><time>2026-03-29T13:47:29.728Z</time></trkpt><trkpt lat="46.005521" lon="12.939984"><ele>63.0</ele><time>2026-03-29T13:47:30.728Z</time></trkpt><trkpt lat="46.0053336" lon="12.9398775"><ele>63.0</ele><time>2026-03-29T13:47:31.733Z</time></trkpt><trkpt lat="46.0051442" lon="12.939771"><ele>62.66666666666667</ele><time>2026-03-29T13:47:32.725Z</time></trkpt><trkpt lat="46.0049556" lon="12.9396636"><ele>62.333333333333336</ele><time>2026-03-29T13:47:33.727Z</time></trkpt><trkpt lat="46.0047637" lon="12.9395552"><ele>62.0</ele><time>2026-03-29T13:47:34.709Z</time></trkpt><trkpt lat="46.0045696" lon="12.939443"><ele>62.0</ele><time>2026-03-29T13:47:35.721Z</time></trkpt><trkpt lat="46.0043774" lon="12.9393337"><ele>62.0</ele><time>2026-03-29T13:47:36.722Z</time></trkpt><trkpt lat="46.0041822" lon="12.9392235"><ele>62.0</ele><time>2026-03-29T13:47:37.733Z</time></trkpt><trkpt lat="46.003993" lon="12.9391168"><ele>61.0</ele><time>2026-03-29T13:47:38.729Z</time></trkpt><trkpt lat="46.0038066" lon="12.9390084"><ele>60.0</ele><time>2026-03-29T13:47:39.722Z</time></trkpt><trkpt lat="46.0036193" lon="12.9389025"><ele>59.0</ele><time>2026-03-29T13:47:40.724Z</time></trkpt><trkpt lat="46.0034335" lon="12.9388008"><ele>58.333333333333336</ele><time>2026-03-29T13:47:41.741Z</time></trkpt><trkpt lat="46.00325" lon="12.9387021"><ele>57.66666666666667</ele><time>2026-03-29T13:47:42.729Z</time></trkpt><trkpt lat="46.0030643" lon="12.9385998"><ele>57.0</ele><time>2026-03-29T13:47:43.732Z</time></trkpt><trkpt lat="46.0028802" lon="12.9384983"><ele>57.0</ele><time>2026-03-29T13:47:44.734Z</time></trkpt><trkpt lat="46.0026963" lon="12.9383985"><ele>57.0</ele><time>2026-03-29T13:47:45.729Z</time></trkpt><trkpt lat="46.0025103" lon="12.9382934"><ele>57.0</ele><time>2026-03-29T13:47:46.735Z</time></trkpt><trkpt lat="46.0023271" lon="12.9381884"><ele>57.33333333333333</ele><time>2026-03-29T13:47:47.73Z</time></trkpt><trkpt lat="46.0021407" lon="12.9380811"><ele>57.666666666666664</ele><time>2026-03-29T13:47:48.742Z</time></trkpt><trkpt lat="46.0019593" lon="12.9379758"><ele>58.0</ele><time>2026-03-29T13:47:49.733Z</time></trkpt><trkpt lat="46.0017752" lon="12.9378708"><ele>57.33333333333333</ele><time>2026-03-29T13:47:50.733Z</time></trkpt><trkpt lat="46.0015932" lon="12.9377679"><ele>56.66666666666667</ele><time>2026-03-29T13:47:51.734Z</time></trkpt><trkpt lat="46.0014136" lon="12.9376629"><ele>56.0</ele><time>2026-03-29T13:47:52.73Z</time></trkpt><trkpt lat="46.0012385" lon="12.9375584"><ele>56.333333333333336</ele><time>2026-03-29T13:47:53.715Z</time></trkpt><trkpt lat="46.0010595" lon="12.9374532"><ele>56.66666666666667</ele><time>2026-03-29T13:47:54.731Z</time></trkpt><trkpt lat="46.0008833" lon="12.9373485"><ele>57.0</ele><time>2026-03-29T13:47:55.736Z</time></trkpt><trkpt lat="46.0007117" lon="12.9372476"><ele>57.0</ele><time>2026-03-29T13:47:56.729Z</time></trkpt><trkpt lat="46.0005407" lon="12.9371486"><ele>57.0</ele><time>2026-03-29T13:47:57.727Z</time></trkpt><trkpt lat="46.0003694" lon="12.9370528"><ele>57.0</ele><time>2026-03-29T13:47:58.728Z</time></trkpt><trkpt lat="46.0001972" lon="12.936957"><ele>57.0</ele><time>2026-03-29T13:47:59.741Z</time></trkpt><trkpt lat="46.000029" lon="12.9368652"><ele>57.0</ele><time>2026-03-29T13:48:00.719Z</time></trkpt><trkpt lat="45.9998545" lon="12.9367672"><ele>57.0</ele><time>2026-03-29T13:48:01.743Z</time></trkpt><trkpt lat="45.9996858" lon="12.9366707"><ele>57.0</ele><time>2026-03-29T13:48:02.725Z</time></trkpt><trkpt lat="45.9995146" lon="12.9365727"><ele>57.0</ele><time>2026-03-29T13:48:03.721Z</time></trkpt><trkpt lat="45.9993419" lon="12.9364713"><ele>57.0</ele><time>2026-03-29T13:48:04.745Z</time></trkpt><trkpt lat="45.9991712" lon="12.9363705"><ele>57.0</ele><time>2026-03-29T13:48:05.732Z</time></trkpt><trkpt lat="45.998997" lon="12.9362708"><ele>57.0</ele><time>2026-03-29T13:48:06.743Z</time></trkpt><trkpt lat="45.9988245" lon="12.9361728"><ele>57.0</ele><time>2026-03-29T13:48:07.737Z</time></trkpt><trkpt lat="45.9986511" lon="12.9360721"><ele>57.0</ele><time>2026-03-29T13:48:08.734Z</time></trkpt><trkpt lat="45.9984782" lon="12.935973"><ele>57.0</ele><time>2026-03-29T13:48:09.723Z</time></trkpt><trkpt lat="45.9983027" lon="12.9358769"><ele>57.0</ele><time>2026-03-29T13:48:10.728Z</time></trkpt><trkpt lat="45.9981262" lon="12.9357785"><ele>57.0</ele><time>2026-03-29T13:48:11.722Z</time></trkpt><trkpt lat="45.9979468" lon="12.9356747"><ele>57.0</ele><time>2026-03-29T13:48:12.75Z</time></trkpt><trkpt lat="45.9977681" lon="12.9355674"><ele>57.0</ele><time>2026-03-29T13:48:13.73Z</time></trkpt><trkpt lat="45.9975822" lon="12.9354561"><ele>56.33333333333333</ele><time>2026-03-29T13:48:14.731Z</time></trkpt><trkpt lat="45.9973943" lon="12.935348"><ele>55.666666666666664</ele><time>2026-03-29T13:48:15.735Z</time></trkpt><trkpt lat="45.9972045" lon="12.9352418"><ele>55.0</ele><time>2026-03-29T13:48:16.724Z</time></trkpt><trkpt lat="45.9970112" lon="12.9351337"><ele>55.0</ele><time>2026-03-29T13:48:17.742Z</time></trkpt><trkpt lat="45.9968198" lon="12.9350261"><ele>55.0</ele><time>2026-03-29T13:48:18.734Z</time></trkpt><trkpt lat="45.9966269" lon="12.9349164"><ele>55.0</ele><time>2026-03-29T13:48:19.725Z</time></trkpt><trkpt lat="45.9964339" lon="12.934804"><ele>55.0</ele><time>2026-03-29T13:48:20.723Z</time></trkpt><trkpt lat="45.9962367" lon="12.9346917"><ele>55.0</ele><time>2026-03-29T13:48:21.73Z</time></trkpt><trkpt lat="45.9960398" lon="12.9345774"><ele>55.0</ele><time>2026-03-29T13:48:22.732Z</time></trkpt><trkpt lat="45.9958442" lon="12.9344731"><ele>54.666666666666664</ele><time>2026-03-29T13:48:23.726Z</time></trkpt><trkpt lat="45.9956438" lon="12.9343617"><ele>54.33333333333333</ele><time>2026-03-29T13:48:24.724Z</time></trkpt><trkpt lat="45.9954497" lon="12.9342568"><ele>54.0</ele><time>2026-03-29T13:48:25.73Z</time></trkpt><trkpt lat="45.9952583" lon="12.9341527"><ele>54.0</ele><time>2026-03-29T13:48:26.727Z</time></trkpt><trkpt lat="45.9950666" lon="12.9340448"><ele>54.0</ele><time>2026-03-29T13:48:27.732Z</time></trkpt><trkpt lat="45.9948753" lon="12.9339353"><ele>54.0</ele><time>2026-03-29T13:48:28.727Z</time></trkpt><trkpt lat="45.9946802" lon="12.9338226"><ele>54.0</ele><time>2026-03-29T13:48:29.738Z</time></trkpt><trkpt lat="45.9944864" lon="12.933711"><ele>54.0</ele><time>2026-03-29T13:48:30.733Z</time></trkpt><trkpt lat="45.9942965" lon="12.9336023"><ele>54.0</ele><time>2026-03-29T13:48:31.714Z</time></trkpt><trkpt lat="45.994103" lon="12.9334916"><ele>54.0</ele><time>2026-03-29T13:48:32.736Z</time></trkpt><trkpt lat="45.9939191" lon="12.9333842"><ele>54.0</ele><time>2026-03-29T13:48:33.73Z</time></trkpt><trkpt lat="45.9937409" lon="12.9332805"><ele>54.0</ele><time>2026-03-29T13:48:34.723Z</time></trkpt><trkpt lat="45.9935621" lon="12.9331781"><ele>54.0</ele><time>2026-03-29T13:48:35.736Z</time></trkpt><trkpt lat="45.9933896" lon="12.9330799"><ele>54.0</ele><time>2026-03-29T13:48:36.732Z</time></trkpt><trkpt lat="45.9932182" lon="12.9329832"><ele>54.0</ele><time>2026-03-29T13:48:37.731Z</time></trkpt><trkpt lat="45.9930461" lon="12.9328863"><ele>54.33333333333333</ele><time>2026-03-29T13:48:38.744Z</time></trkpt><trkpt lat="45.9928806" lon="12.9327913"><ele>54.666666666666664</ele><time>2026-03-29T13:48:39.714Z</time></trkpt><trkpt lat="45.9927104" lon="12.93269"><ele>55.0</ele><time>2026-03-29T13:48:40.742Z</time></trkpt><trkpt lat="45.9925435" lon="12.9325877"><ele>55.33333333333333</ele><time>2026-03-29T13:48:41.735Z</time></trkpt><trkpt lat="45.9923727" lon="12.9324882"><ele>55.66666666666667</ele><time>2026-03-29T13:48:42.729Z</time></trkpt><trkpt lat="45.9921946" lon="12.9323868"><ele>56.0</ele><time>2026-03-29T13:48:43.744Z</time></trkpt><trkpt lat="45.9920148" lon="12.9322864"><ele>56.0</ele><time>2026-03-29T13:48:44.734Z</time></trkpt><trkpt lat="45.9918318" lon="12.9321822"><ele>56.0</ele><time>2026-03-29T13:48:45.741Z</time></trkpt><trkpt lat="45.9916527" lon="12.9320805"><ele>56.0</ele><time>2026-03-29T13:48:46.711Z</time></trkpt><trkpt lat="45.9914662" lon="12.9319715"><ele>56.0</ele><time>2026-03-29T13:48:47.731Z</time></trkpt><trkpt lat="45.9912834" lon="12.9318631"><ele>56.0</ele><time>2026-03-29T13:48:48.732Z</time></trkpt><trkpt lat="45.9911018" lon="12.9317544"><ele>56.0</ele><time>2026-03-29T13:48:49.739Z</time></trkpt><trkpt lat="45.9909226" lon="12.9316488"><ele>55.333333333333336</ele><time>2026-03-29T13:48:50.743Z</time></trkpt><trkpt lat="45.9907445" lon="12.9315472"><ele>54.66666666666667</ele><time>2026-03-29T13:48:51.731Z</time></trkpt><trkpt lat="45.9905657" lon="12.9314439"><ele>54.0</ele><time>2026-03-29T13:48:52.74Z</time></trkpt><trkpt lat="45.9903899" lon="12.931341"><ele>54.0</ele><time>2026-03-29T13:48:53.743Z</time></trkpt><trkpt lat="45.990215" lon="12.9312389"><ele>54.0</ele><time>2026-03-29T13:48:54.731Z</time></trkpt><trkpt lat="45.990039" lon="12.9311374"><ele>54.0</ele><time>2026-03-29T13:48:55.74Z</time></trkpt><trkpt lat="45.9898628" lon="12.9310371"><ele>54.0</ele><time>2026-03-29T13:48:56.719Z</time></trkpt><trkpt lat="45.9896734" lon="12.9309304"><ele>54.0</ele><time>2026-03-29T13:48:57.725Z</time></trkpt><trkpt lat="45.9894748" lon="12.9308237"><ele>54.0</ele><time>2026-03-29T13:48:58.722Z</time></trkpt><trkpt lat="45.9892639" lon="12.9307133"><ele>55.0</ele><time>2026-03-29T13:48:59.718Z</time></trkpt><trkpt lat="45.9890439" lon="12.9305975"><ele>56.0</ele><time>2026-03-29T13:49:00.715Z</time></trkpt><trkpt lat="45.9888181" lon="12.9304717"><ele>56.0</ele><time>2026-03-29T13:49:01.719Z</time></trkpt><trkpt lat="45.9885927" lon="12.9303378"><ele>56.0</ele><time>2026-03-29T13:49:02.725Z</time></trkpt><trkpt lat="45.9883733" lon="12.9301999"><ele>54.5</ele><time>2026-03-29T13:49:03.721Z</time></trkpt><trkpt lat="45.9881545" lon="12.9300658"><ele>53.0</ele><time>2026-03-29T13:49:04.719Z</time></trkpt><trkpt lat="45.9879356" lon="12.9299382"><ele>53.0</ele><time>2026-03-29T13:49:05.728Z</time></trkpt><trkpt lat="45.9877214" lon="12.9298158"><ele>53.0</ele><time>2026-03-29T13:49:06.723Z</time></trkpt><trkpt lat="45.9875061" lon="12.9296932"><ele>52.5</ele><time>2026-03-29T13:49:07.729Z</time></trkpt><trkpt lat="45.9872942" lon="12.9295709"><ele>52.0</ele><time>2026-03-29T13:49:08.724Z</time></trkpt><trkpt lat="45.9870838" lon="12.9294468"><ele>52.0</ele><time>2026-03-29T13:49:09.727Z</time></trkpt><trkpt lat="45.9868776" lon="12.9293248"><ele>52.0</ele><time>2026-03-29T13:49:10.718Z</time></trkpt><trkpt lat="45.9866738" lon="12.9292072"><ele>52.0</ele><time>2026-03-29T13:49:11.731Z</time></trkpt><trkpt lat="45.9864733" lon="12.9290929"><ele>52.666666666666664</ele><time>2026-03-29T13:49:12.749Z</time></trkpt><trkpt lat="45.9862763" lon="12.9289753"><ele>53.33333333333333</ele><time>2026-03-29T13:49:13.727Z</time></trkpt><trkpt lat="45.986083" lon="12.9288632"><ele>54.0</ele><time>2026-03-29T13:49:14.738Z</time></trkpt><trkpt lat="45.985896" lon="12.9287572"><ele>53.66666666666667</ele><time>2026-03-29T13:49:15.724Z</time></trkpt><trkpt lat="45.9857061" lon="12.9286504"><ele>53.333333333333336</ele><time>2026-03-29T13:49:16.722Z</time></trkpt><trkpt lat="45.985513" lon="12.9285418"><ele>53.0</ele><time>2026-03-29T13:49:17.734Z</time></trkpt><trkpt lat="45.9853288" lon="12.9284369"><ele>52.66666666666667</ele><time>2026-03-29T13:49:18.728Z</time></trkpt><trkpt lat="45.9851449" lon="12.9283299"><ele>52.33333333333333</ele><time>2026-03-29T13:49:19.74Z</time></trkpt><trkpt lat="45.9849675" lon="12.9282301"><ele>52.0</ele><time>2026-03-29T13:49:20.716Z</time></trkpt><trkpt lat="45.9847923" lon="12.9281403"><ele>51.666666666666664</ele><time>2026-03-29T13:49:21.729Z</time></trkpt><trkpt lat="45.9846196" lon="12.9280672"><ele>51.33333333333333</ele><time>2026-03-29T13:49:22.729Z</time></trkpt><trkpt lat="45.9844433" lon="12.9280245"><ele>51.0</ele><time>2026-03-29T13:49:23.745Z</time></trkpt><trkpt lat="45.9842672" lon="12.928019"><ele>51.66666666666667</ele><time>2026-03-29T13:49:24.737Z</time></trkpt><trkpt lat="45.9840744" lon="12.9280264"><ele>52.333333333333336</ele><time>2026-03-29T13:49:25.73Z</time></trkpt><trkpt lat="45.9838821" lon="12.9280471"><ele>53.0</ele><time>2026-03-29T13:49:26.73Z</time></trkpt><trkpt lat="45.9836734" lon="12.9280728"><ele>53.0</ele><time>2026-03-29T13:49:27.742Z</time></trkpt><trkpt lat="45.9834708" lon="12.928097"><ele>53.0</ele><time>2026-03-29T13:49:28.716Z</time></trkpt><trkpt lat="45.9832601" lon="12.9281222"><ele>53.0</ele><time>2026-03-29T13:49:29.722Z</time></trkpt><trkpt lat="45.9830534" lon="12.9281437"><ele>52.333333333333336</ele><time>2026-03-29T13:49:30.721Z</time></trkpt><trkpt lat="45.982841" lon="12.9281761"><ele>51.66666666666667</ele><time>2026-03-29T13:49:31.718Z</time></trkpt><trkpt lat="45.9826277" lon="12.9281962"><ele>51.0</ele><time>2026-03-29T13:49:32.697Z</time></trkpt><trkpt lat="45.9824119" lon="12.9282351"><ele>51.0</ele><time>2026-03-29T13:49:33.73Z</time></trkpt><trkpt lat="45.9821939" lon="12.9282562"><ele>51.0</ele><time>2026-03-29T13:49:34.715Z</time></trkpt><trkpt lat="45.9819738" lon="12.9282771"><ele>51.0</ele><time>2026-03-29T13:49:35.724Z</time></trkpt><trkpt lat="45.9817526" lon="12.9283024"><ele>51.0</ele><time>2026-03-29T13:49:36.71Z</time></trkpt><trkpt lat="45.98153" lon="12.9283281"><ele>51.0</ele><time>2026-03-29T13:49:37.719Z</time></trkpt><trkpt lat="45.9813066" lon="12.9283546"><ele>51.0</ele><time>2026-03-29T13:49:38.722Z</time></trkpt><trkpt lat="45.9810836" lon="12.928381"><ele>50.66666666666667</ele><time>2026-03-29T13:49:39.722Z</time></trkpt><trkpt lat="45.9808606" lon="12.9284087"><ele>50.333333333333336</ele><time>2026-03-29T13:49:40.711Z</time></trkpt><trkpt lat="45.9806371" lon="12.9284359"><ele>50.0</ele><time>2026-03-29T13:49:41.719Z</time></trkpt><trkpt lat="45.9804123" lon="12.9284626"><ele>50.0</ele><time>2026-03-29T13:49:42.725Z</time></trkpt><trkpt lat="45.9801867" lon="12.928492"><ele>50.0</ele><time>2026-03-29T13:49:43.719Z</time></trkpt><trkpt lat="45.9799611" lon="12.9285192"><ele>50.0</ele><time>2026-03-29T13:49:44.726Z</time></trkpt><trkpt lat="45.9797355" lon="12.9285468"><ele>50.0</ele><time>2026-03-29T13:49:45.714Z</time></trkpt><trkpt lat="45.9795105" lon="12.9285714"><ele>50.0</ele><time>2026-03-29T13:49:46.737Z</time></trkpt><trkpt lat="45.9792872" lon="12.928613"><ele>50.0</ele><time>2026-03-29T13:49:47.736Z</time></trkpt><trkpt lat="45.9790655" lon="12.9286426"><ele>50.0</ele><time>2026-03-29T13:49:48.741Z</time></trkpt><trkpt lat="45.9788443" lon="12.9286699"><ele>50.0</ele><time>2026-03-29T13:49:49.723Z</time></trkpt><trkpt lat="45.9786236" lon="12.9286977"><ele>50.0</ele><time>2026-03-29T13:49:50.721Z</time></trkpt><trkpt lat="45.9784035" lon="12.928727"><ele>50.0</ele><time>2026-03-29T13:49:51.719Z</time></trkpt><trkpt lat="45.9781835" lon="12.9287551"><ele>50.0</ele><time>2026-03-29T13:49:52.724Z</time></trkpt><trkpt lat="45.9779628" lon="12.9287861"><ele>50.0</ele><time>2026-03-29T13:49:53.74Z</time></trkpt><trkpt lat="45.9777419" lon="12.9288179"><ele>50.0</ele><time>2026-03-29T13:49:54.733Z</time></trkpt><trkpt lat="45.9775211" lon="12.9288458"><ele>49.333333333333336</ele><time>2026-03-29T13:49:55.726Z</time></trkpt><trkpt lat="45.9773" lon="12.9288708"><ele>48.66666666666667</ele><time>2026-03-29T13:49:56.724Z</time></trkpt><trkpt lat="45.9770783" lon="12.9288963"><ele>48.0</ele><time>2026-03-29T13:49:57.716Z</time></trkpt><trkpt lat="45.9768565" lon="12.9289228"><ele>49.0</ele><time>2026-03-29T13:49:58.717Z</time></trkpt><trkpt lat="45.9766353" lon="12.9289502"><ele>50.0</ele><time>2026-03-29T13:49:59.721Z</time></trkpt><trkpt lat="45.9764148" lon="12.9289772"><ele>51.0</ele><time>2026-03-29T13:50:00.722Z</time></trkpt><trkpt lat="45.9761946" lon="12.9290032"><ele>51.0</ele><time>2026-03-29T13:50:01.711Z</time></trkpt><trkpt lat="45.9759754" lon="12.9290317"><ele>51.0</ele><time>2026-03-29T13:50:02.729Z</time></trkpt><trkpt lat="45.9757581" lon="12.92906"><ele>51.0</ele><time>2026-03-29T13:50:03.73Z</time></trkpt><trkpt lat="45.9755424" lon="12.9290793"><ele>51.66666666666667</ele><time>2026-03-29T13:50:04.726Z</time></trkpt><trkpt lat="45.9753289" lon="12.9291056"><ele>52.333333333333336</ele><time>2026-03-29T13:50:05.73Z</time></trkpt><trkpt lat="45.9751165" lon="12.929134"><ele>53.0</ele><time>2026-03-29T13:50:06.757Z</time></trkpt><trkpt lat="45.9749056" lon="12.929162"><ele>51.66666666666667</ele><time>2026-03-29T13:50:07.732Z</time></trkpt><trkpt lat="45.9746991" lon="12.9291873"><ele>50.33333333333333</ele><time>2026-03-29T13:50:08.723Z</time></trkpt><trkpt lat="45.9744969" lon="12.9292072"><ele>49.0</ele><time>2026-03-29T13:50:09.719Z</time></trkpt><trkpt lat="45.9742956" lon="12.9292168"><ele>48.666666666666664</ele><time>2026-03-29T13:50:10.722Z</time></trkpt><trkpt lat="45.9740935" lon="12.9292039"><ele>48.33333333333333</ele><time>2026-03-29T13:50:11.726Z</time></trkpt><trkpt lat="45.9738889" lon="12.9291585"><ele>48.0</ele><time>2026-03-29T13:50:12.726Z</time></trkpt><trkpt lat="45.9736819" lon="12.92908"><ele>48.0</ele><time>2026-03-29T13:50:13.728Z</time></trkpt><trkpt lat="45.9734703" lon="12.928996"><ele>48.0</ele><time>2026-03-29T13:50:14.715Z</time></trkpt><trkpt lat="45.9732573" lon="12.9288997"><ele>48.0</ele><time>2026-03-29T13:50:15.734Z</time></trkpt><trkpt lat="45.973038" lon="12.9288078"><ele>47.5</ele><time>2026-03-29T13:50:16.723Z</time></trkpt><trkpt lat="45.9728167" lon="12.9287166"><ele>47.0</ele><time>2026-03-29T13:50:17.728Z</time></trkpt><trkpt lat="45.9725982" lon="12.9286153"><ele>46.0</ele><time>2026-03-29T13:50:18.75Z</time></trkpt><trkpt lat="45.9723768" lon="12.9285298"><ele>45.0</ele><time>2026-03-29T13:50:19.737Z</time></trkpt><trkpt lat="45.9721563" lon="12.9284461"><ele>45.0</ele><time>2026-03-29T13:50:20.729Z</time></trkpt><trkpt lat="45.9719386" lon="12.9283582"><ele>45.0</ele><time>2026-03-29T13:50:21.727Z</time></trkpt><trkpt lat="45.9717234" lon="12.9282676"><ele>45.333333333333336</ele><time>2026-03-29T13:50:22.719Z</time></trkpt><trkpt lat="45.9715083" lon="12.9281889"><ele>45.66666666666667</ele><time>2026-03-29T13:50:23.725Z</time></trkpt><trkpt lat="45.9712994" lon="12.9280972"><ele>46.0</ele><time>2026-03-29T13:50:24.724Z</time></trkpt><trkpt lat="45.9710966" lon="12.9280174"><ele>46.0</ele><time>2026-03-29T13:50:25.718Z</time></trkpt><trkpt lat="45.9709025" lon="12.927943"><ele>46.0</ele><time>2026-03-29T13:50:26.736Z</time></trkpt><trkpt lat="45.9707178" lon="12.9278735"><ele>46.0</ele><time>2026-03-29T13:50:27.735Z</time></trkpt><trkpt lat="45.9705447" lon="12.9278081"><ele>46.333333333333336</ele><time>2026-03-29T13:50:28.731Z</time></trkpt><trkpt lat="45.9703813" lon="12.9277555"><ele>46.666666666666664</ele><time>2026-03-29T13:50:29.738Z</time></trkpt><trkpt lat="45.9702299" lon="12.9277096"><ele>47.0</ele><time>2026-03-29T13:50:30.73Z</time></trkpt><trkpt lat="45.970096" lon="12.9276528"><ele>47.0</ele><time>2026-03-29T13:50:31.722Z</time></trkpt><trkpt lat="45.969971" lon="12.9275983"><ele>47.0</ele><time>2026-03-29T13:50:32.754Z</time></trkpt><trkpt lat="45.9698503" lon="12.9275424"><ele>47.0</ele><time>2026-03-29T13:50:33.727Z</time></trkpt><trkpt lat="45.9697317" lon="12.9274926"><ele>47.0</ele><time>2026-03-29T13:50:34.73Z</time></trkpt><trkpt lat="45.9696208" lon="12.9274479"><ele>47.0</ele><time>2026-03-29T13:50:35.721Z</time></trkpt><trkpt lat="45.9695152" lon="12.9274029"><ele>47.0</ele><time>2026-03-29T13:50:36.731Z</time></trkpt><trkpt lat="45.9694098" lon="12.9273573"><ele>47.0</ele><time>2026-03-29T13:50:37.723Z</time></trkpt><trkpt lat="45.9693068" lon="12.9273052"><ele>47.0</ele><time>2026-03-29T13:50:38.739Z</time></trkpt><trkpt lat="45.9692084" lon="12.9272496"><ele>47.0</ele><time>2026-03-29T13:50:39.742Z</time></trkpt><trkpt lat="45.9691163" lon="12.9271774"><ele>47.25</ele><time>2026-03-29T13:50:40.721Z</time></trkpt><trkpt lat="45.9690253" lon="12.9270954"><ele>47.5</ele><time>2026-03-29T13:50:41.75Z</time></trkpt><trkpt lat="45.9689419" lon="12.926987"><ele>47.75</ele><time>2026-03-29T13:50:42.747Z</time></trkpt><trkpt lat="45.9688583" lon="12.9268638"><ele>48.0</ele><time>2026-03-29T13:50:43.724Z</time></trkpt><trkpt lat="45.9687732" lon="12.9267229"><ele>48.0</ele><time>2026-03-29T13:50:44.742Z</time></trkpt><trkpt lat="45.9686926" lon="12.9265563"><ele>48.0</ele><time>2026-03-29T13:50:45.729Z</time></trkpt><trkpt lat="45.968626" lon="12.9263543"><ele>48.0</ele><time>2026-03-29T13:50:46.725Z</time></trkpt><trkpt lat="45.9685687" lon="12.9261274"><ele>47.666666666666664</ele><time>2026-03-29T13:50:47.747Z</time></trkpt><trkpt lat="45.9685226" lon="12.9258828"><ele>47.33333333333333</ele><time>2026-03-29T13:50:48.733Z</time></trkpt><trkpt lat="45.9684811" lon="12.9256274"><ele>47.0</ele><time>2026-03-29T13:50:49.735Z</time></trkpt><trkpt lat="45.9684347" lon="12.925357"><ele>47.0</ele><time>2026-03-29T13:50:50.732Z</time></trkpt><trkpt lat="45.9683854" lon="12.9250637"><ele>47.0</ele><time>2026-03-29T13:50:51.717Z</time></trkpt><trkpt lat="45.9683292" lon="12.9247499"><ele>47.0</ele><time>2026-03-29T13:50:52.718Z</time></trkpt><trkpt lat="45.9682612" lon="12.9244258"><ele>46.5</ele><time>2026-03-29T13:50:53.735Z</time></trkpt><trkpt lat="45.9681791" lon="12.9241053"><ele>46.0</ele><time>2026-03-29T13:50:54.722Z</time></trkpt><trkpt lat="45.9681156" lon="12.9237801"><ele>46.0</ele><time>2026-03-29T13:50:55.727Z</time></trkpt><trkpt lat="45.9680365" lon="12.923472"><ele>46.0</ele><time>2026-03-29T13:50:56.717Z</time></trkpt><trkpt lat="45.9679578" lon="12.9231677"><ele>45.66666666666667</ele><time>2026-03-29T13:50:57.713Z</time></trkpt><trkpt lat="45.9678747" lon="12.9228678"><ele>45.333333333333336</ele><time>2026-03-29T13:50:58.73Z</time></trkpt><trkpt lat="45.9677881" lon="12.9225694"><ele>45.0</ele><time>2026-03-29T13:50:59.723Z</time></trkpt><trkpt lat="45.9677014" lon="12.92227"><ele>44.5</ele><time>2026-03-29T13:51:00.731Z</time></trkpt><trkpt lat="45.9676153" lon="12.9219692"><ele>44.0</ele><time>2026-03-29T13:51:01.739Z</time></trkpt><trkpt lat="45.9675271" lon="12.9216734"><ele>44.666666666666664</ele><time>2026-03-29T13:51:02.718Z</time></trkpt><trkpt lat="45.9674397" lon="12.9213788"><ele>45.333333333333336</ele><time>2026-03-29T13:51:03.744Z</time></trkpt><trkpt lat="45.9673573" lon="12.9210872"><ele>46.0</ele><time>2026-03-29T13:51:04.741Z</time></trkpt><trkpt lat="45.967275" lon="12.9207987"><ele>46.0</ele><time>2026-03-29T13:51:05.728Z</time></trkpt><trkpt lat="45.9671855" lon="12.9205159"><ele>46.0</ele><time>2026-03-29T13:51:06.715Z</time></trkpt><trkpt lat="45.9671003" lon="12.9202312"><ele>46.0</ele><time>2026-03-29T13:51:07.729Z</time></trkpt><trkpt lat="45.9670168" lon="12.9199471"><ele>46.333333333333336</ele><time>2026-03-29T13:51:08.722Z</time></trkpt><trkpt lat="45.9669343" lon="12.9196658"><ele>46.666666666666664</ele><time>2026-03-29T13:51:09.714Z</time></trkpt><trkpt lat="45.9668532" lon="12.9193864"><ele>47.0</ele><time>2026-03-29T13:51:10.72Z</time></trkpt><trkpt lat="45.9667724" lon="12.9191077"><ele>46.666666666666664</ele><time>2026-03-29T13:51:11.726Z</time></trkpt><trkpt lat="45.9666922" lon="12.9188277"><ele>46.333333333333336</ele><time>2026-03-29T13:51:12.719Z</time></trkpt><trkpt lat="45.9666116" lon="12.9185455"><ele>46.0</ele><time>2026-03-29T13:51:13.728Z</time></trkpt><trkpt lat="45.9665309" lon="12.918261"><ele>45.66666666666667</ele><time>2026-03-29T13:51:14.714Z</time></trkpt><trkpt lat="45.9664494" lon="12.9179765"><ele>45.333333333333336</ele><time>2026-03-29T13:51:15.723Z</time></trkpt><trkpt lat="45.9663723" lon="12.9176899"><ele>45.0</ele><time>2026-03-29T13:51:16.718Z</time></trkpt><trkpt lat="45.9663002" lon="12.9174031"><ele>45.0</ele><time>2026-03-29T13:51:17.723Z</time></trkpt><trkpt lat="45.9662254" lon="12.9171213"><ele>45.0</ele><time>2026-03-29T13:51:18.733Z</time></trkpt><trkpt lat="45.9661496" lon="12.9168424"><ele>45.0</ele><time>2026-03-29T13:51:19.737Z</time></trkpt><trkpt lat="45.9660573" lon="12.9165731"><ele>45.0</ele><time>2026-03-29T13:51:20.742Z</time></trkpt><trkpt lat="45.965979" lon="12.9162981"><ele>45.0</ele><time>2026-03-29T13:51:21.728Z</time></trkpt><trkpt lat="45.9659003" lon="12.9160255"><ele>45.0</ele><time>2026-03-29T13:51:22.73Z</time></trkpt><trkpt lat="45.9658255" lon="12.9157506"><ele>45.0</ele><time>2026-03-29T13:51:23.726Z</time></trkpt><trkpt lat="45.9657467" lon="12.9154769"><ele>45.0</ele><time>2026-03-29T13:51:24.759Z</time></trkpt><trkpt lat="45.9656626" lon="12.9152064"><ele>45.0</ele><time>2026-03-29T13:51:25.703Z</time></trkpt><trkpt lat="45.9655728" lon="12.9149381"><ele>45.0</ele><time>2026-03-29T13:51:26.724Z</time></trkpt><trkpt lat="45.9654741" lon="12.9146729"><ele>45.0</ele><time>2026-03-29T13:51:27.715Z</time></trkpt><trkpt lat="45.9653722" lon="12.9144047"><ele>45.0</ele><time>2026-03-29T13:51:28.731Z</time></trkpt><trkpt lat="45.9652711" lon="12.9141269"><ele>45.0</ele><time>2026-03-29T13:51:29.719Z</time></trkpt><trkpt lat="45.9651746" lon="12.9138389"><ele>45.0</ele><time>2026-03-29T13:51:30.729Z</time></trkpt><trkpt lat="45.965074" lon="12.9135531"><ele>45.0</ele><time>2026-03-29T13:51:31.728Z</time></trkpt><trkpt lat="45.9649882" lon="12.9132602"><ele>45.0</ele><time>2026-03-29T13:51:32.729Z</time></trkpt><trkpt lat="45.9649071" lon="12.9129679"><ele>45.0</ele><time>2026-03-29T13:51:33.714Z</time></trkpt><trkpt lat="45.9648321" lon="12.9126774"><ele>45.0</ele><time>2026-03-29T13:51:34.726Z</time></trkpt><trkpt lat="45.9647735" lon="12.9123858"><ele>45.333333333333336</ele><time>2026-03-29T13:51:35.73Z</time></trkpt><trkpt lat="45.9647265" lon="12.9120948"><ele>45.66666666666667</ele><time>2026-03-29T13:51:36.73Z</time></trkpt><trkpt lat="45.9646916" lon="12.9118038"><ele>46.0</ele><time>2026-03-29T13:51:37.74Z</time></trkpt><trkpt lat="45.9646721" lon="12.9115114"><ele>46.66666666666667</ele><time>2026-03-29T13:51:38.739Z</time></trkpt><trkpt lat="45.9646614" lon="12.9112172"><ele>47.333333333333336</ele><time>2026-03-29T13:51:39.715Z</time></trkpt><trkpt lat="45.9646569" lon="12.9109205"><ele>48.0</ele><time>2026-03-29T13:51:40.741Z</time></trkpt><trkpt lat="45.9646571" lon="12.910622"><ele>48.0</ele><time>2026-03-29T13:51:41.73Z</time></trkpt><trkpt lat="45.9646617" lon="12.9103229"><ele>48.0</ele><time>2026-03-29T13:51:42.727Z</time></trkpt><trkpt lat="45.9646773" lon="12.9100238"><ele>48.0</ele><time>2026-03-29T13:51:43.72Z</time></trkpt><trkpt lat="45.9646926" lon="12.9097221"><ele>47.666666666666664</ele><time>2026-03-29T13:51:44.734Z</time></trkpt><trkpt lat="45.9647068" lon="12.9094175"><ele>47.33333333333333</ele><time>2026-03-29T13:51:45.731Z</time></trkpt><trkpt lat="45.9647205" lon="12.9091102"><ele>47.0</ele><time>2026-03-29T13:51:46.732Z</time></trkpt><trkpt lat="45.9647328" lon="12.9088018"><ele>46.0</ele><time>2026-03-29T13:51:47.742Z</time></trkpt><trkpt lat="45.9647439" lon="12.9084917"><ele>45.0</ele><time>2026-03-29T13:51:48.722Z</time></trkpt><trkpt lat="45.9647577" lon="12.9081805"><ele>44.0</ele><time>2026-03-29T13:51:49.722Z</time></trkpt><trkpt lat="45.964777" lon="12.9078716"><ele>43.666666666666664</ele><time>2026-03-29T13:51:50.728Z</time></trkpt><trkpt lat="45.964794" lon="12.9075671"><ele>43.333333333333336</ele><time>2026-03-29T13:51:51.71Z</time></trkpt><trkpt lat="45.9648084" lon="12.9072664"><ele>43.0</ele><time>2026-03-29T13:51:52.737Z</time></trkpt><trkpt lat="45.9648176" lon="12.9069682"><ele>42.66666666666667</ele><time>2026-03-29T13:51:53.717Z</time></trkpt><trkpt lat="45.9648242" lon="12.9066713"><ele>42.333333333333336</ele><time>2026-03-29T13:51:54.723Z</time></trkpt><trkpt lat="45.9648341" lon="12.9063753"><ele>42.0</ele><time>2026-03-29T13:51:55.707Z</time></trkpt><trkpt lat="45.9648492" lon="12.906081"><ele>43.333333333333336</ele><time>2026-03-29T13:51:56.718Z</time></trkpt><trkpt lat="45.9648633" lon="12.9057865"><ele>44.66666666666667</ele><time>2026-03-29T13:51:57.721Z</time></trkpt><trkpt lat="45.964875" lon="12.9054883"><ele>46.0</ele><time>2026-03-29T13:51:58.727Z</time></trkpt><trkpt lat="45.9648886" lon="12.9051865"><ele>46.333333333333336</ele><time>2026-03-29T13:51:59.716Z</time></trkpt><trkpt lat="45.9649017" lon="12.9048816"><ele>46.666666666666664</ele><time>2026-03-29T13:52:00.718Z</time></trkpt><trkpt lat="45.9649139" lon="12.9045757"><ele>47.0</ele><time>2026-03-29T13:52:01.715Z</time></trkpt><trkpt lat="45.9649246" lon="12.9042699"><ele>46.33333333333333</ele><time>2026-03-29T13:52:02.727Z</time></trkpt><trkpt lat="45.9649391" lon="12.9039644"><ele>45.666666666666664</ele><time>2026-03-29T13:52:03.716Z</time></trkpt><trkpt lat="45.9649549" lon="12.9036588"><ele>45.0</ele><time>2026-03-29T13:52:04.731Z</time></trkpt><trkpt lat="45.9649702" lon="12.9033531"><ele>44.666666666666664</ele><time>2026-03-29T13:52:05.719Z</time></trkpt><trkpt lat="45.9649827" lon="12.903047"><ele>44.33333333333333</ele><time>2026-03-29T13:52:06.718Z</time></trkpt><trkpt lat="45.9649944" lon="12.902743"><ele>44.0</ele><time>2026-03-29T13:52:07.716Z</time></trkpt><trkpt lat="45.9650065" lon="12.9024409"><ele>43.666666666666664</ele><time>2026-03-29T13:52:08.711Z</time></trkpt><trkpt lat="45.9650194" lon="12.9021387"><ele>43.333333333333336</ele><time>2026-03-29T13:52:09.728Z</time></trkpt><trkpt lat="45.9650333" lon="12.9018363"><ele>43.0</ele><time>2026-03-29T13:52:10.713Z</time></trkpt><trkpt lat="45.9650487" lon="12.9015343"><ele>42.66666666666667</ele><time>2026-03-29T13:52:11.747Z</time></trkpt><trkpt lat="45.9650697" lon="12.9012326"><ele>42.333333333333336</ele><time>2026-03-29T13:52:12.7Z</time></trkpt><trkpt lat="45.9650851" lon="12.9009307"><ele>42.0</ele><time>2026-03-29T13:52:13.714Z</time></trkpt><trkpt lat="45.9651061" lon="12.9006337"><ele>42.666666666666664</ele><time>2026-03-29T13:52:14.712Z</time></trkpt><trkpt lat="45.9651204" lon="12.9003413"><ele>43.33333333333333</ele><time>2026-03-29T13:52:15.728Z</time></trkpt><trkpt lat="45.9651323" lon="12.9000513"><ele>44.0</ele><time>2026-03-29T13:52:16.696Z</time></trkpt><trkpt lat="45.9651426" lon="12.8997566"><ele>44.0</ele><time>2026-03-29T13:52:17.711Z</time></trkpt><trkpt lat="45.9651507" lon="12.8994536"><ele>44.0</ele><time>2026-03-29T13:52:18.707Z</time></trkpt><trkpt lat="45.965158" lon="12.8991429"><ele>44.0</ele><time>2026-03-29T13:52:19.715Z</time></trkpt><trkpt lat="45.9651645" lon="12.898823"><ele>44.5</ele><time>2026-03-29T13:52:20.724Z</time></trkpt><trkpt lat="45.9651609" lon="12.8984923"><ele>45.0</ele><time>2026-03-29T13:52:21.713Z</time></trkpt><trkpt lat="45.965169" lon="12.8981488"><ele>46.0</ele><time>2026-03-29T13:52:22.735Z</time></trkpt><trkpt lat="45.9651894" lon="12.8978026"><ele>47.0</ele><time>2026-03-29T13:52:23.734Z</time></trkpt><trkpt lat="45.9652141" lon="12.8974658"><ele>47.0</ele><time>2026-03-29T13:52:24.73Z</time></trkpt><trkpt lat="45.9652466" lon="12.8971416"><ele>47.0</ele><time>2026-03-29T13:52:25.718Z</time></trkpt><trkpt lat="45.965256" lon="12.8968275"><ele>47.0</ele><time>2026-03-29T13:52:26.743Z</time></trkpt><trkpt lat="45.9652783" lon="12.8965296"><ele>46.666666666666664</ele><time>2026-03-29T13:52:27.722Z</time></trkpt><trkpt lat="45.9652892" lon="12.8962413"><ele>46.333333333333336</ele><time>2026-03-29T13:52:28.727Z</time></trkpt><trkpt lat="45.9652904" lon="12.8959557"><ele>46.0</ele><time>2026-03-29T13:52:29.713Z</time></trkpt><trkpt lat="45.9652711" lon="12.895668"><ele>45.66666666666667</ele><time>2026-03-29T13:52:30.713Z</time></trkpt><trkpt lat="45.9652629" lon="12.8953779"><ele>45.333333333333336</ele><time>2026-03-29T13:52:31.712Z</time></trkpt><trkpt lat="45.965235" lon="12.8950836"><ele>45.0</ele><time>2026-03-29T13:52:32.712Z</time></trkpt><trkpt lat="45.9652091" lon="12.894786"><ele>45.0</ele><time>2026-03-29T13:52:33.707Z</time></trkpt><trkpt lat="45.965173" lon="12.8944864"><ele>45.0</ele><time>2026-03-29T13:52:34.742Z</time></trkpt><trkpt lat="45.9651468" lon="12.8941831"><ele>45.0</ele><time>2026-03-29T13:52:35.71Z</time></trkpt><trkpt lat="45.9651014" lon="12.8938821"><ele>45.666666666666664</ele><time>2026-03-29T13:52:36.713Z</time></trkpt><trkpt lat="45.9650543" lon="12.8935853"><ele>46.33333333333333</ele><time>2026-03-29T13:52:37.729Z</time></trkpt><trkpt lat="45.9650116" lon="12.8932986"><ele>47.0</ele><time>2026-03-29T13:52:38.714Z</time></trkpt><trkpt lat="45.9649676" lon="12.8930231"><ele>47.33333333333333</ele><time>2026-03-29T13:52:39.721Z</time></trkpt><trkpt lat="45.9649081" lon="12.8927582"><ele>47.666666666666664</ele><time>2026-03-29T13:52:40.729Z</time></trkpt><trkpt lat="45.9648485" lon="12.8924918"><ele>48.0</ele><time>2026-03-29T13:52:41.746Z</time></trkpt><trkpt lat="45.9647869" lon="12.8922213"><ele>47.333333333333336</ele><time>2026-03-29T13:52:42.732Z</time></trkpt><trkpt lat="45.9647263" lon="12.8919436"><ele>46.66666666666667</ele><time>2026-03-29T13:52:43.737Z</time></trkpt><trkpt lat="45.9646653" lon="12.8916563"><ele>46.0</ele><time>2026-03-29T13:52:44.732Z</time></trkpt><trkpt lat="45.9646082" lon="12.8913555"><ele>46.0</ele><time>2026-03-29T13:52:45.726Z</time></trkpt><trkpt lat="45.9645478" lon="12.8910473"><ele>46.0</ele><time>2026-03-29T13:52:46.723Z</time></trkpt><trkpt lat="45.9644829" lon="12.8907347"><ele>46.0</ele><time>2026-03-29T13:52:47.716Z</time></trkpt><trkpt lat="45.964416" lon="12.8904195"><ele>45.5</ele><time>2026-03-29T13:52:48.732Z</time></trkpt><trkpt lat="45.9643548" lon="12.8901019"><ele>45.0</ele><time>2026-03-29T13:52:49.732Z</time></trkpt><trkpt lat="45.9642998" lon="12.8897912"><ele>45.0</ele><time>2026-03-29T13:52:50.74Z</time></trkpt><trkpt lat="45.9642411" lon="12.8894977"><ele>45.0</ele><time>2026-03-29T13:52:51.723Z</time></trkpt><trkpt lat="45.9641738" lon="12.8892203"><ele>45.0</ele><time>2026-03-29T13:52:52.722Z</time></trkpt><trkpt lat="45.964093" lon="12.8889633"><ele>45.0</ele><time>2026-03-29T13:52:53.718Z</time></trkpt><trkpt lat="45.964001" lon="12.8887253"><ele>45.0</ele><time>2026-03-29T13:52:54.729Z</time></trkpt><trkpt lat="45.9638908" lon="12.8885067"><ele>45.0</ele><time>2026-03-29T13:52:55.718Z</time></trkpt><trkpt lat="45.9637644" lon="12.8883057"><ele>45.0</ele><time>2026-03-29T13:52:56.701Z</time></trkpt><trkpt lat="45.9636236" lon="12.8881207"><ele>45.0</ele><time>2026-03-29T13:52:57.705Z</time></trkpt><trkpt lat="45.9634685" lon="12.8879551"><ele>45.0</ele><time>2026-03-29T13:52:58.73Z</time></trkpt><trkpt lat="45.9633015" lon="12.8878143"><ele>45.0</ele><time>2026-03-29T13:52:59.716Z</time></trkpt><trkpt lat="45.963123" lon="12.887697"><ele>45.0</ele><time>2026-03-29T13:53:00.725Z</time></trkpt><trkpt lat="45.9629369" lon="12.8876025"><ele>45.0</ele><time>2026-03-29T13:53:01.731Z</time></trkpt><trkpt lat="45.9627434" lon="12.8875376"><ele>45.0</ele><time>2026-03-29T13:53:02.753Z</time></trkpt><trkpt lat="45.9625458" lon="12.8875013"><ele>45.0</ele><time>2026-03-29T13:53:03.707Z</time></trkpt><trkpt lat="45.9623443" lon="12.887498"><ele>45.0</ele><time>2026-03-29T13:53:04.718Z</time></trkpt><trkpt lat="45.9621423" lon="12.8875219"><ele>45.333333333333336</ele><time>2026-03-29T13:53:05.733Z</time></trkpt><trkpt lat="45.9619397" lon="12.8875698"><ele>45.66666666666667</ele><time>2026-03-29T13:53:06.714Z</time></trkpt><trkpt lat="45.9617338" lon="12.8876415"><ele>46.0</ele><time>2026-03-29T13:53:07.718Z</time></trkpt><trkpt lat="45.9615253" lon="12.8877268"><ele>45.333333333333336</ele><time>2026-03-29T13:53:08.725Z</time></trkpt><trkpt lat="45.9613152" lon="12.8878209"><ele>44.666666666666664</ele><time>2026-03-29T13:53:09.723Z</time></trkpt><trkpt lat="45.961101" lon="12.8879178"><ele>44.0</ele><time>2026-03-29T13:53:10.733Z</time></trkpt><trkpt lat="45.9608835" lon="12.8880262"><ele>43.5</ele><time>2026-03-29T13:53:11.744Z</time></trkpt><trkpt lat="45.9606635" lon="12.8881375"><ele>43.0</ele><time>2026-03-29T13:53:12.71Z</time></trkpt><trkpt lat="45.9604431" lon="12.8882438"><ele>43.0</ele><time>2026-03-29T13:53:13.72Z</time></trkpt><trkpt lat="45.9602171" lon="12.888346"><ele>43.0</ele><time>2026-03-29T13:53:14.723Z</time></trkpt><trkpt lat="45.9599913" lon="12.8884461"><ele>44.0</ele><time>2026-03-29T13:53:15.726Z</time></trkpt><trkpt lat="45.9597681" lon="12.8885535"><ele>45.0</ele><time>2026-03-29T13:53:16.712Z</time></trkpt><trkpt lat="45.9595484" lon="12.8886593"><ele>45.0</ele><time>2026-03-29T13:53:17.722Z</time></trkpt><trkpt lat="45.9593332" lon="12.8887542"><ele>45.0</ele><time>2026-03-29T13:53:18.727Z</time></trkpt><trkpt lat="45.9591228" lon="12.8888475"><ele>45.0</ele><time>2026-03-29T13:53:19.711Z</time></trkpt><trkpt lat="45.9589213" lon="12.8889256"><ele>45.0</ele><time>2026-03-29T13:53:20.733Z</time></trkpt><trkpt lat="45.9587266" lon="12.8889782"><ele>45.0</ele><time>2026-03-29T13:53:21.731Z</time></trkpt><trkpt lat="45.958533" lon="12.8889939"><ele>45.0</ele><time>2026-03-29T13:53:22.733Z</time></trkpt><trkpt lat="45.958333" lon="12.8889699"><ele>44.0</ele><time>2026-03-29T13:53:23.737Z</time></trkpt><trkpt lat="45.9581251" lon="12.8889319"><ele>43.0</ele><time>2026-03-29T13:53:24.749Z</time></trkpt><trkpt lat="45.9579231" lon="12.8888287"><ele>42.0</ele><time>2026-03-29T13:53:25.72Z</time></trkpt><trkpt lat="45.9577319" lon="12.8886837"><ele>42.0</ele><time>2026-03-29T13:53:26.73Z</time></trkpt><trkpt lat="45.957541" lon="12.8885252"><ele>42.0</ele><time>2026-03-29T13:53:27.724Z</time></trkpt><trkpt lat="45.9573518" lon="12.8883778"><ele>42.0</ele><time>2026-03-29T13:53:28.732Z</time></trkpt><trkpt lat="45.9571694" lon="12.8882405"><ele>41.666666666666664</ele><time>2026-03-29T13:53:29.716Z</time></trkpt><trkpt lat="45.9570008" lon="12.8880875"><ele>41.33333333333333</ele><time>2026-03-29T13:53:30.736Z</time></trkpt><trkpt lat="45.9568325" lon="12.8879522"><ele>41.0</ele><time>2026-03-29T13:53:31.733Z</time></trkpt><trkpt lat="45.956665" lon="12.8878216"><ele>41.666666666666664</ele><time>2026-03-29T13:53:32.728Z</time></trkpt><trkpt lat="45.9565076" lon="12.8876786"><ele>42.333333333333336</ele><time>2026-03-29T13:53:33.721Z</time></trkpt><trkpt lat="45.9563552" lon="12.8875441"><ele>43.0</ele><time>2026-03-29T13:53:34.719Z</time></trkpt><trkpt lat="45.9562056" lon="12.8874258"><ele>43.0</ele><time>2026-03-29T13:53:35.71Z</time></trkpt><trkpt lat="45.956064" lon="12.8873112"><ele>43.0</ele><time>2026-03-29T13:53:36.724Z</time></trkpt><trkpt lat="45.9559321" lon="12.8872012"><ele>43.0</ele><time>2026-03-29T13:53:37.724Z</time></trkpt><trkpt lat="45.9558132" lon="12.8870861"><ele>42.5</ele><time>2026-03-29T13:53:38.719Z</time></trkpt><trkpt lat="45.9557159" lon="12.8869607"><ele>42.0</ele><time>2026-03-29T13:53:39.728Z</time></trkpt><trkpt lat="45.955639" lon="12.8868273"><ele>41.5</ele><time>2026-03-29T13:53:40.729Z</time></trkpt><trkpt lat="45.9555993" lon="12.886672"><ele>41.0</ele><time>2026-03-29T13:53:41.721Z</time></trkpt><trkpt lat="45.9555591" lon="12.8865328"><ele>41.0</ele><time>2026-03-29T13:53:42.716Z</time></trkpt><trkpt lat="45.9554877" lon="12.8864333"><ele>41.0</ele><time>2026-03-29T13:53:43.77Z</time></trkpt><trkpt lat="45.9553943" lon="12.8863931"><ele>41.0</ele><time>2026-03-29T13:53:44.709Z</time></trkpt><trkpt lat="45.9552847" lon="12.8864065"><ele>41.0</ele><time>2026-03-29T13:53:45.731Z</time></trkpt><trkpt lat="45.9551754" lon="12.886438"><ele>41.0</ele><time>2026-03-29T13:53:46.731Z</time></trkpt><trkpt lat="45.9550494" lon="12.8864364"><ele>40.666666666666664</ele><time>2026-03-29T13:53:47.718Z</time></trkpt><trkpt lat="45.95491" lon="12.8863853"><ele>40.333333333333336</ele><time>2026-03-29T13:53:48.731Z</time></trkpt><trkpt lat="45.9547751" lon="12.8862794"><ele>40.0</ele><time>2026-03-29T13:53:49.733Z</time></trkpt><trkpt lat="45.9546281" lon="12.8861796"><ele>40.0</ele><time>2026-03-29T13:53:50.728Z</time></trkpt><trkpt lat="45.9544724" lon="12.886068"><ele>40.0</ele><time>2026-03-29T13:53:51.743Z</time></trkpt><trkpt lat="45.9543126" lon="12.8859481"><ele>40.0</ele><time>2026-03-29T13:53:52.714Z</time></trkpt><trkpt lat="45.954148" lon="12.8858273"><ele>40.333333333333336</ele><time>2026-03-29T13:53:53.722Z</time></trkpt><trkpt lat="45.9539806" lon="12.8857079"><ele>40.666666666666664</ele><time>2026-03-29T13:53:54.725Z</time></trkpt><trkpt lat="45.9538132" lon="12.8855979"><ele>41.0</ele><time>2026-03-29T13:53:55.718Z</time></trkpt><trkpt lat="45.953648" lon="12.8854794"><ele>41.0</ele><time>2026-03-29T13:53:56.721Z</time></trkpt><trkpt lat="45.9534849" lon="12.885357"><ele>41.0</ele><time>2026-03-29T13:53:57.719Z</time></trkpt><trkpt lat="45.9533241" lon="12.885242"><ele>41.0</ele><time>2026-03-29T13:53:58.713Z</time></trkpt><trkpt lat="45.9531679" lon="12.8851305"><ele>41.0</ele><time>2026-03-29T13:53:59.723Z</time></trkpt><trkpt lat="45.9530152" lon="12.8850216"><ele>41.0</ele><time>2026-03-29T13:54:00.719Z</time></trkpt><trkpt lat="45.9528667" lon="12.8849127"><ele>41.0</ele><time>2026-03-29T13:54:01.725Z</time></trkpt><trkpt lat="45.95272" lon="12.8848032"><ele>41.0</ele><time>2026-03-29T13:54:02.713Z</time></trkpt><trkpt lat="45.9525726" lon="12.8846942"><ele>41.0</ele><time>2026-03-29T13:54:03.726Z</time></trkpt><trkpt lat="45.9524228" lon="12.8845806"><ele>41.0</ele><time>2026-03-29T13:54:04.713Z</time></trkpt><trkpt lat="45.9522698" lon="12.8844598"><ele>41.0</ele><time>2026-03-29T13:54:05.735Z</time></trkpt><trkpt lat="45.9521106" lon="12.8843397"><ele>41.0</ele><time>2026-03-29T13:54:06.736Z</time></trkpt><trkpt lat="45.9519464" lon="12.8842187"><ele>41.0</ele><time>2026-03-29T13:54:07.714Z</time></trkpt><trkpt lat="45.9517792" lon="12.8840953"><ele>41.0</ele><time>2026-03-29T13:54:08.731Z</time></trkpt><trkpt lat="45.9516086" lon="12.8839663"><ele>41.0</ele><time>2026-03-29T13:54:09.723Z</time></trkpt><trkpt lat="45.9514362" lon="12.8838343"><ele>41.0</ele><time>2026-03-29T13:54:10.729Z</time></trkpt><trkpt lat="45.951264" lon="12.8837047"><ele>41.0</ele><time>2026-03-29T13:54:11.711Z</time></trkpt><trkpt lat="45.9510924" lon="12.8835767"><ele>41.0</ele><time>2026-03-29T13:54:12.731Z</time></trkpt><trkpt lat="45.9509235" lon="12.883453"><ele>41.0</ele><time>2026-03-29T13:54:13.736Z</time></trkpt><trkpt lat="45.9507635" lon="12.8833288"><ele>40.666666666666664</ele><time>2026-03-29T13:54:14.725Z</time></trkpt><trkpt lat="45.9506116" lon="12.8832127"><ele>40.333333333333336</ele><time>2026-03-29T13:54:15.718Z</time></trkpt><trkpt lat="45.9504614" lon="12.8831085"><ele>40.0</ele><time>2026-03-29T13:54:16.724Z</time></trkpt><trkpt lat="45.9503147" lon="12.8829992"><ele>40.0</ele><time>2026-03-29T13:54:17.745Z</time></trkpt><trkpt lat="45.950169" lon="12.8828878"><ele>40.0</ele><time>2026-03-29T13:54:18.732Z</time></trkpt><trkpt lat="45.9500177" lon="12.8827718"><ele>40.0</ele><time>2026-03-29T13:54:19.72Z</time></trkpt><trkpt lat="45.9498564" lon="12.8826407"><ele>39.66666666666667</ele><time>2026-03-29T13:54:20.722Z</time></trkpt><trkpt lat="45.9496787" lon="12.8825205"><ele>39.333333333333336</ele><time>2026-03-29T13:54:21.722Z</time></trkpt><trkpt lat="45.9495038" lon="12.8823909"><ele>39.0</ele><time>2026-03-29T13:54:22.729Z</time></trkpt><trkpt lat="45.9493203" lon="12.8822645"><ele>39.333333333333336</ele><time>2026-03-29T13:54:23.742Z</time></trkpt><trkpt lat="45.9491349" lon="12.8821292"><ele>39.66666666666667</ele><time>2026-03-29T13:54:24.72Z</time></trkpt><trkpt lat="45.9489489" lon="12.8819916"><ele>40.0</ele><time>2026-03-29T13:54:25.72Z</time></trkpt><trkpt lat="45.9487634" lon="12.8818523"><ele>40.333333333333336</ele><time>2026-03-29T13:54:26.709Z</time></trkpt><trkpt lat="45.94858" lon="12.8817077"><ele>40.666666666666664</ele><time>2026-03-29T13:54:27.725Z</time></trkpt><trkpt lat="45.9483991" lon="12.8815715"><ele>41.0</ele><time>2026-03-29T13:54:28.728Z</time></trkpt><trkpt lat="45.948224" lon="12.8814437"><ele>41.0</ele><time>2026-03-29T13:54:29.711Z</time></trkpt><trkpt lat="45.948055" lon="12.8813214"><ele>41.0</ele><time>2026-03-29T13:54:30.718Z</time></trkpt><trkpt lat="45.9478911" lon="12.8812035"><ele>41.0</ele><time>2026-03-29T13:54:31.73Z</time></trkpt><trkpt lat="45.9477333" lon="12.8810844"><ele>41.0</ele><time>2026-03-29T13:54:32.724Z</time></trkpt><trkpt lat="45.9475788" lon="12.8809665"><ele>41.0</ele><time>2026-03-29T13:54:33.739Z</time></trkpt><trkpt lat="45.9474317" lon="12.880857"><ele>41.0</ele><time>2026-03-29T13:54:34.728Z</time></trkpt><trkpt lat="45.9472972" lon="12.8807443"><ele>40.5</ele><time>2026-03-29T13:54:35.719Z</time></trkpt><trkpt lat="45.9471732" lon="12.8806404"><ele>40.0</ele><time>2026-03-29T13:54:36.731Z</time></trkpt><trkpt lat="45.9470675" lon="12.8805437"><ele>39.5</ele><time>2026-03-29T13:54:37.724Z</time></trkpt><trkpt lat="45.9469797" lon="12.8804419"><ele>39.0</ele><time>2026-03-29T13:54:38.717Z</time></trkpt><trkpt lat="45.9469026" lon="12.8803291"><ele>39.0</ele><time>2026-03-29T13:54:39.732Z</time></trkpt><trkpt lat="45.9468488" lon="12.8801965"><ele>39.0</ele><time>2026-03-29T13:54:40.721Z</time></trkpt><trkpt lat="45.9468318" lon="12.8800568"><ele>39.0</ele><time>2026-03-29T13:54:41.721Z</time></trkpt><trkpt lat="45.9468231" lon="12.8799227"><ele>39.0</ele><time>2026-03-29T13:54:42.735Z</time></trkpt><trkpt lat="45.9467806" lon="12.879797"><ele>39.0</ele><time>2026-03-29T13:54:43.723Z</time></trkpt><trkpt lat="45.946725" lon="12.879674"><ele>39.2</ele><time>2026-03-29T13:54:44.721Z</time></trkpt><trkpt lat="45.9466448" lon="12.8795715"><ele>39.4</ele><time>2026-03-29T13:54:45.731Z</time></trkpt><trkpt lat="45.946559" lon="12.8794931"><ele>39.6</ele><time>2026-03-29T13:54:46.711Z</time></trkpt><trkpt lat="45.9464595" lon="12.8794497"><ele>39.8</ele><time>2026-03-29T13:54:47.73Z</time></trkpt><trkpt lat="45.9463518" lon="12.8794358"><ele>40.0</ele><time>2026-03-29T13:54:48.721Z</time></trkpt><trkpt lat="45.9462399" lon="12.8794616"><ele>40.0</ele><time>2026-03-29T13:54:49.731Z</time></trkpt><trkpt lat="45.9461237" lon="12.8795067"><ele>40.0</ele><time>2026-03-29T13:54:50.72Z</time></trkpt><trkpt lat="45.9460111" lon="12.8795467"><ele>40.0</ele><time>2026-03-29T13:54:51.715Z</time></trkpt><trkpt lat="45.9458984" lon="12.879583"><ele>40.0</ele><time>2026-03-29T13:54:52.736Z</time></trkpt><trkpt lat="45.9457726" lon="12.8795535"><ele>39.333333333333336</ele><time>2026-03-29T13:54:53.739Z</time></trkpt><trkpt lat="45.9456378" lon="12.8794897"><ele>38.666666666666664</ele><time>2026-03-29T13:54:54.722Z</time></trkpt><trkpt lat="45.9454969" lon="12.8793841"><ele>38.0</ele><time>2026-03-29T13:54:55.742Z</time></trkpt><trkpt lat="45.9453543" lon="12.8792716"><ele>38.666666666666664</ele><time>2026-03-29T13:54:56.736Z</time></trkpt><trkpt lat="45.9452116" lon="12.8791663"><ele>39.333333333333336</ele><time>2026-03-29T13:54:57.725Z</time></trkpt><trkpt lat="45.9450698" lon="12.8790609"><ele>40.0</ele><time>2026-03-29T13:54:58.714Z</time></trkpt><trkpt lat="45.9449326" lon="12.8789641"><ele>40.0</ele><time>2026-03-29T13:54:59.714Z</time></trkpt><trkpt lat="45.9447917" lon="12.8788745"><ele>40.0</ele><time>2026-03-29T13:55:00.715Z</time></trkpt><trkpt lat="45.9446563" lon="12.8787584"><ele>40.0</ele><time>2026-03-29T13:55:01.71Z</time></trkpt><trkpt lat="45.9445162" lon="12.8786593"><ele>40.0</ele><time>2026-03-29T13:55:02.724Z</time></trkpt><trkpt lat="45.9443745" lon="12.8785492"><ele>40.0</ele><time>2026-03-29T13:55:03.727Z</time></trkpt><trkpt lat="45.9442235" lon="12.8784524"><ele>40.0</ele><time>2026-03-29T13:55:04.731Z</time></trkpt><trkpt lat="45.9440691" lon="12.8783435"><ele>39.66666666666667</ele><time>2026-03-29T13:55:05.71Z</time></trkpt><trkpt lat="45.9439093" lon="12.8782229"><ele>39.333333333333336</ele><time>2026-03-29T13:55:06.72Z</time></trkpt><trkpt lat="45.943718" lon="12.8781073"><ele>39.0</ele><time>2026-03-29T13:55:07.727Z</time></trkpt><trkpt lat="45.9435183" lon="12.8779617"><ele>39.0</ele><time>2026-03-29T13:55:08.723Z</time></trkpt><trkpt lat="45.9433204" lon="12.877819"><ele>39.0</ele><time>2026-03-29T13:55:09.712Z</time></trkpt><trkpt lat="45.943127" lon="12.8776694"><ele>39.0</ele><time>2026-03-29T13:55:10.722Z</time></trkpt><trkpt lat="45.9429383" lon="12.877525"><ele>39.0</ele><time>2026-03-29T13:55:11.73Z</time></trkpt><trkpt lat="45.9427571" lon="12.8773866"><ele>39.0</ele><time>2026-03-29T13:55:12.737Z</time></trkpt><trkpt lat="45.9425698" lon="12.8772451"><ele>39.0</ele><time>2026-03-29T13:55:13.733Z</time></trkpt><trkpt lat="45.9423724" lon="12.8771036"><ele>39.5</ele><time>2026-03-29T13:55:14.74Z</time></trkpt><trkpt lat="45.9421674" lon="12.8769518"><ele>40.0</ele><time>2026-03-29T13:55:15.741Z</time></trkpt><trkpt lat="45.9419566" lon="12.8767928"><ele>39.5</ele><time>2026-03-29T13:55:16.723Z</time></trkpt><trkpt lat="45.941741" lon="12.8766248"><ele>39.0</ele><time>2026-03-29T13:55:17.713Z</time></trkpt><trkpt lat="45.9415256" lon="12.87644"><ele>41.0</ele><time>2026-03-29T13:55:18.721Z</time></trkpt><trkpt lat="45.9413073" lon="12.8762739"><ele>43.0</ele><time>2026-03-29T13:55:19.719Z</time></trkpt><trkpt lat="45.9410874" lon="12.8761053"><ele>40.0</ele><time>2026-03-29T13:55:20.727Z</time></trkpt><trkpt lat="45.9408646" lon="12.8759354"><ele>37.0</ele><time>2026-03-29T13:55:21.724Z</time></trkpt><trkpt lat="45.9406336" lon="12.8757695"><ele>37.0</ele><time>2026-03-29T13:55:22.736Z</time></trkpt><trkpt lat="45.9403915" lon="12.8755969"><ele>37.0</ele><time>2026-03-29T13:55:23.716Z</time></trkpt><trkpt lat="45.9401412" lon="12.8754172"><ele>37.0</ele><time>2026-03-29T13:55:24.727Z</time></trkpt><trkpt lat="45.9398966" lon="12.8752261"><ele>37.0</ele><time>2026-03-29T13:55:25.74Z</time></trkpt><trkpt lat="45.9396608" lon="12.8750375"><ele>37.0</ele><time>2026-03-29T13:55:26.734Z</time></trkpt><trkpt lat="45.9394336" lon="12.8748593"><ele>37.0</ele><time>2026-03-29T13:55:27.726Z</time></trkpt><trkpt lat="45.9392149" lon="12.8746967"><ele>36.5</ele><time>2026-03-29T13:55:28.722Z</time></trkpt><trkpt lat="45.9390094" lon="12.8745435"><ele>36.0</ele><time>2026-03-29T13:55:29.719Z</time></trkpt><trkpt lat="45.9388156" lon="12.8743977"><ele>36.0</ele><time>2026-03-29T13:55:30.717Z</time></trkpt><trkpt lat="45.9386319" lon="12.8742605"><ele>36.0</ele><time>2026-03-29T13:55:31.73Z</time></trkpt><trkpt lat="45.9384536" lon="12.8741284"><ele>36.0</ele><time>2026-03-29T13:55:32.716Z</time></trkpt><trkpt lat="45.9382915" lon="12.8740065"><ele>36.0</ele><time>2026-03-29T13:55:33.727Z</time></trkpt><trkpt lat="45.9381482" lon="12.8738879"><ele>36.0</ele><time>2026-03-29T13:55:34.729Z</time></trkpt><trkpt lat="45.9380257" lon="12.8737784"><ele>36.0</ele><time>2026-03-29T13:55:35.731Z</time></trkpt><trkpt lat="45.9379272" lon="12.8736747"><ele>36.0</ele><time>2026-03-29T13:55:36.719Z</time></trkpt><trkpt lat="45.9378473" lon="12.873564"><ele>36.0</ele><time>2026-03-29T13:55:37.73Z</time></trkpt><trkpt lat="45.9377965" lon="12.8734416"><ele>36.0</ele><time>2026-03-29T13:55:38.729Z</time></trkpt><trkpt lat="45.9378013" lon="12.8733051"><ele>36.0</ele><time>2026-03-29T13:55:39.742Z</time></trkpt><trkpt lat="45.9378148" lon="12.8731691"><ele>36.0</ele><time>2026-03-29T13:55:40.71Z</time></trkpt><trkpt lat="45.9378083" lon="12.8730262"><ele>36.0</ele><time>2026-03-29T13:55:41.715Z</time></trkpt><trkpt lat="45.9377705" lon="12.8728867"><ele>35.8</ele><time>2026-03-29T13:55:42.717Z</time></trkpt><trkpt lat="45.9377142" lon="12.872767"><ele>35.6</ele><time>2026-03-29T13:55:43.72Z</time></trkpt><trkpt lat="45.9376408" lon="12.8726777"><ele>35.4</ele><time>2026-03-29T13:55:44.717Z</time></trkpt><trkpt lat="45.9375609" lon="12.8726108"><ele>35.2</ele><time>2026-03-29T13:55:45.717Z</time></trkpt><trkpt lat="45.9374764" lon="12.8725373"><ele>35.0</ele><time>2026-03-29T13:55:46.731Z</time></trkpt><trkpt lat="45.9373983" lon="12.8724206"><ele>34.666666666666664</ele><time>2026-03-29T13:55:47.731Z</time></trkpt><trkpt lat="45.9373036" lon="12.8722914"><ele>34.333333333333336</ele><time>2026-03-29T13:55:48.722Z</time></trkpt><trkpt lat="45.9372501" lon="12.8720859"><ele>34.0</ele><time>2026-03-29T13:55:49.739Z</time></trkpt><trkpt lat="45.9372352" lon="12.8718283"><ele>36.0</ele><time>2026-03-29T13:55:50.736Z</time></trkpt><trkpt lat="45.9372271" lon="12.8715451"><ele>38.0</ele><time>2026-03-29T13:55:51.729Z</time></trkpt><trkpt lat="45.9371969" lon="12.8712562"><ele>40.0</ele><time>2026-03-29T13:55:52.734Z</time></trkpt><trkpt lat="45.9371619" lon="12.8709664"><ele>39.66666666666667</ele><time>2026-03-29T13:55:53.71Z</time></trkpt><trkpt lat="45.93713" lon="12.8706647"><ele>39.333333333333336</ele><time>2026-03-29T13:55:54.707Z</time></trkpt><trkpt lat="45.9370929" lon="12.8703563"><ele>39.0</ele><time>2026-03-29T13:55:55.728Z</time></trkpt><trkpt lat="45.9370533" lon="12.8700405"><ele>38.0</ele><time>2026-03-29T13:55:56.707Z</time></trkpt><trkpt lat="45.9370132" lon="12.8697163"><ele>37.0</ele><time>2026-03-29T13:55:57.717Z</time></trkpt><trkpt lat="45.9369694" lon="12.8693792"><ele>36.5</ele><time>2026-03-29T13:55:58.738Z</time></trkpt><trkpt lat="45.9369209" lon="12.8690361"><ele>36.0</ele><time>2026-03-29T13:55:59.731Z</time></trkpt><trkpt lat="45.9368776" lon="12.8686954"><ele>36.0</ele><time>2026-03-29T13:56:00.732Z</time></trkpt><trkpt lat="45.9368395" lon="12.8683634"><ele>36.0</ele><time>2026-03-29T13:56:01.728Z</time></trkpt><trkpt lat="45.9368015" lon="12.868041"><ele>36.0</ele><time>2026-03-29T13:56:02.733Z</time></trkpt><trkpt lat="45.936764" lon="12.8677259"><ele>36.0</ele><time>2026-03-29T13:56:03.729Z</time></trkpt><trkpt lat="45.9367262" lon="12.8674167"><ele>36.0</ele><time>2026-03-29T13:56:04.722Z</time></trkpt><trkpt lat="45.936688" lon="12.8671086"><ele>35.0</ele><time>2026-03-29T13:56:05.725Z</time></trkpt><trkpt lat="45.9366511" lon="12.8667978"><ele>34.0</ele><time>2026-03-29T13:56:06.727Z</time></trkpt><trkpt lat="45.9366128" lon="12.8664801"><ele>33.0</ele><time>2026-03-29T13:56:07.722Z</time></trkpt><trkpt lat="45.9365731" lon="12.8661551"><ele>32.0</ele><time>2026-03-29T13:56:08.717Z</time></trkpt><trkpt lat="45.9365338" lon="12.865826"><ele>31.0</ele><time>2026-03-29T13:56:09.713Z</time></trkpt><trkpt lat="45.9364938" lon="12.8654951"><ele>31.0</ele><time>2026-03-29T13:56:10.73Z</time></trkpt><trkpt lat="45.9364531" lon="12.8651667"><ele>31.0</ele><time>2026-03-29T13:56:11.713Z</time></trkpt><trkpt lat="45.9364157" lon="12.8648474"><ele>31.666666666666668</ele><time>2026-03-29T13:56:12.722Z</time></trkpt><trkpt lat="45.9363782" lon="12.8645346"><ele>32.333333333333336</ele><time>2026-03-29T13:56:13.721Z</time></trkpt><trkpt lat="45.9363392" lon="12.8642214"><ele>33.0</ele><time>2026-03-29T13:56:14.71Z</time></trkpt><trkpt lat="45.9362996" lon="12.8639063"><ele>33.0</ele><time>2026-03-29T13:56:15.714Z</time></trkpt><trkpt lat="45.9362605" lon="12.8635901"><ele>33.0</ele><time>2026-03-29T13:56:16.708Z</time></trkpt><trkpt lat="45.9362206" lon="12.8632741"><ele>33.0</ele><time>2026-03-29T13:56:17.722Z</time></trkpt><trkpt lat="45.9361789" lon="12.8629586"><ele>33.0</ele><time>2026-03-29T13:56:18.715Z</time></trkpt><trkpt lat="45.936139" lon="12.8626423"><ele>33.0</ele><time>2026-03-29T13:56:19.722Z</time></trkpt><trkpt lat="45.9360993" lon="12.8623261"><ele>33.0</ele><time>2026-03-29T13:56:20.733Z</time></trkpt><trkpt lat="45.9360605" lon="12.8620114"><ele>33.666666666666664</ele><time>2026-03-29T13:56:21.739Z</time></trkpt><trkpt lat="45.9360225" lon="12.8616995"><ele>34.33333333333333</ele><time>2026-03-29T13:56:22.714Z</time></trkpt><trkpt lat="45.9359835" lon="12.8613913"><ele>35.0</ele><time>2026-03-29T13:56:23.722Z</time></trkpt><trkpt lat="45.9359314" lon="12.8610906"><ele>34.33333333333333</ele><time>2026-03-29T13:56:24.733Z</time></trkpt><trkpt lat="45.9358811" lon="12.8607909"><ele>33.666666666666664</ele><time>2026-03-29T13:56:25.74Z</time></trkpt><trkpt lat="45.9358275" lon="12.8604896"><ele>33.0</ele><time>2026-03-29T13:56:26.723Z</time></trkpt><trkpt lat="45.9357681" lon="12.8601861"><ele>32.666666666666664</ele><time>2026-03-29T13:56:27.735Z</time></trkpt><trkpt lat="45.9357031" lon="12.8598803"><ele>32.33333333333333</ele><time>2026-03-29T13:56:28.724Z</time></trkpt><trkpt lat="45.9356321" lon="12.8595712"><ele>32.0</ele><time>2026-03-29T13:56:29.734Z</time></trkpt><trkpt lat="45.9355495" lon="12.8592618"><ele>33.0</ele><time>2026-03-29T13:56:30.729Z</time></trkpt><trkpt lat="45.9354639" lon="12.8589516"><ele>34.0</ele><time>2026-03-29T13:56:31.734Z</time></trkpt><trkpt lat="45.9353715" lon="12.858643"><ele>34.0</ele><time>2026-03-29T13:56:32.718Z</time></trkpt><trkpt lat="45.9352775" lon="12.858333"><ele>34.0</ele><time>2026-03-29T13:56:33.719Z</time></trkpt><trkpt lat="45.9351691" lon="12.8580279"><ele>34.0</ele><time>2026-03-29T13:56:34.742Z</time></trkpt><trkpt lat="45.9350583" lon="12.8577192"><ele>34.0</ele><time>2026-03-29T13:56:35.722Z</time></trkpt><trkpt lat="45.9349314" lon="12.857417"><ele>33.0</ele><time>2026-03-29T13:56:36.749Z</time></trkpt><trkpt lat="45.9347975" lon="12.8571164"><ele>32.0</ele><time>2026-03-29T13:56:37.733Z</time></trkpt><trkpt lat="45.9346581" lon="12.8568166"><ele>32.0</ele><time>2026-03-29T13:56:38.725Z</time></trkpt><trkpt lat="45.9345168" lon="12.8565186"><ele>32.0</ele><time>2026-03-29T13:56:39.727Z</time></trkpt><trkpt lat="45.9343767" lon="12.8562226"><ele>32.0</ele><time>2026-03-29T13:56:40.714Z</time></trkpt><trkpt lat="45.9342329" lon="12.855931"><ele>32.0</ele><time>2026-03-29T13:56:41.717Z</time></trkpt><trkpt lat="45.9340936" lon="12.855635"><ele>32.0</ele><time>2026-03-29T13:56:42.728Z</time></trkpt><trkpt lat="45.9339534" lon="12.8553391"><ele>32.0</ele><time>2026-03-29T13:56:43.715Z</time></trkpt><trkpt lat="45.9338136" lon="12.8550428"><ele>32.0</ele><time>2026-03-29T13:56:44.735Z</time></trkpt><trkpt lat="45.9336796" lon="12.8547428"><ele>32.0</ele><time>2026-03-29T13:56:45.721Z</time></trkpt><trkpt lat="45.9335465" lon="12.8544456"><ele>31.5</ele><time>2026-03-29T13:56:46.73Z</time></trkpt><trkpt lat="45.9334194" lon="12.8541455"><ele>31.0</ele><time>2026-03-29T13:56:47.719Z</time></trkpt><trkpt lat="45.9333029" lon="12.8538377"><ele>32.5</ele><time>2026-03-29T13:56:48.735Z</time></trkpt><trkpt lat="45.9331978" lon="12.8535227"><ele>34.0</ele><time>2026-03-29T13:56:49.726Z</time></trkpt><trkpt lat="45.9331058" lon="12.8531993"><ele>34.5</ele><time>2026-03-29T13:56:50.735Z</time></trkpt><trkpt lat="45.9330307" lon="12.8528657"><ele>35.0</ele><time>2026-03-29T13:56:51.728Z</time></trkpt><trkpt lat="45.9329702" lon="12.852526"><ele>34.0</ele><time>2026-03-29T13:56:52.722Z</time></trkpt><trkpt lat="45.9329124" lon="12.8521865"><ele>33.0</ele><time>2026-03-29T13:56:53.71Z</time></trkpt><trkpt lat="45.9328784" lon="12.8518407"><ele>33.5</ele><time>2026-03-29T13:56:54.732Z</time></trkpt><trkpt lat="45.9328477" lon="12.8514964"><ele>34.0</ele><time>2026-03-29T13:56:55.723Z</time></trkpt><trkpt lat="45.9328326" lon="12.8511576"><ele>34.0</ele><time>2026-03-29T13:56:56.723Z</time></trkpt><trkpt lat="45.932826" lon="12.8508308"><ele>34.0</ele><time>2026-03-29T13:56:57.714Z</time></trkpt><trkpt lat="45.9328165" lon="12.8505153"><ele>34.0</ele><time>2026-03-29T13:56:58.729Z</time></trkpt><trkpt lat="45.9328052" lon="12.8502107"><ele>33.333333333333336</ele><time>2026-03-29T13:56:59.723Z</time></trkpt><trkpt lat="45.9327842" lon="12.8499276"><ele>32.666666666666664</ele><time>2026-03-29T13:57:00.712Z</time></trkpt><trkpt lat="45.9327465" lon="12.8496856"><ele>32.0</ele><time>2026-03-29T13:57:01.731Z</time></trkpt><trkpt lat="45.9326951" lon="12.8494936"><ele>32.0</ele><time>2026-03-29T13:57:02.714Z</time></trkpt><trkpt lat="45.9326432" lon="12.8493356"><ele>32.0</ele><time>2026-03-29T13:57:03.739Z</time></trkpt><trkpt lat="45.9326017" lon="12.8491917"><ele>32.0</ele><time>2026-03-29T13:57:04.711Z</time></trkpt><trkpt lat="45.9325865" lon="12.8490504"><ele>32.0</ele><time>2026-03-29T13:57:05.717Z</time></trkpt><trkpt lat="45.9325876" lon="12.8489168"><ele>32.0</ele><time>2026-03-29T13:57:06.723Z</time></trkpt><trkpt lat="45.9325868" lon="12.8487939"><ele>32.0</ele><time>2026-03-29T13:57:07.709Z</time></trkpt><trkpt lat="45.9325823" lon="12.8486722"><ele>32.0</ele><time>2026-03-29T13:57:08.729Z</time></trkpt><trkpt lat="45.9325494" lon="12.848559"><ele>32.0</ele><time>2026-03-29T13:57:09.724Z</time></trkpt><trkpt lat="45.9324899" lon="12.8484702"><ele>32.0</ele><time>2026-03-29T13:57:10.71Z</time></trkpt><trkpt lat="45.9324073" lon="12.8484097"><ele>32.0</ele><time>2026-03-29T13:57:11.722Z</time></trkpt><trkpt lat="45.9322994" lon="12.8483898"><ele>32.5</ele><time>2026-03-29T13:57:12.713Z</time></trkpt><trkpt lat="45.9321858" lon="12.8483916"><ele>33.0</ele><time>2026-03-29T13:57:13.713Z</time></trkpt><trkpt lat="45.9320523" lon="12.8483782"><ele>33.5</ele><time>2026-03-29T13:57:14.735Z</time></trkpt><trkpt lat="45.931915" lon="12.8482746"><ele>34.0</ele><time>2026-03-29T13:57:15.734Z</time></trkpt><trkpt lat="45.9317861" lon="12.848107"><ele>33.66666666666667</ele><time>2026-03-29T13:57:16.739Z</time></trkpt><trkpt lat="45.9316488" lon="12.8479179"><ele>33.333333333333336</ele><time>2026-03-29T13:57:17.712Z</time></trkpt><trkpt lat="45.9315325" lon="12.8476793"><ele>33.0</ele><time>2026-03-29T13:57:18.714Z</time></trkpt><trkpt lat="45.9314302" lon="12.8474113"><ele>32.666666666666664</ele><time>2026-03-29T13:57:19.732Z</time></trkpt><trkpt lat="45.9313299" lon="12.8471403"><ele>32.33333333333333</ele><time>2026-03-29T13:57:20.724Z</time></trkpt><trkpt lat="45.9312511" lon="12.8468595"><ele>32.0</ele><time>2026-03-29T13:57:21.737Z</time></trkpt><trkpt lat="45.9311851" lon="12.8465778"><ele>32.0</ele><time>2026-03-29T13:57:22.716Z</time></trkpt><trkpt lat="45.9311315" lon="12.8462915"><ele>32.0</ele><time>2026-03-29T13:57:23.725Z</time></trkpt><trkpt lat="45.931079" lon="12.8460079"><ele>32.0</ele><time>2026-03-29T13:57:24.724Z</time></trkpt><trkpt lat="45.9310372" lon="12.8457182"><ele>31.666666666666664</ele><time>2026-03-29T13:57:25.731Z</time></trkpt><trkpt lat="45.9310068" lon="12.845422"><ele>31.333333333333336</ele><time>2026-03-29T13:57:26.732Z</time></trkpt><trkpt lat="45.9309744" lon="12.8451225"><ele>31.0</ele><time>2026-03-29T13:57:27.724Z</time></trkpt><trkpt lat="45.9309378" lon="12.8448225"><ele>30.666666666666668</ele><time>2026-03-29T13:57:28.712Z</time></trkpt><trkpt lat="45.9308992" lon="12.8445243"><ele>30.333333333333336</ele><time>2026-03-29T13:57:29.744Z</time></trkpt><trkpt lat="45.9308638" lon="12.8442233"><ele>30.0</ele><time>2026-03-29T13:57:30.733Z</time></trkpt><trkpt lat="45.9308247" lon="12.8439206"><ele>30.666666666666664</ele><time>2026-03-29T13:57:31.734Z</time></trkpt><trkpt lat="45.9307871" lon="12.843617"><ele>31.333333333333332</ele><time>2026-03-29T13:57:32.724Z</time></trkpt><trkpt lat="45.9307445" lon="12.8433145"><ele>32.0</ele><time>2026-03-29T13:57:33.734Z</time></trkpt><trkpt lat="45.9307002" lon="12.8430113"><ele>32.0</ele><time>2026-03-29T13:57:34.717Z</time></trkpt><trkpt lat="45.9306524" lon="12.8427082"><ele>32.0</ele><time>2026-03-29T13:57:35.72Z</time></trkpt><trkpt lat="45.9306032" lon="12.8424049"><ele>32.0</ele><time>2026-03-29T13:57:36.708Z</time></trkpt><trkpt lat="45.9305517" lon="12.8421007"><ele>32.0</ele><time>2026-03-29T13:57:37.731Z</time></trkpt><trkpt lat="45.930496" lon="12.8417957"><ele>32.0</ele><time>2026-03-29T13:57:38.723Z</time></trkpt><trkpt lat="45.9304228" lon="12.8414968"><ele>32.0</ele><time>2026-03-29T13:57:39.725Z</time></trkpt><trkpt lat="45.9303443" lon="12.8411975"><ele>31.5</ele><time>2026-03-29T13:57:40.724Z</time></trkpt><trkpt lat="45.9302659" lon="12.840896"><ele>31.0</ele><time>2026-03-29T13:57:41.726Z</time></trkpt><trkpt lat="45.9301929" lon="12.8405886"><ele>31.0</ele><time>2026-03-29T13:57:42.729Z</time></trkpt><trkpt lat="45.9301172" lon="12.8402808"><ele>31.0</ele><time>2026-03-29T13:57:43.72Z</time></trkpt><trkpt lat="45.9300386" lon="12.8399707"><ele>29.5</ele><time>2026-03-29T13:57:44.709Z</time></trkpt><trkpt lat="45.929955" lon="12.8396606"><ele>28.0</ele><time>2026-03-29T13:57:45.739Z</time></trkpt><trkpt lat="45.9298786" lon="12.8393488"><ele>28.5</ele><time>2026-03-29T13:57:46.738Z</time></trkpt><trkpt lat="45.9297985" lon="12.8390399"><ele>29.0</ele><time>2026-03-29T13:57:47.724Z</time></trkpt><trkpt lat="45.9297165" lon="12.838733"><ele>29.5</ele><time>2026-03-29T13:57:48.729Z</time></trkpt><trkpt lat="45.9296329" lon="12.838428"><ele>30.0</ele><time>2026-03-29T13:57:49.735Z</time></trkpt><trkpt lat="45.9295644" lon="12.8381148"><ele>30.0</ele><time>2026-03-29T13:57:50.723Z</time></trkpt><trkpt lat="45.9294765" lon="12.8378135"><ele>30.0</ele><time>2026-03-29T13:57:51.731Z</time></trkpt><trkpt lat="45.9293768" lon="12.8375197"><ele>30.0</ele><time>2026-03-29T13:57:52.731Z</time></trkpt><trkpt lat="45.9292657" lon="12.8372337"><ele>30.0</ele><time>2026-03-29T13:57:53.741Z</time></trkpt><trkpt lat="45.9291453" lon="12.8369546"><ele>29.0</ele><time>2026-03-29T13:57:54.719Z</time></trkpt><trkpt lat="45.9290205" lon="12.8366755"><ele>28.0</ele><time>2026-03-29T13:57:55.725Z</time></trkpt><trkpt lat="45.9288745" lon="12.8364178"><ele>28.0</ele><time>2026-03-29T13:57:56.725Z</time></trkpt><trkpt lat="45.9287299" lon="12.8361571"><ele>28.0</ele><time>2026-03-29T13:57:57.728Z</time></trkpt><trkpt lat="45.9285737" lon="12.8359089"><ele>29.0</ele><time>2026-03-29T13:57:58.726Z</time></trkpt><trkpt lat="45.9284084" lon="12.8356705"><ele>30.0</ele><time>2026-03-29T13:57:59.731Z</time></trkpt><trkpt lat="45.9282276" lon="12.8354532"><ele>30.0</ele><time>2026-03-29T13:58:00.719Z</time></trkpt><trkpt lat="45.9280414" lon="12.8352397"><ele>30.0</ele><time>2026-03-29T13:58:01.712Z</time></trkpt><trkpt lat="45.9278461" lon="12.8350348"><ele>30.0</ele><time>2026-03-29T13:58:02.714Z</time></trkpt><trkpt lat="45.9276419" lon="12.8348412"><ele>30.0</ele><time>2026-03-29T13:58:03.726Z</time></trkpt><trkpt lat="45.9274293" lon="12.8346616"><ele>30.5</ele><time>2026-03-29T13:58:04.728Z</time></trkpt><trkpt lat="45.9272126" lon="12.8344963"><ele>31.0</ele><time>2026-03-29T13:58:05.721Z</time></trkpt><trkpt lat="45.9269959" lon="12.83435"><ele>31.333333333333336</ele><time>2026-03-29T13:58:06.733Z</time></trkpt><trkpt lat="45.9267836" lon="12.834226"><ele>31.666666666666664</ele><time>2026-03-29T13:58:07.726Z</time></trkpt><trkpt lat="45.9265797" lon="12.8341114"><ele>32.0</ele><time>2026-03-29T13:58:08.714Z</time></trkpt><trkpt lat="45.9263819" lon="12.834035"><ele>31.333333333333332</ele><time>2026-03-29T13:58:09.719Z</time></trkpt><trkpt lat="45.9262087" lon="12.8339721"><ele>30.666666666666664</ele><time>2026-03-29T13:58:10.72Z</time></trkpt><trkpt lat="45.9260596" lon="12.8339192"><ele>30.0</ele><time>2026-03-29T13:58:11.731Z</time></trkpt><trkpt lat="45.9259338" lon="12.8338555"><ele>30.0</ele><time>2026-03-29T13:58:12.716Z</time></trkpt><trkpt lat="45.9258263" lon="12.8338064"><ele>30.0</ele><time>2026-03-29T13:58:13.731Z</time></trkpt><trkpt lat="45.9257387" lon="12.8337458"><ele>30.0</ele><time>2026-03-29T13:58:14.727Z</time></trkpt><trkpt lat="45.9256773" lon="12.8336621"><ele>30.0</ele><time>2026-03-29T13:58:15.722Z</time></trkpt><trkpt lat="45.9256121" lon="12.8335923"><ele>30.0</ele><time>2026-03-29T13:58:16.715Z</time></trkpt><trkpt lat="45.9255291" lon="12.8335511"><ele>30.0</ele><time>2026-03-29T13:58:17.715Z</time></trkpt><trkpt lat="45.9254325" lon="12.8335685"><ele>30.0</ele><time>2026-03-29T13:58:18.724Z</time></trkpt><trkpt lat="45.9253513" lon="12.8336595"><ele>30.0</ele><time>2026-03-29T13:58:19.706Z</time></trkpt><trkpt lat="45.9252555" lon="12.8337314"><ele>30.0</ele><time>2026-03-29T13:58:20.73Z</time></trkpt><trkpt lat="45.9251271" lon="12.8337655"><ele>30.0</ele><time>2026-03-29T13:58:21.71Z</time></trkpt><trkpt lat="45.9249749" lon="12.8337826"><ele>30.0</ele><time>2026-03-29T13:58:22.729Z</time></trkpt><trkpt lat="45.9247943" lon="12.8337685"><ele>30.0</ele><time>2026-03-29T13:58:23.72Z</time></trkpt><trkpt lat="45.9246057" lon="12.8337583"><ele>30.0</ele><time>2026-03-29T13:58:24.729Z</time></trkpt><trkpt lat="45.9244132" lon="12.8337849"><ele>29.666666666666664</ele><time>2026-03-29T13:58:25.721Z</time></trkpt><trkpt lat="45.9242202" lon="12.8338207"><ele>29.333333333333332</ele><time>2026-03-29T13:58:26.719Z</time></trkpt><trkpt lat="45.924024" lon="12.8338639"><ele>29.0</ele><time>2026-03-29T13:58:27.707Z</time></trkpt><trkpt lat="45.9238269" lon="12.8339001"><ele>29.0</ele><time>2026-03-29T13:58:28.712Z</time></trkpt><trkpt lat="45.9236265" lon="12.8339328"><ele>29.0</ele><time>2026-03-29T13:58:29.71Z</time></trkpt><trkpt lat="45.9234184" lon="12.8339694"><ele>29.0</ele><time>2026-03-29T13:58:30.708Z</time></trkpt><trkpt lat="45.9232007" lon="12.8340112"><ele>28.5</ele><time>2026-03-29T13:58:31.706Z</time></trkpt><trkpt lat="45.9229759" lon="12.8340489"><ele>28.0</ele><time>2026-03-29T13:58:32.716Z</time></trkpt><trkpt lat="45.9227444" lon="12.8340902"><ele>28.0</ele><time>2026-03-29T13:58:33.746Z</time></trkpt><trkpt lat="45.9225046" lon="12.8341347"><ele>28.0</ele><time>2026-03-29T13:58:34.707Z</time></trkpt><trkpt lat="45.9222574" lon="12.8341701"><ele>28.0</ele><time>2026-03-29T13:58:35.737Z</time></trkpt><trkpt lat="45.9220112" lon="12.8342224"><ele>28.0</ele><time>2026-03-29T13:58:36.72Z</time></trkpt><trkpt lat="45.9217637" lon="12.8342661"><ele>27.5</ele><time>2026-03-29T13:58:37.714Z</time></trkpt><trkpt lat="45.921518" lon="12.8343224"><ele>27.0</ele><time>2026-03-29T13:58:38.72Z</time></trkpt><trkpt lat="45.921272" lon="12.8343553"><ele>27.0</ele><time>2026-03-29T13:58:39.719Z</time></trkpt><trkpt lat="45.9210295" lon="12.8343974"><ele>27.0</ele><time>2026-03-29T13:58:40.712Z</time></trkpt><trkpt lat="45.9207909" lon="12.8344403"><ele>26.5</ele><time>2026-03-29T13:58:41.728Z</time></trkpt><trkpt lat="45.9205559" lon="12.8344828"><ele>26.0</ele><time>2026-03-29T13:58:42.713Z</time></trkpt><trkpt lat="45.9203242" lon="12.834525"><ele>26.0</ele><time>2026-03-29T13:58:43.73Z</time></trkpt><trkpt lat="45.9200958" lon="12.834567"><ele>26.0</ele><time>2026-03-29T13:58:44.71Z</time></trkpt><trkpt lat="45.9198708" lon="12.8346087"><ele>26.0</ele><time>2026-03-29T13:58:45.716Z</time></trkpt><trkpt lat="45.9196484" lon="12.834644"><ele>26.0</ele><time>2026-03-29T13:58:46.717Z</time></trkpt><trkpt lat="45.9194302" lon="12.834686"><ele>26.0</ele><time>2026-03-29T13:58:47.728Z</time></trkpt><trkpt lat="45.919213" lon="12.8347284"><ele>26.0</ele><time>2026-03-29T13:58:48.72Z</time></trkpt><trkpt lat="45.9189947" lon="12.8347714"><ele>26.0</ele><time>2026-03-29T13:58:49.712Z</time></trkpt><trkpt lat="45.9187714" lon="12.8348168"><ele>26.0</ele><time>2026-03-29T13:58:50.731Z</time></trkpt><trkpt lat="45.9185409" lon="12.83486"><ele>26.5</ele><time>2026-03-29T13:58:51.712Z</time></trkpt><trkpt lat="45.9183035" lon="12.8349025"><ele>27.0</ele><time>2026-03-29T13:58:52.717Z</time></trkpt><trkpt lat="45.9180602" lon="12.8349412"><ele>27.0</ele><time>2026-03-29T13:58:53.723Z</time></trkpt><trkpt lat="45.9178145" lon="12.8349702"><ele>27.0</ele><time>2026-03-29T13:58:54.728Z</time></trkpt><trkpt lat="45.9175749" lon="12.8350054"><ele>27.0</ele><time>2026-03-29T13:58:55.725Z</time></trkpt><trkpt lat="45.9173482" lon="12.8350425"><ele>27.0</ele><time>2026-03-29T13:58:56.725Z</time></trkpt><trkpt lat="45.9171331" lon="12.8350846"><ele>27.0</ele><time>2026-03-29T13:58:57.727Z</time></trkpt><trkpt lat="45.9169286" lon="12.8351223"><ele>27.0</ele><time>2026-03-29T13:58:58.716Z</time></trkpt><trkpt lat="45.9167377" lon="12.8351576"><ele>27.0</ele><time>2026-03-29T13:58:59.728Z</time></trkpt><trkpt lat="45.9165597" lon="12.8352"><ele>27.0</ele><time>2026-03-29T13:59:00.729Z</time></trkpt><trkpt lat="45.9163949" lon="12.8352394"><ele>27.0</ele><time>2026-03-29T13:59:01.714Z</time></trkpt><trkpt lat="45.9162531" lon="12.8352693"><ele>27.0</ele><time>2026-03-29T13:59:02.71Z</time></trkpt><trkpt lat="45.9161282" lon="12.8352759"><ele>27.0</ele><time>2026-03-29T13:59:03.728Z</time></trkpt><trkpt lat="45.9160157" lon="12.8352532"><ele>27.0</ele><time>2026-03-29T13:59:04.714Z</time></trkpt><trkpt lat="45.9159149" lon="12.8352004"><ele>27.0</ele><time>2026-03-29T13:59:05.735Z</time></trkpt><trkpt lat="45.9158264" lon="12.8351421"><ele>27.000000000000004</ele><time>2026-03-29T13:59:06.728Z</time></trkpt><trkpt lat="45.915735" lon="12.8351272"><ele>27.000000000000004</ele><time>2026-03-29T13:59:07.723Z</time></trkpt><trkpt lat="45.9156364" lon="12.8351581"><ele>27.0</ele><time>2026-03-29T13:59:08.718Z</time></trkpt><trkpt lat="45.9155526" lon="12.8352484"><ele>27.0</ele><time>2026-03-29T13:59:09.712Z</time></trkpt><trkpt lat="45.9154968" lon="12.8353792"><ele>27.0</ele><time>2026-03-29T13:59:10.718Z</time></trkpt><trkpt lat="45.9154181" lon="12.8355124"><ele>27.0</ele><time>2026-03-29T13:59:11.709Z</time></trkpt><trkpt lat="45.9152878" lon="12.835632"><ele>27.0</ele><time>2026-03-29T13:59:12.717Z</time></trkpt><trkpt lat="45.9151262" lon="12.8357372"><ele>26.666666666666664</ele><time>2026-03-29T13:59:13.725Z</time></trkpt><trkpt lat="45.9149315" lon="12.8358107"><ele>26.333333333333332</ele><time>2026-03-29T13:59:14.709Z</time></trkpt><trkpt lat="45.9147283" lon="12.8358926"><ele>26.0</ele><time>2026-03-29T13:59:15.728Z</time></trkpt><trkpt lat="45.9145229" lon="12.8359851"><ele>26.0</ele><time>2026-03-29T13:59:16.721Z</time></trkpt><trkpt lat="45.9143151" lon="12.8360805"><ele>26.0</ele><time>2026-03-29T13:59:17.726Z</time></trkpt><trkpt lat="45.9141046" lon="12.8361746"><ele>26.0</ele><time>2026-03-29T13:59:18.726Z</time></trkpt><trkpt lat="45.9138899" lon="12.8362644"><ele>26.0</ele><time>2026-03-29T13:59:19.716Z</time></trkpt><trkpt lat="45.9136702" lon="12.8363482"><ele>26.0</ele><time>2026-03-29T13:59:20.727Z</time></trkpt><trkpt lat="45.9134493" lon="12.8364395"><ele>26.0</ele><time>2026-03-29T13:59:21.728Z</time></trkpt><trkpt lat="45.9132264" lon="12.8365355"><ele>26.0</ele><time>2026-03-29T13:59:22.719Z</time></trkpt><trkpt lat="45.913003" lon="12.8366306"><ele>26.0</ele><time>2026-03-29T13:59:23.764Z</time></trkpt><trkpt lat="45.9127792" lon="12.836731"><ele>26.0</ele><time>2026-03-29T13:59:24.724Z</time></trkpt><trkpt lat="45.912554" lon="12.8368433"><ele>26.0</ele><time>2026-03-29T13:59:25.725Z</time></trkpt><trkpt lat="45.9123243" lon="12.8369567"><ele>26.0</ele><time>2026-03-29T13:59:26.728Z</time></trkpt><trkpt lat="45.9120958" lon="12.8370851"><ele>26.0</ele><time>2026-03-29T13:59:27.75Z</time></trkpt><trkpt lat="45.9118734" lon="12.837219"><ele>26.0</ele><time>2026-03-29T13:59:28.748Z</time></trkpt><trkpt lat="45.9116569" lon="12.8373601"><ele>26.0</ele><time>2026-03-29T13:59:29.734Z</time></trkpt><trkpt lat="45.9114441" lon="12.8375137"><ele>26.0</ele><time>2026-03-29T13:59:30.721Z</time></trkpt><trkpt lat="45.9112329" lon="12.8376733"><ele>26.0</ele><time>2026-03-29T13:59:31.711Z</time></trkpt><trkpt lat="45.9110233" lon="12.83784"><ele>26.0</ele><time>2026-03-29T13:59:32.724Z</time></trkpt><trkpt lat="45.9108144" lon="12.838015"><ele>26.0</ele><time>2026-03-29T13:59:33.728Z</time></trkpt><trkpt lat="45.9106055" lon="12.8381931"><ele>26.0</ele><time>2026-03-29T13:59:34.738Z</time></trkpt><trkpt lat="45.9104034" lon="12.8383721"><ele>26.0</ele><time>2026-03-29T13:59:35.734Z</time></trkpt><trkpt lat="45.9102091" lon="12.8385376"><ele>26.0</ele><time>2026-03-29T13:59:36.723Z</time></trkpt><trkpt lat="45.9100241" lon="12.8386939"><ele>26.0</ele><time>2026-03-29T13:59:37.711Z</time></trkpt><trkpt lat="45.9098535" lon="12.8388296"><ele>25.666666666666664</ele><time>2026-03-29T13:59:38.724Z</time></trkpt><trkpt lat="45.9097079" lon="12.8389575"><ele>25.333333333333336</ele><time>2026-03-29T13:59:39.713Z</time></trkpt><trkpt lat="45.9095705" lon="12.8390717"><ele>25.0</ele><time>2026-03-29T13:59:40.722Z</time></trkpt><trkpt lat="45.9094404" lon="12.8391852"><ele>25.0</ele><time>2026-03-29T13:59:41.709Z</time></trkpt><trkpt lat="45.9093149" lon="12.8392961"><ele>25.0</ele><time>2026-03-29T13:59:42.717Z</time></trkpt><trkpt lat="45.9092035" lon="12.839397"><ele>25.0</ele><time>2026-03-29T13:59:43.712Z</time></trkpt><trkpt lat="45.9091068" lon="12.8394758"><ele>25.0</ele><time>2026-03-29T13:59:44.707Z</time></trkpt><trkpt lat="45.909026" lon="12.8395487"><ele>25.500000000000004</ele><time>2026-03-29T13:59:45.731Z</time></trkpt><trkpt lat="45.9089472" lon="12.8395994"><ele>26.0</ele><time>2026-03-29T13:59:46.726Z</time></trkpt><trkpt lat="45.9088664" lon="12.83962"><ele>26.5</ele><time>2026-03-29T13:59:47.723Z</time></trkpt><trkpt lat="45.9087847" lon="12.8396256"><ele>27.0</ele><time>2026-03-29T13:59:48.724Z</time></trkpt><trkpt lat="45.9086964" lon="12.8396219"><ele>27.500000000000004</ele><time>2026-03-29T13:59:49.722Z</time></trkpt><trkpt lat="45.908598" lon="12.8395857"><ele>28.0</ele><time>2026-03-29T13:59:50.723Z</time></trkpt><trkpt lat="45.9085003" lon="12.8395382"><ele>27.25</ele><time>2026-03-29T13:59:51.712Z</time></trkpt><trkpt lat="45.9083913" lon="12.839468"><ele>26.5</ele><time>2026-03-29T13:59:52.723Z</time></trkpt><trkpt lat="45.9082701" lon="12.8393527"><ele>25.75</ele><time>2026-03-29T13:59:53.73Z</time></trkpt><trkpt lat="45.9081524" lon="12.8391827"><ele>25.0</ele><time>2026-03-29T13:59:54.747Z</time></trkpt><trkpt lat="45.9080298" lon="12.8389895"><ele>25.0</ele><time>2026-03-29T13:59:55.726Z</time></trkpt><trkpt lat="45.9079068" lon="12.8387671"><ele>25.0</ele><time>2026-03-29T13:59:56.719Z</time></trkpt><trkpt lat="45.9077592" lon="12.838529"><ele>25.0</ele><time>2026-03-29T13:59:57.727Z</time></trkpt><trkpt lat="45.9075893" lon="12.8383092"><ele>24.666666666666668</ele><time>2026-03-29T13:59:58.712Z</time></trkpt><trkpt lat="45.9074185" lon="12.8381014"><ele>24.333333333333336</ele><time>2026-03-29T13:59:59.746Z</time></trkpt><trkpt lat="45.907255" lon="12.8379235"><ele>24.0</ele><time>2026-03-29T14:00:00.706Z</time></trkpt><trkpt lat="45.9071072" lon="12.8377493"><ele>24.0</ele><time>2026-03-29T14:00:01.719Z</time></trkpt><trkpt lat="45.9069652" lon="12.8375759"><ele>24.0</ele><time>2026-03-29T14:00:02.713Z</time></trkpt><trkpt lat="45.9068216" lon="12.8373959"><ele>24.0</ele><time>2026-03-29T14:00:03.724Z</time></trkpt><trkpt lat="45.9066707" lon="12.837194"><ele>24.0</ele><time>2026-03-29T14:00:04.712Z</time></trkpt><trkpt lat="45.906505" lon="12.8369712"><ele>24.0</ele><time>2026-03-29T14:00:05.709Z</time></trkpt><trkpt lat="45.9063356" lon="12.8366958"><ele>23.5</ele><time>2026-03-29T14:00:06.732Z</time></trkpt><trkpt lat="45.9061538" lon="12.8364006"><ele>23.0</ele><time>2026-03-29T14:00:07.71Z</time></trkpt><trkpt lat="45.9059642" lon="12.8361143"><ele>22.5</ele><time>2026-03-29T14:00:08.727Z</time></trkpt><trkpt lat="45.9057824" lon="12.8358335"><ele>22.0</ele><time>2026-03-29T14:00:09.723Z</time></trkpt><trkpt lat="45.9055979" lon="12.8355825"><ele>22.0</ele><time>2026-03-29T14:00:10.72Z</time></trkpt><trkpt lat="45.9054019" lon="12.8353781"><ele>22.0</ele><time>2026-03-29T14:00:11.719Z</time></trkpt><trkpt lat="45.9052049" lon="12.835205"><ele>22.0</ele><time>2026-03-29T14:00:12.72Z</time></trkpt><trkpt lat="45.9050111" lon="12.8350442"><ele>22.0</ele><time>2026-03-29T14:00:13.714Z</time></trkpt><trkpt lat="45.9048235" lon="12.8348771"><ele>22.0</ele><time>2026-03-29T14:00:14.721Z</time></trkpt><trkpt lat="45.9046403" lon="12.8346991"><ele>22.0</ele><time>2026-03-29T14:00:15.737Z</time></trkpt><trkpt lat="45.9044552" lon="12.8345164"><ele>22.0</ele><time>2026-03-29T14:00:16.735Z</time></trkpt><trkpt lat="45.9042811" lon="12.8343008"><ele>21.5</ele><time>2026-03-29T14:00:17.731Z</time></trkpt><trkpt lat="45.9041167" lon="12.8340522"><ele>21.0</ele><time>2026-03-29T14:00:18.752Z</time></trkpt><trkpt lat="45.9039592" lon="12.8337827"><ele>21.0</ele><time>2026-03-29T14:00:19.735Z</time></trkpt><trkpt lat="45.9038089" lon="12.8334994"><ele>21.0</ele><time>2026-03-29T14:00:20.735Z</time></trkpt><trkpt lat="45.9036587" lon="12.8332167"><ele>21.5</ele><time>2026-03-29T14:00:21.707Z</time></trkpt><trkpt lat="45.9035106" lon="12.8329413"><ele>22.0</ele><time>2026-03-29T14:00:22.723Z</time></trkpt><trkpt lat="45.9033695" lon="12.8326728"><ele>22.0</ele><time>2026-03-29T14:00:23.718Z</time></trkpt><trkpt lat="45.9032301" lon="12.8324131"><ele>22.0</ele><time>2026-03-29T14:00:24.723Z</time></trkpt><trkpt lat="45.9030931" lon="12.8321562"><ele>22.0</ele><time>2026-03-29T14:00:25.707Z</time></trkpt><trkpt lat="45.9029578" lon="12.8319019"><ele>22.0</ele><time>2026-03-29T14:00:26.73Z</time></trkpt><trkpt lat="45.9028242" lon="12.8316506"><ele>22.0</ele><time>2026-03-29T14:00:27.729Z</time></trkpt><trkpt lat="45.9026899" lon="12.8314049"><ele>22.0</ele><time>2026-03-29T14:00:28.715Z</time></trkpt><trkpt lat="45.9025621" lon="12.8311601"><ele>22.0</ele><time>2026-03-29T14:00:29.724Z</time></trkpt><trkpt lat="45.9024371" lon="12.830926"><ele>22.0</ele><time>2026-03-29T14:00:30.707Z</time></trkpt><trkpt lat="45.9023168" lon="12.830701"><ele>21.666666666666664</ele><time>2026-03-29T14:00:31.716Z</time></trkpt><trkpt lat="45.9022019" lon="12.8304841"><ele>21.333333333333332</ele><time>2026-03-29T14:00:32.723Z</time></trkpt><trkpt lat="45.9020914" lon="12.8302755"><ele>21.0</ele><time>2026-03-29T14:00:33.723Z</time></trkpt><trkpt lat="45.9019827" lon="12.8300733"><ele>21.0</ele><time>2026-03-29T14:00:34.718Z</time></trkpt><trkpt lat="45.9018734" lon="12.829873"><ele>21.0</ele><time>2026-03-29T14:00:35.722Z</time></trkpt><trkpt lat="45.9017619" lon="12.8296703"><ele>21.0</ele><time>2026-03-29T14:00:36.72Z</time></trkpt><trkpt lat="45.9016477" lon="12.8294607"><ele>20.666666666666668</ele><time>2026-03-29T14:00:37.722Z</time></trkpt><trkpt lat="45.9015258" lon="12.8292544"><ele>20.333333333333336</ele><time>2026-03-29T14:00:38.73Z</time></trkpt><trkpt lat="45.9014067" lon="12.8290411"><ele>20.0</ele><time>2026-03-29T14:00:39.717Z</time></trkpt><trkpt lat="45.9012933" lon="12.8288125"><ele>20.0</ele><time>2026-03-29T14:00:40.722Z</time></trkpt><trkpt lat="45.9011713" lon="12.8285839"><ele>20.0</ele><time>2026-03-29T14:00:41.726Z</time></trkpt><trkpt lat="45.9010449" lon="12.8283531"><ele>20.0</ele><time>2026-03-29T14:00:42.72Z</time></trkpt><trkpt lat="45.9009179" lon="12.8281218"><ele>20.0</ele><time>2026-03-29T14:00:43.715Z</time></trkpt><trkpt lat="45.9007916" lon="12.82789"><ele>20.0</ele><time>2026-03-29T14:00:44.722Z</time></trkpt><trkpt lat="45.900666" lon="12.8276559"><ele>20.0</ele><time>2026-03-29T14:00:45.723Z</time></trkpt><trkpt lat="45.9005397" lon="12.8274198"><ele>20.333333333333336</ele><time>2026-03-29T14:00:46.728Z</time></trkpt><trkpt lat="45.9004122" lon="12.8271822"><ele>20.666666666666668</ele><time>2026-03-29T14:00:47.73Z</time></trkpt><trkpt lat="45.9002825" lon="12.8269436"><ele>21.0</ele><time>2026-03-29T14:00:48.723Z</time></trkpt><trkpt lat="45.900145" lon="12.8267092"><ele>20.666666666666668</ele><time>2026-03-29T14:00:49.728Z</time></trkpt><trkpt lat="45.9000118" lon="12.8264627"><ele>20.333333333333336</ele><time>2026-03-29T14:00:50.721Z</time></trkpt><trkpt lat="45.8998774" lon="12.8262132"><ele>20.0</ele><time>2026-03-29T14:00:51.711Z</time></trkpt><trkpt lat="45.8997415" lon="12.8259631"><ele>19.333333333333336</ele><time>2026-03-29T14:00:52.71Z</time></trkpt><trkpt lat="45.8996039" lon="12.8257115"><ele>18.666666666666668</ele><time>2026-03-29T14:00:53.728Z</time></trkpt><trkpt lat="45.8994623" lon="12.8254607"><ele>18.0</ele><time>2026-03-29T14:00:54.72Z</time></trkpt><trkpt lat="45.8993253" lon="12.8252026"><ele>18.5</ele><time>2026-03-29T14:00:55.726Z</time></trkpt><trkpt lat="45.8991861" lon="12.824946"><ele>19.0</ele><time>2026-03-29T14:00:56.71Z</time></trkpt><trkpt lat="45.8990472" lon="12.8246883"><ele>19.0</ele><time>2026-03-29T14:00:57.729Z</time></trkpt><trkpt lat="45.8989055" lon="12.8244332"><ele>19.0</ele><time>2026-03-29T14:00:58.703Z</time></trkpt><trkpt lat="45.898768" lon="12.824171"><ele>18.5</ele><time>2026-03-29T14:00:59.706Z</time></trkpt><trkpt lat="45.8986268" lon="12.8239122"><ele>18.0</ele><time>2026-03-29T14:01:00.728Z</time></trkpt><trkpt lat="45.8984883" lon="12.8236517"><ele>18.5</ele><time>2026-03-29T14:01:01.732Z</time></trkpt><trkpt lat="45.8983504" lon="12.8233926"><ele>19.0</ele><time>2026-03-29T14:01:02.736Z</time></trkpt><trkpt lat="45.8982131" lon="12.8231335"><ele>19.0</ele><time>2026-03-29T14:01:03.721Z</time></trkpt><trkpt lat="45.898075" lon="12.8228749"><ele>19.0</ele><time>2026-03-29T14:01:04.724Z</time></trkpt><trkpt lat="45.8979381" lon="12.8226152"><ele>21.0</ele><time>2026-03-29T14:01:05.709Z</time></trkpt><trkpt lat="45.8977983" lon="12.8223581"><ele>23.0</ele><time>2026-03-29T14:01:06.722Z</time></trkpt><trkpt lat="45.8976642" lon="12.8220923"><ele>21.5</ele><time>2026-03-29T14:01:07.719Z</time></trkpt><trkpt lat="45.8975262" lon="12.8218284"><ele>20.0</ele><time>2026-03-29T14:01:08.707Z</time></trkpt><trkpt lat="45.8973857" lon="12.8215651"><ele>20.0</ele><time>2026-03-29T14:01:09.714Z</time></trkpt><trkpt lat="45.8972453" lon="12.8213003"><ele>20.0</ele><time>2026-03-29T14:01:10.712Z</time></trkpt><trkpt lat="45.8971035" lon="12.821035"><ele>19.5</ele><time>2026-03-29T14:01:11.705Z</time></trkpt><trkpt lat="45.8969629" lon="12.8207674"><ele>19.0</ele><time>2026-03-29T14:01:12.719Z</time></trkpt><trkpt lat="45.8968222" lon="12.820501"><ele>18.5</ele><time>2026-03-29T14:01:13.73Z</time></trkpt><trkpt lat="45.8966833" lon="12.8202317"><ele>18.0</ele><time>2026-03-29T14:01:14.713Z</time></trkpt><trkpt lat="45.8965385" lon="12.81997"><ele>18.0</ele><time>2026-03-29T14:01:15.736Z</time></trkpt><trkpt lat="45.8963957" lon="12.8197059"><ele>18.0</ele><time>2026-03-29T14:01:16.711Z</time></trkpt><trkpt lat="45.8962546" lon="12.8194393"><ele>18.5</ele><time>2026-03-29T14:01:17.73Z</time></trkpt><trkpt lat="45.8961153" lon="12.8191712"><ele>19.0</ele><time>2026-03-29T14:01:18.725Z</time></trkpt><trkpt lat="45.8959778" lon="12.8189042"><ele>19.0</ele><time>2026-03-29T14:01:19.707Z</time></trkpt><trkpt lat="45.8958411" lon="12.8186426"><ele>19.0</ele><time>2026-03-29T14:01:20.711Z</time></trkpt><trkpt lat="45.8957073" lon="12.8183841"><ele>19.0</ele><time>2026-03-29T14:01:21.726Z</time></trkpt><trkpt lat="45.8955737" lon="12.8181278"><ele>19.0</ele><time>2026-03-29T14:01:22.711Z</time></trkpt><trkpt lat="45.8954378" lon="12.8178774"><ele>19.0</ele><time>2026-03-29T14:01:23.719Z</time></trkpt><trkpt lat="45.8953049" lon="12.8176296"><ele>18.666666666666664</ele><time>2026-03-29T14:01:24.735Z</time></trkpt><trkpt lat="45.8951742" lon="12.8173831"><ele>18.333333333333332</ele><time>2026-03-29T14:01:25.727Z</time></trkpt><trkpt lat="45.8950422" lon="12.8171388"><ele>18.0</ele><time>2026-03-29T14:01:26.731Z</time></trkpt><trkpt lat="45.8949125" lon="12.8168906"><ele>17.666666666666668</ele><time>2026-03-29T14:01:27.722Z</time></trkpt><trkpt lat="45.8947829" lon="12.8166409"><ele>17.333333333333336</ele><time>2026-03-29T14:01:28.731Z</time></trkpt><trkpt lat="45.8946536" lon="12.8163905"><ele>17.0</ele><time>2026-03-29T14:01:29.714Z</time></trkpt><trkpt lat="45.8945243" lon="12.8161402"><ele>17.333333333333336</ele><time>2026-03-29T14:01:30.713Z</time></trkpt><trkpt lat="45.8943948" lon="12.81589"><ele>17.666666666666668</ele><time>2026-03-29T14:01:31.713Z</time></trkpt><trkpt lat="45.8942637" lon="12.8156411"><ele>18.0</ele><time>2026-03-29T14:01:32.717Z</time></trkpt><trkpt lat="45.8941303" lon="12.8153938"><ele>17.333333333333332</ele><time>2026-03-29T14:01:33.727Z</time></trkpt><trkpt lat="45.8939963" lon="12.8151454"><ele>16.666666666666664</ele><time>2026-03-29T14:01:34.714Z</time></trkpt><trkpt lat="45.8938633" lon="12.8148947"><ele>16.0</ele><time>2026-03-29T14:01:35.717Z</time></trkpt><trkpt lat="45.8937296" lon="12.8146432"><ele>16.0</ele><time>2026-03-29T14:01:36.737Z</time></trkpt><trkpt lat="45.8935953" lon="12.8143897"><ele>16.0</ele><time>2026-03-29T14:01:37.708Z</time></trkpt><trkpt lat="45.893458" lon="12.8141363"><ele>16.0</ele><time>2026-03-29T14:01:38.731Z</time></trkpt><trkpt lat="45.8933204" lon="12.8138791"><ele>16.5</ele><time>2026-03-29T14:01:39.738Z</time></trkpt><trkpt lat="45.8931813" lon="12.8136198"><ele>17.0</ele><time>2026-03-29T14:01:40.71Z</time></trkpt><trkpt lat="45.8930397" lon="12.8133607"><ele>17.0</ele><time>2026-03-29T14:01:41.739Z</time></trkpt><trkpt lat="45.8928982" lon="12.8130989"><ele>17.0</ele><time>2026-03-29T14:01:42.728Z</time></trkpt><trkpt lat="45.8927597" lon="12.8128308"><ele>17.0</ele><time>2026-03-29T14:01:43.718Z</time></trkpt><trkpt lat="45.8926186" lon="12.8125642"><ele>17.0</ele><time>2026-03-29T14:01:44.722Z</time></trkpt><trkpt lat="45.8924788" lon="12.8122957"><ele>17.0</ele><time>2026-03-29T14:01:45.724Z</time></trkpt><trkpt lat="45.8923374" lon="12.8120292"><ele>17.0</ele><time>2026-03-29T14:01:46.715Z</time></trkpt><trkpt lat="45.8921969" lon="12.8117614"><ele>17.5</ele><time>2026-03-29T14:01:47.714Z</time></trkpt><trkpt lat="45.8920569" lon="12.811493"><ele>18.0</ele><time>2026-03-29T14:01:48.716Z</time></trkpt><trkpt lat="45.8919148" lon="12.8112279"><ele>18.0</ele><time>2026-03-29T14:01:49.718Z</time></trkpt><trkpt lat="45.8917743" lon="12.8109615"><ele>18.0</ele><time>2026-03-29T14:01:50.732Z</time></trkpt><trkpt lat="45.891635" lon="12.8106944"><ele>18.0</ele><time>2026-03-29T14:01:51.713Z</time></trkpt><trkpt lat="45.8914943" lon="12.8104302"><ele>18.0</ele><time>2026-03-29T14:01:52.718Z</time></trkpt><trkpt lat="45.8913545" lon="12.8101662"><ele>19.0</ele><time>2026-03-29T14:01:53.721Z</time></trkpt><trkpt lat="45.8912148" lon="12.8099036"><ele>20.0</ele><time>2026-03-29T14:01:54.731Z</time></trkpt><trkpt lat="45.8910759" lon="12.8096409"><ele>20.0</ele><time>2026-03-29T14:01:55.727Z</time></trkpt><trkpt lat="45.8909336" lon="12.8093818"><ele>20.0</ele><time>2026-03-29T14:01:56.716Z</time></trkpt><trkpt lat="45.8907931" lon="12.8091195"><ele>19.0</ele><time>2026-03-29T14:01:57.715Z</time></trkpt><trkpt lat="45.8906529" lon="12.8088554"><ele>18.0</ele><time>2026-03-29T14:01:58.716Z</time></trkpt><trkpt lat="45.890511" lon="12.8085917"><ele>18.0</ele><time>2026-03-29T14:01:59.715Z</time></trkpt><trkpt lat="45.8903697" lon="12.8083256"><ele>18.0</ele><time>2026-03-29T14:02:00.721Z</time></trkpt><trkpt lat="45.8902294" lon="12.8080567"><ele>18.0</ele><time>2026-03-29T14:02:01.717Z</time></trkpt><trkpt lat="45.8900874" lon="12.8077864"><ele>18.0</ele><time>2026-03-29T14:02:02.715Z</time></trkpt><trkpt lat="45.8899452" lon="12.8075131"><ele>18.0</ele><time>2026-03-29T14:02:03.713Z</time></trkpt><trkpt lat="45.8898031" lon="12.8072377"><ele>18.0</ele><time>2026-03-29T14:02:04.73Z</time></trkpt><trkpt lat="45.8896592" lon="12.8069637"><ele>19.0</ele><time>2026-03-29T14:02:05.72Z</time></trkpt><trkpt lat="45.8895144" lon="12.8066924"><ele>20.0</ele><time>2026-03-29T14:02:06.734Z</time></trkpt><trkpt lat="45.8893699" lon="12.806429"><ele>19.333333333333336</ele><time>2026-03-29T14:02:07.716Z</time></trkpt><trkpt lat="45.8892237" lon="12.8061849"><ele>18.666666666666668</ele><time>2026-03-29T14:02:08.727Z</time></trkpt><trkpt lat="45.8890761" lon="12.805958"><ele>18.0</ele><time>2026-03-29T14:02:09.722Z</time></trkpt><trkpt lat="45.8889246" lon="12.8057468"><ele>20.0</ele><time>2026-03-29T14:02:10.718Z</time></trkpt><trkpt lat="45.8887741" lon="12.8055432"><ele>22.0</ele><time>2026-03-29T14:02:11.715Z</time></trkpt><trkpt lat="45.8886293" lon="12.8053422"><ele>24.0</ele><time>2026-03-29T14:02:12.715Z</time></trkpt><trkpt lat="45.8884846" lon="12.8051561"><ele>23.666666666666668</ele><time>2026-03-29T14:02:13.721Z</time></trkpt><trkpt lat="45.8883379" lon="12.804993"><ele>23.333333333333336</ele><time>2026-03-29T14:02:14.72Z</time></trkpt><trkpt lat="45.8882056" lon="12.8048207"><ele>23.0</ele><time>2026-03-29T14:02:15.735Z</time></trkpt><trkpt lat="45.8880719" lon="12.8046573"><ele>23.0</ele><time>2026-03-29T14:02:16.725Z</time></trkpt><trkpt lat="45.8879472" lon="12.804483"><ele>23.0</ele><time>2026-03-29T14:02:17.724Z</time></trkpt><trkpt lat="45.8878245" lon="12.8043129"><ele>23.0</ele><time>2026-03-29T14:02:18.733Z</time></trkpt><trkpt lat="45.8877094" lon="12.804134"><ele>23.333333333333336</ele><time>2026-03-29T14:02:19.708Z</time></trkpt><trkpt lat="45.8876083" lon="12.8039351"><ele>23.666666666666668</ele><time>2026-03-29T14:02:20.72Z</time></trkpt><trkpt lat="45.8875196" lon="12.8037224"><ele>24.0</ele><time>2026-03-29T14:02:21.714Z</time></trkpt><trkpt lat="45.8874394" lon="12.8035045"><ele>23.0</ele><time>2026-03-29T14:02:22.73Z</time></trkpt><trkpt lat="45.887371" lon="12.8032747"><ele>22.0</ele><time>2026-03-29T14:02:23.717Z</time></trkpt><trkpt lat="45.8873308" lon="12.803025"><ele>21.0</ele><time>2026-03-29T14:02:24.717Z</time></trkpt><trkpt lat="45.8873005" lon="12.8027735"><ele>21.0</ele><time>2026-03-29T14:02:25.713Z</time></trkpt><trkpt lat="45.8872654" lon="12.8025253"><ele>21.0</ele><time>2026-03-29T14:02:26.708Z</time></trkpt><trkpt lat="45.8872317" lon="12.8022794"><ele>21.0</ele><time>2026-03-29T14:02:27.725Z</time></trkpt><trkpt lat="45.8872054" lon="12.8020327"><ele>21.333333333333332</ele><time>2026-03-29T14:02:28.739Z</time></trkpt><trkpt lat="45.8871739" lon="12.8017868"><ele>21.666666666666664</ele><time>2026-03-29T14:02:29.714Z</time></trkpt><trkpt lat="45.8871208" lon="12.8015429"><ele>22.0</ele><time>2026-03-29T14:02:30.731Z</time></trkpt><trkpt lat="45.8870622" lon="12.8012971"><ele>22.0</ele><time>2026-03-29T14:02:31.723Z</time></trkpt><trkpt lat="45.8869874" lon="12.8010559"><ele>22.0</ele><time>2026-03-29T14:02:32.729Z</time></trkpt><trkpt lat="45.8869047" lon="12.8008162"><ele>22.0</ele><time>2026-03-29T14:02:33.731Z</time></trkpt><trkpt lat="45.8868239" lon="12.8005764"><ele>21.333333333333332</ele><time>2026-03-29T14:02:34.745Z</time></trkpt><trkpt lat="45.8867458" lon="12.8003339"><ele>20.666666666666668</ele><time>2026-03-29T14:02:35.729Z</time></trkpt><trkpt lat="45.8866659" lon="12.8000875"><ele>20.0</ele><time>2026-03-29T14:02:36.729Z</time></trkpt><trkpt lat="45.886583" lon="12.7998346"><ele>20.0</ele><time>2026-03-29T14:02:37.724Z</time></trkpt><trkpt lat="45.8864976" lon="12.7995767"><ele>20.0</ele><time>2026-03-29T14:02:38.733Z</time></trkpt><trkpt lat="45.886414" lon="12.7993108"><ele>20.0</ele><time>2026-03-29T14:02:39.716Z</time></trkpt><trkpt lat="45.8863253" lon="12.7990409"><ele>20.333333333333336</ele><time>2026-03-29T14:02:40.72Z</time></trkpt><trkpt lat="45.8862353" lon="12.7987668"><ele>20.666666666666668</ele><time>2026-03-29T14:02:41.727Z</time></trkpt><trkpt lat="45.886144" lon="12.7984893"><ele>21.0</ele><time>2026-03-29T14:02:42.714Z</time></trkpt><trkpt lat="45.8860538" lon="12.7982049"><ele>20.333333333333332</ele><time>2026-03-29T14:02:43.738Z</time></trkpt><trkpt lat="45.8859588" lon="12.7979242"><ele>19.666666666666664</ele><time>2026-03-29T14:02:44.724Z</time></trkpt><trkpt lat="45.8858701" lon="12.7976462"><ele>19.0</ele><time>2026-03-29T14:02:45.704Z</time></trkpt><trkpt lat="45.8857802" lon="12.7973707"><ele>18.0</ele><time>2026-03-29T14:02:46.712Z</time></trkpt><trkpt lat="45.8856873" lon="12.7970951"><ele>17.0</ele><time>2026-03-29T14:02:47.715Z</time></trkpt><trkpt lat="45.8855922" lon="12.7968138"><ele>16.0</ele><time>2026-03-29T14:02:48.714Z</time></trkpt><trkpt lat="45.8854995" lon="12.796524"><ele>15.5</ele><time>2026-03-29T14:02:49.718Z</time></trkpt><trkpt lat="45.8854062" lon="12.7962294"><ele>15.0</ele><time>2026-03-29T14:02:50.708Z</time></trkpt><trkpt lat="45.8853128" lon="12.7959304"><ele>14.5</ele><time>2026-03-29T14:02:51.725Z</time></trkpt><trkpt lat="45.8852172" lon="12.7956326"><ele>14.0</ele><time>2026-03-29T14:02:52.716Z</time></trkpt><trkpt lat="45.8851269" lon="12.7953332"><ele>14.333333333333334</ele><time>2026-03-29T14:02:53.727Z</time></trkpt><trkpt lat="45.8850356" lon="12.7950378"><ele>14.666666666666668</ele><time>2026-03-29T14:02:54.71Z</time></trkpt><trkpt lat="45.8849417" lon="12.7947471"><ele>15.0</ele><time>2026-03-29T14:02:55.709Z</time></trkpt><trkpt lat="45.8848474" lon="12.7944561"><ele>15.333333333333332</ele><time>2026-03-29T14:02:56.723Z</time></trkpt><trkpt lat="45.8847506" lon="12.7941664"><ele>15.666666666666666</ele><time>2026-03-29T14:02:57.714Z</time></trkpt><trkpt lat="45.8846559" lon="12.7938749"><ele>16.0</ele><time>2026-03-29T14:02:58.723Z</time></trkpt><trkpt lat="45.884561" lon="12.7935838"><ele>15.666666666666666</ele><time>2026-03-29T14:02:59.705Z</time></trkpt><trkpt lat="45.8844648" lon="12.7932948"><ele>15.333333333333332</ele><time>2026-03-29T14:03:00.717Z</time></trkpt><trkpt lat="45.8843717" lon="12.7930076"><ele>15.0</ele><time>2026-03-29T14:03:01.704Z</time></trkpt><trkpt lat="45.8842803" lon="12.7927232"><ele>14.333333333333332</ele><time>2026-03-29T14:03:02.703Z</time></trkpt><trkpt lat="45.8841871" lon="12.7924441"><ele>13.666666666666666</ele><time>2026-03-29T14:03:03.711Z</time></trkpt><trkpt lat="45.8840849" lon="12.7921744"><ele>13.0</ele><time>2026-03-29T14:03:04.713Z</time></trkpt><trkpt lat="45.8839922" lon="12.7919012"><ele>13.666666666666666</ele><time>2026-03-29T14:03:05.722Z</time></trkpt><trkpt lat="45.8839144" lon="12.7916219"><ele>14.333333333333332</ele><time>2026-03-29T14:03:06.716Z</time></trkpt><trkpt lat="45.8838278" lon="12.7913505"><ele>15.0</ele><time>2026-03-29T14:03:07.711Z</time></trkpt><trkpt lat="45.8837385" lon="12.7910827"><ele>15.333333333333332</ele><time>2026-03-29T14:03:08.715Z</time></trkpt><trkpt lat="45.8836501" lon="12.7908147"><ele>15.666666666666666</ele><time>2026-03-29T14:03:09.717Z</time></trkpt><trkpt lat="45.8835498" lon="12.7905524"><ele>16.0</ele><time>2026-03-29T14:03:10.725Z</time></trkpt><trkpt lat="45.8834571" lon="12.7902843"><ele>15.333333333333332</ele><time>2026-03-29T14:03:11.723Z</time></trkpt><trkpt lat="45.883366" lon="12.7900148"><ele>14.666666666666668</ele><time>2026-03-29T14:03:12.721Z</time></trkpt><trkpt lat="45.8832753" lon="12.7897449"><ele>14.0</ele><time>2026-03-29T14:03:13.714Z</time></trkpt><trkpt lat="45.8831825" lon="12.789476"><ele>14.0</ele><time>2026-03-29T14:03:14.707Z</time></trkpt><trkpt lat="45.8830906" lon="12.7892047"><ele>14.0</ele><time>2026-03-29T14:03:15.719Z</time></trkpt><trkpt lat="45.8829853" lon="12.7889409"><ele>14.0</ele><time>2026-03-29T14:03:16.722Z</time></trkpt><trkpt lat="45.8828878" lon="12.78867"><ele>14.333333333333334</ele><time>2026-03-29T14:03:17.73Z</time></trkpt><trkpt lat="45.8827634" lon="12.7884183"><ele>14.666666666666668</ele><time>2026-03-29T14:03:18.712Z</time></trkpt><trkpt lat="45.8826513" lon="12.7881549"><ele>15.0</ele><time>2026-03-29T14:03:19.721Z</time></trkpt><trkpt lat="45.8825309" lon="12.787898"><ele>15.333333333333332</ele><time>2026-03-29T14:03:20.728Z</time></trkpt><trkpt lat="45.8824082" lon="12.7876414"><ele>15.666666666666666</ele><time>2026-03-29T14:03:21.715Z</time></trkpt><trkpt lat="45.8822864" lon="12.7873834"><ele>16.0</ele><time>2026-03-29T14:03:22.721Z</time></trkpt><trkpt lat="45.8821656" lon="12.7871272"><ele>16.0</ele><time>2026-03-29T14:03:23.742Z</time></trkpt><trkpt lat="45.8820458" lon="12.7868719"><ele>16.0</ele><time>2026-03-29T14:03:24.726Z</time></trkpt><trkpt lat="45.8819252" lon="12.7866176"><ele>16.0</ele><time>2026-03-29T14:03:25.729Z</time></trkpt><trkpt lat="45.8818061" lon="12.7863642"><ele>16.333333333333332</ele><time>2026-03-29T14:03:26.73Z</time></trkpt><trkpt lat="45.8816884" lon="12.7861138"><ele>16.666666666666668</ele><time>2026-03-29T14:03:27.726Z</time></trkpt><trkpt lat="45.881583" lon="12.7858567"><ele>17.0</ele><time>2026-03-29T14:03:28.726Z</time></trkpt><trkpt lat="45.8814657" lon="12.7856178"><ele>17.0</ele><time>2026-03-29T14:03:29.715Z</time></trkpt><trkpt lat="45.8813528" lon="12.7853795"><ele>17.0</ele><time>2026-03-29T14:03:30.722Z</time></trkpt><trkpt lat="45.8812411" lon="12.7851382"><ele>17.0</ele><time>2026-03-29T14:03:31.719Z</time></trkpt><trkpt lat="45.8811183" lon="12.784903"><ele>17.0</ele><time>2026-03-29T14:03:32.719Z</time></trkpt><trkpt lat="45.8809975" lon="12.784664"><ele>17.0</ele><time>2026-03-29T14:03:33.728Z</time></trkpt><trkpt lat="45.8808785" lon="12.784425"><ele>17.0</ele><time>2026-03-29T14:03:34.737Z</time></trkpt><trkpt lat="45.8807608" lon="12.7841905"><ele>16.666666666666668</ele><time>2026-03-29T14:03:35.718Z</time></trkpt><trkpt lat="45.8806452" lon="12.7839577"><ele>16.333333333333332</ele><time>2026-03-29T14:03:36.729Z</time></trkpt><trkpt lat="45.8805273" lon="12.7837291"><ele>16.0</ele><time>2026-03-29T14:03:37.727Z</time></trkpt><trkpt lat="45.8804115" lon="12.7834932"><ele>16.0</ele><time>2026-03-29T14:03:38.707Z</time></trkpt><trkpt lat="45.8802965" lon="12.7832533"><ele>16.0</ele><time>2026-03-29T14:03:39.723Z</time></trkpt><trkpt lat="45.8801829" lon="12.7830104"><ele>16.0</ele><time>2026-03-29T14:03:40.728Z</time></trkpt><trkpt lat="45.8800712" lon="12.7827622"><ele>16.333333333333332</ele><time>2026-03-29T14:03:41.709Z</time></trkpt><trkpt lat="45.8799555" lon="12.7825167"><ele>16.666666666666668</ele><time>2026-03-29T14:03:42.733Z</time></trkpt><trkpt lat="45.879838" lon="12.7822746"><ele>17.0</ele><time>2026-03-29T14:03:43.714Z</time></trkpt><trkpt lat="45.8797223" lon="12.782033"><ele>17.0</ele><time>2026-03-29T14:03:44.726Z</time></trkpt><trkpt lat="45.8796059" lon="12.7817952"><ele>17.0</ele><time>2026-03-29T14:03:45.729Z</time></trkpt><trkpt lat="45.8794899" lon="12.7815627"><ele>17.0</ele><time>2026-03-29T14:03:46.712Z</time></trkpt><trkpt lat="45.8793763" lon="12.7813324"><ele>17.0</ele><time>2026-03-29T14:03:47.732Z</time></trkpt><trkpt lat="45.8792607" lon="12.7811068"><ele>17.0</ele><time>2026-03-29T14:03:48.729Z</time></trkpt><trkpt lat="45.8791424" lon="12.7808836"><ele>17.0</ele><time>2026-03-29T14:03:49.714Z</time></trkpt><trkpt lat="45.8790183" lon="12.7806661"><ele>17.0</ele><time>2026-03-29T14:03:50.72Z</time></trkpt><trkpt lat="45.8788905" lon="12.780451"><ele>17.0</ele><time>2026-03-29T14:03:51.713Z</time></trkpt><trkpt lat="45.8787554" lon="12.7802432"><ele>17.0</ele><time>2026-03-29T14:03:52.712Z</time></trkpt><trkpt lat="45.8786184" lon="12.780034"><ele>17.0</ele><time>2026-03-29T14:03:53.735Z</time></trkpt><trkpt lat="45.8784749" lon="12.7798314"><ele>17.0</ele><time>2026-03-29T14:03:54.726Z</time></trkpt><trkpt lat="45.878331" lon="12.7796269"><ele>17.0</ele><time>2026-03-29T14:03:55.762Z</time></trkpt><trkpt lat="45.8781828" lon="12.7794318"><ele>16.666666666666668</ele><time>2026-03-29T14:03:56.716Z</time></trkpt><trkpt lat="45.8780335" lon="12.7792437"><ele>16.333333333333332</ele><time>2026-03-29T14:03:57.713Z</time></trkpt><trkpt lat="45.8778826" lon="12.7790583"><ele>16.0</ele><time>2026-03-29T14:03:58.716Z</time></trkpt><trkpt lat="45.8777287" lon="12.77888"><ele>15.666666666666666</ele><time>2026-03-29T14:03:59.71Z</time></trkpt><trkpt lat="45.8775744" lon="12.7787093"><ele>15.333333333333332</ele><time>2026-03-29T14:04:00.729Z</time></trkpt><trkpt lat="45.8774205" lon="12.7785443"><ele>15.0</ele><time>2026-03-29T14:04:01.718Z</time></trkpt><trkpt lat="45.8772662" lon="12.778393"><ele>15.666666666666668</ele><time>2026-03-29T14:04:02.727Z</time></trkpt><trkpt lat="45.8771232" lon="12.7782369"><ele>16.333333333333336</ele><time>2026-03-29T14:04:03.731Z</time></trkpt><trkpt lat="45.8769869" lon="12.778081"><ele>17.0</ele><time>2026-03-29T14:04:04.716Z</time></trkpt><trkpt lat="45.8768506" lon="12.7779364"><ele>16.333333333333336</ele><time>2026-03-29T14:04:05.715Z</time></trkpt><trkpt lat="45.8767202" lon="12.7777864"><ele>15.666666666666668</ele><time>2026-03-29T14:04:06.721Z</time></trkpt><trkpt lat="45.8765913" lon="12.777633"><ele>15.0</ele><time>2026-03-29T14:04:07.728Z</time></trkpt><trkpt lat="45.8764585" lon="12.7774826"><ele>15.0</ele><time>2026-03-29T14:04:08.714Z</time></trkpt><trkpt lat="45.8763202" lon="12.7773356"><ele>15.0</ele><time>2026-03-29T14:04:09.718Z</time></trkpt><trkpt lat="45.8761789" lon="12.7771876"><ele>15.0</ele><time>2026-03-29T14:04:10.724Z</time></trkpt><trkpt lat="45.8760347" lon="12.777039"><ele>15.0</ele><time>2026-03-29T14:04:11.71Z</time></trkpt><trkpt lat="45.8758888" lon="12.7768875"><ele>15.0</ele><time>2026-03-29T14:04:12.736Z</time></trkpt><trkpt lat="45.8757465" lon="12.7767295"><ele>15.0</ele><time>2026-03-29T14:04:13.714Z</time></trkpt><trkpt lat="45.8756088" lon="12.7765752"><ele>15.333333333333332</ele><time>2026-03-29T14:04:14.735Z</time></trkpt><trkpt lat="45.8754797" lon="12.776425"><ele>15.666666666666666</ele><time>2026-03-29T14:04:15.722Z</time></trkpt><trkpt lat="45.8753611" lon="12.776279"><ele>16.0</ele><time>2026-03-29T14:04:16.727Z</time></trkpt><trkpt lat="45.8752522" lon="12.7761345"><ele>16.0</ele><time>2026-03-29T14:04:17.732Z</time></trkpt><trkpt lat="45.8751415" lon="12.7760018"><ele>16.0</ele><time>2026-03-29T14:04:18.725Z</time></trkpt><trkpt lat="45.8750377" lon="12.7758507"><ele>16.0</ele><time>2026-03-29T14:04:19.711Z</time></trkpt><trkpt lat="45.8749255" lon="12.7756967"><ele>16.0</ele><time>2026-03-29T14:04:20.713Z</time></trkpt><trkpt lat="45.8747952" lon="12.7755387"><ele>15.666666666666666</ele><time>2026-03-29T14:04:21.718Z</time></trkpt><trkpt lat="45.8746514" lon="12.775362"><ele>15.333333333333332</ele><time>2026-03-29T14:04:22.725Z</time></trkpt><trkpt lat="45.8744994" lon="12.7751689"><ele>15.0</ele><time>2026-03-29T14:04:23.715Z</time></trkpt><trkpt lat="45.874349" lon="12.7749642"><ele>15.0</ele><time>2026-03-29T14:04:24.724Z</time></trkpt><trkpt lat="45.8742007" lon="12.7747708"><ele>15.0</ele><time>2026-03-29T14:04:25.714Z</time></trkpt><trkpt lat="45.8740621" lon="12.7745765"><ele>15.0</ele><time>2026-03-29T14:04:26.712Z</time></trkpt><trkpt lat="45.873931" lon="12.7743746"><ele>15.666666666666668</ele><time>2026-03-29T14:04:27.718Z</time></trkpt><trkpt lat="45.8737966" lon="12.7741834"><ele>16.333333333333336</ele><time>2026-03-29T14:04:28.713Z</time></trkpt><trkpt lat="45.8736618" lon="12.7739943"><ele>17.0</ele><time>2026-03-29T14:04:29.722Z</time></trkpt><trkpt lat="45.8735237" lon="12.7738062"><ele>17.0</ele><time>2026-03-29T14:04:30.75Z</time></trkpt><trkpt lat="45.8733854" lon="12.7736185"><ele>17.0</ele><time>2026-03-29T14:04:31.73Z</time></trkpt><trkpt lat="45.8732521" lon="12.7734338"><ele>17.0</ele><time>2026-03-29T14:04:32.737Z</time></trkpt><trkpt lat="45.8731252" lon="12.7732577"><ele>17.666666666666668</ele><time>2026-03-29T14:04:33.714Z</time></trkpt><trkpt lat="45.8730062" lon="12.7730884"><ele>18.333333333333332</ele><time>2026-03-29T14:04:34.717Z</time></trkpt><trkpt lat="45.8728866" lon="12.7729429"><ele>19.0</ele><time>2026-03-29T14:04:35.717Z</time></trkpt><trkpt lat="45.872779" lon="12.7727925"><ele>19.666666666666664</ele><time>2026-03-29T14:04:36.711Z</time></trkpt><trkpt lat="45.8726716" lon="12.7726423"><ele>20.333333333333332</ele><time>2026-03-29T14:04:37.728Z</time></trkpt><trkpt lat="45.8725626" lon="12.7724898"><ele>21.0</ele><time>2026-03-29T14:04:38.713Z</time></trkpt><trkpt lat="45.8724555" lon="12.7723267"><ele>19.333333333333332</ele><time>2026-03-29T14:04:39.725Z</time></trkpt><trkpt lat="45.8723373" lon="12.772175"><ele>17.666666666666664</ele><time>2026-03-29T14:04:40.723Z</time></trkpt><trkpt lat="45.8722189" lon="12.7720168"><ele>16.0</ele><time>2026-03-29T14:04:41.716Z</time></trkpt><trkpt lat="45.8720969" lon="12.7718563"><ele>15.666666666666666</ele><time>2026-03-29T14:04:42.745Z</time></trkpt><trkpt lat="45.8719612" lon="12.7717044"><ele>15.333333333333332</ele><time>2026-03-29T14:04:43.716Z</time></trkpt><trkpt lat="45.8718178" lon="12.7715323"><ele>15.0</ele><time>2026-03-29T14:04:44.713Z</time></trkpt><trkpt lat="45.8716597" lon="12.77134"><ele>14.333333333333332</ele><time>2026-03-29T14:04:45.727Z</time></trkpt><trkpt lat="45.871494" lon="12.7711298"><ele>13.666666666666666</ele><time>2026-03-29T14:04:46.718Z</time></trkpt><trkpt lat="45.8713289" lon="12.7709064"><ele>13.0</ele><time>2026-03-29T14:04:47.727Z</time></trkpt><trkpt lat="45.8711649" lon="12.7706635"><ele>14.5</ele><time>2026-03-29T14:04:48.734Z</time></trkpt><trkpt lat="45.8709661" lon="12.7704481"><ele>16.0</ele><time>2026-03-29T14:04:49.716Z</time></trkpt><trkpt lat="45.8707581" lon="12.7702127"><ele>15.5</ele><time>2026-03-29T14:04:50.714Z</time></trkpt><trkpt lat="45.8705463" lon="12.769975"><ele>15.0</ele><time>2026-03-29T14:04:51.732Z</time></trkpt><trkpt lat="45.8703403" lon="12.7697329"><ele>15.0</ele><time>2026-03-29T14:04:52.728Z</time></trkpt><trkpt lat="45.8701372" lon="12.7694949"><ele>15.0</ele><time>2026-03-29T14:04:53.722Z</time></trkpt><trkpt lat="45.8699385" lon="12.7692485"><ele>14.0</ele><time>2026-03-29T14:04:54.732Z</time></trkpt><trkpt lat="45.8697374" lon="12.7690011"><ele>13.0</ele><time>2026-03-29T14:04:55.714Z</time></trkpt><trkpt lat="45.8695341" lon="12.7687526"><ele>13.5</ele><time>2026-03-29T14:04:56.71Z</time></trkpt><trkpt lat="45.8693318" lon="12.7685057"><ele>14.0</ele><time>2026-03-29T14:04:57.724Z</time></trkpt><trkpt lat="45.8691336" lon="12.7682683"><ele>14.0</ele><time>2026-03-29T14:04:58.731Z</time></trkpt><trkpt lat="45.868946" lon="12.768039"><ele>14.0</ele><time>2026-03-29T14:04:59.717Z</time></trkpt><trkpt lat="45.8687637" lon="12.7678284"><ele>13.0</ele><time>2026-03-29T14:05:00.735Z</time></trkpt><trkpt lat="45.8685851" lon="12.7676233"><ele>12.0</ele><time>2026-03-29T14:05:01.727Z</time></trkpt><trkpt lat="45.8684019" lon="12.7674187"><ele>12.0</ele><time>2026-03-29T14:05:02.731Z</time></trkpt><trkpt lat="45.8682147" lon="12.7672038"><ele>12.0</ele><time>2026-03-29T14:05:03.727Z</time></trkpt><trkpt lat="45.8680242" lon="12.7669784"><ele>12.0</ele><time>2026-03-29T14:05:04.729Z</time></trkpt><trkpt lat="45.8678351" lon="12.7667511"><ele>12.0</ele><time>2026-03-29T14:05:05.734Z</time></trkpt><trkpt lat="45.8676529" lon="12.7665277"><ele>12.5</ele><time>2026-03-29T14:05:06.718Z</time></trkpt><trkpt lat="45.8674784" lon="12.7663105"><ele>13.0</ele><time>2026-03-29T14:05:07.73Z</time></trkpt><trkpt lat="45.8673049" lon="12.7661056"><ele>12.666666666666666</ele><time>2026-03-29T14:05:08.747Z</time></trkpt><trkpt lat="45.8671333" lon="12.7659043"><ele>12.333333333333332</ele><time>2026-03-29T14:05:09.723Z</time></trkpt><trkpt lat="45.8669517" lon="12.765726"><ele>12.0</ele><time>2026-03-29T14:05:10.742Z</time></trkpt><trkpt lat="45.8667928" lon="12.765531"><ele>12.0</ele><time>2026-03-29T14:05:11.732Z</time></trkpt><trkpt lat="45.8666384" lon="12.7653445"><ele>12.0</ele><time>2026-03-29T14:05:12.728Z</time></trkpt><trkpt lat="45.8664992" lon="12.7651759"><ele>12.0</ele><time>2026-03-29T14:05:13.714Z</time></trkpt><trkpt lat="45.8663687" lon="12.7650231"><ele>12.0</ele><time>2026-03-29T14:05:14.719Z</time></trkpt><trkpt lat="45.8662452" lon="12.7648687"><ele>12.0</ele><time>2026-03-29T14:05:15.722Z</time></trkpt><trkpt lat="45.8661335" lon="12.7647119"><ele>12.0</ele><time>2026-03-29T14:05:16.721Z</time></trkpt><trkpt lat="45.8660282" lon="12.7645542"><ele>12.5</ele><time>2026-03-29T14:05:17.742Z</time></trkpt><trkpt lat="45.8659365" lon="12.7644165"><ele>13.0</ele><time>2026-03-29T14:05:18.73Z</time></trkpt><trkpt lat="45.8658527" lon="12.7642872"><ele>13.5</ele><time>2026-03-29T14:05:19.716Z</time></trkpt><trkpt lat="45.8657748" lon="12.7641635"><ele>14.0</ele><time>2026-03-29T14:05:20.729Z</time></trkpt><trkpt lat="45.8657141" lon="12.7640574"><ele>14.0</ele><time>2026-03-29T14:05:21.725Z</time></trkpt><trkpt lat="45.8656577" lon="12.7639646"><ele>13.999999999999998</ele><time>2026-03-29T14:05:22.754Z</time></trkpt><trkpt lat="45.8655593" lon="12.7638352"><ele>13.999999999999998</ele><time>2026-03-29T14:05:24.728Z</time></trkpt><trkpt lat="45.8654705" lon="12.7638504"><ele>14.0</ele><time>2026-03-29T14:05:25.729Z</time></trkpt><trkpt lat="45.8653741" lon="12.7638999"><ele>14.0</ele><time>2026-03-29T14:05:26.724Z</time></trkpt><trkpt lat="45.865275" lon="12.7640006"><ele>14.0</ele><time>2026-03-29T14:05:27.734Z</time></trkpt><trkpt lat="45.865167" lon="12.7641163"><ele>14.0</ele><time>2026-03-29T14:05:28.714Z</time></trkpt><trkpt lat="45.8650509" lon="12.7642377"><ele>14.0</ele><time>2026-03-29T14:05:29.714Z</time></trkpt><trkpt lat="45.8649236" lon="12.7643632"><ele>14.0</ele><time>2026-03-29T14:05:30.72Z</time></trkpt><trkpt lat="45.8647931" lon="12.7645063"><ele>13.666666666666668</ele><time>2026-03-29T14:05:31.732Z</time></trkpt><trkpt lat="45.8646471" lon="12.7646373"><ele>13.333333333333332</ele><time>2026-03-29T14:05:32.733Z</time></trkpt><trkpt lat="45.8644988" lon="12.764789"><ele>13.0</ele><time>2026-03-29T14:05:33.731Z</time></trkpt><trkpt lat="45.8643532" lon="12.7649588"><ele>12.666666666666666</ele><time>2026-03-29T14:05:34.709Z</time></trkpt><trkpt lat="45.8641996" lon="12.7651137"><ele>12.333333333333332</ele><time>2026-03-29T14:05:35.712Z</time></trkpt><trkpt lat="45.864046" lon="12.7652696"><ele>12.0</ele><time>2026-03-29T14:05:36.727Z</time></trkpt><trkpt lat="45.8639021" lon="12.7654395"><ele>12.0</ele><time>2026-03-29T14:05:37.722Z</time></trkpt><trkpt lat="45.8637556" lon="12.7655866"><ele>12.0</ele><time>2026-03-29T14:05:38.715Z</time></trkpt><trkpt lat="45.8636056" lon="12.7657341"><ele>12.0</ele><time>2026-03-29T14:05:39.721Z</time></trkpt><trkpt lat="45.8634468" lon="12.7658878"><ele>12.0</ele><time>2026-03-29T14:05:40.73Z</time></trkpt><trkpt lat="45.8632772" lon="12.7660405"><ele>12.0</ele><time>2026-03-29T14:05:41.713Z</time></trkpt><trkpt lat="45.8631159" lon="12.7662226"><ele>12.0</ele><time>2026-03-29T14:05:42.736Z</time></trkpt><trkpt lat="45.8629482" lon="12.7663903"><ele>12.0</ele><time>2026-03-29T14:05:43.721Z</time></trkpt><trkpt lat="45.8627815" lon="12.7665519"><ele>12.0</ele><time>2026-03-29T14:05:44.717Z</time></trkpt><trkpt lat="45.8626213" lon="12.7667067"><ele>12.0</ele><time>2026-03-29T14:05:45.727Z</time></trkpt><trkpt lat="45.8624704" lon="12.7668547"><ele>11.333333333333334</ele><time>2026-03-29T14:05:46.718Z</time></trkpt><trkpt lat="45.8623216" lon="12.7669945"><ele>10.666666666666668</ele><time>2026-03-29T14:05:47.727Z</time></trkpt><trkpt lat="45.8621735" lon="12.7671338"><ele>10.0</ele><time>2026-03-29T14:05:48.719Z</time></trkpt><trkpt lat="45.8620252" lon="12.7672749"><ele>10.0</ele><time>2026-03-29T14:05:49.716Z</time></trkpt><trkpt lat="45.8618761" lon="12.7674208"><ele>10.0</ele><time>2026-03-29T14:05:50.733Z</time></trkpt><trkpt lat="45.8617244" lon="12.7675726"><ele>10.0</ele><time>2026-03-29T14:05:51.711Z</time></trkpt><trkpt lat="45.8615696" lon="12.767725"><ele>10.333333333333334</ele><time>2026-03-29T14:05:52.722Z</time></trkpt><trkpt lat="45.8614153" lon="12.7678772"><ele>10.666666666666666</ele><time>2026-03-29T14:05:53.732Z</time></trkpt><trkpt lat="45.861262" lon="12.768031"><ele>11.0</ele><time>2026-03-29T14:05:54.721Z</time></trkpt><trkpt lat="45.8611094" lon="12.7681868"><ele>11.0</ele><time>2026-03-29T14:05:55.73Z</time></trkpt><trkpt lat="45.8609567" lon="12.7683427"><ele>11.0</ele><time>2026-03-29T14:05:56.722Z</time></trkpt><trkpt lat="45.860805" lon="12.7685015"><ele>11.0</ele><time>2026-03-29T14:05:57.722Z</time></trkpt><trkpt lat="45.8606522" lon="12.7686555"><ele>11.0</ele><time>2026-03-29T14:05:58.717Z</time></trkpt><trkpt lat="45.8605026" lon="12.7688128"><ele>11.0</ele><time>2026-03-29T14:05:59.721Z</time></trkpt><trkpt lat="45.8603531" lon="12.7689616"><ele>11.0</ele><time>2026-03-29T14:06:00.723Z</time></trkpt><trkpt lat="45.8602113" lon="12.7691032"><ele>11.0</ele><time>2026-03-29T14:06:01.706Z</time></trkpt><trkpt lat="45.8600751" lon="12.7692352"><ele>11.0</ele><time>2026-03-29T14:06:02.716Z</time></trkpt><trkpt lat="45.8599417" lon="12.7693637"><ele>11.0</ele><time>2026-03-29T14:06:03.719Z</time></trkpt><trkpt lat="45.859811" lon="12.7694924"><ele>11.0</ele><time>2026-03-29T14:06:04.714Z</time></trkpt><trkpt lat="45.8596812" lon="12.7696245"><ele>11.0</ele><time>2026-03-29T14:06:05.722Z</time></trkpt><trkpt lat="45.8595496" lon="12.7697579"><ele>11.0</ele><time>2026-03-29T14:06:06.731Z</time></trkpt><trkpt lat="45.8594144" lon="12.7698924"><ele>11.666666666666666</ele><time>2026-03-29T14:06:07.732Z</time></trkpt><trkpt lat="45.8592738" lon="12.7700221"><ele>12.333333333333332</ele><time>2026-03-29T14:06:08.72Z</time></trkpt><trkpt lat="45.859132" lon="12.7701569"><ele>13.0</ele><time>2026-03-29T14:06:09.724Z</time></trkpt><trkpt lat="45.8589769" lon="12.7702823"><ele>13.333333333333332</ele><time>2026-03-29T14:06:10.733Z</time></trkpt><trkpt lat="45.8588216" lon="12.7704252"><ele>13.666666666666668</ele><time>2026-03-29T14:06:11.732Z</time></trkpt><trkpt lat="45.8586696" lon="12.7705733"><ele>14.0</ele><time>2026-03-29T14:06:12.735Z</time></trkpt><trkpt lat="45.8585254" lon="12.7707233"><ele>13.666666666666668</ele><time>2026-03-29T14:06:13.737Z</time></trkpt><trkpt lat="45.8583933" lon="12.770878"><ele>13.333333333333332</ele><time>2026-03-29T14:06:14.73Z</time></trkpt><trkpt lat="45.8582612" lon="12.7710269"><ele>13.0</ele><time>2026-03-29T14:06:15.723Z</time></trkpt><trkpt lat="45.8581626" lon="12.7712171"><ele>13.0</ele><time>2026-03-29T14:06:16.728Z</time></trkpt><trkpt lat="45.8580747" lon="12.7714177"><ele>13.0</ele><time>2026-03-29T14:06:17.715Z</time></trkpt><trkpt lat="45.8579898" lon="12.7716212"><ele>13.0</ele><time>2026-03-29T14:06:18.716Z</time></trkpt><trkpt lat="45.8579476" lon="12.7718519"><ele>12.666666666666666</ele><time>2026-03-29T14:06:19.723Z</time></trkpt><trkpt lat="45.8579347" lon="12.7720968"><ele>12.333333333333332</ele><time>2026-03-29T14:06:20.719Z</time></trkpt><trkpt lat="45.8579553" lon="12.7723505"><ele>12.0</ele><time>2026-03-29T14:06:21.74Z</time></trkpt><trkpt lat="45.8580011" lon="12.7726047"><ele>12.0</ele><time>2026-03-29T14:06:22.724Z</time></trkpt><trkpt lat="45.8580599" lon="12.772855"><ele>12.0</ele><time>2026-03-29T14:06:23.712Z</time></trkpt><trkpt lat="45.8581231" lon="12.7730913"><ele>12.0</ele><time>2026-03-29T14:06:24.718Z</time></trkpt><trkpt lat="45.8581796" lon="12.7733125"><ele>12.0</ele><time>2026-03-29T14:06:25.718Z</time></trkpt><trkpt lat="45.8582345" lon="12.7735195"><ele>12.0</ele><time>2026-03-29T14:06:26.72Z</time></trkpt><trkpt lat="45.8582652" lon="12.7737194"><ele>12.0</ele><time>2026-03-29T14:06:27.741Z</time></trkpt><trkpt lat="45.8582781" lon="12.7739081"><ele>12.0</ele><time>2026-03-29T14:06:28.713Z</time></trkpt><trkpt lat="45.8582706" lon="12.7740868"><ele>12.0</ele><time>2026-03-29T14:06:29.737Z</time></trkpt><trkpt lat="45.8582535" lon="12.7742604"><ele>12.0</ele><time>2026-03-29T14:06:30.722Z</time></trkpt><trkpt lat="45.8582345" lon="12.7744385"><ele>12.0</ele><time>2026-03-29T14:06:31.711Z</time></trkpt><trkpt lat="45.8581884" lon="12.7746228"><ele>12.0</ele><time>2026-03-29T14:06:32.731Z</time></trkpt><trkpt lat="45.8581456" lon="12.7748262"><ele>12.0</ele><time>2026-03-29T14:06:33.715Z</time></trkpt><trkpt lat="45.8580641" lon="12.775023"><ele>12.0</ele><time>2026-03-29T14:06:34.741Z</time></trkpt><trkpt lat="45.8579662" lon="12.7752188"><ele>12.0</ele><time>2026-03-29T14:06:35.714Z</time></trkpt><trkpt lat="45.8578452" lon="12.7754024"><ele>12.0</ele><time>2026-03-29T14:06:36.733Z</time></trkpt><trkpt lat="45.8577195" lon="12.7755864"><ele>12.0</ele><time>2026-03-29T14:06:37.719Z</time></trkpt><trkpt lat="45.8575766" lon="12.7757634"><ele>12.0</ele><time>2026-03-29T14:06:38.73Z</time></trkpt><trkpt lat="45.8574381" lon="12.7759636"><ele>11.666666666666666</ele><time>2026-03-29T14:06:39.724Z</time></trkpt><trkpt lat="45.8572957" lon="12.7761676"><ele>11.333333333333332</ele><time>2026-03-29T14:06:40.737Z</time></trkpt><trkpt lat="45.8571545" lon="12.7763775"><ele>11.0</ele><time>2026-03-29T14:06:41.729Z</time></trkpt><trkpt lat="45.8570151" lon="12.7765918"><ele>11.0</ele><time>2026-03-29T14:06:42.715Z</time></trkpt><trkpt lat="45.8568692" lon="12.7767995"><ele>11.0</ele><time>2026-03-29T14:06:43.724Z</time></trkpt><trkpt lat="45.8567189" lon="12.7770035"><ele>11.0</ele><time>2026-03-29T14:06:44.747Z</time></trkpt><trkpt lat="45.8565672" lon="12.7772111"><ele>11.0</ele><time>2026-03-29T14:06:45.734Z</time></trkpt><trkpt lat="45.8564104" lon="12.7774273"><ele>11.0</ele><time>2026-03-29T14:06:46.72Z</time></trkpt><trkpt lat="45.8562503" lon="12.7776581"><ele>11.0</ele><time>2026-03-29T14:06:47.731Z</time></trkpt><trkpt lat="45.8560708" lon="12.7778819"><ele>12.0</ele><time>2026-03-29T14:06:48.733Z</time></trkpt><trkpt lat="45.8558921" lon="12.77812"><ele>13.0</ele><time>2026-03-29T14:06:49.735Z</time></trkpt><trkpt lat="45.8557127" lon="12.7783603"><ele>12.0</ele><time>2026-03-29T14:06:50.721Z</time></trkpt><trkpt lat="45.8555329" lon="12.778607"><ele>11.0</ele><time>2026-03-29T14:06:51.726Z</time></trkpt><trkpt lat="45.8553491" lon="12.7788557"><ele>11.0</ele><time>2026-03-29T14:06:52.738Z</time></trkpt><trkpt lat="45.8551596" lon="12.7791087"><ele>11.0</ele><time>2026-03-29T14:06:53.705Z</time></trkpt><trkpt lat="45.8549653" lon="12.7793684"><ele>11.0</ele><time>2026-03-29T14:06:54.713Z</time></trkpt><trkpt lat="45.8547661" lon="12.7796358"><ele>11.0</ele><time>2026-03-29T14:06:55.719Z</time></trkpt><trkpt lat="45.8545603" lon="12.7799088"><ele>11.0</ele><time>2026-03-29T14:06:56.71Z</time></trkpt><trkpt lat="45.8543466" lon="12.7801822"><ele>11.0</ele><time>2026-03-29T14:06:57.729Z</time></trkpt><trkpt lat="45.8541296" lon="12.7804669"><ele>10.5</ele><time>2026-03-29T14:06:58.716Z</time></trkpt><trkpt lat="45.8539051" lon="12.7807584"><ele>10.0</ele><time>2026-03-29T14:06:59.732Z</time></trkpt><trkpt lat="45.8536915" lon="12.7810678"><ele>10.0</ele><time>2026-03-29T14:07:00.713Z</time></trkpt><trkpt lat="45.8534682" lon="12.7813562"><ele>10.0</ele><time>2026-03-29T14:07:01.708Z</time></trkpt><trkpt lat="45.853244" lon="12.7816372"><ele>10.5</ele><time>2026-03-29T14:07:02.712Z</time></trkpt><trkpt lat="45.8530107" lon="12.7818988"><ele>11.0</ele><time>2026-03-29T14:07:03.713Z</time></trkpt><trkpt lat="45.8527852" lon="12.7821682"><ele>11.0</ele><time>2026-03-29T14:07:04.705Z</time></trkpt><trkpt lat="45.8525617" lon="12.7824428"><ele>11.0</ele><time>2026-03-29T14:07:05.73Z</time></trkpt><trkpt lat="45.8523314" lon="12.7827095"><ele>11.0</ele><time>2026-03-29T14:07:06.727Z</time></trkpt><trkpt lat="45.8520999" lon="12.7829783"><ele>11.0</ele><time>2026-03-29T14:07:07.711Z</time></trkpt><trkpt lat="45.8518653" lon="12.783246"><ele>10.5</ele><time>2026-03-29T14:07:08.7Z</time></trkpt><trkpt lat="45.8516304" lon="12.7835169"><ele>10.0</ele><time>2026-03-29T14:07:09.724Z</time></trkpt><trkpt lat="45.851395" lon="12.7837918"><ele>10.0</ele><time>2026-03-29T14:07:10.734Z</time></trkpt><trkpt lat="45.8511562" lon="12.7840668"><ele>10.0</ele><time>2026-03-29T14:07:11.724Z</time></trkpt><trkpt lat="45.8509117" lon="12.784339"><ele>10.5</ele><time>2026-03-29T14:07:12.729Z</time></trkpt><trkpt lat="45.8506633" lon="12.7846047"><ele>11.0</ele><time>2026-03-29T14:07:13.726Z</time></trkpt><trkpt lat="45.8504153" lon="12.7848723"><ele>11.0</ele><time>2026-03-29T14:07:14.719Z</time></trkpt><trkpt lat="45.8501635" lon="12.7851341"><ele>11.0</ele><time>2026-03-29T14:07:15.722Z</time></trkpt><trkpt lat="45.8499251" lon="12.7854185"><ele>11.5</ele><time>2026-03-29T14:07:16.729Z</time></trkpt><trkpt lat="45.8496797" lon="12.7856867"><ele>12.0</ele><time>2026-03-29T14:07:17.738Z</time></trkpt><trkpt lat="45.8494331" lon="12.7859507"><ele>12.5</ele><time>2026-03-29T14:07:18.715Z</time></trkpt><trkpt lat="45.8491856" lon="12.7862105"><ele>13.0</ele><time>2026-03-29T14:07:19.723Z</time></trkpt><trkpt lat="45.848937" lon="12.7864696"><ele>13.0</ele><time>2026-03-29T14:07:20.719Z</time></trkpt><trkpt lat="45.848685" lon="12.786726"><ele>13.0</ele><time>2026-03-29T14:07:21.711Z</time></trkpt><trkpt lat="45.8484295" lon="12.7869774"><ele>12.0</ele><time>2026-03-29T14:07:22.727Z</time></trkpt><trkpt lat="45.8481733" lon="12.7872282"><ele>11.0</ele><time>2026-03-29T14:07:23.733Z</time></trkpt><trkpt lat="45.8479148" lon="12.7874772"><ele>11.0</ele><time>2026-03-29T14:07:24.722Z</time></trkpt><trkpt lat="45.8476547" lon="12.7877274"><ele>11.0</ele><time>2026-03-29T14:07:25.735Z</time></trkpt><trkpt lat="45.8473918" lon="12.7879761"><ele>11.0</ele><time>2026-03-29T14:07:26.72Z</time></trkpt><trkpt lat="45.8471277" lon="12.7882255"><ele>11.0</ele><time>2026-03-29T14:07:27.726Z</time></trkpt><trkpt lat="45.8468617" lon="12.7884749"><ele>11.5</ele><time>2026-03-29T14:07:28.721Z</time></trkpt><trkpt lat="45.8465937" lon="12.7887217"><ele>12.0</ele><time>2026-03-29T14:07:29.707Z</time></trkpt><trkpt lat="45.8463279" lon="12.7889727"><ele>12.0</ele><time>2026-03-29T14:07:30.733Z</time></trkpt><trkpt lat="45.8460591" lon="12.7892156"><ele>12.0</ele><time>2026-03-29T14:07:31.721Z</time></trkpt><trkpt lat="45.8457927" lon="12.7894595"><ele>12.0</ele><time>2026-03-29T14:07:32.719Z</time></trkpt><trkpt lat="45.8455278" lon="12.7896972"><ele>12.0</ele><time>2026-03-29T14:07:33.742Z</time></trkpt><trkpt lat="45.8452614" lon="12.7899229"><ele>11.0</ele><time>2026-03-29T14:07:34.72Z</time></trkpt><trkpt lat="45.8449999" lon="12.7901537"><ele>10.0</ele><time>2026-03-29T14:07:35.751Z</time></trkpt><trkpt lat="45.8447381" lon="12.7903778"><ele>10.0</ele><time>2026-03-29T14:07:36.719Z</time></trkpt><trkpt lat="45.8444774" lon="12.7905995"><ele>10.0</ele><time>2026-03-29T14:07:37.725Z</time></trkpt><trkpt lat="45.8442165" lon="12.7908178"><ele>9.5</ele><time>2026-03-29T14:07:38.719Z</time></trkpt><trkpt lat="45.8439572" lon="12.7910397"><ele>9.0</ele><time>2026-03-29T14:07:39.727Z</time></trkpt><trkpt lat="45.8436967" lon="12.7912588"><ele>9.0</ele><time>2026-03-29T14:07:40.723Z</time></trkpt><trkpt lat="45.8434419" lon="12.79149"><ele>9.0</ele><time>2026-03-29T14:07:41.753Z</time></trkpt><trkpt lat="45.8431842" lon="12.7917141"><ele>9.0</ele><time>2026-03-29T14:07:42.737Z</time></trkpt><trkpt lat="45.8429279" lon="12.7919385"><ele>9.0</ele><time>2026-03-29T14:07:43.75Z</time></trkpt><trkpt lat="45.8426695" lon="12.7921584"><ele>8.0</ele><time>2026-03-29T14:07:44.73Z</time></trkpt><trkpt lat="45.8424071" lon="12.7923799"><ele>7.0</ele><time>2026-03-29T14:07:45.727Z</time></trkpt><trkpt lat="45.8421381" lon="12.7926031"><ele>7.5</ele><time>2026-03-29T14:07:46.728Z</time></trkpt><trkpt lat="45.8418662" lon="12.7928314"><ele>8.0</ele><time>2026-03-29T14:07:47.72Z</time></trkpt><trkpt lat="45.8415934" lon="12.7930555"><ele>7.0</ele><time>2026-03-29T14:07:48.718Z</time></trkpt><trkpt lat="45.8413114" lon="12.7932615"><ele>6.0</ele><time>2026-03-29T14:07:49.738Z</time></trkpt><trkpt lat="45.8410323" lon="12.793478"><ele>6.5</ele><time>2026-03-29T14:07:50.743Z</time></trkpt><trkpt lat="45.8407592" lon="12.7937102"><ele>7.0</ele><time>2026-03-29T14:07:51.715Z</time></trkpt><trkpt lat="45.8404893" lon="12.7939464"><ele>7.0</ele><time>2026-03-29T14:07:52.724Z</time></trkpt><trkpt lat="45.8402199" lon="12.7941824"><ele>7.0</ele><time>2026-03-29T14:07:53.73Z</time></trkpt><trkpt lat="45.8399561" lon="12.7944257"><ele>8.0</ele><time>2026-03-29T14:07:54.73Z</time></trkpt><trkpt lat="45.83969" lon="12.794663"><ele>9.0</ele><time>2026-03-29T14:07:55.73Z</time></trkpt><trkpt lat="45.8394202" lon="12.7948953"><ele>9.0</ele><time>2026-03-29T14:07:56.721Z</time></trkpt><trkpt lat="45.8391503" lon="12.79513"><ele>9.0</ele><time>2026-03-29T14:07:57.73Z</time></trkpt><trkpt lat="45.8388807" lon="12.7953663"><ele>8.5</ele><time>2026-03-29T14:07:58.73Z</time></trkpt><trkpt lat="45.8386118" lon="12.7955992"><ele>8.0</ele><time>2026-03-29T14:07:59.72Z</time></trkpt><trkpt lat="45.8383453" lon="12.7958335"><ele>8.0</ele><time>2026-03-29T14:08:00.705Z</time></trkpt><trkpt lat="45.8380774" lon="12.7960652"><ele>8.0</ele><time>2026-03-29T14:08:01.716Z</time></trkpt><trkpt lat="45.8378075" lon="12.7962968"><ele>7.5</ele><time>2026-03-29T14:08:02.714Z</time></trkpt><trkpt lat="45.837543" lon="12.7965456"><ele>7.0</ele><time>2026-03-29T14:08:03.725Z</time></trkpt><trkpt lat="45.837271" lon="12.7967814"><ele>6.5</ele><time>2026-03-29T14:08:04.721Z</time></trkpt><trkpt lat="45.837001" lon="12.7970263"><ele>6.0</ele><time>2026-03-29T14:08:05.7Z</time></trkpt><trkpt lat="45.8367208" lon="12.797249"><ele>7.0</ele><time>2026-03-29T14:08:06.728Z</time></trkpt><trkpt lat="45.8364525" lon="12.7974956"><ele>8.0</ele><time>2026-03-29T14:08:07.706Z</time></trkpt><trkpt lat="45.8361728" lon="12.797718"><ele>7.5</ele><time>2026-03-29T14:08:08.724Z</time></trkpt><trkpt lat="45.8358995" lon="12.7979526"><ele>7.0</ele><time>2026-03-29T14:08:09.715Z</time></trkpt><trkpt lat="45.8356262" lon="12.7981876"><ele>7.0</ele><time>2026-03-29T14:08:10.71Z</time></trkpt><trkpt lat="45.8353508" lon="12.7984209"><ele>7.0</ele><time>2026-03-29T14:08:11.714Z</time></trkpt><trkpt lat="45.8350837" lon="12.7986721"><ele>8.0</ele><time>2026-03-29T14:08:12.722Z</time></trkpt><trkpt lat="45.8348047" lon="12.7988963"><ele>9.0</ele><time>2026-03-29T14:08:13.725Z</time></trkpt><trkpt lat="45.834532" lon="12.7991333"><ele>8.0</ele><time>2026-03-29T14:08:14.718Z</time></trkpt><trkpt lat="45.8342625" lon="12.7993719"><ele>7.0</ele><time>2026-03-29T14:08:15.722Z</time></trkpt><trkpt lat="45.8339954" lon="12.7996059"><ele>7.0</ele><time>2026-03-29T14:08:16.732Z</time></trkpt><trkpt lat="45.8337318" lon="12.7998337"><ele>7.0</ele><time>2026-03-29T14:08:17.711Z</time></trkpt><trkpt lat="45.8334735" lon="12.8000529"><ele>7.0</ele><time>2026-03-29T14:08:18.722Z</time></trkpt><trkpt lat="45.8332285" lon="12.8002681"><ele>7.0</ele><time>2026-03-29T14:08:19.717Z</time></trkpt><trkpt lat="45.83299" lon="12.8004675"><ele>7.0</ele><time>2026-03-29T14:08:20.729Z</time></trkpt><trkpt lat="45.8327692" lon="12.8006556"><ele>7.0</ele><time>2026-03-29T14:08:21.723Z</time></trkpt><trkpt lat="45.8325657" lon="12.8008323"><ele>6.5</ele><time>2026-03-29T14:08:22.725Z</time></trkpt><trkpt lat="45.8323704" lon="12.8010022"><ele>6.0</ele><time>2026-03-29T14:08:23.723Z</time></trkpt><trkpt lat="45.8321743" lon="12.8011708"><ele>6.0</ele><time>2026-03-29T14:08:24.715Z</time></trkpt><trkpt lat="45.8319743" lon="12.8013432"><ele>6.0</ele><time>2026-03-29T14:08:25.742Z</time></trkpt><trkpt lat="45.8317672" lon="12.8015229"><ele>6.5</ele><time>2026-03-29T14:08:26.714Z</time></trkpt><trkpt lat="45.8315505" lon="12.8017135"><ele>7.0</ele><time>2026-03-29T14:08:27.726Z</time></trkpt><trkpt lat="45.831325" lon="12.8019081"><ele>7.0</ele><time>2026-03-29T14:08:28.709Z</time></trkpt><trkpt lat="45.8310944" lon="12.8021101"><ele>7.0</ele><time>2026-03-29T14:08:29.706Z</time></trkpt><trkpt lat="45.8308588" lon="12.802316"><ele>7.0</ele><time>2026-03-29T14:08:30.713Z</time></trkpt><trkpt lat="45.8306211" lon="12.8025227"><ele>7.0</ele><time>2026-03-29T14:08:31.721Z</time></trkpt><trkpt lat="45.8303835" lon="12.8027268"><ele>7.0</ele><time>2026-03-29T14:08:32.723Z</time></trkpt><trkpt lat="45.8301469" lon="12.8029293"><ele>7.0</ele><time>2026-03-29T14:08:33.723Z</time></trkpt><trkpt lat="45.8299107" lon="12.8031301"><ele>6.5</ele><time>2026-03-29T14:08:34.715Z</time></trkpt><trkpt lat="45.8296741" lon="12.8033298"><ele>6.0</ele><time>2026-03-29T14:08:35.712Z</time></trkpt><trkpt lat="45.8294387" lon="12.8035331"><ele>6.0</ele><time>2026-03-29T14:08:36.721Z</time></trkpt><trkpt lat="45.8292045" lon="12.8037375"><ele>6.0</ele><time>2026-03-29T14:08:37.715Z</time></trkpt><trkpt lat="45.8289717" lon="12.8039381"><ele>6.0</ele><time>2026-03-29T14:08:38.731Z</time></trkpt><trkpt lat="45.8287394" lon="12.8041317"><ele>6.0</ele><time>2026-03-29T14:08:39.724Z</time></trkpt><trkpt lat="45.8285095" lon="12.8043267"><ele>6.0</ele><time>2026-03-29T14:08:40.74Z</time></trkpt><trkpt lat="45.82828" lon="12.8045141"><ele>6.0</ele><time>2026-03-29T14:08:41.734Z</time></trkpt><trkpt lat="45.828054" lon="12.8047049"><ele>6.0</ele><time>2026-03-29T14:08:42.727Z</time></trkpt><trkpt lat="45.8278284" lon="12.8048973"><ele>6.0</ele><time>2026-03-29T14:08:43.738Z</time></trkpt><trkpt lat="45.8275998" lon="12.8050857"><ele>5.5</ele><time>2026-03-29T14:08:44.748Z</time></trkpt><trkpt lat="45.8273682" lon="12.805275"><ele>5.0</ele><time>2026-03-29T14:08:45.717Z</time></trkpt><trkpt lat="45.8271308" lon="12.8054752"><ele>5.0</ele><time>2026-03-29T14:08:46.718Z</time></trkpt><trkpt lat="45.8268845" lon="12.8056827"><ele>5.0</ele><time>2026-03-29T14:08:47.723Z</time></trkpt><trkpt lat="45.8266314" lon="12.8058995"><ele>4.5</ele><time>2026-03-29T14:08:48.712Z</time></trkpt><trkpt lat="45.8263694" lon="12.8061201"><ele>4.0</ele><time>2026-03-29T14:08:49.73Z</time></trkpt><trkpt lat="45.8261022" lon="12.8063432"><ele>4.0</ele><time>2026-03-29T14:08:50.735Z</time></trkpt><trkpt lat="45.8258338" lon="12.8065667"><ele>4.0</ele><time>2026-03-29T14:08:51.712Z</time></trkpt><trkpt lat="45.8255644" lon="12.8067838"><ele>5.0</ele><time>2026-03-29T14:08:52.746Z</time></trkpt><trkpt lat="45.8252947" lon="12.8069943"><ele>6.0</ele><time>2026-03-29T14:08:53.729Z</time></trkpt><trkpt lat="45.8250258" lon="12.807202"><ele>6.0</ele><time>2026-03-29T14:08:54.728Z</time></trkpt><trkpt lat="45.8247567" lon="12.8074045"><ele>6.0</ele><time>2026-03-29T14:08:55.724Z</time></trkpt><trkpt lat="45.8244909" lon="12.8076057"><ele>5.5</ele><time>2026-03-29T14:08:56.719Z</time></trkpt><trkpt lat="45.8242276" lon="12.807799"><ele>5.0</ele><time>2026-03-29T14:08:57.733Z</time></trkpt><trkpt lat="45.823969" lon="12.8079956"><ele>5.0</ele><time>2026-03-29T14:08:58.722Z</time></trkpt><trkpt lat="45.8237119" lon="12.8081787"><ele>5.0</ele><time>2026-03-29T14:08:59.721Z</time></trkpt><trkpt lat="45.8234579" lon="12.8083548"><ele>5.0</ele><time>2026-03-29T14:09:00.723Z</time></trkpt><trkpt lat="45.8232051" lon="12.8085205"><ele>5.0</ele><time>2026-03-29T14:09:01.725Z</time></trkpt><trkpt lat="45.8229542" lon="12.808682"><ele>5.0</ele><time>2026-03-29T14:09:02.726Z</time></trkpt><trkpt lat="45.8227048" lon="12.8088491"><ele>5.0</ele><time>2026-03-29T14:09:03.714Z</time></trkpt><trkpt lat="45.8224448" lon="12.8090209"><ele>5.0</ele><time>2026-03-29T14:09:04.733Z</time></trkpt><trkpt lat="45.8221671" lon="12.8091868"><ele>5.0</ele><time>2026-03-29T14:09:05.73Z</time></trkpt><trkpt lat="45.8218762" lon="12.8093592"><ele>5.0</ele><time>2026-03-29T14:09:06.747Z</time></trkpt><trkpt lat="45.8215776" lon="12.8095338"><ele>5.0</ele><time>2026-03-29T14:09:07.712Z</time></trkpt><trkpt lat="45.8212775" lon="12.8097028"><ele>5.0</ele><time>2026-03-29T14:09:08.735Z</time></trkpt><trkpt lat="45.82098" lon="12.8098656"><ele>5.0</ele><time>2026-03-29T14:09:09.726Z</time></trkpt><trkpt lat="45.8206858" lon="12.810023"><ele>4.5</ele><time>2026-03-29T14:09:10.716Z</time></trkpt><trkpt lat="45.8203947" lon="12.810176"><ele>4.0</ele><time>2026-03-29T14:09:11.735Z</time></trkpt><trkpt lat="45.8201064" lon="12.8103205"><ele>5.0</ele><time>2026-03-29T14:09:12.731Z</time></trkpt><trkpt lat="45.8198225" lon="12.8104644"><ele>6.0</ele><time>2026-03-29T14:09:13.727Z</time></trkpt><trkpt lat="45.8195387" lon="12.8105933"><ele>6.5</ele><time>2026-03-29T14:09:14.726Z</time></trkpt><trkpt lat="45.8192552" lon="12.810721"><ele>7.0</ele><time>2026-03-29T14:09:15.722Z</time></trkpt><trkpt lat="45.8189743" lon="12.810847"><ele>7.0</ele><time>2026-03-29T14:09:16.729Z</time></trkpt><trkpt lat="45.8186902" lon="12.8109656"><ele>7.0</ele><time>2026-03-29T14:09:17.712Z</time></trkpt><trkpt lat="45.8184042" lon="12.8110884"><ele>7.0</ele><time>2026-03-29T14:09:18.728Z</time></trkpt><trkpt lat="45.8181154" lon="12.81121"><ele>7.0</ele><time>2026-03-29T14:09:19.73Z</time></trkpt><trkpt lat="45.8178236" lon="12.811326"><ele>5.5</ele><time>2026-03-29T14:09:20.737Z</time></trkpt><trkpt lat="45.8175289" lon="12.8114341"><ele>4.0</ele><time>2026-03-29T14:09:21.725Z</time></trkpt><trkpt lat="45.8172329" lon="12.8115379"><ele>4.0</ele><time>2026-03-29T14:09:22.732Z</time></trkpt><trkpt lat="45.8169366" lon="12.8116399"><ele>4.0</ele><time>2026-03-29T14:09:23.712Z</time></trkpt><trkpt lat="45.81664" lon="12.811743"><ele>3.0</ele><time>2026-03-29T14:09:24.719Z</time></trkpt><trkpt lat="45.8163441" lon="12.8118397"><ele>2.0</ele><time>2026-03-29T14:09:25.727Z</time></trkpt><trkpt lat="45.8160523" lon="12.8119438"><ele>2.5</ele><time>2026-03-29T14:09:26.72Z</time></trkpt><trkpt lat="45.8157621" lon="12.8120378"><ele>3.0</ele><time>2026-03-29T14:09:27.722Z</time></trkpt><trkpt lat="45.8154728" lon="12.8121264"><ele>3.0</ele><time>2026-03-29T14:09:28.723Z</time></trkpt><trkpt lat="45.8151851" lon="12.8122174"><ele>3.0</ele><time>2026-03-29T14:09:29.749Z</time></trkpt><trkpt lat="45.8148985" lon="12.812309"><ele>2.0</ele><time>2026-03-29T14:09:30.747Z</time></trkpt><trkpt lat="45.8146121" lon="12.8124043"><ele>1.0</ele><time>2026-03-29T14:09:31.735Z</time></trkpt><trkpt lat="45.8143246" lon="12.8125038"><ele>1.0</ele><time>2026-03-29T14:09:32.726Z</time></trkpt><trkpt lat="45.8140376" lon="12.812618"><ele>1.0</ele><time>2026-03-29T14:09:33.71Z</time></trkpt><trkpt lat="45.8137467" lon="12.8127254"><ele>2.0</ele><time>2026-03-29T14:09:34.707Z</time></trkpt><trkpt lat="45.8134544" lon="12.8128412"><ele>3.0</ele><time>2026-03-29T14:09:35.715Z</time></trkpt><trkpt lat="45.8131569" lon="12.8129524"><ele>3.0</ele><time>2026-03-29T14:09:36.725Z</time></trkpt><trkpt lat="45.812857" lon="12.813059"><ele>3.0</ele><time>2026-03-29T14:09:37.715Z</time></trkpt><trkpt lat="45.8125592" lon="12.8131979"><ele>2.5</ele><time>2026-03-29T14:09:38.718Z</time></trkpt><trkpt lat="45.81226" lon="12.8133338"><ele>2.0</ele><time>2026-03-29T14:09:39.712Z</time></trkpt><trkpt lat="45.8119589" lon="12.8134568"><ele>2.5</ele><time>2026-03-29T14:09:40.739Z</time></trkpt><trkpt lat="45.8116624" lon="12.8136022"><ele>3.0</ele><time>2026-03-29T14:09:41.717Z</time></trkpt><trkpt lat="45.8113653" lon="12.8137345"><ele>3.0</ele><time>2026-03-29T14:09:42.733Z</time></trkpt><trkpt lat="45.8110717" lon="12.81389"><ele>3.0</ele><time>2026-03-29T14:09:43.717Z</time></trkpt><trkpt lat="45.8107752" lon="12.8140472"><ele>2.5</ele><time>2026-03-29T14:09:44.728Z</time></trkpt><trkpt lat="45.8104739" lon="12.8142117"><ele>2.0</ele><time>2026-03-29T14:09:45.71Z</time></trkpt><trkpt lat="45.8101607" lon="12.8143918"><ele>2.0</ele><time>2026-03-29T14:09:46.736Z</time></trkpt><trkpt lat="45.8098612" lon="12.8145522"><ele>2.0</ele><time>2026-03-29T14:09:47.721Z</time></trkpt><trkpt lat="45.8095573" lon="12.8147216"><ele>3.0</ele><time>2026-03-29T14:09:48.712Z</time></trkpt><trkpt lat="45.8092511" lon="12.8149026"><ele>4.0</ele><time>2026-03-29T14:09:49.734Z</time></trkpt><trkpt lat="45.8089581" lon="12.8150807"><ele>4.0</ele><time>2026-03-29T14:09:50.723Z</time></trkpt><trkpt lat="45.8086683" lon="12.8152599"><ele>4.0</ele><time>2026-03-29T14:09:51.731Z</time></trkpt><trkpt lat="45.8083874" lon="12.815438"><ele>6.0</ele><time>2026-03-29T14:09:52.714Z</time></trkpt><trkpt lat="45.8081114" lon="12.8156187"><ele>8.0</ele><time>2026-03-29T14:09:53.716Z</time></trkpt><trkpt lat="45.8078437" lon="12.8157948"><ele>7.5</ele><time>2026-03-29T14:09:54.712Z</time></trkpt><trkpt lat="45.8075894" lon="12.8159647"><ele>7.0</ele><time>2026-03-29T14:09:55.722Z</time></trkpt><trkpt lat="45.8073382" lon="12.8161364"><ele>7.0</ele><time>2026-03-29T14:09:56.723Z</time></trkpt><trkpt lat="45.8070944" lon="12.8163095"><ele>7.0</ele><time>2026-03-29T14:09:57.722Z</time></trkpt><trkpt lat="45.806854" lon="12.8164839"><ele>7.0</ele><time>2026-03-29T14:09:58.721Z</time></trkpt><trkpt lat="45.8066166" lon="12.8166599"><ele>7.0</ele><time>2026-03-29T14:09:59.73Z</time></trkpt><trkpt lat="45.8063859" lon="12.8168337"><ele>6.5</ele><time>2026-03-29T14:10:00.719Z</time></trkpt><trkpt lat="45.8061554" lon="12.8170089"><ele>6.0</ele><time>2026-03-29T14:10:01.738Z</time></trkpt><trkpt lat="45.8059265" lon="12.8171824"><ele>7.5</ele><time>2026-03-29T14:10:02.721Z</time></trkpt><trkpt lat="45.8056987" lon="12.8173579"><ele>9.0</ele><time>2026-03-29T14:10:03.704Z</time></trkpt><trkpt lat="45.8054671" lon="12.8175392"><ele>9.0</ele><time>2026-03-29T14:10:04.718Z</time></trkpt><trkpt lat="45.8052367" lon="12.817723"><ele>9.0</ele><time>2026-03-29T14:10:05.742Z</time></trkpt><trkpt lat="45.8050116" lon="12.8179064"><ele>8.5</ele><time>2026-03-29T14:10:06.728Z</time></trkpt><trkpt lat="45.8047851" lon="12.8180941"><ele>8.0</ele><time>2026-03-29T14:10:07.722Z</time></trkpt><trkpt lat="45.8045549" lon="12.818288"><ele>7.5</ele><time>2026-03-29T14:10:08.731Z</time></trkpt><trkpt lat="45.8043289" lon="12.8184816"><ele>7.0</ele><time>2026-03-29T14:10:09.716Z</time></trkpt><trkpt lat="45.8041002" lon="12.8186806"><ele>7.0</ele><time>2026-03-29T14:10:10.733Z</time></trkpt><trkpt lat="45.8038811" lon="12.8188742"><ele>7.0</ele><time>2026-03-29T14:10:11.706Z</time></trkpt><trkpt lat="45.8036613" lon="12.8190724"><ele>6.5</ele><time>2026-03-29T14:10:12.717Z</time></trkpt><trkpt lat="45.803453" lon="12.819263"><ele>6.0</ele><time>2026-03-29T14:10:13.722Z</time></trkpt><trkpt lat="45.8032582" lon="12.8194444"><ele>5.333333333333333</ele><time>2026-03-29T14:10:14.722Z</time></trkpt><trkpt lat="45.8030678" lon="12.8196207"><ele>4.666666666666666</ele><time>2026-03-29T14:10:15.729Z</time></trkpt><trkpt lat="45.8028859" lon="12.8197928"><ele>4.0</ele><time>2026-03-29T14:10:16.741Z</time></trkpt><trkpt lat="45.8027162" lon="12.8199555"><ele>4.0</ele><time>2026-03-29T14:10:17.714Z</time></trkpt><trkpt lat="45.8025521" lon="12.820113"><ele>4.0</ele><time>2026-03-29T14:10:18.721Z</time></trkpt><trkpt lat="45.8023838" lon="12.8202698"><ele>4.0</ele><time>2026-03-29T14:10:19.729Z</time></trkpt><trkpt lat="45.8022241" lon="12.8204253"><ele>4.333333333333333</ele><time>2026-03-29T14:10:20.726Z</time></trkpt><trkpt lat="45.802063" lon="12.8205829"><ele>4.666666666666667</ele><time>2026-03-29T14:10:21.724Z</time></trkpt><trkpt lat="45.801908" lon="12.8207356"><ele>5.0</ele><time>2026-03-29T14:10:22.726Z</time></trkpt><trkpt lat="45.8017475" lon="12.820896"><ele>6.0</ele><time>2026-03-29T14:10:23.72Z</time></trkpt><trkpt lat="45.8015932" lon="12.8210589"><ele>7.0</ele><time>2026-03-29T14:10:24.711Z</time></trkpt><trkpt lat="45.8014394" lon="12.821214"><ele>8.0</ele><time>2026-03-29T14:10:25.723Z</time></trkpt><trkpt lat="45.8012884" lon="12.8213614"><ele>8.0</ele><time>2026-03-29T14:10:26.727Z</time></trkpt><trkpt lat="45.8011428" lon="12.8215106"><ele>8.0</ele><time>2026-03-29T14:10:27.736Z</time></trkpt><trkpt lat="45.8010093" lon="12.8216661"><ele>8.0</ele><time>2026-03-29T14:10:28.725Z</time></trkpt><trkpt lat="45.8008678" lon="12.8218022"><ele>8.666666666666666</ele><time>2026-03-29T14:10:29.734Z</time></trkpt><trkpt lat="45.8007338" lon="12.8219207"><ele>9.333333333333334</ele><time>2026-03-29T14:10:30.722Z</time></trkpt><trkpt lat="45.8006011" lon="12.8220274"><ele>10.0</ele><time>2026-03-29T14:10:31.721Z</time></trkpt><trkpt lat="45.8004689" lon="12.8221126"><ele>10.0</ele><time>2026-03-29T14:10:32.712Z</time></trkpt><trkpt lat="45.8003317" lon="12.8221672"><ele>10.0</ele><time>2026-03-29T14:10:33.73Z</time></trkpt><trkpt lat="45.8001932" lon="12.8221883"><ele>10.0</ele><time>2026-03-29T14:10:34.715Z</time></trkpt><trkpt lat="45.8000592" lon="12.8221679"><ele>10.0</ele><time>2026-03-29T14:10:35.721Z</time></trkpt><trkpt lat="45.7999402" lon="12.82209"><ele>10.0</ele><time>2026-03-29T14:10:36.725Z</time></trkpt><trkpt lat="45.7998408" lon="12.8219717"><ele>10.0</ele><time>2026-03-29T14:10:37.704Z</time></trkpt><trkpt lat="45.799762" lon="12.8218324"><ele>10.0</ele><time>2026-03-29T14:10:38.727Z</time></trkpt><trkpt lat="45.7997084" lon="12.8216734"><ele>10.0</ele><time>2026-03-29T14:10:39.712Z</time></trkpt><trkpt lat="45.7996684" lon="12.8215154"><ele>10.0</ele><time>2026-03-29T14:10:40.722Z</time></trkpt><trkpt lat="45.799635" lon="12.8213552"><ele>10.0</ele><time>2026-03-29T14:10:41.729Z</time></trkpt><trkpt lat="45.7996161" lon="12.8211764"><ele>10.0</ele><time>2026-03-29T14:10:42.73Z</time></trkpt><trkpt lat="45.7995959" lon="12.8209951"><ele>10.0</ele><time>2026-03-29T14:10:43.719Z</time></trkpt><trkpt lat="45.7995764" lon="12.8208133"><ele>10.0</ele><time>2026-03-29T14:10:44.727Z</time></trkpt><trkpt lat="45.7995583" lon="12.8206333"><ele>10.0</ele><time>2026-03-29T14:10:45.736Z</time></trkpt><trkpt lat="45.7995399" lon="12.8204624"><ele>10.0</ele><time>2026-03-29T14:10:46.715Z</time></trkpt><trkpt lat="45.799521" lon="12.8202945"><ele>10.0</ele><time>2026-03-29T14:10:47.728Z</time></trkpt><trkpt lat="45.7995002" lon="12.8201328"><ele>9.6</ele><time>2026-03-29T14:10:48.719Z</time></trkpt><trkpt lat="45.7994853" lon="12.8199771"><ele>9.2</ele><time>2026-03-29T14:10:49.743Z</time></trkpt><trkpt lat="45.7994673" lon="12.8198322"><ele>8.8</ele><time>2026-03-29T14:10:50.725Z</time></trkpt><trkpt lat="45.7994617" lon="12.8196974"><ele>8.4</ele><time>2026-03-29T14:10:51.736Z</time></trkpt><trkpt lat="45.7994577" lon="12.8195708"><ele>8.0</ele><time>2026-03-29T14:10:52.729Z</time></trkpt><trkpt lat="45.7994494" lon="12.819463"><ele>8.0</ele><time>2026-03-29T14:10:53.715Z</time></trkpt><trkpt lat="45.799447" lon="12.8193347"><ele>8.0</ele><time>2026-03-29T14:10:55.716Z</time></trkpt><trkpt lat="45.7994438" lon="12.8192441"><ele>8.0</ele><time>2026-03-29T14:10:57.726Z</time></trkpt><trkpt lat="45.7994361" lon="12.8190683"><ele>8.0</ele><time>2026-03-29T14:11:07.726Z</time></trkpt><trkpt lat="45.7993894" lon="12.8189053"><ele>8.0</ele><time>2026-03-29T14:11:09.709Z</time></trkpt><trkpt lat="45.7993508" lon="12.8188142"><ele>7.4</ele><time>2026-03-29T14:11:10.713Z</time></trkpt><trkpt lat="45.7993117" lon="12.8187087"><ele>6.800000000000001</ele><time>2026-03-29T14:11:11.705Z</time></trkpt><trkpt lat="45.7992759" lon="12.8185883"><ele>6.2</ele><time>2026-03-29T14:11:12.717Z</time></trkpt><trkpt lat="45.7992395" lon="12.8184588"><ele>5.6</ele><time>2026-03-29T14:11:13.716Z</time></trkpt><trkpt lat="45.7992112" lon="12.818315"><ele>5.0</ele><time>2026-03-29T14:11:14.733Z</time></trkpt><trkpt lat="45.7992047" lon="12.8181628"><ele>5.0</ele><time>2026-03-29T14:11:15.739Z</time></trkpt><trkpt lat="45.7992266" lon="12.8180136"><ele>5.0</ele><time>2026-03-29T14:11:16.731Z</time></trkpt><trkpt lat="45.7992587" lon="12.8178703"><ele>5.0</ele><time>2026-03-29T14:11:17.723Z</time></trkpt><trkpt lat="45.7993022" lon="12.8177354"><ele>5.0</ele><time>2026-03-29T14:11:18.722Z</time></trkpt><trkpt lat="45.7993442" lon="12.8175993"><ele>5.0</ele><time>2026-03-29T14:11:19.721Z</time></trkpt><trkpt lat="45.7993923" lon="12.8174606"><ele>5.0</ele><time>2026-03-29T14:11:20.728Z</time></trkpt><trkpt lat="45.7994406" lon="12.8173205"><ele>5.0</ele><time>2026-03-29T14:11:21.71Z</time></trkpt><trkpt lat="45.7994311" lon="12.817159"><ele>5.0</ele><time>2026-03-29T14:11:22.724Z</time></trkpt><trkpt lat="45.7994076" lon="12.8170037"><ele>5.0</ele><time>2026-03-29T14:11:23.712Z</time></trkpt><trkpt lat="45.7993521" lon="12.8168671"><ele>5.0</ele><time>2026-03-29T14:11:24.721Z</time></trkpt><trkpt lat="45.7992661" lon="12.816757"><ele>5.0</ele><time>2026-03-29T14:11:25.724Z</time></trkpt><trkpt lat="45.799173" lon="12.8166707"><ele>5.0</ele><time>2026-03-29T14:11:26.716Z</time></trkpt><trkpt lat="45.7990717" lon="12.8166229"><ele>5.0</ele><time>2026-03-29T14:11:27.702Z</time></trkpt><trkpt lat="45.7989594" lon="12.8166046"><ele>5.0</ele><time>2026-03-29T14:11:28.726Z</time></trkpt><trkpt lat="45.7988508" lon="12.8166058"><ele>5.0</ele><time>2026-03-29T14:11:29.724Z</time></trkpt><trkpt lat="45.7987421" lon="12.8166213"><ele>5.0</ele><time>2026-03-29T14:11:30.717Z</time></trkpt><trkpt lat="45.7986428" lon="12.8166694"><ele>5.0</ele><time>2026-03-29T14:11:31.726Z</time></trkpt><trkpt lat="45.7985482" lon="12.8167339"><ele>5.0</ele><time>2026-03-29T14:11:32.725Z</time></trkpt><trkpt lat="45.7984596" lon="12.8168154"><ele>5.0</ele><time>2026-03-29T14:11:33.713Z</time></trkpt><trkpt lat="45.7983664" lon="12.8168735"><ele>5.0</ele><time>2026-03-29T14:11:34.723Z</time></trkpt><trkpt lat="45.7982744" lon="12.8169221"><ele>5.0</ele><time>2026-03-29T14:11:35.727Z</time></trkpt><trkpt lat="45.7981891" lon="12.8169922"><ele>5.0</ele><time>2026-03-29T14:11:36.706Z</time></trkpt><trkpt lat="45.7981029" lon="12.8170796"><ele>5.0</ele><time>2026-03-29T14:11:37.712Z</time></trkpt><trkpt lat="45.7980291" lon="12.8172129"><ele>5.0</ele><time>2026-03-29T14:11:38.708Z</time></trkpt><trkpt lat="45.7979637" lon="12.8173675"><ele>5.0</ele><time>2026-03-29T14:11:39.719Z</time></trkpt><trkpt lat="45.7978774" lon="12.8175089"><ele>5.0</ele><time>2026-03-29T14:11:40.739Z</time></trkpt><trkpt lat="45.7977747" lon="12.817636"><ele>5.0</ele><time>2026-03-29T14:11:41.733Z</time></trkpt><trkpt lat="45.7976656" lon="12.8177646"><ele>5.0</ele><time>2026-03-29T14:11:42.743Z</time></trkpt><trkpt lat="45.797554" lon="12.8178961"><ele>5.0</ele><time>2026-03-29T14:11:43.721Z</time></trkpt><trkpt lat="45.7974409" lon="12.8180285"><ele>6.0</ele><time>2026-03-29T14:11:44.721Z</time></trkpt><trkpt lat="45.7973248" lon="12.81816"><ele>7.0</ele><time>2026-03-29T14:11:45.729Z</time></trkpt><trkpt lat="45.7972044" lon="12.8182896"><ele>8.0</ele><time>2026-03-29T14:11:46.732Z</time></trkpt><trkpt lat="45.7970843" lon="12.8184254"><ele>8.0</ele><time>2026-03-29T14:11:47.72Z</time></trkpt><trkpt lat="45.7969615" lon="12.8185604"><ele>8.0</ele><time>2026-03-29T14:11:48.735Z</time></trkpt><trkpt lat="45.7968411" lon="12.8186926"><ele>8.0</ele><time>2026-03-29T14:11:49.719Z</time></trkpt><trkpt lat="45.7967261" lon="12.818821"><ele>8.0</ele><time>2026-03-29T14:11:50.754Z</time></trkpt><trkpt lat="45.7966148" lon="12.8189456"><ele>8.0</ele><time>2026-03-29T14:11:51.727Z</time></trkpt><trkpt lat="45.796505" lon="12.8190637"><ele>8.0</ele><time>2026-03-29T14:11:52.727Z</time></trkpt><trkpt lat="45.7963982" lon="12.8191836"><ele>8.0</ele><time>2026-03-29T14:11:53.719Z</time></trkpt><trkpt lat="45.7962907" lon="12.819307"><ele>8.25</ele><time>2026-03-29T14:11:54.735Z</time></trkpt><trkpt lat="45.7961813" lon="12.819434"><ele>8.5</ele><time>2026-03-29T14:11:55.721Z</time></trkpt><trkpt lat="45.7960688" lon="12.8195598"><ele>8.75</ele><time>2026-03-29T14:11:56.722Z</time></trkpt><trkpt lat="45.7959563" lon="12.8196909"><ele>9.0</ele><time>2026-03-29T14:11:57.724Z</time></trkpt><trkpt lat="45.7958403" lon="12.8198223"><ele>9.0</ele><time>2026-03-29T14:11:58.728Z</time></trkpt><trkpt lat="45.7957247" lon="12.8199565"><ele>9.0</ele><time>2026-03-29T14:11:59.722Z</time></trkpt><trkpt lat="45.7956076" lon="12.8200935"><ele>9.0</ele><time>2026-03-29T14:12:00.733Z</time></trkpt><trkpt lat="45.7954873" lon="12.8202313"><ele>9.0</ele><time>2026-03-29T14:12:01.725Z</time></trkpt><trkpt lat="45.7953672" lon="12.8203713"><ele>9.0</ele><time>2026-03-29T14:12:02.734Z</time></trkpt><trkpt lat="45.7952483" lon="12.820514"><ele>9.0</ele><time>2026-03-29T14:12:03.71Z</time></trkpt><trkpt lat="45.7951272" lon="12.8206532"><ele>8.666666666666666</ele><time>2026-03-29T14:12:04.728Z</time></trkpt><trkpt lat="45.7950058" lon="12.8207942"><ele>8.333333333333332</ele><time>2026-03-29T14:12:05.734Z</time></trkpt><trkpt lat="45.7948861" lon="12.82094"><ele>8.0</ele><time>2026-03-29T14:12:06.735Z</time></trkpt><trkpt lat="45.7947672" lon="12.8210863"><ele>7.666666666666666</ele><time>2026-03-29T14:12:07.724Z</time></trkpt><trkpt lat="45.7946515" lon="12.8212372"><ele>7.333333333333334</ele><time>2026-03-29T14:12:08.711Z</time></trkpt><trkpt lat="45.7945317" lon="12.8213821"><ele>7.0</ele><time>2026-03-29T14:12:09.713Z</time></trkpt><trkpt lat="45.7944125" lon="12.8215288"><ele>7.0</ele><time>2026-03-29T14:12:10.737Z</time></trkpt><trkpt lat="45.794295" lon="12.8216796"><ele>7.0</ele><time>2026-03-29T14:12:11.728Z</time></trkpt><trkpt lat="45.7941776" lon="12.8218321"><ele>7.0</ele><time>2026-03-29T14:12:12.73Z</time></trkpt><trkpt lat="45.7940592" lon="12.8219848"><ele>7.0</ele><time>2026-03-29T14:12:13.708Z</time></trkpt><trkpt lat="45.7939402" lon="12.8221361"><ele>7.0</ele><time>2026-03-29T14:12:14.716Z</time></trkpt><trkpt lat="45.7938243" lon="12.822282"><ele>7.0</ele><time>2026-03-29T14:12:15.733Z</time></trkpt><trkpt lat="45.7937126" lon="12.822422"><ele>7.0</ele><time>2026-03-29T14:12:16.726Z</time></trkpt><trkpt lat="45.7936019" lon="12.8225623"><ele>7.0</ele><time>2026-03-29T14:12:17.734Z</time></trkpt><trkpt lat="45.7934881" lon="12.822706"><ele>7.0</ele><time>2026-03-29T14:12:18.731Z</time></trkpt><trkpt lat="45.7933729" lon="12.8228587"><ele>7.333333333333334</ele><time>2026-03-29T14:12:19.715Z</time></trkpt><trkpt lat="45.7932641" lon="12.8230286"><ele>7.666666666666666</ele><time>2026-03-29T14:12:20.715Z</time></trkpt><trkpt lat="45.7931554" lon="12.8231992"><ele>8.0</ele><time>2026-03-29T14:12:21.723Z</time></trkpt><trkpt lat="45.7930274" lon="12.8233455"><ele>8.666666666666666</ele><time>2026-03-29T14:12:22.717Z</time></trkpt><trkpt lat="45.7929099" lon="12.8235038"><ele>9.333333333333334</ele><time>2026-03-29T14:12:23.721Z</time></trkpt><trkpt lat="45.7927978" lon="12.8236708"><ele>10.0</ele><time>2026-03-29T14:12:24.72Z</time></trkpt><trkpt lat="45.7926818" lon="12.8238336"><ele>9.333333333333334</ele><time>2026-03-29T14:12:25.728Z</time></trkpt><trkpt lat="45.7925618" lon="12.8239879"><ele>8.666666666666666</ele><time>2026-03-29T14:12:26.731Z</time></trkpt><trkpt lat="45.792447" lon="12.824147"><ele>8.0</ele><time>2026-03-29T14:12:27.738Z</time></trkpt><trkpt lat="45.7923228" lon="12.8242912"><ele>7.0</ele><time>2026-03-29T14:12:28.724Z</time></trkpt><trkpt lat="45.7921958" lon="12.8244324"><ele>6.0</ele><time>2026-03-29T14:12:29.729Z</time></trkpt><trkpt lat="45.7920697" lon="12.8245786"><ele>5.0</ele><time>2026-03-29T14:12:30.721Z</time></trkpt><trkpt lat="45.791941" lon="12.8247236"><ele>5.666666666666667</ele><time>2026-03-29T14:12:31.72Z</time></trkpt><trkpt lat="45.7918121" lon="12.8248721"><ele>6.333333333333334</ele><time>2026-03-29T14:12:32.726Z</time></trkpt><trkpt lat="45.7916821" lon="12.8250195"><ele>7.0</ele><time>2026-03-29T14:12:33.709Z</time></trkpt><trkpt lat="45.7915522" lon="12.8251662"><ele>7.0</ele><time>2026-03-29T14:12:34.734Z</time></trkpt><trkpt lat="45.7914121" lon="12.8252926"><ele>7.0</ele><time>2026-03-29T14:12:35.725Z</time></trkpt><trkpt lat="45.791276" lon="12.8254215"><ele>7.0</ele><time>2026-03-29T14:12:36.711Z</time></trkpt><trkpt lat="45.7911382" lon="12.8255411"><ele>6.333333333333334</ele><time>2026-03-29T14:12:37.731Z</time></trkpt><trkpt lat="45.791001" lon="12.8256549"><ele>5.666666666666667</ele><time>2026-03-29T14:12:38.723Z</time></trkpt><trkpt lat="45.7908639" lon="12.8257627"><ele>5.0</ele><time>2026-03-29T14:12:39.707Z</time></trkpt><trkpt lat="45.7907265" lon="12.825865"><ele>5.0</ele><time>2026-03-29T14:12:40.726Z</time></trkpt><trkpt lat="45.7905928" lon="12.8259645"><ele>5.0</ele><time>2026-03-29T14:12:41.713Z</time></trkpt><trkpt lat="45.7904673" lon="12.8260627"><ele>5.0</ele><time>2026-03-29T14:12:42.719Z</time></trkpt><trkpt lat="45.7903575" lon="12.8261616"><ele>5.0</ele><time>2026-03-29T14:12:43.723Z</time></trkpt><trkpt lat="45.7902615" lon="12.8262552"><ele>5.0</ele><time>2026-03-29T14:12:44.715Z</time></trkpt><trkpt lat="45.7901719" lon="12.8263426"><ele>5.0</ele><time>2026-03-29T14:12:45.71Z</time></trkpt><trkpt lat="45.7900892" lon="12.8264255"><ele>5.0</ele><time>2026-03-29T14:12:46.708Z</time></trkpt><trkpt lat="45.7900139" lon="12.8265005"><ele>5.0</ele><time>2026-03-29T14:12:47.719Z</time></trkpt><trkpt lat="45.7899459" lon="12.826572"><ele>5.0</ele><time>2026-03-29T14:12:48.727Z</time></trkpt><trkpt lat="45.7898818" lon="12.8266367"><ele>5.0</ele><time>2026-03-29T14:12:49.73Z</time></trkpt><trkpt lat="45.7898223" lon="12.8266978"><ele>5.0</ele><time>2026-03-29T14:12:50.737Z</time></trkpt><trkpt lat="45.7897666" lon="12.8267552"><ele>5.0</ele><time>2026-03-29T14:12:51.734Z</time></trkpt><trkpt lat="45.7897161" lon="12.826812"><ele>5.0</ele><time>2026-03-29T14:12:52.724Z</time></trkpt><trkpt lat="45.7896215" lon="12.8269123"><ele>5.0</ele><time>2026-03-29T14:12:54.743Z</time></trkpt><trkpt lat="45.7895316" lon="12.826999"><ele>5.0</ele><time>2026-03-29T14:12:56.725Z</time></trkpt><trkpt lat="45.7893894" lon="12.8270701"><ele>5.0</ele><time>2026-03-29T14:12:59.716Z</time></trkpt><trkpt lat="45.7892591" lon="12.827056"><ele>5.0</ele><time>2026-03-29T14:13:01.706Z</time></trkpt><trkpt lat="45.7891765" lon="12.8270604"><ele>5.0</ele><time>2026-03-29T14:13:02.725Z</time></trkpt><trkpt lat="45.7890893" lon="12.8271092"><ele>5.0</ele><time>2026-03-29T14:13:03.714Z</time></trkpt><trkpt lat="45.7890027" lon="12.8271937"><ele>5.0</ele><time>2026-03-29T14:13:04.732Z</time></trkpt><trkpt lat="45.7889233" lon="12.8272939"><ele>5.0</ele><time>2026-03-29T14:13:05.714Z</time></trkpt><trkpt lat="45.7888418" lon="12.8273838"><ele>5.0</ele><time>2026-03-29T14:13:06.727Z</time></trkpt><trkpt lat="45.7887549" lon="12.827466"><ele>5.0</ele><time>2026-03-29T14:13:07.711Z</time></trkpt><trkpt lat="45.7886636" lon="12.8275499"><ele>5.0</ele><time>2026-03-29T14:13:08.731Z</time></trkpt><trkpt lat="45.7885686" lon="12.8276321"><ele>5.0</ele><time>2026-03-29T14:13:09.72Z</time></trkpt><trkpt lat="45.7884726" lon="12.8277218"><ele>5.0</ele><time>2026-03-29T14:13:10.729Z</time></trkpt><trkpt lat="45.7883773" lon="12.8278112"><ele>5.0</ele><time>2026-03-29T14:13:11.727Z</time></trkpt><trkpt lat="45.7882807" lon="12.8278929"><ele>5.0</ele><time>2026-03-29T14:13:12.714Z</time></trkpt><trkpt lat="45.7881913" lon="12.8279711"><ele>5.0</ele><time>2026-03-29T14:13:13.727Z</time></trkpt><trkpt lat="45.788113" lon="12.8280386"><ele>5.0</ele><time>2026-03-29T14:13:14.732Z</time></trkpt><trkpt lat="45.7880339" lon="12.8280782"><ele>5.0</ele><time>2026-03-29T14:13:15.727Z</time></trkpt><trkpt lat="45.7879543" lon="12.8280916"><ele>5.0</ele><time>2026-03-29T14:13:16.708Z</time></trkpt><trkpt lat="45.7878765" lon="12.8280587"><ele>5.0</ele><time>2026-03-29T14:13:17.724Z</time></trkpt><trkpt lat="45.7877948" lon="12.8280017"><ele>5.0</ele><time>2026-03-29T14:13:18.712Z</time></trkpt><trkpt lat="45.7877094" lon="12.8279153"><ele>5.0</ele><time>2026-03-29T14:13:19.717Z</time></trkpt><trkpt lat="45.7876207" lon="12.8278078"><ele>5.0</ele><time>2026-03-29T14:13:20.709Z</time></trkpt><trkpt lat="45.7875283" lon="12.8276951"><ele>5.0</ele><time>2026-03-29T14:13:21.718Z</time></trkpt><trkpt lat="45.7874325" lon="12.8275588"><ele>5.0</ele><time>2026-03-29T14:13:22.721Z</time></trkpt><trkpt lat="45.7873682" lon="12.8273567"><ele>5.0</ele><time>2026-03-29T14:13:23.73Z</time></trkpt><trkpt lat="45.7873319" lon="12.8271186"><ele>5.333333333333334</ele><time>2026-03-29T14:13:24.73Z</time></trkpt><trkpt lat="45.7872884" lon="12.8268843"><ele>5.666666666666667</ele><time>2026-03-29T14:13:25.742Z</time></trkpt><trkpt lat="45.787245" lon="12.8266632"><ele>6.0</ele><time>2026-03-29T14:13:26.714Z</time></trkpt><trkpt lat="45.7872057" lon="12.8264562"><ele>6.0</ele><time>2026-03-29T14:13:27.716Z</time></trkpt><trkpt lat="45.7871609" lon="12.8262514"><ele>6.0</ele><time>2026-03-29T14:13:28.72Z</time></trkpt><trkpt lat="45.7871235" lon="12.8260424"><ele>6.0</ele><time>2026-03-29T14:13:29.711Z</time></trkpt><trkpt lat="45.7870871" lon="12.8258396"><ele>6.0</ele><time>2026-03-29T14:13:30.712Z</time></trkpt><trkpt lat="45.7870521" lon="12.8256457"><ele>6.25</ele><time>2026-03-29T14:13:31.705Z</time></trkpt><trkpt lat="45.7870183" lon="12.8254602"><ele>6.5</ele><time>2026-03-29T14:13:32.731Z</time></trkpt><trkpt lat="45.7869876" lon="12.8252822"><ele>6.75</ele><time>2026-03-29T14:13:33.734Z</time></trkpt><trkpt lat="45.7869586" lon="12.8251133"><ele>7.0</ele><time>2026-03-29T14:13:34.72Z</time></trkpt><trkpt lat="45.786929" lon="12.8249572"><ele>6.5</ele><time>2026-03-29T14:13:35.712Z</time></trkpt><trkpt lat="45.7869011" lon="12.8248076"><ele>6.0</ele><time>2026-03-29T14:13:36.737Z</time></trkpt><trkpt lat="45.7868704" lon="12.824658"><ele>5.5</ele><time>2026-03-29T14:13:37.726Z</time></trkpt><trkpt lat="45.7868386" lon="12.8245004"><ele>5.0</ele><time>2026-03-29T14:13:38.74Z</time></trkpt><trkpt lat="45.7868006" lon="12.8243357"><ele>4.5</ele><time>2026-03-29T14:13:39.748Z</time></trkpt><trkpt lat="45.7867603" lon="12.8241645"><ele>4.0</ele><time>2026-03-29T14:13:40.731Z</time></trkpt><trkpt lat="45.7867217" lon="12.8239829"><ele>3.5</ele><time>2026-03-29T14:13:41.75Z</time></trkpt><trkpt lat="45.7866843" lon="12.823788"><ele>3.0</ele><time>2026-03-29T14:13:42.742Z</time></trkpt><trkpt lat="45.7866575" lon="12.8235805"><ele>3.0</ele><time>2026-03-29T14:13:43.723Z</time></trkpt><trkpt lat="45.7866198" lon="12.8233683"><ele>3.0</ele><time>2026-03-29T14:13:44.733Z</time></trkpt><trkpt lat="45.7865767" lon="12.8231471"><ele>3.0</ele><time>2026-03-29T14:13:45.717Z</time></trkpt><trkpt lat="45.7865323" lon="12.8229122"><ele>3.0</ele><time>2026-03-29T14:13:46.733Z</time></trkpt><trkpt lat="45.7864826" lon="12.8226635"><ele>3.0</ele><time>2026-03-29T14:13:47.735Z</time></trkpt><trkpt lat="45.7864283" lon="12.8224054"><ele>3.0</ele><time>2026-03-29T14:13:48.741Z</time></trkpt><trkpt lat="45.7863717" lon="12.8221439"><ele>3.333333333333333</ele><time>2026-03-29T14:13:49.719Z</time></trkpt><trkpt lat="45.7862976" lon="12.8218908"><ele>3.6666666666666665</ele><time>2026-03-29T14:13:50.711Z</time></trkpt><trkpt lat="45.7862351" lon="12.8216355"><ele>4.0</ele><time>2026-03-29T14:13:51.73Z</time></trkpt><trkpt lat="45.7861663" lon="12.8213918"><ele>4.333333333333333</ele><time>2026-03-29T14:13:52.729Z</time></trkpt><trkpt lat="45.786086" lon="12.8211601"><ele>4.666666666666667</ele><time>2026-03-29T14:13:53.733Z</time></trkpt><trkpt lat="45.786013" lon="12.8209267"><ele>5.0</ele><time>2026-03-29T14:13:54.717Z</time></trkpt><trkpt lat="45.7859457" lon="12.8206921"><ele>4.666666666666667</ele><time>2026-03-29T14:13:55.713Z</time></trkpt><trkpt lat="45.7858735" lon="12.8204675"><ele>4.333333333333333</ele><time>2026-03-29T14:13:56.715Z</time></trkpt><trkpt lat="45.7857987" lon="12.8202526"><ele>4.0</ele><time>2026-03-29T14:13:57.71Z</time></trkpt><trkpt lat="45.7857367" lon="12.8200388"><ele>4.0</ele><time>2026-03-29T14:13:58.734Z</time></trkpt><trkpt lat="45.7856669" lon="12.8198338"><ele>4.0</ele><time>2026-03-29T14:13:59.727Z</time></trkpt><trkpt lat="45.7855966" lon="12.8196363"><ele>4.0</ele><time>2026-03-29T14:14:00.731Z</time></trkpt><trkpt lat="45.7855248" lon="12.8194479"><ele>4.0</ele><time>2026-03-29T14:14:01.729Z</time></trkpt><trkpt lat="45.7854511" lon="12.8192653"><ele>4.0</ele><time>2026-03-29T14:14:02.732Z</time></trkpt><trkpt lat="45.7853757" lon="12.8190866"><ele>4.0</ele><time>2026-03-29T14:14:03.749Z</time></trkpt><trkpt lat="45.7852932" lon="12.8189072"><ele>4.0</ele><time>2026-03-29T14:14:04.74Z</time></trkpt><trkpt lat="45.7852018" lon="12.8187202"><ele>4.333333333333333</ele><time>2026-03-29T14:14:05.723Z</time></trkpt><trkpt lat="45.7851027" lon="12.81852"><ele>4.666666666666667</ele><time>2026-03-29T14:14:06.727Z</time></trkpt><trkpt lat="45.7849971" lon="12.8183107"><ele>5.0</ele><time>2026-03-29T14:14:07.728Z</time></trkpt><trkpt lat="45.7848881" lon="12.8181004"><ele>4.333333333333334</ele><time>2026-03-29T14:14:08.718Z</time></trkpt><trkpt lat="45.7847732" lon="12.8178996"><ele>3.666666666666667</ele><time>2026-03-29T14:14:09.719Z</time></trkpt><trkpt lat="45.7846597" lon="12.8177059"><ele>3.0</ele><time>2026-03-29T14:14:10.722Z</time></trkpt><trkpt lat="45.7845477" lon="12.817516"><ele>3.0</ele><time>2026-03-29T14:14:11.727Z</time></trkpt><trkpt lat="45.7844356" lon="12.8173343"><ele>3.0</ele><time>2026-03-29T14:14:12.717Z</time></trkpt><trkpt lat="45.7843259" lon="12.817153"><ele>3.0</ele><time>2026-03-29T14:14:13.735Z</time></trkpt><trkpt lat="45.7842148" lon="12.8169696"><ele>3.0</ele><time>2026-03-29T14:14:14.725Z</time></trkpt><trkpt lat="45.7840941" lon="12.8167913"><ele>3.0</ele><time>2026-03-29T14:14:15.724Z</time></trkpt><trkpt lat="45.783969" lon="12.8166128"><ele>3.0</ele><time>2026-03-29T14:14:16.729Z</time></trkpt><trkpt lat="45.7838382" lon="12.8164339"><ele>3.0</ele><time>2026-03-29T14:14:17.718Z</time></trkpt><trkpt lat="45.7837019" lon="12.8162568"><ele>3.0</ele><time>2026-03-29T14:14:18.735Z</time></trkpt><trkpt lat="45.7835575" lon="12.8160883"><ele>3.0</ele><time>2026-03-29T14:14:19.726Z</time></trkpt><trkpt lat="45.7834075" lon="12.8159176"><ele>2.6666666666666665</ele><time>2026-03-29T14:14:20.739Z</time></trkpt><trkpt lat="45.7832375" lon="12.8157592"><ele>2.333333333333333</ele><time>2026-03-29T14:14:21.75Z</time></trkpt><trkpt lat="45.7830592" lon="12.8155875"><ele>2.0</ele><time>2026-03-29T14:14:22.741Z</time></trkpt><trkpt lat="45.7828572" lon="12.8154072"><ele>3.0</ele><time>2026-03-29T14:14:23.722Z</time></trkpt><trkpt lat="45.7826281" lon="12.815209"><ele>4.0</ele><time>2026-03-29T14:14:24.722Z</time></trkpt><trkpt lat="45.7823869" lon="12.8150062"><ele>4.0</ele><time>2026-03-29T14:14:25.715Z</time></trkpt><trkpt lat="45.7821525" lon="12.814817"><ele>4.0</ele><time>2026-03-29T14:14:26.739Z</time></trkpt><trkpt lat="45.7819246" lon="12.8146519"><ele>4.0</ele><time>2026-03-29T14:14:27.745Z</time></trkpt><trkpt lat="45.7816966" lon="12.8145128"><ele>4.0</ele><time>2026-03-29T14:14:28.732Z</time></trkpt><trkpt lat="45.7814756" lon="12.814381"><ele>3.0</ele><time>2026-03-29T14:14:29.745Z</time></trkpt><trkpt lat="45.7812525" lon="12.8142762"><ele>2.0</ele><time>2026-03-29T14:14:30.741Z</time></trkpt><trkpt lat="45.7810336" lon="12.8141575"><ele>2.5</ele><time>2026-03-29T14:14:31.716Z</time></trkpt><trkpt lat="45.7808106" lon="12.8140272"><ele>3.0</ele><time>2026-03-29T14:14:32.73Z</time></trkpt><trkpt lat="45.7805721" lon="12.8139202"><ele>3.0</ele><time>2026-03-29T14:14:33.714Z</time></trkpt><trkpt lat="45.7803206" lon="12.8138188"><ele>3.0</ele><time>2026-03-29T14:14:34.719Z</time></trkpt><trkpt lat="45.7800645" lon="12.8137182"><ele>3.5</ele><time>2026-03-29T14:14:35.721Z</time></trkpt><trkpt lat="45.7798048" lon="12.8136255"><ele>4.0</ele><time>2026-03-29T14:14:36.718Z</time></trkpt><trkpt lat="45.7795441" lon="12.8135408"><ele>3.0</ele><time>2026-03-29T14:14:37.727Z</time></trkpt><trkpt lat="45.7792828" lon="12.8134632"><ele>2.0</ele><time>2026-03-29T14:14:38.732Z</time></trkpt><trkpt lat="45.7790254" lon="12.8133948"><ele>2.0</ele><time>2026-03-29T14:14:39.739Z</time></trkpt><trkpt lat="45.7787716" lon="12.8133425"><ele>2.0</ele><time>2026-03-29T14:14:40.712Z</time></trkpt><trkpt lat="45.7785211" lon="12.813299"><ele>2.0</ele><time>2026-03-29T14:14:41.724Z</time></trkpt><trkpt lat="45.778273" lon="12.8132623"><ele>2.0</ele><time>2026-03-29T14:14:42.736Z</time></trkpt><trkpt lat="45.7780279" lon="12.8132289"><ele>2.0</ele><time>2026-03-29T14:14:43.723Z</time></trkpt><trkpt lat="45.7777837" lon="12.8131917"><ele>2.0</ele><time>2026-03-29T14:14:44.717Z</time></trkpt><trkpt lat="45.7775371" lon="12.8131596"><ele>2.5</ele><time>2026-03-29T14:14:45.713Z</time></trkpt><trkpt lat="45.7772921" lon="12.8131297"><ele>3.0</ele><time>2026-03-29T14:14:46.724Z</time></trkpt><trkpt lat="45.7770503" lon="12.8130985"><ele>3.5</ele><time>2026-03-29T14:14:47.712Z</time></trkpt><trkpt lat="45.77681" lon="12.8130751"><ele>4.0</ele><time>2026-03-29T14:14:48.732Z</time></trkpt><trkpt lat="45.7765688" lon="12.8130519"><ele>4.0</ele><time>2026-03-29T14:14:49.726Z</time></trkpt><trkpt lat="45.7763301" lon="12.8130273"><ele>4.0</ele><time>2026-03-29T14:14:50.723Z</time></trkpt><trkpt lat="45.7760965" lon="12.8130069"><ele>2.5</ele><time>2026-03-29T14:14:51.727Z</time></trkpt><trkpt lat="45.775869" lon="12.8129809"><ele>1.0</ele><time>2026-03-29T14:14:52.731Z</time></trkpt><trkpt lat="45.7756459" lon="12.812965"><ele>1.0</ele><time>2026-03-29T14:14:53.732Z</time></trkpt><trkpt lat="45.7754261" lon="12.8129474"><ele>1.0</ele><time>2026-03-29T14:14:54.731Z</time></trkpt><trkpt lat="45.7752081" lon="12.8129257"><ele>1.0</ele><time>2026-03-29T14:14:55.723Z</time></trkpt><trkpt lat="45.7749892" lon="12.8129058"><ele>0.6666666666666666</ele><time>2026-03-29T14:14:56.738Z</time></trkpt><trkpt lat="45.7747672" lon="12.8128828"><ele>0.3333333333333333</ele><time>2026-03-29T14:14:57.731Z</time></trkpt><trkpt lat="45.7745413" lon="12.8128583"><ele>0.0</ele><time>2026-03-29T14:14:58.715Z</time></trkpt><trkpt lat="45.7743128" lon="12.8128352"><ele>0.0</ele><time>2026-03-29T14:14:59.714Z</time></trkpt><trkpt lat="45.7740778" lon="12.8128099"><ele>0.0</ele><time>2026-03-29T14:15:00.727Z</time></trkpt><trkpt lat="45.7738394" lon="12.8127808"><ele>0.0</ele><time>2026-03-29T14:15:01.721Z</time></trkpt><trkpt lat="45.7735998" lon="12.8127487"><ele>0.0</ele><time>2026-03-29T14:15:02.73Z</time></trkpt><trkpt lat="45.7733589" lon="12.8127239"><ele>0.0</ele><time>2026-03-29T14:15:03.741Z</time></trkpt><trkpt lat="45.7731182" lon="12.8126973"><ele>0.0</ele><time>2026-03-29T14:15:04.739Z</time></trkpt><trkpt lat="45.77288" lon="12.8126685"><ele>-0.5</ele><time>2026-03-29T14:15:05.744Z</time></trkpt><trkpt lat="45.7726447" lon="12.8126486"><ele>-1.0</ele><time>2026-03-29T14:15:06.726Z</time></trkpt><trkpt lat="45.7724128" lon="12.812622"><ele>-1.0</ele><time>2026-03-29T14:15:07.729Z</time></trkpt><trkpt lat="45.7721828" lon="12.8125875"><ele>-1.0</ele><time>2026-03-29T14:15:08.729Z</time></trkpt><trkpt lat="45.7719533" lon="12.8125438"><ele>-0.5</ele><time>2026-03-29T14:15:09.706Z</time></trkpt><trkpt lat="45.7717226" lon="12.8124906"><ele>0.0</ele><time>2026-03-29T14:15:10.739Z</time></trkpt><trkpt lat="45.7714904" lon="12.8124272"><ele>0.0</ele><time>2026-03-29T14:15:11.713Z</time></trkpt><trkpt lat="45.7712563" lon="12.8123562"><ele>0.0</ele><time>2026-03-29T14:15:12.722Z</time></trkpt><trkpt lat="45.7710218" lon="12.8122789"><ele>2.0</ele><time>2026-03-29T14:15:13.719Z</time></trkpt><trkpt lat="45.7707855" lon="12.8122052"><ele>4.0</ele><time>2026-03-29T14:15:14.73Z</time></trkpt><trkpt lat="45.770554" lon="12.8121041"><ele>4.0</ele><time>2026-03-29T14:15:15.729Z</time></trkpt><trkpt lat="45.7703261" lon="12.8119873"><ele>4.0</ele><time>2026-03-29T14:15:16.734Z</time></trkpt><trkpt lat="45.7700987" lon="12.8118739"><ele>4.5</ele><time>2026-03-29T14:15:17.731Z</time></trkpt><trkpt lat="45.7698746" lon="12.8117557"><ele>5.0</ele><time>2026-03-29T14:15:18.728Z</time></trkpt><trkpt lat="45.7696541" lon="12.811631"><ele>5.0</ele><time>2026-03-29T14:15:19.718Z</time></trkpt><trkpt lat="45.769439" lon="12.8114901"><ele>5.0</ele><time>2026-03-29T14:15:20.739Z</time></trkpt><trkpt lat="45.7692222" lon="12.8113622"><ele>4.5</ele><time>2026-03-29T14:15:21.705Z</time></trkpt><trkpt lat="45.7690069" lon="12.8112374"><ele>4.0</ele><time>2026-03-29T14:15:22.734Z</time></trkpt><trkpt lat="45.7687935" lon="12.8111168"><ele>4.0</ele><time>2026-03-29T14:15:23.734Z</time></trkpt><trkpt lat="45.768582" lon="12.8109939"><ele>4.0</ele><time>2026-03-29T14:15:24.715Z</time></trkpt><trkpt lat="45.7683697" lon="12.8108731"><ele>4.0</ele><time>2026-03-29T14:15:25.732Z</time></trkpt><trkpt lat="45.7681574" lon="12.810756"><ele>4.0</ele><time>2026-03-29T14:15:26.725Z</time></trkpt><trkpt lat="45.7679474" lon="12.8106318"><ele>4.0</ele><time>2026-03-29T14:15:27.721Z</time></trkpt><trkpt lat="45.7677372" lon="12.8105085"><ele>4.0</ele><time>2026-03-29T14:15:28.721Z</time></trkpt><trkpt lat="45.7675267" lon="12.8103894"><ele>4.0</ele><time>2026-03-29T14:15:29.72Z</time></trkpt><trkpt lat="45.7673162" lon="12.810269"><ele>4.0</ele><time>2026-03-29T14:15:30.741Z</time></trkpt><trkpt lat="45.7671043" lon="12.8101565"><ele>4.0</ele><time>2026-03-29T14:15:31.733Z</time></trkpt><trkpt lat="45.7668897" lon="12.8100529"><ele>4.0</ele><time>2026-03-29T14:15:32.708Z</time></trkpt><trkpt lat="45.7666716" lon="12.8099567"><ele>4.0</ele><time>2026-03-29T14:15:33.72Z</time></trkpt><trkpt lat="45.7664473" lon="12.8098855"><ele>4.0</ele><time>2026-03-29T14:15:34.717Z</time></trkpt><trkpt lat="45.7662216" lon="12.8098257"><ele>4.0</ele><time>2026-03-29T14:15:35.723Z</time></trkpt><trkpt lat="45.7659936" lon="12.809783"><ele>4.0</ele><time>2026-03-29T14:15:36.724Z</time></trkpt><trkpt lat="45.7657668" lon="12.8097545"><ele>4.0</ele><time>2026-03-29T14:15:37.736Z</time></trkpt><trkpt lat="45.7655449" lon="12.8097404"><ele>4.0</ele><time>2026-03-29T14:15:38.713Z</time></trkpt><trkpt lat="45.7653321" lon="12.80975"><ele>4.0</ele><time>2026-03-29T14:15:39.73Z</time></trkpt><trkpt lat="45.7651296" lon="12.809774"><ele>4.0</ele><time>2026-03-29T14:15:40.714Z</time></trkpt><trkpt lat="45.7649362" lon="12.8097948"><ele>4.0</ele><time>2026-03-29T14:15:41.712Z</time></trkpt><trkpt lat="45.7647549" lon="12.8098167"><ele>4.0</ele><time>2026-03-29T14:15:42.722Z</time></trkpt><trkpt lat="45.7645878" lon="12.8098345"><ele>4.0</ele><time>2026-03-29T14:15:43.714Z</time></trkpt><trkpt lat="45.7644411" lon="12.8098603"><ele>4.0</ele><time>2026-03-29T14:15:44.749Z</time></trkpt><trkpt lat="45.764317" lon="12.8098712"><ele>4.0</ele><time>2026-03-29T14:15:45.735Z</time></trkpt><trkpt lat="45.7642036" lon="12.8098159"><ele>4.0</ele><time>2026-03-29T14:15:46.738Z</time></trkpt><trkpt lat="45.7641044" lon="12.8096943"><ele>3.25</ele><time>2026-03-29T14:15:47.718Z</time></trkpt><trkpt lat="45.7640059" lon="12.8095616"><ele>2.5</ele><time>2026-03-29T14:15:48.715Z</time></trkpt><trkpt lat="45.7638863" lon="12.8094572"><ele>1.75</ele><time>2026-03-29T14:15:49.729Z</time></trkpt><trkpt lat="45.7637526" lon="12.8094247"><ele>1.0</ele><time>2026-03-29T14:15:50.722Z</time></trkpt><trkpt lat="45.7636272" lon="12.8094933"><ele>1.25</ele><time>2026-03-29T14:15:51.74Z</time></trkpt><trkpt lat="45.7635147" lon="12.8095823"><ele>1.5</ele><time>2026-03-29T14:15:52.731Z</time></trkpt><trkpt lat="45.763418" lon="12.8097359"><ele>1.75</ele><time>2026-03-29T14:15:53.724Z</time></trkpt><trkpt lat="45.7633307" lon="12.8099087"><ele>2.0</ele><time>2026-03-29T14:15:54.711Z</time></trkpt><trkpt lat="45.7632126" lon="12.8100568"><ele>2.0</ele><time>2026-03-29T14:15:55.718Z</time></trkpt><trkpt lat="45.7630655" lon="12.8101692"><ele>2.0</ele><time>2026-03-29T14:15:56.74Z</time></trkpt><trkpt lat="45.7628876" lon="12.8102177"><ele>2.0</ele><time>2026-03-29T14:15:57.732Z</time></trkpt><trkpt lat="45.7626966" lon="12.8102477"><ele>1.6666666666666665</ele><time>2026-03-29T14:15:58.719Z</time></trkpt><trkpt lat="45.7624935" lon="12.8102657"><ele>1.3333333333333333</ele><time>2026-03-29T14:15:59.713Z</time></trkpt><trkpt lat="45.7622881" lon="12.8102947"><ele>1.0</ele><time>2026-03-29T14:16:00.723Z</time></trkpt><trkpt lat="45.7620812" lon="12.8103329"><ele>1.0</ele><time>2026-03-29T14:16:01.704Z</time></trkpt><trkpt lat="45.7618739" lon="12.8103649"><ele>1.0</ele><time>2026-03-29T14:16:02.728Z</time></trkpt><trkpt lat="45.7616654" lon="12.8103988"><ele>1.0</ele><time>2026-03-29T14:16:03.715Z</time></trkpt><trkpt lat="45.7614527" lon="12.8104353"><ele>1.6666666666666665</ele><time>2026-03-29T14:16:04.728Z</time></trkpt><trkpt lat="45.7612365" lon="12.8104756"><ele>2.3333333333333335</ele><time>2026-03-29T14:16:05.742Z</time></trkpt><trkpt lat="45.7610196" lon="12.8105154"><ele>3.0</ele><time>2026-03-29T14:16:06.718Z</time></trkpt><trkpt lat="45.7608032" lon="12.8105514"><ele>3.333333333333333</ele><time>2026-03-29T14:16:07.717Z</time></trkpt><trkpt lat="45.7605877" lon="12.8105963"><ele>3.6666666666666665</ele><time>2026-03-29T14:16:08.734Z</time></trkpt><trkpt lat="45.760377" lon="12.8106316"><ele>4.0</ele><time>2026-03-29T14:16:09.729Z</time></trkpt><trkpt lat="45.7601729" lon="12.8106623"><ele>4.666666666666666</ele><time>2026-03-29T14:16:10.741Z</time></trkpt><trkpt lat="45.7599714" lon="12.810702"><ele>5.333333333333333</ele><time>2026-03-29T14:16:11.749Z</time></trkpt><trkpt lat="45.7597798" lon="12.8107316"><ele>6.0</ele><time>2026-03-29T14:16:12.742Z</time></trkpt><trkpt lat="45.7595953" lon="12.8107683"><ele>6.0</ele><time>2026-03-29T14:16:13.741Z</time></trkpt><trkpt lat="45.7594163" lon="12.8108017"><ele>6.0</ele><time>2026-03-29T14:16:14.735Z</time></trkpt><trkpt lat="45.7592405" lon="12.8108274"><ele>6.0</ele><time>2026-03-29T14:16:15.722Z</time></trkpt><trkpt lat="45.7590699" lon="12.8108532"><ele>6.0</ele><time>2026-03-29T14:16:16.722Z</time></trkpt><trkpt lat="45.7589091" lon="12.8108768"><ele>6.0</ele><time>2026-03-29T14:16:17.717Z</time></trkpt><trkpt lat="45.7587645" lon="12.8108798"><ele>6.0</ele><time>2026-03-29T14:16:18.735Z</time></trkpt><trkpt lat="45.7586349" lon="12.8108578"><ele>6.0</ele><time>2026-03-29T14:16:19.72Z</time></trkpt><trkpt lat="45.7585098" lon="12.8108088"><ele>5.333333333333333</ele><time>2026-03-29T14:16:20.719Z</time></trkpt><trkpt lat="45.7583833" lon="12.8107116"><ele>4.666666666666666</ele><time>2026-03-29T14:16:21.731Z</time></trkpt><trkpt lat="45.7582619" lon="12.8105774"><ele>4.0</ele><time>2026-03-29T14:16:22.732Z</time></trkpt><trkpt lat="45.7581492" lon="12.8104018"><ele>4.0</ele><time>2026-03-29T14:16:23.723Z</time></trkpt><trkpt lat="45.7580646" lon="12.8101671"><ele>4.0</ele><time>2026-03-29T14:16:24.738Z</time></trkpt><trkpt lat="45.7579871" lon="12.8099188"><ele>4.0</ele><time>2026-03-29T14:16:25.734Z</time></trkpt><trkpt lat="45.7579186" lon="12.8096485"><ele>3.333333333333333</ele><time>2026-03-29T14:16:26.722Z</time></trkpt><trkpt lat="45.7578533" lon="12.8093536"><ele>2.6666666666666665</ele><time>2026-03-29T14:16:27.752Z</time></trkpt><trkpt lat="45.7577836" lon="12.8090434"><ele>2.0</ele><time>2026-03-29T14:16:28.725Z</time></trkpt><trkpt lat="45.7577133" lon="12.8087179"><ele>1.5</ele><time>2026-03-29T14:16:29.729Z</time></trkpt><trkpt lat="45.7576416" lon="12.8083911"><ele>1.0</ele><time>2026-03-29T14:16:30.707Z</time></trkpt><trkpt lat="45.757571" lon="12.8080695"><ele>1.0</ele><time>2026-03-29T14:16:31.713Z</time></trkpt><trkpt lat="45.7575131" lon="12.8077551"><ele>1.0</ele><time>2026-03-29T14:16:32.718Z</time></trkpt><trkpt lat="45.7574456" lon="12.8074502"><ele>1.3333333333333333</ele><time>2026-03-29T14:16:33.713Z</time></trkpt><trkpt lat="45.7573809" lon="12.8071462"><ele>1.6666666666666665</ele><time>2026-03-29T14:16:34.747Z</time></trkpt><trkpt lat="45.7573257" lon="12.8068373"><ele>2.0</ele><time>2026-03-29T14:16:35.716Z</time></trkpt><trkpt lat="45.7572666" lon="12.8065344"><ele>2.0</ele><time>2026-03-29T14:16:36.704Z</time></trkpt><trkpt lat="45.757208" lon="12.806237"><ele>2.0</ele><time>2026-03-29T14:16:37.729Z</time></trkpt><trkpt lat="45.7571498" lon="12.805942"><ele>2.0</ele><time>2026-03-29T14:16:38.72Z</time></trkpt><trkpt lat="45.7570946" lon="12.8056519"><ele>2.333333333333333</ele><time>2026-03-29T14:16:39.724Z</time></trkpt><trkpt lat="45.7570385" lon="12.8053716"><ele>2.6666666666666665</ele><time>2026-03-29T14:16:40.727Z</time></trkpt><trkpt lat="45.7569819" lon="12.8051026"><ele>3.0</ele><time>2026-03-29T14:16:41.722Z</time></trkpt><trkpt lat="45.7569314" lon="12.8048391"><ele>2.3333333333333335</ele><time>2026-03-29T14:16:42.74Z</time></trkpt><trkpt lat="45.7568798" lon="12.8045772"><ele>1.6666666666666665</ele><time>2026-03-29T14:16:43.713Z</time></trkpt><trkpt lat="45.7568329" lon="12.8043132"><ele>1.0</ele><time>2026-03-29T14:16:44.719Z</time></trkpt><trkpt lat="45.7567825" lon="12.8040503"><ele>1.0</ele><time>2026-03-29T14:16:45.723Z</time></trkpt><trkpt lat="45.7567313" lon="12.8037854"><ele>1.0</ele><time>2026-03-29T14:16:46.731Z</time></trkpt><trkpt lat="45.7566797" lon="12.8035193"><ele>1.0</ele><time>2026-03-29T14:16:47.722Z</time></trkpt><trkpt lat="45.7566224" lon="12.8032538"><ele>1.0</ele><time>2026-03-29T14:16:48.727Z</time></trkpt><trkpt lat="45.7565706" lon="12.8029819"><ele>1.0</ele><time>2026-03-29T14:16:49.709Z</time></trkpt><trkpt lat="45.7565174" lon="12.8027071"><ele>1.0</ele><time>2026-03-29T14:16:50.729Z</time></trkpt><trkpt lat="45.7564634" lon="12.8024316"><ele>1.6666666666666665</ele><time>2026-03-29T14:16:51.722Z</time></trkpt><trkpt lat="45.7564127" lon="12.8021588"><ele>2.3333333333333335</ele><time>2026-03-29T14:16:52.725Z</time></trkpt><trkpt lat="45.7563646" lon="12.8018935"><ele>3.0</ele><time>2026-03-29T14:16:53.71Z</time></trkpt><trkpt lat="45.7563174" lon="12.8016363"><ele>3.0</ele><time>2026-03-29T14:16:54.719Z</time></trkpt><trkpt lat="45.7562612" lon="12.8013902"><ele>3.0</ele><time>2026-03-29T14:16:55.721Z</time></trkpt><trkpt lat="45.7562167" lon="12.801144"><ele>3.0</ele><time>2026-03-29T14:16:56.728Z</time></trkpt><trkpt lat="45.7561763" lon="12.8009015"><ele>3.333333333333333</ele><time>2026-03-29T14:16:57.719Z</time></trkpt><trkpt lat="45.756138" lon="12.8006652"><ele>3.6666666666666665</ele><time>2026-03-29T14:16:58.724Z</time></trkpt><trkpt lat="45.7561094" lon="12.8004327"><ele>4.0</ele><time>2026-03-29T14:16:59.711Z</time></trkpt><trkpt lat="45.7560751" lon="12.8002078"><ele>3.6666666666666665</ele><time>2026-03-29T14:17:00.731Z</time></trkpt><trkpt lat="45.7560342" lon="12.7999937"><ele>3.333333333333333</ele><time>2026-03-29T14:17:01.724Z</time></trkpt><trkpt lat="45.7560014" lon="12.7997829"><ele>3.0</ele><time>2026-03-29T14:17:02.72Z</time></trkpt><trkpt lat="45.7559681" lon="12.7995769"><ele>3.0</ele><time>2026-03-29T14:17:03.718Z</time></trkpt><trkpt lat="45.7559309" lon="12.7993724"><ele>3.0</ele><time>2026-03-29T14:17:04.726Z</time></trkpt><trkpt lat="45.7558948" lon="12.7991625"><ele>3.0</ele><time>2026-03-29T14:17:05.718Z</time></trkpt><trkpt lat="45.7558543" lon="12.7989475"><ele>2.6666666666666665</ele><time>2026-03-29T14:17:06.722Z</time></trkpt><trkpt lat="45.7558155" lon="12.7987251"><ele>2.333333333333333</ele><time>2026-03-29T14:17:07.73Z</time></trkpt><trkpt lat="45.7557786" lon="12.7984937"><ele>2.0</ele><time>2026-03-29T14:17:08.709Z</time></trkpt><trkpt lat="45.7557386" lon="12.7982557"><ele>2.0</ele><time>2026-03-29T14:17:09.723Z</time></trkpt><trkpt lat="45.7556955" lon="12.7980154"><ele>2.0</ele><time>2026-03-29T14:17:10.708Z</time></trkpt><trkpt lat="45.7556522" lon="12.7977752"><ele>2.0</ele><time>2026-03-29T14:17:11.72Z</time></trkpt><trkpt lat="45.7556098" lon="12.7975323"><ele>2.0</ele><time>2026-03-29T14:17:12.719Z</time></trkpt><trkpt lat="45.7555683" lon="12.7972847"><ele>2.0</ele><time>2026-03-29T14:17:13.71Z</time></trkpt><trkpt lat="45.7555238" lon="12.7970346"><ele>2.0</ele><time>2026-03-29T14:17:14.721Z</time></trkpt><trkpt lat="45.755482" lon="12.7967786"><ele>1.6666666666666665</ele><time>2026-03-29T14:17:15.707Z</time></trkpt><trkpt lat="45.7554349" lon="12.7965149"><ele>1.3333333333333333</ele><time>2026-03-29T14:17:16.722Z</time></trkpt><trkpt lat="45.755384" lon="12.7962401"><ele>1.0</ele><time>2026-03-29T14:17:17.707Z</time></trkpt><trkpt lat="45.7553307" lon="12.7959492"><ele>0.5</ele><time>2026-03-29T14:17:18.719Z</time></trkpt><trkpt lat="45.7552705" lon="12.7956395"><ele>0.0</ele><time>2026-03-29T14:17:19.718Z</time></trkpt><trkpt lat="45.7552092" lon="12.7953112"><ele>0.0</ele><time>2026-03-29T14:17:20.707Z</time></trkpt><trkpt lat="45.7551522" lon="12.7949646"><ele>0.0</ele><time>2026-03-29T14:17:21.708Z</time></trkpt><trkpt lat="45.7550972" lon="12.7946027"><ele>0.0</ele><time>2026-03-29T14:17:22.719Z</time></trkpt><trkpt lat="45.7550426" lon="12.7942295"><ele>0.0</ele><time>2026-03-29T14:17:23.71Z</time></trkpt><trkpt lat="45.7549857" lon="12.7938492"><ele>0.5</ele><time>2026-03-29T14:17:24.712Z</time></trkpt><trkpt lat="45.7549248" lon="12.7934707"><ele>1.0</ele><time>2026-03-29T14:17:25.708Z</time></trkpt><trkpt lat="45.7548633" lon="12.793102"><ele>1.0</ele><time>2026-03-29T14:17:26.726Z</time></trkpt><trkpt lat="45.7548013" lon="12.7927428"><ele>1.0</ele><time>2026-03-29T14:17:27.723Z</time></trkpt><trkpt lat="45.7547405" lon="12.7923926"><ele>-0.5</ele><time>2026-03-29T14:17:28.713Z</time></trkpt><trkpt lat="45.7546776" lon="12.7920552"><ele>-2.0</ele><time>2026-03-29T14:17:29.709Z</time></trkpt><trkpt lat="45.7546206" lon="12.7917244"><ele>-2.0</ele><time>2026-03-29T14:17:30.712Z</time></trkpt><trkpt lat="45.754566" lon="12.791401"><ele>-2.0</ele><time>2026-03-29T14:17:31.732Z</time></trkpt><trkpt lat="45.754513" lon="12.7910903"><ele>-1.3333333333333333</ele><time>2026-03-29T14:17:32.739Z</time></trkpt><trkpt lat="45.7544607" lon="12.7907962"><ele>-0.6666666666666666</ele><time>2026-03-29T14:17:33.733Z</time></trkpt><trkpt lat="45.7544165" lon="12.7905142"><ele>0.0</ele><time>2026-03-29T14:17:34.716Z</time></trkpt><trkpt lat="45.7543646" lon="12.7902431"><ele>0.6666666666666666</ele><time>2026-03-29T14:17:35.714Z</time></trkpt><trkpt lat="45.7543108" lon="12.7899736"><ele>1.3333333333333333</ele><time>2026-03-29T14:17:36.722Z</time></trkpt><trkpt lat="45.7542541" lon="12.7897041"><ele>2.0</ele><time>2026-03-29T14:17:37.732Z</time></trkpt><trkpt lat="45.7541858" lon="12.7894388"><ele>2.0</ele><time>2026-03-29T14:17:38.697Z</time></trkpt><trkpt lat="45.7541063" lon="12.7891778"><ele>2.0</ele><time>2026-03-29T14:17:39.711Z</time></trkpt><trkpt lat="45.7540066" lon="12.7889286"><ele>2.0</ele><time>2026-03-29T14:17:40.723Z</time></trkpt><trkpt lat="45.7538964" lon="12.7886844"><ele>2.0</ele><time>2026-03-29T14:17:41.713Z</time></trkpt><trkpt lat="45.7537732" lon="12.7884472"><ele>2.0</ele><time>2026-03-29T14:17:42.75Z</time></trkpt><trkpt lat="45.7536369" lon="12.7882172"><ele>2.0</ele><time>2026-03-29T14:17:43.722Z</time></trkpt><trkpt lat="45.753483" lon="12.7879939"><ele>2.0</ele><time>2026-03-29T14:17:44.729Z</time></trkpt><trkpt lat="45.7533129" lon="12.7877798"><ele>2.0</ele><time>2026-03-29T14:17:45.717Z</time></trkpt><trkpt lat="45.7531293" lon="12.7875705"><ele>2.0</ele><time>2026-03-29T14:17:46.724Z</time></trkpt><trkpt lat="45.7529428" lon="12.7873534"><ele>2.0</ele><time>2026-03-29T14:17:47.716Z</time></trkpt><trkpt lat="45.7527573" lon="12.7871254"><ele>2.0</ele><time>2026-03-29T14:17:48.723Z</time></trkpt><trkpt lat="45.752564" lon="12.7869144"><ele>2.0</ele><time>2026-03-29T14:17:49.724Z</time></trkpt><trkpt lat="45.7523784" lon="12.7866992"><ele>1.0</ele><time>2026-03-29T14:17:50.731Z</time></trkpt><trkpt lat="45.7521984" lon="12.7864828"><ele>0.0</ele><time>2026-03-29T14:17:51.707Z</time></trkpt><trkpt lat="45.7520188" lon="12.7862767"><ele>-0.5</ele><time>2026-03-29T14:17:52.726Z</time></trkpt><trkpt lat="45.7518441" lon="12.7860664"><ele>-1.0</ele><time>2026-03-29T14:17:53.717Z</time></trkpt><trkpt lat="45.7516697" lon="12.7858591"><ele>-1.0</ele><time>2026-03-29T14:17:54.72Z</time></trkpt><trkpt lat="45.7514932" lon="12.7856593"><ele>-1.0</ele><time>2026-03-29T14:17:55.708Z</time></trkpt><trkpt lat="45.7513194" lon="12.7854601"><ele>-1.0</ele><time>2026-03-29T14:17:56.717Z</time></trkpt><trkpt lat="45.7511483" lon="12.7852633"><ele>-1.0</ele><time>2026-03-29T14:17:57.727Z</time></trkpt><trkpt lat="45.7509798" lon="12.7850694"><ele>-1.0</ele><time>2026-03-29T14:17:58.726Z</time></trkpt><trkpt lat="45.750814" lon="12.7848757"><ele>-1.0</ele><time>2026-03-29T14:17:59.726Z</time></trkpt><trkpt lat="45.7506519" lon="12.7846798"><ele>-1.0</ele><time>2026-03-29T14:18:00.718Z</time></trkpt><trkpt lat="45.7504914" lon="12.7844844"><ele>-1.0</ele><time>2026-03-29T14:18:01.715Z</time></trkpt><trkpt lat="45.7503319" lon="12.7842827"><ele>-1.0</ele><time>2026-03-29T14:18:02.731Z</time></trkpt><trkpt lat="45.7501886" lon="12.7840576"><ele>-0.6666666666666666</ele><time>2026-03-29T14:18:03.731Z</time></trkpt><trkpt lat="45.7500555" lon="12.7838126"><ele>-0.3333333333333333</ele><time>2026-03-29T14:18:04.741Z</time></trkpt><trkpt lat="45.7499433" lon="12.7835371"><ele>0.0</ele><time>2026-03-29T14:18:05.735Z</time></trkpt><trkpt lat="45.7498417" lon="12.7832434"><ele>-0.5</ele><time>2026-03-29T14:18:06.739Z</time></trkpt><trkpt lat="45.7497558" lon="12.7829308"><ele>-1.0</ele><time>2026-03-29T14:18:07.731Z</time></trkpt><trkpt lat="45.7496826" lon="12.7826083"><ele>-1.0</ele><time>2026-03-29T14:18:08.732Z</time></trkpt><trkpt lat="45.7496107" lon="12.7822862"><ele>-1.0</ele><time>2026-03-29T14:18:09.729Z</time></trkpt><trkpt lat="45.7495483" lon="12.7819639"><ele>-0.5</ele><time>2026-03-29T14:18:10.737Z</time></trkpt><trkpt lat="45.749496" lon="12.7816413"><ele>0.0</ele><time>2026-03-29T14:18:11.731Z</time></trkpt><trkpt lat="45.7494431" lon="12.7813218"><ele>0.0</ele><time>2026-03-29T14:18:12.712Z</time></trkpt><trkpt lat="45.74939" lon="12.7810043"><ele>0.0</ele><time>2026-03-29T14:18:13.722Z</time></trkpt><trkpt lat="45.7493359" lon="12.7806889"><ele>0.0</ele><time>2026-03-29T14:18:14.704Z</time></trkpt><trkpt lat="45.7492827" lon="12.7803746"><ele>0.0</ele><time>2026-03-29T14:18:15.756Z</time></trkpt><trkpt lat="45.7492311" lon="12.7800612"><ele>0.0</ele><time>2026-03-29T14:18:16.734Z</time></trkpt><trkpt lat="45.7491796" lon="12.7797515"><ele>0.0</ele><time>2026-03-29T14:18:17.743Z</time></trkpt><trkpt lat="45.7491273" lon="12.7794461"><ele>0.0</ele><time>2026-03-29T14:18:18.737Z</time></trkpt><trkpt lat="45.7490756" lon="12.779144"><ele>0.3333333333333333</ele><time>2026-03-29T14:18:19.726Z</time></trkpt><trkpt lat="45.7490226" lon="12.7788457"><ele>0.6666666666666666</ele><time>2026-03-29T14:18:20.724Z</time></trkpt><trkpt lat="45.7489748" lon="12.7785493"><ele>1.0</ele><time>2026-03-29T14:18:21.73Z</time></trkpt><trkpt lat="45.748918" lon="12.7782582"><ele>1.3333333333333333</ele><time>2026-03-29T14:18:22.739Z</time></trkpt><trkpt lat="45.7488642" lon="12.7779657"><ele>1.6666666666666665</ele><time>2026-03-29T14:18:23.74Z</time></trkpt><trkpt lat="45.7488145" lon="12.7776711"><ele>2.0</ele><time>2026-03-29T14:18:24.739Z</time></trkpt><trkpt lat="45.7487658" lon="12.7773756"><ele>1.3333333333333333</ele><time>2026-03-29T14:18:25.748Z</time></trkpt><trkpt lat="45.7487032" lon="12.7770831"><ele>0.6666666666666666</ele><time>2026-03-29T14:18:26.713Z</time></trkpt><trkpt lat="45.7486515" lon="12.7767863"><ele>0.0</ele><time>2026-03-29T14:18:27.721Z</time></trkpt><trkpt lat="45.7485904" lon="12.7764921"><ele>0.0</ele><time>2026-03-29T14:18:28.723Z</time></trkpt><trkpt lat="45.7485384" lon="12.7761847"><ele>0.0</ele><time>2026-03-29T14:18:29.744Z</time></trkpt><trkpt lat="45.748476" lon="12.7758727"><ele>0.0</ele><time>2026-03-29T14:18:30.729Z</time></trkpt><trkpt lat="45.7484133" lon="12.7755577"><ele>0.0</ele><time>2026-03-29T14:18:31.734Z</time></trkpt><trkpt lat="45.7483513" lon="12.7752436"><ele>0.0</ele><time>2026-03-29T14:18:32.734Z</time></trkpt><trkpt lat="45.7482813" lon="12.7749345"><ele>-0.5</ele><time>2026-03-29T14:18:33.71Z</time></trkpt><trkpt lat="45.7482109" lon="12.7746268"><ele>-1.0</ele><time>2026-03-29T14:18:34.721Z</time></trkpt><trkpt lat="45.7481232" lon="12.7743269"><ele>-1.5</ele><time>2026-03-29T14:18:35.732Z</time></trkpt><trkpt lat="45.7480247" lon="12.7740297"><ele>-2.0</ele><time>2026-03-29T14:18:36.732Z</time></trkpt><trkpt lat="45.7479228" lon="12.7737302"><ele>-1.5</ele><time>2026-03-29T14:18:37.724Z</time></trkpt><trkpt lat="45.7478199" lon="12.773429"><ele>-1.0</ele><time>2026-03-29T14:18:38.734Z</time></trkpt><trkpt lat="45.7477183" lon="12.7731269"><ele>-0.5</ele><time>2026-03-29T14:18:39.733Z</time></trkpt><trkpt lat="45.7476168" lon="12.7728277"><ele>0.0</ele><time>2026-03-29T14:18:40.733Z</time></trkpt><trkpt lat="45.7475183" lon="12.7725339"><ele>0.0</ele><time>2026-03-29T14:18:41.736Z</time></trkpt><trkpt lat="45.7474147" lon="12.7722526"><ele>0.0</ele><time>2026-03-29T14:18:42.734Z</time></trkpt><trkpt lat="45.7473202" lon="12.771976"><ele>0.0</ele><time>2026-03-29T14:18:43.722Z</time></trkpt><trkpt lat="45.7472331" lon="12.771705"><ele>0.0</ele><time>2026-03-29T14:18:44.74Z</time></trkpt><trkpt lat="45.7471443" lon="12.7714394"><ele>0.0</ele><time>2026-03-29T14:18:45.734Z</time></trkpt><trkpt lat="45.7470593" lon="12.7711743"><ele>0.0</ele><time>2026-03-29T14:18:46.733Z</time></trkpt><trkpt lat="45.7469765" lon="12.7709082"><ele>1.0</ele><time>2026-03-29T14:18:47.733Z</time></trkpt><trkpt lat="45.7468967" lon="12.7706377"><ele>2.0</ele><time>2026-03-29T14:18:48.724Z</time></trkpt><trkpt lat="45.7468365" lon="12.7703516"><ele>3.0</ele><time>2026-03-29T14:18:49.76Z</time></trkpt><trkpt lat="45.7467929" lon="12.7700605"><ele>3.0</ele><time>2026-03-29T14:18:50.724Z</time></trkpt><trkpt lat="45.7467523" lon="12.7697701"><ele>3.0</ele><time>2026-03-29T14:18:51.742Z</time></trkpt><trkpt lat="45.7467245" lon="12.7694742"><ele>3.0</ele><time>2026-03-29T14:18:52.731Z</time></trkpt><trkpt lat="45.7467141" lon="12.7691681"><ele>3.0</ele><time>2026-03-29T14:18:53.722Z</time></trkpt><trkpt lat="45.7467178" lon="12.7688483"><ele>3.0</ele><time>2026-03-29T14:18:54.726Z</time></trkpt><trkpt lat="45.7467436" lon="12.7685201"><ele>3.0</ele><time>2026-03-29T14:18:55.717Z</time></trkpt><trkpt lat="45.7467639" lon="12.7681792"><ele>3.0</ele><time>2026-03-29T14:18:56.722Z</time></trkpt><trkpt lat="45.7467754" lon="12.7678351"><ele>2.5</ele><time>2026-03-29T14:18:57.72Z</time></trkpt><trkpt lat="45.7467809" lon="12.7674913"><ele>2.0</ele><time>2026-03-29T14:18:58.717Z</time></trkpt><trkpt lat="45.7468063" lon="12.767157"><ele>1.0</ele><time>2026-03-29T14:18:59.732Z</time></trkpt><trkpt lat="45.7468216" lon="12.7668257"><ele>0.0</ele><time>2026-03-29T14:19:00.715Z</time></trkpt><trkpt lat="45.7468389" lon="12.7665016"><ele>0.0</ele><time>2026-03-29T14:19:01.731Z</time></trkpt><trkpt lat="45.7468505" lon="12.766184"><ele>0.0</ele><time>2026-03-29T14:19:02.708Z</time></trkpt><trkpt lat="45.746859" lon="12.7658718"><ele>0.0</ele><time>2026-03-29T14:19:03.708Z</time></trkpt><trkpt lat="45.7468562" lon="12.7655596"><ele>0.0</ele><time>2026-03-29T14:19:04.741Z</time></trkpt><trkpt lat="45.7468548" lon="12.7652471"><ele>0.0</ele><time>2026-03-29T14:19:05.722Z</time></trkpt><trkpt lat="45.7468488" lon="12.7649333"><ele>0.0</ele><time>2026-03-29T14:19:06.71Z</time></trkpt><trkpt lat="45.7468453" lon="12.7646163"><ele>0.0</ele><time>2026-03-29T14:19:07.737Z</time></trkpt><trkpt lat="45.7468486" lon="12.764296"><ele>0.0</ele><time>2026-03-29T14:19:08.723Z</time></trkpt><trkpt lat="45.7468563" lon="12.7639741"><ele>0.0</ele><time>2026-03-29T14:19:09.731Z</time></trkpt><trkpt lat="45.7468616" lon="12.7636504"><ele>0.5</ele><time>2026-03-29T14:19:10.722Z</time></trkpt><trkpt lat="45.746866" lon="12.763325"><ele>1.0</ele><time>2026-03-29T14:19:11.722Z</time></trkpt><trkpt lat="45.7468704" lon="12.7630006"><ele>1.0</ele><time>2026-03-29T14:19:12.726Z</time></trkpt><trkpt lat="45.7468732" lon="12.7626792"><ele>1.0</ele><time>2026-03-29T14:19:13.725Z</time></trkpt><trkpt lat="45.7468774" lon="12.7623628"><ele>1.0</ele><time>2026-03-29T14:19:14.733Z</time></trkpt><trkpt lat="45.7468821" lon="12.762053"><ele>0.6666666666666666</ele><time>2026-03-29T14:19:15.742Z</time></trkpt><trkpt lat="45.7468837" lon="12.7617503"><ele>0.3333333333333333</ele><time>2026-03-29T14:19:16.727Z</time></trkpt><trkpt lat="45.7468858" lon="12.7614625"><ele>0.0</ele><time>2026-03-29T14:19:17.731Z</time></trkpt><trkpt lat="45.7468852" lon="12.7611856"><ele>0.0</ele><time>2026-03-29T14:19:18.737Z</time></trkpt><trkpt lat="45.7468869" lon="12.7609118"><ele>0.0</ele><time>2026-03-29T14:19:19.741Z</time></trkpt><trkpt lat="45.7468514" lon="12.7606484"><ele>0.0</ele><time>2026-03-29T14:19:20.705Z</time></trkpt><trkpt lat="45.7468088" lon="12.7604053"><ele>0.6666666666666666</ele><time>2026-03-29T14:19:21.73Z</time></trkpt><trkpt lat="45.7467421" lon="12.7601786"><ele>1.3333333333333333</ele><time>2026-03-29T14:19:22.727Z</time></trkpt><trkpt lat="45.7466865" lon="12.7599546"><ele>2.0</ele><time>2026-03-29T14:19:23.721Z</time></trkpt><trkpt lat="45.7466517" lon="12.7597329"><ele>2.0</ele><time>2026-03-29T14:19:24.738Z</time></trkpt><trkpt lat="45.7466327" lon="12.7595238"><ele>2.0</ele><time>2026-03-29T14:19:25.739Z</time></trkpt><trkpt lat="45.7466279" lon="12.7593356"><ele>2.0</ele><time>2026-03-29T14:19:26.73Z</time></trkpt><trkpt lat="45.7466297" lon="12.7591728"><ele>2.0</ele><time>2026-03-29T14:19:27.714Z</time></trkpt><trkpt lat="45.7466632" lon="12.7590252"><ele>2.0</ele><time>2026-03-29T14:19:28.734Z</time></trkpt><trkpt lat="45.746717" lon="12.7588993"><ele>2.0</ele><time>2026-03-29T14:19:29.736Z</time></trkpt><trkpt lat="45.7467726" lon="12.7587826"><ele>2.0</ele><time>2026-03-29T14:19:30.73Z</time></trkpt><trkpt lat="45.7468105" lon="12.7586434"><ele>2.0</ele><time>2026-03-29T14:19:31.722Z</time></trkpt><trkpt lat="45.7468166" lon="12.7584927"><ele>2.0</ele><time>2026-03-29T14:19:32.73Z</time></trkpt><trkpt lat="45.7467922" lon="12.7583419"><ele>2.0</ele><time>2026-03-29T14:19:33.725Z</time></trkpt><trkpt lat="45.7467172" lon="12.7582048"><ele>2.0</ele><time>2026-03-29T14:19:34.71Z</time></trkpt><trkpt lat="45.746647" lon="12.7580647"><ele>2.0</ele><time>2026-03-29T14:19:35.721Z</time></trkpt><trkpt lat="45.7465889" lon="12.7579021"><ele>2.0</ele><time>2026-03-29T14:19:36.719Z</time></trkpt><trkpt lat="45.7465734" lon="12.7576898"><ele>2.0</ele><time>2026-03-29T14:19:37.72Z</time></trkpt><trkpt lat="45.7465606" lon="12.757456"><ele>2.0</ele><time>2026-03-29T14:19:38.728Z</time></trkpt><trkpt lat="45.7465255" lon="12.7572085"><ele>2.0</ele><time>2026-03-29T14:19:39.741Z</time></trkpt><trkpt lat="45.7464718" lon="12.7569466"><ele>1.0</ele><time>2026-03-29T14:19:40.717Z</time></trkpt><trkpt lat="45.7463927" lon="12.7566938"><ele>0.0</ele><time>2026-03-29T14:19:41.736Z</time></trkpt><trkpt lat="45.7463166" lon="12.7564405"><ele>-1.0</ele><time>2026-03-29T14:19:42.743Z</time></trkpt><trkpt lat="45.7462541" lon="12.7561768"><ele>-1.3333333333333333</ele><time>2026-03-29T14:19:43.722Z</time></trkpt><trkpt lat="45.7461898" lon="12.7559147"><ele>-1.6666666666666665</ele><time>2026-03-29T14:19:44.716Z</time></trkpt><trkpt lat="45.7461212" lon="12.7556516"><ele>-2.0</ele><time>2026-03-29T14:19:45.722Z</time></trkpt><trkpt lat="45.7460475" lon="12.7553861"><ele>-0.6666666666666666</ele><time>2026-03-29T14:19:46.732Z</time></trkpt><trkpt lat="45.7459708" lon="12.7551175"><ele>0.6666666666666666</ele><time>2026-03-29T14:19:47.736Z</time></trkpt><trkpt lat="45.7458931" lon="12.7548452"><ele>2.0</ele><time>2026-03-29T14:19:48.723Z</time></trkpt><trkpt lat="45.7458156" lon="12.7545684"><ele>2.333333333333333</ele><time>2026-03-29T14:19:49.727Z</time></trkpt><trkpt lat="45.7457321" lon="12.7542839"><ele>2.6666666666666665</ele><time>2026-03-29T14:19:50.709Z</time></trkpt><trkpt lat="45.7456454" lon="12.753987"><ele>3.0</ele><time>2026-03-29T14:19:51.737Z</time></trkpt><trkpt lat="45.7455643" lon="12.7536775"><ele>3.5</ele><time>2026-03-29T14:19:52.714Z</time></trkpt><trkpt lat="45.74548" lon="12.7533652"><ele>4.0</ele><time>2026-03-29T14:19:53.709Z</time></trkpt><trkpt lat="45.7453926" lon="12.7530513"><ele>4.0</ele><time>2026-03-29T14:19:54.744Z</time></trkpt><trkpt lat="45.7452992" lon="12.7527375"><ele>4.0</ele><time>2026-03-29T14:19:55.737Z</time></trkpt><trkpt lat="45.7452012" lon="12.7524268"><ele>2.5</ele><time>2026-03-29T14:19:56.724Z</time></trkpt><trkpt lat="45.7451243" lon="12.7521067"><ele>1.0</ele><time>2026-03-29T14:19:57.723Z</time></trkpt><trkpt lat="45.7450441" lon="12.7517984"><ele>1.0</ele><time>2026-03-29T14:19:58.73Z</time></trkpt><trkpt lat="45.7449607" lon="12.7515005"><ele>1.0</ele><time>2026-03-29T14:19:59.73Z</time></trkpt><trkpt lat="45.7448787" lon="12.7512062"><ele>1.0</ele><time>2026-03-29T14:20:00.728Z</time></trkpt><trkpt lat="45.7447902" lon="12.750921"><ele>1.0</ele><time>2026-03-29T14:20:01.714Z</time></trkpt><trkpt lat="45.7447081" lon="12.7506372"><ele>1.0</ele><time>2026-03-29T14:20:02.726Z</time></trkpt><trkpt lat="45.7446311" lon="12.7503627"><ele>1.0</ele><time>2026-03-29T14:20:03.718Z</time></trkpt><trkpt lat="45.7445571" lon="12.7500996"><ele>1.0</ele><time>2026-03-29T14:20:04.742Z</time></trkpt><trkpt lat="45.7444852" lon="12.7498411"><ele>1.0</ele><time>2026-03-29T14:20:05.729Z</time></trkpt><trkpt lat="45.7444124" lon="12.7495836"><ele>1.0</ele><time>2026-03-29T14:20:06.721Z</time></trkpt><trkpt lat="45.7443391" lon="12.7493264"><ele>0.6666666666666666</ele><time>2026-03-29T14:20:07.723Z</time></trkpt><trkpt lat="45.7442641" lon="12.7490683"><ele>0.3333333333333333</ele><time>2026-03-29T14:20:08.73Z</time></trkpt><trkpt lat="45.7441851" lon="12.7488088"><ele>0.0</ele><time>2026-03-29T14:20:09.725Z</time></trkpt><trkpt lat="45.7441085" lon="12.7485436"><ele>0.0</ele><time>2026-03-29T14:20:10.733Z</time></trkpt><trkpt lat="45.7440243" lon="12.7482752"><ele>0.0</ele><time>2026-03-29T14:20:11.722Z</time></trkpt><trkpt lat="45.7439342" lon="12.7479985"><ele>0.0</ele><time>2026-03-29T14:20:12.738Z</time></trkpt><trkpt lat="45.7438311" lon="12.7477181"><ele>-0.5</ele><time>2026-03-29T14:20:13.733Z</time></trkpt><trkpt lat="45.7437164" lon="12.7474345"><ele>-1.0</ele><time>2026-03-29T14:20:14.727Z</time></trkpt><trkpt lat="45.7436017" lon="12.7471399"><ele>0.0</ele><time>2026-03-29T14:20:15.733Z</time></trkpt><trkpt lat="45.7434814" lon="12.7468417"><ele>1.0</ele><time>2026-03-29T14:20:16.72Z</time></trkpt><trkpt lat="45.7433589" lon="12.7465415"><ele>1.0</ele><time>2026-03-29T14:20:17.727Z</time></trkpt><trkpt lat="45.7432341" lon="12.7462407"><ele>1.0</ele><time>2026-03-29T14:20:18.714Z</time></trkpt><trkpt lat="45.743111" lon="12.7459361"><ele>0.0</ele><time>2026-03-29T14:20:19.739Z</time></trkpt><trkpt lat="45.7429838" lon="12.7456349"><ele>-1.0</ele><time>2026-03-29T14:20:20.725Z</time></trkpt><trkpt lat="45.7428589" lon="12.7453328"><ele>-1.0</ele><time>2026-03-29T14:20:21.727Z</time></trkpt><trkpt lat="45.742741" lon="12.7450346"><ele>-1.0</ele><time>2026-03-29T14:20:22.715Z</time></trkpt><trkpt lat="45.7426296" lon="12.7447508"><ele>-1.0</ele><time>2026-03-29T14:20:23.715Z</time></trkpt><trkpt lat="45.7425193" lon="12.7444824"><ele>-1.0</ele><time>2026-03-29T14:20:24.716Z</time></trkpt><trkpt lat="45.7424096" lon="12.744216"><ele>-1.0</ele><time>2026-03-29T14:20:25.737Z</time></trkpt><trkpt lat="45.7422995" lon="12.7439469"><ele>-1.0</ele><time>2026-03-29T14:20:26.716Z</time></trkpt><trkpt lat="45.742189" lon="12.7436757"><ele>-1.0</ele><time>2026-03-29T14:20:27.739Z</time></trkpt><trkpt lat="45.7420795" lon="12.7434025"><ele>-1.0</ele><time>2026-03-29T14:20:28.734Z</time></trkpt><trkpt lat="45.741967" lon="12.7431287"><ele>-1.0</ele><time>2026-03-29T14:20:29.727Z</time></trkpt><trkpt lat="45.7418546" lon="12.7428505"><ele>-1.0</ele><time>2026-03-29T14:20:30.734Z</time></trkpt><trkpt lat="45.7417451" lon="12.7425663"><ele>-0.5</ele><time>2026-03-29T14:20:31.739Z</time></trkpt><trkpt lat="45.7416279" lon="12.7422858"><ele>0.0</ele><time>2026-03-29T14:20:32.73Z</time></trkpt><trkpt lat="45.7415102" lon="12.7420021"><ele>-0.5</ele><time>2026-03-29T14:20:33.734Z</time></trkpt><trkpt lat="45.7413959" lon="12.7417128"><ele>-1.0</ele><time>2026-03-29T14:20:34.718Z</time></trkpt><trkpt lat="45.741279" lon="12.7414216"><ele>-1.0</ele><time>2026-03-29T14:20:35.724Z</time></trkpt><trkpt lat="45.7411602" lon="12.7411286"><ele>-1.0</ele><time>2026-03-29T14:20:36.743Z</time></trkpt><trkpt lat="45.7410415" lon="12.7408329"><ele>-0.5</ele><time>2026-03-29T14:20:37.725Z</time></trkpt><trkpt lat="45.7409227" lon="12.7405361"><ele>0.0</ele><time>2026-03-29T14:20:38.717Z</time></trkpt><trkpt lat="45.7408069" lon="12.7402369"><ele>-1.0</ele><time>2026-03-29T14:20:39.739Z</time></trkpt><trkpt lat="45.7406824" lon="12.7399438"><ele>-2.0</ele><time>2026-03-29T14:20:40.719Z</time></trkpt><trkpt lat="45.7405644" lon="12.7396481"><ele>-2.5</ele><time>2026-03-29T14:20:41.731Z</time></trkpt><trkpt lat="45.7404521" lon="12.7393533"><ele>-3.0</ele><time>2026-03-29T14:20:42.73Z</time></trkpt><trkpt lat="45.7403392" lon="12.7390675"><ele>-3.0</ele><time>2026-03-29T14:20:43.715Z</time></trkpt><trkpt lat="45.7402206" lon="12.7387924"><ele>-3.0</ele><time>2026-03-29T14:20:44.742Z</time></trkpt><trkpt lat="45.7401129" lon="12.7385133"><ele>-3.0</ele><time>2026-03-29T14:20:45.718Z</time></trkpt><trkpt lat="45.7400058" lon="12.7382396"><ele>-2.6666666666666665</ele><time>2026-03-29T14:20:46.73Z</time></trkpt><trkpt lat="45.7398986" lon="12.7379696"><ele>-2.333333333333333</ele><time>2026-03-29T14:20:47.731Z</time></trkpt><trkpt lat="45.7397905" lon="12.7377"><ele>-2.0</ele><time>2026-03-29T14:20:48.731Z</time></trkpt><trkpt lat="45.7396827" lon="12.7374274"><ele>-2.0</ele><time>2026-03-29T14:20:49.731Z</time></trkpt><trkpt lat="45.7395744" lon="12.7371544"><ele>-2.0</ele><time>2026-03-29T14:20:50.725Z</time></trkpt><trkpt lat="45.7394648" lon="12.7368825"><ele>-2.0</ele><time>2026-03-29T14:20:51.735Z</time></trkpt><trkpt lat="45.7393554" lon="12.7366101"><ele>-1.6666666666666665</ele><time>2026-03-29T14:20:52.725Z</time></trkpt><trkpt lat="45.7392454" lon="12.7363374"><ele>-1.3333333333333333</ele><time>2026-03-29T14:20:53.718Z</time></trkpt><trkpt lat="45.7391352" lon="12.7360641"><ele>-1.0</ele><time>2026-03-29T14:20:54.722Z</time></trkpt><trkpt lat="45.7390245" lon="12.7357903"><ele>-1.0</ele><time>2026-03-29T14:20:55.732Z</time></trkpt><trkpt lat="45.7389148" lon="12.7355143"><ele>-1.0</ele><time>2026-03-29T14:20:56.737Z</time></trkpt><trkpt lat="45.7388034" lon="12.7352376"><ele>-1.0</ele><time>2026-03-29T14:20:57.722Z</time></trkpt><trkpt lat="45.7386872" lon="12.7349594"><ele>-1.5</ele><time>2026-03-29T14:20:58.717Z</time></trkpt><trkpt lat="45.7385705" lon="12.7346765"><ele>-2.0</ele><time>2026-03-29T14:20:59.729Z</time></trkpt><trkpt lat="45.7384532" lon="12.7343925"><ele>-1.5</ele><time>2026-03-29T14:21:00.715Z</time></trkpt><trkpt lat="45.7383362" lon="12.734108"><ele>-1.0</ele><time>2026-03-29T14:21:01.731Z</time></trkpt><trkpt lat="45.7382145" lon="12.7338304"><ele>-1.0</ele><time>2026-03-29T14:21:02.711Z</time></trkpt><trkpt lat="45.7380984" lon="12.7335486"><ele>-1.0</ele><time>2026-03-29T14:21:03.749Z</time></trkpt><trkpt lat="45.7379836" lon="12.7332668"><ele>-1.0</ele><time>2026-03-29T14:21:04.729Z</time></trkpt><trkpt lat="45.7378702" lon="12.7329868"><ele>-1.0</ele><time>2026-03-29T14:21:05.731Z</time></trkpt><trkpt lat="45.7377568" lon="12.7327102"><ele>-0.3333333333333333</ele><time>2026-03-29T14:21:06.734Z</time></trkpt><trkpt lat="45.7376465" lon="12.7324347"><ele>0.3333333333333333</ele><time>2026-03-29T14:21:07.734Z</time></trkpt><trkpt lat="45.7375359" lon="12.7321644"><ele>1.0</ele><time>2026-03-29T14:21:08.734Z</time></trkpt><trkpt lat="45.7374269" lon="12.7318969"><ele>0.3333333333333333</ele><time>2026-03-29T14:21:09.72Z</time></trkpt><trkpt lat="45.7373186" lon="12.7316321"><ele>-0.3333333333333333</ele><time>2026-03-29T14:21:10.746Z</time></trkpt><trkpt lat="45.7372115" lon="12.7313676"><ele>-1.0</ele><time>2026-03-29T14:21:11.721Z</time></trkpt><trkpt lat="45.7371053" lon="12.7311046"><ele>-1.0</ele><time>2026-03-29T14:21:12.722Z</time></trkpt><trkpt lat="45.7369996" lon="12.7308437"><ele>-1.0</ele><time>2026-03-29T14:21:13.726Z</time></trkpt><trkpt lat="45.7368982" lon="12.7305793"><ele>-1.0</ele><time>2026-03-29T14:21:14.727Z</time></trkpt><trkpt lat="45.7367932" lon="12.7303161"><ele>0.0</ele><time>2026-03-29T14:21:15.733Z</time></trkpt><trkpt lat="45.7366858" lon="12.7300507"><ele>1.0</ele><time>2026-03-29T14:21:16.719Z</time></trkpt><trkpt lat="45.7365783" lon="12.7297797"><ele>2.0</ele><time>2026-03-29T14:21:17.727Z</time></trkpt><trkpt lat="45.7364702" lon="12.7295046"><ele>1.0</ele><time>2026-03-29T14:21:18.718Z</time></trkpt><trkpt lat="45.7363597" lon="12.7292267"><ele>0.0</ele><time>2026-03-29T14:21:19.715Z</time></trkpt><trkpt lat="45.7362452" lon="12.7289483"><ele>-1.0</ele><time>2026-03-29T14:21:20.724Z</time></trkpt><trkpt lat="45.736131" lon="12.7286662"><ele>-1.5</ele><time>2026-03-29T14:21:21.749Z</time></trkpt><trkpt lat="45.7360156" lon="12.7283825"><ele>-2.0</ele><time>2026-03-29T14:21:22.744Z</time></trkpt><trkpt lat="45.7358939" lon="12.7281043"><ele>-2.0</ele><time>2026-03-29T14:21:23.738Z</time></trkpt><trkpt lat="45.7357773" lon="12.7278207"><ele>-2.0</ele><time>2026-03-29T14:21:24.737Z</time></trkpt><trkpt lat="45.7356622" lon="12.7275365"><ele>-1.6666666666666665</ele><time>2026-03-29T14:21:25.711Z</time></trkpt><trkpt lat="45.7355502" lon="12.7272582"><ele>-1.3333333333333333</ele><time>2026-03-29T14:21:26.735Z</time></trkpt><trkpt lat="45.7354444" lon="12.7269852"><ele>-1.0</ele><time>2026-03-29T14:21:27.735Z</time></trkpt><trkpt lat="45.7353399" lon="12.7267164"><ele>-1.0</ele><time>2026-03-29T14:21:28.717Z</time></trkpt><trkpt lat="45.7352334" lon="12.7264562"><ele>-1.0</ele><time>2026-03-29T14:21:29.727Z</time></trkpt><trkpt lat="45.7351327" lon="12.7261985"><ele>-1.0</ele><time>2026-03-29T14:21:30.72Z</time></trkpt><trkpt lat="45.7350283" lon="12.7259466"><ele>-1.0</ele><time>2026-03-29T14:21:31.737Z</time></trkpt><trkpt lat="45.7349267" lon="12.7256919"><ele>-1.0</ele><time>2026-03-29T14:21:32.735Z</time></trkpt><trkpt lat="45.7348242" lon="12.7254371"><ele>-1.0</ele><time>2026-03-29T14:21:33.738Z</time></trkpt><trkpt lat="45.7347182" lon="12.725183"><ele>-1.0</ele><time>2026-03-29T14:21:34.712Z</time></trkpt><trkpt lat="45.7346132" lon="12.724926"><ele>-1.0</ele><time>2026-03-29T14:21:35.73Z</time></trkpt><trkpt lat="45.7345038" lon="12.7246692"><ele>-1.0</ele><time>2026-03-29T14:21:36.725Z</time></trkpt><trkpt lat="45.7343938" lon="12.7244081"><ele>-1.0</ele><time>2026-03-29T14:21:37.725Z</time></trkpt><trkpt lat="45.7342823" lon="12.7241413"><ele>-1.0</ele><time>2026-03-29T14:21:38.727Z</time></trkpt><trkpt lat="45.7341701" lon="12.7238702"><ele>-1.0</ele><time>2026-03-29T14:21:39.713Z</time></trkpt><trkpt lat="45.7340554" lon="12.7235988"><ele>-1.3333333333333333</ele><time>2026-03-29T14:21:40.723Z</time></trkpt><trkpt lat="45.7339491" lon="12.7233235"><ele>-1.6666666666666665</ele><time>2026-03-29T14:21:41.716Z</time></trkpt><trkpt lat="45.7338403" lon="12.7230569"><ele>-2.0</ele><time>2026-03-29T14:21:42.729Z</time></trkpt><trkpt lat="45.7337358" lon="12.722794"><ele>-2.0</ele><time>2026-03-29T14:21:43.725Z</time></trkpt><trkpt lat="45.7336336" lon="12.7225333"><ele>-2.0</ele><time>2026-03-29T14:21:44.729Z</time></trkpt><trkpt lat="45.733531" lon="12.7222752"><ele>-2.0</ele><time>2026-03-29T14:21:45.732Z</time></trkpt><trkpt lat="45.7334277" lon="12.722021"><ele>-1.6666666666666665</ele><time>2026-03-29T14:21:46.725Z</time></trkpt><trkpt lat="45.7333281" lon="12.721767"><ele>-1.3333333333333333</ele><time>2026-03-29T14:21:47.722Z</time></trkpt><trkpt lat="45.7332262" lon="12.7215168"><ele>-1.0</ele><time>2026-03-29T14:21:48.715Z</time></trkpt><trkpt lat="45.7331241" lon="12.7212694"><ele>-0.6666666666666666</ele><time>2026-03-29T14:21:49.729Z</time></trkpt><trkpt lat="45.7330225" lon="12.7210223"><ele>-0.3333333333333333</ele><time>2026-03-29T14:21:50.731Z</time></trkpt><trkpt lat="45.7329215" lon="12.720775"><ele>0.0</ele><time>2026-03-29T14:21:51.717Z</time></trkpt><trkpt lat="45.7328215" lon="12.7205295"><ele>0.0</ele><time>2026-03-29T14:21:52.731Z</time></trkpt><trkpt lat="45.7327244" lon="12.7202837"><ele>0.0</ele><time>2026-03-29T14:21:53.715Z</time></trkpt><trkpt lat="45.7326257" lon="12.7200414"><ele>0.0</ele><time>2026-03-29T14:21:54.717Z</time></trkpt><trkpt lat="45.7325265" lon="12.7198038"><ele>0.0</ele><time>2026-03-29T14:21:55.725Z</time></trkpt><trkpt lat="45.7324307" lon="12.7195661"><ele>0.0</ele><time>2026-03-29T14:21:56.73Z</time></trkpt><trkpt lat="45.7323354" lon="12.7193278"><ele>0.0</ele><time>2026-03-29T14:21:57.722Z</time></trkpt><trkpt lat="45.7322376" lon="12.7190896"><ele>-0.3333333333333333</ele><time>2026-03-29T14:21:58.726Z</time></trkpt><trkpt lat="45.7321382" lon="12.7188529"><ele>-0.6666666666666666</ele><time>2026-03-29T14:21:59.728Z</time></trkpt><trkpt lat="45.7320432" lon="12.7186136"><ele>-1.0</ele><time>2026-03-29T14:22:00.708Z</time></trkpt><trkpt lat="45.7319458" lon="12.7183722"><ele>-1.0</ele><time>2026-03-29T14:22:01.729Z</time></trkpt><trkpt lat="45.731847" lon="12.71813"><ele>-1.0</ele><time>2026-03-29T14:22:02.734Z</time></trkpt><trkpt lat="45.7317511" lon="12.7178901"><ele>-1.0</ele><time>2026-03-29T14:22:03.729Z</time></trkpt><trkpt lat="45.731656" lon="12.7176649"><ele>-0.3333333333333333</ele><time>2026-03-29T14:22:04.725Z</time></trkpt><trkpt lat="45.7315689" lon="12.7174523"><ele>0.3333333333333333</ele><time>2026-03-29T14:22:05.738Z</time></trkpt><trkpt lat="45.7314888" lon="12.7172518"><ele>1.0</ele><time>2026-03-29T14:22:06.733Z</time></trkpt><trkpt lat="45.7314142" lon="12.7170634"><ele>1.0</ele><time>2026-03-29T14:22:07.718Z</time></trkpt><trkpt lat="45.7313444" lon="12.7168892"><ele>1.0</ele><time>2026-03-29T14:22:08.735Z</time></trkpt><trkpt lat="45.7312788" lon="12.7167298"><ele>1.0</ele><time>2026-03-29T14:22:09.719Z</time></trkpt><trkpt lat="45.7312162" lon="12.716583"><ele>1.0</ele><time>2026-03-29T14:22:10.719Z</time></trkpt><trkpt lat="45.73116" lon="12.716439"><ele>1.0</ele><time>2026-03-29T14:22:11.735Z</time></trkpt><trkpt lat="45.7311003" lon="12.7162955"><ele>1.0</ele><time>2026-03-29T14:22:12.718Z</time></trkpt><trkpt lat="45.7310422" lon="12.7161473"><ele>1.0</ele><time>2026-03-29T14:22:13.71Z</time></trkpt><trkpt lat="45.7309808" lon="12.716006"><ele>1.0</ele><time>2026-03-29T14:22:14.728Z</time></trkpt><trkpt lat="45.7309244" lon="12.7158706"><ele>0.4</ele><time>2026-03-29T14:22:15.729Z</time></trkpt><trkpt lat="45.7308693" lon="12.7157414"><ele>-0.19999999999999996</ele><time>2026-03-29T14:22:16.739Z</time></trkpt><trkpt lat="45.7308168" lon="12.7156217"><ele>-0.8000000000000002</ele><time>2026-03-29T14:22:17.713Z</time></trkpt><trkpt lat="45.7307716" lon="12.715514"><ele>-1.4000000000000001</ele><time>2026-03-29T14:22:18.717Z</time></trkpt><trkpt lat="45.73074" lon="12.7154217"><ele>-2.0</ele><time>2026-03-29T14:22:19.714Z</time></trkpt><trkpt lat="45.7307155" lon="12.7152972"><ele>-2.0</ele><time>2026-03-29T14:22:21.714Z</time></trkpt><trkpt lat="45.730742" lon="12.7151499"><ele>-2.0</ele><time>2026-03-29T14:22:23.726Z</time></trkpt><trkpt lat="45.7307667" lon="12.7150502"><ele>-2.0</ele><time>2026-03-29T14:22:24.72Z</time></trkpt><trkpt lat="45.7307917" lon="12.714928"><ele>-2.0</ele><time>2026-03-29T14:22:25.747Z</time></trkpt><trkpt lat="45.7307868" lon="12.7147876"><ele>-2.0</ele><time>2026-03-29T14:22:26.728Z</time></trkpt><trkpt lat="45.7307588" lon="12.7146509"><ele>-2.0</ele><time>2026-03-29T14:22:27.732Z</time></trkpt><trkpt lat="45.7306962" lon="12.7145407"><ele>-2.0</ele><time>2026-03-29T14:22:28.731Z</time></trkpt><trkpt lat="45.7306053" lon="12.7144618"><ele>-2.0</ele><time>2026-03-29T14:22:29.73Z</time></trkpt><trkpt lat="45.7305068" lon="12.7144141"><ele>-2.0</ele><time>2026-03-29T14:22:30.723Z</time></trkpt><trkpt lat="45.7304135" lon="12.7143584"><ele>-2.0</ele><time>2026-03-29T14:22:31.734Z</time></trkpt><trkpt lat="45.7303174" lon="12.7143072"><ele>-2.0</ele><time>2026-03-29T14:22:32.736Z</time></trkpt><trkpt lat="45.7302297" lon="12.7142176"><ele>-2.0</ele><time>2026-03-29T14:22:33.714Z</time></trkpt><trkpt lat="45.7301659" lon="12.7140771"><ele>-2.0</ele><time>2026-03-29T14:22:34.726Z</time></trkpt><trkpt lat="45.7301106" lon="12.7139314"><ele>-2.0</ele><time>2026-03-29T14:22:35.73Z</time></trkpt><trkpt lat="45.7300573" lon="12.7137749"><ele>-1.6666666666666665</ele><time>2026-03-29T14:22:36.762Z</time></trkpt><trkpt lat="45.7299835" lon="12.7136068"><ele>-1.3333333333333333</ele><time>2026-03-29T14:22:37.711Z</time></trkpt><trkpt lat="45.7298978" lon="12.7134109"><ele>-1.0</ele><time>2026-03-29T14:22:38.72Z</time></trkpt><trkpt lat="45.7298105" lon="12.7131871"><ele>-1.0</ele><time>2026-03-29T14:22:39.725Z</time></trkpt><trkpt lat="45.7297176" lon="12.7129492"><ele>-1.0</ele><time>2026-03-29T14:22:40.735Z</time></trkpt><trkpt lat="45.7296067" lon="12.7126951"><ele>-1.0</ele><time>2026-03-29T14:22:41.708Z</time></trkpt><trkpt lat="45.7294909" lon="12.7124155"><ele>-1.5</ele><time>2026-03-29T14:22:42.716Z</time></trkpt><trkpt lat="45.7293793" lon="12.7121244"><ele>-2.0</ele><time>2026-03-29T14:22:43.724Z</time></trkpt><trkpt lat="45.7292682" lon="12.7118377"><ele>-1.0</ele><time>2026-03-29T14:22:44.709Z</time></trkpt><trkpt lat="45.7291582" lon="12.7115539"><ele>0.0</ele><time>2026-03-29T14:22:45.727Z</time></trkpt><trkpt lat="45.7290439" lon="12.7112731"><ele>0.5</ele><time>2026-03-29T14:22:46.713Z</time></trkpt><trkpt lat="45.7289269" lon="12.710993"><ele>1.0</ele><time>2026-03-29T14:22:47.718Z</time></trkpt><trkpt lat="45.7288098" lon="12.7107126"><ele>1.0</ele><time>2026-03-29T14:22:48.712Z</time></trkpt><trkpt lat="45.7286966" lon="12.7104307"><ele>1.0</ele><time>2026-03-29T14:22:49.72Z</time></trkpt><trkpt lat="45.7285829" lon="12.7101554"><ele>0.6666666666666666</ele><time>2026-03-29T14:22:50.725Z</time></trkpt><trkpt lat="45.728475" lon="12.7098822"><ele>0.3333333333333333</ele><time>2026-03-29T14:22:51.723Z</time></trkpt><trkpt lat="45.7283709" lon="12.7096117"><ele>0.0</ele><time>2026-03-29T14:22:52.709Z</time></trkpt><trkpt lat="45.7282644" lon="12.7093482"><ele>0.0</ele><time>2026-03-29T14:22:53.72Z</time></trkpt><trkpt lat="45.7281618" lon="12.709087"><ele>0.0</ele><time>2026-03-29T14:22:54.727Z</time></trkpt><trkpt lat="45.7280603" lon="12.7088271"><ele>0.0</ele><time>2026-03-29T14:22:55.721Z</time></trkpt><trkpt lat="45.7279578" lon="12.7085667"><ele>-0.3333333333333333</ele><time>2026-03-29T14:22:56.732Z</time></trkpt><trkpt lat="45.7278538" lon="12.7083065"><ele>-0.6666666666666666</ele><time>2026-03-29T14:22:57.729Z</time></trkpt><trkpt lat="45.7277504" lon="12.7080427"><ele>-1.0</ele><time>2026-03-29T14:22:58.736Z</time></trkpt><trkpt lat="45.7276427" lon="12.7077749"><ele>0.0</ele><time>2026-03-29T14:22:59.725Z</time></trkpt><trkpt lat="45.7275336" lon="12.7075011"><ele>1.0</ele><time>2026-03-29T14:23:00.707Z</time></trkpt><trkpt lat="45.7274225" lon="12.7072267"><ele>2.0</ele><time>2026-03-29T14:23:01.737Z</time></trkpt><trkpt lat="45.7273101" lon="12.7069564"><ele>1.3333333333333333</ele><time>2026-03-29T14:23:02.711Z</time></trkpt><trkpt lat="45.727198" lon="12.7067005"><ele>0.6666666666666666</ele><time>2026-03-29T14:23:03.711Z</time></trkpt><trkpt lat="45.7270739" lon="12.7064713"><ele>0.0</ele><time>2026-03-29T14:23:04.733Z</time></trkpt><trkpt lat="45.7269455" lon="12.7062487"><ele>0.6666666666666666</ele><time>2026-03-29T14:23:05.731Z</time></trkpt><trkpt lat="45.7268124" lon="12.7060285"><ele>1.3333333333333333</ele><time>2026-03-29T14:23:06.735Z</time></trkpt><trkpt lat="45.7266635" lon="12.705822"><ele>2.0</ele><time>2026-03-29T14:23:07.719Z</time></trkpt><trkpt lat="45.7265116" lon="12.7056094"><ele>2.0</ele><time>2026-03-29T14:23:08.711Z</time></trkpt><trkpt lat="45.7263547" lon="12.7053974"><ele>2.0</ele><time>2026-03-29T14:23:09.721Z</time></trkpt><trkpt lat="45.7262001" lon="12.7051787"><ele>2.0</ele><time>2026-03-29T14:23:10.741Z</time></trkpt><trkpt lat="45.7260436" lon="12.7049634"><ele>1.3333333333333333</ele><time>2026-03-29T14:23:11.728Z</time></trkpt><trkpt lat="45.7258861" lon="12.7047545"><ele>0.6666666666666666</ele><time>2026-03-29T14:23:12.728Z</time></trkpt><trkpt lat="45.7257324" lon="12.7045477"><ele>0.0</ele><time>2026-03-29T14:23:13.734Z</time></trkpt><trkpt lat="45.725582" lon="12.7043463"><ele>0.0</ele><time>2026-03-29T14:23:14.719Z</time></trkpt><trkpt lat="45.7254331" lon="12.7041485"><ele>0.0</ele><time>2026-03-29T14:23:15.728Z</time></trkpt><trkpt lat="45.7252879" lon="12.7039497"><ele>0.0</ele><time>2026-03-29T14:23:16.726Z</time></trkpt><trkpt lat="45.7251404" lon="12.703756"><ele>0.0</ele><time>2026-03-29T14:23:17.745Z</time></trkpt><trkpt lat="45.7249933" lon="12.7035636"><ele>0.0</ele><time>2026-03-29T14:23:18.738Z</time></trkpt><trkpt lat="45.7248501" lon="12.7033681"><ele>0.0</ele><time>2026-03-29T14:23:19.727Z</time></trkpt><trkpt lat="45.7247055" lon="12.703177"><ele>0.0</ele><time>2026-03-29T14:23:20.727Z</time></trkpt><trkpt lat="45.7245615" lon="12.7029869"><ele>0.0</ele><time>2026-03-29T14:23:21.729Z</time></trkpt><trkpt lat="45.7244209" lon="12.7027964"><ele>0.0</ele><time>2026-03-29T14:23:22.736Z</time></trkpt><trkpt lat="45.7242823" lon="12.7026086"><ele>0.6666666666666666</ele><time>2026-03-29T14:23:23.721Z</time></trkpt><trkpt lat="45.7241431" lon="12.7024234"><ele>1.3333333333333333</ele><time>2026-03-29T14:23:24.715Z</time></trkpt><trkpt lat="45.7240024" lon="12.7022401"><ele>2.0</ele><time>2026-03-29T14:23:25.731Z</time></trkpt><trkpt lat="45.7238591" lon="12.7020581"><ele>2.0</ele><time>2026-03-29T14:23:26.707Z</time></trkpt><trkpt lat="45.7237135" lon="12.701876"><ele>2.0</ele><time>2026-03-29T14:23:27.727Z</time></trkpt><trkpt lat="45.7235724" lon="12.7016947"><ele>2.0</ele><time>2026-03-29T14:23:28.726Z</time></trkpt><trkpt lat="45.7234405" lon="12.7015171"><ele>2.0</ele><time>2026-03-29T14:23:29.721Z</time></trkpt><trkpt lat="45.7233145" lon="12.7013479"><ele>2.0</ele><time>2026-03-29T14:23:30.725Z</time></trkpt><trkpt lat="45.7231949" lon="12.7011878"><ele>2.0</ele><time>2026-03-29T14:23:31.724Z</time></trkpt><trkpt lat="45.7230841" lon="12.7010388"><ele>2.0</ele><time>2026-03-29T14:23:32.737Z</time></trkpt><trkpt lat="45.7229843" lon="12.7009036"><ele>2.0</ele><time>2026-03-29T14:23:33.713Z</time></trkpt><trkpt lat="45.7228996" lon="12.7007904"><ele>2.0</ele><time>2026-03-29T14:23:34.723Z</time></trkpt><trkpt lat="45.7228377" lon="12.7007077"><ele>2.0</ele><time>2026-03-29T14:23:35.721Z</time></trkpt><trkpt lat="45.722797" lon="12.7006363"><ele>2.0</ele><time>2026-03-29T14:23:36.71Z</time></trkpt><trkpt lat="45.7227549" lon="12.700564"><ele>2.0</ele><time>2026-03-29T14:23:37.725Z</time></trkpt><trkpt lat="45.722708" lon="12.7004704"><ele>2.0</ele><time>2026-03-29T14:23:38.707Z</time></trkpt><trkpt lat="45.7226593" lon="12.7003454"><ele>2.0</ele><time>2026-03-29T14:23:39.717Z</time></trkpt><trkpt lat="45.7225983" lon="12.7002237"><ele>2.0</ele><time>2026-03-29T14:23:40.708Z</time></trkpt><trkpt lat="45.7225354" lon="12.700114"><ele>2.0</ele><time>2026-03-29T14:23:41.711Z</time></trkpt><trkpt lat="45.7224525" lon="12.7000392"><ele>2.2</ele><time>2026-03-29T14:23:42.725Z</time></trkpt><trkpt lat="45.7223604" lon="12.6999768"><ele>2.4000000000000004</ele><time>2026-03-29T14:23:43.72Z</time></trkpt><trkpt lat="45.7222642" lon="12.6999127"><ele>2.5999999999999996</ele><time>2026-03-29T14:23:44.73Z</time></trkpt><trkpt lat="45.7221694" lon="12.6998471"><ele>2.8</ele><time>2026-03-29T14:23:45.732Z</time></trkpt><trkpt lat="45.7220803" lon="12.6997575"><ele>3.0</ele><time>2026-03-29T14:23:46.734Z</time></trkpt><trkpt lat="45.7219937" lon="12.6996442"><ele>3.0</ele><time>2026-03-29T14:23:47.724Z</time></trkpt><trkpt lat="45.7219024" lon="12.6995218"><ele>3.0</ele><time>2026-03-29T14:23:48.721Z</time></trkpt><trkpt lat="45.7218094" lon="12.6993942"><ele>3.0</ele><time>2026-03-29T14:23:49.726Z</time></trkpt><trkpt lat="45.7217222" lon="12.6992653"><ele>3.0</ele><time>2026-03-29T14:23:50.716Z</time></trkpt><trkpt lat="45.7216357" lon="12.6991438"><ele>2.75</ele><time>2026-03-29T14:23:51.733Z</time></trkpt><trkpt lat="45.7215492" lon="12.6990248"><ele>2.5</ele><time>2026-03-29T14:23:52.716Z</time></trkpt><trkpt lat="45.7214571" lon="12.6989019"><ele>2.25</ele><time>2026-03-29T14:23:53.717Z</time></trkpt><trkpt lat="45.7213582" lon="12.6987725"><ele>2.0</ele><time>2026-03-29T14:23:54.725Z</time></trkpt><trkpt lat="45.7212565" lon="12.698637"><ele>1.75</ele><time>2026-03-29T14:23:55.733Z</time></trkpt><trkpt lat="45.7211531" lon="12.6984971"><ele>1.5</ele><time>2026-03-29T14:23:56.713Z</time></trkpt><trkpt lat="45.721045" lon="12.6983517"><ele>1.25</ele><time>2026-03-29T14:23:57.732Z</time></trkpt><trkpt lat="45.7209243" lon="12.698214"><ele>1.0</ele><time>2026-03-29T14:23:58.733Z</time></trkpt><trkpt lat="45.7208067" lon="12.698063"><ele>1.0</ele><time>2026-03-29T14:23:59.733Z</time></trkpt><trkpt lat="45.7206868" lon="12.6979112"><ele>1.0</ele><time>2026-03-29T14:24:00.714Z</time></trkpt><trkpt lat="45.7205746" lon="12.6977519"><ele>1.0</ele><time>2026-03-29T14:24:01.711Z</time></trkpt><trkpt lat="45.7204556" lon="12.697608"><ele>1.0</ele><time>2026-03-29T14:24:02.729Z</time></trkpt><trkpt lat="45.7203504" lon="12.6974445"><ele>1.0</ele><time>2026-03-29T14:24:03.731Z</time></trkpt><trkpt lat="45.7202409" lon="12.6972932"><ele>1.0</ele><time>2026-03-29T14:24:04.726Z</time></trkpt><trkpt lat="45.7201295" lon="12.6971407"><ele>1.0</ele><time>2026-03-29T14:24:05.709Z</time></trkpt><trkpt lat="45.7200116" lon="12.6969842"><ele>1.0</ele><time>2026-03-29T14:24:06.719Z</time></trkpt><trkpt lat="45.7198904" lon="12.6968216"><ele>1.0</ele><time>2026-03-29T14:24:07.722Z</time></trkpt><trkpt lat="45.7197677" lon="12.6966571"><ele>1.0</ele><time>2026-03-29T14:24:08.722Z</time></trkpt><trkpt lat="45.7196461" lon="12.6964954"><ele>1.0</ele><time>2026-03-29T14:24:09.741Z</time></trkpt><trkpt lat="45.7195268" lon="12.6963392"><ele>1.0</ele><time>2026-03-29T14:24:10.729Z</time></trkpt><trkpt lat="45.7194108" lon="12.6961859"><ele>1.6666666666666665</ele><time>2026-03-29T14:24:11.722Z</time></trkpt><trkpt lat="45.7192985" lon="12.6960304"><ele>2.3333333333333335</ele><time>2026-03-29T14:24:12.727Z</time></trkpt><trkpt lat="45.7191844" lon="12.6958756"><ele>3.0</ele><time>2026-03-29T14:24:13.724Z</time></trkpt><trkpt lat="45.7190665" lon="12.6957206"><ele>3.0</ele><time>2026-03-29T14:24:14.727Z</time></trkpt><trkpt lat="45.7189436" lon="12.6955628"><ele>3.0</ele><time>2026-03-29T14:24:15.731Z</time></trkpt><trkpt lat="45.7188178" lon="12.695397"><ele>3.0</ele><time>2026-03-29T14:24:16.71Z</time></trkpt><trkpt lat="45.7186914" lon="12.6952263"><ele>1.6666666666666667</ele><time>2026-03-29T14:24:17.709Z</time></trkpt><trkpt lat="45.7185624" lon="12.695054"><ele>0.33333333333333337</ele><time>2026-03-29T14:24:18.731Z</time></trkpt><trkpt lat="45.7184348" lon="12.6948728"><ele>-1.0</ele><time>2026-03-29T14:24:19.715Z</time></trkpt><trkpt lat="45.7183069" lon="12.6946892"><ele>-1.0</ele><time>2026-03-29T14:24:20.726Z</time></trkpt><trkpt lat="45.7181786" lon="12.6945063"><ele>-1.0</ele><time>2026-03-29T14:24:21.712Z</time></trkpt><trkpt lat="45.7180479" lon="12.6943266"><ele>-1.0</ele><time>2026-03-29T14:24:22.727Z</time></trkpt><trkpt lat="45.7179147" lon="12.6941458"><ele>-0.6666666666666666</ele><time>2026-03-29T14:24:23.743Z</time></trkpt><trkpt lat="45.7177765" lon="12.6939649"><ele>-0.3333333333333333</ele><time>2026-03-29T14:24:24.723Z</time></trkpt><trkpt lat="45.7176347" lon="12.6937837"><ele>0.0</ele><time>2026-03-29T14:24:25.72Z</time></trkpt><trkpt lat="45.7174952" lon="12.6935964"><ele>0.0</ele><time>2026-03-29T14:24:26.717Z</time></trkpt><trkpt lat="45.7173539" lon="12.6934139"><ele>0.0</ele><time>2026-03-29T14:24:27.729Z</time></trkpt><trkpt lat="45.7172154" lon="12.6932358"><ele>0.0</ele><time>2026-03-29T14:24:28.709Z</time></trkpt><trkpt lat="45.7170798" lon="12.6930649"><ele>0.0</ele><time>2026-03-29T14:24:29.744Z</time></trkpt><trkpt lat="45.7169469" lon="12.6928974"><ele>0.0</ele><time>2026-03-29T14:24:30.72Z</time></trkpt><trkpt lat="45.7168133" lon="12.6927328"><ele>0.0</ele><time>2026-03-29T14:24:31.723Z</time></trkpt><trkpt lat="45.7166808" lon="12.6925662"><ele>-0.6666666666666666</ele><time>2026-03-29T14:24:32.728Z</time></trkpt><trkpt lat="45.7165493" lon="12.6923986"><ele>-1.3333333333333333</ele><time>2026-03-29T14:24:33.713Z</time></trkpt><trkpt lat="45.7164197" lon="12.6922264"><ele>-2.0</ele><time>2026-03-29T14:24:34.734Z</time></trkpt><trkpt lat="45.7162878" lon="12.6920565"><ele>-1.3333333333333333</ele><time>2026-03-29T14:24:35.712Z</time></trkpt><trkpt lat="45.7161556" lon="12.6918907"><ele>-0.6666666666666666</ele><time>2026-03-29T14:24:36.711Z</time></trkpt><trkpt lat="45.7160293" lon="12.6917175"><ele>0.0</ele><time>2026-03-29T14:24:37.735Z</time></trkpt><trkpt lat="45.7159005" lon="12.6915484"><ele>0.0</ele><time>2026-03-29T14:24:38.735Z</time></trkpt><trkpt lat="45.7157709" lon="12.6913804"><ele>0.0</ele><time>2026-03-29T14:24:39.738Z</time></trkpt><trkpt lat="45.715642" lon="12.6912098"><ele>0.0</ele><time>2026-03-29T14:24:40.723Z</time></trkpt><trkpt lat="45.7155132" lon="12.6910387"><ele>0.0</ele><time>2026-03-29T14:24:41.736Z</time></trkpt><trkpt lat="45.7153847" lon="12.6908651"><ele>0.0</ele><time>2026-03-29T14:24:42.722Z</time></trkpt><trkpt lat="45.7152576" lon="12.6906879"><ele>0.0</ele><time>2026-03-29T14:24:43.715Z</time></trkpt><trkpt lat="45.7151292" lon="12.6905114"><ele>0.3333333333333333</ele><time>2026-03-29T14:24:44.709Z</time></trkpt><trkpt lat="45.7149995" lon="12.6903381"><ele>0.6666666666666666</ele><time>2026-03-29T14:24:45.718Z</time></trkpt><trkpt lat="45.7148701" lon="12.6901705"><ele>1.0</ele><time>2026-03-29T14:24:46.73Z</time></trkpt><trkpt lat="45.7147525" lon="12.6899973"><ele>1.3333333333333333</ele><time>2026-03-29T14:24:47.733Z</time></trkpt><trkpt lat="45.7146392" lon="12.6898298"><ele>1.6666666666666665</ele><time>2026-03-29T14:24:48.73Z</time></trkpt><trkpt lat="45.7145254" lon="12.6896733"><ele>2.0</ele><time>2026-03-29T14:24:49.735Z</time></trkpt><trkpt lat="45.7144158" lon="12.6895229"><ele>2.0</ele><time>2026-03-29T14:24:50.743Z</time></trkpt><trkpt lat="45.7143099" lon="12.6893803"><ele>2.0</ele><time>2026-03-29T14:24:51.732Z</time></trkpt><trkpt lat="45.7142096" lon="12.6892433"><ele>2.0</ele><time>2026-03-29T14:24:52.712Z</time></trkpt><trkpt lat="45.7141123" lon="12.6891134"><ele>2.0</ele><time>2026-03-29T14:24:53.73Z</time></trkpt><trkpt lat="45.7140188" lon="12.6889922"><ele>2.0</ele><time>2026-03-29T14:24:54.725Z</time></trkpt><trkpt lat="45.7139329" lon="12.6888714"><ele>2.0</ele><time>2026-03-29T14:24:55.711Z</time></trkpt><trkpt lat="45.7138478" lon="12.6887614"><ele>2.0</ele><time>2026-03-29T14:24:56.719Z</time></trkpt><trkpt lat="45.7137671" lon="12.6886578"><ele>2.0</ele><time>2026-03-29T14:24:57.734Z</time></trkpt><trkpt lat="45.7136918" lon="12.6885583"><ele>2.0</ele><time>2026-03-29T14:24:58.723Z</time></trkpt><trkpt lat="45.7136215" lon="12.6884643"><ele>2.333333333333333</ele><time>2026-03-29T14:24:59.738Z</time></trkpt><trkpt lat="45.7135559" lon="12.6883754"><ele>2.6666666666666665</ele><time>2026-03-29T14:25:00.723Z</time></trkpt><trkpt lat="45.7134918" lon="12.6882936"><ele>3.0</ele><time>2026-03-29T14:25:01.731Z</time></trkpt><trkpt lat="45.7134274" lon="12.6882181"><ele>3.333333333333333</ele><time>2026-03-29T14:25:02.733Z</time></trkpt><trkpt lat="45.7133666" lon="12.6881404"><ele>3.6666666666666665</ele><time>2026-03-29T14:25:03.725Z</time></trkpt><trkpt lat="45.7133078" lon="12.6880689"><ele>4.0</ele><time>2026-03-29T14:25:04.729Z</time></trkpt><trkpt lat="45.7132553" lon="12.688"><ele>4.0</ele><time>2026-03-29T14:25:05.73Z</time></trkpt><trkpt lat="45.7132073" lon="12.6879369"><ele>4.0</ele><time>2026-03-29T14:25:06.733Z</time></trkpt><trkpt lat="45.7131215" lon="12.687826"><ele>4.0</ele><time>2026-03-29T14:25:08.732Z</time></trkpt><trkpt lat="45.7130589" lon="12.6877428"><ele>4.0</ele><time>2026-03-29T14:25:10.736Z</time></trkpt><trkpt lat="45.7129145" lon="12.6875811"><ele>4.0</ele><time>2026-03-29T14:25:19.729Z</time></trkpt><trkpt lat="45.7128488" lon="12.6874874"><ele>3.9999999999999996</ele><time>2026-03-29T14:25:21.72Z</time></trkpt><trkpt lat="45.7127657" lon="12.6873842"><ele>4.0</ele><time>2026-03-29T14:25:23.734Z</time></trkpt><trkpt lat="45.7127181" lon="12.6873245"><ele>4.0</ele><time>2026-03-29T14:25:24.734Z</time></trkpt><trkpt lat="45.7126676" lon="12.6872606"><ele>4.0</ele><time>2026-03-29T14:25:25.73Z</time></trkpt><trkpt lat="45.7126111" lon="12.6871975"><ele>3.9999999999999996</ele><time>2026-03-29T14:25:26.742Z</time></trkpt><trkpt lat="45.7125533" lon="12.6871214"><ele>4.0</ele><time>2026-03-29T14:25:27.73Z</time></trkpt><trkpt lat="45.7124842" lon="12.6870419"><ele>3.6</ele><time>2026-03-29T14:25:28.736Z</time></trkpt><trkpt lat="45.7124119" lon="12.6869442"><ele>3.2</ele><time>2026-03-29T14:25:29.729Z</time></trkpt><trkpt lat="45.7123359" lon="12.6868422"><ele>2.8000000000000003</ele><time>2026-03-29T14:25:30.734Z</time></trkpt><trkpt lat="45.7122564" lon="12.6867365"><ele>2.4000000000000004</ele><time>2026-03-29T14:25:31.721Z</time></trkpt><trkpt lat="45.7121711" lon="12.6866256"><ele>2.0</ele><time>2026-03-29T14:25:32.741Z</time></trkpt><trkpt lat="45.7120798" lon="12.6865087"><ele>2.0</ele><time>2026-03-29T14:25:33.746Z</time></trkpt><trkpt lat="45.7119803" lon="12.6863841"><ele>2.0</ele><time>2026-03-29T14:25:34.729Z</time></trkpt><trkpt lat="45.7118733" lon="12.6862519"><ele>2.0</ele><time>2026-03-29T14:25:35.729Z</time></trkpt><trkpt lat="45.7117623" lon="12.6861098"><ele>2.0</ele><time>2026-03-29T14:25:36.732Z</time></trkpt><trkpt lat="45.7116469" lon="12.6859652"><ele>2.0</ele><time>2026-03-29T14:25:37.726Z</time></trkpt><trkpt lat="45.7115302" lon="12.6858184"><ele>2.0</ele><time>2026-03-29T14:25:38.74Z</time></trkpt><trkpt lat="45.7114112" lon="12.6856673"><ele>2.0</ele><time>2026-03-29T14:25:39.718Z</time></trkpt><trkpt lat="45.7112895" lon="12.6855133"><ele>2.0</ele><time>2026-03-29T14:25:40.734Z</time></trkpt><trkpt lat="45.7111681" lon="12.6853573"><ele>2.0</ele><time>2026-03-29T14:25:41.724Z</time></trkpt><trkpt lat="45.7110434" lon="12.6852024"><ele>2.0</ele><time>2026-03-29T14:25:42.742Z</time></trkpt><trkpt lat="45.7109177" lon="12.6850441"><ele>2.333333333333333</ele><time>2026-03-29T14:25:43.726Z</time></trkpt><trkpt lat="45.7107924" lon="12.6848843"><ele>2.6666666666666665</ele><time>2026-03-29T14:25:44.718Z</time></trkpt><trkpt lat="45.7106651" lon="12.6847223"><ele>3.0</ele><time>2026-03-29T14:25:45.734Z</time></trkpt><trkpt lat="45.7105328" lon="12.6845595"><ele>3.0</ele><time>2026-03-29T14:25:46.731Z</time></trkpt><trkpt lat="45.7103978" lon="12.6843896"><ele>3.0</ele><time>2026-03-29T14:25:47.746Z</time></trkpt><trkpt lat="45.7102581" lon="12.6842188"><ele>3.0</ele><time>2026-03-29T14:25:48.739Z</time></trkpt><trkpt lat="45.7101182" lon="12.6840434"><ele>3.0</ele><time>2026-03-29T14:25:49.727Z</time></trkpt><trkpt lat="45.7099754" lon="12.6838676"><ele>3.0</ele><time>2026-03-29T14:25:50.728Z</time></trkpt><trkpt lat="45.7098321" lon="12.6836857"><ele>3.0</ele><time>2026-03-29T14:25:51.731Z</time></trkpt><trkpt lat="45.7096824" lon="12.6835105"><ele>2.0</ele><time>2026-03-29T14:25:52.728Z</time></trkpt><trkpt lat="45.7095337" lon="12.6833285"><ele>1.0</ele><time>2026-03-29T14:25:53.724Z</time></trkpt><trkpt lat="45.7093837" lon="12.6831446"><ele>0.0</ele><time>2026-03-29T14:25:54.721Z</time></trkpt><trkpt lat="45.7092318" lon="12.6829611"><ele>0.0</ele><time>2026-03-29T14:25:55.733Z</time></trkpt><trkpt lat="45.7090822" lon="12.6827714"><ele>0.0</ele><time>2026-03-29T14:25:56.733Z</time></trkpt><trkpt lat="45.7089295" lon="12.6825921"><ele>0.0</ele><time>2026-03-29T14:25:57.733Z</time></trkpt><trkpt lat="45.7087838" lon="12.6824059"><ele>0.0</ele><time>2026-03-29T14:25:58.749Z</time></trkpt><trkpt lat="45.7086361" lon="12.6822251"><ele>0.0</ele><time>2026-03-29T14:25:59.734Z</time></trkpt><trkpt lat="45.7084892" lon="12.682045"><ele>0.0</ele><time>2026-03-29T14:26:00.734Z</time></trkpt><trkpt lat="45.7083431" lon="12.6818653"><ele>-0.6666666666666666</ele><time>2026-03-29T14:26:01.737Z</time></trkpt><trkpt lat="45.7082011" lon="12.68168"><ele>-1.3333333333333333</ele><time>2026-03-29T14:26:02.724Z</time></trkpt><trkpt lat="45.708058" lon="12.6814987"><ele>-2.0</ele><time>2026-03-29T14:26:03.742Z</time></trkpt><trkpt lat="45.7079145" lon="12.6813198"><ele>-2.0</ele><time>2026-03-29T14:26:04.772Z</time></trkpt><trkpt lat="45.7077699" lon="12.6811404"><ele>-2.0</ele><time>2026-03-29T14:26:05.726Z</time></trkpt><trkpt lat="45.7076211" lon="12.6809606"><ele>-2.0</ele><time>2026-03-29T14:26:06.741Z</time></trkpt><trkpt lat="45.7074731" lon="12.6807729"><ele>-1.3333333333333333</ele><time>2026-03-29T14:26:07.73Z</time></trkpt><trkpt lat="45.707326" lon="12.6805862"><ele>-0.6666666666666666</ele><time>2026-03-29T14:26:08.721Z</time></trkpt><trkpt lat="45.7071793" lon="12.6804036"><ele>0.0</ele><time>2026-03-29T14:26:09.725Z</time></trkpt><trkpt lat="45.7070329" lon="12.6802229"><ele>-0.6666666666666666</ele><time>2026-03-29T14:26:10.729Z</time></trkpt><trkpt lat="45.7068898" lon="12.6800415"><ele>-1.3333333333333333</ele><time>2026-03-29T14:26:11.727Z</time></trkpt><trkpt lat="45.7067472" lon="12.6798645"><ele>-2.0</ele><time>2026-03-29T14:26:12.743Z</time></trkpt><trkpt lat="45.7066074" lon="12.679688"><ele>-2.0</ele><time>2026-03-29T14:26:13.731Z</time></trkpt><trkpt lat="45.7064674" lon="12.6795133"><ele>-2.0</ele><time>2026-03-29T14:26:14.74Z</time></trkpt><trkpt lat="45.7063286" lon="12.6793351"><ele>-2.0</ele><time>2026-03-29T14:26:15.715Z</time></trkpt><trkpt lat="45.7061869" lon="12.6791574"><ele>-1.6666666666666665</ele><time>2026-03-29T14:26:16.737Z</time></trkpt><trkpt lat="45.7060436" lon="12.6789762"><ele>-1.3333333333333333</ele><time>2026-03-29T14:26:17.75Z</time></trkpt><trkpt lat="45.7058999" lon="12.6787963"><ele>-1.0</ele><time>2026-03-29T14:26:18.736Z</time></trkpt><trkpt lat="45.7057582" lon="12.6786167"><ele>-0.3333333333333333</ele><time>2026-03-29T14:26:19.734Z</time></trkpt><trkpt lat="45.7056164" lon="12.6784373"><ele>0.3333333333333333</ele><time>2026-03-29T14:26:20.719Z</time></trkpt><trkpt lat="45.7054756" lon="12.6782561"><ele>1.0</ele><time>2026-03-29T14:26:21.733Z</time></trkpt><trkpt lat="45.7053335" lon="12.6780756"><ele>0.3333333333333333</ele><time>2026-03-29T14:26:22.712Z</time></trkpt><trkpt lat="45.7051891" lon="12.6778965"><ele>-0.3333333333333333</ele><time>2026-03-29T14:26:23.711Z</time></trkpt><trkpt lat="45.7050436" lon="12.6777181"><ele>-1.0</ele><time>2026-03-29T14:26:24.731Z</time></trkpt><trkpt lat="45.7049018" lon="12.6775384"><ele>-1.0</ele><time>2026-03-29T14:26:25.735Z</time></trkpt><trkpt lat="45.704763" lon="12.6773607"><ele>-1.0</ele><time>2026-03-29T14:26:26.743Z</time></trkpt><trkpt lat="45.7046272" lon="12.6771862"><ele>-1.0</ele><time>2026-03-29T14:26:27.721Z</time></trkpt><trkpt lat="45.7044903" lon="12.6770194"><ele>-1.3333333333333333</ele><time>2026-03-29T14:26:28.739Z</time></trkpt><trkpt lat="45.7043564" lon="12.6768477"><ele>-1.6666666666666665</ele><time>2026-03-29T14:26:29.735Z</time></trkpt><trkpt lat="45.70422" lon="12.6766799"><ele>-2.0</ele><time>2026-03-29T14:26:30.744Z</time></trkpt><trkpt lat="45.7040829" lon="12.6765126"><ele>-2.0</ele><time>2026-03-29T14:26:31.714Z</time></trkpt><trkpt lat="45.7039446" lon="12.6763446"><ele>-2.0</ele><time>2026-03-29T14:26:32.728Z</time></trkpt><trkpt lat="45.7038053" lon="12.6761768"><ele>-2.0</ele><time>2026-03-29T14:26:33.726Z</time></trkpt><trkpt lat="45.7036678" lon="12.6760084"><ele>-1.3333333333333333</ele><time>2026-03-29T14:26:34.737Z</time></trkpt><trkpt lat="45.7035282" lon="12.6758435"><ele>-0.6666666666666666</ele><time>2026-03-29T14:26:35.741Z</time></trkpt><trkpt lat="45.7033851" lon="12.6756824"><ele>0.0</ele><time>2026-03-29T14:26:36.73Z</time></trkpt><trkpt lat="45.7032381" lon="12.6755253"><ele>0.0</ele><time>2026-03-29T14:26:37.741Z</time></trkpt><trkpt lat="45.7030881" lon="12.6753704"><ele>0.0</ele><time>2026-03-29T14:26:38.725Z</time></trkpt><trkpt lat="45.7029366" lon="12.6752177"><ele>0.0</ele><time>2026-03-29T14:26:39.738Z</time></trkpt><trkpt lat="45.7027832" lon="12.6750668"><ele>0.3333333333333333</ele><time>2026-03-29T14:26:40.726Z</time></trkpt><trkpt lat="45.7026274" lon="12.6749208"><ele>0.6666666666666666</ele><time>2026-03-29T14:26:41.723Z</time></trkpt><trkpt lat="45.7024706" lon="12.6747795"><ele>1.0</ele><time>2026-03-29T14:26:42.737Z</time></trkpt><trkpt lat="45.7023154" lon="12.6746435"><ele>1.0</ele><time>2026-03-29T14:26:43.72Z</time></trkpt><trkpt lat="45.7021594" lon="12.6745165"><ele>1.0</ele><time>2026-03-29T14:26:44.725Z</time></trkpt><trkpt lat="45.7020037" lon="12.6743896"><ele>1.0</ele><time>2026-03-29T14:26:45.718Z</time></trkpt><trkpt lat="45.7018429" lon="12.6742664"><ele>0.6666666666666666</ele><time>2026-03-29T14:26:46.735Z</time></trkpt><trkpt lat="45.7016752" lon="12.6741421"><ele>0.3333333333333333</ele><time>2026-03-29T14:26:47.722Z</time></trkpt><trkpt lat="45.7014971" lon="12.6740135"><ele>0.0</ele><time>2026-03-29T14:26:48.731Z</time></trkpt><trkpt lat="45.7013052" lon="12.6738782"><ele>0.0</ele><time>2026-03-29T14:26:49.747Z</time></trkpt><trkpt lat="45.7010867" lon="12.6737279"><ele>0.0</ele><time>2026-03-29T14:26:50.727Z</time></trkpt><trkpt lat="45.7008336" lon="12.6735566"><ele>1.0</ele><time>2026-03-29T14:26:51.742Z</time></trkpt><trkpt lat="45.7005719" lon="12.6733585"><ele>2.0</ele><time>2026-03-29T14:26:52.739Z</time></trkpt><trkpt lat="45.7003252" lon="12.6731434"><ele>1.5</ele><time>2026-03-29T14:26:53.733Z</time></trkpt><trkpt lat="45.700087" lon="12.6729456"><ele>1.0</ele><time>2026-03-29T14:26:54.734Z</time></trkpt><trkpt lat="45.6998552" lon="12.6727643"><ele>1.0</ele><time>2026-03-29T14:26:55.729Z</time></trkpt><trkpt lat="45.6996299" lon="12.6725923"><ele>1.0</ele><time>2026-03-29T14:26:56.718Z</time></trkpt><trkpt lat="45.6994075" lon="12.6724275"><ele>1.0</ele><time>2026-03-29T14:26:57.723Z</time></trkpt><trkpt lat="45.6991887" lon="12.6722624"><ele>1.0</ele><time>2026-03-29T14:26:58.72Z</time></trkpt><trkpt lat="45.6989708" lon="12.6720983"><ele>1.0</ele><time>2026-03-29T14:26:59.735Z</time></trkpt><trkpt lat="45.6987534" lon="12.6719403"><ele>1.0</ele><time>2026-03-29T14:27:00.739Z</time></trkpt><trkpt lat="45.6985371" lon="12.6717873"><ele>1.0</ele><time>2026-03-29T14:27:01.741Z</time></trkpt><trkpt lat="45.6983206" lon="12.6716464"><ele>1.0</ele><time>2026-03-29T14:27:02.712Z</time></trkpt><trkpt lat="45.698099" lon="12.6715275"><ele>1.0</ele><time>2026-03-29T14:27:03.729Z</time></trkpt><trkpt lat="45.6978783" lon="12.6714167"><ele>1.0</ele><time>2026-03-29T14:27:04.71Z</time></trkpt><trkpt lat="45.6976601" lon="12.6713118"><ele>0.0</ele><time>2026-03-29T14:27:05.734Z</time></trkpt><trkpt lat="45.6974436" lon="12.6712152"><ele>-1.0</ele><time>2026-03-29T14:27:06.724Z</time></trkpt><trkpt lat="45.6972291" lon="12.671123"><ele>-0.6666666666666666</ele><time>2026-03-29T14:27:07.739Z</time></trkpt><trkpt lat="45.6970144" lon="12.6710329"><ele>-0.3333333333333333</ele><time>2026-03-29T14:27:08.728Z</time></trkpt><trkpt lat="45.6967982" lon="12.6709485"><ele>0.0</ele><time>2026-03-29T14:27:09.734Z</time></trkpt><trkpt lat="45.6965834" lon="12.6708695"><ele>0.6666666666666666</ele><time>2026-03-29T14:27:10.753Z</time></trkpt><trkpt lat="45.69637" lon="12.6707943"><ele>1.3333333333333333</ele><time>2026-03-29T14:27:11.728Z</time></trkpt><trkpt lat="45.6961591" lon="12.6707239"><ele>2.0</ele><time>2026-03-29T14:27:12.742Z</time></trkpt><trkpt lat="45.6959445" lon="12.6706855"><ele>2.0</ele><time>2026-03-29T14:27:13.734Z</time></trkpt><trkpt lat="45.6957266" lon="12.6706696"><ele>2.0</ele><time>2026-03-29T14:27:14.722Z</time></trkpt><trkpt lat="45.6955078" lon="12.6706548"><ele>2.0</ele><time>2026-03-29T14:27:15.741Z</time></trkpt><trkpt lat="45.6952907" lon="12.6706335"><ele>2.0</ele><time>2026-03-29T14:27:16.722Z</time></trkpt><trkpt lat="45.6950756" lon="12.6706005"><ele>2.0</ele><time>2026-03-29T14:27:17.733Z</time></trkpt><trkpt lat="45.6948604" lon="12.6705531"><ele>2.0</ele><time>2026-03-29T14:27:18.727Z</time></trkpt><trkpt lat="45.6946436" lon="12.6704797"><ele>2.0</ele><time>2026-03-29T14:27:19.753Z</time></trkpt><trkpt lat="45.6944236" lon="12.6703764"><ele>2.0</ele><time>2026-03-29T14:27:20.747Z</time></trkpt><trkpt lat="45.6941974" lon="12.6702556"><ele>1.0</ele><time>2026-03-29T14:27:21.74Z</time></trkpt><trkpt lat="45.693964" lon="12.6701287"><ele>0.0</ele><time>2026-03-29T14:27:22.739Z</time></trkpt><trkpt lat="45.6937239" lon="12.6700001"><ele>1.0</ele><time>2026-03-29T14:27:23.731Z</time></trkpt><trkpt lat="45.6934784" lon="12.6698736"><ele>2.0</ele><time>2026-03-29T14:27:24.744Z</time></trkpt><trkpt lat="45.693233" lon="12.6697392"><ele>2.0</ele><time>2026-03-29T14:27:25.74Z</time></trkpt><trkpt lat="45.6929891" lon="12.669601"><ele>2.0</ele><time>2026-03-29T14:27:26.732Z</time></trkpt><trkpt lat="45.6927459" lon="12.6694681"><ele>1.5</ele><time>2026-03-29T14:27:27.744Z</time></trkpt><trkpt lat="45.6925055" lon="12.6693378"><ele>1.0</ele><time>2026-03-29T14:27:28.728Z</time></trkpt><trkpt lat="45.6922692" lon="12.6692091"><ele>1.0</ele><time>2026-03-29T14:27:29.753Z</time></trkpt><trkpt lat="45.6920385" lon="12.6690811"><ele>1.0</ele><time>2026-03-29T14:27:30.734Z</time></trkpt><trkpt lat="45.6918121" lon="12.6689501"><ele>0.5</ele><time>2026-03-29T14:27:31.727Z</time></trkpt><trkpt lat="45.6915901" lon="12.668823"><ele>0.0</ele><time>2026-03-29T14:27:32.743Z</time></trkpt><trkpt lat="45.6913703" lon="12.6686959"><ele>-0.5</ele><time>2026-03-29T14:27:33.735Z</time></trkpt><trkpt lat="45.6911479" lon="12.6685739"><ele>-1.0</ele><time>2026-03-29T14:27:34.737Z</time></trkpt><trkpt lat="45.6909245" lon="12.6684473"><ele>-1.0</ele><time>2026-03-29T14:27:35.726Z</time></trkpt><trkpt lat="45.6906982" lon="12.6683206"><ele>-1.0</ele><time>2026-03-29T14:27:36.727Z</time></trkpt><trkpt lat="45.6904691" lon="12.668195"><ele>1.0</ele><time>2026-03-29T14:27:37.718Z</time></trkpt><trkpt lat="45.6902405" lon="12.6680659"><ele>3.0</ele><time>2026-03-29T14:27:38.72Z</time></trkpt><trkpt lat="45.6900148" lon="12.6679335"><ele>3.0</ele><time>2026-03-29T14:27:39.721Z</time></trkpt><trkpt lat="45.6897906" lon="12.6678026"><ele>3.0</ele><time>2026-03-29T14:27:40.726Z</time></trkpt><trkpt lat="45.6895668" lon="12.6676729"><ele>2.0</ele><time>2026-03-29T14:27:41.731Z</time></trkpt><trkpt lat="45.6893411" lon="12.6675508"><ele>1.0</ele><time>2026-03-29T14:27:42.729Z</time></trkpt><trkpt lat="45.6891167" lon="12.6674221"><ele>1.0</ele><time>2026-03-29T14:27:43.72Z</time></trkpt><trkpt lat="45.6888925" lon="12.6672945"><ele>1.0</ele><time>2026-03-29T14:27:44.74Z</time></trkpt><trkpt lat="45.6886672" lon="12.6671713"><ele>1.0</ele><time>2026-03-29T14:27:45.731Z</time></trkpt><trkpt lat="45.6884442" lon="12.6670451"><ele>1.0</ele><time>2026-03-29T14:27:46.735Z</time></trkpt><trkpt lat="45.6882223" lon="12.6669197"><ele>0.5</ele><time>2026-03-29T14:27:47.729Z</time></trkpt><trkpt lat="45.688001" lon="12.6667943"><ele>0.0</ele><time>2026-03-29T14:27:48.725Z</time></trkpt><trkpt lat="45.6877792" lon="12.6666686"><ele>0.0</ele><time>2026-03-29T14:27:49.735Z</time></trkpt><trkpt lat="45.6875581" lon="12.6665367"><ele>0.0</ele><time>2026-03-29T14:27:50.747Z</time></trkpt><trkpt lat="45.6873399" lon="12.6663925"><ele>0.0</ele><time>2026-03-29T14:27:51.736Z</time></trkpt><trkpt lat="45.687127" lon="12.6662296"><ele>0.0</ele><time>2026-03-29T14:27:52.725Z</time></trkpt><trkpt lat="45.6869216" lon="12.6660436"><ele>0.0</ele><time>2026-03-29T14:27:53.73Z</time></trkpt><trkpt lat="45.6867195" lon="12.6658506"><ele>0.0</ele><time>2026-03-29T14:27:54.733Z</time></trkpt><trkpt lat="45.6865307" lon="12.665628"><ele>0.0</ele><time>2026-03-29T14:27:55.725Z</time></trkpt><trkpt lat="45.6863537" lon="12.6653864"><ele>0.0</ele><time>2026-03-29T14:27:56.724Z</time></trkpt><trkpt lat="45.6861917" lon="12.6651238"><ele>0.5</ele><time>2026-03-29T14:27:57.732Z</time></trkpt><trkpt lat="45.6860476" lon="12.664843"><ele>1.0</ele><time>2026-03-29T14:27:58.74Z</time></trkpt><trkpt lat="45.6859239" lon="12.6645469"><ele>1.0</ele><time>2026-03-29T14:27:59.721Z</time></trkpt><trkpt lat="45.6858166" lon="12.6642388"><ele>1.0</ele><time>2026-03-29T14:28:00.743Z</time></trkpt><trkpt lat="45.6857324" lon="12.6639164"><ele>1.0</ele><time>2026-03-29T14:28:01.731Z</time></trkpt><trkpt lat="45.6856599" lon="12.6635883"><ele>1.0</ele><time>2026-03-29T14:28:02.719Z</time></trkpt><trkpt lat="45.6855956" lon="12.6632601"><ele>1.0</ele><time>2026-03-29T14:28:03.718Z</time></trkpt><trkpt lat="45.6855565" lon="12.6629237"><ele>1.0</ele><time>2026-03-29T14:28:04.723Z</time></trkpt><trkpt lat="45.6855199" lon="12.6625867"><ele>1.0</ele><time>2026-03-29T14:28:05.743Z</time></trkpt><trkpt lat="45.6854858" lon="12.6622506"><ele>1.0</ele><time>2026-03-29T14:28:06.72Z</time></trkpt><trkpt lat="45.6854538" lon="12.6619177"><ele>1.0</ele><time>2026-03-29T14:28:07.73Z</time></trkpt><trkpt lat="45.6854152" lon="12.6615904"><ele>1.0</ele><time>2026-03-29T14:28:08.734Z</time></trkpt><trkpt lat="45.6853937" lon="12.6612641"><ele>-0.5</ele><time>2026-03-29T14:28:09.722Z</time></trkpt><trkpt lat="45.6853604" lon="12.6609415"><ele>-2.0</ele><time>2026-03-29T14:28:10.74Z</time></trkpt><trkpt lat="45.6853249" lon="12.6606207"><ele>-2.0</ele><time>2026-03-29T14:28:11.734Z</time></trkpt><trkpt lat="45.6852969" lon="12.6602998"><ele>-2.0</ele><time>2026-03-29T14:28:12.709Z</time></trkpt><trkpt lat="45.6852797" lon="12.6599821"><ele>-2.0</ele><time>2026-03-29T14:28:13.716Z</time></trkpt><trkpt lat="45.6852587" lon="12.6596648"><ele>-1.5</ele><time>2026-03-29T14:28:14.728Z</time></trkpt><trkpt lat="45.6852618" lon="12.6593448"><ele>-1.0</ele><time>2026-03-29T14:28:15.723Z</time></trkpt><trkpt lat="45.6852959" lon="12.6590242"><ele>-1.0</ele><time>2026-03-29T14:28:16.724Z</time></trkpt><trkpt lat="45.685314" lon="12.6586997"><ele>-1.0</ele><time>2026-03-29T14:28:17.723Z</time></trkpt><trkpt lat="45.6853421" lon="12.6583753"><ele>0.0</ele><time>2026-03-29T14:28:18.729Z</time></trkpt><trkpt lat="45.6853689" lon="12.6580504"><ele>1.0</ele><time>2026-03-29T14:28:19.729Z</time></trkpt><trkpt lat="45.6853956" lon="12.6577261"><ele>1.0</ele><time>2026-03-29T14:28:20.721Z</time></trkpt><trkpt lat="45.6854198" lon="12.6574022"><ele>1.0</ele><time>2026-03-29T14:28:21.723Z</time></trkpt><trkpt lat="45.6854396" lon="12.6570776"><ele>1.0</ele><time>2026-03-29T14:28:22.73Z</time></trkpt><trkpt lat="45.6854577" lon="12.6567522"><ele>1.0</ele><time>2026-03-29T14:28:23.729Z</time></trkpt><trkpt lat="45.6854844" lon="12.6564284"><ele>1.0</ele><time>2026-03-29T14:28:24.729Z</time></trkpt><trkpt lat="45.6855073" lon="12.6561056"><ele>1.0</ele><time>2026-03-29T14:28:25.738Z</time></trkpt><trkpt lat="45.6855326" lon="12.655786"><ele>1.0</ele><time>2026-03-29T14:28:26.727Z</time></trkpt><trkpt lat="45.6855551" lon="12.655468"><ele>1.0</ele><time>2026-03-29T14:28:27.734Z</time></trkpt><trkpt lat="45.6855785" lon="12.6551526"><ele>1.0</ele><time>2026-03-29T14:28:28.72Z</time></trkpt><trkpt lat="45.6855966" lon="12.6548385"><ele>1.3333333333333333</ele><time>2026-03-29T14:28:29.721Z</time></trkpt><trkpt lat="45.6856179" lon="12.6545264"><ele>1.6666666666666665</ele><time>2026-03-29T14:28:30.716Z</time></trkpt><trkpt lat="45.6856375" lon="12.6542145"><ele>2.0</ele><time>2026-03-29T14:28:31.744Z</time></trkpt><trkpt lat="45.6856573" lon="12.653904"><ele>2.0</ele><time>2026-03-29T14:28:32.719Z</time></trkpt><trkpt lat="45.6856786" lon="12.6535957"><ele>2.0</ele><time>2026-03-29T14:28:33.735Z</time></trkpt><trkpt lat="45.6857008" lon="12.6532895"><ele>2.0</ele><time>2026-03-29T14:28:34.74Z</time></trkpt><trkpt lat="45.6857231" lon="12.6529855"><ele>1.6666666666666665</ele><time>2026-03-29T14:28:35.718Z</time></trkpt><trkpt lat="45.6857422" lon="12.6526823"><ele>1.3333333333333333</ele><time>2026-03-29T14:28:36.723Z</time></trkpt><trkpt lat="45.6857555" lon="12.6523773"><ele>1.0</ele><time>2026-03-29T14:28:37.731Z</time></trkpt><trkpt lat="45.6857592" lon="12.6520698"><ele>0.6666666666666666</ele><time>2026-03-29T14:28:38.73Z</time></trkpt><trkpt lat="45.6857459" lon="12.6517644"><ele>0.3333333333333333</ele><time>2026-03-29T14:28:39.721Z</time></trkpt><trkpt lat="45.6857185" lon="12.6514575"><ele>0.0</ele><time>2026-03-29T14:28:40.719Z</time></trkpt><trkpt lat="45.6856877" lon="12.6511415"><ele>1.0</ele><time>2026-03-29T14:28:41.728Z</time></trkpt><trkpt lat="45.6856555" lon="12.6508199"><ele>2.0</ele><time>2026-03-29T14:28:42.726Z</time></trkpt><trkpt lat="45.6856213" lon="12.6504951"><ele>1.5</ele><time>2026-03-29T14:28:43.73Z</time></trkpt><trkpt lat="45.6855887" lon="12.6501683"><ele>1.0</ele><time>2026-03-29T14:28:44.716Z</time></trkpt><trkpt lat="45.6855597" lon="12.6498393"><ele>1.0</ele><time>2026-03-29T14:28:45.741Z</time></trkpt><trkpt lat="45.6855254" lon="12.6495122"><ele>1.0</ele><time>2026-03-29T14:28:46.719Z</time></trkpt><trkpt lat="45.6854961" lon="12.6491851"><ele>0.3333333333333333</ele><time>2026-03-29T14:28:47.72Z</time></trkpt><trkpt lat="45.6854662" lon="12.6488647"><ele>-0.3333333333333333</ele><time>2026-03-29T14:28:48.737Z</time></trkpt><trkpt lat="45.6854384" lon="12.6485553"><ele>-1.0</ele><time>2026-03-29T14:28:49.741Z</time></trkpt><trkpt lat="45.6854104" lon="12.6482622"><ele>-1.3333333333333333</ele><time>2026-03-29T14:28:50.733Z</time></trkpt><trkpt lat="45.6853842" lon="12.647988"><ele>-1.6666666666666665</ele><time>2026-03-29T14:28:51.728Z</time></trkpt><trkpt lat="45.6853592" lon="12.6477316"><ele>-2.0</ele><time>2026-03-29T14:28:52.731Z</time></trkpt><trkpt lat="45.6853371" lon="12.6474905"><ele>-1.5</ele><time>2026-03-29T14:28:53.728Z</time></trkpt><trkpt lat="45.6853145" lon="12.6472695"><ele>-1.0</ele><time>2026-03-29T14:28:54.731Z</time></trkpt><trkpt lat="45.6852942" lon="12.6470659"><ele>-0.5</ele><time>2026-03-29T14:28:55.751Z</time></trkpt><trkpt lat="45.6852765" lon="12.6468787"><ele>0.0</ele><time>2026-03-29T14:28:56.741Z</time></trkpt><trkpt lat="45.6852592" lon="12.6467103"><ele>0.4</ele><time>2026-03-29T14:28:57.736Z</time></trkpt><trkpt lat="45.6852466" lon="12.6465548"><ele>0.8</ele><time>2026-03-29T14:28:58.753Z</time></trkpt><trkpt lat="45.6852476" lon="12.6464099"><ele>1.2000000000000002</ele><time>2026-03-29T14:28:59.729Z</time></trkpt><trkpt lat="45.6852642" lon="12.6462798"><ele>1.6</ele><time>2026-03-29T14:29:00.736Z</time></trkpt><trkpt lat="45.6852956" lon="12.6461551"><ele>2.0</ele><time>2026-03-29T14:29:01.736Z</time></trkpt><trkpt lat="45.6853078" lon="12.6460257"><ele>2.0</ele><time>2026-03-29T14:29:02.727Z</time></trkpt><trkpt lat="45.6852734" lon="12.6458926"><ele>2.0</ele><time>2026-03-29T14:29:03.727Z</time></trkpt><trkpt lat="45.6852071" lon="12.6457645"><ele>2.0</ele><time>2026-03-29T14:29:04.736Z</time></trkpt><trkpt lat="45.6851566" lon="12.6455935"><ele>2.0</ele><time>2026-03-29T14:29:05.726Z</time></trkpt><trkpt lat="45.6851339" lon="12.6453751"><ele>2.333333333333333</ele><time>2026-03-29T14:29:06.714Z</time></trkpt><trkpt lat="45.6850969" lon="12.6451549"><ele>2.6666666666666665</ele><time>2026-03-29T14:29:07.74Z</time></trkpt><trkpt lat="45.6850789" lon="12.6449205"><ele>3.0</ele><time>2026-03-29T14:29:08.734Z</time></trkpt><trkpt lat="45.6850537" lon="12.6446757"><ele>2.6666666666666665</ele><time>2026-03-29T14:29:09.752Z</time></trkpt><trkpt lat="45.6850328" lon="12.6444128"><ele>2.333333333333333</ele><time>2026-03-29T14:29:10.729Z</time></trkpt><trkpt lat="45.6850051" lon="12.6441367"><ele>2.0</ele><time>2026-03-29T14:29:11.716Z</time></trkpt><trkpt lat="45.6849761" lon="12.6438461"><ele>2.333333333333333</ele><time>2026-03-29T14:29:12.737Z</time></trkpt><trkpt lat="45.684944" lon="12.643549"><ele>2.6666666666666665</ele><time>2026-03-29T14:29:13.716Z</time></trkpt><trkpt lat="45.6849132" lon="12.6432476"><ele>3.0</ele><time>2026-03-29T14:29:14.714Z</time></trkpt><trkpt lat="45.6848867" lon="12.6429409"><ele>2.6666666666666665</ele><time>2026-03-29T14:29:15.742Z</time></trkpt><trkpt lat="45.6848555" lon="12.6426373"><ele>2.333333333333333</ele><time>2026-03-29T14:29:16.714Z</time></trkpt><trkpt lat="45.6848255" lon="12.6423354"><ele>2.0</ele><time>2026-03-29T14:29:17.735Z</time></trkpt><trkpt lat="45.6847951" lon="12.6420371"><ele>1.6666666666666665</ele><time>2026-03-29T14:29:18.712Z</time></trkpt><trkpt lat="45.6847646" lon="12.6417429"><ele>1.3333333333333333</ele><time>2026-03-29T14:29:19.728Z</time></trkpt><trkpt lat="45.6847349" lon="12.6414536"><ele>1.0</ele><time>2026-03-29T14:29:20.733Z</time></trkpt><trkpt lat="45.6847096" lon="12.6411709"><ele>0.6666666666666666</ele><time>2026-03-29T14:29:21.729Z</time></trkpt><trkpt lat="45.684686" lon="12.6408933"><ele>0.3333333333333333</ele><time>2026-03-29T14:29:22.727Z</time></trkpt><trkpt lat="45.6846611" lon="12.6406182"><ele>0.0</ele><time>2026-03-29T14:29:23.726Z</time></trkpt><trkpt lat="45.6846292" lon="12.6403476"><ele>0.3333333333333333</ele><time>2026-03-29T14:29:24.728Z</time></trkpt><trkpt lat="45.6846067" lon="12.6400772"><ele>0.6666666666666666</ele><time>2026-03-29T14:29:25.732Z</time></trkpt><trkpt lat="45.6845836" lon="12.6398097"><ele>1.0</ele><time>2026-03-29T14:29:26.715Z</time></trkpt><trkpt lat="45.6845462" lon="12.6395511"><ele>1.0</ele><time>2026-03-29T14:29:27.734Z</time></trkpt><trkpt lat="45.6845093" lon="12.6393044"><ele>1.0</ele><time>2026-03-29T14:29:28.718Z</time></trkpt><trkpt lat="45.6844597" lon="12.6390731"><ele>1.0</ele><time>2026-03-29T14:29:29.715Z</time></trkpt><trkpt lat="45.6844092" lon="12.6388541"><ele>1.25</ele><time>2026-03-29T14:29:30.726Z</time></trkpt><trkpt lat="45.684361" lon="12.6386533"><ele>1.5</ele><time>2026-03-29T14:29:31.728Z</time></trkpt><trkpt lat="45.6843141" lon="12.6384713"><ele>1.75</ele><time>2026-03-29T14:29:32.736Z</time></trkpt><trkpt lat="45.6842689" lon="12.6383092"><ele>2.0</ele><time>2026-03-29T14:29:33.752Z</time></trkpt><trkpt lat="45.6842298" lon="12.6381657"><ele>1.9999999999999998</ele><time>2026-03-29T14:29:34.724Z</time></trkpt><trkpt lat="45.6841932" lon="12.6380397"><ele>2.0</ele><time>2026-03-29T14:29:35.728Z</time></trkpt><trkpt lat="45.6841596" lon="12.637928"><ele>2.0</ele><time>2026-03-29T14:29:36.729Z</time></trkpt><trkpt lat="45.6841309" lon="12.637833"><ele>2.0</ele><time>2026-03-29T14:29:37.723Z</time></trkpt><trkpt lat="45.684087" lon="12.6376977"><ele>1.9999999999999998</ele><time>2026-03-29T14:29:39.721Z</time></trkpt><trkpt lat="45.6840478" lon="12.63758"><ele>2.0</ele><time>2026-03-29T14:29:41.725Z</time></trkpt><trkpt lat="45.6839938" lon="12.6373965"><ele>2.0</ele><time>2026-03-29T14:29:43.72Z</time></trkpt><trkpt lat="45.6839532" lon="12.6372798"><ele>2.0</ele><time>2026-03-29T14:29:44.73Z</time></trkpt><trkpt lat="45.6839129" lon="12.6371562"><ele>2.0</ele><time>2026-03-29T14:29:45.733Z</time></trkpt><trkpt lat="45.6838721" lon="12.6370281"><ele>2.0</ele><time>2026-03-29T14:29:46.737Z</time></trkpt><trkpt lat="45.6838314" lon="12.6368873"><ele>2.0</ele><time>2026-03-29T14:29:47.758Z</time></trkpt><trkpt lat="45.6837849" lon="12.6367357"><ele>2.0</ele><time>2026-03-29T14:29:48.73Z</time></trkpt><trkpt lat="45.6837366" lon="12.636578"><ele>2.0</ele><time>2026-03-29T14:29:49.744Z</time></trkpt><trkpt lat="45.6836864" lon="12.6364139"><ele>2.0</ele><time>2026-03-29T14:29:50.726Z</time></trkpt><trkpt lat="45.6836339" lon="12.6362497"><ele>2.0</ele><time>2026-03-29T14:29:51.722Z</time></trkpt><trkpt lat="45.6835857" lon="12.6360819"><ele>2.25</ele><time>2026-03-29T14:29:52.723Z</time></trkpt><trkpt lat="45.6835346" lon="12.6359109"><ele>2.5</ele><time>2026-03-29T14:29:53.709Z</time></trkpt><trkpt lat="45.683481" lon="12.6357337"><ele>2.75</ele><time>2026-03-29T14:29:54.731Z</time></trkpt><trkpt lat="45.6834249" lon="12.6355545"><ele>3.0</ele><time>2026-03-29T14:29:55.755Z</time></trkpt><trkpt lat="45.6833706" lon="12.6353739"><ele>2.75</ele><time>2026-03-29T14:29:56.739Z</time></trkpt><trkpt lat="45.6833159" lon="12.6351907"><ele>2.5</ele><time>2026-03-29T14:29:57.723Z</time></trkpt><trkpt lat="45.68325" lon="12.6350067"><ele>2.25</ele><time>2026-03-29T14:29:58.724Z</time></trkpt><trkpt lat="45.6831732" lon="12.6348311"><ele>2.0</ele><time>2026-03-29T14:29:59.713Z</time></trkpt><trkpt lat="45.6830929" lon="12.6346609"><ele>2.0</ele><time>2026-03-29T14:30:00.74Z</time></trkpt><trkpt lat="45.6830023" lon="12.6345069"><ele>2.0</ele><time>2026-03-29T14:30:01.727Z</time></trkpt><trkpt lat="45.682904" lon="12.6343636"><ele>2.0</ele><time>2026-03-29T14:30:02.715Z</time></trkpt><trkpt lat="45.682801" lon="12.6342256"><ele>2.0</ele><time>2026-03-29T14:30:03.728Z</time></trkpt><trkpt lat="45.6826927" lon="12.634101"><ele>1.5</ele><time>2026-03-29T14:30:04.726Z</time></trkpt><trkpt lat="45.6825839" lon="12.633985"><ele>1.0</ele><time>2026-03-29T14:30:05.727Z</time></trkpt><trkpt lat="45.682475" lon="12.63387"><ele>0.5</ele><time>2026-03-29T14:30:06.735Z</time></trkpt><trkpt lat="45.6823639" lon="12.6337579"><ele>0.0</ele><time>2026-03-29T14:30:07.723Z</time></trkpt><trkpt lat="45.6822525" lon="12.6336453"><ele>0.0</ele><time>2026-03-29T14:30:08.739Z</time></trkpt><trkpt lat="45.6821398" lon="12.6335354"><ele>0.0</ele><time>2026-03-29T14:30:09.733Z</time></trkpt><trkpt lat="45.6820243" lon="12.6334248"><ele>0.0</ele><time>2026-03-29T14:30:10.72Z</time></trkpt><trkpt lat="45.6819055" lon="12.6333127"><ele>0.0</ele><time>2026-03-29T14:30:11.739Z</time></trkpt><trkpt lat="45.6817879" lon="12.6331911"><ele>0.0</ele><time>2026-03-29T14:30:12.714Z</time></trkpt><trkpt lat="45.6816665" lon="12.6330677"><ele>0.0</ele><time>2026-03-29T14:30:13.744Z</time></trkpt><trkpt lat="45.6815401" lon="12.6329442"><ele>0.0</ele><time>2026-03-29T14:30:14.728Z</time></trkpt><trkpt lat="45.6814094" lon="12.6328199"><ele>0.0</ele><time>2026-03-29T14:30:15.712Z</time></trkpt><trkpt lat="45.681274" lon="12.6326942"><ele>0.0</ele><time>2026-03-29T14:30:16.722Z</time></trkpt><trkpt lat="45.6811359" lon="12.6325636"><ele>0.0</ele><time>2026-03-29T14:30:17.716Z</time></trkpt><trkpt lat="45.6809944" lon="12.6324313"><ele>0.0</ele><time>2026-03-29T14:30:18.726Z</time></trkpt><trkpt lat="45.6808552" lon="12.6322893"><ele>0.0</ele><time>2026-03-29T14:30:19.739Z</time></trkpt><trkpt lat="45.6807111" lon="12.6321503"><ele>0.0</ele><time>2026-03-29T14:30:20.731Z</time></trkpt><trkpt lat="45.6805673" lon="12.63201"><ele>-0.3333333333333333</ele><time>2026-03-29T14:30:21.744Z</time></trkpt><trkpt lat="45.6804302" lon="12.6318725"><ele>-0.6666666666666666</ele><time>2026-03-29T14:30:22.724Z</time></trkpt><trkpt lat="45.6802999" lon="12.6317464"><ele>-1.0</ele><time>2026-03-29T14:30:23.718Z</time></trkpt><trkpt lat="45.680178" lon="12.6316306"><ele>-1.25</ele><time>2026-03-29T14:30:24.723Z</time></trkpt><trkpt lat="45.6800674" lon="12.6315193"><ele>-1.5</ele><time>2026-03-29T14:30:25.737Z</time></trkpt><trkpt lat="45.6799647" lon="12.6314179"><ele>-1.75</ele><time>2026-03-29T14:30:26.741Z</time></trkpt><trkpt lat="45.6798675" lon="12.6313229"><ele>-2.0</ele><time>2026-03-29T14:30:27.718Z</time></trkpt><trkpt lat="45.6797752" lon="12.6312294"><ele>-2.0</ele><time>2026-03-29T14:30:28.749Z</time></trkpt><trkpt lat="45.6796845" lon="12.6311389"><ele>-2.0</ele><time>2026-03-29T14:30:29.719Z</time></trkpt><trkpt lat="45.679593" lon="12.6310502"><ele>-2.0</ele><time>2026-03-29T14:30:30.732Z</time></trkpt><trkpt lat="45.6795034" lon="12.6309634"><ele>-2.0</ele><time>2026-03-29T14:30:31.718Z</time></trkpt><trkpt lat="45.6794184" lon="12.6308801"><ele>-2.0</ele><time>2026-03-29T14:30:32.738Z</time></trkpt><trkpt lat="45.6793373" lon="12.6308022"><ele>-2.0</ele><time>2026-03-29T14:30:33.736Z</time></trkpt><trkpt lat="45.6792569" lon="12.6307295"><ele>-2.0</ele><time>2026-03-29T14:30:34.715Z</time></trkpt><trkpt lat="45.6791739" lon="12.6306575"><ele>-2.0</ele><time>2026-03-29T14:30:35.729Z</time></trkpt><trkpt lat="45.6790848" lon="12.630579"><ele>-2.0</ele><time>2026-03-29T14:30:36.739Z</time></trkpt><trkpt lat="45.6789937" lon="12.6304793"><ele>-2.0</ele><time>2026-03-29T14:30:37.713Z</time></trkpt><trkpt lat="45.6789009" lon="12.6303757"><ele>-1.75</ele><time>2026-03-29T14:30:38.733Z</time></trkpt><trkpt lat="45.6788094" lon="12.6302651"><ele>-1.5</ele><time>2026-03-29T14:30:39.735Z</time></trkpt><trkpt lat="45.6787126" lon="12.6301623"><ele>-1.25</ele><time>2026-03-29T14:30:40.737Z</time></trkpt><trkpt lat="45.6786141" lon="12.63006"><ele>-1.0</ele><time>2026-03-29T14:30:41.729Z</time></trkpt><trkpt lat="45.6785176" lon="12.6299583"><ele>-1.0</ele><time>2026-03-29T14:30:42.717Z</time></trkpt><trkpt lat="45.6784218" lon="12.6298668"><ele>-1.0</ele><time>2026-03-29T14:30:43.749Z</time></trkpt><trkpt lat="45.6783327" lon="12.6297751"><ele>-1.0</ele><time>2026-03-29T14:30:44.738Z</time></trkpt><trkpt lat="45.6782461" lon="12.6296902"><ele>-1.0</ele><time>2026-03-29T14:30:45.729Z</time></trkpt><trkpt lat="45.6781648" lon="12.6296054"><ele>-1.0</ele><time>2026-03-29T14:30:46.723Z</time></trkpt><trkpt lat="45.6780844" lon="12.6295274"><ele>-1.0</ele><time>2026-03-29T14:30:47.73Z</time></trkpt><trkpt lat="45.6780053" lon="12.6294466"><ele>-1.0</ele><time>2026-03-29T14:30:48.733Z</time></trkpt><trkpt lat="45.6779203" lon="12.6293634"><ele>-1.0</ele><time>2026-03-29T14:30:49.717Z</time></trkpt><trkpt lat="45.6778301" lon="12.6292734"><ele>-1.0</ele><time>2026-03-29T14:30:50.724Z</time></trkpt><trkpt lat="45.6777376" lon="12.6291796"><ele>-1.0</ele><time>2026-03-29T14:30:51.728Z</time></trkpt><trkpt lat="45.6776378" lon="12.6290897"><ele>-1.0</ele><time>2026-03-29T14:30:52.732Z</time></trkpt><trkpt lat="45.6775353" lon="12.628988"><ele>-1.0</ele><time>2026-03-29T14:30:53.735Z</time></trkpt><trkpt lat="45.6774277" lon="12.6288804"><ele>-1.0</ele><time>2026-03-29T14:30:54.728Z</time></trkpt><trkpt lat="45.6773136" lon="12.6287728"><ele>-1.0</ele><time>2026-03-29T14:30:55.719Z</time></trkpt><trkpt lat="45.6772" lon="12.6286582"><ele>-1.25</ele><time>2026-03-29T14:30:56.731Z</time></trkpt><trkpt lat="45.6770885" lon="12.6285407"><ele>-1.5</ele><time>2026-03-29T14:30:57.731Z</time></trkpt><trkpt lat="45.6769794" lon="12.6284218"><ele>-1.75</ele><time>2026-03-29T14:30:58.718Z</time></trkpt><trkpt lat="45.6768668" lon="12.6283109"><ele>-2.0</ele><time>2026-03-29T14:30:59.731Z</time></trkpt><trkpt lat="45.676759" lon="12.6281978"><ele>-2.25</ele><time>2026-03-29T14:31:00.742Z</time></trkpt><trkpt lat="45.6766535" lon="12.6280931"><ele>-2.5</ele><time>2026-03-29T14:31:01.715Z</time></trkpt><trkpt lat="45.6765553" lon="12.6279933"><ele>-2.75</ele><time>2026-03-29T14:31:02.717Z</time></trkpt><trkpt lat="45.6764618" lon="12.6279023"><ele>-3.0</ele><time>2026-03-29T14:31:03.734Z</time></trkpt><trkpt lat="45.676373" lon="12.6278133"><ele>-2.6</ele><time>2026-03-29T14:31:04.728Z</time></trkpt><trkpt lat="45.6762861" lon="12.6277259"><ele>-2.1999999999999997</ele><time>2026-03-29T14:31:05.739Z</time></trkpt><trkpt lat="45.6761981" lon="12.6276378"><ele>-1.8</ele><time>2026-03-29T14:31:06.731Z</time></trkpt><trkpt lat="45.6761051" lon="12.6275461"><ele>-1.4</ele><time>2026-03-29T14:31:07.708Z</time></trkpt><trkpt lat="45.6760122" lon="12.6274367"><ele>-1.0</ele><time>2026-03-29T14:31:08.728Z</time></trkpt><trkpt lat="45.6759092" lon="12.6273315"><ele>-2.0</ele><time>2026-03-29T14:31:09.724Z</time></trkpt><trkpt lat="45.6757923" lon="12.6272183"><ele>-3.0</ele><time>2026-03-29T14:31:10.719Z</time></trkpt><trkpt lat="45.6756562" lon="12.6270989"><ele>-4.0</ele><time>2026-03-29T14:31:11.708Z</time></trkpt><trkpt lat="45.6754979" lon="12.6269613"><ele>-4.0</ele><time>2026-03-29T14:31:12.739Z</time></trkpt><trkpt lat="45.6753097" lon="12.6267916"><ele>-4.0</ele><time>2026-03-29T14:31:13.717Z</time></trkpt><trkpt lat="45.6750877" lon="12.6265945"><ele>-4.5</ele><time>2026-03-29T14:31:14.724Z</time></trkpt><trkpt lat="45.6748555" lon="12.6263642"><ele>-5.0</ele><time>2026-03-29T14:31:15.712Z</time></trkpt><trkpt lat="45.6746115" lon="12.6261161"><ele>-4.0</ele><time>2026-03-29T14:31:16.718Z</time></trkpt><trkpt lat="45.6743505" lon="12.6258431"><ele>-3.0</ele><time>2026-03-29T14:31:17.721Z</time></trkpt><trkpt lat="45.6740744" lon="12.6255444"><ele>-2.5</ele><time>2026-03-29T14:31:18.73Z</time></trkpt><trkpt lat="45.6737845" lon="12.6252356"><ele>-2.0</ele><time>2026-03-29T14:31:19.742Z</time></trkpt><trkpt lat="45.6734907" lon="12.6249287"><ele>-2.0</ele><time>2026-03-29T14:31:20.721Z</time></trkpt><trkpt lat="45.6732121" lon="12.6246462"><ele>-2.0</ele><time>2026-03-29T14:31:21.731Z</time></trkpt><trkpt lat="45.6729505" lon="12.6243784"><ele>-3.0</ele><time>2026-03-29T14:31:22.724Z</time></trkpt><trkpt lat="45.6726937" lon="12.6241194"><ele>-4.0</ele><time>2026-03-29T14:31:23.723Z</time></trkpt><trkpt lat="45.6724419" lon="12.6238654"><ele>-3.5</ele><time>2026-03-29T14:31:24.732Z</time></trkpt><trkpt lat="45.6721937" lon="12.6236168"><ele>-3.0</ele><time>2026-03-29T14:31:25.731Z</time></trkpt><trkpt lat="45.6719488" lon="12.6233715"><ele>-2.5</ele><time>2026-03-29T14:31:26.72Z</time></trkpt><trkpt lat="45.6717083" lon="12.6231329"><ele>-2.0</ele><time>2026-03-29T14:31:27.727Z</time></trkpt><trkpt lat="45.671477" lon="12.6229056"><ele>-2.0</ele><time>2026-03-29T14:31:28.728Z</time></trkpt><trkpt lat="45.6712572" lon="12.6226879"><ele>-2.0</ele><time>2026-03-29T14:31:29.718Z</time></trkpt><trkpt lat="45.6710463" lon="12.6224758"><ele>-2.0</ele><time>2026-03-29T14:31:30.728Z</time></trkpt><trkpt lat="45.6708441" lon="12.6222794"><ele>-2.0</ele><time>2026-03-29T14:31:31.728Z</time></trkpt><trkpt lat="45.670654" lon="12.6220952"><ele>-2.0</ele><time>2026-03-29T14:31:32.702Z</time></trkpt><trkpt lat="45.6704762" lon="12.6219147"><ele>-2.0</ele><time>2026-03-29T14:31:33.721Z</time></trkpt><trkpt lat="45.6703044" lon="12.6217429"><ele>-2.0</ele><time>2026-03-29T14:31:34.726Z</time></trkpt><trkpt lat="45.6701392" lon="12.6215739"><ele>-2.0</ele><time>2026-03-29T14:31:35.718Z</time></trkpt><trkpt lat="45.6699776" lon="12.6214156"><ele>-2.0</ele><time>2026-03-29T14:31:36.716Z</time></trkpt><trkpt lat="45.6698205" lon="12.621257"><ele>-2.0</ele><time>2026-03-29T14:31:37.724Z</time></trkpt><trkpt lat="45.6696637" lon="12.6211012"><ele>-2.0</ele><time>2026-03-29T14:31:38.711Z</time></trkpt><trkpt lat="45.6695067" lon="12.6209462"><ele>-2.0</ele><time>2026-03-29T14:31:39.714Z</time></trkpt><trkpt lat="45.6693499" lon="12.6207906"><ele>-2.0</ele><time>2026-03-29T14:31:40.734Z</time></trkpt><trkpt lat="45.6691915" lon="12.6206351"><ele>-1.6666666666666665</ele><time>2026-03-29T14:31:41.735Z</time></trkpt><trkpt lat="45.6690341" lon="12.6204762"><ele>-1.3333333333333333</ele><time>2026-03-29T14:31:42.712Z</time></trkpt><trkpt lat="45.6688798" lon="12.6203158"><ele>-1.0</ele><time>2026-03-29T14:31:43.723Z</time></trkpt><trkpt lat="45.6687241" lon="12.620159"><ele>-1.3333333333333333</ele><time>2026-03-29T14:31:44.729Z</time></trkpt><trkpt lat="45.6685575" lon="12.6199972"><ele>-1.6666666666666665</ele><time>2026-03-29T14:31:45.728Z</time></trkpt><trkpt lat="45.6683737" lon="12.6198233"><ele>-2.0</ele><time>2026-03-29T14:31:46.722Z</time></trkpt><trkpt lat="45.6681765" lon="12.6196329"><ele>-2.0</ele><time>2026-03-29T14:31:47.706Z</time></trkpt><trkpt lat="45.667963" lon="12.619425"><ele>-2.0</ele><time>2026-03-29T14:31:48.732Z</time></trkpt><trkpt lat="45.6677292" lon="12.6192036"><ele>-2.5</ele><time>2026-03-29T14:31:49.71Z</time></trkpt><trkpt lat="45.6674828" lon="12.6189597"><ele>-3.0</ele><time>2026-03-29T14:31:50.74Z</time></trkpt><trkpt lat="45.6672336" lon="12.618697"><ele>-2.5</ele><time>2026-03-29T14:31:51.712Z</time></trkpt><trkpt lat="45.6669874" lon="12.6184352"><ele>-2.0</ele><time>2026-03-29T14:31:52.727Z</time></trkpt><trkpt lat="45.6667503" lon="12.6181824"><ele>-2.0</ele><time>2026-03-29T14:31:53.716Z</time></trkpt><trkpt lat="45.6665168" lon="12.6179466"><ele>-2.0</ele><time>2026-03-29T14:31:54.73Z</time></trkpt><trkpt lat="45.6662887" lon="12.6177195"><ele>-3.0</ele><time>2026-03-29T14:31:55.727Z</time></trkpt><trkpt lat="45.6660644" lon="12.6174967"><ele>-4.0</ele><time>2026-03-29T14:31:56.714Z</time></trkpt><trkpt lat="45.6658449" lon="12.6172687"><ele>-4.0</ele><time>2026-03-29T14:31:57.726Z</time></trkpt><trkpt lat="45.6656243" lon="12.6170509"><ele>-4.0</ele><time>2026-03-29T14:31:58.722Z</time></trkpt><trkpt lat="45.6654066" lon="12.6168307"><ele>-3.5</ele><time>2026-03-29T14:31:59.723Z</time></trkpt><trkpt lat="45.6651876" lon="12.616614"><ele>-3.0</ele><time>2026-03-29T14:32:00.706Z</time></trkpt><trkpt lat="45.664971" lon="12.6163945"><ele>-3.0</ele><time>2026-03-29T14:32:01.723Z</time></trkpt><trkpt lat="45.6647488" lon="12.6161801"><ele>-3.0</ele><time>2026-03-29T14:32:02.733Z</time></trkpt><trkpt lat="45.6645268" lon="12.6159553"><ele>-3.0</ele><time>2026-03-29T14:32:03.71Z</time></trkpt><trkpt lat="45.6643041" lon="12.6157279"><ele>-3.0</ele><time>2026-03-29T14:32:04.742Z</time></trkpt><trkpt lat="45.6640797" lon="12.615505"><ele>-3.0</ele><time>2026-03-29T14:32:05.738Z</time></trkpt><trkpt lat="45.663854" lon="12.6152865"><ele>-3.0</ele><time>2026-03-29T14:32:06.755Z</time></trkpt><trkpt lat="45.6636338" lon="12.6150613"><ele>-3.5</ele><time>2026-03-29T14:32:07.731Z</time></trkpt><trkpt lat="45.6634127" lon="12.6148395"><ele>-4.0</ele><time>2026-03-29T14:32:08.731Z</time></trkpt><trkpt lat="45.6631931" lon="12.6146141"><ele>-4.0</ele><time>2026-03-29T14:32:09.727Z</time></trkpt><trkpt lat="45.662972" lon="12.6143946"><ele>-4.0</ele><time>2026-03-29T14:32:10.711Z</time></trkpt><trkpt lat="45.6627508" lon="12.6141816"><ele>-4.0</ele><time>2026-03-29T14:32:11.734Z</time></trkpt><trkpt lat="45.6625347" lon="12.6139603"><ele>-4.0</ele><time>2026-03-29T14:32:12.707Z</time></trkpt><trkpt lat="45.6623145" lon="12.6137474"><ele>-3.5</ele><time>2026-03-29T14:32:13.723Z</time></trkpt><trkpt lat="45.6620946" lon="12.6135302"><ele>-3.0</ele><time>2026-03-29T14:32:14.722Z</time></trkpt><trkpt lat="45.6618747" lon="12.6133111"><ele>-2.5</ele><time>2026-03-29T14:32:15.731Z</time></trkpt><trkpt lat="45.6616545" lon="12.6130916"><ele>-2.0</ele><time>2026-03-29T14:32:16.718Z</time></trkpt><trkpt lat="45.6614346" lon="12.6128707"><ele>-2.5</ele><time>2026-03-29T14:32:17.725Z</time></trkpt><trkpt lat="45.6612147" lon="12.61265"><ele>-3.0</ele><time>2026-03-29T14:32:18.719Z</time></trkpt><trkpt lat="45.6609931" lon="12.6124344"><ele>-3.0</ele><time>2026-03-29T14:32:19.738Z</time></trkpt><trkpt lat="45.6607757" lon="12.6122118"><ele>-3.0</ele><time>2026-03-29T14:32:20.722Z</time></trkpt><trkpt lat="45.6605544" lon="12.6120041"><ele>-2.5</ele><time>2026-03-29T14:32:21.72Z</time></trkpt><trkpt lat="45.6603416" lon="12.6117899"><ele>-2.0</ele><time>2026-03-29T14:32:22.717Z</time></trkpt><trkpt lat="45.6601334" lon="12.6115828"><ele>-2.0</ele><time>2026-03-29T14:32:23.737Z</time></trkpt><trkpt lat="45.6599344" lon="12.611379"><ele>-2.0</ele><time>2026-03-29T14:32:24.717Z</time></trkpt><trkpt lat="45.6597375" lon="12.6111879"><ele>-2.0</ele><time>2026-03-29T14:32:25.717Z</time></trkpt><trkpt lat="45.6595454" lon="12.6109928"><ele>-2.0</ele><time>2026-03-29T14:32:26.734Z</time></trkpt><trkpt lat="45.6593557" lon="12.6108068"><ele>-0.6666666666666666</ele><time>2026-03-29T14:32:27.742Z</time></trkpt><trkpt lat="45.6591748" lon="12.6106221"><ele>0.6666666666666666</ele><time>2026-03-29T14:32:28.751Z</time></trkpt><trkpt lat="45.6590029" lon="12.6104465"><ele>2.0</ele><time>2026-03-29T14:32:29.713Z</time></trkpt><trkpt lat="45.6588369" lon="12.6102923"><ele>2.333333333333333</ele><time>2026-03-29T14:32:30.725Z</time></trkpt><trkpt lat="45.6586844" lon="12.6101357"><ele>2.6666666666666665</ele><time>2026-03-29T14:32:31.735Z</time></trkpt><trkpt lat="45.6585381" lon="12.6099833"><ele>3.0</ele><time>2026-03-29T14:32:32.732Z</time></trkpt><trkpt lat="45.6583986" lon="12.609839"><ele>3.0</ele><time>2026-03-29T14:32:33.739Z</time></trkpt><trkpt lat="45.6582619" lon="12.6097123"><ele>3.0</ele><time>2026-03-29T14:32:34.727Z</time></trkpt><trkpt lat="45.6581344" lon="12.6095782"><ele>3.0</ele><time>2026-03-29T14:32:35.724Z</time></trkpt><trkpt lat="45.6580058" lon="12.6094452"><ele>3.0</ele><time>2026-03-29T14:32:36.73Z</time></trkpt><trkpt lat="45.6578734" lon="12.6093081"><ele>3.0</ele><time>2026-03-29T14:32:37.771Z</time></trkpt><trkpt lat="45.6577363" lon="12.6091679"><ele>3.0</ele><time>2026-03-29T14:32:38.726Z</time></trkpt><trkpt lat="45.6576007" lon="12.6090276"><ele>2.6666666666666665</ele><time>2026-03-29T14:32:39.729Z</time></trkpt><trkpt lat="45.657469" lon="12.6088942"><ele>2.333333333333333</ele><time>2026-03-29T14:32:40.729Z</time></trkpt><trkpt lat="45.6573388" lon="12.6087671"><ele>2.0</ele><time>2026-03-29T14:32:41.733Z</time></trkpt><trkpt lat="45.6572091" lon="12.6086391"><ele>2.0</ele><time>2026-03-29T14:32:42.73Z</time></trkpt><trkpt lat="45.6570799" lon="12.6085137"><ele>2.0</ele><time>2026-03-29T14:32:43.72Z</time></trkpt><trkpt lat="45.6569537" lon="12.6083935"><ele>2.0</ele><time>2026-03-29T14:32:44.716Z</time></trkpt><trkpt lat="45.6568324" lon="12.6082773"><ele>1.5</ele><time>2026-03-29T14:32:45.731Z</time></trkpt><trkpt lat="45.6567157" lon="12.6081598"><ele>1.0</ele><time>2026-03-29T14:32:46.723Z</time></trkpt><trkpt lat="45.6565986" lon="12.6080426"><ele>0.5</ele><time>2026-03-29T14:32:47.732Z</time></trkpt><trkpt lat="45.6564793" lon="12.6079242"><ele>0.0</ele><time>2026-03-29T14:32:48.741Z</time></trkpt><trkpt lat="45.6563598" lon="12.6078058"><ele>0.0</ele><time>2026-03-29T14:32:49.731Z</time></trkpt><trkpt lat="45.6562416" lon="12.6076823"><ele>0.0</ele><time>2026-03-29T14:32:50.738Z</time></trkpt><trkpt lat="45.6561158" lon="12.6075609"><ele>0.0</ele><time>2026-03-29T14:32:51.725Z</time></trkpt><trkpt lat="45.6559863" lon="12.6074026"><ele>0.3333333333333333</ele><time>2026-03-29T14:32:52.733Z</time></trkpt><trkpt lat="45.655835" lon="12.6072436"><ele>0.6666666666666666</ele><time>2026-03-29T14:32:53.75Z</time></trkpt><trkpt lat="45.6556704" lon="12.6070845"><ele>1.0</ele><time>2026-03-29T14:32:54.735Z</time></trkpt><trkpt lat="45.6554915" lon="12.6069382"><ele>0.6666666666666666</ele><time>2026-03-29T14:32:55.728Z</time></trkpt><trkpt lat="45.655318" lon="12.6067758"><ele>0.3333333333333333</ele><time>2026-03-29T14:32:56.715Z</time></trkpt><trkpt lat="45.6551456" lon="12.606602"><ele>0.0</ele><time>2026-03-29T14:32:57.739Z</time></trkpt><trkpt lat="45.6549769" lon="12.606428"><ele>0.0</ele><time>2026-03-29T14:32:58.722Z</time></trkpt><trkpt lat="45.6548186" lon="12.6062595"><ele>0.0</ele><time>2026-03-29T14:32:59.714Z</time></trkpt><trkpt lat="45.6546651" lon="12.6061021"><ele>0.0</ele><time>2026-03-29T14:33:00.728Z</time></trkpt><trkpt lat="45.6545129" lon="12.6059472"><ele>0.3333333333333333</ele><time>2026-03-29T14:33:01.729Z</time></trkpt><trkpt lat="45.6543602" lon="12.6057996"><ele>0.6666666666666666</ele><time>2026-03-29T14:33:02.727Z</time></trkpt><trkpt lat="45.6542144" lon="12.6056549"><ele>1.0</ele><time>2026-03-29T14:33:03.714Z</time></trkpt><trkpt lat="45.6540729" lon="12.6055177"><ele>1.0</ele><time>2026-03-29T14:33:04.731Z</time></trkpt><trkpt lat="45.6539436" lon="12.6053834"><ele>1.0</ele><time>2026-03-29T14:33:05.731Z</time></trkpt><trkpt lat="45.6538218" lon="12.6052589"><ele>1.0</ele><time>2026-03-29T14:33:06.74Z</time></trkpt><trkpt lat="45.6537012" lon="12.605151"><ele>0.5</ele><time>2026-03-29T14:33:07.726Z</time></trkpt><trkpt lat="45.6535859" lon="12.6050426"><ele>0.0</ele><time>2026-03-29T14:33:08.732Z</time></trkpt><trkpt lat="45.6534709" lon="12.6049298"><ele>-0.5</ele><time>2026-03-29T14:33:09.707Z</time></trkpt><trkpt lat="45.6533523" lon="12.6048089"><ele>-1.0</ele><time>2026-03-29T14:33:10.722Z</time></trkpt><trkpt lat="45.6532239" lon="12.6046843"><ele>-1.0</ele><time>2026-03-29T14:33:11.729Z</time></trkpt><trkpt lat="45.6530881" lon="12.6045484"><ele>-1.0</ele><time>2026-03-29T14:33:12.719Z</time></trkpt><trkpt lat="45.6529448" lon="12.6044009"><ele>-1.0</ele><time>2026-03-29T14:33:13.717Z</time></trkpt><trkpt lat="45.6527934" lon="12.6042549"><ele>0.0</ele><time>2026-03-29T14:33:14.722Z</time></trkpt><trkpt lat="45.6526374" lon="12.6041155"><ele>1.0</ele><time>2026-03-29T14:33:15.718Z</time></trkpt><trkpt lat="45.6524859" lon="12.6039665"><ele>2.0</ele><time>2026-03-29T14:33:16.725Z</time></trkpt><trkpt lat="45.6523386" lon="12.6038136"><ele>1.6666666666666665</ele><time>2026-03-29T14:33:17.711Z</time></trkpt><trkpt lat="45.6521991" lon="12.603662"><ele>1.3333333333333333</ele><time>2026-03-29T14:33:18.717Z</time></trkpt><trkpt lat="45.652065" lon="12.6035166"><ele>1.0</ele><time>2026-03-29T14:33:19.717Z</time></trkpt><trkpt lat="45.6519307" lon="12.6033765"><ele>1.0</ele><time>2026-03-29T14:33:20.719Z</time></trkpt><trkpt lat="45.6517948" lon="12.6032411"><ele>1.0</ele><time>2026-03-29T14:33:21.718Z</time></trkpt><trkpt lat="45.6516617" lon="12.6031052"><ele>1.0</ele><time>2026-03-29T14:33:22.711Z</time></trkpt><trkpt lat="45.6515283" lon="12.602979"><ele>1.0</ele><time>2026-03-29T14:33:23.714Z</time></trkpt><trkpt lat="45.6513991" lon="12.6028561"><ele>1.0</ele><time>2026-03-29T14:33:24.721Z</time></trkpt><trkpt lat="45.6512742" lon="12.6027364"><ele>1.0</ele><time>2026-03-29T14:33:25.718Z</time></trkpt><trkpt lat="45.6511504" lon="12.6026272"><ele>0.75</ele><time>2026-03-29T14:33:26.716Z</time></trkpt><trkpt lat="45.6510387" lon="12.6025027"><ele>0.5</ele><time>2026-03-29T14:33:27.73Z</time></trkpt><trkpt lat="45.6509219" lon="12.6023996"><ele>0.25</ele><time>2026-03-29T14:33:28.707Z</time></trkpt><trkpt lat="45.6508131" lon="12.6022956"><ele>0.0</ele><time>2026-03-29T14:33:29.731Z</time></trkpt><trkpt lat="45.6507096" lon="12.6021954"><ele>0.0</ele><time>2026-03-29T14:33:30.731Z</time></trkpt><trkpt lat="45.6506117" lon="12.6020941"><ele>0.0</ele><time>2026-03-29T14:33:31.745Z</time></trkpt><trkpt lat="45.6505156" lon="12.6020041"><ele>0.0</ele><time>2026-03-29T14:33:32.714Z</time></trkpt><trkpt lat="45.6504269" lon="12.6019156"><ele>0.0</ele><time>2026-03-29T14:33:33.736Z</time></trkpt><trkpt lat="45.6503456" lon="12.601836"><ele>0.0</ele><time>2026-03-29T14:33:34.731Z</time></trkpt><trkpt lat="45.6502708" lon="12.6017698"><ele>-0.5</ele><time>2026-03-29T14:33:35.731Z</time></trkpt><trkpt lat="45.6502049" lon="12.6017016"><ele>-1.0</ele><time>2026-03-29T14:33:36.717Z</time></trkpt><trkpt lat="45.6501438" lon="12.6016396"><ele>-1.5</ele><time>2026-03-29T14:33:37.725Z</time></trkpt><trkpt lat="45.6500877" lon="12.6015918"><ele>-2.0</ele><time>2026-03-29T14:33:38.725Z</time></trkpt><trkpt lat="45.6500038" lon="12.6015127"><ele>-2.5</ele><time>2026-03-29T14:33:40.72Z</time></trkpt><trkpt lat="45.6499505" lon="12.601462"><ele>-3.0</ele><time>2026-03-29T14:33:42.734Z</time></trkpt><trkpt lat="45.6498879" lon="12.6013936"><ele>-3.0</ele><time>2026-03-29T14:33:55.709Z</time></trkpt><trkpt lat="45.6498219" lon="12.6013248"><ele>-3.0</ele><time>2026-03-29T14:33:57.713Z</time></trkpt><trkpt lat="45.649758" lon="12.6012477"><ele>-3.0</ele><time>2026-03-29T14:34:23.706Z</time></trkpt><trkpt lat="45.6496532" lon="12.6011265"><ele>-3.0</ele><time>2026-03-29T14:34:25.72Z</time></trkpt><trkpt lat="45.6495778" lon="12.6010514"><ele>-3.0</ele><time>2026-03-29T14:34:26.724Z</time></trkpt><trkpt lat="45.6494933" lon="12.6009643"><ele>-2.5</ele><time>2026-03-29T14:34:27.724Z</time></trkpt><trkpt lat="45.6494003" lon="12.6008669"><ele>-2.0</ele><time>2026-03-29T14:34:28.726Z</time></trkpt><trkpt lat="45.6492984" lon="12.6007623"><ele>-1.5</ele><time>2026-03-29T14:34:29.731Z</time></trkpt><trkpt lat="45.6491899" lon="12.6006447"><ele>-1.0</ele><time>2026-03-29T14:34:30.733Z</time></trkpt><trkpt lat="45.649075" lon="12.6005199"><ele>-1.0</ele><time>2026-03-29T14:34:31.728Z</time></trkpt><trkpt lat="45.6489534" lon="12.6003966"><ele>-1.0</ele><time>2026-03-29T14:34:32.73Z</time></trkpt><trkpt lat="45.6488257" lon="12.6002729"><ele>-1.0</ele><time>2026-03-29T14:34:33.738Z</time></trkpt><trkpt lat="45.6486961" lon="12.6001395"><ele>-0.3333333333333333</ele><time>2026-03-29T14:34:34.743Z</time></trkpt><trkpt lat="45.6485651" lon="12.6000052"><ele>0.3333333333333333</ele><time>2026-03-29T14:34:35.73Z</time></trkpt><trkpt lat="45.6484312" lon="12.5998662"><ele>1.0</ele><time>2026-03-29T14:34:36.716Z</time></trkpt><trkpt lat="45.6482965" lon="12.5997213"><ele>1.0</ele><time>2026-03-29T14:34:37.743Z</time></trkpt><trkpt lat="45.6481602" lon="12.5995772"><ele>1.0</ele><time>2026-03-29T14:34:38.73Z</time></trkpt><trkpt lat="45.6480223" lon="12.5994335"><ele>1.0</ele><time>2026-03-29T14:34:39.74Z</time></trkpt><trkpt lat="45.6478847" lon="12.5992827"><ele>1.0</ele><time>2026-03-29T14:34:40.739Z</time></trkpt><trkpt lat="45.6477455" lon="12.5991372"><ele>1.0</ele><time>2026-03-29T14:34:41.721Z</time></trkpt><trkpt lat="45.6476075" lon="12.5989937"><ele>1.0</ele><time>2026-03-29T14:34:42.739Z</time></trkpt><trkpt lat="45.6474688" lon="12.5988504"><ele>1.0</ele><time>2026-03-29T14:34:43.734Z</time></trkpt><trkpt lat="45.64733" lon="12.5987"><ele>1.0</ele><time>2026-03-29T14:34:44.735Z</time></trkpt><trkpt lat="45.6471888" lon="12.5985456"><ele>1.0</ele><time>2026-03-29T14:34:45.73Z</time></trkpt><trkpt lat="45.6470438" lon="12.5983936"><ele>0.3333333333333333</ele><time>2026-03-29T14:34:46.751Z</time></trkpt><trkpt lat="45.6468991" lon="12.5982426"><ele>-0.3333333333333333</ele><time>2026-03-29T14:34:47.735Z</time></trkpt><trkpt lat="45.6467548" lon="12.5980948"><ele>-1.0</ele><time>2026-03-29T14:34:48.732Z</time></trkpt><trkpt lat="45.6466111" lon="12.5979479"><ele>-1.0</ele><time>2026-03-29T14:34:49.727Z</time></trkpt><trkpt lat="45.6464699" lon="12.5978015"><ele>-1.0</ele><time>2026-03-29T14:34:50.728Z</time></trkpt><trkpt lat="45.6463313" lon="12.5976599"><ele>-1.0</ele><time>2026-03-29T14:34:51.73Z</time></trkpt><trkpt lat="45.6461971" lon="12.5975204"><ele>0.0</ele><time>2026-03-29T14:34:52.722Z</time></trkpt><trkpt lat="45.6460654" lon="12.5973848"><ele>1.0</ele><time>2026-03-29T14:34:53.731Z</time></trkpt><trkpt lat="45.6459392" lon="12.5972472"><ele>2.0</ele><time>2026-03-29T14:34:54.741Z</time></trkpt><trkpt lat="45.6458165" lon="12.5971077"><ele>1.75</ele><time>2026-03-29T14:34:55.732Z</time></trkpt><trkpt lat="45.6457023" lon="12.5969677"><ele>1.5</ele><time>2026-03-29T14:34:56.729Z</time></trkpt><trkpt lat="45.6455998" lon="12.5968257"><ele>1.25</ele><time>2026-03-29T14:34:57.733Z</time></trkpt><trkpt lat="45.6455076" lon="12.59667"><ele>1.0</ele><time>2026-03-29T14:34:58.737Z</time></trkpt><trkpt lat="45.6454127" lon="12.5965155"><ele>1.0</ele><time>2026-03-29T14:34:59.74Z</time></trkpt><trkpt lat="45.6453161" lon="12.5963608"><ele>1.0</ele><time>2026-03-29T14:35:00.737Z</time></trkpt><trkpt lat="45.645219" lon="12.5962173"><ele>1.0</ele><time>2026-03-29T14:35:01.737Z</time></trkpt><trkpt lat="45.6451296" lon="12.5960705"><ele>1.0</ele><time>2026-03-29T14:35:02.743Z</time></trkpt><trkpt lat="45.6450491" lon="12.5959146"><ele>0.75</ele><time>2026-03-29T14:35:03.747Z</time></trkpt><trkpt lat="45.6449656" lon="12.5957688"><ele>0.5</ele><time>2026-03-29T14:35:04.74Z</time></trkpt><trkpt lat="45.6448831" lon="12.5956369"><ele>0.25</ele><time>2026-03-29T14:35:05.751Z</time></trkpt><trkpt lat="45.6448085" lon="12.5955165"><ele>0.0</ele><time>2026-03-29T14:35:06.752Z</time></trkpt><trkpt lat="45.6447438" lon="12.5954118"><ele>-0.16666666666666666</ele><time>2026-03-29T14:35:07.763Z</time></trkpt><trkpt lat="45.6446949" lon="12.5953319"><ele>-0.3333333333333333</ele><time>2026-03-29T14:35:08.73Z</time></trkpt><trkpt lat="45.644645" lon="12.5952461"><ele>-0.5</ele><time>2026-03-29T14:35:10.722Z</time></trkpt><trkpt lat="45.6446105" lon="12.5951643"><ele>-0.6666666666666666</ele><time>2026-03-29T14:35:12.724Z</time></trkpt><trkpt lat="45.6445792" lon="12.5950105"><ele>-0.8333333333333333</ele><time>2026-03-29T14:35:14.718Z</time></trkpt><trkpt lat="45.6445658" lon="12.5948881"><ele>-1.0</ele><time>2026-03-29T14:35:15.707Z</time></trkpt><trkpt lat="45.6445421" lon="12.5947559"><ele>-1.0</ele><time>2026-03-29T14:35:16.711Z</time></trkpt><trkpt lat="45.6444955" lon="12.594631"><ele>-1.0</ele><time>2026-03-29T14:35:17.714Z</time></trkpt><trkpt lat="45.6444355" lon="12.5945163"><ele>-1.0</ele><time>2026-03-29T14:35:18.718Z</time></trkpt><trkpt lat="45.6443531" lon="12.5944231"><ele>-1.0</ele><time>2026-03-29T14:35:19.725Z</time></trkpt><trkpt lat="45.6442583" lon="12.5943644"><ele>-1.0</ele><time>2026-03-29T14:35:20.715Z</time></trkpt><trkpt lat="45.6441579" lon="12.5943382"><ele>-1.2000000000000002</ele><time>2026-03-29T14:35:21.723Z</time></trkpt><trkpt lat="45.6440571" lon="12.5943597"><ele>-1.4000000000000001</ele><time>2026-03-29T14:35:22.723Z</time></trkpt><trkpt lat="45.6439645" lon="12.5944036"><ele>-1.6</ele><time>2026-03-29T14:35:23.713Z</time></trkpt><trkpt lat="45.6438817" lon="12.5944741"><ele>-1.8</ele><time>2026-03-29T14:35:24.717Z</time></trkpt><trkpt lat="45.6438115" lon="12.5945866"><ele>-2.0</ele><time>2026-03-29T14:35:25.766Z</time></trkpt><trkpt lat="45.6437577" lon="12.5947207"><ele>-1.8</ele><time>2026-03-29T14:35:26.73Z</time></trkpt><trkpt lat="45.6437231" lon="12.5948636"><ele>-1.6</ele><time>2026-03-29T14:35:27.742Z</time></trkpt><trkpt lat="45.6436952" lon="12.5950089"><ele>-1.4000000000000001</ele><time>2026-03-29T14:35:28.711Z</time></trkpt><trkpt lat="45.643688" lon="12.5951557"><ele>-1.2000000000000002</ele><time>2026-03-29T14:35:29.735Z</time></trkpt><trkpt lat="45.6436621" lon="12.5953044"><ele>-1.0</ele><time>2026-03-29T14:35:30.738Z</time></trkpt><trkpt lat="45.6436024" lon="12.595445"><ele>-1.0</ele><time>2026-03-29T14:35:31.727Z</time></trkpt><trkpt lat="45.6435322" lon="12.5955846"><ele>-1.0</ele><time>2026-03-29T14:35:32.729Z</time></trkpt><trkpt lat="45.6434548" lon="12.5957164"><ele>-1.0</ele><time>2026-03-29T14:35:33.723Z</time></trkpt><trkpt lat="45.6433927" lon="12.5958567"><ele>-1.0</ele><time>2026-03-29T14:35:34.726Z</time></trkpt><trkpt lat="45.643327" lon="12.595988"><ele>-1.0</ele><time>2026-03-29T14:35:35.715Z</time></trkpt><trkpt lat="45.643257" lon="12.5961139"><ele>-1.0</ele><time>2026-03-29T14:35:36.732Z</time></trkpt><trkpt lat="45.6431813" lon="12.5962396"><ele>-1.0</ele><time>2026-03-29T14:35:37.731Z</time></trkpt><trkpt lat="45.6430979" lon="12.5963629"><ele>-1.0</ele><time>2026-03-29T14:35:38.735Z</time></trkpt><trkpt lat="45.643012" lon="12.5964912"><ele>-0.75</ele><time>2026-03-29T14:35:39.71Z</time></trkpt><trkpt lat="45.6429299" lon="12.5966269"><ele>-0.5</ele><time>2026-03-29T14:35:40.728Z</time></trkpt><trkpt lat="45.6428513" lon="12.5967684"><ele>-0.25</ele><time>2026-03-29T14:35:41.716Z</time></trkpt><trkpt lat="45.6427712" lon="12.5969055"><ele>0.0</ele><time>2026-03-29T14:35:42.73Z</time></trkpt><trkpt lat="45.6426926" lon="12.5970359"><ele>0.2</ele><time>2026-03-29T14:35:43.725Z</time></trkpt><trkpt lat="45.6426207" lon="12.5971605"><ele>0.4</ele><time>2026-03-29T14:35:44.731Z</time></trkpt><trkpt lat="45.6425531" lon="12.5972617"><ele>0.6000000000000001</ele><time>2026-03-29T14:35:45.712Z</time></trkpt><trkpt lat="45.642497" lon="12.5973424"><ele>0.8</ele><time>2026-03-29T14:35:46.737Z</time></trkpt><trkpt lat="45.642452" lon="12.597407"><ele>1.0</ele><time>2026-03-29T14:35:47.722Z</time></trkpt><trkpt lat="45.6423675" lon="12.5975445"><ele>1.0</ele><time>2026-03-29T14:37:08.722Z</time></trkpt><trkpt lat="45.6423028" lon="12.5976645"><ele>1.0</ele><time>2026-03-29T14:37:10.738Z</time></trkpt><trkpt lat="45.642249" lon="12.5977656"><ele>1.0</ele><time>2026-03-29T14:37:11.734Z</time></trkpt><trkpt lat="45.6421908" lon="12.5978814"><ele>1.0</ele><time>2026-03-29T14:37:12.722Z</time></trkpt><trkpt lat="45.6421269" lon="12.5980037"><ele>1.0</ele><time>2026-03-29T14:37:13.736Z</time></trkpt><trkpt lat="45.6420611" lon="12.598133"><ele>1.0</ele><time>2026-03-29T14:37:14.716Z</time></trkpt><trkpt lat="45.6419879" lon="12.5982749"><ele>1.0</ele><time>2026-03-29T14:37:15.728Z</time></trkpt><trkpt lat="45.6419109" lon="12.5984294"><ele>1.0</ele><time>2026-03-29T14:37:16.734Z</time></trkpt><trkpt lat="45.6418342" lon="12.5985847"><ele>1.0</ele><time>2026-03-29T14:37:17.731Z</time></trkpt><trkpt lat="45.6417655" lon="12.5987446"><ele>1.0</ele><time>2026-03-29T14:37:18.722Z</time></trkpt><trkpt lat="45.6416929" lon="12.5989013"><ele>1.0</ele><time>2026-03-29T14:37:19.722Z</time></trkpt><trkpt lat="45.6416089" lon="12.5990499"><ele>1.0</ele><time>2026-03-29T14:37:20.739Z</time></trkpt><trkpt lat="45.6415198" lon="12.5992033"><ele>1.0</ele><time>2026-03-29T14:37:21.732Z</time></trkpt><trkpt lat="45.6414316" lon="12.5993676"><ele>1.0</ele><time>2026-03-29T14:37:22.724Z</time></trkpt><trkpt lat="45.6413386" lon="12.5995301"><ele>1.0</ele><time>2026-03-29T14:37:23.722Z</time></trkpt><trkpt lat="45.6412351" lon="12.5996852"><ele>1.0</ele><time>2026-03-29T14:37:24.718Z</time></trkpt><trkpt lat="45.6411328" lon="12.5998487"><ele>0.3333333333333333</ele><time>2026-03-29T14:37:25.731Z</time></trkpt><trkpt lat="45.6410224" lon="12.6000223"><ele>-0.3333333333333333</ele><time>2026-03-29T14:37:26.74Z</time></trkpt><trkpt lat="45.6409032" lon="12.6001995"><ele>-1.0</ele><time>2026-03-29T14:37:27.736Z</time></trkpt><trkpt lat="45.6407837" lon="12.6003835"><ele>-1.3333333333333333</ele><time>2026-03-29T14:37:28.732Z</time></trkpt><trkpt lat="45.6406639" lon="12.6005721"><ele>-1.6666666666666665</ele><time>2026-03-29T14:37:29.728Z</time></trkpt><trkpt lat="45.6405399" lon="12.6007637"><ele>-2.0</ele><time>2026-03-29T14:37:30.736Z</time></trkpt><trkpt lat="45.6404107" lon="12.6009579"><ele>-1.3333333333333333</ele><time>2026-03-29T14:37:31.721Z</time></trkpt><trkpt lat="45.6402778" lon="12.6011476"><ele>-0.6666666666666666</ele><time>2026-03-29T14:37:32.729Z</time></trkpt><trkpt lat="45.6401408" lon="12.6013188"><ele>0.0</ele><time>2026-03-29T14:37:33.738Z</time></trkpt><trkpt lat="45.6400021" lon="12.6014787"><ele>0.0</ele><time>2026-03-29T14:37:34.719Z</time></trkpt><trkpt lat="45.6398693" lon="12.6016522"><ele>0.0</ele><time>2026-03-29T14:37:35.732Z</time></trkpt><trkpt lat="45.6397229" lon="12.6018098"><ele>0.0</ele><time>2026-03-29T14:37:36.728Z</time></trkpt><trkpt lat="45.6395617" lon="12.6019421"><ele>0.0</ele><time>2026-03-29T14:37:37.733Z</time></trkpt><trkpt lat="45.6393873" lon="12.602042"><ele>0.0</ele><time>2026-03-29T14:37:38.748Z</time></trkpt><trkpt lat="45.6392083" lon="12.6021445"><ele>0.0</ele><time>2026-03-29T14:37:39.74Z</time></trkpt><trkpt lat="45.6390097" lon="12.6021628"><ele>0.0</ele><time>2026-03-29T14:37:40.738Z</time></trkpt><trkpt lat="45.6388152" lon="12.6021794"><ele>0.0</ele><time>2026-03-29T14:37:41.729Z</time></trkpt><trkpt lat="45.6386224" lon="12.6021662"><ele>0.0</ele><time>2026-03-29T14:37:42.719Z</time></trkpt><trkpt lat="45.6384335" lon="12.602116"><ele>-0.3333333333333333</ele><time>2026-03-29T14:37:43.734Z</time></trkpt><trkpt lat="45.6382507" lon="12.6020407"><ele>-0.6666666666666666</ele><time>2026-03-29T14:37:44.753Z</time></trkpt><trkpt lat="45.6380779" lon="12.6019546"><ele>-1.0</ele><time>2026-03-29T14:37:45.721Z</time></trkpt><trkpt lat="45.6379095" lon="12.6018644"><ele>-0.6666666666666666</ele><time>2026-03-29T14:37:46.746Z</time></trkpt><trkpt lat="45.6377495" lon="12.6017364"><ele>-0.3333333333333333</ele><time>2026-03-29T14:37:47.714Z</time></trkpt><trkpt lat="45.6375956" lon="12.6015892"><ele>0.0</ele><time>2026-03-29T14:37:48.725Z</time></trkpt><trkpt lat="45.6374543" lon="12.6014142"><ele>0.0</ele><time>2026-03-29T14:37:49.719Z</time></trkpt><trkpt lat="45.6373142" lon="12.6012391"><ele>0.0</ele><time>2026-03-29T14:37:50.718Z</time></trkpt><trkpt lat="45.6371734" lon="12.6010635"><ele>0.0</ele><time>2026-03-29T14:37:51.714Z</time></trkpt><trkpt lat="45.6370218" lon="12.6008995"><ele>0.0</ele><time>2026-03-29T14:37:52.722Z</time></trkpt><trkpt lat="45.6368594" lon="12.6007455"><ele>0.0</ele><time>2026-03-29T14:37:53.732Z</time></trkpt><trkpt lat="45.6366901" lon="12.6006017"><ele>0.0</ele><time>2026-03-29T14:37:54.737Z</time></trkpt><trkpt lat="45.6365226" lon="12.6004641"><ele>0.0</ele><time>2026-03-29T14:37:55.721Z</time></trkpt><trkpt lat="45.6363603" lon="12.6003406"><ele>0.0</ele><time>2026-03-29T14:37:56.73Z</time></trkpt><trkpt lat="45.6362007" lon="12.6002391"><ele>0.0</ele><time>2026-03-29T14:37:57.731Z</time></trkpt><trkpt lat="45.6360449" lon="12.600153"><ele>0.3333333333333333</ele><time>2026-03-29T14:37:58.726Z</time></trkpt><trkpt lat="45.6358966" lon="12.6000795"><ele>0.6666666666666666</ele><time>2026-03-29T14:37:59.718Z</time></trkpt><trkpt lat="45.635755" lon="12.6000121"><ele>1.0</ele><time>2026-03-29T14:38:00.714Z</time></trkpt><trkpt lat="45.6356153" lon="12.5999463"><ele>1.0</ele><time>2026-03-29T14:38:01.721Z</time></trkpt><trkpt lat="45.6354737" lon="12.5998816"><ele>1.0</ele><time>2026-03-29T14:38:02.728Z</time></trkpt><trkpt lat="45.6353252" lon="12.599825"><ele>1.0</ele><time>2026-03-29T14:38:03.714Z</time></trkpt><trkpt lat="45.6351718" lon="12.5997772"><ele>0.6666666666666666</ele><time>2026-03-29T14:38:04.744Z</time></trkpt><trkpt lat="45.6350125" lon="12.5997409"><ele>0.3333333333333333</ele><time>2026-03-29T14:38:05.736Z</time></trkpt><trkpt lat="45.6348458" lon="12.599707"><ele>0.0</ele><time>2026-03-29T14:38:06.732Z</time></trkpt><trkpt lat="45.6346719" lon="12.599679"><ele>0.0</ele><time>2026-03-29T14:38:07.736Z</time></trkpt><trkpt lat="45.6344947" lon="12.5996715"><ele>0.0</ele><time>2026-03-29T14:38:08.728Z</time></trkpt><trkpt lat="45.6343181" lon="12.5996803"><ele>0.0</ele><time>2026-03-29T14:38:09.73Z</time></trkpt><trkpt lat="45.6341432" lon="12.5997011"><ele>0.3333333333333333</ele><time>2026-03-29T14:38:10.738Z</time></trkpt><trkpt lat="45.6339713" lon="12.5997243"><ele>0.6666666666666666</ele><time>2026-03-29T14:38:11.736Z</time></trkpt><trkpt lat="45.6338042" lon="12.5997634"><ele>1.0</ele><time>2026-03-29T14:38:12.745Z</time></trkpt><trkpt lat="45.633642" lon="12.5998103"><ele>0.6666666666666666</ele><time>2026-03-29T14:38:13.731Z</time></trkpt><trkpt lat="45.6334806" lon="12.599859"><ele>0.3333333333333333</ele><time>2026-03-29T14:38:14.734Z</time></trkpt><trkpt lat="45.633321" lon="12.5999313"><ele>0.0</ele><time>2026-03-29T14:38:15.731Z</time></trkpt><trkpt lat="45.6331637" lon="12.600003"><ele>0.0</ele><time>2026-03-29T14:38:16.736Z</time></trkpt><trkpt lat="45.6330107" lon="12.6000935"><ele>0.0</ele><time>2026-03-29T14:38:17.722Z</time></trkpt><trkpt lat="45.6328561" lon="12.6001939"><ele>0.0</ele><time>2026-03-29T14:38:18.731Z</time></trkpt><trkpt lat="45.6327005" lon="12.6003016"><ele>0.0</ele><time>2026-03-29T14:38:19.728Z</time></trkpt><trkpt lat="45.6325431" lon="12.6004259"><ele>0.0</ele><time>2026-03-29T14:38:20.738Z</time></trkpt><trkpt lat="45.6323806" lon="12.6005473"><ele>0.0</ele><time>2026-03-29T14:38:21.734Z</time></trkpt><trkpt lat="45.6322145" lon="12.6006569"><ele>0.0</ele><time>2026-03-29T14:38:22.737Z</time></trkpt><trkpt lat="45.6320467" lon="12.6007757"><ele>0.0</ele><time>2026-03-29T14:38:23.746Z</time></trkpt><trkpt lat="45.6318751" lon="12.6009014"><ele>0.0</ele><time>2026-03-29T14:38:24.732Z</time></trkpt><trkpt lat="45.631701" lon="12.601032"><ele>0.3333333333333333</ele><time>2026-03-29T14:38:25.739Z</time></trkpt><trkpt lat="45.6315255" lon="12.601169"><ele>0.6666666666666666</ele><time>2026-03-29T14:38:26.737Z</time></trkpt><trkpt lat="45.6313484" lon="12.6013037"><ele>1.0</ele><time>2026-03-29T14:38:27.739Z</time></trkpt><trkpt lat="45.6311713" lon="12.6014399"><ele>0.3333333333333333</ele><time>2026-03-29T14:38:28.75Z</time></trkpt><trkpt lat="45.6309914" lon="12.60157"><ele>-0.3333333333333333</ele><time>2026-03-29T14:38:29.714Z</time></trkpt><trkpt lat="45.630814" lon="12.6017074"><ele>-1.0</ele><time>2026-03-29T14:38:30.737Z</time></trkpt><trkpt lat="45.6306382" lon="12.6018423"><ele>-1.0</ele><time>2026-03-29T14:38:31.745Z</time></trkpt><trkpt lat="45.6304652" lon="12.6019718"><ele>-1.0</ele><time>2026-03-29T14:38:32.745Z</time></trkpt><trkpt lat="45.6302918" lon="12.6020935"><ele>-1.0</ele><time>2026-03-29T14:38:33.723Z</time></trkpt><trkpt lat="45.6301182" lon="12.6022124"><ele>-1.0</ele><time>2026-03-29T14:38:34.716Z</time></trkpt><trkpt lat="45.6299414" lon="12.6023244"><ele>-1.0</ele><time>2026-03-29T14:38:35.73Z</time></trkpt><trkpt lat="45.6297591" lon="12.602429"><ele>-1.0</ele><time>2026-03-29T14:38:36.73Z</time></trkpt><trkpt lat="45.6295712" lon="12.6025144"><ele>0.0</ele><time>2026-03-29T14:38:37.733Z</time></trkpt><trkpt lat="45.6293778" lon="12.6025885"><ele>1.0</ele><time>2026-03-29T14:38:38.728Z</time></trkpt><trkpt lat="45.6291801" lon="12.6026541"><ele>2.0</ele><time>2026-03-29T14:38:39.728Z</time></trkpt><trkpt lat="45.62898" lon="12.6027067"><ele>2.0</ele><time>2026-03-29T14:38:40.73Z</time></trkpt><trkpt lat="45.6287794" lon="12.602747"><ele>2.0</ele><time>2026-03-29T14:38:41.725Z</time></trkpt><trkpt lat="45.6285781" lon="12.6027704"><ele>2.0</ele><time>2026-03-29T14:38:42.728Z</time></trkpt><trkpt lat="45.6283772" lon="12.6027797"><ele>2.0</ele><time>2026-03-29T14:38:43.713Z</time></trkpt><trkpt lat="45.6281779" lon="12.6027687"><ele>2.0</ele><time>2026-03-29T14:38:44.743Z</time></trkpt><trkpt lat="45.6279804" lon="12.602753"><ele>2.0</ele><time>2026-03-29T14:38:45.735Z</time></trkpt><trkpt lat="45.6277859" lon="12.6027269"><ele>1.0</ele><time>2026-03-29T14:38:46.732Z</time></trkpt><trkpt lat="45.6275935" lon="12.6026975"><ele>0.0</ele><time>2026-03-29T14:38:47.726Z</time></trkpt><trkpt lat="45.6274062" lon="12.6026542"><ele>-1.0</ele><time>2026-03-29T14:38:48.727Z</time></trkpt><trkpt lat="45.6272244" lon="12.6026012"><ele>-1.0</ele><time>2026-03-29T14:38:49.72Z</time></trkpt><trkpt lat="45.6270488" lon="12.6025353"><ele>-1.0</ele><time>2026-03-29T14:38:50.737Z</time></trkpt><trkpt lat="45.6268772" lon="12.6024617"><ele>-1.0</ele><time>2026-03-29T14:38:51.733Z</time></trkpt><trkpt lat="45.6267061" lon="12.6023848"><ele>-1.3333333333333333</ele><time>2026-03-29T14:38:52.732Z</time></trkpt><trkpt lat="45.6265361" lon="12.6022971"><ele>-1.6666666666666665</ele><time>2026-03-29T14:38:53.734Z</time></trkpt><trkpt lat="45.6263639" lon="12.6022128"><ele>-2.0</ele><time>2026-03-29T14:38:54.735Z</time></trkpt><trkpt lat="45.6261885" lon="12.6021284"><ele>-1.6666666666666665</ele><time>2026-03-29T14:38:55.727Z</time></trkpt><trkpt lat="45.626012" lon="12.6020398"><ele>-1.3333333333333333</ele><time>2026-03-29T14:38:56.728Z</time></trkpt><trkpt lat="45.6258351" lon="12.6019506"><ele>-1.0</ele><time>2026-03-29T14:38:57.728Z</time></trkpt><trkpt lat="45.625658" lon="12.601864"><ele>-0.6666666666666666</ele><time>2026-03-29T14:38:58.721Z</time></trkpt><trkpt lat="45.6254813" lon="12.6017826"><ele>-0.3333333333333333</ele><time>2026-03-29T14:38:59.712Z</time></trkpt><trkpt lat="45.6253055" lon="12.6017013"><ele>0.0</ele><time>2026-03-29T14:39:00.731Z</time></trkpt><trkpt lat="45.6251271" lon="12.601628"><ele>0.3333333333333333</ele><time>2026-03-29T14:39:01.716Z</time></trkpt><trkpt lat="45.6249465" lon="12.6015601"><ele>0.6666666666666666</ele><time>2026-03-29T14:39:02.748Z</time></trkpt><trkpt lat="45.624764" lon="12.60149"><ele>1.0</ele><time>2026-03-29T14:39:03.736Z</time></trkpt><trkpt lat="45.6245753" lon="12.6014266"><ele>0.3333333333333333</ele><time>2026-03-29T14:39:04.724Z</time></trkpt><trkpt lat="45.624381" lon="12.6013734"><ele>-0.3333333333333333</ele><time>2026-03-29T14:39:05.732Z</time></trkpt><trkpt lat="45.6241838" lon="12.6013297"><ele>-1.0</ele><time>2026-03-29T14:39:06.746Z</time></trkpt><trkpt lat="45.6239857" lon="12.6012861"><ele>-1.0</ele><time>2026-03-29T14:39:07.729Z</time></trkpt><trkpt lat="45.6237872" lon="12.6012474"><ele>-1.0</ele><time>2026-03-29T14:39:08.726Z</time></trkpt><trkpt lat="45.6235906" lon="12.6012191"><ele>-1.0</ele><time>2026-03-29T14:39:09.719Z</time></trkpt><trkpt lat="45.6233991" lon="12.6012012"><ele>-0.6666666666666666</ele><time>2026-03-29T14:39:10.74Z</time></trkpt><trkpt lat="45.6232118" lon="12.6011861"><ele>-0.3333333333333333</ele><time>2026-03-29T14:39:11.734Z</time></trkpt><trkpt lat="45.6230262" lon="12.6011688"><ele>0.0</ele><time>2026-03-29T14:39:12.747Z</time></trkpt><trkpt lat="45.62284" lon="12.6011623"><ele>0.0</ele><time>2026-03-29T14:39:13.733Z</time></trkpt><trkpt lat="45.622652" lon="12.6011539"><ele>0.0</ele><time>2026-03-29T14:39:14.747Z</time></trkpt><trkpt lat="45.6224617" lon="12.6011549"><ele>0.0</ele><time>2026-03-29T14:39:15.735Z</time></trkpt><trkpt lat="45.6222699" lon="12.6011543"><ele>0.0</ele><time>2026-03-29T14:39:16.72Z</time></trkpt><trkpt lat="45.6220766" lon="12.6011482"><ele>0.0</ele><time>2026-03-29T14:39:17.725Z</time></trkpt><trkpt lat="45.6218829" lon="12.6011484"><ele>0.0</ele><time>2026-03-29T14:39:18.729Z</time></trkpt><trkpt lat="45.6216889" lon="12.6011431"><ele>0.0</ele><time>2026-03-29T14:39:19.711Z</time></trkpt><trkpt lat="45.6214943" lon="12.6011395"><ele>0.0</ele><time>2026-03-29T14:39:20.72Z</time></trkpt><trkpt lat="45.6212999" lon="12.6011316"><ele>0.0</ele><time>2026-03-29T14:39:21.719Z</time></trkpt><trkpt lat="45.6211066" lon="12.6011258"><ele>-0.3333333333333333</ele><time>2026-03-29T14:39:22.718Z</time></trkpt><trkpt lat="45.620916" lon="12.6011173"><ele>-0.6666666666666666</ele><time>2026-03-29T14:39:23.72Z</time></trkpt><trkpt lat="45.6207265" lon="12.6011232"><ele>-1.0</ele><time>2026-03-29T14:39:24.725Z</time></trkpt><trkpt lat="45.6205382" lon="12.6011152"><ele>-1.0</ele><time>2026-03-29T14:39:25.728Z</time></trkpt><trkpt lat="45.6203489" lon="12.6011063"><ele>-1.0</ele><time>2026-03-29T14:39:26.728Z</time></trkpt><trkpt lat="45.6201577" lon="12.6010966"><ele>-1.0</ele><time>2026-03-29T14:39:27.722Z</time></trkpt><trkpt lat="45.6199655" lon="12.6010791"><ele>-1.3333333333333333</ele><time>2026-03-29T14:39:28.725Z</time></trkpt><trkpt lat="45.6197712" lon="12.6010535"><ele>-1.6666666666666665</ele><time>2026-03-29T14:39:29.714Z</time></trkpt><trkpt lat="45.6195725" lon="12.6010203"><ele>-2.0</ele><time>2026-03-29T14:39:30.724Z</time></trkpt><trkpt lat="45.6193699" lon="12.600981"><ele>-2.333333333333333</ele><time>2026-03-29T14:39:31.73Z</time></trkpt><trkpt lat="45.6191645" lon="12.6009437"><ele>-2.6666666666666665</ele><time>2026-03-29T14:39:32.723Z</time></trkpt><trkpt lat="45.6189605" lon="12.600897"><ele>-3.0</ele><time>2026-03-29T14:39:33.738Z</time></trkpt><trkpt lat="45.6187605" lon="12.6008386"><ele>-3.666666666666667</ele><time>2026-03-29T14:39:34.719Z</time></trkpt><trkpt lat="45.6185653" lon="12.6007802"><ele>-4.333333333333334</ele><time>2026-03-29T14:39:35.719Z</time></trkpt><trkpt lat="45.6183728" lon="12.6007202"><ele>-5.0</ele><time>2026-03-29T14:39:36.724Z</time></trkpt><trkpt lat="45.6181831" lon="12.6006502"><ele>-5.0</ele><time>2026-03-29T14:39:37.716Z</time></trkpt><trkpt lat="45.6179935" lon="12.6005791"><ele>-5.0</ele><time>2026-03-29T14:39:38.719Z</time></trkpt><trkpt lat="45.6178024" lon="12.6005002"><ele>-5.0</ele><time>2026-03-29T14:39:39.727Z</time></trkpt><trkpt lat="45.6176108" lon="12.6004114"><ele>-3.3333333333333335</ele><time>2026-03-29T14:39:40.741Z</time></trkpt><trkpt lat="45.6174205" lon="12.6003116"><ele>-1.6666666666666667</ele><time>2026-03-29T14:39:41.74Z</time></trkpt><trkpt lat="45.6172296" lon="12.6002073"><ele>0.0</ele><time>2026-03-29T14:39:42.739Z</time></trkpt><trkpt lat="45.617041" lon="12.6000954"><ele>-0.6666666666666666</ele><time>2026-03-29T14:39:43.744Z</time></trkpt><trkpt lat="45.6168504" lon="12.5999835"><ele>-1.3333333333333333</ele><time>2026-03-29T14:39:44.73Z</time></trkpt><trkpt lat="45.6166592" lon="12.5998701"><ele>-2.0</ele><time>2026-03-29T14:39:45.723Z</time></trkpt><trkpt lat="45.616468" lon="12.5997587"><ele>-2.0</ele><time>2026-03-29T14:39:46.713Z</time></trkpt><trkpt lat="45.616278" lon="12.5996454"><ele>-2.0</ele><time>2026-03-29T14:39:47.726Z</time></trkpt><trkpt lat="45.616087" lon="12.5995352"><ele>-2.0</ele><time>2026-03-29T14:39:48.733Z</time></trkpt><trkpt lat="45.6158969" lon="12.5994233"><ele>-2.0</ele><time>2026-03-29T14:39:49.735Z</time></trkpt><trkpt lat="45.6157069" lon="12.599316"><ele>-2.0</ele><time>2026-03-29T14:39:50.748Z</time></trkpt><trkpt lat="45.6155174" lon="12.5992076"><ele>-2.0</ele><time>2026-03-29T14:39:51.713Z</time></trkpt><trkpt lat="45.6153262" lon="12.5991052"><ele>-2.0</ele><time>2026-03-29T14:39:52.716Z</time></trkpt><trkpt lat="45.6151366" lon="12.5989969"><ele>-2.0</ele><time>2026-03-29T14:39:53.726Z</time></trkpt><trkpt lat="45.6149474" lon="12.5988913"><ele>-2.0</ele><time>2026-03-29T14:39:54.726Z</time></trkpt><trkpt lat="45.6147607" lon="12.5987837"><ele>-2.0</ele><time>2026-03-29T14:39:55.733Z</time></trkpt><trkpt lat="45.6145753" lon="12.5986788"><ele>-2.0</ele><time>2026-03-29T14:39:56.722Z</time></trkpt><trkpt lat="45.6143915" lon="12.598576"><ele>-2.0</ele><time>2026-03-29T14:39:57.74Z</time></trkpt><trkpt lat="45.6142104" lon="12.5984743"><ele>-1.6666666666666665</ele><time>2026-03-29T14:39:58.715Z</time></trkpt><trkpt lat="45.6140317" lon="12.5983751"><ele>-1.3333333333333333</ele><time>2026-03-29T14:39:59.727Z</time></trkpt><trkpt lat="45.6138546" lon="12.5982768"><ele>-1.0</ele><time>2026-03-29T14:40:00.73Z</time></trkpt><trkpt lat="45.6136763" lon="12.5981871"><ele>-1.0</ele><time>2026-03-29T14:40:01.733Z</time></trkpt><trkpt lat="45.6134971" lon="12.5980998"><ele>-1.0</ele><time>2026-03-29T14:40:02.721Z</time></trkpt><trkpt lat="45.6133167" lon="12.5980154"><ele>-1.0</ele><time>2026-03-29T14:40:03.726Z</time></trkpt><trkpt lat="45.613137" lon="12.5979356"><ele>-1.0</ele><time>2026-03-29T14:40:04.725Z</time></trkpt><trkpt lat="45.6129586" lon="12.597861"><ele>-1.0</ele><time>2026-03-29T14:40:05.723Z</time></trkpt><trkpt lat="45.6127819" lon="12.5977858"><ele>-1.0</ele><time>2026-03-29T14:40:06.72Z</time></trkpt><trkpt lat="45.6126041" lon="12.5977088"><ele>-1.0</ele><time>2026-03-29T14:40:07.728Z</time></trkpt><trkpt lat="45.6124235" lon="12.5976326"><ele>-1.0</ele><time>2026-03-29T14:40:08.728Z</time></trkpt><trkpt lat="45.6122383" lon="12.5975625"><ele>-1.0</ele><time>2026-03-29T14:40:09.735Z</time></trkpt><trkpt lat="45.6120486" lon="12.5974927"><ele>-1.0</ele><time>2026-03-29T14:40:10.741Z</time></trkpt><trkpt lat="45.6118549" lon="12.5974253"><ele>-1.0</ele><time>2026-03-29T14:40:11.735Z</time></trkpt><trkpt lat="45.6116571" lon="12.5973573"><ele>-1.0</ele><time>2026-03-29T14:40:12.732Z</time></trkpt><trkpt lat="45.6114555" lon="12.5972889"><ele>-1.0</ele><time>2026-03-29T14:40:13.75Z</time></trkpt><trkpt lat="45.6112514" lon="12.5972317"><ele>-1.0</ele><time>2026-03-29T14:40:14.733Z</time></trkpt><trkpt lat="45.6110477" lon="12.5971676"><ele>-1.0</ele><time>2026-03-29T14:40:15.739Z</time></trkpt><trkpt lat="45.6108409" lon="12.5971135"><ele>-1.0</ele><time>2026-03-29T14:40:16.75Z</time></trkpt><trkpt lat="45.6106337" lon="12.597053"><ele>-1.0</ele><time>2026-03-29T14:40:17.73Z</time></trkpt><trkpt lat="45.6104268" lon="12.5969914"><ele>-1.0</ele><time>2026-03-29T14:40:18.738Z</time></trkpt><trkpt lat="45.610221" lon="12.5969293"><ele>-1.0</ele><time>2026-03-29T14:40:19.734Z</time></trkpt><trkpt lat="45.6100179" lon="12.5968689"><ele>-1.0</ele><time>2026-03-29T14:40:20.735Z</time></trkpt><trkpt lat="45.6098168" lon="12.5968122"><ele>-1.0</ele><time>2026-03-29T14:40:21.731Z</time></trkpt><trkpt lat="45.6096172" lon="12.5967545"><ele>-0.6666666666666666</ele><time>2026-03-29T14:40:22.734Z</time></trkpt><trkpt lat="45.6094194" lon="12.5966989"><ele>-0.3333333333333333</ele><time>2026-03-29T14:40:23.721Z</time></trkpt><trkpt lat="45.6092234" lon="12.5966451"><ele>0.0</ele><time>2026-03-29T14:40:24.72Z</time></trkpt><trkpt lat="45.6090289" lon="12.5965926"><ele>0.0</ele><time>2026-03-29T14:40:25.734Z</time></trkpt><trkpt lat="45.608837" lon="12.5965466"><ele>0.0</ele><time>2026-03-29T14:40:26.734Z</time></trkpt><trkpt lat="45.6086504" lon="12.5964938"><ele>0.0</ele><time>2026-03-29T14:40:27.727Z</time></trkpt><trkpt lat="45.6084673" lon="12.5964441"><ele>-0.6666666666666666</ele><time>2026-03-29T14:40:28.727Z</time></trkpt><trkpt lat="45.6082882" lon="12.5963935"><ele>-1.3333333333333333</ele><time>2026-03-29T14:40:29.708Z</time></trkpt><trkpt lat="45.6081121" lon="12.5963444"><ele>-2.0</ele><time>2026-03-29T14:40:30.722Z</time></trkpt><trkpt lat="45.6079384" lon="12.5962855"><ele>-2.0</ele><time>2026-03-29T14:40:31.722Z</time></trkpt><trkpt lat="45.607764" lon="12.5962348"><ele>-2.0</ele><time>2026-03-29T14:40:32.722Z</time></trkpt><trkpt lat="45.6075896" lon="12.5961889"><ele>-2.0</ele><time>2026-03-29T14:40:33.722Z</time></trkpt><trkpt lat="45.6074159" lon="12.5961384"><ele>-1.6666666666666665</ele><time>2026-03-29T14:40:34.723Z</time></trkpt><trkpt lat="45.6072403" lon="12.5960902"><ele>-1.3333333333333333</ele><time>2026-03-29T14:40:35.726Z</time></trkpt><trkpt lat="45.6070622" lon="12.5960367"><ele>-1.0</ele><time>2026-03-29T14:40:36.74Z</time></trkpt><trkpt lat="45.6068807" lon="12.5959885"><ele>0.33333333333333337</ele><time>2026-03-29T14:40:37.733Z</time></trkpt><trkpt lat="45.606698" lon="12.5959392"><ele>1.6666666666666667</ele><time>2026-03-29T14:40:38.749Z</time></trkpt><trkpt lat="45.606516" lon="12.5958845"><ele>3.0</ele><time>2026-03-29T14:40:39.738Z</time></trkpt><trkpt lat="45.6063319" lon="12.5958301"><ele>3.333333333333333</ele><time>2026-03-29T14:40:40.725Z</time></trkpt><trkpt lat="45.6061453" lon="12.5957809"><ele>3.6666666666666665</ele><time>2026-03-29T14:40:41.729Z</time></trkpt><trkpt lat="45.6059602" lon="12.5957259"><ele>4.0</ele><time>2026-03-29T14:40:42.728Z</time></trkpt><trkpt lat="45.6057736" lon="12.5956698"><ele>4.0</ele><time>2026-03-29T14:40:43.737Z</time></trkpt><trkpt lat="45.6055842" lon="12.5956155"><ele>4.0</ele><time>2026-03-29T14:40:44.725Z</time></trkpt><trkpt lat="45.6053921" lon="12.5955626"><ele>4.0</ele><time>2026-03-29T14:40:45.734Z</time></trkpt><trkpt lat="45.6051955" lon="12.5955089"><ele>2.6666666666666665</ele><time>2026-03-29T14:40:46.743Z</time></trkpt><trkpt lat="45.6049936" lon="12.5954539"><ele>1.3333333333333333</ele><time>2026-03-29T14:40:47.729Z</time></trkpt><trkpt lat="45.6047895" lon="12.5953923"><ele>0.0</ele><time>2026-03-29T14:40:48.733Z</time></trkpt><trkpt lat="45.6045854" lon="12.5953313"><ele>-0.3333333333333333</ele><time>2026-03-29T14:40:49.724Z</time></trkpt><trkpt lat="45.6043816" lon="12.5952634"><ele>-0.6666666666666666</ele><time>2026-03-29T14:40:50.719Z</time></trkpt><trkpt lat="45.6041752" lon="12.5952135"><ele>-1.0</ele><time>2026-03-29T14:40:51.72Z</time></trkpt><trkpt lat="45.6039741" lon="12.5951369"><ele>-1.0</ele><time>2026-03-29T14:40:52.733Z</time></trkpt><trkpt lat="45.6037716" lon="12.5950828"><ele>-1.0</ele><time>2026-03-29T14:40:53.742Z</time></trkpt><trkpt lat="45.6035727" lon="12.5950207"><ele>-1.0</ele><time>2026-03-29T14:40:54.719Z</time></trkpt><trkpt lat="45.6033743" lon="12.594963"><ele>-0.3333333333333333</ele><time>2026-03-29T14:40:55.736Z</time></trkpt><trkpt lat="45.6031758" lon="12.5949104"><ele>0.3333333333333333</ele><time>2026-03-29T14:40:56.74Z</time></trkpt><trkpt lat="45.6029784" lon="12.5948575"><ele>1.0</ele><time>2026-03-29T14:40:57.731Z</time></trkpt><trkpt lat="45.6027818" lon="12.5948039"><ele>1.0</ele><time>2026-03-29T14:40:58.734Z</time></trkpt><trkpt lat="45.602585" lon="12.5947515"><ele>1.0</ele><time>2026-03-29T14:40:59.723Z</time></trkpt><trkpt lat="45.6023884" lon="12.5946979"><ele>1.0</ele><time>2026-03-29T14:41:00.735Z</time></trkpt><trkpt lat="45.6021938" lon="12.5946329"><ele>1.0</ele><time>2026-03-29T14:41:01.712Z</time></trkpt><trkpt lat="45.6019977" lon="12.5945802"><ele>1.0</ele><time>2026-03-29T14:41:02.731Z</time></trkpt><trkpt lat="45.6018036" lon="12.5945166"><ele>1.0</ele><time>2026-03-29T14:41:03.719Z</time></trkpt><trkpt lat="45.6016083" lon="12.5944629"><ele>1.0</ele><time>2026-03-29T14:41:04.735Z</time></trkpt><trkpt lat="45.601412" lon="12.5944102"><ele>1.0</ele><time>2026-03-29T14:41:05.722Z</time></trkpt><trkpt lat="45.6012143" lon="12.5943504"><ele>1.0</ele><time>2026-03-29T14:41:06.726Z</time></trkpt><trkpt lat="45.6010157" lon="12.5942897"><ele>1.3333333333333333</ele><time>2026-03-29T14:41:07.732Z</time></trkpt><trkpt lat="45.6008155" lon="12.5942407"><ele>1.6666666666666665</ele><time>2026-03-29T14:41:08.741Z</time></trkpt><trkpt lat="45.6006164" lon="12.5941878"><ele>2.0</ele><time>2026-03-29T14:41:09.719Z</time></trkpt><trkpt lat="45.6004175" lon="12.5941322"><ele>1.3333333333333333</ele><time>2026-03-29T14:41:10.734Z</time></trkpt><trkpt lat="45.6002159" lon="12.5941046"><ele>0.6666666666666666</ele><time>2026-03-29T14:41:11.735Z</time></trkpt><trkpt lat="45.6000209" lon="12.5940218"><ele>0.0</ele><time>2026-03-29T14:41:12.718Z</time></trkpt><trkpt lat="45.5998256" lon="12.5939504"><ele>0.0</ele><time>2026-03-29T14:41:13.739Z</time></trkpt><trkpt lat="45.5996301" lon="12.5938916"><ele>0.0</ele><time>2026-03-29T14:41:14.737Z</time></trkpt><trkpt lat="45.5994349" lon="12.5938341"><ele>0.0</ele><time>2026-03-29T14:41:15.73Z</time></trkpt><trkpt lat="45.5992379" lon="12.5937751"><ele>0.0</ele><time>2026-03-29T14:41:16.731Z</time></trkpt><trkpt lat="45.5990382" lon="12.5937181"><ele>0.0</ele><time>2026-03-29T14:41:17.733Z</time></trkpt><trkpt lat="45.5988356" lon="12.5936595"><ele>0.0</ele><time>2026-03-29T14:41:18.723Z</time></trkpt><trkpt lat="45.598629" lon="12.5936023"><ele>0.0</ele><time>2026-03-29T14:41:19.72Z</time></trkpt><trkpt lat="45.5984205" lon="12.5935415"><ele>0.0</ele><time>2026-03-29T14:41:20.727Z</time></trkpt><trkpt lat="45.5982096" lon="12.5934803"><ele>0.0</ele><time>2026-03-29T14:41:21.727Z</time></trkpt><trkpt lat="45.5979975" lon="12.593411"><ele>0.0</ele><time>2026-03-29T14:41:22.734Z</time></trkpt><trkpt lat="45.5977823" lon="12.5933483"><ele>0.0</ele><time>2026-03-29T14:41:23.722Z</time></trkpt><trkpt lat="45.5975649" lon="12.5932902"><ele>0.0</ele><time>2026-03-29T14:41:24.722Z</time></trkpt><trkpt lat="45.5973471" lon="12.5932311"><ele>0.0</ele><time>2026-03-29T14:41:25.725Z</time></trkpt><trkpt lat="45.5971304" lon="12.5931745"><ele>0.0</ele><time>2026-03-29T14:41:26.724Z</time></trkpt><trkpt lat="45.5969138" lon="12.5931274"><ele>0.0</ele><time>2026-03-29T14:41:27.751Z</time></trkpt><trkpt lat="45.5966976" lon="12.5930837"><ele>0.0</ele><time>2026-03-29T14:41:28.753Z</time></trkpt><trkpt lat="45.5964841" lon="12.5930512"><ele>0.0</ele><time>2026-03-29T14:41:29.749Z</time></trkpt><trkpt lat="45.5962757" lon="12.5930383"><ele>0.0</ele><time>2026-03-29T14:41:30.728Z</time></trkpt><trkpt lat="45.5960683" lon="12.5930356"><ele>-0.3333333333333333</ele><time>2026-03-29T14:41:31.723Z</time></trkpt><trkpt lat="45.5958651" lon="12.5930438"><ele>-0.6666666666666666</ele><time>2026-03-29T14:41:32.753Z</time></trkpt><trkpt lat="45.595666" lon="12.5930521"><ele>-1.0</ele><time>2026-03-29T14:41:33.73Z</time></trkpt><trkpt lat="45.5954689" lon="12.5930691"><ele>-0.6666666666666666</ele><time>2026-03-29T14:41:34.718Z</time></trkpt><trkpt lat="45.5952706" lon="12.5931021"><ele>-0.3333333333333333</ele><time>2026-03-29T14:41:35.718Z</time></trkpt><trkpt lat="45.5950726" lon="12.5931478"><ele>0.0</ele><time>2026-03-29T14:41:36.723Z</time></trkpt><trkpt lat="45.5948776" lon="12.5932005"><ele>0.0</ele><time>2026-03-29T14:41:37.729Z</time></trkpt><trkpt lat="45.5946863" lon="12.5932553"><ele>0.0</ele><time>2026-03-29T14:41:38.721Z</time></trkpt><trkpt lat="45.5944974" lon="12.5933066"><ele>0.0</ele><time>2026-03-29T14:41:39.712Z</time></trkpt><trkpt lat="45.5943095" lon="12.5933558"><ele>-0.3333333333333333</ele><time>2026-03-29T14:41:40.729Z</time></trkpt><trkpt lat="45.5941254" lon="12.5934019"><ele>-0.6666666666666666</ele><time>2026-03-29T14:41:41.703Z</time></trkpt><trkpt lat="45.5939428" lon="12.5934507"><ele>-1.0</ele><time>2026-03-29T14:41:42.725Z</time></trkpt><trkpt lat="45.5937598" lon="12.5934884"><ele>-1.3333333333333333</ele><time>2026-03-29T14:41:43.728Z</time></trkpt><trkpt lat="45.5935797" lon="12.5935454"><ele>-1.6666666666666665</ele><time>2026-03-29T14:41:44.715Z</time></trkpt><trkpt lat="45.5934026" lon="12.5936049"><ele>-2.0</ele><time>2026-03-29T14:41:45.724Z</time></trkpt><trkpt lat="45.59323" lon="12.593658"><ele>-1.6666666666666665</ele><time>2026-03-29T14:41:46.717Z</time></trkpt><trkpt lat="45.5930646" lon="12.5937004"><ele>-1.3333333333333333</ele><time>2026-03-29T14:41:47.726Z</time></trkpt><trkpt lat="45.5929095" lon="12.5937419"><ele>-1.0</ele><time>2026-03-29T14:41:48.73Z</time></trkpt><trkpt lat="45.592766" lon="12.5937733"><ele>-1.5</ele><time>2026-03-29T14:41:49.732Z</time></trkpt><trkpt lat="45.5926348" lon="12.593801"><ele>-2.0</ele><time>2026-03-29T14:41:50.719Z</time></trkpt><trkpt lat="45.5925129" lon="12.5938207"><ele>-2.5</ele><time>2026-03-29T14:41:51.723Z</time></trkpt><trkpt lat="45.5923957" lon="12.5938168"><ele>-3.0</ele><time>2026-03-29T14:41:52.72Z</time></trkpt><trkpt lat="45.5922844" lon="12.5937824"><ele>-3.0</ele><time>2026-03-29T14:41:53.72Z</time></trkpt><trkpt lat="45.5921802" lon="12.5937146"><ele>-3.0</ele><time>2026-03-29T14:41:54.738Z</time></trkpt><trkpt lat="45.5920881" lon="12.5936077"><ele>-3.0</ele><time>2026-03-29T14:41:55.738Z</time></trkpt><trkpt lat="45.5920058" lon="12.5934735"><ele>-3.0</ele><time>2026-03-29T14:41:56.733Z</time></trkpt><trkpt lat="45.5919264" lon="12.5933268"><ele>-2.5</ele><time>2026-03-29T14:41:57.73Z</time></trkpt><trkpt lat="45.5918306" lon="12.5931939"><ele>-2.0</ele><time>2026-03-29T14:41:58.723Z</time></trkpt><trkpt lat="45.5917162" lon="12.5930878"><ele>-1.5</ele><time>2026-03-29T14:41:59.722Z</time></trkpt><trkpt lat="45.5915976" lon="12.5929944"><ele>-1.0</ele><time>2026-03-29T14:42:00.722Z</time></trkpt><trkpt lat="45.5914686" lon="12.5929324"><ele>-1.0</ele><time>2026-03-29T14:42:01.738Z</time></trkpt><trkpt lat="45.5913286" lon="12.5929031"><ele>-1.0</ele><time>2026-03-29T14:42:02.727Z</time></trkpt><trkpt lat="45.591181" lon="12.5929212"><ele>-1.0</ele><time>2026-03-29T14:42:03.715Z</time></trkpt><trkpt lat="45.5910356" lon="12.5929737"><ele>-1.0</ele><time>2026-03-29T14:42:04.727Z</time></trkpt><trkpt lat="45.5908957" lon="12.5930584"><ele>-1.0</ele><time>2026-03-29T14:42:05.712Z</time></trkpt><trkpt lat="45.590768" lon="12.5931782"><ele>-1.0</ele><time>2026-03-29T14:42:06.72Z</time></trkpt><trkpt lat="45.5906584" lon="12.5933208"><ele>-1.0</ele><time>2026-03-29T14:42:07.723Z</time></trkpt><trkpt lat="45.5905734" lon="12.5934816"><ele>-1.0</ele><time>2026-03-29T14:42:08.722Z</time></trkpt><trkpt lat="45.5905079" lon="12.5936607"><ele>-0.75</ele><time>2026-03-29T14:42:09.734Z</time></trkpt><trkpt lat="45.5904608" lon="12.5938508"><ele>-0.5</ele><time>2026-03-29T14:42:10.73Z</time></trkpt><trkpt lat="45.5904386" lon="12.5940548"><ele>-0.25</ele><time>2026-03-29T14:42:11.733Z</time></trkpt><trkpt lat="45.590428" lon="12.5942619"><ele>0.0</ele><time>2026-03-29T14:42:12.754Z</time></trkpt><trkpt lat="45.5904526" lon="12.5944663"><ele>0.0</ele><time>2026-03-29T14:42:13.723Z</time></trkpt><trkpt lat="45.590498" lon="12.5946524"><ele>0.0</ele><time>2026-03-29T14:42:14.702Z</time></trkpt><trkpt lat="45.590571" lon="12.5948161"><ele>0.0</ele><time>2026-03-29T14:42:15.731Z</time></trkpt><trkpt lat="45.5906709" lon="12.5949561"><ele>0.0</ele><time>2026-03-29T14:42:16.725Z</time></trkpt><trkpt lat="45.5907796" lon="12.5950829"><ele>0.0</ele><time>2026-03-29T14:42:17.705Z</time></trkpt><trkpt lat="45.5908947" lon="12.5951945"><ele>0.0</ele><time>2026-03-29T14:42:18.719Z</time></trkpt><trkpt lat="45.5910419" lon="12.5952522"><ele>0.0</ele><time>2026-03-29T14:42:19.736Z</time></trkpt><trkpt lat="45.5911835" lon="12.5952951"><ele>0.0</ele><time>2026-03-29T14:42:20.709Z</time></trkpt><trkpt lat="45.5913198" lon="12.5953001"><ele>0.25</ele><time>2026-03-29T14:42:21.718Z</time></trkpt><trkpt lat="45.5914508" lon="12.5952988"><ele>0.5</ele><time>2026-03-29T14:42:22.719Z</time></trkpt><trkpt lat="45.5915757" lon="12.5952732"><ele>0.75</ele><time>2026-03-29T14:42:23.717Z</time></trkpt><trkpt lat="45.5916885" lon="12.5952974"><ele>1.0</ele><time>2026-03-29T14:42:24.729Z</time></trkpt><trkpt lat="45.5917914" lon="12.595362"><ele>1.0</ele><time>2026-03-29T14:42:25.712Z</time></trkpt><trkpt lat="45.591887" lon="12.5954455"><ele>1.0</ele><time>2026-03-29T14:42:26.713Z</time></trkpt><trkpt lat="45.5919659" lon="12.5955672"><ele>1.0</ele><time>2026-03-29T14:42:27.738Z</time></trkpt><trkpt lat="45.5920348" lon="12.5957142"><ele>1.0</ele><time>2026-03-29T14:42:28.737Z</time></trkpt><trkpt lat="45.5920962" lon="12.5958808"><ele>0.75</ele><time>2026-03-29T14:42:29.724Z</time></trkpt><trkpt lat="45.5921571" lon="12.5960462"><ele>0.5</ele><time>2026-03-29T14:42:30.73Z</time></trkpt><trkpt lat="45.5922164" lon="12.5962081"><ele>0.25</ele><time>2026-03-29T14:42:31.735Z</time></trkpt><trkpt lat="45.5922747" lon="12.5963629"><ele>0.0</ele><time>2026-03-29T14:42:32.722Z</time></trkpt><trkpt lat="45.5923329" lon="12.5965075"><ele>0.0</ele><time>2026-03-29T14:42:33.733Z</time></trkpt><trkpt lat="45.5923781" lon="12.5966534"><ele>0.0</ele><time>2026-03-29T14:42:34.73Z</time></trkpt><trkpt lat="45.5924237" lon="12.596791"><ele>0.0</ele><time>2026-03-29T14:42:35.727Z</time></trkpt><trkpt lat="45.5924749" lon="12.5969163"><ele>0.0</ele><time>2026-03-29T14:42:36.731Z</time></trkpt><trkpt lat="45.5925277" lon="12.5970282"><ele>0.0</ele><time>2026-03-29T14:42:37.711Z</time></trkpt><trkpt lat="45.5925699" lon="12.5971301"><ele>0.16666666666666666</ele><time>2026-03-29T14:42:38.701Z</time></trkpt><trkpt lat="45.5925982" lon="12.5972169"><ele>0.3333333333333333</ele><time>2026-03-29T14:42:39.714Z</time></trkpt><trkpt lat="45.5926116" lon="12.5973903"><ele>0.5</ele><time>2026-03-29T14:42:41.718Z</time></trkpt><trkpt lat="45.5925864" lon="12.5974948"><ele>0.6666666666666666</ele><time>2026-03-29T14:42:42.728Z</time></trkpt><trkpt lat="45.5925329" lon="12.5975845"><ele>0.8333333333333333</ele><time>2026-03-29T14:42:43.713Z</time></trkpt><trkpt lat="45.5924542" lon="12.5976633"><ele>1.0</ele><time>2026-03-29T14:42:44.731Z</time></trkpt><trkpt lat="45.592349" lon="12.5977171"><ele>1.0</ele><time>2026-03-29T14:42:45.727Z</time></trkpt><trkpt lat="45.592238" lon="12.597789"><ele>1.0</ele><time>2026-03-29T14:42:46.741Z</time></trkpt><trkpt lat="45.5921265" lon="12.5978422"><ele>1.0</ele><time>2026-03-29T14:42:47.724Z</time></trkpt><trkpt lat="45.5920162" lon="12.597887"><ele>1.0</ele><time>2026-03-29T14:42:48.73Z</time></trkpt><trkpt lat="45.591895" lon="12.5979132"><ele>0.75</ele><time>2026-03-29T14:42:49.715Z</time></trkpt><trkpt lat="45.5917694" lon="12.5979189"><ele>0.5</ele><time>2026-03-29T14:42:50.719Z</time></trkpt><trkpt lat="45.5916515" lon="12.5979466"><ele>0.25</ele><time>2026-03-29T14:42:51.722Z</time></trkpt><trkpt lat="45.5915389" lon="12.5980019"><ele>0.0</ele><time>2026-03-29T14:42:52.726Z</time></trkpt><trkpt lat="45.5914493" lon="12.5981258"><ele>0.0</ele><time>2026-03-29T14:42:53.73Z</time></trkpt><trkpt lat="45.5913745" lon="12.5982707"><ele>0.0</ele><time>2026-03-29T14:42:54.735Z</time></trkpt><trkpt lat="45.5912936" lon="12.598417"><ele>0.0</ele><time>2026-03-29T14:42:55.71Z</time></trkpt><trkpt lat="45.5911893" lon="12.5985437"><ele>0.0</ele><time>2026-03-29T14:42:56.725Z</time></trkpt><trkpt lat="45.591057" lon="12.5986413"><ele>0.3333333333333333</ele><time>2026-03-29T14:42:57.738Z</time></trkpt><trkpt lat="45.5909065" lon="12.5987246"><ele>0.6666666666666666</ele><time>2026-03-29T14:42:58.727Z</time></trkpt><trkpt lat="45.5907477" lon="12.5988183"><ele>1.0</ele><time>2026-03-29T14:42:59.734Z</time></trkpt><trkpt lat="45.59058" lon="12.598902"><ele>1.0</ele><time>2026-03-29T14:43:00.728Z</time></trkpt><trkpt lat="45.5904062" lon="12.5989893"><ele>1.0</ele><time>2026-03-29T14:43:01.731Z</time></trkpt><trkpt lat="45.5902248" lon="12.5990825"><ele>1.0</ele><time>2026-03-29T14:43:02.721Z</time></trkpt><trkpt lat="45.5900375" lon="12.5991787"><ele>1.0</ele><time>2026-03-29T14:43:03.723Z</time></trkpt><trkpt lat="45.589849" lon="12.5992784"><ele>1.0</ele><time>2026-03-29T14:43:04.722Z</time></trkpt><trkpt lat="45.5896631" lon="12.5993781"><ele>1.0</ele><time>2026-03-29T14:43:05.724Z</time></trkpt><trkpt lat="45.5894826" lon="12.5994848"><ele>0.6666666666666666</ele><time>2026-03-29T14:43:06.705Z</time></trkpt><trkpt lat="45.5893045" lon="12.599589"><ele>0.3333333333333333</ele><time>2026-03-29T14:43:07.739Z</time></trkpt><trkpt lat="45.5891322" lon="12.5996955"><ele>0.0</ele><time>2026-03-29T14:43:08.726Z</time></trkpt><trkpt lat="45.5889616" lon="12.5997902"><ele>0.0</ele><time>2026-03-29T14:43:09.728Z</time></trkpt><trkpt lat="45.5887949" lon="12.5998919"><ele>0.0</ele><time>2026-03-29T14:43:10.731Z</time></trkpt><trkpt lat="45.5886281" lon="12.5999887"><ele>0.0</ele><time>2026-03-29T14:43:11.723Z</time></trkpt><trkpt lat="45.5884622" lon="12.6000852"><ele>-0.3333333333333333</ele><time>2026-03-29T14:43:12.74Z</time></trkpt><trkpt lat="45.5882984" lon="12.6001812"><ele>-0.6666666666666666</ele><time>2026-03-29T14:43:13.734Z</time></trkpt><trkpt lat="45.588133" lon="12.6002665"><ele>-1.0</ele><time>2026-03-29T14:43:14.724Z</time></trkpt><trkpt lat="45.5879713" lon="12.6003697"><ele>-0.3333333333333333</ele><time>2026-03-29T14:43:15.738Z</time></trkpt><trkpt lat="45.5878054" lon="12.600452"><ele>0.3333333333333333</ele><time>2026-03-29T14:43:16.737Z</time></trkpt><trkpt lat="45.5876403" lon="12.6005365"><ele>1.0</ele><time>2026-03-29T14:43:17.724Z</time></trkpt><trkpt lat="45.5874686" lon="12.6006235"><ele>1.0</ele><time>2026-03-29T14:43:18.725Z</time></trkpt><trkpt lat="45.5872827" lon="12.600674"><ele>1.0</ele><time>2026-03-29T14:43:19.729Z</time></trkpt><trkpt lat="45.5870907" lon="12.6007069"><ele>1.0</ele><time>2026-03-29T14:43:20.731Z</time></trkpt><trkpt lat="45.5868933" lon="12.6007365"><ele>1.0</ele><time>2026-03-29T14:43:21.732Z</time></trkpt><trkpt lat="45.5866902" lon="12.6007583"><ele>1.0</ele><time>2026-03-29T14:43:22.742Z</time></trkpt><trkpt lat="45.586485" lon="12.6007864"><ele>1.0</ele><time>2026-03-29T14:43:23.746Z</time></trkpt><trkpt lat="45.5862811" lon="12.6008191"><ele>1.0</ele><time>2026-03-29T14:43:24.742Z</time></trkpt><trkpt lat="45.5860801" lon="12.6008658"><ele>1.0</ele><time>2026-03-29T14:43:25.731Z</time></trkpt><trkpt lat="45.5858826" lon="12.6009024"><ele>1.0</ele><time>2026-03-29T14:43:26.731Z</time></trkpt><trkpt lat="45.5856917" lon="12.6009357"><ele>1.0</ele><time>2026-03-29T14:43:27.722Z</time></trkpt><trkpt lat="45.5855107" lon="12.6009736"><ele>1.0</ele><time>2026-03-29T14:43:28.73Z</time></trkpt><trkpt lat="45.585339" lon="12.6010102"><ele>1.0</ele><time>2026-03-29T14:43:29.719Z</time></trkpt><trkpt lat="45.5851748" lon="12.6010497"><ele>1.0</ele><time>2026-03-29T14:43:30.734Z</time></trkpt><trkpt lat="45.585017" lon="12.6010845"><ele>1.0</ele><time>2026-03-29T14:43:31.736Z</time></trkpt><trkpt lat="45.584867" lon="12.6011378"><ele>1.0</ele><time>2026-03-29T14:43:32.721Z</time></trkpt><trkpt lat="45.5847207" lon="12.6012212"><ele>0.3333333333333333</ele><time>2026-03-29T14:43:33.738Z</time></trkpt><trkpt lat="45.584575" lon="12.6013396"><ele>-0.3333333333333333</ele><time>2026-03-29T14:43:34.728Z</time></trkpt><trkpt lat="45.5844259" lon="12.6014818"><ele>-1.0</ele><time>2026-03-29T14:43:35.735Z</time></trkpt><trkpt lat="45.5842736" lon="12.6016432"><ele>-1.0</ele><time>2026-03-29T14:43:36.744Z</time></trkpt><trkpt lat="45.5841196" lon="12.6018236"><ele>-1.0</ele><time>2026-03-29T14:43:37.735Z</time></trkpt><trkpt lat="45.583969" lon="12.6020256"><ele>-1.0</ele><time>2026-03-29T14:43:38.734Z</time></trkpt><trkpt lat="45.5838163" lon="12.6022377"><ele>-1.0</ele><time>2026-03-29T14:43:39.727Z</time></trkpt><trkpt lat="45.5836585" lon="12.6024523"><ele>-1.0</ele><time>2026-03-29T14:43:40.73Z</time></trkpt><trkpt lat="45.5835005" lon="12.6026697"><ele>-1.0</ele><time>2026-03-29T14:43:41.719Z</time></trkpt><trkpt lat="45.5833477" lon="12.6028932"><ele>-1.0</ele><time>2026-03-29T14:43:42.732Z</time></trkpt><trkpt lat="45.5831947" lon="12.6031102"><ele>-1.0</ele><time>2026-03-29T14:43:43.736Z</time></trkpt><trkpt lat="45.5830445" lon="12.6033222"><ele>-1.0</ele><time>2026-03-29T14:43:44.73Z</time></trkpt><trkpt lat="45.5828925" lon="12.6035214"><ele>-1.3333333333333333</ele><time>2026-03-29T14:43:45.721Z</time></trkpt><trkpt lat="45.5827468" lon="12.603723"><ele>-1.6666666666666665</ele><time>2026-03-29T14:43:46.729Z</time></trkpt><trkpt lat="45.5826097" lon="12.6039337"><ele>-2.0</ele><time>2026-03-29T14:43:47.711Z</time></trkpt><trkpt lat="45.5824702" lon="12.6041375"><ele>-2.0</ele><time>2026-03-29T14:43:48.726Z</time></trkpt><trkpt lat="45.5823281" lon="12.6043345"><ele>-2.0</ele><time>2026-03-29T14:43:49.736Z</time></trkpt><trkpt lat="45.5821874" lon="12.6045333"><ele>-2.0</ele><time>2026-03-29T14:43:50.753Z</time></trkpt><trkpt lat="45.5820472" lon="12.6047335"><ele>-1.3333333333333333</ele><time>2026-03-29T14:43:51.73Z</time></trkpt><trkpt lat="45.5819067" lon="12.6049351"><ele>-0.6666666666666666</ele><time>2026-03-29T14:43:52.733Z</time></trkpt><trkpt lat="45.581766" lon="12.6051363"><ele>0.0</ele><time>2026-03-29T14:43:53.745Z</time></trkpt><trkpt lat="45.5816325" lon="12.6053409"><ele>0.0</ele><time>2026-03-29T14:43:54.738Z</time></trkpt><trkpt lat="45.5814996" lon="12.6055314"><ele>0.0</ele><time>2026-03-29T14:43:55.733Z</time></trkpt><trkpt lat="45.58137" lon="12.6057148"><ele>0.0</ele><time>2026-03-29T14:43:56.72Z</time></trkpt><trkpt lat="45.5812443" lon="12.6058969"><ele>0.0</ele><time>2026-03-29T14:43:57.727Z</time></trkpt><trkpt lat="45.5811164" lon="12.6060741"><ele>0.0</ele><time>2026-03-29T14:43:58.717Z</time></trkpt><trkpt lat="45.5809945" lon="12.6062619"><ele>0.0</ele><time>2026-03-29T14:43:59.739Z</time></trkpt><trkpt lat="45.5808619" lon="12.6064346"><ele>-0.3333333333333333</ele><time>2026-03-29T14:44:00.747Z</time></trkpt><trkpt lat="45.5807296" lon="12.6066171"><ele>-0.6666666666666666</ele><time>2026-03-29T14:44:01.713Z</time></trkpt><trkpt lat="45.580596" lon="12.6068089"><ele>-1.0</ele><time>2026-03-29T14:44:02.747Z</time></trkpt><trkpt lat="45.5804577" lon="12.607008"><ele>-0.3333333333333333</ele><time>2026-03-29T14:44:03.731Z</time></trkpt><trkpt lat="45.580316" lon="12.6072125"><ele>0.3333333333333333</ele><time>2026-03-29T14:44:04.74Z</time></trkpt><trkpt lat="45.5801702" lon="12.607421"><ele>1.0</ele><time>2026-03-29T14:44:05.743Z</time></trkpt><trkpt lat="45.5800213" lon="12.607633"><ele>0.6666666666666666</ele><time>2026-03-29T14:44:06.744Z</time></trkpt><trkpt lat="45.5798696" lon="12.60785"><ele>0.3333333333333333</ele><time>2026-03-29T14:44:07.717Z</time></trkpt><trkpt lat="45.5797156" lon="12.6080708"><ele>0.0</ele><time>2026-03-29T14:44:08.746Z</time></trkpt><trkpt lat="45.579561" lon="12.6082937"><ele>0.0</ele><time>2026-03-29T14:44:09.72Z</time></trkpt><trkpt lat="45.5794054" lon="12.608516"><ele>0.0</ele><time>2026-03-29T14:44:10.724Z</time></trkpt><trkpt lat="45.5792499" lon="12.6087372"><ele>0.0</ele><time>2026-03-29T14:44:11.73Z</time></trkpt><trkpt lat="45.5790939" lon="12.6089539"><ele>0.0</ele><time>2026-03-29T14:44:12.73Z</time></trkpt><trkpt lat="45.5789435" lon="12.6091727"><ele>0.0</ele><time>2026-03-29T14:44:13.73Z</time></trkpt><trkpt lat="45.5787911" lon="12.6093856"><ele>0.0</ele><time>2026-03-29T14:44:14.733Z</time></trkpt><trkpt lat="45.5786427" lon="12.6096006"><ele>0.0</ele><time>2026-03-29T14:44:15.738Z</time></trkpt><trkpt lat="45.5784946" lon="12.6098113"><ele>0.0</ele><time>2026-03-29T14:44:16.722Z</time></trkpt><trkpt lat="45.5783469" lon="12.6100198"><ele>0.0</ele><time>2026-03-29T14:44:17.74Z</time></trkpt><trkpt lat="45.5782011" lon="12.6102288"><ele>0.0</ele><time>2026-03-29T14:44:18.723Z</time></trkpt><trkpt lat="45.5780547" lon="12.6104353"><ele>0.0</ele><time>2026-03-29T14:44:19.734Z</time></trkpt><trkpt lat="45.5779091" lon="12.6106398"><ele>0.0</ele><time>2026-03-29T14:44:20.734Z</time></trkpt><trkpt lat="45.5777651" lon="12.6108417"><ele>-0.3333333333333333</ele><time>2026-03-29T14:44:21.739Z</time></trkpt><trkpt lat="45.5776252" lon="12.6110448"><ele>-0.6666666666666666</ele><time>2026-03-29T14:44:22.719Z</time></trkpt><trkpt lat="45.5774862" lon="12.6112468"><ele>-1.0</ele><time>2026-03-29T14:44:23.742Z</time></trkpt><trkpt lat="45.5773477" lon="12.6114453"><ele>-1.0</ele><time>2026-03-29T14:44:24.726Z</time></trkpt><trkpt lat="45.5772093" lon="12.611639"><ele>-1.0</ele><time>2026-03-29T14:44:25.715Z</time></trkpt><trkpt lat="45.5770716" lon="12.6118308"><ele>-1.0</ele><time>2026-03-29T14:44:26.719Z</time></trkpt><trkpt lat="45.5769347" lon="12.6120214"><ele>-1.0</ele><time>2026-03-29T14:44:27.734Z</time></trkpt><trkpt lat="45.5767991" lon="12.6122131"><ele>-1.0</ele><time>2026-03-29T14:44:28.718Z</time></trkpt><trkpt lat="45.5766629" lon="12.6124058"><ele>-1.0</ele><time>2026-03-29T14:44:29.751Z</time></trkpt><trkpt lat="45.5765266" lon="12.6126005"><ele>-1.0</ele><time>2026-03-29T14:44:30.734Z</time></trkpt><trkpt lat="45.5763893" lon="12.6127955"><ele>-1.0</ele><time>2026-03-29T14:44:31.741Z</time></trkpt><trkpt lat="45.5762512" lon="12.6129907"><ele>-1.0</ele><time>2026-03-29T14:44:32.738Z</time></trkpt><trkpt lat="45.5761133" lon="12.6131862"><ele>-1.0</ele><time>2026-03-29T14:44:33.718Z</time></trkpt><trkpt lat="45.5759753" lon="12.6133816"><ele>-1.0</ele><time>2026-03-29T14:44:34.711Z</time></trkpt><trkpt lat="45.5758387" lon="12.6135782"><ele>-1.0</ele><time>2026-03-29T14:44:35.723Z</time></trkpt><trkpt lat="45.5757069" lon="12.6137799"><ele>-1.3333333333333333</ele><time>2026-03-29T14:44:36.721Z</time></trkpt><trkpt lat="45.5755694" lon="12.613972"><ele>-1.6666666666666665</ele><time>2026-03-29T14:44:37.711Z</time></trkpt><trkpt lat="45.575433" lon="12.6141649"><ele>-2.0</ele><time>2026-03-29T14:44:38.718Z</time></trkpt><trkpt lat="45.5752967" lon="12.6143551"><ele>-1.6666666666666665</ele><time>2026-03-29T14:44:39.72Z</time></trkpt><trkpt lat="45.575161" lon="12.614543"><ele>-1.3333333333333333</ele><time>2026-03-29T14:44:40.73Z</time></trkpt><trkpt lat="45.575026" lon="12.614723"><ele>-1.0</ele><time>2026-03-29T14:44:41.714Z</time></trkpt><trkpt lat="45.5749005" lon="12.6149016"><ele>-1.0</ele><time>2026-03-29T14:44:42.728Z</time></trkpt><trkpt lat="45.5747907" lon="12.6150874"><ele>-1.0</ele><time>2026-03-29T14:44:43.728Z</time></trkpt><trkpt lat="45.5746907" lon="12.6152595"><ele>-1.0</ele><time>2026-03-29T14:44:44.727Z</time></trkpt><trkpt lat="45.5745976" lon="12.6154161"><ele>-0.75</ele><time>2026-03-29T14:44:45.728Z</time></trkpt><trkpt lat="45.574511" lon="12.6155709"><ele>-0.5</ele><time>2026-03-29T14:44:46.719Z</time></trkpt><trkpt lat="45.574427" lon="12.6157273"><ele>-0.25</ele><time>2026-03-29T14:44:47.739Z</time></trkpt><trkpt lat="45.5743406" lon="12.6158857"><ele>0.0</ele><time>2026-03-29T14:44:48.731Z</time></trkpt><trkpt lat="45.5742487" lon="12.6160459"><ele>0.0</ele><time>2026-03-29T14:44:49.726Z</time></trkpt><trkpt lat="45.5741542" lon="12.6162148"><ele>0.0</ele><time>2026-03-29T14:44:50.727Z</time></trkpt><trkpt lat="45.5740606" lon="12.6163971"><ele>0.0</ele><time>2026-03-29T14:44:51.742Z</time></trkpt><trkpt lat="45.5739519" lon="12.6165685"><ele>0.0</ele><time>2026-03-29T14:44:52.729Z</time></trkpt><trkpt lat="45.5738437" lon="12.6167515"><ele>0.0</ele><time>2026-03-29T14:44:53.721Z</time></trkpt><trkpt lat="45.5737347" lon="12.61694"><ele>0.0</ele><time>2026-03-29T14:44:54.731Z</time></trkpt><trkpt lat="45.5736246" lon="12.6171369"><ele>-0.3333333333333333</ele><time>2026-03-29T14:44:55.731Z</time></trkpt><trkpt lat="45.5735121" lon="12.6173399"><ele>-0.6666666666666666</ele><time>2026-03-29T14:44:56.728Z</time></trkpt><trkpt lat="45.5733967" lon="12.617542"><ele>-1.0</ele><time>2026-03-29T14:44:57.737Z</time></trkpt><trkpt lat="45.5732828" lon="12.6177501"><ele>-0.6666666666666666</ele><time>2026-03-29T14:44:58.74Z</time></trkpt><trkpt lat="45.5731672" lon="12.6179592"><ele>-0.3333333333333333</ele><time>2026-03-29T14:44:59.715Z</time></trkpt><trkpt lat="45.57305" lon="12.6181673"><ele>0.0</ele><time>2026-03-29T14:45:00.732Z</time></trkpt><trkpt lat="45.5729316" lon="12.6183726"><ele>0.0</ele><time>2026-03-29T14:45:01.721Z</time></trkpt><trkpt lat="45.572813" lon="12.6185803"><ele>0.0</ele><time>2026-03-29T14:45:02.723Z</time></trkpt><trkpt lat="45.5726967" lon="12.6187868"><ele>0.0</ele><time>2026-03-29T14:45:03.725Z</time></trkpt><trkpt lat="45.5725799" lon="12.6189932"><ele>0.0</ele><time>2026-03-29T14:45:04.723Z</time></trkpt><trkpt lat="45.5724653" lon="12.6191995"><ele>0.0</ele><time>2026-03-29T14:45:05.723Z</time></trkpt><trkpt lat="45.57235" lon="12.6194042"><ele>0.0</ele><time>2026-03-29T14:45:06.719Z</time></trkpt><trkpt lat="45.5722346" lon="12.6196068"><ele>0.0</ele><time>2026-03-29T14:45:07.732Z</time></trkpt><trkpt lat="45.5721223" lon="12.6198124"><ele>0.0</ele><time>2026-03-29T14:45:08.731Z</time></trkpt><trkpt lat="45.572014" lon="12.6200245"><ele>0.0</ele><time>2026-03-29T14:45:09.73Z</time></trkpt><trkpt lat="45.5718998" lon="12.6202321"><ele>0.3333333333333333</ele><time>2026-03-29T14:45:10.723Z</time></trkpt><trkpt lat="45.5717786" lon="12.6204325"><ele>0.6666666666666666</ele><time>2026-03-29T14:45:11.728Z</time></trkpt><trkpt lat="45.571661" lon="12.6206375"><ele>1.0</ele><time>2026-03-29T14:45:12.72Z</time></trkpt><trkpt lat="45.5715442" lon="12.6208432"><ele>1.0</ele><time>2026-03-29T14:45:13.721Z</time></trkpt><trkpt lat="45.5714273" lon="12.6210486"><ele>1.0</ele><time>2026-03-29T14:45:14.735Z</time></trkpt><trkpt lat="45.5713167" lon="12.6212613"><ele>1.0</ele><time>2026-03-29T14:45:15.713Z</time></trkpt><trkpt lat="45.5712032" lon="12.6214699"><ele>0.0</ele><time>2026-03-29T14:45:16.723Z</time></trkpt><trkpt lat="45.571086" lon="12.6216742"><ele>-1.0</ele><time>2026-03-29T14:45:17.729Z</time></trkpt><trkpt lat="45.5709697" lon="12.6218769"><ele>-2.0</ele><time>2026-03-29T14:45:18.722Z</time></trkpt><trkpt lat="45.5708549" lon="12.622078"><ele>-2.0</ele><time>2026-03-29T14:45:19.719Z</time></trkpt><trkpt lat="45.570742" lon="12.6222789"><ele>-2.0</ele><time>2026-03-29T14:45:20.73Z</time></trkpt><trkpt lat="45.5706279" lon="12.6224785"><ele>-2.0</ele><time>2026-03-29T14:45:21.72Z</time></trkpt><trkpt lat="45.5705157" lon="12.6226803"><ele>-1.6666666666666665</ele><time>2026-03-29T14:45:22.747Z</time></trkpt><trkpt lat="45.5704044" lon="12.6228837"><ele>-1.3333333333333333</ele><time>2026-03-29T14:45:23.731Z</time></trkpt><trkpt lat="45.5702964" lon="12.6230941"><ele>-1.0</ele><time>2026-03-29T14:45:24.732Z</time></trkpt><trkpt lat="45.5701789" lon="12.6232936"><ele>-1.0</ele><time>2026-03-29T14:45:25.731Z</time></trkpt><trkpt lat="45.5700669" lon="12.623502"><ele>-1.0</ele><time>2026-03-29T14:45:26.729Z</time></trkpt><trkpt lat="45.569951" lon="12.6237048"><ele>-1.0</ele><time>2026-03-29T14:45:27.73Z</time></trkpt><trkpt lat="45.5698296" lon="12.6239016"><ele>-1.3333333333333333</ele><time>2026-03-29T14:45:28.735Z</time></trkpt><trkpt lat="45.5697133" lon="12.6241052"><ele>-1.6666666666666665</ele><time>2026-03-29T14:45:29.728Z</time></trkpt><trkpt lat="45.569598" lon="12.6243115"><ele>-2.0</ele><time>2026-03-29T14:45:30.722Z</time></trkpt><trkpt lat="45.569484" lon="12.6245229"><ele>-2.333333333333333</ele><time>2026-03-29T14:45:31.733Z</time></trkpt><trkpt lat="45.5693657" lon="12.6247306"><ele>-2.6666666666666665</ele><time>2026-03-29T14:45:32.724Z</time></trkpt><trkpt lat="45.5692441" lon="12.6249365"><ele>-3.0</ele><time>2026-03-29T14:45:33.729Z</time></trkpt><trkpt lat="45.5691268" lon="12.6251499"><ele>-2.3333333333333335</ele><time>2026-03-29T14:45:34.731Z</time></trkpt><trkpt lat="45.5690074" lon="12.6253627"><ele>-1.6666666666666665</ele><time>2026-03-29T14:45:35.73Z</time></trkpt><trkpt lat="45.5688879" lon="12.6255764"><ele>-1.0</ele><time>2026-03-29T14:45:36.738Z</time></trkpt><trkpt lat="45.5687671" lon="12.6257893"><ele>-1.0</ele><time>2026-03-29T14:45:37.724Z</time></trkpt><trkpt lat="45.5686477" lon="12.6260039"><ele>-1.0</ele><time>2026-03-29T14:45:38.726Z</time></trkpt><trkpt lat="45.5685279" lon="12.6262186"><ele>-1.0</ele><time>2026-03-29T14:45:39.728Z</time></trkpt><trkpt lat="45.568407" lon="12.6264314"><ele>-1.0</ele><time>2026-03-29T14:45:40.718Z</time></trkpt><trkpt lat="45.5682868" lon="12.6266444"><ele>-1.0</ele><time>2026-03-29T14:45:41.71Z</time></trkpt><trkpt lat="45.5681656" lon="12.6268548"><ele>-1.0</ele><time>2026-03-29T14:45:42.729Z</time></trkpt><trkpt lat="45.5680463" lon="12.627065"><ele>-1.0</ele><time>2026-03-29T14:45:43.734Z</time></trkpt><trkpt lat="45.567929" lon="12.6272762"><ele>-1.0</ele><time>2026-03-29T14:45:44.749Z</time></trkpt><trkpt lat="45.5678111" lon="12.6274861"><ele>-1.0</ele><time>2026-03-29T14:45:45.715Z</time></trkpt><trkpt lat="45.5676926" lon="12.6276946"><ele>-1.3333333333333333</ele><time>2026-03-29T14:45:46.725Z</time></trkpt><trkpt lat="45.5675773" lon="12.6279069"><ele>-1.6666666666666665</ele><time>2026-03-29T14:45:47.728Z</time></trkpt><trkpt lat="45.5674603" lon="12.6281187"><ele>-2.0</ele><time>2026-03-29T14:45:48.722Z</time></trkpt><trkpt lat="45.5673399" lon="12.6283273"><ele>-2.0</ele><time>2026-03-29T14:45:49.729Z</time></trkpt><trkpt lat="45.5672212" lon="12.628539"><ele>-2.0</ele><time>2026-03-29T14:45:50.719Z</time></trkpt><trkpt lat="45.5671009" lon="12.6287509"><ele>-2.0</ele><time>2026-03-29T14:45:51.734Z</time></trkpt><trkpt lat="45.5669798" lon="12.628965"><ele>-2.0</ele><time>2026-03-29T14:45:52.742Z</time></trkpt><trkpt lat="45.5668605" lon="12.6291837"><ele>-2.0</ele><time>2026-03-29T14:45:53.74Z</time></trkpt><trkpt lat="45.5667378" lon="12.6293987"><ele>-2.0</ele><time>2026-03-29T14:45:54.756Z</time></trkpt><trkpt lat="45.5666172" lon="12.6296153"><ele>-1.6666666666666665</ele><time>2026-03-29T14:45:55.737Z</time></trkpt><trkpt lat="45.5664978" lon="12.6298326"><ele>-1.3333333333333333</ele><time>2026-03-29T14:45:56.745Z</time></trkpt><trkpt lat="45.5663776" lon="12.6300487"><ele>-1.0</ele><time>2026-03-29T14:45:57.755Z</time></trkpt><trkpt lat="45.5662569" lon="12.6302626"><ele>-1.6666666666666665</ele><time>2026-03-29T14:45:58.734Z</time></trkpt><trkpt lat="45.5661351" lon="12.630474"><ele>-2.3333333333333335</ele><time>2026-03-29T14:45:59.732Z</time></trkpt><trkpt lat="45.5660133" lon="12.6306846"><ele>-3.0</ele><time>2026-03-29T14:46:00.749Z</time></trkpt><trkpt lat="45.5658921" lon="12.6308963"><ele>-3.0</ele><time>2026-03-29T14:46:01.711Z</time></trkpt><trkpt lat="45.5657717" lon="12.6311092"><ele>-3.0</ele><time>2026-03-29T14:46:02.722Z</time></trkpt><trkpt lat="45.5656522" lon="12.6313227"><ele>-3.0</ele><time>2026-03-29T14:46:03.723Z</time></trkpt><trkpt lat="45.5655321" lon="12.6315354"><ele>-3.0</ele><time>2026-03-29T14:46:04.731Z</time></trkpt><trkpt lat="45.565412" lon="12.6317485"><ele>-3.0</ele><time>2026-03-29T14:46:05.731Z</time></trkpt><trkpt lat="45.5652935" lon="12.6319627"><ele>-3.0</ele><time>2026-03-29T14:46:06.732Z</time></trkpt><trkpt lat="45.5651749" lon="12.6321763"><ele>-3.0</ele><time>2026-03-29T14:46:07.757Z</time></trkpt><trkpt lat="45.5650555" lon="12.6323897"><ele>-3.0</ele><time>2026-03-29T14:46:08.723Z</time></trkpt><trkpt lat="45.5649353" lon="12.6326026"><ele>-3.0</ele><time>2026-03-29T14:46:09.734Z</time></trkpt><trkpt lat="45.5648142" lon="12.6328156"><ele>-3.0</ele><time>2026-03-29T14:46:10.735Z</time></trkpt><trkpt lat="45.5646975" lon="12.6330346"><ele>-3.0</ele><time>2026-03-29T14:46:11.734Z</time></trkpt><trkpt lat="45.5645788" lon="12.633251"><ele>-3.0</ele><time>2026-03-29T14:46:12.739Z</time></trkpt><trkpt lat="45.5644557" lon="12.6334615"><ele>-2.3333333333333335</ele><time>2026-03-29T14:46:13.723Z</time></trkpt><trkpt lat="45.5643389" lon="12.6336778"><ele>-1.6666666666666665</ele><time>2026-03-29T14:46:14.716Z</time></trkpt><trkpt lat="45.564215" lon="12.6338841"><ele>-1.0</ele><time>2026-03-29T14:46:15.716Z</time></trkpt><trkpt lat="45.5640938" lon="12.6340932"><ele>-1.0</ele><time>2026-03-29T14:46:16.726Z</time></trkpt><trkpt lat="45.5639746" lon="12.634305"><ele>-1.0</ele><time>2026-03-29T14:46:17.722Z</time></trkpt><trkpt lat="45.5638559" lon="12.634518"><ele>-1.0</ele><time>2026-03-29T14:46:18.732Z</time></trkpt><trkpt lat="45.5637366" lon="12.6347305"><ele>-1.0</ele><time>2026-03-29T14:46:19.736Z</time></trkpt><trkpt lat="45.5636179" lon="12.6349434"><ele>-1.0</ele><time>2026-03-29T14:46:20.734Z</time></trkpt><trkpt lat="45.563498" lon="12.635155"><ele>-1.0</ele><time>2026-03-29T14:46:21.742Z</time></trkpt><trkpt lat="45.5633784" lon="12.6353662"><ele>-1.0</ele><time>2026-03-29T14:46:22.725Z</time></trkpt><trkpt lat="45.5632591" lon="12.635577"><ele>-1.0</ele><time>2026-03-29T14:46:23.73Z</time></trkpt><trkpt lat="45.5631399" lon="12.6357875"><ele>-1.0</ele><time>2026-03-29T14:46:24.709Z</time></trkpt><trkpt lat="45.5630212" lon="12.635998"><ele>-1.3333333333333333</ele><time>2026-03-29T14:46:25.734Z</time></trkpt><trkpt lat="45.5629079" lon="12.636214"><ele>-1.6666666666666665</ele><time>2026-03-29T14:46:26.72Z</time></trkpt><trkpt lat="45.5627916" lon="12.636426"><ele>-2.0</ele><time>2026-03-29T14:46:27.727Z</time></trkpt><trkpt lat="45.5626721" lon="12.6366335"><ele>-2.333333333333333</ele><time>2026-03-29T14:46:28.728Z</time></trkpt><trkpt lat="45.5625534" lon="12.6368418"><ele>-2.6666666666666665</ele><time>2026-03-29T14:46:29.729Z</time></trkpt><trkpt lat="45.562438" lon="12.6370548"><ele>-3.0</ele><time>2026-03-29T14:46:30.728Z</time></trkpt><trkpt lat="45.5623205" lon="12.6372663"><ele>-2.6666666666666665</ele><time>2026-03-29T14:46:31.736Z</time></trkpt><trkpt lat="45.5621992" lon="12.6374729"><ele>-2.333333333333333</ele><time>2026-03-29T14:46:32.727Z</time></trkpt><trkpt lat="45.5620813" lon="12.6376833"><ele>-2.0</ele><time>2026-03-29T14:46:33.742Z</time></trkpt><trkpt lat="45.5619682" lon="12.637896"><ele>-2.0</ele><time>2026-03-29T14:46:34.742Z</time></trkpt><trkpt lat="45.5618535" lon="12.6381007"><ele>-2.0</ele><time>2026-03-29T14:46:35.735Z</time></trkpt><trkpt lat="45.5617403" lon="12.6383005"><ele>-2.0</ele><time>2026-03-29T14:46:36.723Z</time></trkpt><trkpt lat="45.5616303" lon="12.6384941"><ele>-2.0</ele><time>2026-03-29T14:46:37.723Z</time></trkpt><trkpt lat="45.5615255" lon="12.638681"><ele>-2.0</ele><time>2026-03-29T14:46:38.725Z</time></trkpt><trkpt lat="45.5614226" lon="12.6388571"><ele>-2.0</ele><time>2026-03-29T14:46:39.714Z</time></trkpt><trkpt lat="45.5613245" lon="12.6390313"><ele>-2.0</ele><time>2026-03-29T14:46:40.732Z</time></trkpt><trkpt lat="45.5612284" lon="12.6391981"><ele>-2.0</ele><time>2026-03-29T14:46:41.733Z</time></trkpt><trkpt lat="45.5611354" lon="12.6393614"><ele>-2.0</ele><time>2026-03-29T14:46:42.719Z</time></trkpt><trkpt lat="45.5610435" lon="12.639522"><ele>-2.0</ele><time>2026-03-29T14:46:43.734Z</time></trkpt><trkpt lat="45.5609543" lon="12.63968"><ele>-1.5</ele><time>2026-03-29T14:46:44.73Z</time></trkpt><trkpt lat="45.56087" lon="12.6398343"><ele>-1.0</ele><time>2026-03-29T14:46:45.724Z</time></trkpt><trkpt lat="45.5607828" lon="12.6399757"><ele>-0.5</ele><time>2026-03-29T14:46:46.725Z</time></trkpt><trkpt lat="45.560701" lon="12.6401121"><ele>0.0</ele><time>2026-03-29T14:46:47.728Z</time></trkpt><trkpt lat="45.5606261" lon="12.6402465"><ele>0.0</ele><time>2026-03-29T14:46:48.718Z</time></trkpt><trkpt lat="45.560547" lon="12.6403704"><ele>0.0</ele><time>2026-03-29T14:46:49.726Z</time></trkpt><trkpt lat="45.5604665" lon="12.6404921"><ele>0.0</ele><time>2026-03-29T14:46:50.721Z</time></trkpt><trkpt lat="45.5603729" lon="12.6405925"><ele>0.0</ele><time>2026-03-29T14:46:51.73Z</time></trkpt><trkpt lat="45.5602788" lon="12.6406811"><ele>0.0</ele><time>2026-03-29T14:46:52.729Z</time></trkpt><trkpt lat="45.5601724" lon="12.6407323"><ele>0.0</ele><time>2026-03-29T14:46:53.719Z</time></trkpt><trkpt lat="45.5600752" lon="12.640787"><ele>0.0</ele><time>2026-03-29T14:46:54.737Z</time></trkpt><trkpt lat="45.5599921" lon="12.6408324"><ele>0.0</ele><time>2026-03-29T14:46:55.743Z</time></trkpt><trkpt lat="45.5599132" lon="12.6408645"><ele>0.0</ele><time>2026-03-29T14:46:56.725Z</time></trkpt><trkpt lat="45.5598271" lon="12.6408727"><ele>0.0</ele><time>2026-03-29T14:46:57.714Z</time></trkpt><trkpt lat="45.5597338" lon="12.6408591"><ele>0.0</ele><time>2026-03-29T14:46:58.727Z</time></trkpt><trkpt lat="45.5596365" lon="12.6408436"><ele>0.0</ele><time>2026-03-29T14:46:59.728Z</time></trkpt><trkpt lat="45.5595318" lon="12.6408056"><ele>0.0</ele><time>2026-03-29T14:47:00.73Z</time></trkpt><trkpt lat="45.5594211" lon="12.6407353"><ele>0.0</ele><time>2026-03-29T14:47:01.712Z</time></trkpt><trkpt lat="45.5593061" lon="12.6406294"><ele>0.0</ele><time>2026-03-29T14:47:02.738Z</time></trkpt><trkpt lat="45.559185" lon="12.6405088"><ele>0.0</ele><time>2026-03-29T14:47:03.741Z</time></trkpt><trkpt lat="45.5590595" lon="12.6403868"><ele>0.0</ele><time>2026-03-29T14:47:04.731Z</time></trkpt><trkpt lat="45.5589318" lon="12.6402612"><ele>-0.3333333333333333</ele><time>2026-03-29T14:47:05.743Z</time></trkpt><trkpt lat="45.5588004" lon="12.6401377"><ele>-0.6666666666666666</ele><time>2026-03-29T14:47:06.739Z</time></trkpt><trkpt lat="45.5586698" lon="12.640013"><ele>-1.0</ele><time>2026-03-29T14:47:07.741Z</time></trkpt><trkpt lat="45.558535" lon="12.6398933"><ele>-1.3333333333333333</ele><time>2026-03-29T14:47:08.742Z</time></trkpt><trkpt lat="45.5584002" lon="12.6397685"><ele>-1.6666666666666665</ele><time>2026-03-29T14:47:09.734Z</time></trkpt><trkpt lat="45.558264" lon="12.6396426"><ele>-2.0</ele><time>2026-03-29T14:47:10.728Z</time></trkpt><trkpt lat="45.558126" lon="12.6395124"><ele>-2.333333333333333</ele><time>2026-03-29T14:47:11.735Z</time></trkpt><trkpt lat="45.5579842" lon="12.6393787"><ele>-2.6666666666666665</ele><time>2026-03-29T14:47:12.723Z</time></trkpt><trkpt lat="45.5578424" lon="12.6392378"><ele>-3.0</ele><time>2026-03-29T14:47:13.739Z</time></trkpt><trkpt lat="45.5576954" lon="12.6391049"><ele>-3.0</ele><time>2026-03-29T14:47:14.771Z</time></trkpt><trkpt lat="45.5575458" lon="12.6389727"><ele>-3.0</ele><time>2026-03-29T14:47:15.71Z</time></trkpt><trkpt lat="45.5573949" lon="12.6388394"><ele>-3.0</ele><time>2026-03-29T14:47:16.731Z</time></trkpt><trkpt lat="45.5572429" lon="12.6387055"><ele>-3.0</ele><time>2026-03-29T14:47:17.735Z</time></trkpt><trkpt lat="45.5570892" lon="12.6385729"><ele>-3.0</ele><time>2026-03-29T14:47:18.722Z</time></trkpt><trkpt lat="45.5569367" lon="12.6384363"><ele>-3.0</ele><time>2026-03-29T14:47:19.729Z</time></trkpt><trkpt lat="45.5567826" lon="12.6383002"><ele>-3.0</ele><time>2026-03-29T14:47:20.711Z</time></trkpt><trkpt lat="45.5566275" lon="12.638162"><ele>-3.0</ele><time>2026-03-29T14:47:21.732Z</time></trkpt><trkpt lat="45.5564718" lon="12.6380244"><ele>-3.0</ele><time>2026-03-29T14:47:22.719Z</time></trkpt><trkpt lat="45.5563181" lon="12.637881"><ele>-2.3333333333333335</ele><time>2026-03-29T14:47:23.73Z</time></trkpt><trkpt lat="45.5561636" lon="12.6377389"><ele>-1.6666666666666665</ele><time>2026-03-29T14:47:24.74Z</time></trkpt><trkpt lat="45.5560073" lon="12.6375973"><ele>-1.0</ele><time>2026-03-29T14:47:25.737Z</time></trkpt><trkpt lat="45.5558501" lon="12.6374534"><ele>-1.0</ele><time>2026-03-29T14:47:26.734Z</time></trkpt><trkpt lat="45.5556918" lon="12.6373108"><ele>-1.0</ele><time>2026-03-29T14:47:27.729Z</time></trkpt><trkpt lat="45.5555339" lon="12.6371671"><ele>-1.0</ele><time>2026-03-29T14:47:28.71Z</time></trkpt><trkpt lat="45.5553772" lon="12.6370206"><ele>-1.3333333333333333</ele><time>2026-03-29T14:47:29.739Z</time></trkpt><trkpt lat="45.5552183" lon="12.6368788"><ele>-1.6666666666666665</ele><time>2026-03-29T14:47:30.734Z</time></trkpt><trkpt lat="45.5550598" lon="12.6367371"><ele>-2.0</ele><time>2026-03-29T14:47:31.722Z</time></trkpt><trkpt lat="45.5549016" lon="12.6365954"><ele>-2.0</ele><time>2026-03-29T14:47:32.728Z</time></trkpt><trkpt lat="45.5547431" lon="12.6364541"><ele>-2.0</ele><time>2026-03-29T14:47:33.734Z</time></trkpt><trkpt lat="45.5545853" lon="12.6363134"><ele>-2.0</ele><time>2026-03-29T14:47:34.739Z</time></trkpt><trkpt lat="45.554428" lon="12.6361734"><ele>-2.0</ele><time>2026-03-29T14:47:35.745Z</time></trkpt><trkpt lat="45.5542717" lon="12.6360302"><ele>-2.0</ele><time>2026-03-29T14:47:36.726Z</time></trkpt><trkpt lat="45.5541174" lon="12.6358823"><ele>-2.0</ele><time>2026-03-29T14:47:37.731Z</time></trkpt><trkpt lat="45.5539598" lon="12.6357408"><ele>-2.0</ele><time>2026-03-29T14:47:38.746Z</time></trkpt><trkpt lat="45.5538018" lon="12.6355992"><ele>-2.0</ele><time>2026-03-29T14:47:39.733Z</time></trkpt><trkpt lat="45.5536433" lon="12.6354591"><ele>-2.0</ele><time>2026-03-29T14:47:40.717Z</time></trkpt><trkpt lat="45.553485" lon="12.6353181"><ele>-2.0</ele><time>2026-03-29T14:47:41.728Z</time></trkpt><trkpt lat="45.5533273" lon="12.6351758"><ele>-2.0</ele><time>2026-03-29T14:47:42.721Z</time></trkpt><trkpt lat="45.5531705" lon="12.6350333"><ele>-2.0</ele><time>2026-03-29T14:47:43.745Z</time></trkpt><trkpt lat="45.5530133" lon="12.6348951"><ele>-1.6666666666666665</ele><time>2026-03-29T14:47:44.734Z</time></trkpt><trkpt lat="45.5528582" lon="12.6347541"><ele>-1.3333333333333333</ele><time>2026-03-29T14:47:45.74Z</time></trkpt><trkpt lat="45.5527039" lon="12.6346126"><ele>-1.0</ele><time>2026-03-29T14:47:46.727Z</time></trkpt><trkpt lat="45.5525496" lon="12.6344737"><ele>-1.0</ele><time>2026-03-29T14:47:47.753Z</time></trkpt><trkpt lat="45.5523956" lon="12.6343367"><ele>-1.0</ele><time>2026-03-29T14:47:48.741Z</time></trkpt><trkpt lat="45.5522419" lon="12.6341972"><ele>-1.0</ele><time>2026-03-29T14:47:49.744Z</time></trkpt><trkpt lat="45.5520884" lon="12.6340609"><ele>-1.0</ele><time>2026-03-29T14:47:50.729Z</time></trkpt><trkpt lat="45.551936" lon="12.6339254"><ele>-1.0</ele><time>2026-03-29T14:47:51.734Z</time></trkpt><trkpt lat="45.5517848" lon="12.6337881"><ele>-1.0</ele><time>2026-03-29T14:47:52.738Z</time></trkpt><trkpt lat="45.5516349" lon="12.6336493"><ele>-0.6666666666666666</ele><time>2026-03-29T14:47:53.733Z</time></trkpt><trkpt lat="45.5514847" lon="12.633514"><ele>-0.3333333333333333</ele><time>2026-03-29T14:47:54.742Z</time></trkpt><trkpt lat="45.5513347" lon="12.6333805"><ele>0.0</ele><time>2026-03-29T14:47:55.732Z</time></trkpt><trkpt lat="45.5511874" lon="12.6332489"><ele>0.0</ele><time>2026-03-29T14:47:56.733Z</time></trkpt><trkpt lat="45.5510443" lon="12.6331252"><ele>0.0</ele><time>2026-03-29T14:47:57.738Z</time></trkpt><trkpt lat="45.5509071" lon="12.6330069"><ele>0.0</ele><time>2026-03-29T14:47:58.73Z</time></trkpt><trkpt lat="45.5507769" lon="12.6328875"><ele>0.0</ele><time>2026-03-29T14:47:59.72Z</time></trkpt><trkpt lat="45.550651" lon="12.6327735"><ele>0.0</ele><time>2026-03-29T14:48:00.741Z</time></trkpt><trkpt lat="45.5505254" lon="12.6326645"><ele>0.0</ele><time>2026-03-29T14:48:01.727Z</time></trkpt><trkpt lat="45.550399" lon="12.6325508"><ele>0.0</ele><time>2026-03-29T14:48:02.732Z</time></trkpt><trkpt lat="45.5502699" lon="12.6324352"><ele>0.0</ele><time>2026-03-29T14:48:03.719Z</time></trkpt><trkpt lat="45.5501384" lon="12.6323158"><ele>0.0</ele><time>2026-03-29T14:48:04.711Z</time></trkpt><trkpt lat="45.5500042" lon="12.6321915"><ele>0.0</ele><time>2026-03-29T14:48:05.743Z</time></trkpt><trkpt lat="45.5498649" lon="12.6320684"><ele>-0.3333333333333333</ele><time>2026-03-29T14:48:06.727Z</time></trkpt><trkpt lat="45.549723" lon="12.6319403"><ele>-0.6666666666666666</ele><time>2026-03-29T14:48:07.738Z</time></trkpt><trkpt lat="45.5495771" lon="12.6318101"><ele>-1.0</ele><time>2026-03-29T14:48:08.734Z</time></trkpt><trkpt lat="45.5494316" lon="12.6316707"><ele>-1.0</ele><time>2026-03-29T14:48:09.721Z</time></trkpt><trkpt lat="45.5492814" lon="12.6315386"><ele>-1.0</ele><time>2026-03-29T14:48:10.724Z</time></trkpt><trkpt lat="45.5491311" lon="12.6314073"><ele>-1.0</ele><time>2026-03-29T14:48:11.722Z</time></trkpt><trkpt lat="45.5489851" lon="12.6312696"><ele>-1.0</ele><time>2026-03-29T14:48:12.717Z</time></trkpt><trkpt lat="45.5488398" lon="12.6311328"><ele>-1.0</ele><time>2026-03-29T14:48:13.733Z</time></trkpt><trkpt lat="45.5486916" lon="12.6310037"><ele>-1.0</ele><time>2026-03-29T14:48:14.739Z</time></trkpt><trkpt lat="45.5485446" lon="12.630871"><ele>-1.0</ele><time>2026-03-29T14:48:15.761Z</time></trkpt><trkpt lat="45.5483973" lon="12.6307368"><ele>-1.0</ele><time>2026-03-29T14:48:16.715Z</time></trkpt><trkpt lat="45.5482471" lon="12.6306046"><ele>-1.0</ele><time>2026-03-29T14:48:17.754Z</time></trkpt><trkpt lat="45.5480978" lon="12.6304684"><ele>-1.0</ele><time>2026-03-29T14:48:18.728Z</time></trkpt><trkpt lat="45.5479477" lon="12.6303349"><ele>-1.0</ele><time>2026-03-29T14:48:19.696Z</time></trkpt><trkpt lat="45.5477971" lon="12.630204"><ele>-1.0</ele><time>2026-03-29T14:48:20.706Z</time></trkpt><trkpt lat="45.5476457" lon="12.6300774"><ele>-1.0</ele><time>2026-03-29T14:48:21.714Z</time></trkpt><trkpt lat="45.5474931" lon="12.6299587"><ele>-1.0</ele><time>2026-03-29T14:48:22.719Z</time></trkpt><trkpt lat="45.5473359" lon="12.6298551"><ele>-1.0</ele><time>2026-03-29T14:48:23.726Z</time></trkpt><trkpt lat="45.5471738" lon="12.6297666"><ele>-1.3333333333333333</ele><time>2026-03-29T14:48:24.733Z</time></trkpt><trkpt lat="45.5470067" lon="12.6296927"><ele>-1.6666666666666665</ele><time>2026-03-29T14:48:25.732Z</time></trkpt><trkpt lat="45.5468357" lon="12.629635"><ele>-2.0</ele><time>2026-03-29T14:48:26.733Z</time></trkpt><trkpt lat="45.5466632" lon="12.6295863"><ele>-2.0</ele><time>2026-03-29T14:48:27.731Z</time></trkpt><trkpt lat="45.5464872" lon="12.629559"><ele>-2.0</ele><time>2026-03-29T14:48:28.74Z</time></trkpt><trkpt lat="45.5463083" lon="12.6295497"><ele>-2.0</ele><time>2026-03-29T14:48:29.744Z</time></trkpt><trkpt lat="45.5461286" lon="12.6295612"><ele>-2.0</ele><time>2026-03-29T14:48:30.733Z</time></trkpt><trkpt lat="45.5459473" lon="12.629581"><ele>-2.0</ele><time>2026-03-29T14:48:31.733Z</time></trkpt><trkpt lat="45.5457646" lon="12.6296121"><ele>-2.0</ele><time>2026-03-29T14:48:32.741Z</time></trkpt><trkpt lat="45.545578" lon="12.6296403"><ele>-2.0</ele><time>2026-03-29T14:48:33.731Z</time></trkpt><trkpt lat="45.5453957" lon="12.629702"><ele>-2.0</ele><time>2026-03-29T14:48:34.737Z</time></trkpt><trkpt lat="45.5452125" lon="12.6297617"><ele>-2.0</ele><time>2026-03-29T14:48:35.735Z</time></trkpt><trkpt lat="45.5450278" lon="12.6298076"><ele>-2.0</ele><time>2026-03-29T14:48:36.721Z</time></trkpt><trkpt lat="45.5447373" lon="12.6298661"><ele>-2.0</ele><time>2026-03-29T14:48:37.733Z</time></trkpt><trkpt lat="45.5445636" lon="12.6299113"><ele>-2.0</ele><time>2026-03-29T14:48:38.753Z</time></trkpt><trkpt lat="45.5443897" lon="12.6299691"><ele>-2.0</ele><time>2026-03-29T14:48:39.731Z</time></trkpt><trkpt lat="45.544216" lon="12.6300165"><ele>-2.0</ele><time>2026-03-29T14:48:40.725Z</time></trkpt><trkpt lat="45.5440483" lon="12.6300657"><ele>-2.0</ele><time>2026-03-29T14:48:41.728Z</time></trkpt><trkpt lat="45.5438839" lon="12.6301062"><ele>-2.0</ele><time>2026-03-29T14:48:42.75Z</time></trkpt><trkpt lat="45.5437255" lon="12.6301445"><ele>-2.0</ele><time>2026-03-29T14:48:43.734Z</time></trkpt><trkpt lat="45.543574" lon="12.6301871"><ele>-2.0</ele><time>2026-03-29T14:48:44.722Z</time></trkpt><trkpt lat="45.5434305" lon="12.6302233"><ele>-2.0</ele><time>2026-03-29T14:48:45.722Z</time></trkpt><trkpt lat="45.543293" lon="12.6302702"><ele>-2.0</ele><time>2026-03-29T14:48:46.725Z</time></trkpt><trkpt lat="45.5431597" lon="12.6303036"><ele>-2.0</ele><time>2026-03-29T14:48:47.727Z</time></trkpt><trkpt lat="45.5430303" lon="12.630332"><ele>-2.0</ele><time>2026-03-29T14:48:48.726Z</time></trkpt><trkpt lat="45.5429113" lon="12.6303499"><ele>-2.0</ele><time>2026-03-29T14:48:49.722Z</time></trkpt><trkpt lat="45.5428044" lon="12.6303602"><ele>-2.0</ele><time>2026-03-29T14:48:50.725Z</time></trkpt><trkpt lat="45.5427053" lon="12.6303351"><ele>-2.0</ele><time>2026-03-29T14:48:51.731Z</time></trkpt><trkpt lat="45.542618" lon="12.6302807"><ele>-2.0</ele><time>2026-03-29T14:48:52.72Z</time></trkpt><trkpt lat="45.5425346" lon="12.6302305"><ele>-2.0</ele><time>2026-03-29T14:48:53.724Z</time></trkpt><trkpt lat="45.5424508" lon="12.630203"><ele>-2.0</ele><time>2026-03-29T14:48:54.721Z</time></trkpt><trkpt lat="45.5423694" lon="12.6302149"><ele>-2.0</ele><time>2026-03-29T14:48:55.735Z</time></trkpt><trkpt lat="45.5422908" lon="12.6302985"><ele>-2.0</ele><time>2026-03-29T14:48:56.721Z</time></trkpt><trkpt lat="45.5422082" lon="12.6304093"><ele>-2.0</ele><time>2026-03-29T14:48:57.726Z</time></trkpt><trkpt lat="45.5421308" lon="12.6305318"><ele>-1.5</ele><time>2026-03-29T14:48:58.737Z</time></trkpt><trkpt lat="45.542032" lon="12.6306393"><ele>-1.0</ele><time>2026-03-29T14:48:59.728Z</time></trkpt><trkpt lat="45.5419171" lon="12.6307116"><ele>-0.5</ele><time>2026-03-29T14:49:00.728Z</time></trkpt><trkpt lat="45.5417935" lon="12.6307726"><ele>0.0</ele><time>2026-03-29T14:49:01.742Z</time></trkpt><trkpt lat="45.5416613" lon="12.6308031"><ele>0.0</ele><time>2026-03-29T14:49:02.732Z</time></trkpt><trkpt lat="45.5415346" lon="12.6308338"><ele>0.0</ele><time>2026-03-29T14:49:03.74Z</time></trkpt><trkpt lat="45.5414121" lon="12.6308621"><ele>0.0</ele><time>2026-03-29T14:49:04.742Z</time></trkpt><trkpt lat="45.5412953" lon="12.6308995"><ele>0.0</ele><time>2026-03-29T14:49:05.718Z</time></trkpt><trkpt lat="45.5411909" lon="12.6309331"><ele>-0.16666666666666666</ele><time>2026-03-29T14:49:06.747Z</time></trkpt><trkpt lat="45.541106" lon="12.6309546"><ele>-0.3333333333333333</ele><time>2026-03-29T14:49:07.734Z</time></trkpt><trkpt lat="45.5410387" lon="12.6309729"><ele>-0.5</ele><time>2026-03-29T14:49:08.742Z</time></trkpt><trkpt lat="45.540919" lon="12.6310116"><ele>-0.6666666666666666</ele><time>2026-03-29T14:49:10.726Z</time></trkpt><trkpt lat="45.5408513" lon="12.6310077"><ele>-0.8333333333333333</ele><time>2026-03-29T14:49:11.737Z</time></trkpt><trkpt lat="45.5407814" lon="12.6310247"><ele>-1.0</ele><time>2026-03-29T14:49:12.731Z</time></trkpt><trkpt lat="45.5407036" lon="12.6310602"><ele>-1.0</ele><time>2026-03-29T14:49:13.727Z</time></trkpt><trkpt lat="45.540617" lon="12.6310917"><ele>-1.0</ele><time>2026-03-29T14:49:14.729Z</time></trkpt><trkpt lat="45.5405226" lon="12.6311248"><ele>-1.0</ele><time>2026-03-29T14:49:15.725Z</time></trkpt><trkpt lat="45.5404215" lon="12.6311474"><ele>-1.0</ele><time>2026-03-29T14:49:16.716Z</time></trkpt><trkpt lat="45.5403103" lon="12.6311493"><ele>-1.0</ele><time>2026-03-29T14:49:17.723Z</time></trkpt><trkpt lat="45.5401913" lon="12.63115"><ele>-0.75</ele><time>2026-03-29T14:49:18.732Z</time></trkpt><trkpt lat="45.5400627" lon="12.6311408"><ele>-0.5</ele><time>2026-03-29T14:49:19.729Z</time></trkpt><trkpt lat="45.53993" lon="12.6311242"><ele>-0.25</ele><time>2026-03-29T14:49:20.727Z</time></trkpt><trkpt lat="45.5397943" lon="12.6311011"><ele>0.0</ele><time>2026-03-29T14:49:21.722Z</time></trkpt><trkpt lat="45.5396539" lon="12.631074"><ele>0.25</ele><time>2026-03-29T14:49:22.734Z</time></trkpt><trkpt lat="45.5395081" lon="12.6310471"><ele>0.5</ele><time>2026-03-29T14:49:23.74Z</time></trkpt><trkpt lat="45.5393618" lon="12.630994"><ele>0.75</ele><time>2026-03-29T14:49:24.742Z</time></trkpt><trkpt lat="45.5392167" lon="12.630955"><ele>1.0</ele><time>2026-03-29T14:49:25.729Z</time></trkpt><trkpt lat="45.5390762" lon="12.6309247"><ele>1.0</ele><time>2026-03-29T14:49:26.714Z</time></trkpt><trkpt lat="45.5389441" lon="12.6308855"><ele>1.0</ele><time>2026-03-29T14:49:27.72Z</time></trkpt><trkpt lat="45.5388164" lon="12.6308575"><ele>1.0</ele><time>2026-03-29T14:49:28.715Z</time></trkpt><trkpt lat="45.5386914" lon="12.6308373"><ele>1.0</ele><time>2026-03-29T14:49:29.718Z</time></trkpt><trkpt lat="45.5385734" lon="12.6308122"><ele>0.8</ele><time>2026-03-29T14:49:30.707Z</time></trkpt><trkpt lat="45.5384582" lon="12.6307913"><ele>0.6000000000000001</ele><time>2026-03-29T14:49:31.721Z</time></trkpt><trkpt lat="45.5383507" lon="12.6307794"><ele>0.4</ele><time>2026-03-29T14:49:32.747Z</time></trkpt><trkpt lat="45.5382489" lon="12.6307655"><ele>0.2</ele><time>2026-03-29T14:49:33.707Z</time></trkpt><trkpt lat="45.5381517" lon="12.6307474"><ele>0.0</ele><time>2026-03-29T14:49:34.72Z</time></trkpt><trkpt lat="45.5380667" lon="12.6307276"><ele>0.0</ele><time>2026-03-29T14:49:35.716Z</time></trkpt><trkpt lat="45.5379991" lon="12.6306992"><ele>0.0</ele><time>2026-03-29T14:49:36.725Z</time></trkpt><trkpt lat="45.537907" lon="12.6306761"><ele>0.0</ele><time>2026-03-29T14:49:38.723Z</time></trkpt><trkpt lat="45.537826" lon="12.6306986"><ele>0.0</ele><time>2026-03-29T14:49:54.734Z</time></trkpt><trkpt lat="45.5377765" lon="12.630828"><ele>0.0</ele><time>2026-03-29T14:49:56.723Z</time></trkpt><trkpt lat="45.5377601" lon="12.6309357"><ele>0.0</ele><time>2026-03-29T14:49:57.737Z</time></trkpt><trkpt lat="45.5377422" lon="12.6310616"><ele>0.2</ele><time>2026-03-29T14:49:58.727Z</time></trkpt><trkpt lat="45.5377175" lon="12.6312027"><ele>0.4</ele><time>2026-03-29T14:49:59.73Z</time></trkpt><trkpt lat="45.5376755" lon="12.631344"><ele>0.6000000000000001</ele><time>2026-03-29T14:50:00.717Z</time></trkpt><trkpt lat="45.5376462" lon="12.6314883"><ele>0.8</ele><time>2026-03-29T14:50:01.718Z</time></trkpt><trkpt lat="45.5376234" lon="12.6316291"><ele>1.0</ele><time>2026-03-29T14:50:02.716Z</time></trkpt><trkpt lat="45.5375835" lon="12.6317579"><ele>1.0</ele><time>2026-03-29T14:50:03.728Z</time></trkpt><trkpt lat="45.5375405" lon="12.631883"><ele>1.0</ele><time>2026-03-29T14:50:04.719Z</time></trkpt><trkpt lat="45.537518" lon="12.6320122"><ele>1.0</ele><time>2026-03-29T14:50:05.728Z</time></trkpt><trkpt lat="45.5374958" lon="12.6321371"><ele>1.0</ele><time>2026-03-29T14:50:06.722Z</time></trkpt><trkpt lat="45.5374794" lon="12.6322597"><ele>1.0</ele><time>2026-03-29T14:50:07.731Z</time></trkpt><trkpt lat="45.5374712" lon="12.6323831"><ele>1.0</ele><time>2026-03-29T14:50:08.72Z</time></trkpt><trkpt lat="45.5374515" lon="12.6324978"><ele>0.9999999999999999</ele><time>2026-03-29T14:50:09.729Z</time></trkpt><trkpt lat="45.5374313" lon="12.6326065"><ele>1.0</ele><time>2026-03-29T14:50:10.728Z</time></trkpt><trkpt lat="45.537417" lon="12.6327104"><ele>1.0</ele><time>2026-03-29T14:50:11.717Z</time></trkpt><trkpt lat="45.5374043" lon="12.6328098"><ele>0.9999999999999999</ele><time>2026-03-29T14:50:12.733Z</time></trkpt><trkpt lat="45.5373787" lon="12.6329017"><ele>1.0</ele><time>2026-03-29T14:50:13.725Z</time></trkpt><trkpt lat="45.5373519" lon="12.6329973"><ele>1.0</ele><time>2026-03-29T14:50:14.734Z</time></trkpt><trkpt lat="45.5373415" lon="12.6331064"><ele>1.1666666666666665</ele><time>2026-03-29T14:50:15.723Z</time></trkpt><trkpt lat="45.537321" lon="12.633217"><ele>1.3333333333333333</ele><time>2026-03-29T14:50:16.721Z</time></trkpt><trkpt lat="45.5373102" lon="12.6333368"><ele>1.5</ele><time>2026-03-29T14:50:17.729Z</time></trkpt><trkpt lat="45.5372887" lon="12.6334576"><ele>1.6666666666666665</ele><time>2026-03-29T14:50:18.729Z</time></trkpt><trkpt lat="45.5372716" lon="12.6335823"><ele>1.8333333333333333</ele><time>2026-03-29T14:50:19.743Z</time></trkpt><trkpt lat="45.5372538" lon="12.6337115"><ele>2.0</ele><time>2026-03-29T14:50:20.749Z</time></trkpt><trkpt lat="45.53724" lon="12.6338466"><ele>2.0</ele><time>2026-03-29T14:50:21.732Z</time></trkpt><trkpt lat="45.5372222" lon="12.6339877"><ele>2.0</ele><time>2026-03-29T14:50:22.735Z</time></trkpt><trkpt lat="45.5371981" lon="12.6341318"><ele>2.0</ele><time>2026-03-29T14:50:23.716Z</time></trkpt><trkpt lat="45.5371743" lon="12.6342713"><ele>2.0</ele><time>2026-03-29T14:50:24.725Z</time></trkpt><trkpt lat="45.5371466" lon="12.6344057"><ele>2.0</ele><time>2026-03-29T14:50:25.724Z</time></trkpt><trkpt lat="45.537111" lon="12.6345361"><ele>1.8</ele><time>2026-03-29T14:50:26.723Z</time></trkpt><trkpt lat="45.5371368" lon="12.6346829"><ele>1.6</ele><time>2026-03-29T14:50:27.734Z</time></trkpt><trkpt lat="45.5371397" lon="12.6348326"><ele>1.4000000000000001</ele><time>2026-03-29T14:50:28.71Z</time></trkpt><trkpt lat="45.5371246" lon="12.6349869"><ele>1.2000000000000002</ele><time>2026-03-29T14:50:29.734Z</time></trkpt><trkpt lat="45.5371184" lon="12.635149"><ele>1.0</ele><time>2026-03-29T14:50:30.742Z</time></trkpt><trkpt lat="45.537105" lon="12.6353098"><ele>0.8</ele><time>2026-03-29T14:50:31.727Z</time></trkpt><trkpt lat="45.5370922" lon="12.6354667"><ele>0.6000000000000001</ele><time>2026-03-29T14:50:32.721Z</time></trkpt><trkpt lat="45.5370795" lon="12.6356065"><ele>0.4</ele><time>2026-03-29T14:50:33.722Z</time></trkpt><trkpt lat="45.5370396" lon="12.6357208"><ele>0.2</ele><time>2026-03-29T14:50:34.705Z</time></trkpt><trkpt lat="45.5370368" lon="12.6358414"><ele>0.0</ele><time>2026-03-29T14:50:35.718Z</time></trkpt><trkpt lat="45.5369944" lon="12.6359597"><ele>0.3333333333333333</ele><time>2026-03-29T14:50:36.737Z</time></trkpt><trkpt lat="45.5369777" lon="12.6360888"><ele>0.6666666666666666</ele><time>2026-03-29T14:50:37.712Z</time></trkpt><trkpt lat="45.5369644" lon="12.6362134"><ele>1.0</ele><time>2026-03-29T14:50:38.731Z</time></trkpt><trkpt lat="45.5369631" lon="12.6363299"><ele>1.3333333333333333</ele><time>2026-03-29T14:50:39.718Z</time></trkpt><trkpt lat="45.5369297" lon="12.6364296"><ele>1.6666666666666665</ele><time>2026-03-29T14:50:40.721Z</time></trkpt><trkpt lat="45.5369091" lon="12.6365209"><ele>2.0</ele><time>2026-03-29T14:50:41.731Z</time></trkpt><trkpt lat="45.5368688" lon="12.6366889"><ele>2.0</ele><time>2026-03-29T14:50:43.723Z</time></trkpt><trkpt lat="45.5368564" lon="12.6367857"><ele>1.9999999999999998</ele><time>2026-03-29T14:50:44.734Z</time></trkpt><trkpt lat="45.5368324" lon="12.6368896"><ele>2.0</ele><time>2026-03-29T14:50:45.744Z</time></trkpt><trkpt lat="45.5368122" lon="12.6369995"><ele>2.0</ele><time>2026-03-29T14:50:46.723Z</time></trkpt><trkpt lat="45.5368044" lon="12.6371105"><ele>1.9999999999999998</ele><time>2026-03-29T14:50:47.73Z</time></trkpt><trkpt lat="45.5367861" lon="12.6372131"><ele>2.0</ele><time>2026-03-29T14:50:48.721Z</time></trkpt><trkpt lat="45.5367732" lon="12.6373059"><ele>2.0</ele><time>2026-03-29T14:50:49.707Z</time></trkpt><trkpt lat="45.5367541" lon="12.6374728"><ele>1.9999999999999998</ele><time>2026-03-29T14:50:51.721Z</time></trkpt><trkpt lat="45.5367307" lon="12.6376141"><ele>2.0</ele><time>2026-03-29T14:50:53.727Z</time></trkpt><trkpt lat="45.5367207" lon="12.637726"><ele>2.0</ele><time>2026-03-29T14:50:55.702Z</time></trkpt><trkpt lat="45.5367115" lon="12.6378305"><ele>2.0</ele><time>2026-03-29T14:50:57.733Z</time></trkpt><trkpt lat="45.5366984" lon="12.6379751"><ele>1.9999999999999998</ele><time>2026-03-29T14:50:59.729Z</time></trkpt><trkpt lat="45.5366759" lon="12.6380632"><ele>2.0</ele><time>2026-03-29T14:51:00.726Z</time></trkpt><trkpt lat="45.5366546" lon="12.6381606"><ele>1.9999999999999998</ele><time>2026-03-29T14:51:01.721Z</time></trkpt><trkpt lat="45.5366312" lon="12.6382625"><ele>2.0</ele><time>2026-03-29T14:51:02.723Z</time></trkpt><trkpt lat="45.5366081" lon="12.6383655"><ele>2.0</ele><time>2026-03-29T14:51:03.712Z</time></trkpt><trkpt lat="45.5365773" lon="12.6384682"><ele>2.0</ele><time>2026-03-29T14:51:04.728Z</time></trkpt><trkpt lat="45.5365539" lon="12.6385765"><ele>1.9999999999999998</ele><time>2026-03-29T14:51:05.724Z</time></trkpt><trkpt lat="45.536545" lon="12.6386972"><ele>2.0</ele><time>2026-03-29T14:51:06.72Z</time></trkpt><trkpt lat="45.536533" lon="12.6388162"><ele>1.9999999999999998</ele><time>2026-03-29T14:51:07.722Z</time></trkpt><trkpt lat="45.5364978" lon="12.6389181"><ele>2.0</ele><time>2026-03-29T14:51:08.717Z</time></trkpt><trkpt lat="45.5364711" lon="12.6390192"><ele>2.0</ele><time>2026-03-29T14:51:09.712Z</time></trkpt><trkpt lat="45.5364438" lon="12.6391124"><ele>2.0</ele><time>2026-03-29T14:51:10.721Z</time></trkpt><trkpt lat="45.536404" lon="12.6391901"><ele>1.9999999999999998</ele><time>2026-03-29T14:51:11.724Z</time></trkpt><trkpt lat="45.5363703" lon="12.639268"><ele>2.0</ele><time>2026-03-29T14:51:12.719Z</time></trkpt><trkpt lat="45.5363282" lon="12.6394214"><ele>2.0</ele><time>2026-03-29T14:51:14.724Z</time></trkpt><trkpt lat="45.5362611" lon="12.6395485"><ele>2.0</ele><time>2026-03-29T14:51:16.729Z</time></trkpt><trkpt lat="45.536217" lon="12.6397012"><ele>2.0</ele><time>2026-03-29T14:51:18.722Z</time></trkpt><trkpt lat="45.536175" lon="12.6398467"><ele>2.0</ele><time>2026-03-29T14:51:20.707Z</time></trkpt><trkpt lat="45.5361417" lon="12.6399898"><ele>2.0</ele><time>2026-03-29T14:51:22.722Z</time></trkpt><trkpt lat="45.536113" lon="12.6401069"><ele>1.9999999999999998</ele><time>2026-03-29T14:51:24.725Z</time></trkpt><trkpt lat="45.536061" lon="12.6402165"><ele>2.0</ele><time>2026-03-29T14:51:26.719Z</time></trkpt><trkpt lat="45.5360118" lon="12.6403456"><ele>2.0</ele><time>2026-03-29T14:51:28.725Z</time></trkpt><trkpt lat="45.5359844" lon="12.6404277"><ele>2.0</ele><time>2026-03-29T14:51:29.72Z</time></trkpt><trkpt lat="45.5359564" lon="12.6405091"><ele>1.9999999999999998</ele><time>2026-03-29T14:51:30.732Z</time></trkpt><trkpt lat="45.5359288" lon="12.6405931"><ele>2.0</ele><time>2026-03-29T14:51:31.735Z</time></trkpt><trkpt lat="45.5358867" lon="12.6407234"><ele>2.4000000000000004</ele><time>2026-03-29T14:51:33.72Z</time></trkpt><trkpt lat="45.5358542" lon="12.6408384"><ele>2.8000000000000003</ele><time>2026-03-29T14:51:35.714Z</time></trkpt><trkpt lat="45.5358016" lon="12.640979"><ele>3.2</ele><time>2026-03-29T14:51:37.726Z</time></trkpt><trkpt lat="45.535749" lon="12.6411388"><ele>3.6</ele><time>2026-03-29T14:51:39.732Z</time></trkpt><trkpt lat="45.5356931" lon="12.6412931"><ele>4.0</ele><time>2026-03-29T14:51:41.736Z</time></trkpt><trkpt lat="45.5356641" lon="12.6413735"><ele>3.9999999999999996</ele><time>2026-03-29T14:51:42.717Z</time></trkpt><trkpt lat="45.5356327" lon="12.6414611"><ele>4.0</ele><time>2026-03-29T14:51:43.714Z</time></trkpt><trkpt lat="45.5355979" lon="12.6415628"><ele>4.0</ele><time>2026-03-29T14:51:44.722Z</time></trkpt><trkpt lat="45.5355682" lon="12.641663"><ele>4.0</ele><time>2026-03-29T14:51:45.72Z</time></trkpt><trkpt lat="45.535529" lon="12.6417622"><ele>3.9999999999999996</ele><time>2026-03-29T14:51:46.741Z</time></trkpt><trkpt lat="45.5354883" lon="12.6418574"><ele>4.0</ele><time>2026-03-29T14:51:47.718Z</time></trkpt><trkpt lat="45.535446" lon="12.6419472"><ele>3.8571428571428568</ele><time>2026-03-29T14:51:48.708Z</time></trkpt><trkpt lat="45.5354095" lon="12.6420365"><ele>3.714285714285714</ele><time>2026-03-29T14:51:49.723Z</time></trkpt><trkpt lat="45.5353747" lon="12.6421241"><ele>3.571428571428571</ele><time>2026-03-29T14:51:50.72Z</time></trkpt><trkpt lat="45.5353366" lon="12.6422054"><ele>3.4285714285714284</ele><time>2026-03-29T14:51:51.717Z</time></trkpt><trkpt lat="45.5352954" lon="12.6422824"><ele>3.2857142857142856</ele><time>2026-03-29T14:51:52.743Z</time></trkpt><trkpt lat="45.5352476" lon="12.642358"><ele>3.1428571428571423</ele><time>2026-03-29T14:51:53.717Z</time></trkpt><trkpt lat="45.5351958" lon="12.6424348"><ele>3.0</ele><time>2026-03-29T14:51:54.716Z</time></trkpt><trkpt lat="45.5351402" lon="12.64251"><ele>2.6</ele><time>2026-03-29T14:51:55.727Z</time></trkpt><trkpt lat="45.5350867" lon="12.642582"><ele>2.1999999999999997</ele><time>2026-03-29T14:51:56.723Z</time></trkpt><trkpt lat="45.5350401" lon="12.6426519"><ele>1.8</ele><time>2026-03-29T14:51:57.727Z</time></trkpt><trkpt lat="45.5349588" lon="12.6427738"><ele>1.4</ele><time>2026-03-29T14:51:59.704Z</time></trkpt><trkpt lat="45.5348849" lon="12.6428625"><ele>1.0</ele><time>2026-03-29T14:52:01.725Z</time></trkpt><trkpt lat="45.5348059" lon="12.6429643"><ele>1.0</ele><time>2026-03-29T14:52:03.715Z</time></trkpt><trkpt lat="45.5347555" lon="12.6430212"><ele>0.9999999999999999</ele><time>2026-03-29T14:52:04.711Z</time></trkpt><trkpt lat="45.5346999" lon="12.643079"><ele>1.0</ele><time>2026-03-29T14:52:05.726Z</time></trkpt><trkpt lat="45.5346416" lon="12.6431319"><ele>1.0</ele><time>2026-03-29T14:52:06.725Z</time></trkpt><trkpt lat="45.5345843" lon="12.6431797"><ele>0.9999999999999999</ele><time>2026-03-29T14:52:07.728Z</time></trkpt><trkpt lat="45.5345269" lon="12.6432201"><ele>1.0</ele><time>2026-03-29T14:52:08.715Z</time></trkpt><trkpt lat="45.5344355" lon="12.6432934"><ele>1.0</ele><time>2026-03-29T14:52:10.717Z</time></trkpt><trkpt lat="45.5343595" lon="12.6433583"><ele>1.0</ele><time>2026-03-29T14:52:12.715Z</time></trkpt><trkpt lat="45.5342769" lon="12.6434236"><ele>1.0</ele><time>2026-03-29T14:52:14.731Z</time></trkpt><trkpt lat="45.534176" lon="12.6434947"><ele>1.0</ele><time>2026-03-29T14:52:16.717Z</time></trkpt><trkpt lat="45.534071" lon="12.6435724"><ele>1.0</ele><time>2026-03-29T14:52:18.729Z</time></trkpt><trkpt lat="45.5339593" lon="12.6436306"><ele>1.0</ele><time>2026-03-29T14:52:20.731Z</time></trkpt><trkpt lat="45.5338475" lon="12.6436604"><ele>1.0</ele><time>2026-03-29T14:52:22.736Z</time></trkpt><trkpt lat="45.5337422" lon="12.6436679"><ele>1.0</ele><time>2026-03-29T14:52:24.728Z</time></trkpt><trkpt lat="45.5336406" lon="12.6436741"><ele>1.0</ele><time>2026-03-29T14:52:26.718Z</time></trkpt><trkpt lat="45.5335254" lon="12.6436762"><ele>1.0</ele><time>2026-03-29T14:52:28.725Z</time></trkpt><trkpt lat="45.5334324" lon="12.6436778"><ele>1.0</ele><time>2026-03-29T14:52:30.737Z</time></trkpt><trkpt lat="45.5333458" lon="12.6436655"><ele>1.4</ele><time>2026-03-29T14:54:00.718Z</time></trkpt><trkpt lat="45.5332219" lon="12.6436281"><ele>1.8</ele><time>2026-03-29T14:54:02.741Z</time></trkpt><trkpt lat="45.533144" lon="12.6435921"><ele>2.1999999999999997</ele><time>2026-03-29T14:54:03.723Z</time></trkpt><trkpt lat="45.533063" lon="12.6435384"><ele>2.6</ele><time>2026-03-29T14:54:04.721Z</time></trkpt><trkpt lat="45.5329805" lon="12.6434645"><ele>3.0</ele><time>2026-03-29T14:54:05.724Z</time></trkpt><trkpt lat="45.5328933" lon="12.6433844"><ele>2.8</ele><time>2026-03-29T14:54:06.708Z</time></trkpt><trkpt lat="45.5328048" lon="12.6432902"><ele>2.5999999999999996</ele><time>2026-03-29T14:54:07.72Z</time></trkpt><trkpt lat="45.5327159" lon="12.6431946"><ele>2.4000000000000004</ele><time>2026-03-29T14:54:08.722Z</time></trkpt><trkpt lat="45.5326278" lon="12.6431037"><ele>2.2</ele><time>2026-03-29T14:54:09.721Z</time></trkpt><trkpt lat="45.5325466" lon="12.6430059"><ele>2.0</ele><time>2026-03-29T14:54:10.729Z</time></trkpt><trkpt lat="45.5324653" lon="12.6429158"><ele>2.0</ele><time>2026-03-29T14:54:11.736Z</time></trkpt><trkpt lat="45.5323796" lon="12.6428343"><ele>2.0</ele><time>2026-03-29T14:54:12.719Z</time></trkpt><trkpt lat="45.5322864" lon="12.642769"><ele>2.0</ele><time>2026-03-29T14:54:13.733Z</time></trkpt><trkpt lat="45.5321902" lon="12.642712"><ele>2.0</ele><time>2026-03-29T14:54:14.72Z</time></trkpt><trkpt lat="45.5320932" lon="12.642647"><ele>2.0</ele><time>2026-03-29T14:54:15.731Z</time></trkpt><trkpt lat="45.5319911" lon="12.6425924"><ele>1.8</ele><time>2026-03-29T14:54:16.73Z</time></trkpt><trkpt lat="45.5318836" lon="12.6425479"><ele>1.6</ele><time>2026-03-29T14:54:17.719Z</time></trkpt><trkpt lat="45.5317752" lon="12.6425033"><ele>1.4000000000000001</ele><time>2026-03-29T14:54:18.722Z</time></trkpt><trkpt lat="45.5316699" lon="12.6424622"><ele>1.2000000000000002</ele><time>2026-03-29T14:54:19.729Z</time></trkpt><trkpt lat="45.5315662" lon="12.6424191"><ele>1.0</ele><time>2026-03-29T14:54:20.747Z</time></trkpt><trkpt lat="45.5314612" lon="12.6423761"><ele>1.0</ele><time>2026-03-29T14:54:21.745Z</time></trkpt><trkpt lat="45.531354" lon="12.6423373"><ele>1.0</ele><time>2026-03-29T14:54:22.73Z</time></trkpt><trkpt lat="45.5312434" lon="12.6423034"><ele>1.0</ele><time>2026-03-29T14:54:23.738Z</time></trkpt><trkpt lat="45.5311299" lon="12.6422734"><ele>1.0</ele><time>2026-03-29T14:54:24.733Z</time></trkpt><trkpt lat="45.5310138" lon="12.6422376"><ele>0.75</ele><time>2026-03-29T14:54:25.727Z</time></trkpt><trkpt lat="45.5308929" lon="12.6421943"><ele>0.5</ele><time>2026-03-29T14:54:26.735Z</time></trkpt><trkpt lat="45.5307692" lon="12.6421498"><ele>0.25</ele><time>2026-03-29T14:54:27.738Z</time></trkpt><trkpt lat="45.5306449" lon="12.6421028"><ele>0.0</ele><time>2026-03-29T14:54:28.747Z</time></trkpt><trkpt lat="45.530523" lon="12.6420672"><ele>0.0</ele><time>2026-03-29T14:54:29.743Z</time></trkpt><trkpt lat="45.5304058" lon="12.6420318"><ele>0.0</ele><time>2026-03-29T14:54:30.724Z</time></trkpt><trkpt lat="45.5302927" lon="12.6419903"><ele>0.0</ele><time>2026-03-29T14:54:31.732Z</time></trkpt><trkpt lat="45.5301826" lon="12.641952"><ele>0.0</ele><time>2026-03-29T14:54:32.744Z</time></trkpt><trkpt lat="45.5300763" lon="12.6419151"><ele>-0.16666666666666666</ele><time>2026-03-29T14:54:33.742Z</time></trkpt><trkpt lat="45.5299779" lon="12.6418782"><ele>-0.3333333333333333</ele><time>2026-03-29T14:54:34.745Z</time></trkpt><trkpt lat="45.5298898" lon="12.6418447"><ele>-0.5</ele><time>2026-03-29T14:54:35.734Z</time></trkpt><trkpt lat="45.5298084" lon="12.641812"><ele>-0.6666666666666666</ele><time>2026-03-29T14:54:36.729Z</time></trkpt><trkpt lat="45.52974" lon="12.6417693"><ele>-0.8333333333333333</ele><time>2026-03-29T14:54:37.731Z</time></trkpt><trkpt lat="45.5296856" lon="12.6417116"><ele>-1.0</ele><time>2026-03-29T14:54:38.722Z</time></trkpt><trkpt lat="45.5296403" lon="12.6416403"><ele>-1.0</ele><time>2026-03-29T14:54:39.722Z</time></trkpt><trkpt lat="45.5296093" lon="12.6415533"><ele>-1.0</ele><time>2026-03-29T14:54:40.727Z</time></trkpt><trkpt lat="45.5295214" lon="12.6414387"><ele>-1.0</ele><time>2026-03-29T14:54:42.718Z</time></trkpt><trkpt lat="45.5294197" lon="12.6414783"><ele>-1.0</ele><time>2026-03-29T14:54:44.72Z</time></trkpt><trkpt lat="45.5293943" lon="12.6416339"><ele>-1.0</ele><time>2026-03-29T14:54:46.725Z</time></trkpt><trkpt lat="45.5294197" lon="12.6417367"><ele>-1.0</ele><time>2026-03-29T14:54:47.724Z</time></trkpt><trkpt lat="45.5294338" lon="12.6418678"><ele>-1.0</ele><time>2026-03-29T14:54:48.72Z</time></trkpt><trkpt lat="45.5294457" lon="12.6420079"><ele>-1.0</ele><time>2026-03-29T14:54:49.723Z</time></trkpt><trkpt lat="45.5294458" lon="12.6421554"><ele>-1.0</ele><time>2026-03-29T14:54:50.722Z</time></trkpt><trkpt lat="45.5294493" lon="12.6423044"><ele>-1.0</ele><time>2026-03-29T14:54:51.725Z</time></trkpt><trkpt lat="45.5294554" lon="12.6424535"><ele>-1.0</ele><time>2026-03-29T14:54:52.73Z</time></trkpt><trkpt lat="45.5294627" lon="12.6426001"><ele>-1.0</ele><time>2026-03-29T14:54:53.73Z</time></trkpt><trkpt lat="45.5294711" lon="12.6427477"><ele>-1.0</ele><time>2026-03-29T14:54:54.737Z</time></trkpt><trkpt lat="45.529482" lon="12.6428978"><ele>-1.0</ele><time>2026-03-29T14:54:55.737Z</time></trkpt><trkpt lat="45.5294947" lon="12.6430465"><ele>-1.0</ele><time>2026-03-29T14:54:56.723Z</time></trkpt><trkpt lat="45.5295066" lon="12.6431903"><ele>-1.0</ele><time>2026-03-29T14:54:57.732Z</time></trkpt><trkpt lat="45.5295172" lon="12.6433306"><ele>-1.0</ele><time>2026-03-29T14:54:58.717Z</time></trkpt><trkpt lat="45.5295274" lon="12.6434702"><ele>-1.0</ele><time>2026-03-29T14:54:59.729Z</time></trkpt><trkpt lat="45.529539" lon="12.6436109"><ele>-1.0</ele><time>2026-03-29T14:55:00.725Z</time></trkpt><trkpt lat="45.5295517" lon="12.643752"><ele>-1.0</ele><time>2026-03-29T14:55:01.713Z</time></trkpt><trkpt lat="45.5295579" lon="12.6438874"><ele>-0.9999999999999999</ele><time>2026-03-29T14:55:02.752Z</time></trkpt><trkpt lat="45.5295584" lon="12.6440165"><ele>-1.0</ele><time>2026-03-29T14:55:03.741Z</time></trkpt><trkpt lat="45.5295543" lon="12.6441426"><ele>-1.0</ele><time>2026-03-29T14:55:04.732Z</time></trkpt><trkpt lat="45.5295515" lon="12.6442656"><ele>-1.0</ele><time>2026-03-29T14:55:05.729Z</time></trkpt><trkpt lat="45.5295455" lon="12.6443804"><ele>-0.9999999999999999</ele><time>2026-03-29T14:55:06.719Z</time></trkpt><trkpt lat="45.5295404" lon="12.6444863"><ele>-1.0</ele><time>2026-03-29T14:55:07.722Z</time></trkpt><trkpt lat="45.5295389" lon="12.6445835"><ele>-0.9999999999999999</ele><time>2026-03-29T14:55:08.73Z</time></trkpt><trkpt lat="45.5295376" lon="12.6447307"><ele>-1.0</ele><time>2026-03-29T14:55:10.732Z</time></trkpt><trkpt lat="45.5295309" lon="12.644831"><ele>-1.0</ele><time>2026-03-29T14:55:12.723Z</time></trkpt><trkpt lat="45.5294798" lon="12.644921"><ele>-1.0</ele><time>2026-03-29T14:55:15.738Z</time></trkpt><trkpt lat="45.5293682" lon="12.6449046"><ele>-0.9999999999999999</ele><time>2026-03-29T14:55:17.733Z</time></trkpt><trkpt lat="45.5293033" lon="12.6448867"><ele>-1.0</ele><time>2026-03-29T14:55:18.731Z</time></trkpt><trkpt lat="45.5292409" lon="12.6448737"><ele>-1.0</ele><time>2026-03-29T14:55:19.724Z</time></trkpt><trkpt lat="45.5291222" lon="12.6448545"><ele>-1.0</ele><time>2026-03-29T14:55:21.731Z</time></trkpt><trkpt lat="45.5290216" lon="12.644844"><ele>-1.0</ele><time>2026-03-29T14:55:23.738Z</time></trkpt><trkpt lat="45.5289561" lon="12.6448357"><ele>-1.0</ele><time>2026-03-29T14:55:25.723Z</time></trkpt><trkpt lat="45.528879" lon="12.644828"><ele>-1.0</ele><time>2026-03-29T14:55:27.734Z</time></trkpt><trkpt lat="45.5287755" lon="12.6448176"><ele>-0.6000000000000001</ele><time>2026-03-29T14:55:29.729Z</time></trkpt><trkpt lat="45.5286585" lon="12.6448015"><ele>-0.20000000000000007</ele><time>2026-03-29T14:55:31.732Z</time></trkpt><trkpt lat="45.5285401" lon="12.6447802"><ele>0.20000000000000007</ele><time>2026-03-29T14:55:33.724Z</time></trkpt><trkpt lat="45.5284121" lon="12.6447616"><ele>0.6000000000000001</ele><time>2026-03-29T14:55:35.737Z</time></trkpt><trkpt lat="45.5283368" lon="12.6447503"><ele>1.0</ele><time>2026-03-29T14:55:36.733Z</time></trkpt><trkpt lat="45.5282555" lon="12.6447351"><ele>0.9999999999999999</ele><time>2026-03-29T14:55:37.727Z</time></trkpt><trkpt lat="45.5281715" lon="12.6447195"><ele>1.0</ele><time>2026-03-29T14:55:38.731Z</time></trkpt><trkpt lat="45.5280857" lon="12.6447091"><ele>1.0</ele><time>2026-03-29T14:55:39.724Z</time></trkpt><trkpt lat="45.5279992" lon="12.644698"><ele>1.0</ele><time>2026-03-29T14:55:40.729Z</time></trkpt><trkpt lat="45.5279154" lon="12.6446852"><ele>0.9999999999999999</ele><time>2026-03-29T14:55:41.734Z</time></trkpt><trkpt lat="45.5278357" lon="12.6446774"><ele>1.0</ele><time>2026-03-29T14:55:42.739Z</time></trkpt><trkpt lat="45.5277618" lon="12.6446716"><ele>1.2000000000000002</ele><time>2026-03-29T14:55:43.734Z</time></trkpt><trkpt lat="45.5276967" lon="12.6446594"><ele>1.4000000000000001</ele><time>2026-03-29T14:55:44.72Z</time></trkpt><trkpt lat="45.5275908" lon="12.644605"><ele>1.6</ele><time>2026-03-29T14:55:46.723Z</time></trkpt><trkpt lat="45.5275117" lon="12.6445053"><ele>1.8</ele><time>2026-03-29T14:55:48.72Z</time></trkpt><trkpt lat="45.5274293" lon="12.6444444"><ele>2.0</ele><time>2026-03-29T14:55:50.718Z</time></trkpt><trkpt lat="45.5273233" lon="12.6443999"><ele>1.4999999999999998</ele><time>2026-03-29T14:55:52.723Z</time></trkpt><trkpt lat="45.5272641" lon="12.6443623"><ele>1.0</ele><time>2026-03-29T14:55:53.732Z</time></trkpt><trkpt lat="45.5271966" lon="12.6442975"><ele>0.5</ele><time>2026-03-29T14:55:54.732Z</time></trkpt><trkpt lat="45.5271246" lon="12.6442315"><ele>0.0</ele><time>2026-03-29T14:55:55.729Z</time></trkpt><trkpt lat="45.5270549" lon="12.644176"><ele>-0.49999999999999994</ele><time>2026-03-29T14:55:56.719Z</time></trkpt><trkpt lat="45.5269882" lon="12.6441284"><ele>-1.0</ele><time>2026-03-29T14:55:57.721Z</time></trkpt><trkpt lat="45.5269237" lon="12.6440892"><ele>-1.3333333333333333</ele><time>2026-03-29T14:55:58.714Z</time></trkpt><trkpt lat="45.5268603" lon="12.6440595"><ele>-1.6666666666666665</ele><time>2026-03-29T14:55:59.727Z</time></trkpt><trkpt lat="45.5267988" lon="12.6440299"><ele>-2.0</ele><time>2026-03-29T14:56:00.72Z</time></trkpt><trkpt lat="45.5267384" lon="12.6439953"><ele>-2.3333333333333335</ele><time>2026-03-29T14:56:01.74Z</time></trkpt><trkpt lat="45.526677" lon="12.6439665"><ele>-2.6666666666666665</ele><time>2026-03-29T14:56:02.728Z</time></trkpt><trkpt lat="45.5265607" lon="12.6439169"><ele>-3.0</ele><time>2026-03-29T14:56:04.733Z</time></trkpt><trkpt lat="45.5264396" lon="12.6438803"><ele>-3.0</ele><time>2026-03-29T14:56:06.742Z</time></trkpt><trkpt lat="45.5263764" lon="12.6438702"><ele>-3.0</ele><time>2026-03-29T14:56:07.727Z</time></trkpt><trkpt lat="45.526255" lon="12.6438534"><ele>-3.0</ele><time>2026-03-29T14:56:09.726Z</time></trkpt><trkpt lat="45.5261422" lon="12.6438329"><ele>-3.0</ele><time>2026-03-29T14:56:11.723Z</time></trkpt><trkpt lat="45.5260363" lon="12.6438124"><ele>-3.0</ele><time>2026-03-29T14:56:13.717Z</time></trkpt><trkpt lat="45.5259376" lon="12.6437895"><ele>-1.0</ele><time>2026-03-29T14:56:15.723Z</time></trkpt><trkpt lat="45.5258733" lon="12.643776"><ele>-1.0</ele><time>2026-03-29T14:56:17.716Z</time></trkpt><trkpt lat="45.5258115" lon="12.6437957"><ele>-1.0</ele><time>2026-03-29T14:58:24.714Z</time></trkpt><trkpt lat="45.5256776" lon="12.6437716"><ele>-1.0</ele><time>2026-03-29T15:01:35.743Z</time></trkpt></trkseg><trkseg><trkpt lat="45.5377517" lon="12.6384438"><ele>3.9999999999999996</ele><time>2026-03-29T15:24:12.523Z</time></trkpt><trkpt lat="45.537745" lon="12.6383438"><ele>4.0</ele><time>2026-03-29T15:24:20.522Z</time></trkpt><trkpt lat="45.5376437" lon="12.6383028"><ele>4.0</ele><time>2026-03-29T15:24:24.571Z</time></trkpt><trkpt lat="45.5375439" lon="12.6382725"><ele>4.0</ele><time>2026-03-29T15:24:26.527Z</time></trkpt><trkpt lat="45.537459" lon="12.6382516"><ele>3.9999999999999996</ele><time>2026-03-29T15:24:28.54Z</time></trkpt><trkpt lat="45.5373762" lon="12.6382327"><ele>4.0</ele><time>2026-03-29T15:24:30.52Z</time></trkpt><trkpt lat="45.5372948" lon="12.638206"><ele>4.0</ele><time>2026-03-29T15:24:32.52Z</time></trkpt><trkpt lat="45.5372254" lon="12.6381765"><ele>4.0</ele><time>2026-03-29T15:24:34.527Z</time></trkpt><trkpt lat="45.5371815" lon="12.638323"><ele>4.0</ele><time>2026-03-29T15:24:37.511Z</time></trkpt><trkpt lat="45.5371677" lon="12.6384918"><ele>4.0</ele><time>2026-03-29T15:24:39.534Z</time></trkpt><trkpt lat="45.5371529" lon="12.6386094"><ele>4.0</ele><time>2026-03-29T15:24:42.522Z</time></trkpt><trkpt lat="45.5370775" lon="12.6386627"><ele>3.6</ele><time>2026-03-29T15:24:46.523Z</time></trkpt><trkpt lat="45.5369567" lon="12.6386424"><ele>3.2</ele><time>2026-03-29T15:24:48.517Z</time></trkpt><trkpt lat="45.5368567" lon="12.6386161"><ele>2.8000000000000003</ele><time>2026-03-29T15:24:50.517Z</time></trkpt><trkpt lat="45.5367884" lon="12.638595"><ele>2.4000000000000004</ele><time>2026-03-29T15:24:53.516Z</time></trkpt><trkpt lat="45.5367461" lon="12.6385223"><ele>2.0</ele><time>2026-03-29T15:24:56.538Z</time></trkpt><trkpt lat="45.5367575" lon="12.6383287"><ele>2.0</ele><time>2026-03-29T15:24:58.521Z</time></trkpt><trkpt lat="45.5367735" lon="12.6382157"><ele>2.0</ele><time>2026-03-29T15:24:59.525Z</time></trkpt><trkpt lat="45.5367952" lon="12.6380832"><ele>2.0</ele><time>2026-03-29T15:25:00.519Z</time></trkpt><trkpt lat="45.5368186" lon="12.6379389"><ele>2.0</ele><time>2026-03-29T15:25:01.522Z</time></trkpt><trkpt lat="45.5368412" lon="12.6377915"><ele>2.0</ele><time>2026-03-29T15:25:02.524Z</time></trkpt><trkpt lat="45.5368625" lon="12.6376527"><ele>1.9999999999999998</ele><time>2026-03-29T15:25:03.539Z</time></trkpt><trkpt lat="45.5368829" lon="12.63752"><ele>2.0</ele><time>2026-03-29T15:25:04.519Z</time></trkpt><trkpt lat="45.5368999" lon="12.6373933"><ele>2.0</ele><time>2026-03-29T15:25:05.537Z</time></trkpt><trkpt lat="45.5369134" lon="12.6372716"><ele>2.0</ele><time>2026-03-29T15:25:06.546Z</time></trkpt><trkpt lat="45.5369261" lon="12.6371577"><ele>1.9999999999999998</ele><time>2026-03-29T15:25:07.513Z</time></trkpt><trkpt lat="45.5369398" lon="12.6370548"><ele>2.0</ele><time>2026-03-29T15:25:08.518Z</time></trkpt><trkpt lat="45.5369325" lon="12.6369626"><ele>2.1666666666666665</ele><time>2026-03-29T15:25:09.539Z</time></trkpt><trkpt lat="45.5369496" lon="12.6368591"><ele>2.333333333333333</ele><time>2026-03-29T15:25:11.53Z</time></trkpt><trkpt lat="45.5370438" lon="12.6368356"><ele>2.5</ele><time>2026-03-29T15:25:13.54Z</time></trkpt><trkpt lat="45.5371265" lon="12.6368442"><ele>2.6666666666666665</ele><time>2026-03-29T15:25:14.52Z</time></trkpt><trkpt lat="45.537219" lon="12.6368647"><ele>2.8333333333333335</ele><time>2026-03-29T15:25:15.53Z</time></trkpt><trkpt lat="45.5373185" lon="12.6368885"><ele>3.0</ele><time>2026-03-29T15:25:16.526Z</time></trkpt><trkpt lat="45.5374173" lon="12.636905"><ele>2.8333333333333335</ele><time>2026-03-29T15:25:17.541Z</time></trkpt><trkpt lat="45.5375111" lon="12.6369024"><ele>2.6666666666666665</ele><time>2026-03-29T15:25:18.539Z</time></trkpt><trkpt lat="45.5375973" lon="12.6369236"><ele>2.5</ele><time>2026-03-29T15:25:19.52Z</time></trkpt><trkpt lat="45.537678" lon="12.6369611"><ele>2.333333333333333</ele><time>2026-03-29T15:25:20.54Z</time></trkpt><trkpt lat="45.537756" lon="12.6369907"><ele>2.1666666666666665</ele><time>2026-03-29T15:25:21.527Z</time></trkpt><trkpt lat="45.5378363" lon="12.6370202"><ele>2.0</ele><time>2026-03-29T15:25:22.532Z</time></trkpt><trkpt lat="45.5379231" lon="12.6370494"><ele>2.0</ele><time>2026-03-29T15:25:23.533Z</time></trkpt><trkpt lat="45.5380184" lon="12.6370522"><ele>2.0</ele><time>2026-03-29T15:25:24.523Z</time></trkpt><trkpt lat="45.5381141" lon="12.6370745"><ele>2.0</ele><time>2026-03-29T15:25:25.536Z</time></trkpt><trkpt lat="45.5382113" lon="12.6371002"><ele>2.0</ele><time>2026-03-29T15:25:26.521Z</time></trkpt><trkpt lat="45.5383091" lon="12.6371361"><ele>2.0</ele><time>2026-03-29T15:25:27.536Z</time></trkpt><trkpt lat="45.5384074" lon="12.637171"><ele>2.0</ele><time>2026-03-29T15:25:28.537Z</time></trkpt><trkpt lat="45.5385003" lon="12.6372113"><ele>2.0</ele><time>2026-03-29T15:25:29.529Z</time></trkpt><trkpt lat="45.5385889" lon="12.6372487"><ele>2.0</ele><time>2026-03-29T15:25:30.555Z</time></trkpt><trkpt lat="45.538676" lon="12.637279"><ele>2.0</ele><time>2026-03-29T15:25:31.544Z</time></trkpt><trkpt lat="45.5387633" lon="12.6373118"><ele>2.0</ele><time>2026-03-29T15:25:32.522Z</time></trkpt><trkpt lat="45.5388556" lon="12.6373407"><ele>2.2</ele><time>2026-03-29T15:25:33.533Z</time></trkpt><trkpt lat="45.5389507" lon="12.6373753"><ele>2.4000000000000004</ele><time>2026-03-29T15:25:34.534Z</time></trkpt><trkpt lat="45.539053" lon="12.6374024"><ele>2.5999999999999996</ele><time>2026-03-29T15:25:35.531Z</time></trkpt><trkpt lat="45.5391612" lon="12.6374294"><ele>2.8</ele><time>2026-03-29T15:25:36.542Z</time></trkpt><trkpt lat="45.5392708" lon="12.6374689"><ele>3.0</ele><time>2026-03-29T15:25:37.532Z</time></trkpt><trkpt lat="45.5393821" lon="12.6375003"><ele>3.0</ele><time>2026-03-29T15:25:38.53Z</time></trkpt><trkpt lat="45.539492" lon="12.6375305"><ele>3.0</ele><time>2026-03-29T15:25:39.541Z</time></trkpt><trkpt lat="45.5395996" lon="12.6375595"><ele>3.0</ele><time>2026-03-29T15:25:40.529Z</time></trkpt><trkpt lat="45.5397044" lon="12.6375912"><ele>3.0</ele><time>2026-03-29T15:25:41.525Z</time></trkpt><trkpt lat="45.5397954" lon="12.6376095"><ele>3.0</ele><time>2026-03-29T15:25:42.528Z</time></trkpt><trkpt lat="45.5398648" lon="12.6376261"><ele>2.6</ele><time>2026-03-29T15:25:43.52Z</time></trkpt><trkpt lat="45.5399682" lon="12.6376477"><ele>2.1999999999999997</ele><time>2026-03-29T15:25:45.539Z</time></trkpt><trkpt lat="45.5400326" lon="12.6375907"><ele>1.8</ele><time>2026-03-29T15:25:47.531Z</time></trkpt><trkpt lat="45.5400583" lon="12.6374004"><ele>1.4</ele><time>2026-03-29T15:25:49.53Z</time></trkpt><trkpt lat="45.5400703" lon="12.6372827"><ele>1.0</ele><time>2026-03-29T15:25:50.541Z</time></trkpt><trkpt lat="45.5400822" lon="12.6371593"><ele>1.0</ele><time>2026-03-29T15:25:51.531Z</time></trkpt><trkpt lat="45.5400953" lon="12.6370318"><ele>1.0</ele><time>2026-03-29T15:25:52.533Z</time></trkpt><trkpt lat="45.5401155" lon="12.6369009"><ele>1.0</ele><time>2026-03-29T15:25:53.522Z</time></trkpt><trkpt lat="45.5401367" lon="12.6367677"><ele>1.0</ele><time>2026-03-29T15:25:54.529Z</time></trkpt><trkpt lat="45.5401561" lon="12.6366324"><ele>1.0</ele><time>2026-03-29T15:25:55.53Z</time></trkpt><trkpt lat="45.5401725" lon="12.6364965"><ele>0.8</ele><time>2026-03-29T15:25:56.541Z</time></trkpt><trkpt lat="45.5401878" lon="12.6363612"><ele>0.6000000000000001</ele><time>2026-03-29T15:25:57.538Z</time></trkpt><trkpt lat="45.5401994" lon="12.6362273"><ele>0.4</ele><time>2026-03-29T15:25:58.545Z</time></trkpt><trkpt lat="45.5402189" lon="12.6360968"><ele>0.2</ele><time>2026-03-29T15:25:59.527Z</time></trkpt><trkpt lat="45.5402388" lon="12.6359667"><ele>0.0</ele><time>2026-03-29T15:26:00.532Z</time></trkpt><trkpt lat="45.5402603" lon="12.6358396"><ele>0.0</ele><time>2026-03-29T15:26:01.527Z</time></trkpt><trkpt lat="45.5402849" lon="12.6357212"><ele>0.0</ele><time>2026-03-29T15:26:02.543Z</time></trkpt><trkpt lat="45.540309" lon="12.6356127"><ele>0.0</ele><time>2026-03-29T15:26:03.529Z</time></trkpt><trkpt lat="45.5403302" lon="12.6355103"><ele>0.0</ele><time>2026-03-29T15:26:04.528Z</time></trkpt><trkpt lat="45.5403574" lon="12.6354082"><ele>0.0</ele><time>2026-03-29T15:26:05.521Z</time></trkpt><trkpt lat="45.5403913" lon="12.6352914"><ele>0.0</ele><time>2026-03-29T15:26:06.537Z</time></trkpt><trkpt lat="45.540433" lon="12.63516"><ele>0.0</ele><time>2026-03-29T15:26:07.538Z</time></trkpt><trkpt lat="45.5404835" lon="12.6350086"><ele>0.0</ele><time>2026-03-29T15:26:08.522Z</time></trkpt><trkpt lat="45.5405348" lon="12.6348525"><ele>0.0</ele><time>2026-03-29T15:26:09.545Z</time></trkpt><trkpt lat="45.5405886" lon="12.6346992"><ele>0.0</ele><time>2026-03-29T15:26:10.528Z</time></trkpt><trkpt lat="45.5406341" lon="12.6345421"><ele>0.0</ele><time>2026-03-29T15:26:11.531Z</time></trkpt><trkpt lat="45.5406813" lon="12.6343827"><ele>0.0</ele><time>2026-03-29T15:26:12.537Z</time></trkpt><trkpt lat="45.5407299" lon="12.6342194"><ele>0.0</ele><time>2026-03-29T15:26:13.525Z</time></trkpt><trkpt lat="45.5407719" lon="12.6340481"><ele>0.0</ele><time>2026-03-29T15:26:14.521Z</time></trkpt><trkpt lat="45.5407976" lon="12.6338691"><ele>0.0</ele><time>2026-03-29T15:26:15.525Z</time></trkpt><trkpt lat="45.5408082" lon="12.6336888"><ele>0.0</ele><time>2026-03-29T15:26:16.542Z</time></trkpt><trkpt lat="45.5408221" lon="12.6335144"><ele>0.0</ele><time>2026-03-29T15:26:17.534Z</time></trkpt><trkpt lat="45.5408378" lon="12.6333449"><ele>0.0</ele><time>2026-03-29T15:26:18.533Z</time></trkpt><trkpt lat="45.5408532" lon="12.6331825"><ele>-0.2</ele><time>2026-03-29T15:26:19.521Z</time></trkpt><trkpt lat="45.5408707" lon="12.6330339"><ele>-0.4</ele><time>2026-03-29T15:26:20.531Z</time></trkpt><trkpt lat="45.5408869" lon="12.6329041"><ele>-0.6000000000000001</ele><time>2026-03-29T15:26:21.542Z</time></trkpt><trkpt lat="45.5409001" lon="12.6327853"><ele>-0.8</ele><time>2026-03-29T15:26:22.521Z</time></trkpt><trkpt lat="45.5409098" lon="12.6326653"><ele>-1.0</ele><time>2026-03-29T15:26:23.553Z</time></trkpt><trkpt lat="45.54092" lon="12.6325301"><ele>-0.75</ele><time>2026-03-29T15:26:24.54Z</time></trkpt><trkpt lat="45.5409323" lon="12.632377"><ele>-0.5</ele><time>2026-03-29T15:26:25.532Z</time></trkpt><trkpt lat="45.5409438" lon="12.6322089"><ele>-0.25</ele><time>2026-03-29T15:26:26.525Z</time></trkpt><trkpt lat="45.5409565" lon="12.632025"><ele>0.0</ele><time>2026-03-29T15:26:27.528Z</time></trkpt><trkpt lat="45.5409669" lon="12.6318349"><ele>0.0</ele><time>2026-03-29T15:26:28.539Z</time></trkpt><trkpt lat="45.5409769" lon="12.6316551"><ele>0.0</ele><time>2026-03-29T15:26:29.54Z</time></trkpt><trkpt lat="45.5409859" lon="12.6314985"><ele>0.0</ele><time>2026-03-29T15:26:30.544Z</time></trkpt><trkpt lat="45.5409952" lon="12.6313615"><ele>0.0</ele><time>2026-03-29T15:26:31.537Z</time></trkpt><trkpt lat="45.541003" lon="12.6312451"><ele>0.0</ele><time>2026-03-29T15:26:32.539Z</time></trkpt><trkpt lat="45.5410076" lon="12.6311548"><ele>0.0</ele><time>2026-03-29T15:26:33.54Z</time></trkpt><trkpt lat="45.5410213" lon="12.6310443"><ele>0.0</ele><time>2026-03-29T15:26:35.54Z</time></trkpt><trkpt lat="45.5410696" lon="12.6309629"><ele>0.0</ele><time>2026-03-29T15:26:42.521Z</time></trkpt><trkpt lat="45.5412153" lon="12.6309185"><ele>0.0</ele><time>2026-03-29T15:26:44.535Z</time></trkpt><trkpt lat="45.5413323" lon="12.6308908"><ele>0.0</ele><time>2026-03-29T15:26:45.536Z</time></trkpt><trkpt lat="45.5414683" lon="12.6308567"><ele>0.0</ele><time>2026-03-29T15:26:46.523Z</time></trkpt><trkpt lat="45.5416058" lon="12.630819"><ele>0.0</ele><time>2026-03-29T15:26:47.517Z</time></trkpt><trkpt lat="45.5417408" lon="12.630769"><ele>0.0</ele><time>2026-03-29T15:26:48.523Z</time></trkpt><trkpt lat="45.5418673" lon="12.6307325"><ele>0.0</ele><time>2026-03-29T15:26:49.548Z</time></trkpt><trkpt lat="45.5419836" lon="12.6306941"><ele>-0.6</ele><time>2026-03-29T15:26:50.516Z</time></trkpt><trkpt lat="45.5420934" lon="12.6306645"><ele>-1.2</ele><time>2026-03-29T15:26:51.547Z</time></trkpt><trkpt lat="45.5421942" lon="12.6306511"><ele>-1.7999999999999998</ele><time>2026-03-29T15:26:52.528Z</time></trkpt><trkpt lat="45.5422887" lon="12.6306595"><ele>-2.4</ele><time>2026-03-29T15:26:53.525Z</time></trkpt><trkpt lat="45.5423695" lon="12.6306982"><ele>-3.0</ele><time>2026-03-29T15:26:54.531Z</time></trkpt><trkpt lat="45.542442" lon="12.6307414"><ele>-3.0</ele><time>2026-03-29T15:26:55.528Z</time></trkpt><trkpt lat="45.542511" lon="12.6307695"><ele>-3.0</ele><time>2026-03-29T15:26:56.524Z</time></trkpt><trkpt lat="45.542574" lon="12.630757"><ele>-3.0</ele><time>2026-03-29T15:26:57.525Z</time></trkpt><trkpt lat="45.5426713" lon="12.6306382"><ele>-3.0</ele><time>2026-03-29T15:26:59.524Z</time></trkpt><trkpt lat="45.5427039" lon="12.6305455"><ele>-3.0</ele><time>2026-03-29T15:27:00.524Z</time></trkpt><trkpt lat="45.5427148" lon="12.6304419"><ele>-3.0</ele><time>2026-03-29T15:27:01.531Z</time></trkpt><trkpt lat="45.5427006" lon="12.6303345"><ele>-2.8333333333333335</ele><time>2026-03-29T15:27:02.535Z</time></trkpt><trkpt lat="45.5426494" lon="12.6302425"><ele>-2.6666666666666665</ele><time>2026-03-29T15:27:03.521Z</time></trkpt><trkpt lat="45.5425794" lon="12.6301812"><ele>-2.5</ele><time>2026-03-29T15:27:04.527Z</time></trkpt><trkpt lat="45.5425042" lon="12.6301298"><ele>-2.333333333333333</ele><time>2026-03-29T15:27:05.522Z</time></trkpt><trkpt lat="45.5424199" lon="12.6300822"><ele>-2.1666666666666665</ele><time>2026-03-29T15:27:06.521Z</time></trkpt><trkpt lat="45.5423328" lon="12.630003"><ele>-2.0</ele><time>2026-03-29T15:27:07.54Z</time></trkpt><trkpt lat="45.5422461" lon="12.6298801"><ele>-2.0</ele><time>2026-03-29T15:27:08.535Z</time></trkpt><trkpt lat="45.5421637" lon="12.6297221"><ele>-2.0</ele><time>2026-03-29T15:27:09.55Z</time></trkpt><trkpt lat="45.5420828" lon="12.6295478"><ele>-2.0</ele><time>2026-03-29T15:27:10.567Z</time></trkpt><trkpt lat="45.541998" lon="12.6293648"><ele>-2.0</ele><time>2026-03-29T15:27:11.542Z</time></trkpt><trkpt lat="45.5419087" lon="12.6291739"><ele>-2.0</ele><time>2026-03-29T15:27:12.516Z</time></trkpt><trkpt lat="45.5418231" lon="12.6289906"><ele>-2.0</ele><time>2026-03-29T15:27:13.526Z</time></trkpt><trkpt lat="45.5417376" lon="12.6288249"><ele>-2.0</ele><time>2026-03-29T15:27:14.53Z</time></trkpt><trkpt lat="45.5416673" lon="12.6286673"><ele>-2.0</ele><time>2026-03-29T15:27:15.526Z</time></trkpt><trkpt lat="45.541619" lon="12.6285114"><ele>-2.0</ele><time>2026-03-29T15:27:16.511Z</time></trkpt><trkpt lat="45.5415946" lon="12.6283561"><ele>-2.0</ele><time>2026-03-29T15:27:17.517Z</time></trkpt><trkpt lat="45.5416029" lon="12.6281968"><ele>-2.0</ele><time>2026-03-29T15:27:18.53Z</time></trkpt><trkpt lat="45.5416309" lon="12.6280485"><ele>-2.0</ele><time>2026-03-29T15:27:19.526Z</time></trkpt><trkpt lat="45.5416875" lon="12.6279"><ele>-2.0</ele><time>2026-03-29T15:27:20.54Z</time></trkpt><trkpt lat="45.5417353" lon="12.6277378"><ele>-1.6</ele><time>2026-03-29T15:27:21.537Z</time></trkpt><trkpt lat="45.5417674" lon="12.6275724"><ele>-1.2000000000000002</ele><time>2026-03-29T15:27:22.532Z</time></trkpt><trkpt lat="45.5417813" lon="12.6274215"><ele>-0.8</ele><time>2026-03-29T15:27:23.526Z</time></trkpt><trkpt lat="45.5417832" lon="12.6272956"><ele>-0.4</ele><time>2026-03-29T15:27:24.549Z</time></trkpt><trkpt lat="45.5417768" lon="12.6271893"><ele>0.0</ele><time>2026-03-29T15:27:25.519Z</time></trkpt><trkpt lat="45.541761" lon="12.6270954"><ele>0.0</ele><time>2026-03-29T15:27:26.523Z</time></trkpt><trkpt lat="45.5417384" lon="12.6270108"><ele>0.0</ele><time>2026-03-29T15:27:27.535Z</time></trkpt><trkpt lat="45.5417061" lon="12.6269266"><ele>0.0</ele><time>2026-03-29T15:27:28.547Z</time></trkpt><trkpt lat="45.5416666" lon="12.6268376"><ele>0.0</ele><time>2026-03-29T15:27:29.535Z</time></trkpt><trkpt lat="45.5416224" lon="12.6267286"><ele>0.0</ele><time>2026-03-29T15:27:30.533Z</time></trkpt><trkpt lat="45.5415616" lon="12.6266044"><ele>0.0</ele><time>2026-03-29T15:27:31.542Z</time></trkpt><trkpt lat="45.5414757" lon="12.6264784"><ele>0.0</ele><time>2026-03-29T15:27:32.56Z</time></trkpt><trkpt lat="45.5413779" lon="12.6263722"><ele>0.0</ele><time>2026-03-29T15:27:33.546Z</time></trkpt><trkpt lat="45.5412792" lon="12.6262857"><ele>0.0</ele><time>2026-03-29T15:27:34.554Z</time></trkpt><trkpt lat="45.5411805" lon="12.6262176"><ele>0.0</ele><time>2026-03-29T15:27:35.542Z</time></trkpt><trkpt lat="45.5410871" lon="12.6261504"><ele>-0.16666666666666666</ele><time>2026-03-29T15:27:36.524Z</time></trkpt><trkpt lat="45.5410004" lon="12.6260783"><ele>-0.3333333333333333</ele><time>2026-03-29T15:27:37.53Z</time></trkpt><trkpt lat="45.540927" lon="12.6259905"><ele>-0.5</ele><time>2026-03-29T15:27:38.532Z</time></trkpt><trkpt lat="45.5408645" lon="12.6259048"><ele>-0.6666666666666666</ele><time>2026-03-29T15:27:39.551Z</time></trkpt><trkpt lat="45.5408232" lon="12.6258168"><ele>-0.8333333333333333</ele><time>2026-03-29T15:27:40.525Z</time></trkpt><trkpt lat="45.5407921" lon="12.6257383"><ele>-1.0</ele><time>2026-03-29T15:27:41.529Z</time></trkpt><trkpt lat="45.5407368" lon="12.625584"><ele>-1.0</ele><time>2026-03-29T15:27:43.534Z</time></trkpt><trkpt lat="45.5407153" lon="12.6254016"><ele>-1.0</ele><time>2026-03-29T15:27:45.567Z</time></trkpt><trkpt lat="45.5407052" lon="12.625282"><ele>-1.0</ele><time>2026-03-29T15:27:46.54Z</time></trkpt><trkpt lat="45.5406923" lon="12.6251395"><ele>-1.0</ele><time>2026-03-29T15:27:47.534Z</time></trkpt><trkpt lat="45.5406801" lon="12.6249853"><ele>-1.0</ele><time>2026-03-29T15:27:48.545Z</time></trkpt><trkpt lat="45.5406763" lon="12.6248345"><ele>-1.0</ele><time>2026-03-29T15:27:49.534Z</time></trkpt><trkpt lat="45.5406726" lon="12.6246853"><ele>-1.0</ele><time>2026-03-29T15:27:50.563Z</time></trkpt><trkpt lat="45.5406721" lon="12.6245344"><ele>-1.0</ele><time>2026-03-29T15:27:51.535Z</time></trkpt><trkpt lat="45.5406628" lon="12.6243856"><ele>-1.0</ele><time>2026-03-29T15:27:52.541Z</time></trkpt><trkpt lat="45.5406494" lon="12.6242327"><ele>-1.0</ele><time>2026-03-29T15:27:53.559Z</time></trkpt><trkpt lat="45.5406337" lon="12.6240703"><ele>-0.75</ele><time>2026-03-29T15:27:54.545Z</time></trkpt><trkpt lat="45.5406193" lon="12.6238986"><ele>-0.5</ele><time>2026-03-29T15:27:55.542Z</time></trkpt><trkpt lat="45.540601" lon="12.6237269"><ele>-0.25</ele><time>2026-03-29T15:27:56.536Z</time></trkpt><trkpt lat="45.5405967" lon="12.6235572"><ele>0.0</ele><time>2026-03-29T15:27:57.553Z</time></trkpt><trkpt lat="45.54059" lon="12.6233941"><ele>0.0</ele><time>2026-03-29T15:27:58.531Z</time></trkpt><trkpt lat="45.5405842" lon="12.6232377"><ele>0.0</ele><time>2026-03-29T15:27:59.532Z</time></trkpt><trkpt lat="45.5405798" lon="12.6230872"><ele>0.0</ele><time>2026-03-29T15:28:00.527Z</time></trkpt><trkpt lat="45.5405778" lon="12.6229427"><ele>0.0</ele><time>2026-03-29T15:28:01.536Z</time></trkpt><trkpt lat="45.5405773" lon="12.6228014"><ele>0.0</ele><time>2026-03-29T15:28:02.529Z</time></trkpt><trkpt lat="45.5405784" lon="12.6226605"><ele>0.2</ele><time>2026-03-29T15:28:03.532Z</time></trkpt><trkpt lat="45.5405822" lon="12.6225224"><ele>0.4</ele><time>2026-03-29T15:28:04.53Z</time></trkpt><trkpt lat="45.5405886" lon="12.6223874"><ele>0.6000000000000001</ele><time>2026-03-29T15:28:05.535Z</time></trkpt><trkpt lat="45.5405978" lon="12.6222545"><ele>0.8</ele><time>2026-03-29T15:28:06.545Z</time></trkpt><trkpt lat="45.5406053" lon="12.6221244"><ele>1.0</ele><time>2026-03-29T15:28:07.547Z</time></trkpt><trkpt lat="45.5406088" lon="12.621998"><ele>1.0</ele><time>2026-03-29T15:28:08.532Z</time></trkpt><trkpt lat="45.540615" lon="12.6218746"><ele>1.0</ele><time>2026-03-29T15:28:09.542Z</time></trkpt><trkpt lat="45.5406229" lon="12.6217505"><ele>1.0</ele><time>2026-03-29T15:28:10.54Z</time></trkpt><trkpt lat="45.5406319" lon="12.6216211"><ele>1.0</ele><time>2026-03-29T15:28:11.532Z</time></trkpt><trkpt lat="45.5406443" lon="12.6214899"><ele>1.0</ele><time>2026-03-29T15:28:12.537Z</time></trkpt><trkpt lat="45.5406568" lon="12.6213592"><ele>1.0</ele><time>2026-03-29T15:28:13.533Z</time></trkpt><trkpt lat="45.5406704" lon="12.6212262"><ele>1.0</ele><time>2026-03-29T15:28:14.547Z</time></trkpt><trkpt lat="45.5406867" lon="12.6210872"><ele>1.0</ele><time>2026-03-29T15:28:15.55Z</time></trkpt><trkpt lat="45.5407057" lon="12.6209455"><ele>1.0</ele><time>2026-03-29T15:28:16.546Z</time></trkpt><trkpt lat="45.5407179" lon="12.6208043"><ele>1.0</ele><time>2026-03-29T15:28:17.521Z</time></trkpt><trkpt lat="45.5407442" lon="12.6206589"><ele>0.75</ele><time>2026-03-29T15:28:18.542Z</time></trkpt><trkpt lat="45.5407711" lon="12.620507"><ele>0.5</ele><time>2026-03-29T15:28:19.528Z</time></trkpt><trkpt lat="45.5408003" lon="12.6203484"><ele>0.25</ele><time>2026-03-29T15:28:20.536Z</time></trkpt><trkpt lat="45.5408324" lon="12.6201863"><ele>0.0</ele><time>2026-03-29T15:28:21.54Z</time></trkpt><trkpt lat="45.5408588" lon="12.6200248"><ele>-0.25</ele><time>2026-03-29T15:28:22.539Z</time></trkpt><trkpt lat="45.5408979" lon="12.6198663"><ele>-0.5</ele><time>2026-03-29T15:28:23.537Z</time></trkpt><trkpt lat="45.5409364" lon="12.6197068"><ele>-0.75</ele><time>2026-03-29T15:28:24.528Z</time></trkpt><trkpt lat="45.5409775" lon="12.6195475"><ele>-1.0</ele><time>2026-03-29T15:28:25.544Z</time></trkpt><trkpt lat="45.5410207" lon="12.6193891"><ele>-1.0</ele><time>2026-03-29T15:28:26.528Z</time></trkpt><trkpt lat="45.5410632" lon="12.6192306"><ele>-1.0</ele><time>2026-03-29T15:28:27.541Z</time></trkpt><trkpt lat="45.5411072" lon="12.6190725"><ele>-1.0</ele><time>2026-03-29T15:28:28.532Z</time></trkpt><trkpt lat="45.5411556" lon="12.6189151"><ele>-1.0</ele><time>2026-03-29T15:28:29.537Z</time></trkpt><trkpt lat="45.5412074" lon="12.6187541"><ele>-1.25</ele><time>2026-03-29T15:28:30.539Z</time></trkpt><trkpt lat="45.5412645" lon="12.6185894"><ele>-1.5</ele><time>2026-03-29T15:28:31.541Z</time></trkpt><trkpt lat="45.5413253" lon="12.6184209"><ele>-1.75</ele><time>2026-03-29T15:28:32.551Z</time></trkpt><trkpt lat="45.5413917" lon="12.6182529"><ele>-2.0</ele><time>2026-03-29T15:28:33.524Z</time></trkpt><trkpt lat="45.5414587" lon="12.6180853"><ele>-2.0</ele><time>2026-03-29T15:28:34.536Z</time></trkpt><trkpt lat="45.5415286" lon="12.6179202"><ele>-2.0</ele><time>2026-03-29T15:28:35.554Z</time></trkpt><trkpt lat="45.5416015" lon="12.6177607"><ele>-2.0</ele><time>2026-03-29T15:28:36.546Z</time></trkpt><trkpt lat="45.5416737" lon="12.6176062"><ele>-2.0</ele><time>2026-03-29T15:28:37.532Z</time></trkpt><trkpt lat="45.5417477" lon="12.6174577"><ele>-1.75</ele><time>2026-03-29T15:28:38.531Z</time></trkpt><trkpt lat="45.5418218" lon="12.617315"><ele>-1.5</ele><time>2026-03-29T15:28:39.545Z</time></trkpt><trkpt lat="45.5418953" lon="12.6171783"><ele>-1.25</ele><time>2026-03-29T15:28:40.538Z</time></trkpt><trkpt lat="45.5419675" lon="12.6170497"><ele>-1.0</ele><time>2026-03-29T15:28:41.542Z</time></trkpt><trkpt lat="45.5420385" lon="12.6169266"><ele>-1.0</ele><time>2026-03-29T15:28:42.54Z</time></trkpt><trkpt lat="45.5421095" lon="12.61681"><ele>-1.0</ele><time>2026-03-29T15:28:43.548Z</time></trkpt><trkpt lat="45.5421812" lon="12.6166968"><ele>-1.0</ele><time>2026-03-29T15:28:44.531Z</time></trkpt><trkpt lat="45.5422546" lon="12.6165857"><ele>-1.0</ele><time>2026-03-29T15:28:45.561Z</time></trkpt><trkpt lat="45.5423304" lon="12.6164748"><ele>-1.0</ele><time>2026-03-29T15:28:46.521Z</time></trkpt><trkpt lat="45.5424042" lon="12.616365"><ele>-1.0</ele><time>2026-03-29T15:28:47.532Z</time></trkpt><trkpt lat="45.5424759" lon="12.6162622"><ele>-1.0</ele><time>2026-03-29T15:28:48.539Z</time></trkpt><trkpt lat="45.5425451" lon="12.6161709"><ele>-1.0</ele><time>2026-03-29T15:28:49.543Z</time></trkpt><trkpt lat="45.5426096" lon="12.6160872"><ele>-1.0</ele><time>2026-03-29T15:28:50.536Z</time></trkpt><trkpt lat="45.5426776" lon="12.6160146"><ele>-1.0</ele><time>2026-03-29T15:28:51.54Z</time></trkpt><trkpt lat="45.5427436" lon="12.6159404"><ele>-0.8333333333333333</ele><time>2026-03-29T15:28:52.553Z</time></trkpt><trkpt lat="45.5428067" lon="12.6158663"><ele>-0.6666666666666666</ele><time>2026-03-29T15:28:53.527Z</time></trkpt><trkpt lat="45.5428675" lon="12.6157937"><ele>-0.5</ele><time>2026-03-29T15:28:54.537Z</time></trkpt><trkpt lat="45.5429252" lon="12.615722"><ele>-0.3333333333333333</ele><time>2026-03-29T15:28:55.552Z</time></trkpt><trkpt lat="45.5429802" lon="12.615652"><ele>-0.16666666666666666</ele><time>2026-03-29T15:28:56.543Z</time></trkpt><trkpt lat="45.543035" lon="12.6155829"><ele>0.0</ele><time>2026-03-29T15:28:57.538Z</time></trkpt><trkpt lat="45.5430905" lon="12.6155222"><ele>0.0</ele><time>2026-03-29T15:28:58.535Z</time></trkpt><trkpt lat="45.5431414" lon="12.615462"><ele>0.0</ele><time>2026-03-29T15:28:59.543Z</time></trkpt><trkpt lat="45.5431877" lon="12.6153982"><ele>0.0</ele><time>2026-03-29T15:29:00.543Z</time></trkpt><trkpt lat="45.5432777" lon="12.6152874"><ele>0.0</ele><time>2026-03-29T15:29:02.538Z</time></trkpt><trkpt lat="45.5433593" lon="12.6151856"><ele>0.0</ele><time>2026-03-29T15:29:04.553Z</time></trkpt><trkpt lat="45.5434452" lon="12.6150826"><ele>-0.16666666666666666</ele><time>2026-03-29T15:29:06.527Z</time></trkpt><trkpt lat="45.5435399" lon="12.6149659"><ele>-0.3333333333333333</ele><time>2026-03-29T15:29:08.529Z</time></trkpt><trkpt lat="45.5435877" lon="12.6149016"><ele>-0.5</ele><time>2026-03-29T15:29:09.528Z</time></trkpt><trkpt lat="45.543637" lon="12.6148368"><ele>-0.6666666666666666</ele><time>2026-03-29T15:29:10.534Z</time></trkpt><trkpt lat="45.5436896" lon="12.6147665"><ele>-0.8333333333333333</ele><time>2026-03-29T15:29:11.537Z</time></trkpt><trkpt lat="45.5437504" lon="12.6146751"><ele>-1.0</ele><time>2026-03-29T15:29:12.539Z</time></trkpt><trkpt lat="45.543824" lon="12.6145622"><ele>-1.0</ele><time>2026-03-29T15:29:13.547Z</time></trkpt><trkpt lat="45.5439062" lon="12.6144334"><ele>-1.0</ele><time>2026-03-29T15:29:14.524Z</time></trkpt><trkpt lat="45.5439965" lon="12.6142946"><ele>-1.0</ele><time>2026-03-29T15:29:15.555Z</time></trkpt><trkpt lat="45.5440887" lon="12.6141574"><ele>-1.0</ele><time>2026-03-29T15:29:16.548Z</time></trkpt><trkpt lat="45.5441726" lon="12.6140251"><ele>-1.0</ele><time>2026-03-29T15:29:17.542Z</time></trkpt><trkpt lat="45.5442526" lon="12.6138917"><ele>-1.0</ele><time>2026-03-29T15:29:18.54Z</time></trkpt><trkpt lat="45.5443283" lon="12.6137552"><ele>-1.0</ele><time>2026-03-29T15:29:19.556Z</time></trkpt><trkpt lat="45.544398" lon="12.6136225"><ele>-1.0</ele><time>2026-03-29T15:29:20.534Z</time></trkpt><trkpt lat="45.5444605" lon="12.6134904"><ele>-1.0</ele><time>2026-03-29T15:29:21.536Z</time></trkpt><trkpt lat="45.5445191" lon="12.6133616"><ele>-1.0</ele><time>2026-03-29T15:29:22.547Z</time></trkpt><trkpt lat="45.5445724" lon="12.6132364"><ele>-1.0</ele><time>2026-03-29T15:29:23.535Z</time></trkpt><trkpt lat="45.544621" lon="12.613113"><ele>-1.0</ele><time>2026-03-29T15:29:24.553Z</time></trkpt><trkpt lat="45.5446698" lon="12.6129887"><ele>-1.0</ele><time>2026-03-29T15:29:25.58Z</time></trkpt><trkpt lat="45.5447205" lon="12.6128508"><ele>-0.5</ele><time>2026-03-29T15:29:26.538Z</time></trkpt><trkpt lat="45.5447736" lon="12.6126951"><ele>0.0</ele><time>2026-03-29T15:29:27.534Z</time></trkpt><trkpt lat="45.5448286" lon="12.6125247"><ele>0.5</ele><time>2026-03-29T15:29:28.546Z</time></trkpt><trkpt lat="45.5448863" lon="12.6123436"><ele>1.0</ele><time>2026-03-29T15:29:29.536Z</time></trkpt><trkpt lat="45.5449458" lon="12.6121585"><ele>1.25</ele><time>2026-03-29T15:29:30.535Z</time></trkpt><trkpt lat="45.5449979" lon="12.6119745"><ele>1.5</ele><time>2026-03-29T15:29:31.539Z</time></trkpt><trkpt lat="45.5450466" lon="12.6117949"><ele>1.75</ele><time>2026-03-29T15:29:32.552Z</time></trkpt><trkpt lat="45.5450915" lon="12.6116161"><ele>2.0</ele><time>2026-03-29T15:29:33.541Z</time></trkpt><trkpt lat="45.5451321" lon="12.611441"><ele>2.0</ele><time>2026-03-29T15:29:34.551Z</time></trkpt><trkpt lat="45.5451702" lon="12.6112711"><ele>2.0</ele><time>2026-03-29T15:29:35.542Z</time></trkpt><trkpt lat="45.5452033" lon="12.611107"><ele>2.0</ele><time>2026-03-29T15:29:36.537Z</time></trkpt><trkpt lat="45.5452388" lon="12.6109494"><ele>2.0</ele><time>2026-03-29T15:29:37.525Z</time></trkpt><trkpt lat="45.5452736" lon="12.6107968"><ele>1.4000000000000001</ele><time>2026-03-29T15:29:38.522Z</time></trkpt><trkpt lat="45.5453071" lon="12.6106459"><ele>0.8000000000000002</ele><time>2026-03-29T15:29:39.555Z</time></trkpt><trkpt lat="45.5453369" lon="12.6104952"><ele>0.19999999999999996</ele><time>2026-03-29T15:29:40.541Z</time></trkpt><trkpt lat="45.5453678" lon="12.6103477"><ele>-0.4</ele><time>2026-03-29T15:29:41.534Z</time></trkpt><trkpt lat="45.5453977" lon="12.6102059"><ele>-1.0</ele><time>2026-03-29T15:29:42.547Z</time></trkpt><trkpt lat="45.5454282" lon="12.6100671"><ele>-1.0</ele><time>2026-03-29T15:29:43.541Z</time></trkpt><trkpt lat="45.5454575" lon="12.6099266"><ele>-1.0</ele><time>2026-03-29T15:29:44.538Z</time></trkpt><trkpt lat="45.5454907" lon="12.6097874"><ele>-1.0</ele><time>2026-03-29T15:29:45.539Z</time></trkpt><trkpt lat="45.5455213" lon="12.6096515"><ele>-1.0</ele><time>2026-03-29T15:29:46.527Z</time></trkpt><trkpt lat="45.5455511" lon="12.6095084"><ele>-1.0</ele><time>2026-03-29T15:29:47.542Z</time></trkpt><trkpt lat="45.5455809" lon="12.6093632"><ele>-1.0</ele><time>2026-03-29T15:29:48.537Z</time></trkpt><trkpt lat="45.5456118" lon="12.6092175"><ele>-1.0</ele><time>2026-03-29T15:29:49.541Z</time></trkpt><trkpt lat="45.5456424" lon="12.6090733"><ele>-1.0</ele><time>2026-03-29T15:29:50.531Z</time></trkpt><trkpt lat="45.5456755" lon="12.6089235"><ele>-1.0</ele><time>2026-03-29T15:29:51.549Z</time></trkpt><trkpt lat="45.5457087" lon="12.6087702"><ele>-1.0</ele><time>2026-03-29T15:29:52.547Z</time></trkpt><trkpt lat="45.5457427" lon="12.6086161"><ele>-0.75</ele><time>2026-03-29T15:29:53.548Z</time></trkpt><trkpt lat="45.5457757" lon="12.6084613"><ele>-0.5</ele><time>2026-03-29T15:29:54.534Z</time></trkpt><trkpt lat="45.5458092" lon="12.6083015"><ele>-0.25</ele><time>2026-03-29T15:29:55.544Z</time></trkpt><trkpt lat="45.545842" lon="12.6081444"><ele>0.0</ele><time>2026-03-29T15:29:56.53Z</time></trkpt><trkpt lat="45.5458767" lon="12.607984"><ele>0.0</ele><time>2026-03-29T15:29:57.555Z</time></trkpt><trkpt lat="45.5459103" lon="12.6078299"><ele>0.0</ele><time>2026-03-29T15:29:58.531Z</time></trkpt><trkpt lat="45.5459453" lon="12.6076735"><ele>0.0</ele><time>2026-03-29T15:29:59.522Z</time></trkpt><trkpt lat="45.5459801" lon="12.6075185"><ele>0.0</ele><time>2026-03-29T15:30:00.534Z</time></trkpt><trkpt lat="45.5460154" lon="12.6073745"><ele>0.0</ele><time>2026-03-29T15:30:01.53Z</time></trkpt><trkpt lat="45.5460505" lon="12.6072352"><ele>0.0</ele><time>2026-03-29T15:30:02.531Z</time></trkpt><trkpt lat="45.5460851" lon="12.6071021"><ele>0.0</ele><time>2026-03-29T15:30:03.542Z</time></trkpt><trkpt lat="45.5461191" lon="12.6069756"><ele>0.0</ele><time>2026-03-29T15:30:04.533Z</time></trkpt><trkpt lat="45.5461536" lon="12.6068538"><ele>0.0</ele><time>2026-03-29T15:30:05.534Z</time></trkpt><trkpt lat="45.5461877" lon="12.6067378"><ele>0.0</ele><time>2026-03-29T15:30:06.541Z</time></trkpt><trkpt lat="45.5462218" lon="12.6066237"><ele>0.0</ele><time>2026-03-29T15:30:07.541Z</time></trkpt><trkpt lat="45.5462576" lon="12.6065083"><ele>0.0</ele><time>2026-03-29T15:30:08.537Z</time></trkpt><trkpt lat="45.5462963" lon="12.6063911"><ele>0.0</ele><time>2026-03-29T15:30:09.557Z</time></trkpt><trkpt lat="45.546333" lon="12.60628"><ele>0.0</ele><time>2026-03-29T15:30:10.557Z</time></trkpt><trkpt lat="45.5463694" lon="12.6061711"><ele>0.0</ele><time>2026-03-29T15:30:11.546Z</time></trkpt><trkpt lat="45.5464064" lon="12.6060626"><ele>0.0</ele><time>2026-03-29T15:30:12.561Z</time></trkpt><trkpt lat="45.5464432" lon="12.6059573"><ele>0.0</ele><time>2026-03-29T15:30:13.521Z</time></trkpt><trkpt lat="45.5464819" lon="12.6058487"><ele>0.0</ele><time>2026-03-29T15:30:14.542Z</time></trkpt><trkpt lat="45.5465222" lon="12.6057393"><ele>0.0</ele><time>2026-03-29T15:30:15.551Z</time></trkpt><trkpt lat="45.5465673" lon="12.6056197"><ele>0.0</ele><time>2026-03-29T15:30:16.536Z</time></trkpt><trkpt lat="45.546619" lon="12.6054834"><ele>0.0</ele><time>2026-03-29T15:30:17.535Z</time></trkpt><trkpt lat="45.5466771" lon="12.6053454"><ele>-0.4</ele><time>2026-03-29T15:30:18.532Z</time></trkpt><trkpt lat="45.5467328" lon="12.6052114"><ele>-0.8</ele><time>2026-03-29T15:30:19.535Z</time></trkpt><trkpt lat="45.5467867" lon="12.605084"><ele>-1.2000000000000002</ele><time>2026-03-29T15:30:20.528Z</time></trkpt><trkpt lat="45.5468391" lon="12.6049607"><ele>-1.6</ele><time>2026-03-29T15:30:21.535Z</time></trkpt><trkpt lat="45.5468893" lon="12.6048418"><ele>-2.0</ele><time>2026-03-29T15:30:22.539Z</time></trkpt><trkpt lat="45.5469402" lon="12.6047215"><ele>-2.0</ele><time>2026-03-29T15:30:23.532Z</time></trkpt><trkpt lat="45.5469905" lon="12.604599"><ele>-2.0</ele><time>2026-03-29T15:30:24.544Z</time></trkpt><trkpt lat="45.5470414" lon="12.604475"><ele>-2.0</ele><time>2026-03-29T15:30:25.532Z</time></trkpt><trkpt lat="45.5470923" lon="12.6043532"><ele>-2.0</ele><time>2026-03-29T15:30:26.555Z</time></trkpt><trkpt lat="45.5471432" lon="12.6042301"><ele>-2.0</ele><time>2026-03-29T15:30:27.54Z</time></trkpt><trkpt lat="45.5471945" lon="12.6041046"><ele>-2.0</ele><time>2026-03-29T15:30:28.524Z</time></trkpt><trkpt lat="45.5472478" lon="12.6039767"><ele>-2.0</ele><time>2026-03-29T15:30:29.532Z</time></trkpt><trkpt lat="45.5473011" lon="12.6038503"><ele>-2.0</ele><time>2026-03-29T15:30:30.531Z</time></trkpt><trkpt lat="45.5473547" lon="12.6037208"><ele>-2.0</ele><time>2026-03-29T15:30:31.545Z</time></trkpt><trkpt lat="45.5474071" lon="12.6035912"><ele>-2.0</ele><time>2026-03-29T15:30:32.547Z</time></trkpt><trkpt lat="45.5474597" lon="12.6034589"><ele>-1.75</ele><time>2026-03-29T15:30:33.534Z</time></trkpt><trkpt lat="45.5475123" lon="12.6033222"><ele>-1.5</ele><time>2026-03-29T15:30:34.545Z</time></trkpt><trkpt lat="45.5475671" lon="12.6031813"><ele>-1.25</ele><time>2026-03-29T15:30:35.532Z</time></trkpt><trkpt lat="45.547625" lon="12.6030352"><ele>-1.0</ele><time>2026-03-29T15:30:36.547Z</time></trkpt><trkpt lat="45.547683" lon="12.6028934"><ele>-0.8</ele><time>2026-03-29T15:30:37.539Z</time></trkpt><trkpt lat="45.5477404" lon="12.6027529"><ele>-0.6000000000000001</ele><time>2026-03-29T15:30:38.539Z</time></trkpt><trkpt lat="45.5477954" lon="12.6026201"><ele>-0.4</ele><time>2026-03-29T15:30:39.544Z</time></trkpt><trkpt lat="45.547847" lon="12.6024961"><ele>-0.2</ele><time>2026-03-29T15:30:40.546Z</time></trkpt><trkpt lat="45.54789" lon="12.6023914"><ele>0.0</ele><time>2026-03-29T15:30:41.56Z</time></trkpt><trkpt lat="45.5479261" lon="12.6023094"><ele>0.0</ele><time>2026-03-29T15:30:42.543Z</time></trkpt><trkpt lat="45.5479603" lon="12.6022303"><ele>0.0</ele><time>2026-03-29T15:30:43.546Z</time></trkpt><trkpt lat="45.5480247" lon="12.6020775"><ele>0.0</ele><time>2026-03-29T15:30:45.555Z</time></trkpt><trkpt lat="45.5480586" lon="12.601993"><ele>0.0</ele><time>2026-03-29T15:30:46.54Z</time></trkpt><trkpt lat="45.5480955" lon="12.6019037"><ele>0.0</ele><time>2026-03-29T15:30:47.545Z</time></trkpt><trkpt lat="45.5481301" lon="12.6018224"><ele>0.0</ele><time>2026-03-29T15:30:48.552Z</time></trkpt><trkpt lat="45.5481872" lon="12.6016908"><ele>0.0</ele><time>2026-03-29T15:30:50.538Z</time></trkpt><trkpt lat="45.5482306" lon="12.6015896"><ele>0.0</ele><time>2026-03-29T15:30:52.539Z</time></trkpt><trkpt lat="45.5482703" lon="12.6015002"><ele>0.0</ele><time>2026-03-29T15:30:54.558Z</time></trkpt><trkpt lat="45.548307" lon="12.601415"><ele>0.0</ele><time>2026-03-29T15:30:56.525Z</time></trkpt><trkpt lat="45.5483481" lon="12.6013185"><ele>0.0</ele><time>2026-03-29T15:30:58.531Z</time></trkpt><trkpt lat="45.5483992" lon="12.6012022"><ele>0.0</ele><time>2026-03-29T15:31:00.541Z</time></trkpt><trkpt lat="45.5484639" lon="12.6010397"><ele>-0.16666666666666666</ele><time>2026-03-29T15:31:02.539Z</time></trkpt><trkpt lat="45.5485025" lon="12.600946"><ele>-0.3333333333333333</ele><time>2026-03-29T15:31:03.553Z</time></trkpt><trkpt lat="45.5485425" lon="12.6008497"><ele>-0.5</ele><time>2026-03-29T15:31:04.552Z</time></trkpt><trkpt lat="45.5485826" lon="12.6007532"><ele>-0.6666666666666666</ele><time>2026-03-29T15:31:05.544Z</time></trkpt><trkpt lat="45.5486242" lon="12.6006571"><ele>-0.8333333333333333</ele><time>2026-03-29T15:31:06.537Z</time></trkpt><trkpt lat="45.5486644" lon="12.6005598"><ele>-1.0</ele><time>2026-03-29T15:31:07.551Z</time></trkpt><trkpt lat="45.5487034" lon="12.6004645"><ele>-0.9999999999999999</ele><time>2026-03-29T15:31:08.543Z</time></trkpt><trkpt lat="45.5487431" lon="12.6003684"><ele>-1.0</ele><time>2026-03-29T15:31:09.54Z</time></trkpt><trkpt lat="45.5487809" lon="12.6002715"><ele>-1.0</ele><time>2026-03-29T15:31:10.551Z</time></trkpt><trkpt lat="45.548819" lon="12.6001755"><ele>-1.0</ele><time>2026-03-29T15:31:11.518Z</time></trkpt><trkpt lat="45.5488584" lon="12.6000725"><ele>-0.9999999999999999</ele><time>2026-03-29T15:31:12.561Z</time></trkpt><trkpt lat="45.5489015" lon="12.5999648"><ele>-1.0</ele><time>2026-03-29T15:31:13.529Z</time></trkpt><trkpt lat="45.5489518" lon="12.5998447"><ele>-1.0</ele><time>2026-03-29T15:31:14.529Z</time></trkpt><trkpt lat="45.5490066" lon="12.5997166"><ele>-1.0</ele><time>2026-03-29T15:31:15.543Z</time></trkpt><trkpt lat="45.5490657" lon="12.5995843"><ele>-1.0</ele><time>2026-03-29T15:31:16.55Z</time></trkpt><trkpt lat="45.5491223" lon="12.5994528"><ele>-1.0</ele><time>2026-03-29T15:31:17.544Z</time></trkpt><trkpt lat="45.5491758" lon="12.5993248"><ele>-1.0</ele><time>2026-03-29T15:31:18.544Z</time></trkpt><trkpt lat="45.5492261" lon="12.5992056"><ele>-1.0</ele><time>2026-03-29T15:31:19.525Z</time></trkpt><trkpt lat="45.549273" lon="12.5990862"><ele>-1.0</ele><time>2026-03-29T15:31:20.538Z</time></trkpt><trkpt lat="45.5493198" lon="12.598969"><ele>-1.0</ele><time>2026-03-29T15:31:21.542Z</time></trkpt><trkpt lat="45.5493729" lon="12.5988482"><ele>-1.0</ele><time>2026-03-29T15:31:22.549Z</time></trkpt><trkpt lat="45.5494279" lon="12.598725"><ele>-1.0</ele><time>2026-03-29T15:31:23.535Z</time></trkpt><trkpt lat="45.5494848" lon="12.5985946"><ele>-0.9999999999999999</ele><time>2026-03-29T15:31:24.549Z</time></trkpt><trkpt lat="45.5495379" lon="12.5984683"><ele>-1.0</ele><time>2026-03-29T15:31:25.543Z</time></trkpt><trkpt lat="45.5495828" lon="12.5983561"><ele>-1.0</ele><time>2026-03-29T15:31:26.546Z</time></trkpt><trkpt lat="45.5496167" lon="12.5982737"><ele>-1.0</ele><time>2026-03-29T15:31:27.544Z</time></trkpt><trkpt lat="45.5496579" lon="12.5981714"><ele>-0.9999999999999999</ele><time>2026-03-29T15:31:29.539Z</time></trkpt><trkpt lat="45.5496933" lon="12.5980945"><ele>-1.0</ele><time>2026-03-29T15:31:31.55Z</time></trkpt><trkpt lat="45.5497487" lon="12.597928"><ele>-0.75</ele><time>2026-03-29T15:31:33.53Z</time></trkpt><trkpt lat="45.5498116" lon="12.5977991"><ele>-0.5</ele><time>2026-03-29T15:31:34.539Z</time></trkpt><trkpt lat="45.5498838" lon="12.597652"><ele>-0.25</ele><time>2026-03-29T15:31:35.542Z</time></trkpt><trkpt lat="45.5499625" lon="12.5974863"><ele>0.0</ele><time>2026-03-29T15:31:36.545Z</time></trkpt><trkpt lat="45.55004" lon="12.5973116"><ele>0.0</ele><time>2026-03-29T15:31:37.544Z</time></trkpt><trkpt lat="45.5501115" lon="12.5971461"><ele>0.0</ele><time>2026-03-29T15:31:38.539Z</time></trkpt><trkpt lat="45.5501758" lon="12.5970031"><ele>0.0</ele><time>2026-03-29T15:31:39.527Z</time></trkpt><trkpt lat="45.5502311" lon="12.596879"><ele>0.0</ele><time>2026-03-29T15:31:40.547Z</time></trkpt><trkpt lat="45.55028" lon="12.5967697"><ele>0.0</ele><time>2026-03-29T15:31:41.554Z</time></trkpt><trkpt lat="45.5503211" lon="12.5966755"><ele>-0.2</ele><time>2026-03-29T15:31:42.563Z</time></trkpt><trkpt lat="45.5503579" lon="12.5965929"><ele>-0.4</ele><time>2026-03-29T15:31:43.545Z</time></trkpt><trkpt lat="45.5503928" lon="12.5965172"><ele>-0.6000000000000001</ele><time>2026-03-29T15:31:44.543Z</time></trkpt><trkpt lat="45.5504596" lon="12.5963691"><ele>-0.8</ele><time>2026-03-29T15:31:46.547Z</time></trkpt><trkpt lat="45.5505308" lon="12.5962155"><ele>-1.0</ele><time>2026-03-29T15:31:48.553Z</time></trkpt><trkpt lat="45.5505684" lon="12.5961338"><ele>-1.0</ele><time>2026-03-29T15:31:49.539Z</time></trkpt><trkpt lat="45.5506036" lon="12.5960456"><ele>-0.9999999999999999</ele><time>2026-03-29T15:31:50.543Z</time></trkpt><trkpt lat="45.5506412" lon="12.5959554"><ele>-1.0</ele><time>2026-03-29T15:31:51.539Z</time></trkpt><trkpt lat="45.5506801" lon="12.5958652"><ele>-1.0</ele><time>2026-03-29T15:31:52.551Z</time></trkpt><trkpt lat="45.5507191" lon="12.5957757"><ele>-0.9999999999999999</ele><time>2026-03-29T15:31:53.547Z</time></trkpt><trkpt lat="45.5507576" lon="12.5956904"><ele>-1.0</ele><time>2026-03-29T15:31:54.534Z</time></trkpt><trkpt lat="45.5507942" lon="12.5956102"><ele>-1.0</ele><time>2026-03-29T15:31:55.549Z</time></trkpt><trkpt lat="45.5508601" lon="12.5954652"><ele>-0.8</ele><time>2026-03-29T15:31:57.538Z</time></trkpt><trkpt lat="45.5509205" lon="12.5953353"><ele>-0.6000000000000001</ele><time>2026-03-29T15:31:59.539Z</time></trkpt><trkpt lat="45.5509923" lon="12.5951757"><ele>-0.4</ele><time>2026-03-29T15:32:01.552Z</time></trkpt><trkpt lat="45.5510416" lon="12.5950632"><ele>-0.2</ele><time>2026-03-29T15:32:02.546Z</time></trkpt><trkpt lat="45.5511059" lon="12.5949343"><ele>0.0</ele><time>2026-03-29T15:32:03.549Z</time></trkpt><trkpt lat="45.5511745" lon="12.5948051"><ele>0.0</ele><time>2026-03-29T15:32:04.541Z</time></trkpt><trkpt lat="45.5512428" lon="12.594674"><ele>0.0</ele><time>2026-03-29T15:32:05.542Z</time></trkpt><trkpt lat="45.5513087" lon="12.5945467"><ele>0.0</ele><time>2026-03-29T15:32:06.54Z</time></trkpt><trkpt lat="45.551372" lon="12.5944246"><ele>0.0</ele><time>2026-03-29T15:32:07.529Z</time></trkpt><trkpt lat="45.5514334" lon="12.5943044"><ele>0.0</ele><time>2026-03-29T15:32:08.546Z</time></trkpt><trkpt lat="45.5514909" lon="12.5941915"><ele>0.0</ele><time>2026-03-29T15:32:09.552Z</time></trkpt><trkpt lat="45.551546" lon="12.5940804"><ele>0.0</ele><time>2026-03-29T15:32:10.542Z</time></trkpt><trkpt lat="45.5515984" lon="12.593968"><ele>0.0</ele><time>2026-03-29T15:32:11.541Z</time></trkpt><trkpt lat="45.5516555" lon="12.5938528"><ele>0.0</ele><time>2026-03-29T15:32:12.519Z</time></trkpt><trkpt lat="45.5517204" lon="12.5937324"><ele>0.0</ele><time>2026-03-29T15:32:13.551Z</time></trkpt><trkpt lat="45.5517854" lon="12.5936074"><ele>0.0</ele><time>2026-03-29T15:32:14.549Z</time></trkpt><trkpt lat="45.5518527" lon="12.5934752"><ele>0.0</ele><time>2026-03-29T15:32:15.537Z</time></trkpt><trkpt lat="45.5519211" lon="12.5933332"><ele>0.0</ele><time>2026-03-29T15:32:16.553Z</time></trkpt><trkpt lat="45.5519918" lon="12.5932004"><ele>0.0</ele><time>2026-03-29T15:32:17.546Z</time></trkpt><trkpt lat="45.552063" lon="12.59307"><ele>0.0</ele><time>2026-03-29T15:32:18.537Z</time></trkpt><trkpt lat="45.5521301" lon="12.5929428"><ele>0.0</ele><time>2026-03-29T15:32:19.535Z</time></trkpt><trkpt lat="45.5521864" lon="12.5928321"><ele>0.0</ele><time>2026-03-29T15:32:20.54Z</time></trkpt><trkpt lat="45.5522314" lon="12.5927361"><ele>0.0</ele><time>2026-03-29T15:32:21.53Z</time></trkpt><trkpt lat="45.5522799" lon="12.5926575"><ele>0.0</ele><time>2026-03-29T15:32:22.528Z</time></trkpt><trkpt lat="45.5523259" lon="12.5925777"><ele>0.0</ele><time>2026-03-29T15:32:23.531Z</time></trkpt><trkpt lat="45.5523708" lon="12.5924853"><ele>0.0</ele><time>2026-03-29T15:32:24.536Z</time></trkpt><trkpt lat="45.5524264" lon="12.5923829"><ele>0.0</ele><time>2026-03-29T15:32:25.542Z</time></trkpt><trkpt lat="45.5524874" lon="12.5922636"><ele>0.0</ele><time>2026-03-29T15:32:26.536Z</time></trkpt><trkpt lat="45.5525526" lon="12.5921369"><ele>0.0</ele><time>2026-03-29T15:32:27.53Z</time></trkpt><trkpt lat="45.5526198" lon="12.5920075"><ele>0.0</ele><time>2026-03-29T15:32:28.533Z</time></trkpt><trkpt lat="45.5526832" lon="12.591879"><ele>-0.2</ele><time>2026-03-29T15:32:29.532Z</time></trkpt><trkpt lat="45.552747" lon="12.5917554"><ele>-0.4</ele><time>2026-03-29T15:32:30.531Z</time></trkpt><trkpt lat="45.5528123" lon="12.591635"><ele>-0.6000000000000001</ele><time>2026-03-29T15:32:31.53Z</time></trkpt><trkpt lat="45.552877" lon="12.591519"><ele>-0.8</ele><time>2026-03-29T15:32:32.545Z</time></trkpt><trkpt lat="45.5529381" lon="12.5914049"><ele>-1.0</ele><time>2026-03-29T15:32:33.541Z</time></trkpt><trkpt lat="45.5529987" lon="12.5912968"><ele>-1.0</ele><time>2026-03-29T15:32:34.523Z</time></trkpt><trkpt lat="45.5530498" lon="12.5911861"><ele>-1.0</ele><time>2026-03-29T15:32:35.55Z</time></trkpt><trkpt lat="45.5531012" lon="12.5910747"><ele>-1.0</ele><time>2026-03-29T15:32:36.552Z</time></trkpt><trkpt lat="45.553159" lon="12.5909625"><ele>-1.0</ele><time>2026-03-29T15:32:37.562Z</time></trkpt><trkpt lat="45.553217" lon="12.5908462"><ele>-1.0</ele><time>2026-03-29T15:32:38.532Z</time></trkpt><trkpt lat="45.553273" lon="12.5907286"><ele>-0.8</ele><time>2026-03-29T15:32:39.546Z</time></trkpt><trkpt lat="45.5533254" lon="12.5906129"><ele>-0.6000000000000001</ele><time>2026-03-29T15:32:40.521Z</time></trkpt><trkpt lat="45.5533689" lon="12.5904929"><ele>-0.4</ele><time>2026-03-29T15:32:41.529Z</time></trkpt><trkpt lat="45.5534122" lon="12.5903709"><ele>-0.2</ele><time>2026-03-29T15:32:42.531Z</time></trkpt><trkpt lat="45.5534558" lon="12.5902456"><ele>0.0</ele><time>2026-03-29T15:32:43.528Z</time></trkpt><trkpt lat="45.5534962" lon="12.5901196"><ele>0.0</ele><time>2026-03-29T15:32:44.535Z</time></trkpt><trkpt lat="45.5535357" lon="12.5899951"><ele>0.0</ele><time>2026-03-29T15:32:45.526Z</time></trkpt><trkpt lat="45.5535729" lon="12.5898795"><ele>0.0</ele><time>2026-03-29T15:32:46.533Z</time></trkpt><trkpt lat="45.5536075" lon="12.5897753"><ele>0.0</ele><time>2026-03-29T15:32:47.542Z</time></trkpt><trkpt lat="45.5536426" lon="12.5896723"><ele>0.0</ele><time>2026-03-29T15:32:48.531Z</time></trkpt><trkpt lat="45.5536783" lon="12.5895585"><ele>0.0</ele><time>2026-03-29T15:32:49.527Z</time></trkpt><trkpt lat="45.5537113" lon="12.5894271"><ele>0.0</ele><time>2026-03-29T15:32:50.545Z</time></trkpt><trkpt lat="45.5537475" lon="12.5892891"><ele>0.0</ele><time>2026-03-29T15:32:51.527Z</time></trkpt><trkpt lat="45.5537847" lon="12.5891534"><ele>0.0</ele><time>2026-03-29T15:32:52.517Z</time></trkpt><trkpt lat="45.5538225" lon="12.5890233"><ele>0.0</ele><time>2026-03-29T15:32:53.539Z</time></trkpt><trkpt lat="45.5538575" lon="12.5888941"><ele>0.0</ele><time>2026-03-29T15:32:54.545Z</time></trkpt><trkpt lat="45.5538927" lon="12.588766"><ele>0.2</ele><time>2026-03-29T15:32:55.541Z</time></trkpt><trkpt lat="45.5539239" lon="12.5886389"><ele>0.4</ele><time>2026-03-29T15:32:56.541Z</time></trkpt><trkpt lat="45.5539576" lon="12.5885105"><ele>0.6000000000000001</ele><time>2026-03-29T15:32:57.54Z</time></trkpt><trkpt lat="45.5539917" lon="12.5883677"><ele>0.8</ele><time>2026-03-29T15:32:58.542Z</time></trkpt><trkpt lat="45.554032" lon="12.5882132"><ele>1.0</ele><time>2026-03-29T15:32:59.543Z</time></trkpt><trkpt lat="45.5540738" lon="12.5880543"><ele>1.0</ele><time>2026-03-29T15:33:00.545Z</time></trkpt><trkpt lat="45.5541142" lon="12.5878982"><ele>1.0</ele><time>2026-03-29T15:33:01.547Z</time></trkpt><trkpt lat="45.5541471" lon="12.5877472"><ele>1.0</ele><time>2026-03-29T15:33:02.526Z</time></trkpt><trkpt lat="45.5541744" lon="12.5875992"><ele>1.0</ele><time>2026-03-29T15:33:03.534Z</time></trkpt><trkpt lat="45.5542005" lon="12.587454"><ele>1.0</ele><time>2026-03-29T15:33:04.544Z</time></trkpt><trkpt lat="45.5542191" lon="12.587311"><ele>0.8</ele><time>2026-03-29T15:33:05.535Z</time></trkpt><trkpt lat="45.554238" lon="12.587172"><ele>0.6000000000000001</ele><time>2026-03-29T15:33:06.529Z</time></trkpt><trkpt lat="45.5542605" lon="12.5870408"><ele>0.4</ele><time>2026-03-29T15:33:07.531Z</time></trkpt><trkpt lat="45.5542793" lon="12.5869136"><ele>0.2</ele><time>2026-03-29T15:33:08.53Z</time></trkpt><trkpt lat="45.5542943" lon="12.5867899"><ele>0.0</ele><time>2026-03-29T15:33:09.535Z</time></trkpt><trkpt lat="45.5543065" lon="12.5866678"><ele>0.0</ele><time>2026-03-29T15:33:10.554Z</time></trkpt><trkpt lat="45.5543132" lon="12.5865396"><ele>0.0</ele><time>2026-03-29T15:33:11.556Z</time></trkpt><trkpt lat="45.5543203" lon="12.5864044"><ele>0.0</ele><time>2026-03-29T15:33:12.539Z</time></trkpt><trkpt lat="45.5543317" lon="12.5862669"><ele>0.0</ele><time>2026-03-29T15:33:13.535Z</time></trkpt><trkpt lat="45.5543405" lon="12.5861312"><ele>0.0</ele><time>2026-03-29T15:33:14.538Z</time></trkpt><trkpt lat="45.5543491" lon="12.5859947"><ele>0.0</ele><time>2026-03-29T15:33:15.517Z</time></trkpt><trkpt lat="45.5543581" lon="12.5858556"><ele>0.0</ele><time>2026-03-29T15:33:16.538Z</time></trkpt><trkpt lat="45.5543635" lon="12.5857158"><ele>0.0</ele><time>2026-03-29T15:33:17.526Z</time></trkpt><trkpt lat="45.5543703" lon="12.5855731"><ele>0.0</ele><time>2026-03-29T15:33:18.512Z</time></trkpt><trkpt lat="45.5543796" lon="12.5854286"><ele>0.0</ele><time>2026-03-29T15:33:19.547Z</time></trkpt><trkpt lat="45.5543859" lon="12.5852862"><ele>0.2</ele><time>2026-03-29T15:33:20.528Z</time></trkpt><trkpt lat="45.554393" lon="12.5851437"><ele>0.4</ele><time>2026-03-29T15:33:21.534Z</time></trkpt><trkpt lat="45.5544037" lon="12.5849994"><ele>0.6000000000000001</ele><time>2026-03-29T15:33:22.535Z</time></trkpt><trkpt lat="45.5544201" lon="12.5848567"><ele>0.8</ele><time>2026-03-29T15:33:23.544Z</time></trkpt><trkpt lat="45.554439" lon="12.5847184"><ele>1.0</ele><time>2026-03-29T15:33:24.543Z</time></trkpt><trkpt lat="45.5544609" lon="12.5845862"><ele>1.0</ele><time>2026-03-29T15:33:25.531Z</time></trkpt><trkpt lat="45.5544859" lon="12.5844565"><ele>1.0</ele><time>2026-03-29T15:33:26.53Z</time></trkpt><trkpt lat="45.5545129" lon="12.5843277"><ele>1.0</ele><time>2026-03-29T15:33:27.54Z</time></trkpt><trkpt lat="45.5545412" lon="12.5842033"><ele>1.0</ele><time>2026-03-29T15:33:28.539Z</time></trkpt><trkpt lat="45.554571" lon="12.5840839"><ele>1.0</ele><time>2026-03-29T15:33:29.534Z</time></trkpt><trkpt lat="45.5546005" lon="12.583972"><ele>0.6000000000000001</ele><time>2026-03-29T15:33:30.543Z</time></trkpt><trkpt lat="45.5546282" lon="12.5838724"><ele>0.20000000000000007</ele><time>2026-03-29T15:33:31.533Z</time></trkpt><trkpt lat="45.5546537" lon="12.5837819"><ele>-0.20000000000000007</ele><time>2026-03-29T15:33:32.542Z</time></trkpt><trkpt lat="45.5546788" lon="12.5836975"><ele>-0.6000000000000001</ele><time>2026-03-29T15:33:33.525Z</time></trkpt><trkpt lat="45.5547304" lon="12.5835379"><ele>-1.0</ele><time>2026-03-29T15:33:35.536Z</time></trkpt><trkpt lat="45.554788" lon="12.5833813"><ele>-1.0</ele><time>2026-03-29T15:33:37.548Z</time></trkpt><trkpt lat="45.5548503" lon="12.5832223"><ele>-1.0</ele><time>2026-03-29T15:33:39.535Z</time></trkpt><trkpt lat="45.5548856" lon="12.5831324"><ele>-1.0</ele><time>2026-03-29T15:33:40.547Z</time></trkpt><trkpt lat="45.5549248" lon="12.58303"><ele>-1.0</ele><time>2026-03-29T15:33:41.539Z</time></trkpt><trkpt lat="45.5549721" lon="12.5829199"><ele>-1.0</ele><time>2026-03-29T15:33:42.531Z</time></trkpt><trkpt lat="45.5550218" lon="12.5828112"><ele>-0.8333333333333333</ele><time>2026-03-29T15:33:43.535Z</time></trkpt><trkpt lat="45.5550723" lon="12.5827083"><ele>-0.6666666666666666</ele><time>2026-03-29T15:33:44.551Z</time></trkpt><trkpt lat="45.555121" lon="12.5826077"><ele>-0.5</ele><time>2026-03-29T15:33:45.554Z</time></trkpt><trkpt lat="45.5551661" lon="12.5825086"><ele>-0.3333333333333333</ele><time>2026-03-29T15:33:46.563Z</time></trkpt><trkpt lat="45.5552127" lon="12.5824109"><ele>-0.16666666666666666</ele><time>2026-03-29T15:33:47.551Z</time></trkpt><trkpt lat="45.5552619" lon="12.5823078"><ele>0.0</ele><time>2026-03-29T15:33:48.539Z</time></trkpt><trkpt lat="45.555315" lon="12.5821978"><ele>-0.2</ele><time>2026-03-29T15:33:49.551Z</time></trkpt><trkpt lat="45.5553725" lon="12.5820823"><ele>-0.4</ele><time>2026-03-29T15:33:50.548Z</time></trkpt><trkpt lat="45.5554329" lon="12.5819619"><ele>-0.6000000000000001</ele><time>2026-03-29T15:33:51.535Z</time></trkpt><trkpt lat="45.5554945" lon="12.5818404"><ele>-0.8</ele><time>2026-03-29T15:33:52.541Z</time></trkpt><trkpt lat="45.5555542" lon="12.5817183"><ele>-1.0</ele><time>2026-03-29T15:33:53.524Z</time></trkpt><trkpt lat="45.5556132" lon="12.5815984"><ele>-1.0</ele><time>2026-03-29T15:33:54.537Z</time></trkpt><trkpt lat="45.5556723" lon="12.5814791"><ele>-1.0</ele><time>2026-03-29T15:33:55.54Z</time></trkpt><trkpt lat="45.5557325" lon="12.5813591"><ele>-1.0</ele><time>2026-03-29T15:33:56.53Z</time></trkpt><trkpt lat="45.5557964" lon="12.581239"><ele>-1.0</ele><time>2026-03-29T15:33:57.533Z</time></trkpt><trkpt lat="45.5558604" lon="12.5811155"><ele>-1.0</ele><time>2026-03-29T15:33:58.546Z</time></trkpt><trkpt lat="45.5559237" lon="12.5809899"><ele>-1.0</ele><time>2026-03-29T15:33:59.532Z</time></trkpt><trkpt lat="45.5559883" lon="12.5808633"><ele>-1.0</ele><time>2026-03-29T15:34:00.531Z</time></trkpt><trkpt lat="45.5560536" lon="12.5807332"><ele>-1.0</ele><time>2026-03-29T15:34:01.526Z</time></trkpt><trkpt lat="45.5561203" lon="12.5806019"><ele>-1.0</ele><time>2026-03-29T15:34:02.541Z</time></trkpt><trkpt lat="45.5561851" lon="12.5804741"><ele>-1.0</ele><time>2026-03-29T15:34:03.536Z</time></trkpt><trkpt lat="45.556248" lon="12.580349"><ele>-0.8</ele><time>2026-03-29T15:34:04.548Z</time></trkpt><trkpt lat="45.5563097" lon="12.5802252"><ele>-0.6000000000000001</ele><time>2026-03-29T15:34:05.546Z</time></trkpt><trkpt lat="45.5563709" lon="12.5801002"><ele>-0.4</ele><time>2026-03-29T15:34:06.533Z</time></trkpt><trkpt lat="45.5564355" lon="12.5799763"><ele>-0.2</ele><time>2026-03-29T15:34:07.544Z</time></trkpt><trkpt lat="45.5564968" lon="12.5798498"><ele>0.0</ele><time>2026-03-29T15:34:08.528Z</time></trkpt><trkpt lat="45.5565573" lon="12.5797278"><ele>0.0</ele><time>2026-03-29T15:34:09.533Z</time></trkpt><trkpt lat="45.5566173" lon="12.5796104"><ele>0.0</ele><time>2026-03-29T15:34:10.539Z</time></trkpt><trkpt lat="45.5566762" lon="12.5794964"><ele>0.0</ele><time>2026-03-29T15:34:11.554Z</time></trkpt><trkpt lat="45.5567368" lon="12.5793857"><ele>0.0</ele><time>2026-03-29T15:34:12.532Z</time></trkpt><trkpt lat="45.5567978" lon="12.5792777"><ele>0.0</ele><time>2026-03-29T15:34:13.544Z</time></trkpt><trkpt lat="45.5568585" lon="12.5791744"><ele>-0.2</ele><time>2026-03-29T15:34:14.526Z</time></trkpt><trkpt lat="45.5569223" lon="12.5790813"><ele>-0.4</ele><time>2026-03-29T15:34:15.534Z</time></trkpt><trkpt lat="45.556988" lon="12.578998"><ele>-0.6000000000000001</ele><time>2026-03-29T15:34:16.528Z</time></trkpt><trkpt lat="45.5570549" lon="12.5789175"><ele>-0.8</ele><time>2026-03-29T15:34:17.531Z</time></trkpt><trkpt lat="45.5571217" lon="12.5788283"><ele>-1.0</ele><time>2026-03-29T15:34:18.533Z</time></trkpt><trkpt lat="45.5571693" lon="12.5787065"><ele>-0.8</ele><time>2026-03-29T15:34:19.552Z</time></trkpt><trkpt lat="45.5572137" lon="12.5785748"><ele>-0.6000000000000001</ele><time>2026-03-29T15:34:20.527Z</time></trkpt><trkpt lat="45.5572677" lon="12.5784412"><ele>-0.4</ele><time>2026-03-29T15:34:21.523Z</time></trkpt><trkpt lat="45.5573325" lon="12.5783117"><ele>-0.2</ele><time>2026-03-29T15:34:22.533Z</time></trkpt><trkpt lat="45.5574033" lon="12.5781916"><ele>0.0</ele><time>2026-03-29T15:34:23.539Z</time></trkpt><trkpt lat="45.5574744" lon="12.578078"><ele>0.0</ele><time>2026-03-29T15:34:24.538Z</time></trkpt><trkpt lat="45.5575454" lon="12.5779671"><ele>0.0</ele><time>2026-03-29T15:34:25.548Z</time></trkpt><trkpt lat="45.5576192" lon="12.5778556"><ele>0.0</ele><time>2026-03-29T15:34:26.528Z</time></trkpt><trkpt lat="45.5576953" lon="12.5777381"><ele>0.0</ele><time>2026-03-29T15:34:27.539Z</time></trkpt><trkpt lat="45.5577784" lon="12.577614"><ele>0.0</ele><time>2026-03-29T15:34:28.537Z</time></trkpt><trkpt lat="45.5578648" lon="12.5774848"><ele>-0.25</ele><time>2026-03-29T15:34:29.533Z</time></trkpt><trkpt lat="45.5579532" lon="12.5773576"><ele>-0.5</ele><time>2026-03-29T15:34:30.53Z</time></trkpt><trkpt lat="45.5580417" lon="12.5772299"><ele>-0.75</ele><time>2026-03-29T15:34:31.532Z</time></trkpt><trkpt lat="45.5581322" lon="12.5771015"><ele>-1.0</ele><time>2026-03-29T15:34:32.532Z</time></trkpt><trkpt lat="45.5582268" lon="12.5769732"><ele>-1.0</ele><time>2026-03-29T15:34:33.537Z</time></trkpt><trkpt lat="45.5583247" lon="12.5768422"><ele>-1.0</ele><time>2026-03-29T15:34:34.568Z</time></trkpt><trkpt lat="45.558425" lon="12.5767086"><ele>-1.0</ele><time>2026-03-29T15:34:35.545Z</time></trkpt><trkpt lat="45.5585284" lon="12.576573"><ele>-1.0</ele><time>2026-03-29T15:34:36.533Z</time></trkpt><trkpt lat="45.5586329" lon="12.5764293"><ele>-0.6666666666666666</ele><time>2026-03-29T15:34:37.541Z</time></trkpt><trkpt lat="45.5587434" lon="12.5762842"><ele>-0.3333333333333333</ele><time>2026-03-29T15:34:38.53Z</time></trkpt><trkpt lat="45.5588588" lon="12.5761322"><ele>0.0</ele><time>2026-03-29T15:34:39.539Z</time></trkpt><trkpt lat="45.5589768" lon="12.5759802"><ele>0.3333333333333333</ele><time>2026-03-29T15:34:40.547Z</time></trkpt><trkpt lat="45.5590957" lon="12.5758273"><ele>0.6666666666666666</ele><time>2026-03-29T15:34:41.537Z</time></trkpt><trkpt lat="45.5592183" lon="12.575677"><ele>1.0</ele><time>2026-03-29T15:34:42.53Z</time></trkpt><trkpt lat="45.5593427" lon="12.5755295"><ele>1.0</ele><time>2026-03-29T15:34:43.543Z</time></trkpt><trkpt lat="45.559466" lon="12.5753745"><ele>1.0</ele><time>2026-03-29T15:34:44.53Z</time></trkpt><trkpt lat="45.5595896" lon="12.5752176"><ele>1.0</ele><time>2026-03-29T15:34:45.534Z</time></trkpt><trkpt lat="45.5597121" lon="12.5750617"><ele>1.3333333333333333</ele><time>2026-03-29T15:34:46.541Z</time></trkpt><trkpt lat="45.5598327" lon="12.5749061"><ele>1.6666666666666665</ele><time>2026-03-29T15:34:47.545Z</time></trkpt><trkpt lat="45.5599521" lon="12.5747456"><ele>2.0</ele><time>2026-03-29T15:34:48.531Z</time></trkpt><trkpt lat="45.560075" lon="12.5745873"><ele>2.0</ele><time>2026-03-29T15:34:49.535Z</time></trkpt><trkpt lat="45.5602001" lon="12.5744292"><ele>2.0</ele><time>2026-03-29T15:34:50.552Z</time></trkpt><trkpt lat="45.5603282" lon="12.5742762"><ele>2.0</ele><time>2026-03-29T15:34:51.528Z</time></trkpt><trkpt lat="45.5604525" lon="12.5741111"><ele>1.6666666666666665</ele><time>2026-03-29T15:34:52.532Z</time></trkpt><trkpt lat="45.5605809" lon="12.5739511"><ele>1.3333333333333333</ele><time>2026-03-29T15:34:53.549Z</time></trkpt><trkpt lat="45.5607076" lon="12.5737869"><ele>1.0</ele><time>2026-03-29T15:34:54.54Z</time></trkpt><trkpt lat="45.5608331" lon="12.5736212"><ele>0.6666666666666666</ele><time>2026-03-29T15:34:55.52Z</time></trkpt><trkpt lat="45.5609563" lon="12.5734543"><ele>0.3333333333333333</ele><time>2026-03-29T15:34:56.548Z</time></trkpt><trkpt lat="45.5610784" lon="12.5732898"><ele>0.0</ele><time>2026-03-29T15:34:57.542Z</time></trkpt><trkpt lat="45.5611954" lon="12.5731203"><ele>0.0</ele><time>2026-03-29T15:34:58.551Z</time></trkpt><trkpt lat="45.561313" lon="12.5729489"><ele>0.0</ele><time>2026-03-29T15:34:59.537Z</time></trkpt><trkpt lat="45.5614292" lon="12.5727701"><ele>0.0</ele><time>2026-03-29T15:35:00.537Z</time></trkpt><trkpt lat="45.5615461" lon="12.5725834"><ele>0.0</ele><time>2026-03-29T15:35:01.534Z</time></trkpt><trkpt lat="45.5616603" lon="12.5723868"><ele>0.0</ele><time>2026-03-29T15:35:02.528Z</time></trkpt><trkpt lat="45.5617664" lon="12.5721798"><ele>0.0</ele><time>2026-03-29T15:35:03.533Z</time></trkpt><trkpt lat="45.5618738" lon="12.5719724"><ele>0.0</ele><time>2026-03-29T15:35:04.526Z</time></trkpt><trkpt lat="45.5619785" lon="12.5717644"><ele>0.0</ele><time>2026-03-29T15:35:05.528Z</time></trkpt><trkpt lat="45.5620825" lon="12.5715552"><ele>0.0</ele><time>2026-03-29T15:35:06.532Z</time></trkpt><trkpt lat="45.5621828" lon="12.5713443"><ele>0.3333333333333333</ele><time>2026-03-29T15:35:07.527Z</time></trkpt><trkpt lat="45.5622825" lon="12.5711374"><ele>0.6666666666666666</ele><time>2026-03-29T15:35:08.535Z</time></trkpt><trkpt lat="45.5623814" lon="12.5709345"><ele>1.0</ele><time>2026-03-29T15:35:09.53Z</time></trkpt><trkpt lat="45.5624764" lon="12.5707285"><ele>1.0</ele><time>2026-03-29T15:35:10.53Z</time></trkpt><trkpt lat="45.5625691" lon="12.5705209"><ele>1.0</ele><time>2026-03-29T15:35:11.541Z</time></trkpt><trkpt lat="45.5626626" lon="12.570312"><ele>1.0</ele><time>2026-03-29T15:35:12.534Z</time></trkpt><trkpt lat="45.5627516" lon="12.5700986"><ele>1.0</ele><time>2026-03-29T15:35:13.549Z</time></trkpt><trkpt lat="45.5628466" lon="12.5698905"><ele>1.0</ele><time>2026-03-29T15:35:14.527Z</time></trkpt><trkpt lat="45.562942" lon="12.5696827"><ele>1.0</ele><time>2026-03-29T15:35:15.535Z</time></trkpt><trkpt lat="45.5630391" lon="12.5694757"><ele>1.0</ele><time>2026-03-29T15:35:16.537Z</time></trkpt><trkpt lat="45.5631388" lon="12.5692705"><ele>1.0</ele><time>2026-03-29T15:35:17.539Z</time></trkpt><trkpt lat="45.5632422" lon="12.5690684"><ele>1.0</ele><time>2026-03-29T15:35:18.542Z</time></trkpt><trkpt lat="45.5633479" lon="12.568876"><ele>0.6666666666666666</ele><time>2026-03-29T15:35:19.534Z</time></trkpt><trkpt lat="45.563454" lon="12.5686877"><ele>0.3333333333333333</ele><time>2026-03-29T15:35:20.544Z</time></trkpt><trkpt lat="45.5635709" lon="12.5685196"><ele>0.0</ele><time>2026-03-29T15:35:21.544Z</time></trkpt><trkpt lat="45.563685" lon="12.5683506"><ele>0.3333333333333333</ele><time>2026-03-29T15:35:22.542Z</time></trkpt><trkpt lat="45.5637987" lon="12.5681811"><ele>0.6666666666666666</ele><time>2026-03-29T15:35:23.539Z</time></trkpt><trkpt lat="45.5639154" lon="12.5680146"><ele>1.0</ele><time>2026-03-29T15:35:24.547Z</time></trkpt><trkpt lat="45.5640414" lon="12.567858"><ele>0.3333333333333333</ele><time>2026-03-29T15:35:25.531Z</time></trkpt><trkpt lat="45.5641654" lon="12.5676967"><ele>-0.3333333333333333</ele><time>2026-03-29T15:35:26.525Z</time></trkpt><trkpt lat="45.5642924" lon="12.5675367"><ele>-1.0</ele><time>2026-03-29T15:35:27.533Z</time></trkpt><trkpt lat="45.5644182" lon="12.5673768"><ele>-0.6666666666666666</ele><time>2026-03-29T15:35:28.536Z</time></trkpt><trkpt lat="45.5645501" lon="12.5672212"><ele>-0.3333333333333333</ele><time>2026-03-29T15:35:29.544Z</time></trkpt><trkpt lat="45.5646802" lon="12.5670643"><ele>0.0</ele><time>2026-03-29T15:35:30.531Z</time></trkpt><trkpt lat="45.5648117" lon="12.5669072"><ele>0.3333333333333333</ele><time>2026-03-29T15:35:31.541Z</time></trkpt><trkpt lat="45.5649439" lon="12.5667415"><ele>0.6666666666666666</ele><time>2026-03-29T15:35:32.538Z</time></trkpt><trkpt lat="45.5650793" lon="12.5665774"><ele>1.0</ele><time>2026-03-29T15:35:33.529Z</time></trkpt><trkpt lat="45.5652124" lon="12.5664026"><ele>1.0</ele><time>2026-03-29T15:35:34.538Z</time></trkpt><trkpt lat="45.5653539" lon="12.5662457"><ele>1.0</ele><time>2026-03-29T15:35:35.548Z</time></trkpt><trkpt lat="45.5654954" lon="12.5660895"><ele>1.0</ele><time>2026-03-29T15:35:36.544Z</time></trkpt><trkpt lat="45.5656334" lon="12.5659281"><ele>0.6666666666666666</ele><time>2026-03-29T15:35:37.543Z</time></trkpt><trkpt lat="45.5657715" lon="12.5657643"><ele>0.3333333333333333</ele><time>2026-03-29T15:35:38.537Z</time></trkpt><trkpt lat="45.5659112" lon="12.5656013"><ele>0.0</ele><time>2026-03-29T15:35:39.547Z</time></trkpt><trkpt lat="45.5660548" lon="12.56544"><ele>0.6666666666666666</ele><time>2026-03-29T15:35:40.532Z</time></trkpt><trkpt lat="45.5662121" lon="12.5653036"><ele>1.3333333333333333</ele><time>2026-03-29T15:35:41.535Z</time></trkpt><trkpt lat="45.5663761" lon="12.5651763"><ele>2.0</ele><time>2026-03-29T15:35:42.547Z</time></trkpt><trkpt lat="45.5665453" lon="12.5650559"><ele>2.0</ele><time>2026-03-29T15:35:43.545Z</time></trkpt><trkpt lat="45.5667208" lon="12.5649498"><ele>2.0</ele><time>2026-03-29T15:35:44.546Z</time></trkpt><trkpt lat="45.5668973" lon="12.5648439"><ele>2.0</ele><time>2026-03-29T15:35:45.538Z</time></trkpt><trkpt lat="45.567078" lon="12.5647451"><ele>1.3333333333333333</ele><time>2026-03-29T15:35:46.549Z</time></trkpt><trkpt lat="45.5672616" lon="12.5646496"><ele>0.6666666666666666</ele><time>2026-03-29T15:35:47.529Z</time></trkpt><trkpt lat="45.56745" lon="12.5645666"><ele>0.0</ele><time>2026-03-29T15:35:48.538Z</time></trkpt><trkpt lat="45.567643" lon="12.5645036"><ele>0.0</ele><time>2026-03-29T15:35:49.56Z</time></trkpt><trkpt lat="45.5678373" lon="12.5644374"><ele>0.0</ele><time>2026-03-29T15:35:50.539Z</time></trkpt><trkpt lat="45.5680324" lon="12.5643699"><ele>0.0</ele><time>2026-03-29T15:35:51.545Z</time></trkpt><trkpt lat="45.5682267" lon="12.5642981"><ele>0.0</ele><time>2026-03-29T15:35:52.545Z</time></trkpt><trkpt lat="45.5684176" lon="12.5642193"><ele>0.0</ele><time>2026-03-29T15:35:53.544Z</time></trkpt><trkpt lat="45.5686069" lon="12.5641465"><ele>0.0</ele><time>2026-03-29T15:35:54.541Z</time></trkpt><trkpt lat="45.5687939" lon="12.564073"><ele>0.0</ele><time>2026-03-29T15:35:55.538Z</time></trkpt><trkpt lat="45.56898" lon="12.5640013"><ele>0.0</ele><time>2026-03-29T15:35:56.542Z</time></trkpt><trkpt lat="45.5691665" lon="12.5639317"><ele>0.0</ele><time>2026-03-29T15:35:57.544Z</time></trkpt><trkpt lat="45.5693517" lon="12.5638604"><ele>0.0</ele><time>2026-03-29T15:35:58.534Z</time></trkpt><trkpt lat="45.5695355" lon="12.5637921"><ele>0.0</ele><time>2026-03-29T15:35:59.555Z</time></trkpt><trkpt lat="45.5697182" lon="12.5637236"><ele>0.0</ele><time>2026-03-29T15:36:00.547Z</time></trkpt><trkpt lat="45.5698999" lon="12.5636562"><ele>0.3333333333333333</ele><time>2026-03-29T15:36:01.564Z</time></trkpt><trkpt lat="45.5700804" lon="12.5635908"><ele>0.6666666666666666</ele><time>2026-03-29T15:36:02.537Z</time></trkpt><trkpt lat="45.5702593" lon="12.5635208"><ele>1.0</ele><time>2026-03-29T15:36:03.538Z</time></trkpt><trkpt lat="45.5704368" lon="12.5634422"><ele>1.0</ele><time>2026-03-29T15:36:04.56Z</time></trkpt><trkpt lat="45.5706116" lon="12.5633518"><ele>1.0</ele><time>2026-03-29T15:36:05.541Z</time></trkpt><trkpt lat="45.5707828" lon="12.5632484"><ele>1.0</ele><time>2026-03-29T15:36:06.552Z</time></trkpt><trkpt lat="45.5709506" lon="12.5631299"><ele>1.0</ele><time>2026-03-29T15:36:07.553Z</time></trkpt><trkpt lat="45.5711208" lon="12.5630114"><ele>1.0</ele><time>2026-03-29T15:36:08.567Z</time></trkpt><trkpt lat="45.5712883" lon="12.5628869"><ele>1.0</ele><time>2026-03-29T15:36:09.543Z</time></trkpt><trkpt lat="45.5714503" lon="12.5627509"><ele>1.0</ele><time>2026-03-29T15:36:10.552Z</time></trkpt><trkpt lat="45.5716089" lon="12.5626088"><ele>1.0</ele><time>2026-03-29T15:36:11.559Z</time></trkpt><trkpt lat="45.5717588" lon="12.5624496"><ele>1.0</ele><time>2026-03-29T15:36:12.559Z</time></trkpt><trkpt lat="45.571902" lon="12.5622803"><ele>1.3333333333333333</ele><time>2026-03-29T15:36:13.531Z</time></trkpt><trkpt lat="45.5720431" lon="12.5621111"><ele>1.6666666666666665</ele><time>2026-03-29T15:36:14.54Z</time></trkpt><trkpt lat="45.5721821" lon="12.5619349"><ele>2.0</ele><time>2026-03-29T15:36:15.548Z</time></trkpt><trkpt lat="45.5723176" lon="12.5617574"><ele>2.333333333333333</ele><time>2026-03-29T15:36:16.543Z</time></trkpt><trkpt lat="45.5724568" lon="12.5615901"><ele>2.6666666666666665</ele><time>2026-03-29T15:36:17.532Z</time></trkpt><trkpt lat="45.5725923" lon="12.5614161"><ele>3.0</ele><time>2026-03-29T15:36:18.553Z</time></trkpt><trkpt lat="45.5727292" lon="12.5612461"><ele>2.3333333333333335</ele><time>2026-03-29T15:36:19.57Z</time></trkpt><trkpt lat="45.5728604" lon="12.5610693"><ele>1.6666666666666665</ele><time>2026-03-29T15:36:20.538Z</time></trkpt><trkpt lat="45.5729803" lon="12.5608777"><ele>1.0</ele><time>2026-03-29T15:36:21.555Z</time></trkpt><trkpt lat="45.5731077" lon="12.5607057"><ele>1.0</ele><time>2026-03-29T15:36:22.56Z</time></trkpt><trkpt lat="45.5732537" lon="12.5605668"><ele>1.0</ele><time>2026-03-29T15:36:23.535Z</time></trkpt><trkpt lat="45.5733817" lon="12.5604067"><ele>1.0</ele><time>2026-03-29T15:36:24.55Z</time></trkpt><trkpt lat="45.5735061" lon="12.5602458"><ele>1.0</ele><time>2026-03-29T15:36:25.556Z</time></trkpt><trkpt lat="45.5736426" lon="12.5601018"><ele>1.0</ele><time>2026-03-29T15:36:26.559Z</time></trkpt><trkpt lat="45.5737785" lon="12.5599593"><ele>1.0</ele><time>2026-03-29T15:36:27.554Z</time></trkpt><trkpt lat="45.5739126" lon="12.5598096"><ele>1.3333333333333333</ele><time>2026-03-29T15:36:28.551Z</time></trkpt><trkpt lat="45.5740631" lon="12.5596892"><ele>1.6666666666666665</ele><time>2026-03-29T15:36:29.537Z</time></trkpt><trkpt lat="45.5742121" lon="12.5595653"><ele>2.0</ele><time>2026-03-29T15:36:30.531Z</time></trkpt><trkpt lat="45.5743619" lon="12.5594421"><ele>1.6666666666666665</ele><time>2026-03-29T15:36:31.544Z</time></trkpt><trkpt lat="45.5745143" lon="12.5593341"><ele>1.3333333333333333</ele><time>2026-03-29T15:36:32.541Z</time></trkpt><trkpt lat="45.5746659" lon="12.5592338"><ele>1.0</ele><time>2026-03-29T15:36:33.529Z</time></trkpt><trkpt lat="45.5748195" lon="12.5591451"><ele>1.0</ele><time>2026-03-29T15:36:34.53Z</time></trkpt><trkpt lat="45.574975" lon="12.5590637"><ele>1.0</ele><time>2026-03-29T15:36:35.54Z</time></trkpt><trkpt lat="45.5751342" lon="12.5589956"><ele>1.0</ele><time>2026-03-29T15:36:36.548Z</time></trkpt><trkpt lat="45.5752966" lon="12.5589392"><ele>0.6666666666666666</ele><time>2026-03-29T15:36:37.544Z</time></trkpt><trkpt lat="45.5754618" lon="12.558889"><ele>0.3333333333333333</ele><time>2026-03-29T15:36:38.535Z</time></trkpt><trkpt lat="45.5756319" lon="12.5588495"><ele>0.0</ele><time>2026-03-29T15:36:39.54Z</time></trkpt><trkpt lat="45.5758069" lon="12.5588249"><ele>0.0</ele><time>2026-03-29T15:36:40.554Z</time></trkpt><trkpt lat="45.5759861" lon="12.5588164"><ele>0.0</ele><time>2026-03-29T15:36:41.529Z</time></trkpt><trkpt lat="45.5761693" lon="12.5588218"><ele>0.0</ele><time>2026-03-29T15:36:42.553Z</time></trkpt><trkpt lat="45.5763549" lon="12.5588368"><ele>0.6666666666666666</ele><time>2026-03-29T15:36:43.563Z</time></trkpt><trkpt lat="45.5765391" lon="12.5588517"><ele>1.3333333333333333</ele><time>2026-03-29T15:36:44.541Z</time></trkpt><trkpt lat="45.5767181" lon="12.55887"><ele>2.0</ele><time>2026-03-29T15:36:45.542Z</time></trkpt><trkpt lat="45.5768937" lon="12.5588838"><ele>1.3333333333333333</ele><time>2026-03-29T15:36:46.525Z</time></trkpt><trkpt lat="45.5770667" lon="12.558893"><ele>0.6666666666666666</ele><time>2026-03-29T15:36:47.532Z</time></trkpt><trkpt lat="45.5772374" lon="12.5589032"><ele>0.0</ele><time>2026-03-29T15:36:48.563Z</time></trkpt><trkpt lat="45.5774034" lon="12.5589198"><ele>0.0</ele><time>2026-03-29T15:36:49.545Z</time></trkpt><trkpt lat="45.5775649" lon="12.5589334"><ele>0.0</ele><time>2026-03-29T15:36:50.543Z</time></trkpt><trkpt lat="45.5777228" lon="12.5589414"><ele>0.0</ele><time>2026-03-29T15:36:51.532Z</time></trkpt><trkpt lat="45.5778779" lon="12.558954"><ele>0.0</ele><time>2026-03-29T15:36:52.534Z</time></trkpt><trkpt lat="45.5780306" lon="12.558974"><ele>0.0</ele><time>2026-03-29T15:36:53.541Z</time></trkpt><trkpt lat="45.5781798" lon="12.5589829"><ele>0.0</ele><time>2026-03-29T15:36:54.535Z</time></trkpt><trkpt lat="45.5783234" lon="12.5589918"><ele>0.0</ele><time>2026-03-29T15:36:55.537Z</time></trkpt><trkpt lat="45.5784622" lon="12.5590028"><ele>0.0</ele><time>2026-03-29T15:36:56.546Z</time></trkpt><trkpt lat="45.5785973" lon="12.5590132"><ele>0.0</ele><time>2026-03-29T15:36:57.548Z</time></trkpt><trkpt lat="45.5787241" lon="12.559021"><ele>0.0</ele><time>2026-03-29T15:36:58.521Z</time></trkpt><trkpt lat="45.5788408" lon="12.5590287"><ele>0.0</ele><time>2026-03-29T15:36:59.537Z</time></trkpt><trkpt lat="45.5789515" lon="12.5590364"><ele>-0.2</ele><time>2026-03-29T15:37:00.537Z</time></trkpt><trkpt lat="45.5790594" lon="12.5590467"><ele>-0.4</ele><time>2026-03-29T15:37:01.535Z</time></trkpt><trkpt lat="45.579164" lon="12.5590494"><ele>-0.6000000000000001</ele><time>2026-03-29T15:37:02.537Z</time></trkpt><trkpt lat="45.5792657" lon="12.5590626"><ele>-0.8</ele><time>2026-03-29T15:37:03.541Z</time></trkpt><trkpt lat="45.5793644" lon="12.5590865"><ele>-1.0</ele><time>2026-03-29T15:37:04.534Z</time></trkpt><trkpt lat="45.5794604" lon="12.5591183"><ele>-0.8</ele><time>2026-03-29T15:37:05.544Z</time></trkpt><trkpt lat="45.5795556" lon="12.5591628"><ele>-0.6000000000000001</ele><time>2026-03-29T15:37:06.554Z</time></trkpt><trkpt lat="45.5796517" lon="12.5592217"><ele>-0.4</ele><time>2026-03-29T15:37:07.555Z</time></trkpt><trkpt lat="45.579746" lon="12.5592898"><ele>-0.2</ele><time>2026-03-29T15:37:08.54Z</time></trkpt><trkpt lat="45.5798309" lon="12.5593724"><ele>0.0</ele><time>2026-03-29T15:37:09.534Z</time></trkpt><trkpt lat="45.5799125" lon="12.5594581"><ele>-0.2</ele><time>2026-03-29T15:37:10.55Z</time></trkpt><trkpt lat="45.5799821" lon="12.559563"><ele>-0.4</ele><time>2026-03-29T15:37:11.548Z</time></trkpt><trkpt lat="45.5800477" lon="12.559679"><ele>-0.6000000000000001</ele><time>2026-03-29T15:37:12.551Z</time></trkpt><trkpt lat="45.5801138" lon="12.5598016"><ele>-0.8</ele><time>2026-03-29T15:37:13.546Z</time></trkpt><trkpt lat="45.5801976" lon="12.5599202"><ele>-1.0</ele><time>2026-03-29T15:37:14.543Z</time></trkpt><trkpt lat="45.5803042" lon="12.5600465"><ele>-1.0</ele><time>2026-03-29T15:37:15.549Z</time></trkpt><trkpt lat="45.5804333" lon="12.5601652"><ele>-1.0</ele><time>2026-03-29T15:37:16.546Z</time></trkpt><trkpt lat="45.580577" lon="12.5602603"><ele>-1.0</ele><time>2026-03-29T15:37:17.557Z</time></trkpt><trkpt lat="45.5807279" lon="12.5603214"><ele>-1.0</ele><time>2026-03-29T15:37:18.538Z</time></trkpt><trkpt lat="45.5808817" lon="12.5603281"><ele>-1.0</ele><time>2026-03-29T15:37:19.545Z</time></trkpt><trkpt lat="45.5810299" lon="12.5602973"><ele>-1.0</ele><time>2026-03-29T15:37:20.522Z</time></trkpt><trkpt lat="45.5811701" lon="12.5602354"><ele>-1.3333333333333333</ele><time>2026-03-29T15:37:21.543Z</time></trkpt><trkpt lat="45.5813023" lon="12.5601376"><ele>-1.6666666666666665</ele><time>2026-03-29T15:37:22.54Z</time></trkpt><trkpt lat="45.5814302" lon="12.5600105"><ele>-2.0</ele><time>2026-03-29T15:37:23.538Z</time></trkpt><trkpt lat="45.5815343" lon="12.5598505"><ele>-2.0</ele><time>2026-03-29T15:37:24.529Z</time></trkpt><trkpt lat="45.5816109" lon="12.5596696"><ele>-2.0</ele><time>2026-03-29T15:37:25.539Z</time></trkpt><trkpt lat="45.5816663" lon="12.5594864"><ele>-2.0</ele><time>2026-03-29T15:37:26.532Z</time></trkpt><trkpt lat="45.5816891" lon="12.559303"><ele>-2.0</ele><time>2026-03-29T15:37:27.532Z</time></trkpt><trkpt lat="45.5816908" lon="12.5591204"><ele>-2.0</ele><time>2026-03-29T15:37:28.525Z</time></trkpt><trkpt lat="45.5816827" lon="12.5589384"><ele>-2.0</ele><time>2026-03-29T15:37:29.534Z</time></trkpt><trkpt lat="45.5816488" lon="12.5587585"><ele>-2.0</ele><time>2026-03-29T15:37:30.53Z</time></trkpt><trkpt lat="45.5815992" lon="12.5585829"><ele>-2.0</ele><time>2026-03-29T15:37:31.549Z</time></trkpt><trkpt lat="45.5815246" lon="12.5584251"><ele>-2.0</ele><time>2026-03-29T15:37:32.555Z</time></trkpt><trkpt lat="45.5814289" lon="12.5582868"><ele>-2.0</ele><time>2026-03-29T15:37:33.558Z</time></trkpt><trkpt lat="45.5813225" lon="12.5581698"><ele>-2.0</ele><time>2026-03-29T15:37:34.54Z</time></trkpt><trkpt lat="45.5812169" lon="12.5580634"><ele>-2.0</ele><time>2026-03-29T15:37:35.531Z</time></trkpt><trkpt lat="45.5811217" lon="12.5579497"><ele>-1.5</ele><time>2026-03-29T15:37:36.531Z</time></trkpt><trkpt lat="45.581031" lon="12.5578317"><ele>-1.0</ele><time>2026-03-29T15:37:37.537Z</time></trkpt><trkpt lat="45.5809551" lon="12.5577016"><ele>-0.5</ele><time>2026-03-29T15:37:38.546Z</time></trkpt><trkpt lat="45.5808987" lon="12.5575608"><ele>0.0</ele><time>2026-03-29T15:37:39.547Z</time></trkpt><trkpt lat="45.5808501" lon="12.5574202"><ele>0.0</ele><time>2026-03-29T15:37:40.556Z</time></trkpt><trkpt lat="45.5808196" lon="12.5572755"><ele>0.0</ele><time>2026-03-29T15:37:41.542Z</time></trkpt><trkpt lat="45.5808052" lon="12.5571258"><ele>0.0</ele><time>2026-03-29T15:37:42.54Z</time></trkpt><trkpt lat="45.5807924" lon="12.5569698"><ele>0.0</ele><time>2026-03-29T15:37:43.544Z</time></trkpt><trkpt lat="45.5807858" lon="12.5568039"><ele>0.0</ele><time>2026-03-29T15:37:44.553Z</time></trkpt><trkpt lat="45.5807744" lon="12.5566327"><ele>0.25</ele><time>2026-03-29T15:37:45.537Z</time></trkpt><trkpt lat="45.5807804" lon="12.556457"><ele>0.5</ele><time>2026-03-29T15:37:46.528Z</time></trkpt><trkpt lat="45.5807734" lon="12.5562883"><ele>0.75</ele><time>2026-03-29T15:37:47.541Z</time></trkpt><trkpt lat="45.5807623" lon="12.5561179"><ele>1.0</ele><time>2026-03-29T15:37:48.536Z</time></trkpt><trkpt lat="45.580744" lon="12.5559387"><ele>1.5</ele><time>2026-03-29T15:37:49.534Z</time></trkpt><trkpt lat="45.580735" lon="12.5557495"><ele>2.0</ele><time>2026-03-29T15:37:50.534Z</time></trkpt><trkpt lat="45.5807282" lon="12.5555634"><ele>2.5</ele><time>2026-03-29T15:37:51.533Z</time></trkpt><trkpt lat="45.5807189" lon="12.5553853"><ele>3.0</ele><time>2026-03-29T15:37:52.526Z</time></trkpt><trkpt lat="45.5807083" lon="12.5552128"><ele>3.0</ele><time>2026-03-29T15:37:53.523Z</time></trkpt><trkpt lat="45.5806933" lon="12.5550471"><ele>3.0</ele><time>2026-03-29T15:37:54.546Z</time></trkpt><trkpt lat="45.5806849" lon="12.5548851"><ele>3.0</ele><time>2026-03-29T15:37:55.536Z</time></trkpt><trkpt lat="45.5806714" lon="12.5547269"><ele>3.0</ele><time>2026-03-29T15:37:56.534Z</time></trkpt><trkpt lat="45.5806581" lon="12.5545638"><ele>3.25</ele><time>2026-03-29T15:37:57.546Z</time></trkpt><trkpt lat="45.5806472" lon="12.5543901"><ele>3.5</ele><time>2026-03-29T15:37:58.53Z</time></trkpt><trkpt lat="45.5806269" lon="12.5542078"><ele>3.75</ele><time>2026-03-29T15:37:59.548Z</time></trkpt><trkpt lat="45.5806016" lon="12.5540174"><ele>4.0</ele><time>2026-03-29T15:38:00.542Z</time></trkpt><trkpt lat="45.5805697" lon="12.5538223"><ele>3.75</ele><time>2026-03-29T15:38:01.544Z</time></trkpt><trkpt lat="45.5805356" lon="12.5536212"><ele>3.5</ele><time>2026-03-29T15:38:02.532Z</time></trkpt><trkpt lat="45.5804959" lon="12.5534169"><ele>3.25</ele><time>2026-03-29T15:38:03.544Z</time></trkpt><trkpt lat="45.5804512" lon="12.5532128"><ele>3.0</ele><time>2026-03-29T15:38:04.551Z</time></trkpt><trkpt lat="45.5804055" lon="12.5530152"><ele>3.25</ele><time>2026-03-29T15:38:05.549Z</time></trkpt><trkpt lat="45.5803593" lon="12.5528247"><ele>3.5</ele><time>2026-03-29T15:38:06.536Z</time></trkpt><trkpt lat="45.5803097" lon="12.5526433"><ele>3.75</ele><time>2026-03-29T15:38:07.531Z</time></trkpt><trkpt lat="45.5802623" lon="12.5524711"><ele>4.0</ele><time>2026-03-29T15:38:08.534Z</time></trkpt><trkpt lat="45.5802159" lon="12.5523076"><ele>4.2</ele><time>2026-03-29T15:38:09.538Z</time></trkpt><trkpt lat="45.5801724" lon="12.5521518"><ele>4.4</ele><time>2026-03-29T15:38:10.531Z</time></trkpt><trkpt lat="45.580132" lon="12.5520033"><ele>4.6</ele><time>2026-03-29T15:38:11.546Z</time></trkpt><trkpt lat="45.5800902" lon="12.5518596"><ele>4.8</ele><time>2026-03-29T15:38:12.549Z</time></trkpt><trkpt lat="45.5800507" lon="12.5517157"><ele>5.0</ele><time>2026-03-29T15:38:13.535Z</time></trkpt><trkpt lat="45.5800127" lon="12.551575"><ele>4.4</ele><time>2026-03-29T15:38:14.539Z</time></trkpt><trkpt lat="45.579977" lon="12.5514398"><ele>3.8</ele><time>2026-03-29T15:38:15.544Z</time></trkpt><trkpt lat="45.5799421" lon="12.5513098"><ele>3.2</ele><time>2026-03-29T15:38:16.541Z</time></trkpt><trkpt lat="45.5799074" lon="12.5511825"><ele>2.6</ele><time>2026-03-29T15:38:17.556Z</time></trkpt><trkpt lat="45.5798737" lon="12.5510565"><ele>2.0</ele><time>2026-03-29T15:38:18.553Z</time></trkpt><trkpt lat="45.5798424" lon="12.5509298"><ele>1.9999999999999998</ele><time>2026-03-29T15:38:19.561Z</time></trkpt><trkpt lat="45.5798106" lon="12.5508043"><ele>2.0</ele><time>2026-03-29T15:38:20.553Z</time></trkpt><trkpt lat="45.5797774" lon="12.5506835"><ele>2.0</ele><time>2026-03-29T15:38:21.543Z</time></trkpt><trkpt lat="45.5797441" lon="12.5505723"><ele>2.0</ele><time>2026-03-29T15:38:22.532Z</time></trkpt><trkpt lat="45.5797133" lon="12.5504802"><ele>1.9999999999999998</ele><time>2026-03-29T15:38:23.541Z</time></trkpt><trkpt lat="45.579676" lon="12.5503344"><ele>2.0</ele><time>2026-03-29T15:38:25.539Z</time></trkpt><trkpt lat="45.5796476" lon="12.5502309"><ele>2.1666666666666665</ele><time>2026-03-29T15:38:27.547Z</time></trkpt><trkpt lat="45.5796157" lon="12.5501374"><ele>2.333333333333333</ele><time>2026-03-29T15:38:29.54Z</time></trkpt><trkpt lat="45.5795876" lon="12.5500424"><ele>2.5</ele><time>2026-03-29T15:38:31.522Z</time></trkpt><trkpt lat="45.5795461" lon="12.5499499"><ele>2.6666666666666665</ele><time>2026-03-29T15:38:33.533Z</time></trkpt><trkpt lat="45.5795004" lon="12.5498461"><ele>2.8333333333333335</ele><time>2026-03-29T15:38:35.541Z</time></trkpt><trkpt lat="45.5794584" lon="12.5497026"><ele>3.0</ele><time>2026-03-29T15:38:37.537Z</time></trkpt><trkpt lat="45.5794372" lon="12.5496161"><ele>2.9999999999999996</ele><time>2026-03-29T15:38:38.545Z</time></trkpt><trkpt lat="45.5794152" lon="12.5495256"><ele>3.0</ele><time>2026-03-29T15:38:39.537Z</time></trkpt><trkpt lat="45.5793915" lon="12.5494308"><ele>3.0</ele><time>2026-03-29T15:38:40.539Z</time></trkpt><trkpt lat="45.5793683" lon="12.5493346"><ele>3.0</ele><time>2026-03-29T15:38:41.553Z</time></trkpt><trkpt lat="45.5793496" lon="12.5492402"><ele>3.0</ele><time>2026-03-29T15:38:42.543Z</time></trkpt><trkpt lat="45.5793328" lon="12.5491465"><ele>2.9999999999999996</ele><time>2026-03-29T15:38:43.53Z</time></trkpt><trkpt lat="45.5793105" lon="12.549061"><ele>3.0</ele><time>2026-03-29T15:38:44.549Z</time></trkpt><trkpt lat="45.5792865" lon="12.5489744"><ele>2.9999999999999996</ele><time>2026-03-29T15:38:45.535Z</time></trkpt><trkpt lat="45.5792545" lon="12.5488886"><ele>3.0</ele><time>2026-03-29T15:38:46.543Z</time></trkpt><trkpt lat="45.5792223" lon="12.5487957"><ele>3.0</ele><time>2026-03-29T15:38:47.543Z</time></trkpt><trkpt lat="45.5791923" lon="12.548693"><ele>3.0</ele><time>2026-03-29T15:38:48.542Z</time></trkpt><trkpt lat="45.5791629" lon="12.5485891"><ele>3.0</ele><time>2026-03-29T15:38:49.549Z</time></trkpt><trkpt lat="45.5791359" lon="12.5484906"><ele>2.9999999999999996</ele><time>2026-03-29T15:38:50.526Z</time></trkpt><trkpt lat="45.5791097" lon="12.5483986"><ele>3.0</ele><time>2026-03-29T15:38:51.539Z</time></trkpt><trkpt lat="45.5790806" lon="12.5483103"><ele>3.2</ele><time>2026-03-29T15:38:52.541Z</time></trkpt><trkpt lat="45.5790587" lon="12.5482254"><ele>3.4</ele><time>2026-03-29T15:38:53.535Z</time></trkpt><trkpt lat="45.5790241" lon="12.5480705"><ele>3.6000000000000005</ele><time>2026-03-29T15:38:55.543Z</time></trkpt><trkpt lat="45.5790394" lon="12.5479312"><ele>3.8000000000000003</ele><time>2026-03-29T15:38:57.549Z</time></trkpt><trkpt lat="45.5790697" lon="12.5477816"><ele>4.0</ele><time>2026-03-29T15:38:59.539Z</time></trkpt><trkpt lat="45.5790172" lon="12.547635"><ele>3.333333333333333</ele><time>2026-03-29T15:39:01.549Z</time></trkpt><trkpt lat="45.5789653" lon="12.5475756"><ele>2.6666666666666665</ele><time>2026-03-29T15:39:02.545Z</time></trkpt><trkpt lat="45.5789145" lon="12.5474873"><ele>2.0</ele><time>2026-03-29T15:39:03.509Z</time></trkpt><trkpt lat="45.5788576" lon="12.54739"><ele>1.3333333333333333</ele><time>2026-03-29T15:39:04.531Z</time></trkpt><trkpt lat="45.5788104" lon="12.5472671"><ele>0.6666666666666666</ele><time>2026-03-29T15:39:05.53Z</time></trkpt><trkpt lat="45.5787666" lon="12.5471284"><ele>0.0</ele><time>2026-03-29T15:39:06.545Z</time></trkpt><trkpt lat="45.578718" lon="12.5469845"><ele>-0.25</ele><time>2026-03-29T15:39:07.537Z</time></trkpt><trkpt lat="45.5786736" lon="12.5468299"><ele>-0.5</ele><time>2026-03-29T15:39:08.534Z</time></trkpt><trkpt lat="45.5786331" lon="12.5466691"><ele>-0.75</ele><time>2026-03-29T15:39:09.542Z</time></trkpt><trkpt lat="45.5785844" lon="12.5465014"><ele>-1.0</ele><time>2026-03-29T15:39:10.54Z</time></trkpt><trkpt lat="45.5785346" lon="12.5463252"><ele>-1.0</ele><time>2026-03-29T15:39:11.544Z</time></trkpt><trkpt lat="45.5784849" lon="12.5461804"><ele>-1.0</ele><time>2026-03-29T15:39:12.543Z</time></trkpt><trkpt lat="45.5784298" lon="12.5459672"><ele>-1.0</ele><time>2026-03-29T15:39:13.521Z</time></trkpt><trkpt lat="45.578376" lon="12.545765"><ele>-1.0</ele><time>2026-03-29T15:39:14.528Z</time></trkpt><trkpt lat="45.5783214" lon="12.5455572"><ele>-1.0</ele><time>2026-03-29T15:39:15.534Z</time></trkpt><trkpt lat="45.5782648" lon="12.5453444"><ele>-1.0</ele><time>2026-03-29T15:39:16.524Z</time></trkpt><trkpt lat="45.5782066" lon="12.5451256"><ele>-1.0</ele><time>2026-03-29T15:39:17.541Z</time></trkpt><trkpt lat="45.5781437" lon="12.5448982"><ele>-1.0</ele><time>2026-03-29T15:39:18.548Z</time></trkpt><trkpt lat="45.5780813" lon="12.5446711"><ele>-1.0</ele><time>2026-03-29T15:39:19.529Z</time></trkpt><trkpt lat="45.5780162" lon="12.5444324"><ele>-1.0</ele><time>2026-03-29T15:39:20.547Z</time></trkpt><trkpt lat="45.5779501" lon="12.5441889"><ele>-1.0</ele><time>2026-03-29T15:39:21.543Z</time></trkpt><trkpt lat="45.5778839" lon="12.5439459"><ele>-1.0</ele><time>2026-03-29T15:39:22.557Z</time></trkpt><trkpt lat="45.5778197" lon="12.5437128"><ele>-1.0</ele><time>2026-03-29T15:39:23.557Z</time></trkpt><trkpt lat="45.5777571" lon="12.5434808"><ele>-0.6666666666666666</ele><time>2026-03-29T15:39:24.535Z</time></trkpt><trkpt lat="45.5776939" lon="12.5432503"><ele>-0.3333333333333333</ele><time>2026-03-29T15:39:25.538Z</time></trkpt><trkpt lat="45.5776328" lon="12.54302"><ele>0.0</ele><time>2026-03-29T15:39:26.541Z</time></trkpt><trkpt lat="45.5775728" lon="12.5427909"><ele>0.0</ele><time>2026-03-29T15:39:27.539Z</time></trkpt><trkpt lat="45.5775115" lon="12.5425596"><ele>0.0</ele><time>2026-03-29T15:39:28.551Z</time></trkpt><trkpt lat="45.5774502" lon="12.5423276"><ele>0.0</ele><time>2026-03-29T15:39:29.561Z</time></trkpt><trkpt lat="45.5773929" lon="12.5420937"><ele>-0.3333333333333333</ele><time>2026-03-29T15:39:30.558Z</time></trkpt><trkpt lat="45.5773371" lon="12.5418623"><ele>-0.6666666666666666</ele><time>2026-03-29T15:39:31.536Z</time></trkpt><trkpt lat="45.5772833" lon="12.5416311"><ele>-1.0</ele><time>2026-03-29T15:39:32.531Z</time></trkpt><trkpt lat="45.5772314" lon="12.5413982"><ele>-1.3333333333333333</ele><time>2026-03-29T15:39:33.535Z</time></trkpt><trkpt lat="45.5771792" lon="12.5411666"><ele>-1.6666666666666665</ele><time>2026-03-29T15:39:34.55Z</time></trkpt><trkpt lat="45.5771279" lon="12.5409339"><ele>-2.0</ele><time>2026-03-29T15:39:35.541Z</time></trkpt><trkpt lat="45.5770783" lon="12.5406974"><ele>-2.0</ele><time>2026-03-29T15:39:36.537Z</time></trkpt><trkpt lat="45.5770293" lon="12.5404595"><ele>-2.0</ele><time>2026-03-29T15:39:37.533Z</time></trkpt><trkpt lat="45.5769803" lon="12.5402228"><ele>-2.0</ele><time>2026-03-29T15:39:38.536Z</time></trkpt><trkpt lat="45.5769314" lon="12.5399852"><ele>-1.6666666666666665</ele><time>2026-03-29T15:39:39.549Z</time></trkpt><trkpt lat="45.5768835" lon="12.539752"><ele>-1.3333333333333333</ele><time>2026-03-29T15:39:40.541Z</time></trkpt><trkpt lat="45.576835" lon="12.5395206"><ele>-1.0</ele><time>2026-03-29T15:39:41.546Z</time></trkpt><trkpt lat="45.5767888" lon="12.5392939"><ele>-0.6666666666666666</ele><time>2026-03-29T15:39:42.558Z</time></trkpt><trkpt lat="45.5767451" lon="12.5390774"><ele>-0.3333333333333333</ele><time>2026-03-29T15:39:43.54Z</time></trkpt><trkpt lat="45.5767044" lon="12.5388709"><ele>0.0</ele><time>2026-03-29T15:39:44.527Z</time></trkpt><trkpt lat="45.5766629" lon="12.538669"><ele>0.0</ele><time>2026-03-29T15:39:45.564Z</time></trkpt><trkpt lat="45.5766249" lon="12.5384816"><ele>0.0</ele><time>2026-03-29T15:39:46.542Z</time></trkpt><trkpt lat="45.5765902" lon="12.538301"><ele>0.0</ele><time>2026-03-29T15:39:47.542Z</time></trkpt><trkpt lat="45.5765581" lon="12.5381271"><ele>0.0</ele><time>2026-03-29T15:39:48.542Z</time></trkpt><trkpt lat="45.5765274" lon="12.5379607"><ele>-0.2</ele><time>2026-03-29T15:39:49.528Z</time></trkpt><trkpt lat="45.5764956" lon="12.5377958"><ele>-0.4</ele><time>2026-03-29T15:39:50.543Z</time></trkpt><trkpt lat="45.5764673" lon="12.5376409"><ele>-0.6000000000000001</ele><time>2026-03-29T15:39:51.548Z</time></trkpt><trkpt lat="45.5764386" lon="12.5374913"><ele>-0.8</ele><time>2026-03-29T15:39:52.541Z</time></trkpt><trkpt lat="45.5764114" lon="12.5373482"><ele>-1.0</ele><time>2026-03-29T15:39:53.548Z</time></trkpt><trkpt lat="45.5763864" lon="12.5372092"><ele>-1.0</ele><time>2026-03-29T15:39:54.542Z</time></trkpt><trkpt lat="45.5763584" lon="12.5370678"><ele>-1.0</ele><time>2026-03-29T15:39:55.536Z</time></trkpt><trkpt lat="45.5763254" lon="12.5369165"><ele>-1.0</ele><time>2026-03-29T15:39:56.533Z</time></trkpt><trkpt lat="45.5762884" lon="12.5367448"><ele>-1.0</ele><time>2026-03-29T15:39:57.54Z</time></trkpt><trkpt lat="45.5762583" lon="12.5365561"><ele>-1.0</ele><time>2026-03-29T15:39:58.537Z</time></trkpt><trkpt lat="45.5762254" lon="12.5363433"><ele>-1.0</ele><time>2026-03-29T15:39:59.542Z</time></trkpt><trkpt lat="45.5761887" lon="12.5360998"><ele>-1.0</ele><time>2026-03-29T15:40:00.549Z</time></trkpt><trkpt lat="45.5761452" lon="12.5358422"><ele>-1.0</ele><time>2026-03-29T15:40:01.544Z</time></trkpt><trkpt lat="45.5760935" lon="12.5355671"><ele>-1.0</ele><time>2026-03-29T15:40:02.551Z</time></trkpt><trkpt lat="45.5760391" lon="12.5352918"><ele>-1.0</ele><time>2026-03-29T15:40:03.544Z</time></trkpt><trkpt lat="45.5759833" lon="12.5350051"><ele>-1.3333333333333333</ele><time>2026-03-29T15:40:04.571Z</time></trkpt><trkpt lat="45.5759305" lon="12.5347295"><ele>-1.6666666666666665</ele><time>2026-03-29T15:40:05.533Z</time></trkpt><trkpt lat="45.5758756" lon="12.5344426"><ele>-2.0</ele><time>2026-03-29T15:40:06.541Z</time></trkpt><trkpt lat="45.5758192" lon="12.5341573"><ele>-2.0</ele><time>2026-03-29T15:40:07.547Z</time></trkpt><trkpt lat="45.5757618" lon="12.5338732"><ele>-2.0</ele><time>2026-03-29T15:40:08.545Z</time></trkpt><trkpt lat="45.5757055" lon="12.5335894"><ele>-2.0</ele><time>2026-03-29T15:40:09.543Z</time></trkpt><trkpt lat="45.5756501" lon="12.53331"><ele>-2.0</ele><time>2026-03-29T15:40:10.54Z</time></trkpt><trkpt lat="45.5755958" lon="12.5330291"><ele>-2.0</ele><time>2026-03-29T15:40:11.533Z</time></trkpt><trkpt lat="45.5755429" lon="12.5327476"><ele>-2.0</ele><time>2026-03-29T15:40:12.54Z</time></trkpt><trkpt lat="45.5754917" lon="12.5324612"><ele>-2.0</ele><time>2026-03-29T15:40:13.553Z</time></trkpt><trkpt lat="45.5754421" lon="12.5321777"><ele>-2.0</ele><time>2026-03-29T15:40:14.55Z</time></trkpt><trkpt lat="45.57539" lon="12.5318976"><ele>-2.0</ele><time>2026-03-29T15:40:15.537Z</time></trkpt><trkpt lat="45.575336" lon="12.5316116"><ele>-1.6666666666666665</ele><time>2026-03-29T15:40:16.536Z</time></trkpt><trkpt lat="45.5752811" lon="12.5313284"><ele>-1.3333333333333333</ele><time>2026-03-29T15:40:17.544Z</time></trkpt><trkpt lat="45.5752262" lon="12.5310454"><ele>-1.0</ele><time>2026-03-29T15:40:18.532Z</time></trkpt><trkpt lat="45.5751705" lon="12.530759"><ele>-1.0</ele><time>2026-03-29T15:40:19.561Z</time></trkpt><trkpt lat="45.5751143" lon="12.5304768"><ele>-1.0</ele><time>2026-03-29T15:40:20.552Z</time></trkpt><trkpt lat="45.5750588" lon="12.5301882"><ele>-1.0</ele><time>2026-03-29T15:40:21.573Z</time></trkpt><trkpt lat="45.5750063" lon="12.5299077"><ele>-0.6666666666666666</ele><time>2026-03-29T15:40:22.532Z</time></trkpt><trkpt lat="45.5749537" lon="12.5296165"><ele>-0.3333333333333333</ele><time>2026-03-29T15:40:23.534Z</time></trkpt><trkpt lat="45.5748996" lon="12.5293288"><ele>0.0</ele><time>2026-03-29T15:40:24.537Z</time></trkpt><trkpt lat="45.574844" lon="12.5290376"><ele>-0.6666666666666666</ele><time>2026-03-29T15:40:25.543Z</time></trkpt><trkpt lat="45.5747884" lon="12.5287526"><ele>-1.3333333333333333</ele><time>2026-03-29T15:40:26.542Z</time></trkpt><trkpt lat="45.5747335" lon="12.5284621"><ele>-2.0</ele><time>2026-03-29T15:40:27.56Z</time></trkpt><trkpt lat="45.5746806" lon="12.528181"><ele>-2.333333333333333</ele><time>2026-03-29T15:40:28.533Z</time></trkpt><trkpt lat="45.5746257" lon="12.5278907"><ele>-2.6666666666666665</ele><time>2026-03-29T15:40:29.56Z</time></trkpt><trkpt lat="45.5745706" lon="12.5276085"><ele>-3.0</ele><time>2026-03-29T15:40:30.547Z</time></trkpt><trkpt lat="45.5745154" lon="12.5273219"><ele>-2.3333333333333335</ele><time>2026-03-29T15:40:31.551Z</time></trkpt><trkpt lat="45.5744618" lon="12.5270358"><ele>-1.6666666666666665</ele><time>2026-03-29T15:40:32.523Z</time></trkpt><trkpt lat="45.5744066" lon="12.5267452"><ele>-1.0</ele><time>2026-03-29T15:40:33.54Z</time></trkpt><trkpt lat="45.5743498" lon="12.5264567"><ele>-1.3333333333333333</ele><time>2026-03-29T15:40:34.542Z</time></trkpt><trkpt lat="45.5742936" lon="12.526173"><ele>-1.6666666666666665</ele><time>2026-03-29T15:40:35.526Z</time></trkpt><trkpt lat="45.5742368" lon="12.5258844"><ele>-2.0</ele><time>2026-03-29T15:40:36.533Z</time></trkpt><trkpt lat="45.574183" lon="12.5255983"><ele>-2.333333333333333</ele><time>2026-03-29T15:40:37.545Z</time></trkpt><trkpt lat="45.5741302" lon="12.5253092"><ele>-2.6666666666666665</ele><time>2026-03-29T15:40:38.55Z</time></trkpt><trkpt lat="45.5740768" lon="12.5250258"><ele>-3.0</ele><time>2026-03-29T15:40:39.551Z</time></trkpt><trkpt lat="45.5740219" lon="12.5247402"><ele>-2.6666666666666665</ele><time>2026-03-29T15:40:40.538Z</time></trkpt><trkpt lat="45.5739673" lon="12.5244535"><ele>-2.333333333333333</ele><time>2026-03-29T15:40:41.532Z</time></trkpt><trkpt lat="45.5739126" lon="12.5241689"><ele>-2.0</ele><time>2026-03-29T15:40:42.525Z</time></trkpt><trkpt lat="45.5738579" lon="12.5238796"><ele>-2.333333333333333</ele><time>2026-03-29T15:40:43.537Z</time></trkpt><trkpt lat="45.5738049" lon="12.5235911"><ele>-2.6666666666666665</ele><time>2026-03-29T15:40:44.548Z</time></trkpt><trkpt lat="45.5737531" lon="12.5233074"><ele>-3.0</ele><time>2026-03-29T15:40:45.543Z</time></trkpt><trkpt lat="45.5737012" lon="12.5230223"><ele>-3.0</ele><time>2026-03-29T15:40:46.544Z</time></trkpt><trkpt lat="45.5736496" lon="12.5227371"><ele>-3.0</ele><time>2026-03-29T15:40:47.54Z</time></trkpt><trkpt lat="45.573596" lon="12.5224519"><ele>-3.0</ele><time>2026-03-29T15:40:48.555Z</time></trkpt><trkpt lat="45.5735418" lon="12.5221643"><ele>-2.6666666666666665</ele><time>2026-03-29T15:40:49.553Z</time></trkpt><trkpt lat="45.5734854" lon="12.5218834"><ele>-2.333333333333333</ele><time>2026-03-29T15:40:50.548Z</time></trkpt><trkpt lat="45.5734232" lon="12.5215958"><ele>-2.0</ele><time>2026-03-29T15:40:51.555Z</time></trkpt><trkpt lat="45.5733607" lon="12.5213117"><ele>-1.6666666666666665</ele><time>2026-03-29T15:40:52.541Z</time></trkpt><trkpt lat="45.5732988" lon="12.5210256"><ele>-1.3333333333333333</ele><time>2026-03-29T15:40:53.546Z</time></trkpt><trkpt lat="45.5732386" lon="12.5207425"><ele>-1.0</ele><time>2026-03-29T15:40:54.543Z</time></trkpt><trkpt lat="45.573179" lon="12.5204586"><ele>-1.3333333333333333</ele><time>2026-03-29T15:40:55.547Z</time></trkpt><trkpt lat="45.5731214" lon="12.5201726"><ele>-1.6666666666666665</ele><time>2026-03-29T15:40:56.549Z</time></trkpt><trkpt lat="45.5730615" lon="12.5198909"><ele>-2.0</ele><time>2026-03-29T15:40:57.54Z</time></trkpt><trkpt lat="45.5729984" lon="12.5196063"><ele>-2.0</ele><time>2026-03-29T15:40:58.544Z</time></trkpt><trkpt lat="45.5729367" lon="12.5193238"><ele>-2.0</ele><time>2026-03-29T15:40:59.543Z</time></trkpt><trkpt lat="45.5728747" lon="12.5190362"><ele>-2.0</ele><time>2026-03-29T15:41:00.566Z</time></trkpt><trkpt lat="45.572813" lon="12.5187529"><ele>-1.6666666666666665</ele><time>2026-03-29T15:41:01.553Z</time></trkpt><trkpt lat="45.5727523" lon="12.5184729"><ele>-1.3333333333333333</ele><time>2026-03-29T15:41:02.539Z</time></trkpt><trkpt lat="45.5726904" lon="12.5181871"><ele>-1.0</ele><time>2026-03-29T15:41:03.559Z</time></trkpt><trkpt lat="45.5726289" lon="12.5179083"><ele>-1.3333333333333333</ele><time>2026-03-29T15:41:04.546Z</time></trkpt><trkpt lat="45.5725656" lon="12.5176224"><ele>-1.6666666666666665</ele><time>2026-03-29T15:41:05.542Z</time></trkpt><trkpt lat="45.5725055" lon="12.5173372"><ele>-2.0</ele><time>2026-03-29T15:41:06.561Z</time></trkpt><trkpt lat="45.5724473" lon="12.5170538"><ele>-2.0</ele><time>2026-03-29T15:41:07.56Z</time></trkpt><trkpt lat="45.5723874" lon="12.5167722"><ele>-2.0</ele><time>2026-03-29T15:41:08.533Z</time></trkpt><trkpt lat="45.5723271" lon="12.5164844"><ele>-2.0</ele><time>2026-03-29T15:41:09.548Z</time></trkpt><trkpt lat="45.5722674" lon="12.5161999"><ele>-2.333333333333333</ele><time>2026-03-29T15:41:10.546Z</time></trkpt><trkpt lat="45.5722071" lon="12.5159145"><ele>-2.6666666666666665</ele><time>2026-03-29T15:41:11.544Z</time></trkpt><trkpt lat="45.5721467" lon="12.515629"><ele>-3.0</ele><time>2026-03-29T15:41:12.535Z</time></trkpt><trkpt lat="45.5720857" lon="12.5153432"><ele>-3.333333333333333</ele><time>2026-03-29T15:41:13.537Z</time></trkpt><trkpt lat="45.5720257" lon="12.5150582"><ele>-3.6666666666666665</ele><time>2026-03-29T15:41:14.547Z</time></trkpt><trkpt lat="45.5719664" lon="12.5147759"><ele>-4.0</ele><time>2026-03-29T15:41:15.544Z</time></trkpt><trkpt lat="45.5719068" lon="12.5144944"><ele>-3.6666666666666665</ele><time>2026-03-29T15:41:16.529Z</time></trkpt><trkpt lat="45.5718442" lon="12.5142068"><ele>-3.333333333333333</ele><time>2026-03-29T15:41:17.564Z</time></trkpt><trkpt lat="45.5717858" lon="12.5139428"><ele>-3.0</ele><time>2026-03-29T15:41:18.544Z</time></trkpt><trkpt lat="45.5717279" lon="12.5136851"><ele>-3.0</ele><time>2026-03-29T15:41:19.54Z</time></trkpt><trkpt lat="45.5716721" lon="12.5134363"><ele>-3.0</ele><time>2026-03-29T15:41:20.563Z</time></trkpt><trkpt lat="45.5716196" lon="12.5131959"><ele>-3.0</ele><time>2026-03-29T15:41:21.538Z</time></trkpt><trkpt lat="45.5715658" lon="12.5129498"><ele>-3.0</ele><time>2026-03-29T15:41:22.557Z</time></trkpt><trkpt lat="45.5715139" lon="12.5127044"><ele>-3.0</ele><time>2026-03-29T15:41:23.568Z</time></trkpt><trkpt lat="45.5714632" lon="12.5124626"><ele>-3.0</ele><time>2026-03-29T15:41:24.541Z</time></trkpt><trkpt lat="45.571411" lon="12.5122203"><ele>-2.6666666666666665</ele><time>2026-03-29T15:41:25.539Z</time></trkpt><trkpt lat="45.5713596" lon="12.5119856"><ele>-2.333333333333333</ele><time>2026-03-29T15:41:26.544Z</time></trkpt><trkpt lat="45.5713112" lon="12.511761"><ele>-2.0</ele><time>2026-03-29T15:41:27.55Z</time></trkpt><trkpt lat="45.5712634" lon="12.511544"><ele>-2.0</ele><time>2026-03-29T15:41:28.534Z</time></trkpt><trkpt lat="45.5712188" lon="12.5113316"><ele>-2.0</ele><time>2026-03-29T15:41:29.541Z</time></trkpt><trkpt lat="45.5711764" lon="12.5111261"><ele>-2.0</ele><time>2026-03-29T15:41:30.539Z</time></trkpt><trkpt lat="45.5711365" lon="12.5109237"><ele>-2.0</ele><time>2026-03-29T15:41:31.546Z</time></trkpt><trkpt lat="45.5710984" lon="12.5107221"><ele>-2.0</ele><time>2026-03-29T15:41:32.561Z</time></trkpt><trkpt lat="45.5710614" lon="12.5105255"><ele>-2.0</ele><time>2026-03-29T15:41:33.551Z</time></trkpt><trkpt lat="45.5710242" lon="12.5103316"><ele>-2.0</ele><time>2026-03-29T15:41:34.57Z</time></trkpt><trkpt lat="45.5709862" lon="12.5101411"><ele>-2.0</ele><time>2026-03-29T15:41:35.555Z</time></trkpt><trkpt lat="45.5709483" lon="12.5099526"><ele>-2.0</ele><time>2026-03-29T15:41:36.542Z</time></trkpt><trkpt lat="45.5709106" lon="12.5097632"><ele>-2.0</ele><time>2026-03-29T15:41:37.533Z</time></trkpt><trkpt lat="45.5708716" lon="12.509573"><ele>-2.0</ele><time>2026-03-29T15:41:38.532Z</time></trkpt><trkpt lat="45.5708316" lon="12.5093829"><ele>-2.0</ele><time>2026-03-29T15:41:39.55Z</time></trkpt><trkpt lat="45.5707931" lon="12.5092013"><ele>-2.0</ele><time>2026-03-29T15:41:40.553Z</time></trkpt><trkpt lat="45.5707555" lon="12.5090232"><ele>-2.0</ele><time>2026-03-29T15:41:41.565Z</time></trkpt><trkpt lat="45.5707204" lon="12.5088576"><ele>-2.0</ele><time>2026-03-29T15:41:42.526Z</time></trkpt><trkpt lat="45.5706878" lon="12.5086986"><ele>-2.0</ele><time>2026-03-29T15:41:43.555Z</time></trkpt><trkpt lat="45.5706578" lon="12.5085547"><ele>-2.0</ele><time>2026-03-29T15:41:44.54Z</time></trkpt><trkpt lat="45.5706276" lon="12.5084134"><ele>-2.0</ele><time>2026-03-29T15:41:45.551Z</time></trkpt><trkpt lat="45.5705977" lon="12.5082756"><ele>-2.0</ele><time>2026-03-29T15:41:46.546Z</time></trkpt><trkpt lat="45.5705669" lon="12.5081368"><ele>-2.0</ele><time>2026-03-29T15:41:47.542Z</time></trkpt><trkpt lat="45.5705336" lon="12.5079923"><ele>-1.75</ele><time>2026-03-29T15:41:48.566Z</time></trkpt><trkpt lat="45.5705009" lon="12.5078474"><ele>-1.5</ele><time>2026-03-29T15:41:49.538Z</time></trkpt><trkpt lat="45.570467" lon="12.5076965"><ele>-1.25</ele><time>2026-03-29T15:41:50.539Z</time></trkpt><trkpt lat="45.5704321" lon="12.5075396"><ele>-1.0</ele><time>2026-03-29T15:41:51.54Z</time></trkpt><trkpt lat="45.5703972" lon="12.5073787"><ele>-1.0</ele><time>2026-03-29T15:41:52.539Z</time></trkpt><trkpt lat="45.5703637" lon="12.5072166"><ele>-1.0</ele><time>2026-03-29T15:41:53.55Z</time></trkpt><trkpt lat="45.5703284" lon="12.5070499"><ele>-1.0</ele><time>2026-03-29T15:41:54.542Z</time></trkpt><trkpt lat="45.5702892" lon="12.5068795"><ele>-1.0</ele><time>2026-03-29T15:41:55.54Z</time></trkpt><trkpt lat="45.570246" lon="12.5066989"><ele>-0.75</ele><time>2026-03-29T15:41:56.545Z</time></trkpt><trkpt lat="45.5702026" lon="12.5065091"><ele>-0.5</ele><time>2026-03-29T15:41:57.563Z</time></trkpt><trkpt lat="45.5701582" lon="12.5063189"><ele>-0.25</ele><time>2026-03-29T15:41:58.542Z</time></trkpt><trkpt lat="45.5701116" lon="12.5061168"><ele>0.0</ele><time>2026-03-29T15:41:59.54Z</time></trkpt><trkpt lat="45.5700662" lon="12.5059129"><ele>0.0</ele><time>2026-03-29T15:42:00.547Z</time></trkpt><trkpt lat="45.5700208" lon="12.5057059"><ele>0.0</ele><time>2026-03-29T15:42:01.546Z</time></trkpt><trkpt lat="45.5699716" lon="12.5054904"><ele>0.0</ele><time>2026-03-29T15:42:02.552Z</time></trkpt><trkpt lat="45.5699195" lon="12.5052695"><ele>-0.6666666666666666</ele><time>2026-03-29T15:42:03.57Z</time></trkpt><trkpt lat="45.5698674" lon="12.5050438"><ele>-1.3333333333333333</ele><time>2026-03-29T15:42:04.549Z</time></trkpt><trkpt lat="45.5698139" lon="12.5048097"><ele>-2.0</ele><time>2026-03-29T15:42:05.547Z</time></trkpt><trkpt lat="45.5697607" lon="12.5045714"><ele>-2.0</ele><time>2026-03-29T15:42:06.56Z</time></trkpt><trkpt lat="45.5697095" lon="12.5043325"><ele>-2.0</ele><time>2026-03-29T15:42:07.533Z</time></trkpt><trkpt lat="45.569658" lon="12.5040845"><ele>-2.0</ele><time>2026-03-29T15:42:08.551Z</time></trkpt><trkpt lat="45.5696075" lon="12.5038359"><ele>-2.0</ele><time>2026-03-29T15:42:09.541Z</time></trkpt><trkpt lat="45.5695553" lon="12.5035807"><ele>-2.0</ele><time>2026-03-29T15:42:10.559Z</time></trkpt><trkpt lat="45.5695042" lon="12.5033323"><ele>-2.0</ele><time>2026-03-29T15:42:11.549Z</time></trkpt><trkpt lat="45.5694527" lon="12.5030808"><ele>-2.333333333333333</ele><time>2026-03-29T15:42:12.539Z</time></trkpt><trkpt lat="45.5694026" lon="12.5028412"><ele>-2.6666666666666665</ele><time>2026-03-29T15:42:13.541Z</time></trkpt><trkpt lat="45.5693537" lon="12.5026112"><ele>-3.0</ele><time>2026-03-29T15:42:14.539Z</time></trkpt><trkpt lat="45.5693076" lon="12.5023967"><ele>-3.0</ele><time>2026-03-29T15:42:15.545Z</time></trkpt><trkpt lat="45.5692645" lon="12.5021975"><ele>-3.0</ele><time>2026-03-29T15:42:16.561Z</time></trkpt><trkpt lat="45.569224" lon="12.502009"><ele>-3.0</ele><time>2026-03-29T15:42:17.546Z</time></trkpt><trkpt lat="45.5691841" lon="12.5018243"><ele>-3.0</ele><time>2026-03-29T15:42:18.57Z</time></trkpt><trkpt lat="45.569145" lon="12.5016436"><ele>-3.0</ele><time>2026-03-29T15:42:19.545Z</time></trkpt><trkpt lat="45.5691042" lon="12.5014555"><ele>-3.0</ele><time>2026-03-29T15:42:20.546Z</time></trkpt><trkpt lat="45.5690627" lon="12.501263"><ele>-3.0</ele><time>2026-03-29T15:42:21.533Z</time></trkpt><trkpt lat="45.569019" lon="12.5010618"><ele>-3.0</ele><time>2026-03-29T15:42:22.55Z</time></trkpt><trkpt lat="45.5689761" lon="12.5008606"><ele>-3.0</ele><time>2026-03-29T15:42:23.542Z</time></trkpt><trkpt lat="45.5689332" lon="12.500652"><ele>-3.0</ele><time>2026-03-29T15:42:24.548Z</time></trkpt><trkpt lat="45.5688908" lon="12.5004438"><ele>-3.0</ele><time>2026-03-29T15:42:25.542Z</time></trkpt><trkpt lat="45.5688477" lon="12.500231"><ele>-3.0</ele><time>2026-03-29T15:42:26.538Z</time></trkpt><trkpt lat="45.5688027" lon="12.5000149"><ele>-3.0</ele><time>2026-03-29T15:42:27.549Z</time></trkpt><trkpt lat="45.5687584" lon="12.499797"><ele>-3.0</ele><time>2026-03-29T15:42:28.537Z</time></trkpt><trkpt lat="45.5687126" lon="12.4995714"><ele>-2.0</ele><time>2026-03-29T15:42:29.557Z</time></trkpt><trkpt lat="45.568666" lon="12.4993475"><ele>-1.0</ele><time>2026-03-29T15:42:30.532Z</time></trkpt><trkpt lat="45.5686149" lon="12.4991155"><ele>0.0</ele><time>2026-03-29T15:42:31.547Z</time></trkpt><trkpt lat="45.568563" lon="12.4988821"><ele>0.0</ele><time>2026-03-29T15:42:32.551Z</time></trkpt><trkpt lat="45.5685122" lon="12.4986452"><ele>0.0</ele><time>2026-03-29T15:42:33.562Z</time></trkpt><trkpt lat="45.5684622" lon="12.4984125"><ele>0.0</ele><time>2026-03-29T15:42:34.545Z</time></trkpt><trkpt lat="45.5684113" lon="12.498176"><ele>0.0</ele><time>2026-03-29T15:42:35.537Z</time></trkpt><trkpt lat="45.568361" lon="12.4979401"><ele>0.0</ele><time>2026-03-29T15:42:36.537Z</time></trkpt><trkpt lat="45.5683094" lon="12.4977048"><ele>0.0</ele><time>2026-03-29T15:42:37.539Z</time></trkpt><trkpt lat="45.5682565" lon="12.4974689"><ele>-0.3333333333333333</ele><time>2026-03-29T15:42:38.551Z</time></trkpt><trkpt lat="45.5682048" lon="12.4972331"><ele>-0.6666666666666666</ele><time>2026-03-29T15:42:39.544Z</time></trkpt><trkpt lat="45.5681533" lon="12.4969918"><ele>-1.0</ele><time>2026-03-29T15:42:40.55Z</time></trkpt><trkpt lat="45.5681022" lon="12.4967533"><ele>-1.6666666666666665</ele><time>2026-03-29T15:42:41.542Z</time></trkpt><trkpt lat="45.5680495" lon="12.4965092"><ele>-2.3333333333333335</ele><time>2026-03-29T15:42:42.535Z</time></trkpt><trkpt lat="45.5679968" lon="12.496265"><ele>-3.0</ele><time>2026-03-29T15:42:43.555Z</time></trkpt><trkpt lat="45.5679453" lon="12.4960222"><ele>-3.0</ele><time>2026-03-29T15:42:44.549Z</time></trkpt><trkpt lat="45.5678939" lon="12.4957759"><ele>-3.0</ele><time>2026-03-29T15:42:45.536Z</time></trkpt><trkpt lat="45.5678405" lon="12.4955258"><ele>-3.0</ele><time>2026-03-29T15:42:46.559Z</time></trkpt><trkpt lat="45.567788" lon="12.4952817"><ele>-2.6666666666666665</ele><time>2026-03-29T15:42:47.538Z</time></trkpt><trkpt lat="45.5677349" lon="12.495035"><ele>-2.333333333333333</ele><time>2026-03-29T15:42:48.541Z</time></trkpt><trkpt lat="45.5676812" lon="12.4947881"><ele>-2.0</ele><time>2026-03-29T15:42:49.569Z</time></trkpt><trkpt lat="45.5676282" lon="12.494548"><ele>-2.6666666666666665</ele><time>2026-03-29T15:42:50.533Z</time></trkpt><trkpt lat="45.5675749" lon="12.4943063"><ele>-3.333333333333333</ele><time>2026-03-29T15:42:51.536Z</time></trkpt><trkpt lat="45.567524" lon="12.4940683"><ele>-4.0</ele><time>2026-03-29T15:42:52.547Z</time></trkpt><trkpt lat="45.5674736" lon="12.4938376"><ele>-3.333333333333333</ele><time>2026-03-29T15:42:53.543Z</time></trkpt><trkpt lat="45.5674234" lon="12.4936105"><ele>-2.6666666666666665</ele><time>2026-03-29T15:42:54.55Z</time></trkpt><trkpt lat="45.5673751" lon="12.4933903"><ele>-2.0</ele><time>2026-03-29T15:42:55.54Z</time></trkpt><trkpt lat="45.5673267" lon="12.4931682"><ele>-2.0</ele><time>2026-03-29T15:42:56.543Z</time></trkpt><trkpt lat="45.5672792" lon="12.492946"><ele>-2.0</ele><time>2026-03-29T15:42:57.543Z</time></trkpt><trkpt lat="45.5672305" lon="12.4927202"><ele>-2.0</ele><time>2026-03-29T15:42:58.546Z</time></trkpt><trkpt lat="45.56718" lon="12.4924972"><ele>-2.0</ele><time>2026-03-29T15:42:59.534Z</time></trkpt><trkpt lat="45.5671278" lon="12.4922685"><ele>-2.0</ele><time>2026-03-29T15:43:00.542Z</time></trkpt><trkpt lat="45.5670758" lon="12.4920332"><ele>-2.0</ele><time>2026-03-29T15:43:01.575Z</time></trkpt><trkpt lat="45.5670251" lon="12.491797"><ele>-1.3333333333333333</ele><time>2026-03-29T15:43:02.56Z</time></trkpt><trkpt lat="45.5669718" lon="12.4915567"><ele>-0.6666666666666666</ele><time>2026-03-29T15:43:03.544Z</time></trkpt><trkpt lat="45.5669163" lon="12.4913082"><ele>0.0</ele><time>2026-03-29T15:43:04.571Z</time></trkpt><trkpt lat="45.5668606" lon="12.4910596"><ele>0.0</ele><time>2026-03-29T15:43:05.574Z</time></trkpt><trkpt lat="45.5668055" lon="12.490812"><ele>0.0</ele><time>2026-03-29T15:43:06.556Z</time></trkpt><trkpt lat="45.5667499" lon="12.4905587"><ele>0.0</ele><time>2026-03-29T15:43:07.542Z</time></trkpt><trkpt lat="45.566694" lon="12.4902975"><ele>0.0</ele><time>2026-03-29T15:43:08.545Z</time></trkpt><trkpt lat="45.5666391" lon="12.4900388"><ele>0.0</ele><time>2026-03-29T15:43:09.548Z</time></trkpt><trkpt lat="45.5665848" lon="12.4897868"><ele>0.0</ele><time>2026-03-29T15:43:10.541Z</time></trkpt><trkpt lat="45.5665318" lon="12.4895342"><ele>-0.3333333333333333</ele><time>2026-03-29T15:43:11.546Z</time></trkpt><trkpt lat="45.5664788" lon="12.4892823"><ele>-0.6666666666666666</ele><time>2026-03-29T15:43:12.534Z</time></trkpt><trkpt lat="45.5664244" lon="12.489029"><ele>-1.0</ele><time>2026-03-29T15:43:13.538Z</time></trkpt><trkpt lat="45.5663711" lon="12.4887761"><ele>-1.3333333333333333</ele><time>2026-03-29T15:43:14.536Z</time></trkpt><trkpt lat="45.5663183" lon="12.488525"><ele>-1.6666666666666665</ele><time>2026-03-29T15:43:15.544Z</time></trkpt><trkpt lat="45.5662648" lon="12.4882764"><ele>-2.0</ele><time>2026-03-29T15:43:16.531Z</time></trkpt><trkpt lat="45.5662096" lon="12.4880283"><ele>-1.6666666666666665</ele><time>2026-03-29T15:43:17.538Z</time></trkpt><trkpt lat="45.5661553" lon="12.487778"><ele>-1.3333333333333333</ele><time>2026-03-29T15:43:18.538Z</time></trkpt><trkpt lat="45.566103" lon="12.4875267"><ele>-1.0</ele><time>2026-03-29T15:43:19.558Z</time></trkpt><trkpt lat="45.5660533" lon="12.4872828"><ele>-0.6666666666666666</ele><time>2026-03-29T15:43:20.552Z</time></trkpt><trkpt lat="45.5660047" lon="12.4870501"><ele>-0.3333333333333333</ele><time>2026-03-29T15:43:21.529Z</time></trkpt><trkpt lat="45.565956" lon="12.4868187"><ele>0.0</ele><time>2026-03-29T15:43:22.547Z</time></trkpt><trkpt lat="45.5659085" lon="12.4865959"><ele>0.0</ele><time>2026-03-29T15:43:23.542Z</time></trkpt><trkpt lat="45.5658634" lon="12.4863741"><ele>0.0</ele><time>2026-03-29T15:43:24.536Z</time></trkpt><trkpt lat="45.5658183" lon="12.4861518"><ele>0.0</ele><time>2026-03-29T15:43:25.537Z</time></trkpt><trkpt lat="45.5657712" lon="12.4859254"><ele>0.3333333333333333</ele><time>2026-03-29T15:43:26.562Z</time></trkpt><trkpt lat="45.565723" lon="12.4857017"><ele>0.6666666666666666</ele><time>2026-03-29T15:43:27.532Z</time></trkpt><trkpt lat="45.5656735" lon="12.48547"><ele>1.0</ele><time>2026-03-29T15:43:28.54Z</time></trkpt><trkpt lat="45.5656241" lon="12.4852314"><ele>0.3333333333333333</ele><time>2026-03-29T15:43:29.552Z</time></trkpt><trkpt lat="45.5655719" lon="12.4849913"><ele>-0.3333333333333333</ele><time>2026-03-29T15:43:30.54Z</time></trkpt><trkpt lat="45.5655181" lon="12.4847421"><ele>-1.0</ele><time>2026-03-29T15:43:31.545Z</time></trkpt><trkpt lat="45.565467" lon="12.4844908"><ele>-1.3333333333333333</ele><time>2026-03-29T15:43:32.56Z</time></trkpt><trkpt lat="45.5654181" lon="12.4842417"><ele>-1.6666666666666665</ele><time>2026-03-29T15:43:33.537Z</time></trkpt><trkpt lat="45.5653706" lon="12.4839896"><ele>-2.0</ele><time>2026-03-29T15:43:34.527Z</time></trkpt><trkpt lat="45.565324" lon="12.4837365"><ele>-2.0</ele><time>2026-03-29T15:43:35.534Z</time></trkpt><trkpt lat="45.5652783" lon="12.4834877"><ele>-2.0</ele><time>2026-03-29T15:43:36.524Z</time></trkpt><trkpt lat="45.5652325" lon="12.4832408"><ele>-2.0</ele><time>2026-03-29T15:43:37.529Z</time></trkpt><trkpt lat="45.5651863" lon="12.4829937"><ele>-1.6666666666666665</ele><time>2026-03-29T15:43:38.539Z</time></trkpt><trkpt lat="45.5651401" lon="12.4827471"><ele>-1.3333333333333333</ele><time>2026-03-29T15:43:39.551Z</time></trkpt><trkpt lat="45.5650939" lon="12.4825031"><ele>-1.0</ele><time>2026-03-29T15:43:40.54Z</time></trkpt><trkpt lat="45.5650466" lon="12.4822557"><ele>-1.3333333333333333</ele><time>2026-03-29T15:43:41.531Z</time></trkpt><trkpt lat="45.5649956" lon="12.4820024"><ele>-1.6666666666666665</ele><time>2026-03-29T15:43:42.544Z</time></trkpt><trkpt lat="45.5649438" lon="12.4817521"><ele>-2.0</ele><time>2026-03-29T15:43:43.53Z</time></trkpt><trkpt lat="45.5648903" lon="12.4814917"><ele>-1.6666666666666665</ele><time>2026-03-29T15:43:44.529Z</time></trkpt><trkpt lat="45.5648349" lon="12.4812293"><ele>-1.3333333333333333</ele><time>2026-03-29T15:43:45.539Z</time></trkpt><trkpt lat="45.5647778" lon="12.4809666"><ele>-1.0</ele><time>2026-03-29T15:43:46.536Z</time></trkpt><trkpt lat="45.56472" lon="12.4807021"><ele>-1.3333333333333333</ele><time>2026-03-29T15:43:47.517Z</time></trkpt><trkpt lat="45.5646603" lon="12.4804302"><ele>-1.6666666666666665</ele><time>2026-03-29T15:43:48.526Z</time></trkpt><trkpt lat="45.564601" lon="12.4801572"><ele>-2.0</ele><time>2026-03-29T15:43:49.555Z</time></trkpt><trkpt lat="45.5645434" lon="12.4798899"><ele>-2.0</ele><time>2026-03-29T15:43:50.509Z</time></trkpt><trkpt lat="45.5644847" lon="12.479613"><ele>-2.0</ele><time>2026-03-29T15:43:51.53Z</time></trkpt><trkpt lat="45.5644264" lon="12.4793374"><ele>-2.0</ele><time>2026-03-29T15:43:52.535Z</time></trkpt><trkpt lat="45.5643643" lon="12.4790578"><ele>-2.0</ele><time>2026-03-29T15:43:53.534Z</time></trkpt><trkpt lat="45.5643026" lon="12.4787788"><ele>-2.0</ele><time>2026-03-29T15:43:54.536Z</time></trkpt><trkpt lat="45.564238" lon="12.4784936"><ele>-2.0</ele><time>2026-03-29T15:43:55.555Z</time></trkpt><trkpt lat="45.5641752" lon="12.4782175"><ele>-2.333333333333333</ele><time>2026-03-29T15:43:56.522Z</time></trkpt><trkpt lat="45.5641095" lon="12.4779312"><ele>-2.6666666666666665</ele><time>2026-03-29T15:43:57.516Z</time></trkpt><trkpt lat="45.5640437" lon="12.4776453"><ele>-3.0</ele><time>2026-03-29T15:43:58.554Z</time></trkpt><trkpt lat="45.5639805" lon="12.4773662"><ele>-2.3333333333333335</ele><time>2026-03-29T15:43:59.534Z</time></trkpt><trkpt lat="45.5639171" lon="12.4770815"><ele>-1.6666666666666665</ele><time>2026-03-29T15:44:00.533Z</time></trkpt><trkpt lat="45.5638538" lon="12.4768"><ele>-1.0</ele><time>2026-03-29T15:44:01.52Z</time></trkpt><trkpt lat="45.5637893" lon="12.4765118"><ele>-0.6666666666666666</ele><time>2026-03-29T15:44:02.524Z</time></trkpt><trkpt lat="45.563724" lon="12.4762257"><ele>-0.3333333333333333</ele><time>2026-03-29T15:44:03.543Z</time></trkpt><trkpt lat="45.5636603" lon="12.4759465"><ele>0.0</ele><time>2026-03-29T15:44:04.544Z</time></trkpt><trkpt lat="45.563596" lon="12.4756575"><ele>0.0</ele><time>2026-03-29T15:44:05.551Z</time></trkpt><trkpt lat="45.5635335" lon="12.4753724"><ele>0.0</ele><time>2026-03-29T15:44:06.58Z</time></trkpt><trkpt lat="45.563473" lon="12.4750921"><ele>0.0</ele><time>2026-03-29T15:44:07.568Z</time></trkpt><trkpt lat="45.5634128" lon="12.4748132"><ele>-0.3333333333333333</ele><time>2026-03-29T15:44:08.534Z</time></trkpt><trkpt lat="45.5633497" lon="12.474533"><ele>-0.6666666666666666</ele><time>2026-03-29T15:44:09.559Z</time></trkpt><trkpt lat="45.5632897" lon="12.4742654"><ele>-1.0</ele><time>2026-03-29T15:44:10.543Z</time></trkpt><trkpt lat="45.5632304" lon="12.4739945"><ele>-0.6666666666666666</ele><time>2026-03-29T15:44:11.552Z</time></trkpt><trkpt lat="45.5631724" lon="12.4737298"><ele>-0.3333333333333333</ele><time>2026-03-29T15:44:12.561Z</time></trkpt><trkpt lat="45.5631144" lon="12.4734692"><ele>0.0</ele><time>2026-03-29T15:44:13.543Z</time></trkpt><trkpt lat="45.5630574" lon="12.4732061"><ele>0.0</ele><time>2026-03-29T15:44:14.541Z</time></trkpt><trkpt lat="45.5629988" lon="12.4729458"><ele>0.0</ele><time>2026-03-29T15:44:15.574Z</time></trkpt><trkpt lat="45.5629407" lon="12.4726905"><ele>0.0</ele><time>2026-03-29T15:44:16.534Z</time></trkpt><trkpt lat="45.5628829" lon="12.4724289"><ele>0.3333333333333333</ele><time>2026-03-29T15:44:17.564Z</time></trkpt><trkpt lat="45.5628276" lon="12.4721762"><ele>0.6666666666666666</ele><time>2026-03-29T15:44:18.537Z</time></trkpt><trkpt lat="45.5627716" lon="12.4719174"><ele>1.0</ele><time>2026-03-29T15:44:19.542Z</time></trkpt><trkpt lat="45.5627149" lon="12.4716584"><ele>1.3333333333333333</ele><time>2026-03-29T15:44:20.538Z</time></trkpt><trkpt lat="45.5626563" lon="12.4713979"><ele>1.6666666666666665</ele><time>2026-03-29T15:44:21.552Z</time></trkpt><trkpt lat="45.562597" lon="12.4711347"><ele>2.0</ele><time>2026-03-29T15:44:22.535Z</time></trkpt><trkpt lat="45.5625378" lon="12.47087"><ele>2.0</ele><time>2026-03-29T15:44:23.54Z</time></trkpt><trkpt lat="45.562478" lon="12.4706022"><ele>2.0</ele><time>2026-03-29T15:44:24.541Z</time></trkpt><trkpt lat="45.5624182" lon="12.4703318"><ele>2.0</ele><time>2026-03-29T15:44:25.559Z</time></trkpt><trkpt lat="45.5623595" lon="12.4700618"><ele>1.3333333333333333</ele><time>2026-03-29T15:44:26.553Z</time></trkpt><trkpt lat="45.5623005" lon="12.4697936"><ele>0.6666666666666666</ele><time>2026-03-29T15:44:27.55Z</time></trkpt><trkpt lat="45.5622393" lon="12.4695249"><ele>0.0</ele><time>2026-03-29T15:44:28.548Z</time></trkpt><trkpt lat="45.5621784" lon="12.4692604"><ele>-0.3333333333333333</ele><time>2026-03-29T15:44:29.53Z</time></trkpt><trkpt lat="45.5621179" lon="12.4689993"><ele>-0.6666666666666666</ele><time>2026-03-29T15:44:30.538Z</time></trkpt><trkpt lat="45.5620571" lon="12.4687413"><ele>-1.0</ele><time>2026-03-29T15:44:31.539Z</time></trkpt><trkpt lat="45.5619979" lon="12.4684893"><ele>-1.0</ele><time>2026-03-29T15:44:32.54Z</time></trkpt><trkpt lat="45.5619411" lon="12.4682407"><ele>-1.0</ele><time>2026-03-29T15:44:33.555Z</time></trkpt><trkpt lat="45.5618864" lon="12.468002"><ele>-1.0</ele><time>2026-03-29T15:44:34.531Z</time></trkpt><trkpt lat="45.561831" lon="12.4677568"><ele>-1.0</ele><time>2026-03-29T15:44:35.532Z</time></trkpt><trkpt lat="45.5617761" lon="12.4675114"><ele>-1.0</ele><time>2026-03-29T15:44:36.562Z</time></trkpt><trkpt lat="45.561722" lon="12.4672694"><ele>-1.0</ele><time>2026-03-29T15:44:37.554Z</time></trkpt><trkpt lat="45.5616652" lon="12.467021"><ele>-1.0</ele><time>2026-03-29T15:44:38.544Z</time></trkpt><trkpt lat="45.561609" lon="12.4667753"><ele>-1.0</ele><time>2026-03-29T15:44:39.533Z</time></trkpt><trkpt lat="45.5615501" lon="12.4665222"><ele>-1.0</ele><time>2026-03-29T15:44:40.553Z</time></trkpt><trkpt lat="45.5614932" lon="12.4662702"><ele>-1.6666666666666665</ele><time>2026-03-29T15:44:41.539Z</time></trkpt><trkpt lat="45.5614347" lon="12.46601"><ele>-2.3333333333333335</ele><time>2026-03-29T15:44:42.538Z</time></trkpt><trkpt lat="45.5613749" lon="12.465747"><ele>-3.0</ele><time>2026-03-29T15:44:43.555Z</time></trkpt><trkpt lat="45.5613161" lon="12.4654802"><ele>-2.3333333333333335</ele><time>2026-03-29T15:44:44.547Z</time></trkpt><trkpt lat="45.5612568" lon="12.4652147"><ele>-1.6666666666666665</ele><time>2026-03-29T15:44:45.551Z</time></trkpt><trkpt lat="45.5611977" lon="12.4649493"><ele>-1.0</ele><time>2026-03-29T15:44:46.54Z</time></trkpt><trkpt lat="45.5611372" lon="12.4646803"><ele>-1.0</ele><time>2026-03-29T15:44:47.543Z</time></trkpt><trkpt lat="45.5610772" lon="12.4644148"><ele>-1.0</ele><time>2026-03-29T15:44:48.539Z</time></trkpt><trkpt lat="45.5610164" lon="12.4641469"><ele>-1.0</ele><time>2026-03-29T15:44:49.54Z</time></trkpt><trkpt lat="45.5609554" lon="12.4638801"><ele>-1.0</ele><time>2026-03-29T15:44:50.535Z</time></trkpt><trkpt lat="45.5608946" lon="12.4636121"><ele>-1.0</ele><time>2026-03-29T15:44:51.547Z</time></trkpt><trkpt lat="45.5608361" lon="12.4633491"><ele>-1.0</ele><time>2026-03-29T15:44:52.534Z</time></trkpt><trkpt lat="45.5607775" lon="12.4630865"><ele>-0.6666666666666666</ele><time>2026-03-29T15:44:53.536Z</time></trkpt><trkpt lat="45.5607192" lon="12.4628265"><ele>-0.3333333333333333</ele><time>2026-03-29T15:44:54.55Z</time></trkpt><trkpt lat="45.5606615" lon="12.4625718"><ele>0.0</ele><time>2026-03-29T15:44:55.552Z</time></trkpt><trkpt lat="45.5606048" lon="12.4623211"><ele>0.0</ele><time>2026-03-29T15:44:56.546Z</time></trkpt><trkpt lat="45.5605478" lon="12.4620687"><ele>0.0</ele><time>2026-03-29T15:44:57.549Z</time></trkpt><trkpt lat="45.5604912" lon="12.4618236"><ele>0.0</ele><time>2026-03-29T15:44:58.539Z</time></trkpt><trkpt lat="45.5604312" lon="12.4615764"><ele>0.0</ele><time>2026-03-29T15:44:59.533Z</time></trkpt><trkpt lat="45.5603728" lon="12.4613279"><ele>0.0</ele><time>2026-03-29T15:45:00.539Z</time></trkpt><trkpt lat="45.5603161" lon="12.4610751"><ele>0.0</ele><time>2026-03-29T15:45:01.564Z</time></trkpt><trkpt lat="45.5602597" lon="12.4608263"><ele>-0.3333333333333333</ele><time>2026-03-29T15:45:02.545Z</time></trkpt><trkpt lat="45.560203" lon="12.4605693"><ele>-0.6666666666666666</ele><time>2026-03-29T15:45:03.554Z</time></trkpt><trkpt lat="45.5601454" lon="12.46031"><ele>-1.0</ele><time>2026-03-29T15:45:04.564Z</time></trkpt><trkpt lat="45.5600865" lon="12.4600499"><ele>-1.0</ele><time>2026-03-29T15:45:05.545Z</time></trkpt><trkpt lat="45.5600273" lon="12.4597894"><ele>-1.0</ele><time>2026-03-29T15:45:06.543Z</time></trkpt><trkpt lat="45.5599682" lon="12.459527"><ele>-1.0</ele><time>2026-03-29T15:45:07.553Z</time></trkpt><trkpt lat="45.5599115" lon="12.4592732"><ele>-0.6666666666666666</ele><time>2026-03-29T15:45:08.554Z</time></trkpt><trkpt lat="45.5598551" lon="12.4590197"><ele>-0.3333333333333333</ele><time>2026-03-29T15:45:09.56Z</time></trkpt><trkpt lat="45.559799" lon="12.4587691"><ele>0.0</ele><time>2026-03-29T15:45:10.578Z</time></trkpt><trkpt lat="45.5597421" lon="12.4585255"><ele>0.3333333333333333</ele><time>2026-03-29T15:45:11.555Z</time></trkpt><trkpt lat="45.5596838" lon="12.4582802"><ele>0.6666666666666666</ele><time>2026-03-29T15:45:12.543Z</time></trkpt><trkpt lat="45.5596259" lon="12.4580347"><ele>1.0</ele><time>2026-03-29T15:45:13.551Z</time></trkpt><trkpt lat="45.5595719" lon="12.4577925"><ele>1.0</ele><time>2026-03-29T15:45:14.54Z</time></trkpt><trkpt lat="45.55952" lon="12.4575521"><ele>1.0</ele><time>2026-03-29T15:45:15.534Z</time></trkpt><trkpt lat="45.5594681" lon="12.4573183"><ele>1.0</ele><time>2026-03-29T15:45:16.561Z</time></trkpt><trkpt lat="45.5594184" lon="12.4570965"><ele>1.0</ele><time>2026-03-29T15:45:17.543Z</time></trkpt><trkpt lat="45.5593718" lon="12.4568752"><ele>1.0</ele><time>2026-03-29T15:45:18.534Z</time></trkpt><trkpt lat="45.5593298" lon="12.4566573"><ele>1.0</ele><time>2026-03-29T15:45:19.557Z</time></trkpt><trkpt lat="45.5592926" lon="12.4564488"><ele>1.5</ele><time>2026-03-29T15:45:20.545Z</time></trkpt><trkpt lat="45.5592581" lon="12.4562365"><ele>2.0</ele><time>2026-03-29T15:45:21.552Z</time></trkpt><trkpt lat="45.559228" lon="12.4560274"><ele>2.5</ele><time>2026-03-29T15:45:22.551Z</time></trkpt><trkpt lat="45.5592001" lon="12.4558219"><ele>3.0</ele><time>2026-03-29T15:45:23.552Z</time></trkpt><trkpt lat="45.5591709" lon="12.4556216"><ele>3.25</ele><time>2026-03-29T15:45:24.533Z</time></trkpt><trkpt lat="45.5591395" lon="12.455422"><ele>3.5</ele><time>2026-03-29T15:45:25.578Z</time></trkpt><trkpt lat="45.5591122" lon="12.4552339"><ele>3.75</ele><time>2026-03-29T15:45:26.565Z</time></trkpt><trkpt lat="45.5590868" lon="12.4550512"><ele>4.0</ele><time>2026-03-29T15:45:27.539Z</time></trkpt><trkpt lat="45.5590625" lon="12.4548715"><ele>4.0</ele><time>2026-03-29T15:45:28.544Z</time></trkpt><trkpt lat="45.559039" lon="12.4547064"><ele>4.0</ele><time>2026-03-29T15:45:29.545Z</time></trkpt><trkpt lat="45.5590162" lon="12.4545432"><ele>4.0</ele><time>2026-03-29T15:45:30.537Z</time></trkpt><trkpt lat="45.5589933" lon="12.4543828"><ele>4.0</ele><time>2026-03-29T15:45:31.54Z</time></trkpt><trkpt lat="45.5589699" lon="12.4542251"><ele>3.75</ele><time>2026-03-29T15:45:32.55Z</time></trkpt><trkpt lat="45.5589472" lon="12.4540683"><ele>3.5</ele><time>2026-03-29T15:45:33.552Z</time></trkpt><trkpt lat="45.5589234" lon="12.4539078"><ele>3.25</ele><time>2026-03-29T15:45:34.546Z</time></trkpt><trkpt lat="45.5588998" lon="12.4537397"><ele>3.0</ele><time>2026-03-29T15:45:35.531Z</time></trkpt><trkpt lat="45.5588739" lon="12.4535622"><ele>2.75</ele><time>2026-03-29T15:45:36.536Z</time></trkpt><trkpt lat="45.5588474" lon="12.4533766"><ele>2.5</ele><time>2026-03-29T15:45:37.533Z</time></trkpt><trkpt lat="45.5588211" lon="12.453181"><ele>2.25</ele><time>2026-03-29T15:45:38.541Z</time></trkpt><trkpt lat="45.5587927" lon="12.4529783"><ele>2.0</ele><time>2026-03-29T15:45:39.529Z</time></trkpt><trkpt lat="45.5587636" lon="12.4527682"><ele>2.0</ele><time>2026-03-29T15:45:40.55Z</time></trkpt><trkpt lat="45.5587381" lon="12.4525594"><ele>2.0</ele><time>2026-03-29T15:45:41.544Z</time></trkpt><trkpt lat="45.5587153" lon="12.4523495"><ele>2.0</ele><time>2026-03-29T15:45:42.543Z</time></trkpt><trkpt lat="45.558696" lon="12.4521451"><ele>2.0</ele><time>2026-03-29T15:45:43.537Z</time></trkpt><trkpt lat="45.5586812" lon="12.4519372"><ele>2.0</ele><time>2026-03-29T15:45:44.54Z</time></trkpt><trkpt lat="45.5586748" lon="12.4517312"><ele>2.0</ele><time>2026-03-29T15:45:45.548Z</time></trkpt><trkpt lat="45.5586734" lon="12.4515199"><ele>2.0</ele><time>2026-03-29T15:45:46.537Z</time></trkpt><trkpt lat="45.5586735" lon="12.4513021"><ele>2.0</ele><time>2026-03-29T15:45:47.541Z</time></trkpt><trkpt lat="45.5586779" lon="12.4510785"><ele>2.0</ele><time>2026-03-29T15:45:48.562Z</time></trkpt><trkpt lat="45.5586892" lon="12.4508518"><ele>2.0</ele><time>2026-03-29T15:45:49.546Z</time></trkpt><trkpt lat="45.5587045" lon="12.4506181"><ele>2.0</ele><time>2026-03-29T15:45:50.537Z</time></trkpt><trkpt lat="45.5587254" lon="12.4503798"><ele>1.6666666666666665</ele><time>2026-03-29T15:45:51.545Z</time></trkpt><trkpt lat="45.558748" lon="12.4501438"><ele>1.3333333333333333</ele><time>2026-03-29T15:45:52.554Z</time></trkpt><trkpt lat="45.5587706" lon="12.4499096"><ele>1.0</ele><time>2026-03-29T15:45:53.54Z</time></trkpt><trkpt lat="45.5587947" lon="12.4496719"><ele>0.3333333333333333</ele><time>2026-03-29T15:45:54.541Z</time></trkpt><trkpt lat="45.5588195" lon="12.4494321"><ele>-0.3333333333333333</ele><time>2026-03-29T15:45:55.563Z</time></trkpt><trkpt lat="45.5588387" lon="12.4491953"><ele>-1.0</ele><time>2026-03-29T15:45:56.558Z</time></trkpt><trkpt lat="45.5588521" lon="12.4489565"><ele>-0.6666666666666666</ele><time>2026-03-29T15:45:57.542Z</time></trkpt><trkpt lat="45.55886" lon="12.4487099"><ele>-0.3333333333333333</ele><time>2026-03-29T15:45:58.561Z</time></trkpt><trkpt lat="45.5588601" lon="12.4484665"><ele>0.0</ele><time>2026-03-29T15:45:59.55Z</time></trkpt><trkpt lat="45.5588503" lon="12.4482214"><ele>0.0</ele><time>2026-03-29T15:46:00.545Z</time></trkpt><trkpt lat="45.558835" lon="12.4479717"><ele>0.0</ele><time>2026-03-29T15:46:01.546Z</time></trkpt><trkpt lat="45.5588166" lon="12.4477256"><ele>0.0</ele><time>2026-03-29T15:46:02.528Z</time></trkpt><trkpt lat="45.558795" lon="12.4474783"><ele>0.3333333333333333</ele><time>2026-03-29T15:46:03.535Z</time></trkpt><trkpt lat="45.5587703" lon="12.4472332"><ele>0.6666666666666666</ele><time>2026-03-29T15:46:04.546Z</time></trkpt><trkpt lat="45.5587386" lon="12.446994"><ele>1.0</ele><time>2026-03-29T15:46:05.549Z</time></trkpt><trkpt lat="45.5587033" lon="12.4467595"><ele>0.6666666666666666</ele><time>2026-03-29T15:46:06.548Z</time></trkpt><trkpt lat="45.5586637" lon="12.4465305"><ele>0.3333333333333333</ele><time>2026-03-29T15:46:07.537Z</time></trkpt><trkpt lat="45.5586183" lon="12.4463016"><ele>0.0</ele><time>2026-03-29T15:46:08.533Z</time></trkpt><trkpt lat="45.5585673" lon="12.4460712"><ele>0.0</ele><time>2026-03-29T15:46:09.548Z</time></trkpt><trkpt lat="45.5585088" lon="12.4458441"><ele>0.0</ele><time>2026-03-29T15:46:10.549Z</time></trkpt><trkpt lat="45.5584488" lon="12.4456225"><ele>0.0</ele><time>2026-03-29T15:46:11.556Z</time></trkpt><trkpt lat="45.5583869" lon="12.4454081"><ele>0.3333333333333333</ele><time>2026-03-29T15:46:12.544Z</time></trkpt><trkpt lat="45.5583234" lon="12.4451914"><ele>0.6666666666666666</ele><time>2026-03-29T15:46:13.563Z</time></trkpt><trkpt lat="45.5582568" lon="12.4449819"><ele>1.0</ele><time>2026-03-29T15:46:14.542Z</time></trkpt><trkpt lat="45.5581893" lon="12.4447704"><ele>1.0</ele><time>2026-03-29T15:46:15.531Z</time></trkpt><trkpt lat="45.5581269" lon="12.4445576"><ele>1.0</ele><time>2026-03-29T15:46:16.546Z</time></trkpt><trkpt lat="45.5580659" lon="12.4443538"><ele>1.0</ele><time>2026-03-29T15:46:17.538Z</time></trkpt><trkpt lat="45.5580083" lon="12.4441501"><ele>1.0</ele><time>2026-03-29T15:46:18.545Z</time></trkpt><trkpt lat="45.5579518" lon="12.4439472"><ele>1.0</ele><time>2026-03-29T15:46:19.545Z</time></trkpt><trkpt lat="45.5578946" lon="12.4437417"><ele>1.0</ele><time>2026-03-29T15:46:20.548Z</time></trkpt><trkpt lat="45.5578366" lon="12.4435365"><ele>0.3333333333333333</ele><time>2026-03-29T15:46:21.552Z</time></trkpt><trkpt lat="45.5577758" lon="12.4433333"><ele>-0.3333333333333333</ele><time>2026-03-29T15:46:22.544Z</time></trkpt><trkpt lat="45.5577159" lon="12.4431225"><ele>-1.0</ele><time>2026-03-29T15:46:23.559Z</time></trkpt><trkpt lat="45.557657" lon="12.4429104"><ele>-1.0</ele><time>2026-03-29T15:46:24.559Z</time></trkpt><trkpt lat="45.5575965" lon="12.4426961"><ele>-1.0</ele><time>2026-03-29T15:46:25.539Z</time></trkpt><trkpt lat="45.5575338" lon="12.4424726"><ele>-1.0</ele><time>2026-03-29T15:46:26.556Z</time></trkpt><trkpt lat="45.557471" lon="12.4422492"><ele>-1.0</ele><time>2026-03-29T15:46:27.572Z</time></trkpt><trkpt lat="45.557408" lon="12.4420261"><ele>-1.0</ele><time>2026-03-29T15:46:28.55Z</time></trkpt><trkpt lat="45.5573434" lon="12.4417978"><ele>-1.0</ele><time>2026-03-29T15:46:29.541Z</time></trkpt><trkpt lat="45.5572779" lon="12.4415682"><ele>-1.0</ele><time>2026-03-29T15:46:30.549Z</time></trkpt><trkpt lat="45.5572128" lon="12.4413428"><ele>-1.0</ele><time>2026-03-29T15:46:31.548Z</time></trkpt><trkpt lat="45.5571484" lon="12.4411235"><ele>-1.0</ele><time>2026-03-29T15:46:32.544Z</time></trkpt><trkpt lat="45.5570863" lon="12.4409052"><ele>-0.6666666666666666</ele><time>2026-03-29T15:46:33.539Z</time></trkpt><trkpt lat="45.5570255" lon="12.440684"><ele>-0.3333333333333333</ele><time>2026-03-29T15:46:34.565Z</time></trkpt><trkpt lat="45.5569666" lon="12.4404673"><ele>0.0</ele><time>2026-03-29T15:46:35.536Z</time></trkpt><trkpt lat="45.5569111" lon="12.4402407"><ele>0.0</ele><time>2026-03-29T15:46:36.547Z</time></trkpt><trkpt lat="45.5568624" lon="12.4400121"><ele>0.0</ele><time>2026-03-29T15:46:37.538Z</time></trkpt><trkpt lat="45.556823" lon="12.4397737"><ele>0.0</ele><time>2026-03-29T15:46:38.542Z</time></trkpt><trkpt lat="45.5567956" lon="12.4395266"><ele>-0.3333333333333333</ele><time>2026-03-29T15:46:39.546Z</time></trkpt><trkpt lat="45.5567805" lon="12.4392797"><ele>-0.6666666666666666</ele><time>2026-03-29T15:46:40.539Z</time></trkpt><trkpt lat="45.5567878" lon="12.4390361"><ele>-1.0</ele><time>2026-03-29T15:46:41.538Z</time></trkpt><trkpt lat="45.5568196" lon="12.4387981"><ele>-1.0</ele><time>2026-03-29T15:46:42.54Z</time></trkpt><trkpt lat="45.5568681" lon="12.4385627"><ele>-1.0</ele><time>2026-03-29T15:46:43.542Z</time></trkpt><trkpt lat="45.5569307" lon="12.43834"><ele>-1.0</ele><time>2026-03-29T15:46:44.543Z</time></trkpt><trkpt lat="45.557004" lon="12.4381156"><ele>-0.6666666666666666</ele><time>2026-03-29T15:46:45.536Z</time></trkpt><trkpt lat="45.5570857" lon="12.4378672"><ele>-0.3333333333333333</ele><time>2026-03-29T15:46:46.551Z</time></trkpt><trkpt lat="45.5571631" lon="12.4376366"><ele>0.0</ele><time>2026-03-29T15:46:47.553Z</time></trkpt><trkpt lat="45.5572417" lon="12.4374051"><ele>0.0</ele><time>2026-03-29T15:46:48.542Z</time></trkpt><trkpt lat="45.5573185" lon="12.4371833"><ele>0.0</ele><time>2026-03-29T15:46:49.535Z</time></trkpt><trkpt lat="45.5573971" lon="12.4369662"><ele>0.0</ele><time>2026-03-29T15:46:50.536Z</time></trkpt><trkpt lat="45.557476" lon="12.4367562"><ele>0.0</ele><time>2026-03-29T15:46:51.542Z</time></trkpt><trkpt lat="45.5575572" lon="12.4365538"><ele>0.0</ele><time>2026-03-29T15:46:52.538Z</time></trkpt><trkpt lat="45.5576495" lon="12.4363574"><ele>0.0</ele><time>2026-03-29T15:46:53.556Z</time></trkpt><trkpt lat="45.5577531" lon="12.4361807"><ele>0.3333333333333333</ele><time>2026-03-29T15:46:54.539Z</time></trkpt><trkpt lat="45.557871" lon="12.4360195"><ele>0.6666666666666666</ele><time>2026-03-29T15:46:55.536Z</time></trkpt><trkpt lat="45.5579946" lon="12.4358772"><ele>1.0</ele><time>2026-03-29T15:46:56.551Z</time></trkpt><trkpt lat="45.5581224" lon="12.4357497"><ele>1.0</ele><time>2026-03-29T15:46:57.567Z</time></trkpt><trkpt lat="45.5582454" lon="12.4356491"><ele>1.0</ele><time>2026-03-29T15:46:58.554Z</time></trkpt><trkpt lat="45.558369" lon="12.4355666"><ele>1.0</ele><time>2026-03-29T15:46:59.539Z</time></trkpt><trkpt lat="45.5584925" lon="12.4354982"><ele>1.0</ele><time>2026-03-29T15:47:00.546Z</time></trkpt><trkpt lat="45.5586091" lon="12.4354437"><ele>1.2000000000000002</ele><time>2026-03-29T15:47:01.539Z</time></trkpt><trkpt lat="45.5587222" lon="12.4354056"><ele>1.4000000000000001</ele><time>2026-03-29T15:47:02.541Z</time></trkpt><trkpt lat="45.5588285" lon="12.4353764"><ele>1.6</ele><time>2026-03-29T15:47:03.56Z</time></trkpt><trkpt lat="45.558925" lon="12.4353494"><ele>1.8</ele><time>2026-03-29T15:47:04.532Z</time></trkpt><trkpt lat="45.5590133" lon="12.4353303"><ele>2.0</ele><time>2026-03-29T15:47:05.534Z</time></trkpt><trkpt lat="45.5590948" lon="12.435315"><ele>1.9999999999999998</ele><time>2026-03-29T15:47:06.545Z</time></trkpt><trkpt lat="45.5591702" lon="12.4353141"><ele>2.0</ele><time>2026-03-29T15:47:07.531Z</time></trkpt><trkpt lat="45.5592406" lon="12.4353258"><ele>2.0</ele><time>2026-03-29T15:47:08.548Z</time></trkpt><trkpt lat="45.5593033" lon="12.4353493"><ele>2.0</ele><time>2026-03-29T15:47:09.553Z</time></trkpt><trkpt lat="45.5594244" lon="12.435383"><ele>1.9999999999999998</ele><time>2026-03-29T15:47:11.527Z</time></trkpt><trkpt lat="45.5594982" lon="12.435345"><ele>2.0</ele><time>2026-03-29T15:47:12.531Z</time></trkpt><trkpt lat="45.5595695" lon="12.4352606"><ele>2.0</ele><time>2026-03-29T15:47:13.534Z</time></trkpt><trkpt lat="45.5596205" lon="12.4351351"><ele>2.0</ele><time>2026-03-29T15:47:14.534Z</time></trkpt><trkpt lat="45.559661" lon="12.434999"><ele>2.0</ele><time>2026-03-29T15:47:15.527Z</time></trkpt><trkpt lat="45.5596969" lon="12.4348653"><ele>2.0</ele><time>2026-03-29T15:47:16.54Z</time></trkpt><trkpt lat="45.5597323" lon="12.4347414"><ele>2.0</ele><time>2026-03-29T15:47:17.545Z</time></trkpt><trkpt lat="45.5597528" lon="12.4346219"><ele>2.0</ele><time>2026-03-29T15:47:18.541Z</time></trkpt><trkpt lat="45.5597735" lon="12.4345071"><ele>2.0</ele><time>2026-03-29T15:47:19.536Z</time></trkpt><trkpt lat="45.5597994" lon="12.4343864"><ele>2.0</ele><time>2026-03-29T15:47:20.545Z</time></trkpt><trkpt lat="45.5598297" lon="12.4342605"><ele>2.0</ele><time>2026-03-29T15:47:21.538Z</time></trkpt><trkpt lat="45.559865" lon="12.4341257"><ele>2.0</ele><time>2026-03-29T15:47:22.545Z</time></trkpt><trkpt lat="45.5599079" lon="12.4339831"><ele>2.0</ele><time>2026-03-29T15:47:23.55Z</time></trkpt><trkpt lat="45.5599567" lon="12.4338359"><ele>2.0</ele><time>2026-03-29T15:47:24.567Z</time></trkpt><trkpt lat="45.5600105" lon="12.4336871"><ele>2.0</ele><time>2026-03-29T15:47:25.555Z</time></trkpt><trkpt lat="45.5600624" lon="12.4335307"><ele>2.0</ele><time>2026-03-29T15:47:26.532Z</time></trkpt><trkpt lat="45.5601114" lon="12.4333628"><ele>2.0</ele><time>2026-03-29T15:47:27.523Z</time></trkpt><trkpt lat="45.5601628" lon="12.4331874"><ele>2.0</ele><time>2026-03-29T15:47:28.539Z</time></trkpt><trkpt lat="45.5602146" lon="12.4330068"><ele>2.0</ele><time>2026-03-29T15:47:29.526Z</time></trkpt><trkpt lat="45.5602695" lon="12.432831"><ele>2.0</ele><time>2026-03-29T15:47:30.552Z</time></trkpt><trkpt lat="45.5603194" lon="12.4326599"><ele>1.75</ele><time>2026-03-29T15:47:31.561Z</time></trkpt><trkpt lat="45.5603649" lon="12.4324936"><ele>1.5</ele><time>2026-03-29T15:47:32.551Z</time></trkpt><trkpt lat="45.5604227" lon="12.4323416"><ele>1.25</ele><time>2026-03-29T15:47:33.535Z</time></trkpt><trkpt lat="45.5604701" lon="12.4321892"><ele>1.0</ele><time>2026-03-29T15:47:34.552Z</time></trkpt><trkpt lat="45.5605132" lon="12.4320391"><ele>2.25</ele><time>2026-03-29T15:47:35.552Z</time></trkpt><trkpt lat="45.5605581" lon="12.431891"><ele>3.5</ele><time>2026-03-29T15:47:36.533Z</time></trkpt><trkpt lat="45.5606018" lon="12.4317381"><ele>4.75</ele><time>2026-03-29T15:47:37.56Z</time></trkpt><trkpt lat="45.5606414" lon="12.4315762"><ele>6.0</ele><time>2026-03-29T15:47:38.548Z</time></trkpt><trkpt lat="45.5606834" lon="12.4314058"><ele>6.25</ele><time>2026-03-29T15:47:39.549Z</time></trkpt><trkpt lat="45.5607274" lon="12.4312255"><ele>6.5</ele><time>2026-03-29T15:47:40.541Z</time></trkpt><trkpt lat="45.5607657" lon="12.4310383"><ele>6.75</ele><time>2026-03-29T15:47:41.534Z</time></trkpt><trkpt lat="45.5608111" lon="12.4308529"><ele>7.0</ele><time>2026-03-29T15:47:42.541Z</time></trkpt><trkpt lat="45.5608812" lon="12.4306818"><ele>7.0</ele><time>2026-03-29T15:47:43.541Z</time></trkpt><trkpt lat="45.5609409" lon="12.4305048"><ele>7.0</ele><time>2026-03-29T15:47:44.54Z</time></trkpt><trkpt lat="45.5610063" lon="12.4303323"><ele>7.0</ele><time>2026-03-29T15:47:45.539Z</time></trkpt><trkpt lat="45.5610556" lon="12.4301485"><ele>7.0</ele><time>2026-03-29T15:47:46.527Z</time></trkpt><trkpt lat="45.5611041" lon="12.4299593"><ele>5.75</ele><time>2026-03-29T15:47:47.53Z</time></trkpt><trkpt lat="45.5611253" lon="12.4297621"><ele>4.5</ele><time>2026-03-29T15:47:48.537Z</time></trkpt><trkpt lat="45.5611439" lon="12.4295611"><ele>3.25</ele><time>2026-03-29T15:47:49.545Z</time></trkpt><trkpt lat="45.5611553" lon="12.4293523"><ele>2.0</ele><time>2026-03-29T15:47:50.545Z</time></trkpt><trkpt lat="45.5611743" lon="12.4291353"><ele>2.0</ele><time>2026-03-29T15:47:51.529Z</time></trkpt><trkpt lat="45.5611694" lon="12.42892"><ele>2.0</ele><time>2026-03-29T15:47:52.534Z</time></trkpt><trkpt lat="45.561131" lon="12.4286786"><ele>2.0</ele><time>2026-03-29T15:47:53.527Z</time></trkpt><trkpt lat="45.5610925" lon="12.428447"><ele>2.0</ele><time>2026-03-29T15:47:54.543Z</time></trkpt><trkpt lat="45.561063" lon="12.4282133"><ele>2.0</ele><time>2026-03-29T15:47:55.534Z</time></trkpt><trkpt lat="45.5610317" lon="12.4279755"><ele>2.0</ele><time>2026-03-29T15:47:56.536Z</time></trkpt><trkpt lat="45.5610017" lon="12.4277388"><ele>1.6666666666666665</ele><time>2026-03-29T15:47:57.551Z</time></trkpt><trkpt lat="45.5609701" lon="12.427508"><ele>1.3333333333333333</ele><time>2026-03-29T15:47:58.553Z</time></trkpt><trkpt lat="45.5609264" lon="12.4272852"><ele>1.0</ele><time>2026-03-29T15:47:59.538Z</time></trkpt><trkpt lat="45.5608899" lon="12.4270618"><ele>1.0</ele><time>2026-03-29T15:48:00.548Z</time></trkpt><trkpt lat="45.5608462" lon="12.4268397"><ele>1.0</ele><time>2026-03-29T15:48:01.545Z</time></trkpt><trkpt lat="45.5608084" lon="12.4266102"><ele>1.0</ele><time>2026-03-29T15:48:02.547Z</time></trkpt><trkpt lat="45.5607723" lon="12.4263742"><ele>0.3333333333333333</ele><time>2026-03-29T15:48:03.528Z</time></trkpt><trkpt lat="45.5607427" lon="12.4261354"><ele>-0.3333333333333333</ele><time>2026-03-29T15:48:04.53Z</time></trkpt><trkpt lat="45.5607104" lon="12.4258999"><ele>-1.0</ele><time>2026-03-29T15:48:05.536Z</time></trkpt><trkpt lat="45.5606775" lon="12.4256711"><ele>-1.6666666666666665</ele><time>2026-03-29T15:48:06.542Z</time></trkpt><trkpt lat="45.5606402" lon="12.4254477"><ele>-2.3333333333333335</ele><time>2026-03-29T15:48:07.534Z</time></trkpt><trkpt lat="45.5606057" lon="12.4252225"><ele>-3.0</ele><time>2026-03-29T15:48:08.535Z</time></trkpt><trkpt lat="45.560592" lon="12.4249939"><ele>-3.0</ele><time>2026-03-29T15:48:09.551Z</time></trkpt><trkpt lat="45.560609" lon="12.4247612"><ele>-3.0</ele><time>2026-03-29T15:48:10.571Z</time></trkpt><trkpt lat="45.5606505" lon="12.4245315"><ele>-3.0</ele><time>2026-03-29T15:48:11.532Z</time></trkpt><trkpt lat="45.5607111" lon="12.4243082"><ele>-2.6666666666666665</ele><time>2026-03-29T15:48:12.55Z</time></trkpt><trkpt lat="45.5607851" lon="12.4240856"><ele>-2.333333333333333</ele><time>2026-03-29T15:48:13.536Z</time></trkpt><trkpt lat="45.5608837" lon="12.4238704"><ele>-2.0</ele><time>2026-03-29T15:48:14.544Z</time></trkpt><trkpt lat="45.5609982" lon="12.4236528"><ele>-1.3333333333333333</ele><time>2026-03-29T15:48:15.548Z</time></trkpt><trkpt lat="45.5611251" lon="12.4234403"><ele>-0.6666666666666666</ele><time>2026-03-29T15:48:16.533Z</time></trkpt><trkpt lat="45.5612441" lon="12.4232176"><ele>0.0</ele><time>2026-03-29T15:48:17.539Z</time></trkpt><trkpt lat="45.5613549" lon="12.4229897"><ele>0.0</ele><time>2026-03-29T15:48:18.536Z</time></trkpt><trkpt lat="45.5614659" lon="12.4227654"><ele>0.0</ele><time>2026-03-29T15:48:19.539Z</time></trkpt><trkpt lat="45.5615772" lon="12.4225495"><ele>0.0</ele><time>2026-03-29T15:48:20.528Z</time></trkpt><trkpt lat="45.5616838" lon="12.4223428"><ele>0.3333333333333333</ele><time>2026-03-29T15:48:21.535Z</time></trkpt><trkpt lat="45.5617864" lon="12.4221389"><ele>0.6666666666666666</ele><time>2026-03-29T15:48:22.542Z</time></trkpt><trkpt lat="45.5618887" lon="12.4219352"><ele>1.0</ele><time>2026-03-29T15:48:23.542Z</time></trkpt><trkpt lat="45.5619905" lon="12.4217326"><ele>0.6666666666666666</ele><time>2026-03-29T15:48:24.532Z</time></trkpt><trkpt lat="45.5620899" lon="12.4215298"><ele>0.3333333333333333</ele><time>2026-03-29T15:48:25.542Z</time></trkpt><trkpt lat="45.5621893" lon="12.4213286"><ele>0.0</ele><time>2026-03-29T15:48:26.543Z</time></trkpt><trkpt lat="45.5622842" lon="12.421126"><ele>0.0</ele><time>2026-03-29T15:48:27.536Z</time></trkpt><trkpt lat="45.5623728" lon="12.4209186"><ele>0.0</ele><time>2026-03-29T15:48:28.54Z</time></trkpt><trkpt lat="45.5624548" lon="12.4207059"><ele>0.0</ele><time>2026-03-29T15:48:29.531Z</time></trkpt><trkpt lat="45.5625254" lon="12.4204851"><ele>0.0</ele><time>2026-03-29T15:48:30.533Z</time></trkpt><trkpt lat="45.5625869" lon="12.4202577"><ele>0.0</ele><time>2026-03-29T15:48:31.534Z</time></trkpt><trkpt lat="45.5626355" lon="12.4200242"><ele>0.0</ele><time>2026-03-29T15:48:32.539Z</time></trkpt><trkpt lat="45.5626754" lon="12.4197883"><ele>0.0</ele><time>2026-03-29T15:48:33.531Z</time></trkpt><trkpt lat="45.562711" lon="12.4195483"><ele>0.0</ele><time>2026-03-29T15:48:34.535Z</time></trkpt><trkpt lat="45.5627476" lon="12.4193056"><ele>0.0</ele><time>2026-03-29T15:48:35.538Z</time></trkpt><trkpt lat="45.5627848" lon="12.4190617"><ele>0.0</ele><time>2026-03-29T15:48:36.545Z</time></trkpt><trkpt lat="45.5628213" lon="12.4188171"><ele>0.0</ele><time>2026-03-29T15:48:37.558Z</time></trkpt><trkpt lat="45.5628575" lon="12.4185717"><ele>0.0</ele><time>2026-03-29T15:48:38.54Z</time></trkpt><trkpt lat="45.5628971" lon="12.4183227"><ele>0.0</ele><time>2026-03-29T15:48:39.542Z</time></trkpt><trkpt lat="45.5629328" lon="12.4180723"><ele>0.0</ele><time>2026-03-29T15:48:40.547Z</time></trkpt><trkpt lat="45.5629643" lon="12.4178232"><ele>0.0</ele><time>2026-03-29T15:48:41.535Z</time></trkpt><trkpt lat="45.5629997" lon="12.4175641"><ele>0.0</ele><time>2026-03-29T15:48:42.525Z</time></trkpt><trkpt lat="45.5630359" lon="12.4172854"><ele>0.0</ele><time>2026-03-29T15:48:43.534Z</time></trkpt><trkpt lat="45.5630764" lon="12.4169969"><ele>0.0</ele><time>2026-03-29T15:48:44.533Z</time></trkpt><trkpt lat="45.5631225" lon="12.416706"><ele>0.3333333333333333</ele><time>2026-03-29T15:48:45.55Z</time></trkpt><trkpt lat="45.563175" lon="12.4164148"><ele>0.6666666666666666</ele><time>2026-03-29T15:48:46.543Z</time></trkpt><trkpt lat="45.5632286" lon="12.4161241"><ele>1.0</ele><time>2026-03-29T15:48:47.554Z</time></trkpt><trkpt lat="45.5632774" lon="12.4158379"><ele>1.0</ele><time>2026-03-29T15:48:48.536Z</time></trkpt><trkpt lat="45.5633224" lon="12.4155589"><ele>1.0</ele><time>2026-03-29T15:48:49.539Z</time></trkpt><trkpt lat="45.5633669" lon="12.4152834"><ele>1.0</ele><time>2026-03-29T15:48:50.527Z</time></trkpt><trkpt lat="45.5634121" lon="12.4150061"><ele>1.0</ele><time>2026-03-29T15:48:51.544Z</time></trkpt><trkpt lat="45.563458" lon="12.4147246"><ele>1.0</ele><time>2026-03-29T15:48:52.537Z</time></trkpt><trkpt lat="45.5635027" lon="12.4144403"><ele>1.0</ele><time>2026-03-29T15:48:53.546Z</time></trkpt><trkpt lat="45.5635463" lon="12.414155"><ele>1.3333333333333333</ele><time>2026-03-29T15:48:54.53Z</time></trkpt><trkpt lat="45.5635911" lon="12.4138709"><ele>1.6666666666666665</ele><time>2026-03-29T15:48:55.538Z</time></trkpt><trkpt lat="45.5636342" lon="12.4135929"><ele>2.0</ele><time>2026-03-29T15:48:56.527Z</time></trkpt><trkpt lat="45.563677" lon="12.4133276"><ele>2.0</ele><time>2026-03-29T15:48:57.53Z</time></trkpt><trkpt lat="45.5637187" lon="12.4130755"><ele>2.0</ele><time>2026-03-29T15:48:58.544Z</time></trkpt><trkpt lat="45.563758" lon="12.4128317"><ele>2.0</ele><time>2026-03-29T15:48:59.53Z</time></trkpt><trkpt lat="45.5637947" lon="12.4125945"><ele>1.6666666666666665</ele><time>2026-03-29T15:49:00.54Z</time></trkpt><trkpt lat="45.5638326" lon="12.4123685"><ele>1.3333333333333333</ele><time>2026-03-29T15:49:01.546Z</time></trkpt><trkpt lat="45.5638546" lon="12.4121539"><ele>1.0</ele><time>2026-03-29T15:49:02.558Z</time></trkpt><trkpt lat="45.5638883" lon="12.4119548"><ele>0.75</ele><time>2026-03-29T15:49:03.555Z</time></trkpt><trkpt lat="45.5638857" lon="12.4117645"><ele>0.5</ele><time>2026-03-29T15:49:04.523Z</time></trkpt><trkpt lat="45.563863" lon="12.411586"><ele>0.25</ele><time>2026-03-29T15:49:05.541Z</time></trkpt><trkpt lat="45.5638299" lon="12.4114174"><ele>0.0</ele><time>2026-03-29T15:49:06.534Z</time></trkpt><trkpt lat="45.5637902" lon="12.411255"><ele>-0.25</ele><time>2026-03-29T15:49:07.529Z</time></trkpt><trkpt lat="45.5637491" lon="12.4110918"><ele>-0.5</ele><time>2026-03-29T15:49:08.532Z</time></trkpt><trkpt lat="45.5636993" lon="12.4109299"><ele>-0.75</ele><time>2026-03-29T15:49:09.539Z</time></trkpt><trkpt lat="45.5636508" lon="12.4107616"><ele>-1.0</ele><time>2026-03-29T15:49:10.533Z</time></trkpt><trkpt lat="45.563604" lon="12.4105935"><ele>-0.25</ele><time>2026-03-29T15:49:11.559Z</time></trkpt><trkpt lat="45.563559" lon="12.4104299"><ele>0.5</ele><time>2026-03-29T15:49:12.552Z</time></trkpt><trkpt lat="45.5635112" lon="12.410273"><ele>1.25</ele><time>2026-03-29T15:49:13.558Z</time></trkpt><trkpt lat="45.563466" lon="12.4101183"><ele>2.0</ele><time>2026-03-29T15:49:14.543Z</time></trkpt><trkpt lat="45.5634128" lon="12.4099731"><ele>2.0</ele><time>2026-03-29T15:49:15.534Z</time></trkpt><trkpt lat="45.563366" lon="12.4098305"><ele>2.0</ele><time>2026-03-29T15:49:16.543Z</time></trkpt><trkpt lat="45.5633329" lon="12.4096814"><ele>2.0</ele><time>2026-03-29T15:49:17.541Z</time></trkpt><trkpt lat="45.563308" lon="12.4095224"><ele>2.0</ele><time>2026-03-29T15:49:18.539Z</time></trkpt><trkpt lat="45.5633074" lon="12.4093419"><ele>1.6666666666666665</ele><time>2026-03-29T15:49:19.533Z</time></trkpt><trkpt lat="45.5633524" lon="12.409149"><ele>1.3333333333333333</ele><time>2026-03-29T15:49:20.554Z</time></trkpt><trkpt lat="45.5633972" lon="12.4089421"><ele>1.0</ele><time>2026-03-29T15:49:21.534Z</time></trkpt><trkpt lat="45.5634488" lon="12.4087183"><ele>0.6666666666666666</ele><time>2026-03-29T15:49:22.541Z</time></trkpt><trkpt lat="45.5635048" lon="12.4084971"><ele>0.3333333333333333</ele><time>2026-03-29T15:49:23.57Z</time></trkpt><trkpt lat="45.5635527" lon="12.408281"><ele>0.0</ele><time>2026-03-29T15:49:24.543Z</time></trkpt><trkpt lat="45.5635987" lon="12.4080767"><ele>-0.25</ele><time>2026-03-29T15:49:25.541Z</time></trkpt><trkpt lat="45.5636413" lon="12.4078777"><ele>-0.5</ele><time>2026-03-29T15:49:26.525Z</time></trkpt><trkpt lat="45.5636782" lon="12.4076818"><ele>-0.75</ele><time>2026-03-29T15:49:27.524Z</time></trkpt><trkpt lat="45.5637124" lon="12.4074885"><ele>-1.0</ele><time>2026-03-29T15:49:28.542Z</time></trkpt><trkpt lat="45.5637431" lon="12.4072967"><ele>-0.75</ele><time>2026-03-29T15:49:29.524Z</time></trkpt><trkpt lat="45.5637732" lon="12.4071046"><ele>-0.5</ele><time>2026-03-29T15:49:30.541Z</time></trkpt><trkpt lat="45.5638012" lon="12.4069095"><ele>-0.25</ele><time>2026-03-29T15:49:31.55Z</time></trkpt><trkpt lat="45.56383" lon="12.4067166"><ele>0.0</ele><time>2026-03-29T15:49:32.535Z</time></trkpt><trkpt lat="45.5638573" lon="12.4065303"><ele>0.0</ele><time>2026-03-29T15:49:33.547Z</time></trkpt><trkpt lat="45.5638824" lon="12.4063469"><ele>0.0</ele><time>2026-03-29T15:49:34.539Z</time></trkpt><trkpt lat="45.5639085" lon="12.4061607"><ele>0.0</ele><time>2026-03-29T15:49:35.551Z</time></trkpt><trkpt lat="45.56394" lon="12.4059695"><ele>0.0</ele><time>2026-03-29T15:49:36.557Z</time></trkpt><trkpt lat="45.5639687" lon="12.4057703"><ele>0.5</ele><time>2026-03-29T15:49:37.539Z</time></trkpt><trkpt lat="45.5640167" lon="12.4055792"><ele>1.0</ele><time>2026-03-29T15:49:38.532Z</time></trkpt><trkpt lat="45.5640743" lon="12.4053991"><ele>1.5</ele><time>2026-03-29T15:49:39.548Z</time></trkpt><trkpt lat="45.5641206" lon="12.4052144"><ele>2.0</ele><time>2026-03-29T15:49:40.539Z</time></trkpt><trkpt lat="45.5641703" lon="12.4050269"><ele>2.25</ele><time>2026-03-29T15:49:41.53Z</time></trkpt><trkpt lat="45.5642235" lon="12.4048316"><ele>2.5</ele><time>2026-03-29T15:49:42.572Z</time></trkpt><trkpt lat="45.5642818" lon="12.4046332"><ele>2.75</ele><time>2026-03-29T15:49:43.559Z</time></trkpt><trkpt lat="45.564365" lon="12.4044541"><ele>3.0</ele><time>2026-03-29T15:49:44.541Z</time></trkpt><trkpt lat="45.5644419" lon="12.4042807"><ele>3.0</ele><time>2026-03-29T15:49:45.548Z</time></trkpt><trkpt lat="45.5645087" lon="12.4041102"><ele>3.0</ele><time>2026-03-29T15:49:46.532Z</time></trkpt><trkpt lat="45.5645789" lon="12.4039433"><ele>3.0</ele><time>2026-03-29T15:49:47.522Z</time></trkpt><trkpt lat="45.5646453" lon="12.4037663"><ele>3.0</ele><time>2026-03-29T15:49:48.547Z</time></trkpt><trkpt lat="45.5647085" lon="12.4035778"><ele>2.6666666666666665</ele><time>2026-03-29T15:49:49.549Z</time></trkpt><trkpt lat="45.5647738" lon="12.4033833"><ele>2.333333333333333</ele><time>2026-03-29T15:49:50.531Z</time></trkpt><trkpt lat="45.5648436" lon="12.4031865"><ele>2.0</ele><time>2026-03-29T15:49:51.549Z</time></trkpt><trkpt lat="45.5649149" lon="12.4029878"><ele>2.0</ele><time>2026-03-29T15:49:52.537Z</time></trkpt><trkpt lat="45.5649982" lon="12.4027962"><ele>2.0</ele><time>2026-03-29T15:49:53.555Z</time></trkpt><trkpt lat="45.5650712" lon="12.4026"><ele>2.0</ele><time>2026-03-29T15:49:54.541Z</time></trkpt><trkpt lat="45.5651401" lon="12.4024042"><ele>2.0</ele><time>2026-03-29T15:49:55.526Z</time></trkpt><trkpt lat="45.565207" lon="12.4022073"><ele>2.0</ele><time>2026-03-29T15:49:56.542Z</time></trkpt><trkpt lat="45.5652745" lon="12.4020092"><ele>2.0</ele><time>2026-03-29T15:49:57.532Z</time></trkpt><trkpt lat="45.5653318" lon="12.4018008"><ele>2.0</ele><time>2026-03-29T15:49:58.546Z</time></trkpt><trkpt lat="45.5653972" lon="12.4015898"><ele>2.0</ele><time>2026-03-29T15:49:59.543Z</time></trkpt><trkpt lat="45.5654685" lon="12.401374"><ele>2.0</ele><time>2026-03-29T15:50:00.54Z</time></trkpt><trkpt lat="45.5655565" lon="12.401164"><ele>2.0</ele><time>2026-03-29T15:50:01.532Z</time></trkpt><trkpt lat="45.5656339" lon="12.4009424"><ele>2.0</ele><time>2026-03-29T15:50:02.541Z</time></trkpt><trkpt lat="45.5657107" lon="12.4007151"><ele>2.0</ele><time>2026-03-29T15:50:03.525Z</time></trkpt><trkpt lat="45.5657898" lon="12.4004876"><ele>2.333333333333333</ele><time>2026-03-29T15:50:04.534Z</time></trkpt><trkpt lat="45.5658665" lon="12.4002583"><ele>2.6666666666666665</ele><time>2026-03-29T15:50:05.531Z</time></trkpt><trkpt lat="45.5659432" lon="12.4000298"><ele>3.0</ele><time>2026-03-29T15:50:06.536Z</time></trkpt><trkpt lat="45.5660162" lon="12.3998018"><ele>2.6666666666666665</ele><time>2026-03-29T15:50:07.529Z</time></trkpt><trkpt lat="45.5660917" lon="12.3995744"><ele>2.333333333333333</ele><time>2026-03-29T15:50:08.538Z</time></trkpt><trkpt lat="45.5661737" lon="12.3993484"><ele>2.0</ele><time>2026-03-29T15:50:09.532Z</time></trkpt><trkpt lat="45.5662423" lon="12.3991147"><ele>2.333333333333333</ele><time>2026-03-29T15:50:10.548Z</time></trkpt><trkpt lat="45.5663159" lon="12.3988877"><ele>2.6666666666666665</ele><time>2026-03-29T15:50:11.543Z</time></trkpt><trkpt lat="45.5663919" lon="12.3986666"><ele>3.0</ele><time>2026-03-29T15:50:12.541Z</time></trkpt><trkpt lat="45.5664732" lon="12.398446"><ele>3.0</ele><time>2026-03-29T15:50:13.53Z</time></trkpt><trkpt lat="45.5665528" lon="12.3982279"><ele>3.0</ele><time>2026-03-29T15:50:14.538Z</time></trkpt><trkpt lat="45.5666433" lon="12.3980153"><ele>3.0</ele><time>2026-03-29T15:50:15.531Z</time></trkpt><trkpt lat="45.5667217" lon="12.397791"><ele>2.3333333333333335</ele><time>2026-03-29T15:50:16.538Z</time></trkpt><trkpt lat="45.5668014" lon="12.3975641"><ele>1.6666666666666665</ele><time>2026-03-29T15:50:17.548Z</time></trkpt><trkpt lat="45.5668798" lon="12.3973369"><ele>1.0</ele><time>2026-03-29T15:50:18.536Z</time></trkpt><trkpt lat="45.566949" lon="12.3971151"><ele>1.0</ele><time>2026-03-29T15:50:19.537Z</time></trkpt><trkpt lat="45.5670175" lon="12.3968999"><ele>1.0</ele><time>2026-03-29T15:50:20.538Z</time></trkpt><trkpt lat="45.5670815" lon="12.396691"><ele>1.0</ele><time>2026-03-29T15:50:21.536Z</time></trkpt><trkpt lat="45.5671366" lon="12.3964774"><ele>2.0</ele><time>2026-03-29T15:50:22.557Z</time></trkpt><trkpt lat="45.5671799" lon="12.3962591"><ele>3.0</ele><time>2026-03-29T15:50:23.534Z</time></trkpt><trkpt lat="45.5672192" lon="12.396044"><ele>4.0</ele><time>2026-03-29T15:50:24.545Z</time></trkpt><trkpt lat="45.5672558" lon="12.395832"><ele>4.0</ele><time>2026-03-29T15:50:25.553Z</time></trkpt><trkpt lat="45.5672917" lon="12.3956244"><ele>4.0</ele><time>2026-03-29T15:50:26.544Z</time></trkpt><trkpt lat="45.5673236" lon="12.3954227"><ele>4.0</ele><time>2026-03-29T15:50:27.527Z</time></trkpt><trkpt lat="45.5673592" lon="12.3952281"><ele>4.0</ele><time>2026-03-29T15:50:28.547Z</time></trkpt><trkpt lat="45.5673955" lon="12.3950391"><ele>4.0</ele><time>2026-03-29T15:50:29.563Z</time></trkpt><trkpt lat="45.5674161" lon="12.3948495"><ele>4.0</ele><time>2026-03-29T15:50:30.543Z</time></trkpt><trkpt lat="45.5674434" lon="12.3946711"><ele>4.0</ele><time>2026-03-29T15:50:31.532Z</time></trkpt><trkpt lat="45.567472" lon="12.3945061"><ele>4.0</ele><time>2026-03-29T15:50:32.54Z</time></trkpt><trkpt lat="45.5674989" lon="12.3943507"><ele>4.0</ele><time>2026-03-29T15:50:33.53Z</time></trkpt><trkpt lat="45.5675234" lon="12.3941987"><ele>4.0</ele><time>2026-03-29T15:50:34.541Z</time></trkpt><trkpt lat="45.5675496" lon="12.3940486"><ele>4.0</ele><time>2026-03-29T15:50:35.54Z</time></trkpt><trkpt lat="45.5675724" lon="12.3939002"><ele>4.0</ele><time>2026-03-29T15:50:36.549Z</time></trkpt><trkpt lat="45.5675945" lon="12.3937547"><ele>4.0</ele><time>2026-03-29T15:50:37.539Z</time></trkpt><trkpt lat="45.5676097" lon="12.3936081"><ele>3.6666666666666665</ele><time>2026-03-29T15:50:38.539Z</time></trkpt><trkpt lat="45.567619" lon="12.3934657"><ele>3.333333333333333</ele><time>2026-03-29T15:50:39.53Z</time></trkpt><trkpt lat="45.5676214" lon="12.3933343"><ele>3.0</ele><time>2026-03-29T15:50:40.549Z</time></trkpt><trkpt lat="45.5676209" lon="12.3932138"><ele>2.6666666666666665</ele><time>2026-03-29T15:50:41.536Z</time></trkpt><trkpt lat="45.5676183" lon="12.3931011"><ele>2.333333333333333</ele><time>2026-03-29T15:50:42.535Z</time></trkpt><trkpt lat="45.5676159" lon="12.3929944"><ele>2.0</ele><time>2026-03-29T15:50:43.542Z</time></trkpt><trkpt lat="45.5676223" lon="12.3928948"><ele>1.8333333333333333</ele><time>2026-03-29T15:50:44.533Z</time></trkpt><trkpt lat="45.5676396" lon="12.3928023"><ele>1.6666666666666665</ele><time>2026-03-29T15:50:45.55Z</time></trkpt><trkpt lat="45.5676776" lon="12.3927195"><ele>1.5</ele><time>2026-03-29T15:50:46.541Z</time></trkpt><trkpt lat="45.5677184" lon="12.3926253"><ele>1.3333333333333333</ele><time>2026-03-29T15:50:47.539Z</time></trkpt><trkpt lat="45.5677649" lon="12.392512"><ele>1.1666666666666665</ele><time>2026-03-29T15:50:48.542Z</time></trkpt><trkpt lat="45.5677815" lon="12.3923728"><ele>1.0</ele><time>2026-03-29T15:50:49.541Z</time></trkpt><trkpt lat="45.56778" lon="12.3922265"><ele>0.8</ele><time>2026-03-29T15:50:50.544Z</time></trkpt><trkpt lat="45.5677831" lon="12.3920842"><ele>0.6000000000000001</ele><time>2026-03-29T15:50:51.53Z</time></trkpt><trkpt lat="45.5678073" lon="12.3919494"><ele>0.4</ele><time>2026-03-29T15:50:52.54Z</time></trkpt><trkpt lat="45.5678508" lon="12.3918195"><ele>0.2</ele><time>2026-03-29T15:50:53.553Z</time></trkpt><trkpt lat="45.5679026" lon="12.391686"><ele>0.0</ele><time>2026-03-29T15:50:54.561Z</time></trkpt><trkpt lat="45.5679746" lon="12.3915561"><ele>0.5</ele><time>2026-03-29T15:50:55.536Z</time></trkpt><trkpt lat="45.5680317" lon="12.3914078"><ele>1.0</ele><time>2026-03-29T15:50:56.539Z</time></trkpt><trkpt lat="45.5680779" lon="12.391254"><ele>1.5</ele><time>2026-03-29T15:50:57.539Z</time></trkpt><trkpt lat="45.568103" lon="12.3910954"><ele>2.0</ele><time>2026-03-29T15:50:58.537Z</time></trkpt><trkpt lat="45.5681291" lon="12.3909378"><ele>2.25</ele><time>2026-03-29T15:50:59.533Z</time></trkpt><trkpt lat="45.568157" lon="12.3907758"><ele>2.5</ele><time>2026-03-29T15:51:00.54Z</time></trkpt><trkpt lat="45.5681866" lon="12.390606"><ele>2.75</ele><time>2026-03-29T15:51:01.534Z</time></trkpt><trkpt lat="45.5682153" lon="12.3904292"><ele>3.0</ele><time>2026-03-29T15:51:02.54Z</time></trkpt><trkpt lat="45.5682488" lon="12.3902545"><ele>2.5</ele><time>2026-03-29T15:51:03.574Z</time></trkpt><trkpt lat="45.56827" lon="12.3900764"><ele>2.0</ele><time>2026-03-29T15:51:04.54Z</time></trkpt><trkpt lat="45.5682989" lon="12.3899017"><ele>1.5</ele><time>2026-03-29T15:51:05.554Z</time></trkpt><trkpt lat="45.568326" lon="12.3897301"><ele>1.0</ele><time>2026-03-29T15:51:06.567Z</time></trkpt><trkpt lat="45.5683534" lon="12.3895632"><ele>0.75</ele><time>2026-03-29T15:51:07.546Z</time></trkpt><trkpt lat="45.5683752" lon="12.3893975"><ele>0.5</ele><time>2026-03-29T15:51:08.534Z</time></trkpt><trkpt lat="45.5683968" lon="12.3892313"><ele>0.25</ele><time>2026-03-29T15:51:09.55Z</time></trkpt><trkpt lat="45.5684182" lon="12.3890651"><ele>0.0</ele><time>2026-03-29T15:51:10.535Z</time></trkpt><trkpt lat="45.5684575" lon="12.388908"><ele>0.5</ele><time>2026-03-29T15:51:11.552Z</time></trkpt><trkpt lat="45.5684859" lon="12.388748"><ele>1.0</ele><time>2026-03-29T15:51:12.544Z</time></trkpt><trkpt lat="45.5685185" lon="12.3885864"><ele>1.5</ele><time>2026-03-29T15:51:13.561Z</time></trkpt><trkpt lat="45.568545" lon="12.3884215"><ele>2.0</ele><time>2026-03-29T15:51:14.546Z</time></trkpt><trkpt lat="45.5685705" lon="12.3882583"><ele>2.0</ele><time>2026-03-29T15:51:15.543Z</time></trkpt><trkpt lat="45.5685954" lon="12.388101"><ele>2.0</ele><time>2026-03-29T15:51:16.544Z</time></trkpt><trkpt lat="45.5686165" lon="12.3879451"><ele>2.0</ele><time>2026-03-29T15:51:17.544Z</time></trkpt><trkpt lat="45.5686417" lon="12.3877845"><ele>2.0</ele><time>2026-03-29T15:51:18.554Z</time></trkpt><trkpt lat="45.5686752" lon="12.3876192"><ele>1.5</ele><time>2026-03-29T15:51:19.547Z</time></trkpt><trkpt lat="45.5687191" lon="12.3874504"><ele>1.0</ele><time>2026-03-29T15:51:20.529Z</time></trkpt><trkpt lat="45.5687766" lon="12.3872803"><ele>0.5</ele><time>2026-03-29T15:51:21.541Z</time></trkpt><trkpt lat="45.5688463" lon="12.387117"><ele>0.0</ele><time>2026-03-29T15:51:22.54Z</time></trkpt><trkpt lat="45.5689277" lon="12.386967"><ele>0.0</ele><time>2026-03-29T15:51:23.529Z</time></trkpt><trkpt lat="45.5690167" lon="12.3868308"><ele>0.0</ele><time>2026-03-29T15:51:24.534Z</time></trkpt><trkpt lat="45.5691086" lon="12.3867026"><ele>0.0</ele><time>2026-03-29T15:51:25.548Z</time></trkpt><trkpt lat="45.5691917" lon="12.3865616"><ele>0.0</ele><time>2026-03-29T15:51:26.533Z</time></trkpt><trkpt lat="45.5692882" lon="12.3864307"><ele>0.25</ele><time>2026-03-29T15:51:27.54Z</time></trkpt><trkpt lat="45.5693935" lon="12.3863031"><ele>0.5</ele><time>2026-03-29T15:51:28.544Z</time></trkpt><trkpt lat="45.5695023" lon="12.3861839"><ele>0.75</ele><time>2026-03-29T15:51:29.533Z</time></trkpt><trkpt lat="45.5696134" lon="12.3860718"><ele>1.0</ele><time>2026-03-29T15:51:30.534Z</time></trkpt><trkpt lat="45.5697221" lon="12.3859545"><ele>0.75</ele><time>2026-03-29T15:51:31.534Z</time></trkpt><trkpt lat="45.5698317" lon="12.3858401"><ele>0.5</ele><time>2026-03-29T15:51:32.525Z</time></trkpt><trkpt lat="45.5699435" lon="12.3857282"><ele>0.25</ele><time>2026-03-29T15:51:33.529Z</time></trkpt><trkpt lat="45.570055" lon="12.3856154"><ele>0.0</ele><time>2026-03-29T15:51:34.533Z</time></trkpt><trkpt lat="45.5701673" lon="12.3855006"><ele>0.0</ele><time>2026-03-29T15:51:35.534Z</time></trkpt><trkpt lat="45.5702815" lon="12.3853834"><ele>0.0</ele><time>2026-03-29T15:51:36.532Z</time></trkpt><trkpt lat="45.5703988" lon="12.3852682"><ele>0.0</ele><time>2026-03-29T15:51:37.532Z</time></trkpt><trkpt lat="45.5705177" lon="12.3851521"><ele>0.0</ele><time>2026-03-29T15:51:38.538Z</time></trkpt><trkpt lat="45.5706398" lon="12.3850371"><ele>0.0</ele><time>2026-03-29T15:51:39.545Z</time></trkpt><trkpt lat="45.5707655" lon="12.3849259"><ele>0.0</ele><time>2026-03-29T15:51:40.549Z</time></trkpt><trkpt lat="45.5708933" lon="12.3848139"><ele>0.0</ele><time>2026-03-29T15:51:41.54Z</time></trkpt><trkpt lat="45.5710265" lon="12.3847056"><ele>-0.3333333333333333</ele><time>2026-03-29T15:51:42.55Z</time></trkpt><trkpt lat="45.5711658" lon="12.3846011"><ele>-0.6666666666666666</ele><time>2026-03-29T15:51:43.538Z</time></trkpt><trkpt lat="45.5713121" lon="12.3845044"><ele>-1.0</ele><time>2026-03-29T15:51:44.54Z</time></trkpt><trkpt lat="45.5714653" lon="12.3844103"><ele>0.33333333333333337</ele><time>2026-03-29T15:51:45.542Z</time></trkpt><trkpt lat="45.5716173" lon="12.3843066"><ele>1.6666666666666667</ele><time>2026-03-29T15:51:46.539Z</time></trkpt><trkpt lat="45.571771" lon="12.3842134"><ele>3.0</ele><time>2026-03-29T15:51:47.528Z</time></trkpt><trkpt lat="45.5719225" lon="12.3841229"><ele>2.6666666666666665</ele><time>2026-03-29T15:51:48.537Z</time></trkpt><trkpt lat="45.5720706" lon="12.3840285"><ele>2.333333333333333</ele><time>2026-03-29T15:51:49.544Z</time></trkpt><trkpt lat="45.5722221" lon="12.3839436"><ele>2.0</ele><time>2026-03-29T15:51:50.533Z</time></trkpt><trkpt lat="45.5723701" lon="12.3838456"><ele>2.0</ele><time>2026-03-29T15:51:51.529Z</time></trkpt><trkpt lat="45.5725231" lon="12.3837496"><ele>2.0</ele><time>2026-03-29T15:51:52.541Z</time></trkpt><trkpt lat="45.5726647" lon="12.3836441"><ele>2.0</ele><time>2026-03-29T15:51:53.535Z</time></trkpt><trkpt lat="45.5728001" lon="12.3835337"><ele>1.6666666666666665</ele><time>2026-03-29T15:51:54.553Z</time></trkpt><trkpt lat="45.5729423" lon="12.3834354"><ele>1.3333333333333333</ele><time>2026-03-29T15:51:55.55Z</time></trkpt><trkpt lat="45.5730841" lon="12.3833368"><ele>1.0</ele><time>2026-03-29T15:51:56.536Z</time></trkpt><trkpt lat="45.5732241" lon="12.3832304"><ele>1.0</ele><time>2026-03-29T15:51:57.542Z</time></trkpt><trkpt lat="45.5733576" lon="12.3831162"><ele>1.0</ele><time>2026-03-29T15:51:58.53Z</time></trkpt><trkpt lat="45.5734856" lon="12.3830021"><ele>1.0</ele><time>2026-03-29T15:51:59.522Z</time></trkpt><trkpt lat="45.5736165" lon="12.3829062"><ele>0.75</ele><time>2026-03-29T15:52:00.522Z</time></trkpt><trkpt lat="45.5737421" lon="12.3828091"><ele>0.5</ele><time>2026-03-29T15:52:01.542Z</time></trkpt><trkpt lat="45.5738646" lon="12.3827116"><ele>0.25</ele><time>2026-03-29T15:52:02.535Z</time></trkpt><trkpt lat="45.5739837" lon="12.382611"><ele>0.0</ele><time>2026-03-29T15:52:03.52Z</time></trkpt><trkpt lat="45.5741095" lon="12.3825272"><ele>0.0</ele><time>2026-03-29T15:52:04.527Z</time></trkpt><trkpt lat="45.5742278" lon="12.3824322"><ele>0.0</ele><time>2026-03-29T15:52:05.529Z</time></trkpt><trkpt lat="45.574342" lon="12.3823314"><ele>0.0</ele><time>2026-03-29T15:52:06.523Z</time></trkpt><trkpt lat="45.5744585" lon="12.3822392"><ele>0.0</ele><time>2026-03-29T15:52:07.531Z</time></trkpt><trkpt lat="45.5745792" lon="12.3821568"><ele>0.25</ele><time>2026-03-29T15:52:08.529Z</time></trkpt><trkpt lat="45.5747028" lon="12.382081"><ele>0.5</ele><time>2026-03-29T15:52:09.532Z</time></trkpt><trkpt lat="45.5748309" lon="12.3820166"><ele>0.75</ele><time>2026-03-29T15:52:10.539Z</time></trkpt><trkpt lat="45.5749573" lon="12.3819519"><ele>1.0</ele><time>2026-03-29T15:52:11.534Z</time></trkpt><trkpt lat="45.5750882" lon="12.3819004"><ele>1.0</ele><time>2026-03-29T15:52:12.531Z</time></trkpt><trkpt lat="45.5752173" lon="12.3818486"><ele>1.0</ele><time>2026-03-29T15:52:13.527Z</time></trkpt><trkpt lat="45.5753437" lon="12.3817952"><ele>1.0</ele><time>2026-03-29T15:52:14.532Z</time></trkpt><trkpt lat="45.5754698" lon="12.3817388"><ele>1.0</ele><time>2026-03-29T15:52:15.533Z</time></trkpt><trkpt lat="45.5755978" lon="12.3816837"><ele>1.25</ele><time>2026-03-29T15:52:16.533Z</time></trkpt><trkpt lat="45.5757276" lon="12.3816272"><ele>1.5</ele><time>2026-03-29T15:52:17.543Z</time></trkpt><trkpt lat="45.5758568" lon="12.381574"><ele>1.75</ele><time>2026-03-29T15:52:18.527Z</time></trkpt><trkpt lat="45.5759843" lon="12.381517"><ele>2.0</ele><time>2026-03-29T15:52:19.531Z</time></trkpt><trkpt lat="45.5761107" lon="12.3814597"><ele>1.75</ele><time>2026-03-29T15:52:20.536Z</time></trkpt><trkpt lat="45.5762358" lon="12.3814069"><ele>1.5</ele><time>2026-03-29T15:52:21.528Z</time></trkpt><trkpt lat="45.5763574" lon="12.3813497"><ele>1.25</ele><time>2026-03-29T15:52:22.54Z</time></trkpt><trkpt lat="45.5764755" lon="12.3812825"><ele>1.0</ele><time>2026-03-29T15:52:23.533Z</time></trkpt><trkpt lat="45.5765916" lon="12.3811995"><ele>1.0</ele><time>2026-03-29T15:52:24.53Z</time></trkpt><trkpt lat="45.5767072" lon="12.3811007"><ele>1.0</ele><time>2026-03-29T15:52:25.521Z</time></trkpt><trkpt lat="45.5768207" lon="12.3809908"><ele>1.0</ele><time>2026-03-29T15:52:26.54Z</time></trkpt><trkpt lat="45.5769294" lon="12.3808703"><ele>1.0</ele><time>2026-03-29T15:52:27.542Z</time></trkpt><trkpt lat="45.5770331" lon="12.3807425"><ele>1.0</ele><time>2026-03-29T15:52:28.537Z</time></trkpt><trkpt lat="45.5771297" lon="12.3806078"><ele>1.0</ele><time>2026-03-29T15:52:29.557Z</time></trkpt><trkpt lat="45.5772206" lon="12.3804714"><ele>1.0</ele><time>2026-03-29T15:52:30.548Z</time></trkpt><trkpt lat="45.5773058" lon="12.3803304"><ele>1.0</ele><time>2026-03-29T15:52:31.571Z</time></trkpt><trkpt lat="45.5773852" lon="12.3801839"><ele>1.25</ele><time>2026-03-29T15:52:32.562Z</time></trkpt><trkpt lat="45.5774586" lon="12.3800284"><ele>1.5</ele><time>2026-03-29T15:52:33.562Z</time></trkpt><trkpt lat="45.5775261" lon="12.3798645"><ele>1.75</ele><time>2026-03-29T15:52:34.545Z</time></trkpt><trkpt lat="45.5775926" lon="12.3796967"><ele>2.0</ele><time>2026-03-29T15:52:35.537Z</time></trkpt><trkpt lat="45.5776519" lon="12.3795211"><ele>2.0</ele><time>2026-03-29T15:52:36.559Z</time></trkpt><trkpt lat="45.5777007" lon="12.3793446"><ele>2.0</ele><time>2026-03-29T15:52:37.542Z</time></trkpt><trkpt lat="45.5777416" lon="12.3791717"><ele>2.0</ele><time>2026-03-29T15:52:38.554Z</time></trkpt><trkpt lat="45.577777" lon="12.3790083"><ele>2.0</ele><time>2026-03-29T15:52:39.55Z</time></trkpt><trkpt lat="45.5778011" lon="12.3788504"><ele>2.2</ele><time>2026-03-29T15:52:40.558Z</time></trkpt><trkpt lat="45.5778327" lon="12.3787021"><ele>2.4000000000000004</ele><time>2026-03-29T15:52:41.537Z</time></trkpt><trkpt lat="45.5778707" lon="12.378559"><ele>2.5999999999999996</ele><time>2026-03-29T15:52:42.54Z</time></trkpt><trkpt lat="45.5779119" lon="12.378418"><ele>2.8</ele><time>2026-03-29T15:52:43.545Z</time></trkpt><trkpt lat="45.5779582" lon="12.3782743"><ele>3.0</ele><time>2026-03-29T15:52:44.546Z</time></trkpt><trkpt lat="45.5780032" lon="12.3781265"><ele>2.6</ele><time>2026-03-29T15:52:45.539Z</time></trkpt><trkpt lat="45.5780616" lon="12.377989"><ele>2.1999999999999997</ele><time>2026-03-29T15:52:46.555Z</time></trkpt><trkpt lat="45.5781098" lon="12.377852"><ele>1.8</ele><time>2026-03-29T15:52:47.562Z</time></trkpt><trkpt lat="45.5781508" lon="12.3777163"><ele>1.4</ele><time>2026-03-29T15:52:48.542Z</time></trkpt><trkpt lat="45.5781929" lon="12.3775834"><ele>1.0</ele><time>2026-03-29T15:52:49.54Z</time></trkpt><trkpt lat="45.5782288" lon="12.37745"><ele>1.0</ele><time>2026-03-29T15:52:50.539Z</time></trkpt><trkpt lat="45.5782763" lon="12.3773096"><ele>1.0</ele><time>2026-03-29T15:52:51.542Z</time></trkpt><trkpt lat="45.5783273" lon="12.3771646"><ele>1.0</ele><time>2026-03-29T15:52:52.542Z</time></trkpt><trkpt lat="45.5783746" lon="12.3770301"><ele>1.0</ele><time>2026-03-29T15:52:53.542Z</time></trkpt><trkpt lat="45.5784234" lon="12.3768956"><ele>1.0</ele><time>2026-03-29T15:52:54.549Z</time></trkpt><trkpt lat="45.5784717" lon="12.3767691"><ele>1.2000000000000002</ele><time>2026-03-29T15:52:55.547Z</time></trkpt><trkpt lat="45.5785178" lon="12.3766463"><ele>1.4000000000000001</ele><time>2026-03-29T15:52:56.533Z</time></trkpt><trkpt lat="45.578561" lon="12.3765239"><ele>1.6</ele><time>2026-03-29T15:52:57.547Z</time></trkpt><trkpt lat="45.5786038" lon="12.3764079"><ele>1.8</ele><time>2026-03-29T15:52:58.538Z</time></trkpt><trkpt lat="45.5786486" lon="12.3762854"><ele>2.0</ele><time>2026-03-29T15:52:59.531Z</time></trkpt><trkpt lat="45.578691" lon="12.3761648"><ele>2.1666666666666665</ele><time>2026-03-29T15:53:00.539Z</time></trkpt><trkpt lat="45.5787336" lon="12.376043"><ele>2.333333333333333</ele><time>2026-03-29T15:53:01.541Z</time></trkpt><trkpt lat="45.5787768" lon="12.3759255"><ele>2.5</ele><time>2026-03-29T15:53:02.545Z</time></trkpt><trkpt lat="45.5788174" lon="12.3758135"><ele>2.6666666666666665</ele><time>2026-03-29T15:53:03.541Z</time></trkpt><trkpt lat="45.5788547" lon="12.3757028"><ele>2.8333333333333335</ele><time>2026-03-29T15:53:04.536Z</time></trkpt><trkpt lat="45.5788888" lon="12.3755939"><ele>3.0</ele><time>2026-03-29T15:53:05.551Z</time></trkpt><trkpt lat="45.578923" lon="12.3754865"><ele>3.0</ele><time>2026-03-29T15:53:06.541Z</time></trkpt><trkpt lat="45.5789568" lon="12.3753755"><ele>3.0</ele><time>2026-03-29T15:53:07.54Z</time></trkpt><trkpt lat="45.578996" lon="12.3752543"><ele>3.0</ele><time>2026-03-29T15:53:08.54Z</time></trkpt><trkpt lat="45.579039" lon="12.3751293"><ele>3.0</ele><time>2026-03-29T15:53:09.553Z</time></trkpt><trkpt lat="45.5790797" lon="12.37502"><ele>3.0</ele><time>2026-03-29T15:53:10.546Z</time></trkpt><trkpt lat="45.5791212" lon="12.3749113"><ele>3.0</ele><time>2026-03-29T15:53:11.544Z</time></trkpt><trkpt lat="45.5791591" lon="12.3748111"><ele>3.0</ele><time>2026-03-29T15:53:12.533Z</time></trkpt><trkpt lat="45.5791966" lon="12.3747212"><ele>3.0</ele><time>2026-03-29T15:53:13.531Z</time></trkpt><trkpt lat="45.5792332" lon="12.3746374"><ele>3.0</ele><time>2026-03-29T15:53:14.548Z</time></trkpt><trkpt lat="45.579295" lon="12.3745058"><ele>3.0</ele><time>2026-03-29T15:53:16.544Z</time></trkpt><trkpt lat="45.5793389" lon="12.3744154"><ele>3.0</ele><time>2026-03-29T15:53:18.534Z</time></trkpt><trkpt lat="45.5794125" lon="12.3742981"><ele>3.0</ele><time>2026-03-29T15:53:58.531Z</time></trkpt><trkpt lat="45.5794518" lon="12.3742022"><ele>3.0</ele><time>2026-03-29T15:53:59.533Z</time></trkpt><trkpt lat="45.5794908" lon="12.3740718"><ele>3.0</ele><time>2026-03-29T15:54:00.534Z</time></trkpt><trkpt lat="45.579545" lon="12.3739057"><ele>3.0</ele><time>2026-03-29T15:54:01.529Z</time></trkpt><trkpt lat="45.5796182" lon="12.373704"><ele>3.0</ele><time>2026-03-29T15:54:02.541Z</time></trkpt><trkpt lat="45.5796835" lon="12.3735033"><ele>3.0</ele><time>2026-03-29T15:54:03.543Z</time></trkpt><trkpt lat="45.5797439" lon="12.3733188"><ele>3.0</ele><time>2026-03-29T15:54:04.564Z</time></trkpt><trkpt lat="45.5797984" lon="12.3731188"><ele>3.0</ele><time>2026-03-29T15:54:05.541Z</time></trkpt><trkpt lat="45.5798516" lon="12.3729086"><ele>3.0</ele><time>2026-03-29T15:54:06.543Z</time></trkpt><trkpt lat="45.5799125" lon="12.3727159"><ele>3.25</ele><time>2026-03-29T15:54:07.544Z</time></trkpt><trkpt lat="45.5799703" lon="12.3725285"><ele>3.5</ele><time>2026-03-29T15:54:08.532Z</time></trkpt><trkpt lat="45.5800298" lon="12.3723468"><ele>3.75</ele><time>2026-03-29T15:54:09.547Z</time></trkpt><trkpt lat="45.5800863" lon="12.3721756"><ele>4.0</ele><time>2026-03-29T15:54:10.552Z</time></trkpt><trkpt lat="45.5801371" lon="12.3720176"><ele>4.0</ele><time>2026-03-29T15:54:11.558Z</time></trkpt><trkpt lat="45.5801849" lon="12.3718728"><ele>4.0</ele><time>2026-03-29T15:54:12.533Z</time></trkpt><trkpt lat="45.5802306" lon="12.3717326"><ele>4.0</ele><time>2026-03-29T15:54:13.556Z</time></trkpt><trkpt lat="45.5802784" lon="12.3715949"><ele>4.0</ele><time>2026-03-29T15:54:14.532Z</time></trkpt><trkpt lat="45.5803238" lon="12.3714672"><ele>4.0</ele><time>2026-03-29T15:54:15.53Z</time></trkpt><trkpt lat="45.5803688" lon="12.3713452"><ele>4.0</ele><time>2026-03-29T15:54:16.531Z</time></trkpt><trkpt lat="45.5804092" lon="12.3712324"><ele>3.9999999999999996</ele><time>2026-03-29T15:54:17.54Z</time></trkpt><trkpt lat="45.580444" lon="12.3711463"><ele>4.0</ele><time>2026-03-29T15:54:18.556Z</time></trkpt><trkpt lat="45.5804834" lon="12.3710397"><ele>4.0</ele><time>2026-03-29T15:54:20.555Z</time></trkpt><trkpt lat="45.5805217" lon="12.3709682"><ele>3.9999999999999996</ele><time>2026-03-29T15:54:22.544Z</time></trkpt><trkpt lat="45.5805602" lon="12.3708901"><ele>4.0</ele><time>2026-03-29T15:54:28.554Z</time></trkpt><trkpt lat="45.5805872" lon="12.3707909"><ele>4.0</ele><time>2026-03-29T15:54:32.554Z</time></trkpt><trkpt lat="45.5806214" lon="12.3707116"><ele>3.9999999999999996</ele><time>2026-03-29T15:54:34.514Z</time></trkpt><trkpt lat="45.5806696" lon="12.3706298"><ele>4.0</ele><time>2026-03-29T15:54:36.533Z</time></trkpt><trkpt lat="45.5806816" lon="12.3705409"><ele>4.0</ele><time>2026-03-29T15:54:37.53Z</time></trkpt><trkpt lat="45.5806996" lon="12.3704136"><ele>4.0</ele><time>2026-03-29T15:54:38.54Z</time></trkpt><trkpt lat="45.5807124" lon="12.3702704"><ele>3.9999999999999996</ele><time>2026-03-29T15:54:39.529Z</time></trkpt><trkpt lat="45.5807325" lon="12.3701313"><ele>4.0</ele><time>2026-03-29T15:54:40.533Z</time></trkpt><trkpt lat="45.5807649" lon="12.3699884"><ele>4.0</ele><time>2026-03-29T15:54:41.531Z</time></trkpt><trkpt lat="45.5807908" lon="12.3698544"><ele>4.0</ele><time>2026-03-29T15:54:42.535Z</time></trkpt><trkpt lat="45.5808157" lon="12.3697393"><ele>4.0</ele><time>2026-03-29T15:54:43.535Z</time></trkpt><trkpt lat="45.5808337" lon="12.369647"><ele>4.0</ele><time>2026-03-29T15:54:44.546Z</time></trkpt><trkpt lat="45.580874" lon="12.3694631"><ele>4.0</ele><time>2026-03-29T15:54:46.531Z</time></trkpt><trkpt lat="45.5809063" lon="12.3693253"><ele>3.5</ele><time>2026-03-29T15:54:47.528Z</time></trkpt><trkpt lat="45.5809435" lon="12.3691705"><ele>3.0</ele><time>2026-03-29T15:54:48.54Z</time></trkpt><trkpt lat="45.5809803" lon="12.3689943"><ele>2.5</ele><time>2026-03-29T15:54:49.546Z</time></trkpt><trkpt lat="45.5810214" lon="12.3688071"><ele>2.0</ele><time>2026-03-29T15:54:50.564Z</time></trkpt><trkpt lat="45.5810665" lon="12.368615"><ele>2.0</ele><time>2026-03-29T15:54:51.546Z</time></trkpt><trkpt lat="45.5811109" lon="12.3684184"><ele>2.0</ele><time>2026-03-29T15:54:52.533Z</time></trkpt><trkpt lat="45.5811533" lon="12.3682179"><ele>2.0</ele><time>2026-03-29T15:54:53.544Z</time></trkpt><trkpt lat="45.5811991" lon="12.3680144"><ele>2.0</ele><time>2026-03-29T15:54:54.539Z</time></trkpt><trkpt lat="45.5812431" lon="12.3678077"><ele>2.333333333333333</ele><time>2026-03-29T15:54:55.536Z</time></trkpt><trkpt lat="45.5812868" lon="12.3675997"><ele>2.6666666666666665</ele><time>2026-03-29T15:54:56.535Z</time></trkpt><trkpt lat="45.5813315" lon="12.3673865"><ele>3.0</ele><time>2026-03-29T15:54:57.529Z</time></trkpt><trkpt lat="45.5813772" lon="12.367172"><ele>3.0</ele><time>2026-03-29T15:54:58.53Z</time></trkpt><trkpt lat="45.5814218" lon="12.3669608"><ele>3.0</ele><time>2026-03-29T15:54:59.528Z</time></trkpt><trkpt lat="45.5814677" lon="12.3667536"><ele>3.0</ele><time>2026-03-29T15:55:00.535Z</time></trkpt><trkpt lat="45.5815106" lon="12.3665487"><ele>3.0</ele><time>2026-03-29T15:55:01.528Z</time></trkpt><trkpt lat="45.5815558" lon="12.3663458"><ele>3.0</ele><time>2026-03-29T15:55:02.529Z</time></trkpt><trkpt lat="45.5815995" lon="12.3661417"><ele>3.0</ele><time>2026-03-29T15:55:03.56Z</time></trkpt><trkpt lat="45.5816459" lon="12.3659363"><ele>3.0</ele><time>2026-03-29T15:55:04.548Z</time></trkpt><trkpt lat="45.5816898" lon="12.3657284"><ele>2.3333333333333335</ele><time>2026-03-29T15:55:05.531Z</time></trkpt><trkpt lat="45.5817379" lon="12.36552"><ele>1.6666666666666665</ele><time>2026-03-29T15:55:06.533Z</time></trkpt><trkpt lat="45.5817888" lon="12.3653091"><ele>1.0</ele><time>2026-03-29T15:55:07.541Z</time></trkpt><trkpt lat="45.5818397" lon="12.3650958"><ele>1.0</ele><time>2026-03-29T15:55:08.529Z</time></trkpt><trkpt lat="45.5818887" lon="12.3648801"><ele>1.0</ele><time>2026-03-29T15:55:09.549Z</time></trkpt><trkpt lat="45.5819365" lon="12.364664"><ele>1.0</ele><time>2026-03-29T15:55:10.532Z</time></trkpt><trkpt lat="45.5819865" lon="12.3644466"><ele>1.0</ele><time>2026-03-29T15:55:11.532Z</time></trkpt><trkpt lat="45.582039" lon="12.3642272"><ele>1.0</ele><time>2026-03-29T15:55:12.532Z</time></trkpt><trkpt lat="45.5820894" lon="12.3640061"><ele>1.0</ele><time>2026-03-29T15:55:13.559Z</time></trkpt><trkpt lat="45.5821401" lon="12.3637837"><ele>0.6666666666666666</ele><time>2026-03-29T15:55:14.563Z</time></trkpt><trkpt lat="45.5821897" lon="12.3635582"><ele>0.3333333333333333</ele><time>2026-03-29T15:55:15.542Z</time></trkpt><trkpt lat="45.5822364" lon="12.3633291"><ele>0.0</ele><time>2026-03-29T15:55:16.537Z</time></trkpt><trkpt lat="45.5822787" lon="12.3630974"><ele>0.0</ele><time>2026-03-29T15:55:17.553Z</time></trkpt><trkpt lat="45.5823184" lon="12.3628647"><ele>0.0</ele><time>2026-03-29T15:55:18.53Z</time></trkpt><trkpt lat="45.5823588" lon="12.3626311"><ele>0.0</ele><time>2026-03-29T15:55:19.543Z</time></trkpt><trkpt lat="45.5823986" lon="12.3624004"><ele>0.3333333333333333</ele><time>2026-03-29T15:55:20.534Z</time></trkpt><trkpt lat="45.5824373" lon="12.3621785"><ele>0.6666666666666666</ele><time>2026-03-29T15:55:21.536Z</time></trkpt><trkpt lat="45.5824759" lon="12.3619619"><ele>1.0</ele><time>2026-03-29T15:55:22.537Z</time></trkpt><trkpt lat="45.5825138" lon="12.3617441"><ele>1.0</ele><time>2026-03-29T15:55:23.547Z</time></trkpt><trkpt lat="45.5825505" lon="12.3615284"><ele>1.0</ele><time>2026-03-29T15:55:24.531Z</time></trkpt><trkpt lat="45.5825862" lon="12.3613164"><ele>1.0</ele><time>2026-03-29T15:55:25.545Z</time></trkpt><trkpt lat="45.5826212" lon="12.3611063"><ele>1.3333333333333333</ele><time>2026-03-29T15:55:26.54Z</time></trkpt><trkpt lat="45.5826621" lon="12.360898"><ele>1.6666666666666665</ele><time>2026-03-29T15:55:27.551Z</time></trkpt><trkpt lat="45.5826996" lon="12.3606888"><ele>2.0</ele><time>2026-03-29T15:55:28.536Z</time></trkpt><trkpt lat="45.5827398" lon="12.3604796"><ele>2.6666666666666665</ele><time>2026-03-29T15:55:29.543Z</time></trkpt><trkpt lat="45.5827753" lon="12.36027"><ele>3.333333333333333</ele><time>2026-03-29T15:55:30.56Z</time></trkpt><trkpt lat="45.5828085" lon="12.3600593"><ele>4.0</ele><time>2026-03-29T15:55:31.542Z</time></trkpt><trkpt lat="45.5829059" lon="12.3598628"><ele>4.0</ele><time>2026-03-29T15:55:32.534Z</time></trkpt><trkpt lat="45.5829908" lon="12.3594432"><ele>4.0</ele><time>2026-03-29T15:55:34.534Z</time></trkpt><trkpt lat="45.583033" lon="12.3592186"><ele>4.0</ele><time>2026-03-29T15:55:35.54Z</time></trkpt><trkpt lat="45.583076" lon="12.3590043"><ele>4.0</ele><time>2026-03-29T15:55:36.559Z</time></trkpt><trkpt lat="45.5831193" lon="12.3587397"><ele>4.0</ele><time>2026-03-29T15:55:37.539Z</time></trkpt><trkpt lat="45.5831121" lon="12.358546"><ele>4.25</ele><time>2026-03-29T15:55:38.546Z</time></trkpt><trkpt lat="45.5831446" lon="12.3583505"><ele>4.5</ele><time>2026-03-29T15:55:39.54Z</time></trkpt><trkpt lat="45.583172" lon="12.3581539"><ele>4.75</ele><time>2026-03-29T15:55:40.529Z</time></trkpt><trkpt lat="45.5832115" lon="12.3579633"><ele>5.0</ele><time>2026-03-29T15:55:41.528Z</time></trkpt><trkpt lat="45.5832467" lon="12.3577702"><ele>5.0</ele><time>2026-03-29T15:55:42.532Z</time></trkpt><trkpt lat="45.5832782" lon="12.3575773"><ele>5.0</ele><time>2026-03-29T15:55:43.542Z</time></trkpt><trkpt lat="45.5833084" lon="12.3573846"><ele>5.0</ele><time>2026-03-29T15:55:44.538Z</time></trkpt><trkpt lat="45.583345" lon="12.357197"><ele>5.0</ele><time>2026-03-29T15:55:45.543Z</time></trkpt><trkpt lat="45.5833786" lon="12.3570151"><ele>4.75</ele><time>2026-03-29T15:55:46.541Z</time></trkpt><trkpt lat="45.5834115" lon="12.3568366"><ele>4.5</ele><time>2026-03-29T15:55:47.53Z</time></trkpt><trkpt lat="45.5834517" lon="12.3566582"><ele>4.25</ele><time>2026-03-29T15:55:48.534Z</time></trkpt><trkpt lat="45.5834839" lon="12.3564812"><ele>4.0</ele><time>2026-03-29T15:55:49.548Z</time></trkpt><trkpt lat="45.583515" lon="12.3563094"><ele>3.75</ele><time>2026-03-29T15:55:50.539Z</time></trkpt><trkpt lat="45.5835362" lon="12.3561436"><ele>3.5</ele><time>2026-03-29T15:55:51.539Z</time></trkpt><trkpt lat="45.5835695" lon="12.3559776"><ele>3.25</ele><time>2026-03-29T15:55:52.543Z</time></trkpt><trkpt lat="45.5835997" lon="12.3558114"><ele>3.0</ele><time>2026-03-29T15:55:53.545Z</time></trkpt><trkpt lat="45.5836286" lon="12.3556462"><ele>2.75</ele><time>2026-03-29T15:55:54.558Z</time></trkpt><trkpt lat="45.5836553" lon="12.3554796"><ele>2.5</ele><time>2026-03-29T15:55:55.555Z</time></trkpt><trkpt lat="45.5836829" lon="12.3553145"><ele>2.25</ele><time>2026-03-29T15:55:56.551Z</time></trkpt><trkpt lat="45.5837105" lon="12.3551521"><ele>2.0</ele><time>2026-03-29T15:55:57.542Z</time></trkpt><trkpt lat="45.5837387" lon="12.3549919"><ele>1.8</ele><time>2026-03-29T15:55:58.53Z</time></trkpt><trkpt lat="45.5837659" lon="12.3548344"><ele>1.6</ele><time>2026-03-29T15:55:59.529Z</time></trkpt><trkpt lat="45.5837932" lon="12.3546801"><ele>1.4000000000000001</ele><time>2026-03-29T15:56:00.53Z</time></trkpt><trkpt lat="45.5838198" lon="12.3545276"><ele>1.2000000000000002</ele><time>2026-03-29T15:56:01.529Z</time></trkpt><trkpt lat="45.5838418" lon="12.3543761"><ele>1.0</ele><time>2026-03-29T15:56:02.526Z</time></trkpt><trkpt lat="45.5838595" lon="12.3542244"><ele>1.0</ele><time>2026-03-29T15:56:03.542Z</time></trkpt><trkpt lat="45.5838734" lon="12.3540723"><ele>1.0</ele><time>2026-03-29T15:56:04.529Z</time></trkpt><trkpt lat="45.583882" lon="12.353922"><ele>1.0</ele><time>2026-03-29T15:56:05.533Z</time></trkpt><trkpt lat="45.5838929" lon="12.3537759"><ele>1.0</ele><time>2026-03-29T15:56:06.531Z</time></trkpt><trkpt lat="45.5839028" lon="12.3536339"><ele>1.0</ele><time>2026-03-29T15:56:07.553Z</time></trkpt><trkpt lat="45.5839142" lon="12.3535055"><ele>1.0</ele><time>2026-03-29T15:56:08.542Z</time></trkpt><trkpt lat="45.5839331" lon="12.353389"><ele>1.0</ele><time>2026-03-29T15:56:09.541Z</time></trkpt><trkpt lat="45.5839599" lon="12.3532705"><ele>1.0</ele><time>2026-03-29T15:56:10.545Z</time></trkpt><trkpt lat="45.5840092" lon="12.353153"><ele>1.0</ele><time>2026-03-29T15:56:11.546Z</time></trkpt><trkpt lat="45.5840685" lon="12.3530447"><ele>1.0</ele><time>2026-03-29T15:56:12.547Z</time></trkpt><trkpt lat="45.5841217" lon="12.3529406"><ele>1.0</ele><time>2026-03-29T15:56:13.553Z</time></trkpt><trkpt lat="45.5841477" lon="12.3528214"><ele>1.0</ele><time>2026-03-29T15:56:14.533Z</time></trkpt><trkpt lat="45.5841558" lon="12.3526954"><ele>1.0</ele><time>2026-03-29T15:56:15.546Z</time></trkpt><trkpt lat="45.5841682" lon="12.3525684"><ele>1.0</ele><time>2026-03-29T15:56:16.543Z</time></trkpt><trkpt lat="45.5841998" lon="12.3524411"><ele>1.0</ele><time>2026-03-29T15:56:17.534Z</time></trkpt><trkpt lat="45.5842501" lon="12.3523147"><ele>1.0</ele><time>2026-03-29T15:56:18.534Z</time></trkpt><trkpt lat="45.584314" lon="12.3521856"><ele>1.0</ele><time>2026-03-29T15:56:19.547Z</time></trkpt><trkpt lat="45.5843748" lon="12.352026"><ele>1.0</ele><time>2026-03-29T15:56:20.533Z</time></trkpt><trkpt lat="45.5844554" lon="12.3518229"><ele>1.0</ele><time>2026-03-29T15:56:21.552Z</time></trkpt><trkpt lat="45.5845518" lon="12.3515875"><ele>2.0</ele><time>2026-03-29T15:56:22.537Z</time></trkpt><trkpt lat="45.5846344" lon="12.3513437"><ele>3.0</ele><time>2026-03-29T15:56:23.538Z</time></trkpt><trkpt lat="45.5847014" lon="12.3511032"><ele>4.0</ele><time>2026-03-29T15:56:24.533Z</time></trkpt><trkpt lat="45.5847813" lon="12.3508894"><ele>4.0</ele><time>2026-03-29T15:56:25.534Z</time></trkpt><trkpt lat="45.5848472" lon="12.3506889"><ele>4.0</ele><time>2026-03-29T15:56:26.564Z</time></trkpt><trkpt lat="45.5849082" lon="12.3505018"><ele>4.0</ele><time>2026-03-29T15:56:27.552Z</time></trkpt><trkpt lat="45.5849671" lon="12.3503187"><ele>4.0</ele><time>2026-03-29T15:56:28.526Z</time></trkpt><trkpt lat="45.5850281" lon="12.350132"><ele>3.333333333333333</ele><time>2026-03-29T15:56:29.531Z</time></trkpt><trkpt lat="45.5850856" lon="12.3499276"><ele>2.6666666666666665</ele><time>2026-03-29T15:56:30.549Z</time></trkpt><trkpt lat="45.5851359" lon="12.3496985"><ele>2.0</ele><time>2026-03-29T15:56:31.557Z</time></trkpt><trkpt lat="45.585201" lon="12.3494519"><ele>1.6666666666666665</ele><time>2026-03-29T15:56:32.542Z</time></trkpt><trkpt lat="45.5852791" lon="12.3491943"><ele>1.3333333333333333</ele><time>2026-03-29T15:56:33.54Z</time></trkpt><trkpt lat="45.5853647" lon="12.348933"><ele>1.0</ele><time>2026-03-29T15:56:34.55Z</time></trkpt><trkpt lat="45.5854465" lon="12.3486756"><ele>1.6666666666666665</ele><time>2026-03-29T15:56:35.553Z</time></trkpt><trkpt lat="45.5855228" lon="12.3484315"><ele>2.3333333333333335</ele><time>2026-03-29T15:56:36.54Z</time></trkpt><trkpt lat="45.5855943" lon="12.3481971"><ele>3.0</ele><time>2026-03-29T15:56:37.557Z</time></trkpt><trkpt lat="45.5856631" lon="12.3479688"><ele>3.0</ele><time>2026-03-29T15:56:38.559Z</time></trkpt><trkpt lat="45.5857338" lon="12.3477467"><ele>3.0</ele><time>2026-03-29T15:56:39.548Z</time></trkpt><trkpt lat="45.5858032" lon="12.3475311"><ele>3.0</ele><time>2026-03-29T15:56:40.539Z</time></trkpt><trkpt lat="45.58587" lon="12.3473233"><ele>3.0</ele><time>2026-03-29T15:56:41.55Z</time></trkpt><trkpt lat="45.5859366" lon="12.3471159"><ele>3.0</ele><time>2026-03-29T15:56:42.566Z</time></trkpt><trkpt lat="45.5860022" lon="12.3468887"><ele>3.0</ele><time>2026-03-29T15:56:43.541Z</time></trkpt><trkpt lat="45.5860755" lon="12.3466407"><ele>2.6666666666666665</ele><time>2026-03-29T15:56:44.544Z</time></trkpt><trkpt lat="45.5861568" lon="12.3463773"><ele>2.333333333333333</ele><time>2026-03-29T15:56:45.551Z</time></trkpt><trkpt lat="45.5862441" lon="12.3461109"><ele>2.0</ele><time>2026-03-29T15:56:46.53Z</time></trkpt><trkpt lat="45.5863277" lon="12.3458565"><ele>2.6666666666666665</ele><time>2026-03-29T15:56:47.533Z</time></trkpt><trkpt lat="45.5864078" lon="12.3456137"><ele>3.333333333333333</ele><time>2026-03-29T15:56:48.527Z</time></trkpt><trkpt lat="45.5864783" lon="12.3453865"><ele>4.0</ele><time>2026-03-29T15:56:49.542Z</time></trkpt><trkpt lat="45.5865384" lon="12.3451996"><ele>4.0</ele><time>2026-03-29T15:56:50.564Z</time></trkpt><trkpt lat="45.5865836" lon="12.3450459"><ele>4.0</ele><time>2026-03-29T15:56:51.532Z</time></trkpt><trkpt lat="45.5866201" lon="12.3449163"><ele>4.0</ele><time>2026-03-29T15:56:52.539Z</time></trkpt><trkpt lat="45.5866518" lon="12.3448054"><ele>4.0</ele><time>2026-03-29T15:56:53.53Z</time></trkpt><trkpt lat="45.5866816" lon="12.3447015"><ele>4.0</ele><time>2026-03-29T15:56:54.534Z</time></trkpt><trkpt lat="45.586708" lon="12.3446021"><ele>3.833333333333333</ele><time>2026-03-29T15:56:55.56Z</time></trkpt><trkpt lat="45.5867344" lon="12.3445031"><ele>3.6666666666666665</ele><time>2026-03-29T15:56:56.54Z</time></trkpt><trkpt lat="45.586768" lon="12.3444084"><ele>3.5</ele><time>2026-03-29T15:56:57.54Z</time></trkpt><trkpt lat="45.5867923" lon="12.3442458"><ele>3.333333333333333</ele><time>2026-03-29T15:56:59.54Z</time></trkpt><trkpt lat="45.586796" lon="12.3441537"><ele>3.1666666666666665</ele><time>2026-03-29T15:57:00.53Z</time></trkpt><trkpt lat="45.5868067" lon="12.3440394"><ele>3.0</ele><time>2026-03-29T15:57:01.533Z</time></trkpt><trkpt lat="45.5868177" lon="12.3438939"><ele>2.75</ele><time>2026-03-29T15:57:02.529Z</time></trkpt><trkpt lat="45.5868024" lon="12.343724"><ele>2.5</ele><time>2026-03-29T15:57:03.532Z</time></trkpt><trkpt lat="45.5867982" lon="12.3435267"><ele>2.25</ele><time>2026-03-29T15:57:04.522Z</time></trkpt><trkpt lat="45.5867821" lon="12.3432992"><ele>2.0</ele><time>2026-03-29T15:57:05.55Z</time></trkpt><trkpt lat="45.5867899" lon="12.3430455"><ele>1.6666666666666665</ele><time>2026-03-29T15:57:06.537Z</time></trkpt><trkpt lat="45.5868174" lon="12.3427744"><ele>1.3333333333333333</ele><time>2026-03-29T15:57:07.533Z</time></trkpt><trkpt lat="45.5868551" lon="12.3424984"><ele>1.0</ele><time>2026-03-29T15:57:08.542Z</time></trkpt><trkpt lat="45.5868962" lon="12.3422399"><ele>1.0</ele><time>2026-03-29T15:57:09.541Z</time></trkpt><trkpt lat="45.586938" lon="12.341998"><ele>1.0</ele><time>2026-03-29T15:57:10.541Z</time></trkpt><trkpt lat="45.586987" lon="12.3417766"><ele>1.0</ele><time>2026-03-29T15:57:11.56Z</time></trkpt><trkpt lat="45.5870472" lon="12.3415707"><ele>1.3333333333333333</ele><time>2026-03-29T15:57:12.531Z</time></trkpt><trkpt lat="45.5871286" lon="12.3413764"><ele>1.6666666666666665</ele><time>2026-03-29T15:57:13.541Z</time></trkpt><trkpt lat="45.5872274" lon="12.3411958"><ele>2.0</ele><time>2026-03-29T15:57:14.566Z</time></trkpt><trkpt lat="45.5873432" lon="12.341023"><ele>2.0</ele><time>2026-03-29T15:57:15.534Z</time></trkpt><trkpt lat="45.5874947" lon="12.3408781"><ele>2.0</ele><time>2026-03-29T15:57:16.529Z</time></trkpt><trkpt lat="45.5876568" lon="12.3407403"><ele>2.0</ele><time>2026-03-29T15:57:17.532Z</time></trkpt><trkpt lat="45.5878075" lon="12.3405635"><ele>3.0</ele><time>2026-03-29T15:57:18.536Z</time></trkpt><trkpt lat="45.5879521" lon="12.3403743"><ele>4.0</ele><time>2026-03-29T15:57:19.53Z</time></trkpt><trkpt lat="45.588098" lon="12.3401939"><ele>5.0</ele><time>2026-03-29T15:57:20.526Z</time></trkpt><trkpt lat="45.5882399" lon="12.3400153"><ele>5.0</ele><time>2026-03-29T15:57:21.532Z</time></trkpt><trkpt lat="45.588371" lon="12.3398472"><ele>5.0</ele><time>2026-03-29T15:57:22.543Z</time></trkpt><trkpt lat="45.5884994" lon="12.3396892"><ele>5.0</ele><time>2026-03-29T15:57:23.547Z</time></trkpt><trkpt lat="45.5886242" lon="12.3395383"><ele>4.666666666666667</ele><time>2026-03-29T15:57:24.543Z</time></trkpt><trkpt lat="45.5887469" lon="12.3393949"><ele>4.333333333333333</ele><time>2026-03-29T15:57:25.537Z</time></trkpt><trkpt lat="45.5888654" lon="12.3392549"><ele>4.0</ele><time>2026-03-29T15:57:26.548Z</time></trkpt><trkpt lat="45.5889754" lon="12.3391307"><ele>4.0</ele><time>2026-03-29T15:57:27.527Z</time></trkpt><trkpt lat="45.5890702" lon="12.3390312"><ele>4.0</ele><time>2026-03-29T15:57:28.527Z</time></trkpt><trkpt lat="45.5891519" lon="12.3389376"><ele>4.0</ele><time>2026-03-29T15:57:29.531Z</time></trkpt><trkpt lat="45.589226" lon="12.3388497"><ele>4.0</ele><time>2026-03-29T15:57:30.534Z</time></trkpt><trkpt lat="45.5892982" lon="12.338767"><ele>4.0</ele><time>2026-03-29T15:57:31.535Z</time></trkpt><trkpt lat="45.5893739" lon="12.3386823"><ele>3.5</ele><time>2026-03-29T15:57:32.551Z</time></trkpt><trkpt lat="45.5894573" lon="12.3385888"><ele>3.0</ele><time>2026-03-29T15:57:33.556Z</time></trkpt><trkpt lat="45.5895543" lon="12.3384831"><ele>2.5</ele><time>2026-03-29T15:57:34.545Z</time></trkpt><trkpt lat="45.5896599" lon="12.3383569"><ele>2.0</ele><time>2026-03-29T15:57:35.533Z</time></trkpt><trkpt lat="45.5897728" lon="12.3382138"><ele>1.6666666666666665</ele><time>2026-03-29T15:57:36.537Z</time></trkpt><trkpt lat="45.5898937" lon="12.33807"><ele>1.3333333333333333</ele><time>2026-03-29T15:57:37.544Z</time></trkpt><trkpt lat="45.5900156" lon="12.3379202"><ele>1.0</ele><time>2026-03-29T15:57:38.537Z</time></trkpt><trkpt lat="45.5901441" lon="12.3377717"><ele>1.6666666666666665</ele><time>2026-03-29T15:57:39.557Z</time></trkpt><trkpt lat="45.5902777" lon="12.3376243"><ele>2.3333333333333335</ele><time>2026-03-29T15:57:40.554Z</time></trkpt><trkpt lat="45.5904076" lon="12.3374652"><ele>3.0</ele><time>2026-03-29T15:57:41.533Z</time></trkpt><trkpt lat="45.590538" lon="12.3373048"><ele>2.6666666666666665</ele><time>2026-03-29T15:57:42.55Z</time></trkpt><trkpt lat="45.5906653" lon="12.3371422"><ele>2.333333333333333</ele><time>2026-03-29T15:57:43.567Z</time></trkpt><trkpt lat="45.5907935" lon="12.3369904"><ele>2.0</ele><time>2026-03-29T15:57:44.535Z</time></trkpt><trkpt lat="45.5909173" lon="12.3368413"><ele>2.0</ele><time>2026-03-29T15:57:45.544Z</time></trkpt><trkpt lat="45.5910406" lon="12.3366922"><ele>2.0</ele><time>2026-03-29T15:57:46.533Z</time></trkpt><trkpt lat="45.5911654" lon="12.3365423"><ele>2.0</ele><time>2026-03-29T15:57:47.545Z</time></trkpt><trkpt lat="45.5912909" lon="12.3363961"><ele>2.6666666666666665</ele><time>2026-03-29T15:57:48.532Z</time></trkpt><trkpt lat="45.5914135" lon="12.3362537"><ele>3.333333333333333</ele><time>2026-03-29T15:57:49.534Z</time></trkpt><trkpt lat="45.5915277" lon="12.336108"><ele>4.0</ele><time>2026-03-29T15:57:50.527Z</time></trkpt><trkpt lat="45.5916308" lon="12.3359556"><ele>4.0</ele><time>2026-03-29T15:57:51.537Z</time></trkpt><trkpt lat="45.5917201" lon="12.3357956"><ele>4.0</ele><time>2026-03-29T15:57:52.535Z</time></trkpt><trkpt lat="45.5917964" lon="12.3356304"><ele>4.0</ele><time>2026-03-29T15:57:53.54Z</time></trkpt><trkpt lat="45.591859" lon="12.3354598"><ele>4.0</ele><time>2026-03-29T15:57:54.527Z</time></trkpt><trkpt lat="45.5919129" lon="12.3352893"><ele>3.75</ele><time>2026-03-29T15:57:55.524Z</time></trkpt><trkpt lat="45.5919576" lon="12.3351177"><ele>3.5</ele><time>2026-03-29T15:57:56.525Z</time></trkpt><trkpt lat="45.5919921" lon="12.3349368"><ele>3.25</ele><time>2026-03-29T15:57:57.536Z</time></trkpt><trkpt lat="45.5920185" lon="12.3347455"><ele>3.0</ele><time>2026-03-29T15:57:58.544Z</time></trkpt><trkpt lat="45.5920425" lon="12.3345534"><ele>3.0</ele><time>2026-03-29T15:57:59.552Z</time></trkpt><trkpt lat="45.5920633" lon="12.3343643"><ele>3.0</ele><time>2026-03-29T15:58:00.523Z</time></trkpt><trkpt lat="45.5920821" lon="12.3341807"><ele>3.0</ele><time>2026-03-29T15:58:01.532Z</time></trkpt><trkpt lat="45.5921023" lon="12.3339988"><ele>3.0</ele><time>2026-03-29T15:58:02.544Z</time></trkpt><trkpt lat="45.5921199" lon="12.3338159"><ele>3.25</ele><time>2026-03-29T15:58:03.526Z</time></trkpt><trkpt lat="45.5921247" lon="12.3336328"><ele>3.5</ele><time>2026-03-29T15:58:04.526Z</time></trkpt><trkpt lat="45.5921429" lon="12.3334575"><ele>3.75</ele><time>2026-03-29T15:58:05.534Z</time></trkpt><trkpt lat="45.5921606" lon="12.3332881"><ele>4.0</ele><time>2026-03-29T15:58:06.536Z</time></trkpt><trkpt lat="45.5921769" lon="12.3331193"><ele>3.75</ele><time>2026-03-29T15:58:07.527Z</time></trkpt><trkpt lat="45.5921958" lon="12.3329459"><ele>3.5</ele><time>2026-03-29T15:58:08.552Z</time></trkpt><trkpt lat="45.5922067" lon="12.3327685"><ele>3.25</ele><time>2026-03-29T15:58:09.546Z</time></trkpt><trkpt lat="45.5922222" lon="12.3325975"><ele>3.0</ele><time>2026-03-29T15:58:10.549Z</time></trkpt><trkpt lat="45.5922386" lon="12.3324321"><ele>3.0</ele><time>2026-03-29T15:58:11.538Z</time></trkpt><trkpt lat="45.5922485" lon="12.3322673"><ele>3.0</ele><time>2026-03-29T15:58:12.553Z</time></trkpt><trkpt lat="45.5922753" lon="12.332112"><ele>3.0</ele><time>2026-03-29T15:58:13.555Z</time></trkpt><trkpt lat="45.5922994" lon="12.3319584"><ele>3.0</ele><time>2026-03-29T15:58:14.548Z</time></trkpt><trkpt lat="45.5923166" lon="12.3318087"><ele>3.0</ele><time>2026-03-29T15:58:15.55Z</time></trkpt><trkpt lat="45.5923331" lon="12.331666"><ele>3.0</ele><time>2026-03-29T15:58:16.531Z</time></trkpt><trkpt lat="45.5923498" lon="12.3315252"><ele>3.0</ele><time>2026-03-29T15:58:17.539Z</time></trkpt><trkpt lat="45.5923645" lon="12.3313855"><ele>3.0</ele><time>2026-03-29T15:58:18.545Z</time></trkpt><trkpt lat="45.5923771" lon="12.331248"><ele>3.0</ele><time>2026-03-29T15:58:19.546Z</time></trkpt><trkpt lat="45.5923722" lon="12.3311109"><ele>3.0</ele><time>2026-03-29T15:58:20.541Z</time></trkpt><trkpt lat="45.5923784" lon="12.3309872"><ele>3.0</ele><time>2026-03-29T15:58:21.554Z</time></trkpt><trkpt lat="45.5923868" lon="12.3308722"><ele>3.0</ele><time>2026-03-29T15:58:22.543Z</time></trkpt><trkpt lat="45.592406" lon="12.3307663"><ele>3.0</ele><time>2026-03-29T15:58:23.538Z</time></trkpt><trkpt lat="45.5924193" lon="12.3306618"><ele>3.0</ele><time>2026-03-29T15:58:24.527Z</time></trkpt><trkpt lat="45.5924313" lon="12.3305555"><ele>3.0</ele><time>2026-03-29T15:58:25.533Z</time></trkpt><trkpt lat="45.592452" lon="12.3304453"><ele>3.0</ele><time>2026-03-29T15:58:26.529Z</time></trkpt><trkpt lat="45.5924808" lon="12.3303238"><ele>3.0</ele><time>2026-03-29T15:58:27.525Z</time></trkpt><trkpt lat="45.5925055" lon="12.3301913"><ele>3.0</ele><time>2026-03-29T15:58:28.528Z</time></trkpt><trkpt lat="45.5925308" lon="12.3300577"><ele>3.0</ele><time>2026-03-29T15:58:29.532Z</time></trkpt><trkpt lat="45.5925434" lon="12.3299238"><ele>3.0</ele><time>2026-03-29T15:58:30.535Z</time></trkpt><trkpt lat="45.5925603" lon="12.3297924"><ele>3.0</ele><time>2026-03-29T15:58:31.543Z</time></trkpt><trkpt lat="45.5925761" lon="12.3296575"><ele>3.0</ele><time>2026-03-29T15:58:32.55Z</time></trkpt><trkpt lat="45.5925918" lon="12.3295166"><ele>3.0</ele><time>2026-03-29T15:58:33.538Z</time></trkpt><trkpt lat="45.5926064" lon="12.3293759"><ele>3.0</ele><time>2026-03-29T15:58:34.535Z</time></trkpt><trkpt lat="45.5926208" lon="12.3292375"><ele>3.0</ele><time>2026-03-29T15:58:35.544Z</time></trkpt><trkpt lat="45.5926378" lon="12.3291018"><ele>3.0</ele><time>2026-03-29T15:58:36.536Z</time></trkpt><trkpt lat="45.592649" lon="12.3289684"><ele>3.0</ele><time>2026-03-29T15:58:37.552Z</time></trkpt><trkpt lat="45.5926677" lon="12.3288404"><ele>3.0</ele><time>2026-03-29T15:58:38.538Z</time></trkpt><trkpt lat="45.5926881" lon="12.3287168"><ele>3.0</ele><time>2026-03-29T15:58:39.526Z</time></trkpt><trkpt lat="45.5927191" lon="12.3285999"><ele>3.0</ele><time>2026-03-29T15:58:40.55Z</time></trkpt><trkpt lat="45.592759" lon="12.3284913"><ele>3.0</ele><time>2026-03-29T15:58:41.541Z</time></trkpt><trkpt lat="45.592802" lon="12.3283891"><ele>3.0</ele><time>2026-03-29T15:58:42.541Z</time></trkpt><trkpt lat="45.5928498" lon="12.3282902"><ele>3.2</ele><time>2026-03-29T15:58:43.539Z</time></trkpt><trkpt lat="45.5929" lon="12.3281848"><ele>3.4</ele><time>2026-03-29T15:58:44.553Z</time></trkpt><trkpt lat="45.5929633" lon="12.3280886"><ele>3.6000000000000005</ele><time>2026-03-29T15:58:45.542Z</time></trkpt><trkpt lat="45.5930315" lon="12.3279997"><ele>3.8000000000000003</ele><time>2026-03-29T15:58:46.535Z</time></trkpt><trkpt lat="45.5931037" lon="12.3279215"><ele>4.0</ele><time>2026-03-29T15:58:47.544Z</time></trkpt><trkpt lat="45.5931813" lon="12.3278602"><ele>3.6666666666666665</ele><time>2026-03-29T15:58:48.529Z</time></trkpt><trkpt lat="45.5932469" lon="12.3278006"><ele>3.333333333333333</ele><time>2026-03-29T15:58:49.537Z</time></trkpt><trkpt lat="45.5932837" lon="12.327722"><ele>3.0</ele><time>2026-03-29T15:58:50.554Z</time></trkpt><trkpt lat="45.5932673" lon="12.3275549"><ele>2.6666666666666665</ele><time>2026-03-29T15:58:52.529Z</time></trkpt><trkpt lat="45.5932149" lon="12.3275009"><ele>2.333333333333333</ele><time>2026-03-29T15:58:53.533Z</time></trkpt><trkpt lat="45.5931085" lon="12.3274914"><ele>2.0</ele><time>2026-03-29T15:58:54.537Z</time></trkpt><trkpt lat="45.5929876" lon="12.3274385"><ele>2.0</ele><time>2026-03-29T15:58:55.535Z</time></trkpt><trkpt lat="45.5928599" lon="12.3273572"><ele>2.0</ele><time>2026-03-29T15:58:56.548Z</time></trkpt><trkpt lat="45.5927341" lon="12.3272849"><ele>2.0</ele><time>2026-03-29T15:58:57.531Z</time></trkpt><trkpt lat="45.5926192" lon="12.3272012"><ele>2.0</ele><time>2026-03-29T15:58:58.565Z</time></trkpt><trkpt lat="45.5925223" lon="12.3270903"><ele>2.75</ele><time>2026-03-29T15:58:59.562Z</time></trkpt><trkpt lat="45.5924169" lon="12.3270067"><ele>3.5</ele><time>2026-03-29T15:59:00.537Z</time></trkpt><trkpt lat="45.592308" lon="12.3269302"><ele>4.25</ele><time>2026-03-29T15:59:01.546Z</time></trkpt><trkpt lat="45.5922046" lon="12.3268584"><ele>5.0</ele><time>2026-03-29T15:59:02.532Z</time></trkpt><trkpt lat="45.5921131" lon="12.3267979"><ele>5.0</ele><time>2026-03-29T15:59:03.533Z</time></trkpt><trkpt lat="45.5920422" lon="12.3267496"><ele>5.0</ele><time>2026-03-29T15:59:04.533Z</time></trkpt><trkpt lat="45.5919446" lon="12.3266798"><ele>5.0</ele><time>2026-03-29T15:59:06.521Z</time></trkpt><trkpt lat="45.5919326" lon="12.3264995"><ele>5.0</ele><time>2026-03-29T15:59:08.522Z</time></trkpt><trkpt lat="45.5919873" lon="12.3263601"><ele>5.0</ele><time>2026-03-29T15:59:09.539Z</time></trkpt><trkpt lat="45.5920442" lon="12.3262001"><ele>4.5</ele><time>2026-03-29T15:59:10.533Z</time></trkpt><trkpt lat="45.5920968" lon="12.3260383"><ele>4.0</ele><time>2026-03-29T15:59:11.551Z</time></trkpt><trkpt lat="45.5921497" lon="12.3258749"><ele>3.5</ele><time>2026-03-29T15:59:12.553Z</time></trkpt><trkpt lat="45.5921956" lon="12.325702"><ele>3.0</ele><time>2026-03-29T15:59:13.565Z</time></trkpt><trkpt lat="45.5922443" lon="12.3255303"><ele>2.75</ele><time>2026-03-29T15:59:14.538Z</time></trkpt><trkpt lat="45.5922982" lon="12.3253636"><ele>2.5</ele><time>2026-03-29T15:59:15.527Z</time></trkpt><trkpt lat="45.5923507" lon="12.3252037"><ele>2.25</ele><time>2026-03-29T15:59:16.523Z</time></trkpt><trkpt lat="45.5923868" lon="12.3250423"><ele>2.0</ele><time>2026-03-29T15:59:17.53Z</time></trkpt><trkpt lat="45.5924292" lon="12.3248882"><ele>2.0</ele><time>2026-03-29T15:59:18.564Z</time></trkpt><trkpt lat="45.592473" lon="12.3247446"><ele>2.0</ele><time>2026-03-29T15:59:19.531Z</time></trkpt><trkpt lat="45.5925152" lon="12.3246131"><ele>2.0</ele><time>2026-03-29T15:59:20.531Z</time></trkpt><trkpt lat="45.5925644" lon="12.3244964"><ele>2.0</ele><time>2026-03-29T15:59:21.532Z</time></trkpt><trkpt lat="45.5926325" lon="12.3243912"><ele>2.0</ele><time>2026-03-29T15:59:22.538Z</time></trkpt><trkpt lat="45.5927482" lon="12.3243179"><ele>2.25</ele><time>2026-03-29T15:59:23.542Z</time></trkpt><trkpt lat="45.5928654" lon="12.3242202"><ele>2.5</ele><time>2026-03-29T15:59:24.541Z</time></trkpt><trkpt lat="45.5929731" lon="12.3241181"><ele>2.75</ele><time>2026-03-29T15:59:25.536Z</time></trkpt><trkpt lat="45.593072" lon="12.3240218"><ele>3.0</ele><time>2026-03-29T15:59:26.562Z</time></trkpt><trkpt lat="45.5931628" lon="12.3239361"><ele>3.1666666666666665</ele><time>2026-03-29T15:59:27.539Z</time></trkpt><trkpt lat="45.5932414" lon="12.3238562"><ele>3.333333333333333</ele><time>2026-03-29T15:59:28.547Z</time></trkpt><trkpt lat="45.5933052" lon="12.3238022"><ele>3.5</ele><time>2026-03-29T15:59:29.554Z</time></trkpt><trkpt lat="45.5933904" lon="12.3237594"><ele>3.6666666666666665</ele><time>2026-03-29T15:59:31.54Z</time></trkpt><trkpt lat="45.593433" lon="12.3236811"><ele>3.833333333333333</ele><time>2026-03-29T15:59:33.551Z</time></trkpt><trkpt lat="45.5934262" lon="12.3235285"><ele>4.0</ele><time>2026-03-29T15:59:35.55Z</time></trkpt><trkpt lat="45.5933921" lon="12.3234112"><ele>4.0</ele><time>2026-03-29T15:59:36.549Z</time></trkpt><trkpt lat="45.5933416" lon="12.3232901"><ele>4.0</ele><time>2026-03-29T15:59:37.545Z</time></trkpt><trkpt lat="45.5933131" lon="12.3231578"><ele>4.0</ele><time>2026-03-29T15:59:38.532Z</time></trkpt><trkpt lat="45.5932594" lon="12.3230553"><ele>4.0</ele><time>2026-03-29T15:59:39.555Z</time></trkpt><trkpt lat="45.5932004" lon="12.3229594"><ele>4.0</ele><time>2026-03-29T15:59:40.538Z</time></trkpt><trkpt lat="45.5931475" lon="12.3228629"><ele>3.6666666666666665</ele><time>2026-03-29T15:59:41.523Z</time></trkpt><trkpt lat="45.5931061" lon="12.3227617"><ele>3.333333333333333</ele><time>2026-03-29T15:59:42.531Z</time></trkpt><trkpt lat="45.5930974" lon="12.3226486"><ele>3.0</ele><time>2026-03-29T15:59:43.548Z</time></trkpt><trkpt lat="45.5931047" lon="12.3225329"><ele>2.6666666666666665</ele><time>2026-03-29T15:59:44.53Z</time></trkpt><trkpt lat="45.5931501" lon="12.3224111"><ele>2.333333333333333</ele><time>2026-03-29T15:59:45.532Z</time></trkpt><trkpt lat="45.5932107" lon="12.3223028"><ele>2.0</ele><time>2026-03-29T15:59:46.526Z</time></trkpt><trkpt lat="45.5932775" lon="12.3222131"><ele>2.0</ele><time>2026-03-29T15:59:47.534Z</time></trkpt><trkpt lat="45.5933168" lon="12.3221017"><ele>2.0</ele><time>2026-03-29T15:59:48.538Z</time></trkpt><trkpt lat="45.5933463" lon="12.3219884"><ele>2.0</ele><time>2026-03-29T15:59:49.559Z</time></trkpt><trkpt lat="45.5933508" lon="12.3218596"><ele>2.0</ele><time>2026-03-29T15:59:50.554Z</time></trkpt><trkpt lat="45.5933187" lon="12.3217339"><ele>2.0</ele><time>2026-03-29T15:59:51.559Z</time></trkpt><trkpt lat="45.5932848" lon="12.3216062"><ele>2.0</ele><time>2026-03-29T15:59:52.548Z</time></trkpt><trkpt lat="45.593239" lon="12.3214752"><ele>2.0</ele><time>2026-03-29T15:59:53.538Z</time></trkpt><trkpt lat="45.5931665" lon="12.3213518"><ele>2.0</ele><time>2026-03-29T15:59:54.546Z</time></trkpt><trkpt lat="45.593083" lon="12.3212231"><ele>2.0</ele><time>2026-03-29T15:59:55.549Z</time></trkpt><trkpt lat="45.5929869" lon="12.3211062"><ele>2.0</ele><time>2026-03-29T15:59:56.536Z</time></trkpt><trkpt lat="45.5929179" lon="12.3209671"><ele>2.0</ele><time>2026-03-29T15:59:57.538Z</time></trkpt><trkpt lat="45.5928406" lon="12.3208453"><ele>2.0</ele><time>2026-03-29T15:59:58.529Z</time></trkpt><trkpt lat="45.5927627" lon="12.3207341"><ele>2.0</ele><time>2026-03-29T15:59:59.532Z</time></trkpt><trkpt lat="45.5926943" lon="12.3206434"><ele>2.0</ele><time>2026-03-29T16:00:00.544Z</time></trkpt><trkpt lat="45.5926461" lon="12.3205641"><ele>2.4000000000000004</ele><time>2026-03-29T16:00:01.529Z</time></trkpt><trkpt lat="45.5926034" lon="12.3204933"><ele>2.8000000000000003</ele><time>2026-03-29T16:00:02.518Z</time></trkpt><trkpt lat="45.5925283" lon="12.3203647"><ele>3.2</ele><time>2026-03-29T16:00:04.531Z</time></trkpt><trkpt lat="45.5925283" lon="12.3202685"><ele>3.6</ele><time>2026-03-29T16:00:05.541Z</time></trkpt><trkpt lat="45.5925775" lon="12.3201444"><ele>4.0</ele><time>2026-03-29T16:00:06.54Z</time></trkpt><trkpt lat="45.5926659" lon="12.3200091"><ele>4.0</ele><time>2026-03-29T16:00:07.53Z</time></trkpt><trkpt lat="45.5927537" lon="12.31987"><ele>4.0</ele><time>2026-03-29T16:00:08.542Z</time></trkpt><trkpt lat="45.5928292" lon="12.3197379"><ele>4.0</ele><time>2026-03-29T16:00:09.54Z</time></trkpt><trkpt lat="45.5928969" lon="12.3196244"><ele>4.0</ele><time>2026-03-29T16:00:10.534Z</time></trkpt><trkpt lat="45.5929606" lon="12.3195335"><ele>4.0</ele><time>2026-03-29T16:00:11.546Z</time></trkpt><trkpt lat="45.5930131" lon="12.3194626"><ele>3.6</ele><time>2026-03-29T16:00:12.535Z</time></trkpt><trkpt lat="45.5931126" lon="12.3193736"><ele>3.2</ele><time>2026-03-29T16:00:14.556Z</time></trkpt><trkpt lat="45.5931641" lon="12.3193185"><ele>2.8000000000000003</ele><time>2026-03-29T16:00:15.545Z</time></trkpt><trkpt lat="45.5932173" lon="12.3192303"><ele>2.4000000000000004</ele><time>2026-03-29T16:00:16.529Z</time></trkpt><trkpt lat="45.5932828" lon="12.3191195"><ele>2.0</ele><time>2026-03-29T16:00:17.521Z</time></trkpt><trkpt lat="45.593359" lon="12.31899"><ele>2.6666666666666665</ele><time>2026-03-29T16:00:18.532Z</time></trkpt><trkpt lat="45.593456" lon="12.3188392"><ele>3.333333333333333</ele><time>2026-03-29T16:00:19.531Z</time></trkpt><trkpt lat="45.5935622" lon="12.3186719"><ele>4.0</ele><time>2026-03-29T16:00:20.528Z</time></trkpt><trkpt lat="45.593675" lon="12.3185061"><ele>4.0</ele><time>2026-03-29T16:00:21.567Z</time></trkpt><trkpt lat="45.5937917" lon="12.3183581"><ele>4.0</ele><time>2026-03-29T16:00:22.539Z</time></trkpt><trkpt lat="45.5939013" lon="12.3182162"><ele>4.0</ele><time>2026-03-29T16:00:23.526Z</time></trkpt><trkpt lat="45.5940129" lon="12.3181085"><ele>4.0</ele><time>2026-03-29T16:00:24.537Z</time></trkpt><trkpt lat="45.5941049" lon="12.3180245"><ele>4.4</ele><time>2026-03-29T16:00:25.532Z</time></trkpt><trkpt lat="45.5941801" lon="12.3179647"><ele>4.800000000000001</ele><time>2026-03-29T16:00:26.542Z</time></trkpt><trkpt lat="45.594264" lon="12.3178832"><ele>5.199999999999999</ele><time>2026-03-29T16:00:28.558Z</time></trkpt><trkpt lat="45.5942993" lon="12.3177714"><ele>5.6</ele><time>2026-03-29T16:00:40.527Z</time></trkpt><trkpt lat="45.5942746" lon="12.3175878"><ele>6.0</ele><time>2026-03-29T16:00:42.528Z</time></trkpt><trkpt lat="45.594251" lon="12.3174746"><ele>6.0</ele><time>2026-03-29T16:00:43.545Z</time></trkpt><trkpt lat="45.5942204" lon="12.3173837"><ele>6.0</ele><time>2026-03-29T16:00:44.525Z</time></trkpt><trkpt lat="45.5942265" lon="12.3172094"><ele>6.0</ele><time>2026-03-29T16:00:46.533Z</time></trkpt><trkpt lat="45.5942824" lon="12.3170984"><ele>6.0</ele><time>2026-03-29T16:00:47.539Z</time></trkpt><trkpt lat="45.5943709" lon="12.3169416"><ele>6.0</ele><time>2026-03-29T16:00:48.524Z</time></trkpt><trkpt lat="45.5944654" lon="12.3167571"><ele>6.0</ele><time>2026-03-29T16:00:49.532Z</time></trkpt><trkpt lat="45.5945553" lon="12.3165677"><ele>6.0</ele><time>2026-03-29T16:00:50.56Z</time></trkpt><trkpt lat="45.5946514" lon="12.3163927"><ele>6.0</ele><time>2026-03-29T16:00:51.535Z</time></trkpt><trkpt lat="45.5947514" lon="12.316238"><ele>6.0</ele><time>2026-03-29T16:00:52.537Z</time></trkpt><trkpt lat="45.5948672" lon="12.3161003"><ele>6.0</ele><time>2026-03-29T16:00:53.545Z</time></trkpt><trkpt lat="45.5950028" lon="12.3159681"><ele>6.0</ele><time>2026-03-29T16:00:54.54Z</time></trkpt><trkpt lat="45.5951508" lon="12.3158336"><ele>6.0</ele><time>2026-03-29T16:00:55.543Z</time></trkpt><trkpt lat="45.595305" lon="12.3156911"><ele>6.0</ele><time>2026-03-29T16:00:56.552Z</time></trkpt><trkpt lat="45.5954572" lon="12.3155502"><ele>6.0</ele><time>2026-03-29T16:00:57.545Z</time></trkpt><trkpt lat="45.5956028" lon="12.3154166"><ele>5.333333333333333</ele><time>2026-03-29T16:00:58.538Z</time></trkpt><trkpt lat="45.595742" lon="12.3152843"><ele>4.666666666666666</ele><time>2026-03-29T16:00:59.551Z</time></trkpt><trkpt lat="45.5958736" lon="12.3151537"><ele>4.0</ele><time>2026-03-29T16:01:00.531Z</time></trkpt><trkpt lat="45.5960023" lon="12.3150443"><ele>4.0</ele><time>2026-03-29T16:01:01.555Z</time></trkpt><trkpt lat="45.5961158" lon="12.3149238"><ele>4.0</ele><time>2026-03-29T16:01:02.537Z</time></trkpt><trkpt lat="45.5962106" lon="12.3147868"><ele>4.0</ele><time>2026-03-29T16:01:03.547Z</time></trkpt><trkpt lat="45.5962868" lon="12.3146375"><ele>4.0</ele><time>2026-03-29T16:01:04.523Z</time></trkpt><trkpt lat="45.5963597" lon="12.3144938"><ele>4.25</ele><time>2026-03-29T16:01:05.53Z</time></trkpt><trkpt lat="45.596421" lon="12.3143474"><ele>4.5</ele><time>2026-03-29T16:01:06.529Z</time></trkpt><trkpt lat="45.5964893" lon="12.3141991"><ele>4.75</ele><time>2026-03-29T16:01:07.541Z</time></trkpt><trkpt lat="45.5965569" lon="12.3140462"><ele>5.0</ele><time>2026-03-29T16:01:08.56Z</time></trkpt><trkpt lat="45.5966202" lon="12.3138885"><ele>4.6</ele><time>2026-03-29T16:01:09.548Z</time></trkpt><trkpt lat="45.5966826" lon="12.313738"><ele>4.2</ele><time>2026-03-29T16:01:10.527Z</time></trkpt><trkpt lat="45.5967397" lon="12.3136103"><ele>3.8</ele><time>2026-03-29T16:01:11.542Z</time></trkpt><trkpt lat="45.5967837" lon="12.3135159"><ele>3.4</ele><time>2026-03-29T16:01:12.547Z</time></trkpt><trkpt lat="45.5968284" lon="12.3134088"><ele>3.0</ele><time>2026-03-29T16:01:14.55Z</time></trkpt><trkpt lat="45.596822" lon="12.313292"><ele>3.0</ele><time>2026-03-29T16:01:17.535Z</time></trkpt><trkpt lat="45.5967781" lon="12.3132192"><ele>3.0</ele><time>2026-03-29T16:01:18.535Z</time></trkpt><trkpt lat="45.596686" lon="12.3131454"><ele>3.0</ele><time>2026-03-29T16:01:19.543Z</time></trkpt><trkpt lat="45.5965992" lon="12.3130691"><ele>3.0</ele><time>2026-03-29T16:01:20.543Z</time></trkpt><trkpt lat="45.5965262" lon="12.3129848"><ele>3.0</ele><time>2026-03-29T16:01:21.545Z</time></trkpt><trkpt lat="45.5964549" lon="12.3129158"><ele>2.8</ele><time>2026-03-29T16:01:22.532Z</time></trkpt><trkpt lat="45.5963833" lon="12.3128576"><ele>2.5999999999999996</ele><time>2026-03-29T16:01:23.531Z</time></trkpt><trkpt lat="45.5963159" lon="12.312806"><ele>2.4000000000000004</ele><time>2026-03-29T16:01:24.528Z</time></trkpt><trkpt lat="45.5962579" lon="12.3127538"><ele>2.2</ele><time>2026-03-29T16:01:25.551Z</time></trkpt><trkpt lat="45.5961814" lon="12.3126233"><ele>2.0</ele><time>2026-03-29T16:01:27.537Z</time></trkpt><trkpt lat="45.5961128" lon="12.3125053"><ele>2.2</ele><time>2026-03-29T16:01:29.534Z</time></trkpt><trkpt lat="45.596038" lon="12.3123973"><ele>2.4000000000000004</ele><time>2026-03-29T16:01:31.534Z</time></trkpt><trkpt lat="45.5959324" lon="12.3123091"><ele>2.5999999999999996</ele><time>2026-03-29T16:01:33.541Z</time></trkpt><trkpt lat="45.5958485" lon="12.3121959"><ele>2.8</ele><time>2026-03-29T16:01:35.551Z</time></trkpt><trkpt lat="45.5957936" lon="12.312125"><ele>3.0</ele><time>2026-03-29T16:01:37.537Z</time></trkpt><trkpt lat="45.5956978" lon="12.3121425"><ele>3.2</ele><time>2026-03-29T16:01:43.533Z</time></trkpt><trkpt lat="45.5956405" lon="12.3122659"><ele>3.4</ele><time>2026-03-29T16:01:45.529Z</time></trkpt><trkpt lat="45.5955881" lon="12.3123887"><ele>3.6000000000000005</ele><time>2026-03-29T16:01:47.54Z</time></trkpt><trkpt lat="45.5955332" lon="12.3124839"><ele>3.8000000000000003</ele><time>2026-03-29T16:01:49.536Z</time></trkpt><trkpt lat="45.5954905" lon="12.3125525"><ele>4.0</ele><time>2026-03-29T16:01:51.529Z</time></trkpt><trkpt lat="45.5954042" lon="12.3126107"><ele>4.0</ele><time>2026-03-29T16:02:39.527Z</time></trkpt><trkpt lat="45.5953075" lon="12.3126386"><ele>5.0</ele><time>2026-03-29T16:03:01.545Z</time></trkpt><trkpt lat="45.5952274" lon="12.312705"><ele>5.0</ele><time>2026-03-29T16:03:02.531Z</time></trkpt></trkseg></trk></gpx>